<?xml version="1.0" encoding="UTF-8" standalone="no" ?>
<gpx xmlns="http://www.topografix.com/GPX/1/1" xmlns:xsi="http://www.w3.org/2001/XMLSchema-instance" xsi:schemaLocation="http://www.topografix.com/GPX/1/1 http://www.topografix.com/GPX/1/1/gpx.xsd" version="1.1" creator="VisuGPX - https://www.visugpx.com">
  <metadata>
    <name>4 fils Aymon 2021_03_30</name>
  </metadata>
  <trk>
    <name><![CDATA[4 fils Aymon 2021_03_30_1]]></name>
    <trkseg>
      <trkpt lat="49.75381" lon="4.82191">
        <ele>204</ele>
        <time>2021-03-30T10:00:01.000Z</time>
      </trkpt>
      <trkpt lat="49.75381" lon="4.8219">
        <ele>205</ele>
        <time>2021-03-30T10:00:02.000Z</time>
      </trkpt>
      <trkpt lat="49.75382" lon="4.82188">
        <ele>205</ele>
        <time>2021-03-30T10:00:03.000Z</time>
      </trkpt>
      <trkpt lat="49.75383" lon="4.82186">
        <ele>205</ele>
        <time>2021-03-30T10:00:04.000Z</time>
      </trkpt>
      <trkpt lat="49.75385" lon="4.82185">
        <ele>205</ele>
        <time>2021-03-30T10:00:05.000Z</time>
      </trkpt>
      <trkpt lat="49.75388" lon="4.82184">
        <ele>204</ele>
        <time>2021-03-30T10:00:06.000Z</time>
      </trkpt>
      <trkpt lat="49.75391" lon="4.82183">
        <ele>203</ele>
        <time>2021-03-30T10:00:07.000Z</time>
      </trkpt>
      <trkpt lat="49.75395" lon="4.82184">
        <ele>202</ele>
        <time>2021-03-30T10:00:08.000Z</time>
      </trkpt>
      <trkpt lat="49.75399" lon="4.82185">
        <ele>201</ele>
        <time>2021-03-30T10:00:09.000Z</time>
      </trkpt>
      <trkpt lat="49.75403" lon="4.82186">
        <ele>200</ele>
        <time>2021-03-30T10:00:10.000Z</time>
      </trkpt>
      <trkpt lat="49.75407" lon="4.82188">
        <ele>199</ele>
        <time>2021-03-30T10:00:11.000Z</time>
      </trkpt>
      <trkpt lat="49.75411" lon="4.82191">
        <ele>198</ele>
        <time>2021-03-30T10:00:12.000Z</time>
      </trkpt>
      <trkpt lat="49.75415" lon="4.82194">
        <ele>197</ele>
        <time>2021-03-30T10:00:13.000Z</time>
      </trkpt>
      <trkpt lat="49.75419" lon="4.82197">
        <ele>196</ele>
        <time>2021-03-30T10:00:14.000Z</time>
      </trkpt>
      <trkpt lat="49.75424" lon="4.822">
        <ele>195</ele>
        <time>2021-03-30T10:00:15.000Z</time>
      </trkpt>
      <trkpt lat="49.75428" lon="4.82203">
        <ele>194</ele>
        <time>2021-03-30T10:00:16.000Z</time>
      </trkpt>
      <trkpt lat="49.75433" lon="4.82207">
        <ele>193</ele>
        <time>2021-03-30T10:00:17.000Z</time>
      </trkpt>
      <trkpt lat="49.75436" lon="4.82213">
        <ele>192</ele>
        <time>2021-03-30T10:00:18.000Z</time>
      </trkpt>
      <trkpt lat="49.7544" lon="4.82218">
        <ele>192</ele>
        <time>2021-03-30T10:00:19.000Z</time>
      </trkpt>
      <trkpt lat="49.75444" lon="4.82221">
        <ele>191</ele>
        <time>2021-03-30T10:00:20.000Z</time>
      </trkpt>
      <trkpt lat="49.75449" lon="4.82221">
        <ele>190</ele>
        <time>2021-03-30T10:00:21.000Z</time>
      </trkpt>
      <trkpt lat="49.75455" lon="4.82222">
        <ele>190</ele>
        <time>2021-03-30T10:00:22.000Z</time>
      </trkpt>
      <trkpt lat="49.7546" lon="4.82224">
        <ele>189</ele>
        <time>2021-03-30T10:00:23.000Z</time>
      </trkpt>
      <trkpt lat="49.75465" lon="4.82228">
        <ele>189</ele>
        <time>2021-03-30T10:00:24.000Z</time>
      </trkpt>
      <trkpt lat="49.75469" lon="4.82233">
        <ele>188</ele>
        <time>2021-03-30T10:00:25.000Z</time>
      </trkpt>
      <trkpt lat="49.75473" lon="4.82239">
        <ele>188</ele>
        <time>2021-03-30T10:00:26.000Z</time>
      </trkpt>
      <trkpt lat="49.75477" lon="4.82245">
        <ele>187</ele>
        <time>2021-03-30T10:00:27.000Z</time>
      </trkpt>
      <trkpt lat="49.75482" lon="4.8225">
        <ele>187</ele>
        <time>2021-03-30T10:00:28.000Z</time>
      </trkpt>
      <trkpt lat="49.75487" lon="4.82255">
        <ele>187</ele>
        <time>2021-03-30T10:00:29.000Z</time>
      </trkpt>
      <trkpt lat="49.75492" lon="4.8226">
        <ele>186</ele>
        <time>2021-03-30T10:00:30.000Z</time>
      </trkpt>
      <trkpt lat="49.75497" lon="4.82264">
        <ele>186</ele>
        <time>2021-03-30T10:00:31.000Z</time>
      </trkpt>
      <trkpt lat="49.75503" lon="4.82267">
        <ele>186</ele>
        <time>2021-03-30T10:00:32.000Z</time>
      </trkpt>
      <trkpt lat="49.75509" lon="4.8227">
        <ele>185</ele>
        <time>2021-03-30T10:00:33.000Z</time>
      </trkpt>
      <trkpt lat="49.75515" lon="4.82273">
        <ele>185</ele>
        <time>2021-03-30T10:00:34.000Z</time>
      </trkpt>
      <trkpt lat="49.75521" lon="4.82276">
        <ele>185</ele>
        <time>2021-03-30T10:00:35.000Z</time>
      </trkpt>
      <trkpt lat="49.75526" lon="4.82279">
        <ele>185</ele>
        <time>2021-03-30T10:00:36.000Z</time>
      </trkpt>
      <trkpt lat="49.75531" lon="4.82282">
        <ele>185</ele>
        <time>2021-03-30T10:00:37.000Z</time>
      </trkpt>
      <trkpt lat="49.75537" lon="4.82283">
        <ele>185</ele>
        <time>2021-03-30T10:00:38.000Z</time>
      </trkpt>
      <trkpt lat="49.75541" lon="4.82281">
        <ele>185</ele>
        <time>2021-03-30T10:00:39.000Z</time>
      </trkpt>
      <trkpt lat="49.75545" lon="4.82276">
        <ele>185</ele>
        <time>2021-03-30T10:00:40.000Z</time>
      </trkpt>
      <trkpt lat="49.75548" lon="4.8227">
        <ele>185</ele>
        <time>2021-03-30T10:00:41.000Z</time>
      </trkpt>
      <trkpt lat="49.75551" lon="4.82264">
        <ele>185</ele>
        <time>2021-03-30T10:00:42.000Z</time>
      </trkpt>
      <trkpt lat="49.75553" lon="4.82258">
        <ele>185</ele>
        <time>2021-03-30T10:00:43.000Z</time>
      </trkpt>
      <trkpt lat="49.75554" lon="4.82251">
        <ele>185</ele>
        <time>2021-03-30T10:00:44.000Z</time>
      </trkpt>
      <trkpt lat="49.75553" lon="4.82243">
        <ele>185</ele>
        <time>2021-03-30T10:00:45.000Z</time>
      </trkpt>
      <trkpt lat="49.75551" lon="4.82236">
        <ele>184</ele>
        <time>2021-03-30T10:00:46.000Z</time>
      </trkpt>
      <trkpt lat="49.75548" lon="4.82229">
        <ele>184</ele>
        <time>2021-03-30T10:00:47.000Z</time>
      </trkpt>
      <trkpt lat="49.75544" lon="4.82222">
        <ele>184</ele>
        <time>2021-03-30T10:00:48.000Z</time>
      </trkpt>
      <trkpt lat="49.7554" lon="4.82216">
        <ele>184</ele>
        <time>2021-03-30T10:00:49.000Z</time>
      </trkpt>
      <trkpt lat="49.75536" lon="4.82209">
        <ele>184</ele>
        <time>2021-03-30T10:00:50.000Z</time>
      </trkpt>
      <trkpt lat="49.75531" lon="4.82203">
        <ele>184</ele>
        <time>2021-03-30T10:00:51.000Z</time>
      </trkpt>
      <trkpt lat="49.75527" lon="4.82196">
        <ele>184</ele>
        <time>2021-03-30T10:00:52.000Z</time>
      </trkpt>
      <trkpt lat="49.75523" lon="4.8219">
        <ele>184</ele>
        <time>2021-03-30T10:00:53.000Z</time>
      </trkpt>
      <trkpt lat="49.75519" lon="4.82183">
        <ele>184</ele>
        <time>2021-03-30T10:00:54.000Z</time>
      </trkpt>
      <trkpt lat="49.75515" lon="4.82176">
        <ele>184</ele>
        <time>2021-03-30T10:00:55.000Z</time>
      </trkpt>
      <trkpt lat="49.75511" lon="4.8217">
        <ele>184</ele>
        <time>2021-03-30T10:00:56.000Z</time>
      </trkpt>
      <trkpt lat="49.75507" lon="4.82164">
        <ele>184</ele>
        <time>2021-03-30T10:00:57.000Z</time>
      </trkpt>
      <trkpt lat="49.75502" lon="4.82157">
        <ele>184</ele>
        <time>2021-03-30T10:00:58.000Z</time>
      </trkpt>
      <trkpt lat="49.75498" lon="4.82151">
        <ele>185</ele>
        <time>2021-03-30T10:00:59.000Z</time>
      </trkpt>
      <trkpt lat="49.75494" lon="4.82145">
        <ele>185</ele>
        <time>2021-03-30T10:01:00.000Z</time>
      </trkpt>
      <trkpt lat="49.75489" lon="4.82139">
        <ele>185</ele>
        <time>2021-03-30T10:01:01.000Z</time>
      </trkpt>
      <trkpt lat="49.75485" lon="4.82133">
        <ele>185</ele>
        <time>2021-03-30T10:01:02.000Z</time>
      </trkpt>
      <trkpt lat="49.75481" lon="4.82127">
        <ele>185</ele>
        <time>2021-03-30T10:01:03.000Z</time>
      </trkpt>
      <trkpt lat="49.75477" lon="4.82121">
        <ele>185</ele>
        <time>2021-03-30T10:01:04.000Z</time>
      </trkpt>
      <trkpt lat="49.75473" lon="4.82115">
        <ele>186</ele>
        <time>2021-03-30T10:01:05.000Z</time>
      </trkpt>
      <trkpt lat="49.75469" lon="4.8211">
        <ele>186</ele>
        <time>2021-03-30T10:01:06.000Z</time>
      </trkpt>
      <trkpt lat="49.75465" lon="4.82105">
        <ele>186</ele>
        <time>2021-03-30T10:01:07.000Z</time>
      </trkpt>
      <trkpt lat="49.75461" lon="4.821">
        <ele>186</ele>
        <time>2021-03-30T10:01:08.000Z</time>
      </trkpt>
      <trkpt lat="49.75457" lon="4.82095">
        <ele>186</ele>
        <time>2021-03-30T10:01:09.000Z</time>
      </trkpt>
      <trkpt lat="49.75452" lon="4.82091">
        <ele>187</ele>
        <time>2021-03-30T10:01:10.000Z</time>
      </trkpt>
      <trkpt lat="49.75448" lon="4.82088">
        <ele>187</ele>
        <time>2021-03-30T10:01:11.000Z</time>
      </trkpt>
      <trkpt lat="49.75444" lon="4.82084">
        <ele>187</ele>
        <time>2021-03-30T10:01:12.000Z</time>
      </trkpt>
      <trkpt lat="49.7544" lon="4.8208">
        <ele>187</ele>
        <time>2021-03-30T10:01:13.000Z</time>
      </trkpt>
      <trkpt lat="49.75435" lon="4.82076">
        <ele>187</ele>
        <time>2021-03-30T10:01:14.000Z</time>
      </trkpt>
      <trkpt lat="49.75431" lon="4.82072">
        <ele>187</ele>
        <time>2021-03-30T10:01:15.000Z</time>
      </trkpt>
      <trkpt lat="49.75427" lon="4.82068">
        <ele>187</ele>
        <time>2021-03-30T10:01:16.000Z</time>
      </trkpt>
      <trkpt lat="49.75423" lon="4.82064">
        <ele>187</ele>
        <time>2021-03-30T10:01:17.000Z</time>
      </trkpt>
      <trkpt lat="49.75419" lon="4.8206">
        <ele>187</ele>
        <time>2021-03-30T10:01:18.000Z</time>
      </trkpt>
      <trkpt lat="49.75415" lon="4.82057">
        <ele>187</ele>
        <time>2021-03-30T10:01:19.000Z</time>
      </trkpt>
      <trkpt lat="49.75412" lon="4.82053">
        <ele>188</ele>
        <time>2021-03-30T10:01:20.000Z</time>
      </trkpt>
      <trkpt lat="49.75408" lon="4.8205">
        <ele>188</ele>
        <time>2021-03-30T10:01:21.000Z</time>
      </trkpt>
      <trkpt lat="49.75404" lon="4.82046">
        <ele>188</ele>
        <time>2021-03-30T10:01:22.000Z</time>
      </trkpt>
      <trkpt lat="49.754" lon="4.82043">
        <ele>188</ele>
        <time>2021-03-30T10:01:23.000Z</time>
      </trkpt>
      <trkpt lat="49.75397" lon="4.82039">
        <ele>188</ele>
        <time>2021-03-30T10:01:24.000Z</time>
      </trkpt>
      <trkpt lat="49.75393" lon="4.82036">
        <ele>188</ele>
        <time>2021-03-30T10:01:25.000Z</time>
      </trkpt>
      <trkpt lat="49.75389" lon="4.82033">
        <ele>188</ele>
        <time>2021-03-30T10:01:26.000Z</time>
      </trkpt>
      <trkpt lat="49.75385" lon="4.82031">
        <ele>188</ele>
        <time>2021-03-30T10:01:27.000Z</time>
      </trkpt>
      <trkpt lat="49.75382" lon="4.82028">
        <ele>188</ele>
        <time>2021-03-30T10:01:28.000Z</time>
      </trkpt>
      <trkpt lat="49.75378" lon="4.82026">
        <ele>188</ele>
        <time>2021-03-30T10:01:29.000Z</time>
      </trkpt>
      <trkpt lat="49.75374" lon="4.82024">
        <ele>189</ele>
        <time>2021-03-30T10:01:30.000Z</time>
      </trkpt>
      <trkpt lat="49.75371" lon="4.82022">
        <ele>189</ele>
        <time>2021-03-30T10:01:31.000Z</time>
      </trkpt>
      <trkpt lat="49.75368" lon="4.82021">
        <ele>189</ele>
        <time>2021-03-30T10:01:32.000Z</time>
      </trkpt>
      <trkpt lat="49.75364" lon="4.82018">
        <ele>189</ele>
        <time>2021-03-30T10:01:33.000Z</time>
      </trkpt>
      <trkpt lat="49.75361" lon="4.82017">
        <ele>189</ele>
        <time>2021-03-30T10:01:34.000Z</time>
      </trkpt>
      <trkpt lat="49.75357" lon="4.82015">
        <ele>189</ele>
        <time>2021-03-30T10:01:35.000Z</time>
      </trkpt>
      <trkpt lat="49.75354" lon="4.82012">
        <ele>189</ele>
        <time>2021-03-30T10:01:36.000Z</time>
      </trkpt>
      <trkpt lat="49.7535" lon="4.8201">
        <ele>189</ele>
        <time>2021-03-30T10:01:37.000Z</time>
      </trkpt>
      <trkpt lat="49.75347" lon="4.82008">
        <ele>189</ele>
        <time>2021-03-30T10:01:38.000Z</time>
      </trkpt>
      <trkpt lat="49.75343" lon="4.82006">
        <ele>189</ele>
        <time>2021-03-30T10:01:39.000Z</time>
      </trkpt>
      <trkpt lat="49.7534" lon="4.82004">
        <ele>189</ele>
        <time>2021-03-30T10:01:40.000Z</time>
      </trkpt>
      <trkpt lat="49.75336" lon="4.82002">
        <ele>190</ele>
        <time>2021-03-30T10:01:41.000Z</time>
      </trkpt>
      <trkpt lat="49.75332" lon="4.81999">
        <ele>190</ele>
        <time>2021-03-30T10:01:42.000Z</time>
      </trkpt>
      <trkpt lat="49.75328" lon="4.81997">
        <ele>190</ele>
        <time>2021-03-30T10:01:43.000Z</time>
      </trkpt>
      <trkpt lat="49.75323" lon="4.81994">
        <ele>190</ele>
        <time>2021-03-30T10:01:44.000Z</time>
      </trkpt>
      <trkpt lat="49.75319" lon="4.81991">
        <ele>190</ele>
        <time>2021-03-30T10:01:45.000Z</time>
      </trkpt>
      <trkpt lat="49.75315" lon="4.81989">
        <ele>191</ele>
        <time>2021-03-30T10:01:46.000Z</time>
      </trkpt>
      <trkpt lat="49.75311" lon="4.81986">
        <ele>191</ele>
        <time>2021-03-30T10:01:47.000Z</time>
      </trkpt>
      <trkpt lat="49.75308" lon="4.81983">
        <ele>191</ele>
        <time>2021-03-30T10:01:48.000Z</time>
      </trkpt>
      <trkpt lat="49.75304" lon="4.81981">
        <ele>191</ele>
        <time>2021-03-30T10:01:49.000Z</time>
      </trkpt>
      <trkpt lat="49.753" lon="4.81978">
        <ele>191</ele>
        <time>2021-03-30T10:01:50.000Z</time>
      </trkpt>
      <trkpt lat="49.75297" lon="4.81976">
        <ele>192</ele>
        <time>2021-03-30T10:01:51.000Z</time>
      </trkpt>
      <trkpt lat="49.75294" lon="4.81973">
        <ele>192</ele>
        <time>2021-03-30T10:01:52.000Z</time>
      </trkpt>
      <trkpt lat="49.7529" lon="4.81971">
        <ele>192</ele>
        <time>2021-03-30T10:01:53.000Z</time>
      </trkpt>
      <trkpt lat="49.75287" lon="4.81968">
        <ele>192</ele>
        <time>2021-03-30T10:01:54.000Z</time>
      </trkpt>
      <trkpt lat="49.75283" lon="4.81965">
        <ele>192</ele>
        <time>2021-03-30T10:01:55.000Z</time>
      </trkpt>
      <trkpt lat="49.75279" lon="4.81962">
        <ele>193</ele>
        <time>2021-03-30T10:01:56.000Z</time>
      </trkpt>
      <trkpt lat="49.75276" lon="4.81959">
        <ele>193</ele>
        <time>2021-03-30T10:01:57.000Z</time>
      </trkpt>
      <trkpt lat="49.75272" lon="4.81956">
        <ele>193</ele>
        <time>2021-03-30T10:01:58.000Z</time>
      </trkpt>
      <trkpt lat="49.75269" lon="4.81953">
        <ele>193</ele>
        <time>2021-03-30T10:01:59.000Z</time>
      </trkpt>
      <trkpt lat="49.75265" lon="4.8195">
        <ele>193</ele>
        <time>2021-03-30T10:02:00.000Z</time>
      </trkpt>
      <trkpt lat="49.75262" lon="4.81947">
        <ele>193</ele>
        <time>2021-03-30T10:02:01.000Z</time>
      </trkpt>
      <trkpt lat="49.75259" lon="4.81944">
        <ele>193</ele>
        <time>2021-03-30T10:02:02.000Z</time>
      </trkpt>
      <trkpt lat="49.75256" lon="4.8194">
        <ele>194</ele>
        <time>2021-03-30T10:02:03.000Z</time>
      </trkpt>
      <trkpt lat="49.75253" lon="4.81936">
        <ele>194</ele>
        <time>2021-03-30T10:02:04.000Z</time>
      </trkpt>
      <trkpt lat="49.75251" lon="4.81932">
        <ele>194</ele>
        <time>2021-03-30T10:02:05.000Z</time>
      </trkpt>
      <trkpt lat="49.75248" lon="4.81927">
        <ele>194</ele>
        <time>2021-03-30T10:02:06.000Z</time>
      </trkpt>
      <trkpt lat="49.75246" lon="4.81923">
        <ele>194</ele>
        <time>2021-03-30T10:02:07.000Z</time>
      </trkpt>
      <trkpt lat="49.75243" lon="4.81919">
        <ele>194</ele>
        <time>2021-03-30T10:02:08.000Z</time>
      </trkpt>
      <trkpt lat="49.75239" lon="4.81915">
        <ele>195</ele>
        <time>2021-03-30T10:02:09.000Z</time>
      </trkpt>
      <trkpt lat="49.75236" lon="4.81912">
        <ele>195</ele>
        <time>2021-03-30T10:02:10.000Z</time>
      </trkpt>
      <trkpt lat="49.75232" lon="4.81907">
        <ele>195</ele>
        <time>2021-03-30T10:02:11.000Z</time>
      </trkpt>
      <trkpt lat="49.75228" lon="4.81903">
        <ele>195</ele>
        <time>2021-03-30T10:02:12.000Z</time>
      </trkpt>
      <trkpt lat="49.75225" lon="4.81899">
        <ele>195</ele>
        <time>2021-03-30T10:02:13.000Z</time>
      </trkpt>
      <trkpt lat="49.75221" lon="4.81894">
        <ele>196</ele>
        <time>2021-03-30T10:02:14.000Z</time>
      </trkpt>
      <trkpt lat="49.75217" lon="4.81889">
        <ele>196</ele>
        <time>2021-03-30T10:02:15.000Z</time>
      </trkpt>
      <trkpt lat="49.75214" lon="4.81885">
        <ele>196</ele>
        <time>2021-03-30T10:02:16.000Z</time>
      </trkpt>
      <trkpt lat="49.7521" lon="4.8188">
        <ele>196</ele>
        <time>2021-03-30T10:02:17.000Z</time>
      </trkpt>
      <trkpt lat="49.75206" lon="4.81875">
        <ele>196</ele>
        <time>2021-03-30T10:02:18.000Z</time>
      </trkpt>
      <trkpt lat="49.75203" lon="4.8187">
        <ele>197</ele>
        <time>2021-03-30T10:02:19.000Z</time>
      </trkpt>
      <trkpt lat="49.75199" lon="4.81865">
        <ele>197</ele>
        <time>2021-03-30T10:02:20.000Z</time>
      </trkpt>
      <trkpt lat="49.75196" lon="4.8186">
        <ele>197</ele>
        <time>2021-03-30T10:02:21.000Z</time>
      </trkpt>
      <trkpt lat="49.75193" lon="4.81854">
        <ele>197</ele>
        <time>2021-03-30T10:02:22.000Z</time>
      </trkpt>
      <trkpt lat="49.75189" lon="4.81849">
        <ele>197</ele>
        <time>2021-03-30T10:02:23.000Z</time>
      </trkpt>
      <trkpt lat="49.75186" lon="4.81843">
        <ele>197</ele>
        <time>2021-03-30T10:02:24.000Z</time>
      </trkpt>
      <trkpt lat="49.75183" lon="4.81838">
        <ele>198</ele>
        <time>2021-03-30T10:02:25.000Z</time>
      </trkpt>
      <trkpt lat="49.7518" lon="4.81832">
        <ele>198</ele>
        <time>2021-03-30T10:02:26.000Z</time>
      </trkpt>
      <trkpt lat="49.75177" lon="4.81827">
        <ele>198</ele>
        <time>2021-03-30T10:02:27.000Z</time>
      </trkpt>
      <trkpt lat="49.75174" lon="4.81821">
        <ele>198</ele>
        <time>2021-03-30T10:02:28.000Z</time>
      </trkpt>
      <trkpt lat="49.7517" lon="4.81816">
        <ele>198</ele>
        <time>2021-03-30T10:02:29.000Z</time>
      </trkpt>
      <trkpt lat="49.75167" lon="4.8181">
        <ele>198</ele>
        <time>2021-03-30T10:02:30.000Z</time>
      </trkpt>
      <trkpt lat="49.75164" lon="4.81805">
        <ele>198</ele>
        <time>2021-03-30T10:02:31.000Z</time>
      </trkpt>
      <trkpt lat="49.75161" lon="4.818">
        <ele>198</ele>
        <time>2021-03-30T10:02:32.000Z</time>
      </trkpt>
      <trkpt lat="49.75158" lon="4.81795">
        <ele>198</ele>
        <time>2021-03-30T10:02:33.000Z</time>
      </trkpt>
      <trkpt lat="49.75155" lon="4.8179">
        <ele>198</ele>
        <time>2021-03-30T10:02:34.000Z</time>
      </trkpt>
      <trkpt lat="49.75152" lon="4.81785">
        <ele>198</ele>
        <time>2021-03-30T10:02:35.000Z</time>
      </trkpt>
      <trkpt lat="49.75149" lon="4.8178">
        <ele>198</ele>
        <time>2021-03-30T10:02:36.000Z</time>
      </trkpt>
      <trkpt lat="49.75147" lon="4.81775">
        <ele>198</ele>
        <time>2021-03-30T10:02:37.000Z</time>
      </trkpt>
      <trkpt lat="49.75143" lon="4.8177">
        <ele>198</ele>
        <time>2021-03-30T10:02:38.000Z</time>
      </trkpt>
      <trkpt lat="49.7514" lon="4.81765">
        <ele>198</ele>
        <time>2021-03-30T10:02:39.000Z</time>
      </trkpt>
      <trkpt lat="49.75138" lon="4.81758">
        <ele>198</ele>
        <time>2021-03-30T10:02:40.000Z</time>
      </trkpt>
      <trkpt lat="49.75136" lon="4.81751">
        <ele>198</ele>
        <time>2021-03-30T10:02:41.000Z</time>
      </trkpt>
      <trkpt lat="49.75134" lon="4.81744">
        <ele>198</ele>
        <time>2021-03-30T10:02:42.000Z</time>
      </trkpt>
      <trkpt lat="49.75132" lon="4.81738">
        <ele>198</ele>
        <time>2021-03-30T10:02:43.000Z</time>
      </trkpt>
      <trkpt lat="49.75129" lon="4.81731">
        <ele>198</ele>
        <time>2021-03-30T10:02:44.000Z</time>
      </trkpt>
      <trkpt lat="49.75127" lon="4.81724">
        <ele>198</ele>
        <time>2021-03-30T10:02:45.000Z</time>
      </trkpt>
      <trkpt lat="49.75124" lon="4.81718">
        <ele>198</ele>
        <time>2021-03-30T10:02:46.000Z</time>
      </trkpt>
      <trkpt lat="49.75122" lon="4.81711">
        <ele>199</ele>
        <time>2021-03-30T10:02:47.000Z</time>
      </trkpt>
      <trkpt lat="49.7512" lon="4.81705">
        <ele>199</ele>
        <time>2021-03-30T10:02:48.000Z</time>
      </trkpt>
      <trkpt lat="49.75118" lon="4.81698">
        <ele>199</ele>
        <time>2021-03-30T10:02:49.000Z</time>
      </trkpt>
      <trkpt lat="49.75116" lon="4.81691">
        <ele>199</ele>
        <time>2021-03-30T10:02:50.000Z</time>
      </trkpt>
      <trkpt lat="49.75115" lon="4.81683">
        <ele>199</ele>
        <time>2021-03-30T10:02:51.000Z</time>
      </trkpt>
      <trkpt lat="49.75114" lon="4.81676">
        <ele>200</ele>
        <time>2021-03-30T10:02:52.000Z</time>
      </trkpt>
      <trkpt lat="49.75113" lon="4.81668">
        <ele>200</ele>
        <time>2021-03-30T10:02:53.000Z</time>
      </trkpt>
      <trkpt lat="49.75113" lon="4.81661">
        <ele>200</ele>
        <time>2021-03-30T10:02:54.000Z</time>
      </trkpt>
      <trkpt lat="49.75112" lon="4.81653">
        <ele>200</ele>
        <time>2021-03-30T10:02:55.000Z</time>
      </trkpt>
      <trkpt lat="49.75112" lon="4.81645">
        <ele>200</ele>
        <time>2021-03-30T10:02:56.000Z</time>
      </trkpt>
      <trkpt lat="49.75112" lon="4.81637">
        <ele>200</ele>
        <time>2021-03-30T10:02:57.000Z</time>
      </trkpt>
      <trkpt lat="49.75112" lon="4.81629">
        <ele>200</ele>
        <time>2021-03-30T10:02:58.000Z</time>
      </trkpt>
      <trkpt lat="49.75111" lon="4.8162">
        <ele>200</ele>
        <time>2021-03-30T10:02:59.000Z</time>
      </trkpt>
      <trkpt lat="49.75111" lon="4.81612">
        <ele>200</ele>
        <time>2021-03-30T10:03:00.000Z</time>
      </trkpt>
      <trkpt lat="49.75111" lon="4.81603">
        <ele>200</ele>
        <time>2021-03-30T10:03:01.000Z</time>
      </trkpt>
      <trkpt lat="49.75111" lon="4.81595">
        <ele>200</ele>
        <time>2021-03-30T10:03:02.000Z</time>
      </trkpt>
      <trkpt lat="49.75111" lon="4.81587">
        <ele>200</ele>
        <time>2021-03-30T10:03:03.000Z</time>
      </trkpt>
      <trkpt lat="49.75112" lon="4.81578">
        <ele>200</ele>
        <time>2021-03-30T10:03:04.000Z</time>
      </trkpt>
      <trkpt lat="49.75112" lon="4.8157">
        <ele>200</ele>
        <time>2021-03-30T10:03:05.000Z</time>
      </trkpt>
      <trkpt lat="49.75113" lon="4.81562">
        <ele>200</ele>
        <time>2021-03-30T10:03:06.000Z</time>
      </trkpt>
      <trkpt lat="49.75114" lon="4.81553">
        <ele>200</ele>
        <time>2021-03-30T10:03:07.000Z</time>
      </trkpt>
      <trkpt lat="49.75115" lon="4.81545">
        <ele>200</ele>
        <time>2021-03-30T10:03:08.000Z</time>
      </trkpt>
      <trkpt lat="49.75116" lon="4.81536">
        <ele>200</ele>
        <time>2021-03-30T10:03:09.000Z</time>
      </trkpt>
      <trkpt lat="49.75118" lon="4.81528">
        <ele>200</ele>
        <time>2021-03-30T10:03:10.000Z</time>
      </trkpt>
      <trkpt lat="49.7512" lon="4.8152">
        <ele>200</ele>
        <time>2021-03-30T10:03:11.000Z</time>
      </trkpt>
      <trkpt lat="49.75122" lon="4.81513">
        <ele>200</ele>
        <time>2021-03-30T10:03:12.000Z</time>
      </trkpt>
      <trkpt lat="49.75123" lon="4.81505">
        <ele>200</ele>
        <time>2021-03-30T10:03:13.000Z</time>
      </trkpt>
      <trkpt lat="49.75125" lon="4.81498">
        <ele>200</ele>
        <time>2021-03-30T10:03:14.000Z</time>
      </trkpt>
      <trkpt lat="49.75127" lon="4.8149">
        <ele>200</ele>
        <time>2021-03-30T10:03:15.000Z</time>
      </trkpt>
      <trkpt lat="49.75129" lon="4.81483">
        <ele>201</ele>
        <time>2021-03-30T10:03:16.000Z</time>
      </trkpt>
      <trkpt lat="49.7513" lon="4.81477">
        <ele>201</ele>
        <time>2021-03-30T10:03:17.000Z</time>
      </trkpt>
      <trkpt lat="49.75132" lon="4.8147">
        <ele>201</ele>
        <time>2021-03-30T10:03:18.000Z</time>
      </trkpt>
      <trkpt lat="49.75133" lon="4.81464">
        <ele>201</ele>
        <time>2021-03-30T10:03:19.000Z</time>
      </trkpt>
      <trkpt lat="49.75135" lon="4.81459">
        <ele>201</ele>
        <time>2021-03-30T10:03:20.000Z</time>
      </trkpt>
      <trkpt lat="49.75136" lon="4.81453">
        <ele>201</ele>
        <time>2021-03-30T10:03:21.000Z</time>
      </trkpt>
      <trkpt lat="49.75137" lon="4.81448">
        <ele>201</ele>
        <time>2021-03-30T10:03:22.000Z</time>
      </trkpt>
      <trkpt lat="49.75137" lon="4.81442">
        <ele>201</ele>
        <time>2021-03-30T10:03:23.000Z</time>
      </trkpt>
      <trkpt lat="49.75138" lon="4.81437">
        <ele>202</ele>
        <time>2021-03-30T10:03:24.000Z</time>
      </trkpt>
      <trkpt lat="49.75139" lon="4.81432">
        <ele>202</ele>
        <time>2021-03-30T10:03:25.000Z</time>
      </trkpt>
      <trkpt lat="49.7514" lon="4.81426">
        <ele>202</ele>
        <time>2021-03-30T10:03:26.000Z</time>
      </trkpt>
      <trkpt lat="49.75141" lon="4.81421">
        <ele>202</ele>
        <time>2021-03-30T10:03:27.000Z</time>
      </trkpt>
      <trkpt lat="49.75141" lon="4.81415">
        <ele>202</ele>
        <time>2021-03-30T10:03:28.000Z</time>
      </trkpt>
      <trkpt lat="49.75142" lon="4.8141">
        <ele>203</ele>
        <time>2021-03-30T10:03:29.000Z</time>
      </trkpt>
      <trkpt lat="49.75143" lon="4.81404">
        <ele>203</ele>
        <time>2021-03-30T10:03:30.000Z</time>
      </trkpt>
      <trkpt lat="49.75144" lon="4.81399">
        <ele>203</ele>
        <time>2021-03-30T10:03:31.000Z</time>
      </trkpt>
      <trkpt lat="49.75144" lon="4.81394">
        <ele>203</ele>
        <time>2021-03-30T10:03:32.000Z</time>
      </trkpt>
      <trkpt lat="49.75145" lon="4.81388">
        <ele>204</ele>
        <time>2021-03-30T10:03:33.000Z</time>
      </trkpt>
      <trkpt lat="49.75145" lon="4.81383">
        <ele>204</ele>
        <time>2021-03-30T10:03:34.000Z</time>
      </trkpt>
      <trkpt lat="49.75146" lon="4.81378">
        <ele>204</ele>
        <time>2021-03-30T10:03:35.000Z</time>
      </trkpt>
      <trkpt lat="49.75146" lon="4.81372">
        <ele>204</ele>
        <time>2021-03-30T10:03:36.000Z</time>
      </trkpt>
      <trkpt lat="49.75146" lon="4.81367">
        <ele>205</ele>
        <time>2021-03-30T10:03:37.000Z</time>
      </trkpt>
      <trkpt lat="49.75146" lon="4.81362">
        <ele>205</ele>
        <time>2021-03-30T10:03:38.000Z</time>
      </trkpt>
      <trkpt lat="49.75145" lon="4.81357">
        <ele>205</ele>
        <time>2021-03-30T10:03:39.000Z</time>
      </trkpt>
      <trkpt lat="49.75146" lon="4.81351">
        <ele>206</ele>
        <time>2021-03-30T10:03:40.000Z</time>
      </trkpt>
      <trkpt lat="49.75146" lon="4.81346">
        <ele>206</ele>
        <time>2021-03-30T10:03:41.000Z</time>
      </trkpt>
      <trkpt lat="49.75145" lon="4.81341">
        <ele>206</ele>
        <time>2021-03-30T10:03:42.000Z</time>
      </trkpt>
      <trkpt lat="49.75145" lon="4.81336">
        <ele>207</ele>
        <time>2021-03-30T10:03:43.000Z</time>
      </trkpt>
      <trkpt lat="49.75145" lon="4.81331">
        <ele>207</ele>
        <time>2021-03-30T10:03:44.000Z</time>
      </trkpt>
      <trkpt lat="49.75145" lon="4.81326">
        <ele>207</ele>
        <time>2021-03-30T10:03:45.000Z</time>
      </trkpt>
      <trkpt lat="49.75145" lon="4.81321">
        <ele>207</ele>
        <time>2021-03-30T10:03:46.000Z</time>
      </trkpt>
      <trkpt lat="49.75144" lon="4.81316">
        <ele>208</ele>
        <time>2021-03-30T10:03:47.000Z</time>
      </trkpt>
      <trkpt lat="49.75144" lon="4.81311">
        <ele>208</ele>
        <time>2021-03-30T10:03:48.000Z</time>
      </trkpt>
      <trkpt lat="49.75143" lon="4.81306">
        <ele>208</ele>
        <time>2021-03-30T10:03:49.000Z</time>
      </trkpt>
      <trkpt lat="49.75142" lon="4.81301">
        <ele>208</ele>
        <time>2021-03-30T10:03:50.000Z</time>
      </trkpt>
      <trkpt lat="49.75141" lon="4.81297">
        <ele>209</ele>
        <time>2021-03-30T10:03:51.000Z</time>
      </trkpt>
      <trkpt lat="49.7514" lon="4.81292">
        <ele>209</ele>
        <time>2021-03-30T10:03:52.000Z</time>
      </trkpt>
      <trkpt lat="49.75139" lon="4.81287">
        <ele>209</ele>
        <time>2021-03-30T10:03:53.000Z</time>
      </trkpt>
      <trkpt lat="49.75139" lon="4.81282">
        <ele>210</ele>
        <time>2021-03-30T10:03:54.000Z</time>
      </trkpt>
      <trkpt lat="49.75138" lon="4.81277">
        <ele>210</ele>
        <time>2021-03-30T10:03:55.000Z</time>
      </trkpt>
      <trkpt lat="49.75137" lon="4.81272">
        <ele>210</ele>
        <time>2021-03-30T10:03:56.000Z</time>
      </trkpt>
      <trkpt lat="49.75136" lon="4.81267">
        <ele>211</ele>
        <time>2021-03-30T10:03:57.000Z</time>
      </trkpt>
      <trkpt lat="49.75135" lon="4.81262">
        <ele>211</ele>
        <time>2021-03-30T10:03:58.000Z</time>
      </trkpt>
      <trkpt lat="49.75134" lon="4.81257">
        <ele>211</ele>
        <time>2021-03-30T10:03:59.000Z</time>
      </trkpt>
      <trkpt lat="49.75133" lon="4.81252">
        <ele>212</ele>
        <time>2021-03-30T10:04:00.000Z</time>
      </trkpt>
      <trkpt lat="49.75132" lon="4.81248">
        <ele>212</ele>
        <time>2021-03-30T10:04:01.000Z</time>
      </trkpt>
      <trkpt lat="49.75131" lon="4.81243">
        <ele>212</ele>
        <time>2021-03-30T10:04:02.000Z</time>
      </trkpt>
      <trkpt lat="49.7513" lon="4.81238">
        <ele>212</ele>
        <time>2021-03-30T10:04:03.000Z</time>
      </trkpt>
      <trkpt lat="49.75129" lon="4.81234">
        <ele>213</ele>
        <time>2021-03-30T10:04:04.000Z</time>
      </trkpt>
      <trkpt lat="49.75128" lon="4.8123">
        <ele>213</ele>
        <time>2021-03-30T10:04:05.000Z</time>
      </trkpt>
      <trkpt lat="49.75127" lon="4.81226">
        <ele>213</ele>
        <time>2021-03-30T10:04:06.000Z</time>
      </trkpt>
      <trkpt lat="49.75126" lon="4.81222">
        <ele>213</ele>
        <time>2021-03-30T10:04:07.000Z</time>
      </trkpt>
      <trkpt lat="49.75125" lon="4.81217">
        <ele>213</ele>
        <time>2021-03-30T10:04:08.000Z</time>
      </trkpt>
      <trkpt lat="49.75125" lon="4.81213">
        <ele>213</ele>
        <time>2021-03-30T10:04:09.000Z</time>
      </trkpt>
      <trkpt lat="49.75124" lon="4.81208">
        <ele>214</ele>
        <time>2021-03-30T10:04:10.000Z</time>
      </trkpt>
      <trkpt lat="49.75123" lon="4.81203">
        <ele>214</ele>
        <time>2021-03-30T10:04:11.000Z</time>
      </trkpt>
      <trkpt lat="49.75123" lon="4.81198">
        <ele>214</ele>
        <time>2021-03-30T10:04:12.000Z</time>
      </trkpt>
      <trkpt lat="49.75122" lon="4.81194">
        <ele>214</ele>
        <time>2021-03-30T10:04:13.000Z</time>
      </trkpt>
      <trkpt lat="49.75122" lon="4.8119">
        <ele>214</ele>
        <time>2021-03-30T10:04:14.000Z</time>
      </trkpt>
      <trkpt lat="49.75121" lon="4.81186">
        <ele>214</ele>
        <time>2021-03-30T10:04:15.000Z</time>
      </trkpt>
      <trkpt lat="49.7512" lon="4.81182">
        <ele>214</ele>
        <time>2021-03-30T10:04:16.000Z</time>
      </trkpt>
      <trkpt lat="49.75119" lon="4.81178">
        <ele>215</ele>
        <time>2021-03-30T10:04:17.000Z</time>
      </trkpt>
      <trkpt lat="49.75118" lon="4.81174">
        <ele>215</ele>
        <time>2021-03-30T10:04:18.000Z</time>
      </trkpt>
      <trkpt lat="49.75117" lon="4.8117">
        <ele>215</ele>
        <time>2021-03-30T10:04:19.000Z</time>
      </trkpt>
      <trkpt lat="49.75116" lon="4.81165">
        <ele>215</ele>
        <time>2021-03-30T10:04:20.000Z</time>
      </trkpt>
      <trkpt lat="49.75115" lon="4.81161">
        <ele>215</ele>
        <time>2021-03-30T10:04:21.000Z</time>
      </trkpt>
      <trkpt lat="49.75114" lon="4.81156">
        <ele>215</ele>
        <time>2021-03-30T10:04:22.000Z</time>
      </trkpt>
      <trkpt lat="49.75113" lon="4.81151">
        <ele>215</ele>
        <time>2021-03-30T10:04:23.000Z</time>
      </trkpt>
      <trkpt lat="49.75111" lon="4.81146">
        <ele>215</ele>
        <time>2021-03-30T10:04:24.000Z</time>
      </trkpt>
      <trkpt lat="49.7511" lon="4.81141">
        <ele>216</ele>
        <time>2021-03-30T10:04:25.000Z</time>
      </trkpt>
      <trkpt lat="49.75108" lon="4.81136">
        <ele>216</ele>
        <time>2021-03-30T10:04:26.000Z</time>
      </trkpt>
      <trkpt lat="49.75107" lon="4.8113">
        <ele>216</ele>
        <time>2021-03-30T10:04:27.000Z</time>
      </trkpt>
      <trkpt lat="49.75105" lon="4.81124">
        <ele>216</ele>
        <time>2021-03-30T10:04:28.000Z</time>
      </trkpt>
      <trkpt lat="49.75104" lon="4.81118">
        <ele>216</ele>
        <time>2021-03-30T10:04:29.000Z</time>
      </trkpt>
      <trkpt lat="49.75103" lon="4.81112">
        <ele>216</ele>
        <time>2021-03-30T10:04:30.000Z</time>
      </trkpt>
      <trkpt lat="49.75101" lon="4.81106">
        <ele>217</ele>
        <time>2021-03-30T10:04:31.000Z</time>
      </trkpt>
      <trkpt lat="49.75099" lon="4.81101">
        <ele>217</ele>
        <time>2021-03-30T10:04:32.000Z</time>
      </trkpt>
      <trkpt lat="49.75098" lon="4.81095">
        <ele>217</ele>
        <time>2021-03-30T10:04:33.000Z</time>
      </trkpt>
      <trkpt lat="49.75096" lon="4.8109">
        <ele>217</ele>
        <time>2021-03-30T10:04:34.000Z</time>
      </trkpt>
      <trkpt lat="49.75095" lon="4.81084">
        <ele>217</ele>
        <time>2021-03-30T10:04:35.000Z</time>
      </trkpt>
      <trkpt lat="49.75093" lon="4.81078">
        <ele>218</ele>
        <time>2021-03-30T10:04:36.000Z</time>
      </trkpt>
      <trkpt lat="49.75091" lon="4.81071">
        <ele>218</ele>
        <time>2021-03-30T10:04:37.000Z</time>
      </trkpt>
      <trkpt lat="49.7509" lon="4.81064">
        <ele>218</ele>
        <time>2021-03-30T10:04:38.000Z</time>
      </trkpt>
      <trkpt lat="49.75088" lon="4.81058">
        <ele>218</ele>
        <time>2021-03-30T10:04:39.000Z</time>
      </trkpt>
      <trkpt lat="49.75087" lon="4.81051">
        <ele>218</ele>
        <time>2021-03-30T10:04:40.000Z</time>
      </trkpt>
      <trkpt lat="49.75086" lon="4.81044">
        <ele>219</ele>
        <time>2021-03-30T10:04:41.000Z</time>
      </trkpt>
      <trkpt lat="49.75084" lon="4.81037">
        <ele>219</ele>
        <time>2021-03-30T10:04:42.000Z</time>
      </trkpt>
      <trkpt lat="49.75083" lon="4.81029">
        <ele>219</ele>
        <time>2021-03-30T10:04:43.000Z</time>
      </trkpt>
      <trkpt lat="49.75081" lon="4.81021">
        <ele>219</ele>
        <time>2021-03-30T10:04:44.000Z</time>
      </trkpt>
      <trkpt lat="49.75079" lon="4.81014">
        <ele>219</ele>
        <time>2021-03-30T10:04:45.000Z</time>
      </trkpt>
      <trkpt lat="49.75076" lon="4.81006">
        <ele>220</ele>
        <time>2021-03-30T10:04:46.000Z</time>
      </trkpt>
      <trkpt lat="49.75074" lon="4.80998">
        <ele>220</ele>
        <time>2021-03-30T10:04:47.000Z</time>
      </trkpt>
      <trkpt lat="49.75073" lon="4.80989">
        <ele>220</ele>
        <time>2021-03-30T10:04:48.000Z</time>
      </trkpt>
      <trkpt lat="49.75071" lon="4.80981">
        <ele>220</ele>
        <time>2021-03-30T10:04:49.000Z</time>
      </trkpt>
      <trkpt lat="49.75069" lon="4.80973">
        <ele>220</ele>
        <time>2021-03-30T10:04:50.000Z</time>
      </trkpt>
      <trkpt lat="49.75067" lon="4.80965">
        <ele>220</ele>
        <time>2021-03-30T10:04:51.000Z</time>
      </trkpt>
      <trkpt lat="49.75065" lon="4.80956">
        <ele>220</ele>
        <time>2021-03-30T10:04:52.000Z</time>
      </trkpt>
      <trkpt lat="49.75064" lon="4.80948">
        <ele>220</ele>
        <time>2021-03-30T10:04:53.000Z</time>
      </trkpt>
      <trkpt lat="49.75062" lon="4.80938">
        <ele>221</ele>
        <time>2021-03-30T10:04:54.000Z</time>
      </trkpt>
      <trkpt lat="49.75061" lon="4.80928">
        <ele>221</ele>
        <time>2021-03-30T10:04:55.000Z</time>
      </trkpt>
      <trkpt lat="49.7506" lon="4.80917">
        <ele>221</ele>
        <time>2021-03-30T10:04:56.000Z</time>
      </trkpt>
      <trkpt lat="49.75059" lon="4.80905">
        <ele>221</ele>
        <time>2021-03-30T10:04:57.000Z</time>
      </trkpt>
      <trkpt lat="49.75058" lon="4.80893">
        <ele>220</ele>
        <time>2021-03-30T10:04:58.000Z</time>
      </trkpt>
      <trkpt lat="49.75058" lon="4.8088">
        <ele>220</ele>
        <time>2021-03-30T10:04:59.000Z</time>
      </trkpt>
      <trkpt lat="49.75058" lon="4.80866">
        <ele>220</ele>
        <time>2021-03-30T10:05:00.000Z</time>
      </trkpt>
      <trkpt lat="49.75058" lon="4.80851">
        <ele>220</ele>
        <time>2021-03-30T10:05:01.000Z</time>
      </trkpt>
      <trkpt lat="49.7506" lon="4.80835">
        <ele>220</ele>
        <time>2021-03-30T10:05:02.000Z</time>
      </trkpt>
      <trkpt lat="49.75061" lon="4.8082">
        <ele>220</ele>
        <time>2021-03-30T10:05:03.000Z</time>
      </trkpt>
      <trkpt lat="49.75063" lon="4.80804">
        <ele>220</ele>
        <time>2021-03-30T10:05:04.000Z</time>
      </trkpt>
      <trkpt lat="49.75066" lon="4.80788">
        <ele>219</ele>
        <time>2021-03-30T10:05:05.000Z</time>
      </trkpt>
      <trkpt lat="49.75069" lon="4.80772">
        <ele>219</ele>
        <time>2021-03-30T10:05:06.000Z</time>
      </trkpt>
      <trkpt lat="49.75073" lon="4.80757">
        <ele>218</ele>
        <time>2021-03-30T10:05:07.000Z</time>
      </trkpt>
      <trkpt lat="49.75077" lon="4.80742">
        <ele>217</ele>
        <time>2021-03-30T10:05:08.000Z</time>
      </trkpt>
      <trkpt lat="49.75083" lon="4.80728">
        <ele>216</ele>
        <time>2021-03-30T10:05:09.000Z</time>
      </trkpt>
      <trkpt lat="49.75091" lon="4.80716">
        <ele>215</ele>
        <time>2021-03-30T10:05:10.000Z</time>
      </trkpt>
      <trkpt lat="49.751" lon="4.80707">
        <ele>214</ele>
        <time>2021-03-30T10:05:11.000Z</time>
      </trkpt>
      <trkpt lat="49.75109" lon="4.80701">
        <ele>212</ele>
        <time>2021-03-30T10:05:12.000Z</time>
      </trkpt>
      <trkpt lat="49.75119" lon="4.80696">
        <ele>211</ele>
        <time>2021-03-30T10:05:13.000Z</time>
      </trkpt>
      <trkpt lat="49.75128" lon="4.80692">
        <ele>210</ele>
        <time>2021-03-30T10:05:14.000Z</time>
      </trkpt>
      <trkpt lat="49.75137" lon="4.8069">
        <ele>209</ele>
        <time>2021-03-30T10:05:15.000Z</time>
      </trkpt>
      <trkpt lat="49.75145" lon="4.80691">
        <ele>208</ele>
        <time>2021-03-30T10:05:16.000Z</time>
      </trkpt>
      <trkpt lat="49.75153" lon="4.8069">
        <ele>207</ele>
        <time>2021-03-30T10:05:17.000Z</time>
      </trkpt>
      <trkpt lat="49.75161" lon="4.8069">
        <ele>207</ele>
        <time>2021-03-30T10:05:18.000Z</time>
      </trkpt>
      <trkpt lat="49.75168" lon="4.8069">
        <ele>207</ele>
        <time>2021-03-30T10:05:19.000Z</time>
      </trkpt>
      <trkpt lat="49.75175" lon="4.80689">
        <ele>206</ele>
        <time>2021-03-30T10:05:20.000Z</time>
      </trkpt>
      <trkpt lat="49.75182" lon="4.80689">
        <ele>206</ele>
        <time>2021-03-30T10:05:21.000Z</time>
      </trkpt>
      <trkpt lat="49.75189" lon="4.80688">
        <ele>206</ele>
        <time>2021-03-30T10:05:22.000Z</time>
      </trkpt>
      <trkpt lat="49.75195" lon="4.80688">
        <ele>206</ele>
        <time>2021-03-30T10:05:23.000Z</time>
      </trkpt>
      <trkpt lat="49.75201" lon="4.80688">
        <ele>206</ele>
        <time>2021-03-30T10:05:24.000Z</time>
      </trkpt>
      <trkpt lat="49.75208" lon="4.80689">
        <ele>205</ele>
        <time>2021-03-30T10:05:25.000Z</time>
      </trkpt>
      <trkpt lat="49.75214" lon="4.80689">
        <ele>205</ele>
        <time>2021-03-30T10:05:26.000Z</time>
      </trkpt>
      <trkpt lat="49.7522" lon="4.80689">
        <ele>205</ele>
        <time>2021-03-30T10:05:27.000Z</time>
      </trkpt>
      <trkpt lat="49.75226" lon="4.8069">
        <ele>205</ele>
        <time>2021-03-30T10:05:28.000Z</time>
      </trkpt>
      <trkpt lat="49.75232" lon="4.80692">
        <ele>205</ele>
        <time>2021-03-30T10:05:29.000Z</time>
      </trkpt>
      <trkpt lat="49.75237" lon="4.80694">
        <ele>205</ele>
        <time>2021-03-30T10:05:30.000Z</time>
      </trkpt>
      <trkpt lat="49.75242" lon="4.80695">
        <ele>205</ele>
        <time>2021-03-30T10:05:31.000Z</time>
      </trkpt>
      <trkpt lat="49.75247" lon="4.80697">
        <ele>204</ele>
        <time>2021-03-30T10:05:32.000Z</time>
      </trkpt>
      <trkpt lat="49.75251" lon="4.80698">
        <ele>204</ele>
        <time>2021-03-30T10:05:33.000Z</time>
      </trkpt>
      <trkpt lat="49.75256" lon="4.80698">
        <ele>204</ele>
        <time>2021-03-30T10:05:34.000Z</time>
      </trkpt>
      <trkpt lat="49.75259" lon="4.80698">
        <ele>204</ele>
        <time>2021-03-30T10:05:35.000Z</time>
      </trkpt>
      <trkpt lat="49.75263" lon="4.80697">
        <ele>204</ele>
        <time>2021-03-30T10:05:36.000Z</time>
      </trkpt>
      <trkpt lat="49.75267" lon="4.80695">
        <ele>204</ele>
        <time>2021-03-30T10:05:37.000Z</time>
      </trkpt>
      <trkpt lat="49.7527" lon="4.80693">
        <ele>204</ele>
        <time>2021-03-30T10:05:38.000Z</time>
      </trkpt>
      <trkpt lat="49.75273" lon="4.8069">
        <ele>204</ele>
        <time>2021-03-30T10:05:39.000Z</time>
      </trkpt>
      <trkpt lat="49.75277" lon="4.80687">
        <ele>204</ele>
        <time>2021-03-30T10:05:40.000Z</time>
      </trkpt>
      <trkpt lat="49.75281" lon="4.80684">
        <ele>204</ele>
        <time>2021-03-30T10:05:41.000Z</time>
      </trkpt>
      <trkpt lat="49.75285" lon="4.80681">
        <ele>204</ele>
        <time>2021-03-30T10:05:42.000Z</time>
      </trkpt>
      <trkpt lat="49.7529" lon="4.80678">
        <ele>204</ele>
        <time>2021-03-30T10:05:43.000Z</time>
      </trkpt>
      <trkpt lat="49.75294" lon="4.80676">
        <ele>204</ele>
        <time>2021-03-30T10:05:44.000Z</time>
      </trkpt>
      <trkpt lat="49.75297" lon="4.80674">
        <ele>205</ele>
        <time>2021-03-30T10:05:45.000Z</time>
      </trkpt>
      <trkpt lat="49.75301" lon="4.80672">
        <ele>205</ele>
        <time>2021-03-30T10:05:46.000Z</time>
      </trkpt>
      <trkpt lat="49.75305" lon="4.80671">
        <ele>205</ele>
        <time>2021-03-30T10:05:47.000Z</time>
      </trkpt>
      <trkpt lat="49.7531" lon="4.8067">
        <ele>205</ele>
        <time>2021-03-30T10:05:48.000Z</time>
      </trkpt>
      <trkpt lat="49.75315" lon="4.80669">
        <ele>205</ele>
        <time>2021-03-30T10:05:49.000Z</time>
      </trkpt>
      <trkpt lat="49.7532" lon="4.80669">
        <ele>205</ele>
        <time>2021-03-30T10:05:50.000Z</time>
      </trkpt>
      <trkpt lat="49.75326" lon="4.80669">
        <ele>206</ele>
        <time>2021-03-30T10:05:51.000Z</time>
      </trkpt>
      <trkpt lat="49.7533" lon="4.8067">
        <ele>206</ele>
        <time>2021-03-30T10:05:52.000Z</time>
      </trkpt>
      <trkpt lat="49.75335" lon="4.80671">
        <ele>206</ele>
        <time>2021-03-30T10:05:53.000Z</time>
      </trkpt>
      <trkpt lat="49.75339" lon="4.80672">
        <ele>206</ele>
        <time>2021-03-30T10:05:54.000Z</time>
      </trkpt>
      <trkpt lat="49.75343" lon="4.80672">
        <ele>206</ele>
        <time>2021-03-30T10:05:55.000Z</time>
      </trkpt>
      <trkpt lat="49.75346" lon="4.80672">
        <ele>207</ele>
        <time>2021-03-30T10:05:56.000Z</time>
      </trkpt>
      <trkpt lat="49.7535" lon="4.80672">
        <ele>207</ele>
        <time>2021-03-30T10:05:57.000Z</time>
      </trkpt>
      <trkpt lat="49.75354" lon="4.80672">
        <ele>207</ele>
        <time>2021-03-30T10:05:58.000Z</time>
      </trkpt>
      <trkpt lat="49.75358" lon="4.80674">
        <ele>207</ele>
        <time>2021-03-30T10:05:59.000Z</time>
      </trkpt>
      <trkpt lat="49.75362" lon="4.80675">
        <ele>208</ele>
        <time>2021-03-30T10:06:00.000Z</time>
      </trkpt>
      <trkpt lat="49.75365" lon="4.80676">
        <ele>208</ele>
        <time>2021-03-30T10:06:01.000Z</time>
      </trkpt>
      <trkpt lat="49.75369" lon="4.80677">
        <ele>208</ele>
        <time>2021-03-30T10:06:02.000Z</time>
      </trkpt>
      <trkpt lat="49.75373" lon="4.8068">
        <ele>208</ele>
        <time>2021-03-30T10:06:03.000Z</time>
      </trkpt>
      <trkpt lat="49.75376" lon="4.80681">
        <ele>209</ele>
        <time>2021-03-30T10:06:04.000Z</time>
      </trkpt>
      <trkpt lat="49.75379" lon="4.80682">
        <ele>209</ele>
        <time>2021-03-30T10:06:05.000Z</time>
      </trkpt>
      <trkpt lat="49.75382" lon="4.80684">
        <ele>209</ele>
        <time>2021-03-30T10:06:06.000Z</time>
      </trkpt>
      <trkpt lat="49.75385" lon="4.80685">
        <ele>210</ele>
        <time>2021-03-30T10:06:07.000Z</time>
      </trkpt>
      <trkpt lat="49.75388" lon="4.80686">
        <ele>210</ele>
        <time>2021-03-30T10:06:08.000Z</time>
      </trkpt>
      <trkpt lat="49.7539" lon="4.80687">
        <ele>211</ele>
        <time>2021-03-30T10:06:09.000Z</time>
      </trkpt>
      <trkpt lat="49.75393" lon="4.80688">
        <ele>211</ele>
        <time>2021-03-30T10:06:10.000Z</time>
      </trkpt>
      <trkpt lat="49.75395" lon="4.8069">
        <ele>211</ele>
        <time>2021-03-30T10:06:11.000Z</time>
      </trkpt>
      <trkpt lat="49.75398" lon="4.80692">
        <ele>212</ele>
        <time>2021-03-30T10:06:12.000Z</time>
      </trkpt>
      <trkpt lat="49.75402" lon="4.80694">
        <ele>212</ele>
        <time>2021-03-30T10:06:13.000Z</time>
      </trkpt>
      <trkpt lat="49.75405" lon="4.80694">
        <ele>212</ele>
        <time>2021-03-30T10:06:14.000Z</time>
      </trkpt>
      <trkpt lat="49.75408" lon="4.80695">
        <ele>213</ele>
        <time>2021-03-30T10:06:15.000Z</time>
      </trkpt>
      <trkpt lat="49.75411" lon="4.80697">
        <ele>213</ele>
        <time>2021-03-30T10:06:16.000Z</time>
      </trkpt>
      <trkpt lat="49.75415" lon="4.80698">
        <ele>213</ele>
        <time>2021-03-30T10:06:17.000Z</time>
      </trkpt>
      <trkpt lat="49.75418" lon="4.80699">
        <ele>213</ele>
        <time>2021-03-30T10:06:18.000Z</time>
      </trkpt>
      <trkpt lat="49.75422" lon="4.807">
        <ele>214</ele>
        <time>2021-03-30T10:06:19.000Z</time>
      </trkpt>
      <trkpt lat="49.75425" lon="4.80702">
        <ele>214</ele>
        <time>2021-03-30T10:06:20.000Z</time>
      </trkpt>
      <trkpt lat="49.75428" lon="4.80703">
        <ele>214</ele>
        <time>2021-03-30T10:06:21.000Z</time>
      </trkpt>
      <trkpt lat="49.75431" lon="4.80706">
        <ele>214</ele>
        <time>2021-03-30T10:06:22.000Z</time>
      </trkpt>
      <trkpt lat="49.75435" lon="4.80708">
        <ele>214</ele>
        <time>2021-03-30T10:06:23.000Z</time>
      </trkpt>
      <trkpt lat="49.75438" lon="4.8071">
        <ele>215</ele>
        <time>2021-03-30T10:06:24.000Z</time>
      </trkpt>
      <trkpt lat="49.75441" lon="4.80712">
        <ele>215</ele>
        <time>2021-03-30T10:06:25.000Z</time>
      </trkpt>
      <trkpt lat="49.75444" lon="4.80715">
        <ele>215</ele>
        <time>2021-03-30T10:06:26.000Z</time>
      </trkpt>
      <trkpt lat="49.75447" lon="4.80718">
        <ele>215</ele>
        <time>2021-03-30T10:06:27.000Z</time>
      </trkpt>
      <trkpt lat="49.75451" lon="4.8072">
        <ele>215</ele>
        <time>2021-03-30T10:06:28.000Z</time>
      </trkpt>
      <trkpt lat="49.75454" lon="4.80723">
        <ele>216</ele>
        <time>2021-03-30T10:06:29.000Z</time>
      </trkpt>
      <trkpt lat="49.75457" lon="4.80725">
        <ele>216</ele>
        <time>2021-03-30T10:06:30.000Z</time>
      </trkpt>
      <trkpt lat="49.75461" lon="4.80728">
        <ele>216</ele>
        <time>2021-03-30T10:06:31.000Z</time>
      </trkpt>
      <trkpt lat="49.75464" lon="4.8073">
        <ele>216</ele>
        <time>2021-03-30T10:06:32.000Z</time>
      </trkpt>
      <trkpt lat="49.75467" lon="4.80732">
        <ele>216</ele>
        <time>2021-03-30T10:06:33.000Z</time>
      </trkpt>
      <trkpt lat="49.75471" lon="4.80734">
        <ele>217</ele>
        <time>2021-03-30T10:06:34.000Z</time>
      </trkpt>
      <trkpt lat="49.75474" lon="4.80736">
        <ele>217</ele>
        <time>2021-03-30T10:06:35.000Z</time>
      </trkpt>
      <trkpt lat="49.75478" lon="4.80739">
        <ele>217</ele>
        <time>2021-03-30T10:06:36.000Z</time>
      </trkpt>
      <trkpt lat="49.7548" lon="4.80741">
        <ele>218</ele>
        <time>2021-03-30T10:06:37.000Z</time>
      </trkpt>
      <trkpt lat="49.75483" lon="4.80745">
        <ele>218</ele>
        <time>2021-03-30T10:06:38.000Z</time>
      </trkpt>
      <trkpt lat="49.75486" lon="4.80747">
        <ele>218</ele>
        <time>2021-03-30T10:06:39.000Z</time>
      </trkpt>
      <trkpt lat="49.7549" lon="4.8075">
        <ele>219</ele>
        <time>2021-03-30T10:06:40.000Z</time>
      </trkpt>
      <trkpt lat="49.75494" lon="4.80754">
        <ele>219</ele>
        <time>2021-03-30T10:06:41.000Z</time>
      </trkpt>
      <trkpt lat="49.75498" lon="4.80757">
        <ele>219</ele>
        <time>2021-03-30T10:06:42.000Z</time>
      </trkpt>
      <trkpt lat="49.755" lon="4.8076">
        <ele>219</ele>
        <time>2021-03-30T10:06:43.000Z</time>
      </trkpt>
      <trkpt lat="49.75503" lon="4.80763">
        <ele>220</ele>
        <time>2021-03-30T10:06:44.000Z</time>
      </trkpt>
      <trkpt lat="49.75507" lon="4.80766">
        <ele>220</ele>
        <time>2021-03-30T10:06:45.000Z</time>
      </trkpt>
      <trkpt lat="49.75511" lon="4.80768">
        <ele>220</ele>
        <time>2021-03-30T10:06:46.000Z</time>
      </trkpt>
      <trkpt lat="49.75513" lon="4.80771">
        <ele>220</ele>
        <time>2021-03-30T10:06:47.000Z</time>
      </trkpt>
      <trkpt lat="49.75517" lon="4.80773">
        <ele>221</ele>
        <time>2021-03-30T10:06:48.000Z</time>
      </trkpt>
      <trkpt lat="49.7552" lon="4.80775">
        <ele>221</ele>
        <time>2021-03-30T10:06:49.000Z</time>
      </trkpt>
      <trkpt lat="49.75523" lon="4.80777">
        <ele>221</ele>
        <time>2021-03-30T10:06:50.000Z</time>
      </trkpt>
      <trkpt lat="49.75526" lon="4.80779">
        <ele>221</ele>
        <time>2021-03-30T10:06:51.000Z</time>
      </trkpt>
      <trkpt lat="49.75529" lon="4.80782">
        <ele>222</ele>
        <time>2021-03-30T10:06:52.000Z</time>
      </trkpt>
      <trkpt lat="49.75531" lon="4.80784">
        <ele>222</ele>
        <time>2021-03-30T10:06:53.000Z</time>
      </trkpt>
      <trkpt lat="49.75533" lon="4.80787">
        <ele>222</ele>
        <time>2021-03-30T10:06:54.000Z</time>
      </trkpt>
      <trkpt lat="49.75536" lon="4.8079">
        <ele>223</ele>
        <time>2021-03-30T10:06:55.000Z</time>
      </trkpt>
      <trkpt lat="49.75539" lon="4.80794">
        <ele>223</ele>
        <time>2021-03-30T10:06:56.000Z</time>
      </trkpt>
      <trkpt lat="49.75541" lon="4.80798">
        <ele>223</ele>
        <time>2021-03-30T10:06:57.000Z</time>
      </trkpt>
      <trkpt lat="49.75543" lon="4.80802">
        <ele>224</ele>
        <time>2021-03-30T10:06:58.000Z</time>
      </trkpt>
      <trkpt lat="49.75546" lon="4.80805">
        <ele>224</ele>
        <time>2021-03-30T10:06:59.000Z</time>
      </trkpt>
      <trkpt lat="49.75548" lon="4.80807">
        <ele>224</ele>
        <time>2021-03-30T10:07:00.000Z</time>
      </trkpt>
      <trkpt lat="49.75551" lon="4.80811">
        <ele>224</ele>
        <time>2021-03-30T10:07:01.000Z</time>
      </trkpt>
      <trkpt lat="49.75554" lon="4.80814">
        <ele>225</ele>
        <time>2021-03-30T10:07:02.000Z</time>
      </trkpt>
      <trkpt lat="49.75557" lon="4.80817">
        <ele>225</ele>
        <time>2021-03-30T10:07:03.000Z</time>
      </trkpt>
      <trkpt lat="49.75559" lon="4.80819">
        <ele>225</ele>
        <time>2021-03-30T10:07:04.000Z</time>
      </trkpt>
      <trkpt lat="49.75562" lon="4.80822">
        <ele>226</ele>
        <time>2021-03-30T10:07:05.000Z</time>
      </trkpt>
      <trkpt lat="49.75564" lon="4.80825">
        <ele>226</ele>
        <time>2021-03-30T10:07:06.000Z</time>
      </trkpt>
      <trkpt lat="49.75567" lon="4.80827">
        <ele>227</ele>
        <time>2021-03-30T10:07:07.000Z</time>
      </trkpt>
      <trkpt lat="49.75569" lon="4.80829">
        <ele>227</ele>
        <time>2021-03-30T10:07:08.000Z</time>
      </trkpt>
      <trkpt lat="49.75571" lon="4.8083">
        <ele>227</ele>
        <time>2021-03-30T10:07:09.000Z</time>
      </trkpt>
      <trkpt lat="49.75574" lon="4.80831">
        <ele>228</ele>
        <time>2021-03-30T10:07:10.000Z</time>
      </trkpt>
      <trkpt lat="49.75577" lon="4.80832">
        <ele>228</ele>
        <time>2021-03-30T10:07:11.000Z</time>
      </trkpt>
      <trkpt lat="49.75579" lon="4.80833">
        <ele>228</ele>
        <time>2021-03-30T10:07:12.000Z</time>
      </trkpt>
      <trkpt lat="49.75583" lon="4.80833">
        <ele>229</ele>
        <time>2021-03-30T10:07:13.000Z</time>
      </trkpt>
      <trkpt lat="49.75586" lon="4.80834">
        <ele>229</ele>
        <time>2021-03-30T10:07:14.000Z</time>
      </trkpt>
      <trkpt lat="49.75589" lon="4.80835">
        <ele>229</ele>
        <time>2021-03-30T10:07:15.000Z</time>
      </trkpt>
      <trkpt lat="49.75592" lon="4.80837">
        <ele>230</ele>
        <time>2021-03-30T10:07:16.000Z</time>
      </trkpt>
      <trkpt lat="49.75595" lon="4.80838">
        <ele>230</ele>
        <time>2021-03-30T10:07:17.000Z</time>
      </trkpt>
      <trkpt lat="49.75598" lon="4.80839">
        <ele>231</ele>
        <time>2021-03-30T10:07:18.000Z</time>
      </trkpt>
      <trkpt lat="49.756" lon="4.8084">
        <ele>231</ele>
        <time>2021-03-30T10:07:19.000Z</time>
      </trkpt>
      <trkpt lat="49.75603" lon="4.80841">
        <ele>231</ele>
        <time>2021-03-30T10:07:20.000Z</time>
      </trkpt>
      <trkpt lat="49.75607" lon="4.80842">
        <ele>232</ele>
        <time>2021-03-30T10:07:21.000Z</time>
      </trkpt>
      <trkpt lat="49.75611" lon="4.80843">
        <ele>232</ele>
        <time>2021-03-30T10:07:22.000Z</time>
      </trkpt>
      <trkpt lat="49.75614" lon="4.80844">
        <ele>232</ele>
        <time>2021-03-30T10:07:23.000Z</time>
      </trkpt>
      <trkpt lat="49.75617" lon="4.80846">
        <ele>233</ele>
        <time>2021-03-30T10:07:24.000Z</time>
      </trkpt>
      <trkpt lat="49.75621" lon="4.80847">
        <ele>233</ele>
        <time>2021-03-30T10:07:25.000Z</time>
      </trkpt>
      <trkpt lat="49.75624" lon="4.80849">
        <ele>233</ele>
        <time>2021-03-30T10:07:26.000Z</time>
      </trkpt>
      <trkpt lat="49.75627" lon="4.80851">
        <ele>233</ele>
        <time>2021-03-30T10:07:27.000Z</time>
      </trkpt>
      <trkpt lat="49.7563" lon="4.80853">
        <ele>234</ele>
        <time>2021-03-30T10:07:28.000Z</time>
      </trkpt>
      <trkpt lat="49.75634" lon="4.80854">
        <ele>234</ele>
        <time>2021-03-30T10:07:29.000Z</time>
      </trkpt>
      <trkpt lat="49.75638" lon="4.80856">
        <ele>234</ele>
        <time>2021-03-30T10:07:30.000Z</time>
      </trkpt>
      <trkpt lat="49.75641" lon="4.80857">
        <ele>234</ele>
        <time>2021-03-30T10:07:31.000Z</time>
      </trkpt>
      <trkpt lat="49.75644" lon="4.80858">
        <ele>234</ele>
        <time>2021-03-30T10:07:32.000Z</time>
      </trkpt>
      <trkpt lat="49.75647" lon="4.8086">
        <ele>235</ele>
        <time>2021-03-30T10:07:33.000Z</time>
      </trkpt>
      <trkpt lat="49.75651" lon="4.80861">
        <ele>235</ele>
        <time>2021-03-30T10:07:34.000Z</time>
      </trkpt>
      <trkpt lat="49.75654" lon="4.80862">
        <ele>235</ele>
        <time>2021-03-30T10:07:35.000Z</time>
      </trkpt>
      <trkpt lat="49.75657" lon="4.80863">
        <ele>235</ele>
        <time>2021-03-30T10:07:36.000Z</time>
      </trkpt>
      <trkpt lat="49.7566" lon="4.80864">
        <ele>235</ele>
        <time>2021-03-30T10:07:37.000Z</time>
      </trkpt>
      <trkpt lat="49.75663" lon="4.80864">
        <ele>235</ele>
        <time>2021-03-30T10:07:38.000Z</time>
      </trkpt>
      <trkpt lat="49.75665" lon="4.80866">
        <ele>236</ele>
        <time>2021-03-30T10:07:39.000Z</time>
      </trkpt>
      <trkpt lat="49.75668" lon="4.80867">
        <ele>236</ele>
        <time>2021-03-30T10:07:40.000Z</time>
      </trkpt>
      <trkpt lat="49.75671" lon="4.80869">
        <ele>236</ele>
        <time>2021-03-30T10:07:41.000Z</time>
      </trkpt>
      <trkpt lat="49.75675" lon="4.8087">
        <ele>236</ele>
        <time>2021-03-30T10:07:42.000Z</time>
      </trkpt>
      <trkpt lat="49.75678" lon="4.80871">
        <ele>236</ele>
        <time>2021-03-30T10:07:43.000Z</time>
      </trkpt>
      <trkpt lat="49.75681" lon="4.80873">
        <ele>236</ele>
        <time>2021-03-30T10:07:44.000Z</time>
      </trkpt>
      <trkpt lat="49.75685" lon="4.80873">
        <ele>236</ele>
        <time>2021-03-30T10:07:45.000Z</time>
      </trkpt>
      <trkpt lat="49.75688" lon="4.80875">
        <ele>236</ele>
        <time>2021-03-30T10:07:46.000Z</time>
      </trkpt>
      <trkpt lat="49.75692" lon="4.80876">
        <ele>236</ele>
        <time>2021-03-30T10:07:47.000Z</time>
      </trkpt>
      <trkpt lat="49.75695" lon="4.80877">
        <ele>236</ele>
        <time>2021-03-30T10:07:48.000Z</time>
      </trkpt>
      <trkpt lat="49.75699" lon="4.80878">
        <ele>237</ele>
        <time>2021-03-30T10:07:49.000Z</time>
      </trkpt>
      <trkpt lat="49.75702" lon="4.80879">
        <ele>237</ele>
        <time>2021-03-30T10:07:50.000Z</time>
      </trkpt>
      <trkpt lat="49.75706" lon="4.80881">
        <ele>237</ele>
        <time>2021-03-30T10:07:51.000Z</time>
      </trkpt>
      <trkpt lat="49.7571" lon="4.80882">
        <ele>237</ele>
        <time>2021-03-30T10:07:52.000Z</time>
      </trkpt>
      <trkpt lat="49.75714" lon="4.80883">
        <ele>237</ele>
        <time>2021-03-30T10:07:53.000Z</time>
      </trkpt>
      <trkpt lat="49.75718" lon="4.80884">
        <ele>237</ele>
        <time>2021-03-30T10:07:54.000Z</time>
      </trkpt>
      <trkpt lat="49.75722" lon="4.80886">
        <ele>237</ele>
        <time>2021-03-30T10:07:55.000Z</time>
      </trkpt>
      <trkpt lat="49.75726" lon="4.80887">
        <ele>237</ele>
        <time>2021-03-30T10:07:56.000Z</time>
      </trkpt>
      <trkpt lat="49.7573" lon="4.80888">
        <ele>237</ele>
        <time>2021-03-30T10:07:57.000Z</time>
      </trkpt>
      <trkpt lat="49.75734" lon="4.80889">
        <ele>238</ele>
        <time>2021-03-30T10:07:58.000Z</time>
      </trkpt>
      <trkpt lat="49.75738" lon="4.8089">
        <ele>238</ele>
        <time>2021-03-30T10:07:59.000Z</time>
      </trkpt>
      <trkpt lat="49.75742" lon="4.80891">
        <ele>238</ele>
        <time>2021-03-30T10:08:00.000Z</time>
      </trkpt>
      <trkpt lat="49.75746" lon="4.80891">
        <ele>238</ele>
        <time>2021-03-30T10:08:01.000Z</time>
      </trkpt>
      <trkpt lat="49.75749" lon="4.80892">
        <ele>238</ele>
        <time>2021-03-30T10:08:02.000Z</time>
      </trkpt>
      <trkpt lat="49.75753" lon="4.80894">
        <ele>238</ele>
        <time>2021-03-30T10:08:03.000Z</time>
      </trkpt>
      <trkpt lat="49.75757" lon="4.80895">
        <ele>238</ele>
        <time>2021-03-30T10:08:04.000Z</time>
      </trkpt>
      <trkpt lat="49.75761" lon="4.80896">
        <ele>238</ele>
        <time>2021-03-30T10:08:05.000Z</time>
      </trkpt>
      <trkpt lat="49.75766" lon="4.80896">
        <ele>238</ele>
        <time>2021-03-30T10:08:06.000Z</time>
      </trkpt>
      <trkpt lat="49.75769" lon="4.80896">
        <ele>238</ele>
        <time>2021-03-30T10:08:07.000Z</time>
      </trkpt>
      <trkpt lat="49.75773" lon="4.80897">
        <ele>238</ele>
        <time>2021-03-30T10:08:08.000Z</time>
      </trkpt>
      <trkpt lat="49.75776" lon="4.80898">
        <ele>238</ele>
        <time>2021-03-30T10:08:09.000Z</time>
      </trkpt>
      <trkpt lat="49.7578" lon="4.80899">
        <ele>238</ele>
        <time>2021-03-30T10:08:10.000Z</time>
      </trkpt>
      <trkpt lat="49.75783" lon="4.809">
        <ele>238</ele>
        <time>2021-03-30T10:08:11.000Z</time>
      </trkpt>
      <trkpt lat="49.75787" lon="4.80902">
        <ele>238</ele>
        <time>2021-03-30T10:08:12.000Z</time>
      </trkpt>
      <trkpt lat="49.7579" lon="4.80902">
        <ele>239</ele>
        <time>2021-03-30T10:08:13.000Z</time>
      </trkpt>
      <trkpt lat="49.75793" lon="4.80903">
        <ele>239</ele>
        <time>2021-03-30T10:08:14.000Z</time>
      </trkpt>
      <trkpt lat="49.75796" lon="4.80903">
        <ele>239</ele>
        <time>2021-03-30T10:08:15.000Z</time>
      </trkpt>
      <trkpt lat="49.75799" lon="4.80904">
        <ele>239</ele>
        <time>2021-03-30T10:08:16.000Z</time>
      </trkpt>
      <trkpt lat="49.75802" lon="4.80904">
        <ele>239</ele>
        <time>2021-03-30T10:08:17.000Z</time>
      </trkpt>
      <trkpt lat="49.75805" lon="4.80904">
        <ele>239</ele>
        <time>2021-03-30T10:08:18.000Z</time>
      </trkpt>
      <trkpt lat="49.75807" lon="4.80905">
        <ele>239</ele>
        <time>2021-03-30T10:08:19.000Z</time>
      </trkpt>
      <trkpt lat="49.7581" lon="4.80907">
        <ele>239</ele>
        <time>2021-03-30T10:08:20.000Z</time>
      </trkpt>
      <trkpt lat="49.75812" lon="4.80908">
        <ele>239</ele>
        <time>2021-03-30T10:08:21.000Z</time>
      </trkpt>
      <trkpt lat="49.75814" lon="4.80909">
        <ele>239</ele>
        <time>2021-03-30T10:08:22.000Z</time>
      </trkpt>
      <trkpt lat="49.75817" lon="4.8091">
        <ele>239</ele>
        <time>2021-03-30T10:08:23.000Z</time>
      </trkpt>
      <trkpt lat="49.75819" lon="4.80911">
        <ele>240</ele>
        <time>2021-03-30T10:08:24.000Z</time>
      </trkpt>
      <trkpt lat="49.75823" lon="4.80913">
        <ele>240</ele>
        <time>2021-03-30T10:08:25.000Z</time>
      </trkpt>
      <trkpt lat="49.75826" lon="4.80916">
        <ele>240</ele>
        <time>2021-03-30T10:08:26.000Z</time>
      </trkpt>
      <trkpt lat="49.7583" lon="4.80917">
        <ele>240</ele>
        <time>2021-03-30T10:08:27.000Z</time>
      </trkpt>
      <trkpt lat="49.75833" lon="4.80919">
        <ele>240</ele>
        <time>2021-03-30T10:08:28.000Z</time>
      </trkpt>
      <trkpt lat="49.75836" lon="4.80921">
        <ele>240</ele>
        <time>2021-03-30T10:08:29.000Z</time>
      </trkpt>
      <trkpt lat="49.7584" lon="4.80924">
        <ele>240</ele>
        <time>2021-03-30T10:08:30.000Z</time>
      </trkpt>
      <trkpt lat="49.75843" lon="4.80927">
        <ele>240</ele>
        <time>2021-03-30T10:08:31.000Z</time>
      </trkpt>
      <trkpt lat="49.75846" lon="4.8093">
        <ele>240</ele>
        <time>2021-03-30T10:08:32.000Z</time>
      </trkpt>
      <trkpt lat="49.75849" lon="4.80933">
        <ele>240</ele>
        <time>2021-03-30T10:08:33.000Z</time>
      </trkpt>
      <trkpt lat="49.75852" lon="4.80936">
        <ele>240</ele>
        <time>2021-03-30T10:08:34.000Z</time>
      </trkpt>
      <trkpt lat="49.75854" lon="4.80939">
        <ele>240</ele>
        <time>2021-03-30T10:08:35.000Z</time>
      </trkpt>
      <trkpt lat="49.75857" lon="4.80942">
        <ele>240</ele>
        <time>2021-03-30T10:08:36.000Z</time>
      </trkpt>
      <trkpt lat="49.75861" lon="4.80944">
        <ele>240</ele>
        <time>2021-03-30T10:08:37.000Z</time>
      </trkpt>
      <trkpt lat="49.75864" lon="4.80948">
        <ele>240</ele>
        <time>2021-03-30T10:08:38.000Z</time>
      </trkpt>
      <trkpt lat="49.75867" lon="4.80951">
        <ele>240</ele>
        <time>2021-03-30T10:08:39.000Z</time>
      </trkpt>
      <trkpt lat="49.7587" lon="4.80955">
        <ele>240</ele>
        <time>2021-03-30T10:08:40.000Z</time>
      </trkpt>
      <trkpt lat="49.75873" lon="4.80958">
        <ele>240</ele>
        <time>2021-03-30T10:08:41.000Z</time>
      </trkpt>
      <trkpt lat="49.75876" lon="4.80961">
        <ele>240</ele>
        <time>2021-03-30T10:08:42.000Z</time>
      </trkpt>
      <trkpt lat="49.75878" lon="4.80964">
        <ele>240</ele>
        <time>2021-03-30T10:08:43.000Z</time>
      </trkpt>
      <trkpt lat="49.75881" lon="4.80967">
        <ele>241</ele>
        <time>2021-03-30T10:08:44.000Z</time>
      </trkpt>
      <trkpt lat="49.75884" lon="4.8097">
        <ele>241</ele>
        <time>2021-03-30T10:08:45.000Z</time>
      </trkpt>
      <trkpt lat="49.75887" lon="4.80973">
        <ele>241</ele>
        <time>2021-03-30T10:08:46.000Z</time>
      </trkpt>
      <trkpt lat="49.7589" lon="4.80976">
        <ele>241</ele>
        <time>2021-03-30T10:08:47.000Z</time>
      </trkpt>
      <trkpt lat="49.75892" lon="4.80981">
        <ele>241</ele>
        <time>2021-03-30T10:08:48.000Z</time>
      </trkpt>
      <trkpt lat="49.75894" lon="4.80984">
        <ele>241</ele>
        <time>2021-03-30T10:08:49.000Z</time>
      </trkpt>
      <trkpt lat="49.75897" lon="4.80988">
        <ele>241</ele>
        <time>2021-03-30T10:08:50.000Z</time>
      </trkpt>
      <trkpt lat="49.75899" lon="4.80992">
        <ele>241</ele>
        <time>2021-03-30T10:08:51.000Z</time>
      </trkpt>
      <trkpt lat="49.75902" lon="4.80997">
        <ele>241</ele>
        <time>2021-03-30T10:08:52.000Z</time>
      </trkpt>
      <trkpt lat="49.75904" lon="4.81002">
        <ele>241</ele>
        <time>2021-03-30T10:08:53.000Z</time>
      </trkpt>
      <trkpt lat="49.75907" lon="4.81006">
        <ele>242</ele>
        <time>2021-03-30T10:08:54.000Z</time>
      </trkpt>
      <trkpt lat="49.75909" lon="4.81011">
        <ele>242</ele>
        <time>2021-03-30T10:08:55.000Z</time>
      </trkpt>
      <trkpt lat="49.75912" lon="4.81015">
        <ele>242</ele>
        <time>2021-03-30T10:08:56.000Z</time>
      </trkpt>
      <trkpt lat="49.75914" lon="4.8102">
        <ele>242</ele>
        <time>2021-03-30T10:08:57.000Z</time>
      </trkpt>
      <trkpt lat="49.75916" lon="4.81024">
        <ele>242</ele>
        <time>2021-03-30T10:08:58.000Z</time>
      </trkpt>
      <trkpt lat="49.75917" lon="4.81029">
        <ele>242</ele>
        <time>2021-03-30T10:08:59.000Z</time>
      </trkpt>
      <trkpt lat="49.75919" lon="4.81033">
        <ele>242</ele>
        <time>2021-03-30T10:09:00.000Z</time>
      </trkpt>
      <trkpt lat="49.75921" lon="4.81038">
        <ele>243</ele>
        <time>2021-03-30T10:09:01.000Z</time>
      </trkpt>
      <trkpt lat="49.75923" lon="4.81042">
        <ele>243</ele>
        <time>2021-03-30T10:09:02.000Z</time>
      </trkpt>
      <trkpt lat="49.75925" lon="4.81046">
        <ele>243</ele>
        <time>2021-03-30T10:09:03.000Z</time>
      </trkpt>
      <trkpt lat="49.75928" lon="4.81049">
        <ele>243</ele>
        <time>2021-03-30T10:09:04.000Z</time>
      </trkpt>
      <trkpt lat="49.7593" lon="4.81051">
        <ele>244</ele>
        <time>2021-03-30T10:09:05.000Z</time>
      </trkpt>
      <trkpt lat="49.75933" lon="4.81054">
        <ele>244</ele>
        <time>2021-03-30T10:09:06.000Z</time>
      </trkpt>
      <trkpt lat="49.75934" lon="4.81058">
        <ele>244</ele>
        <time>2021-03-30T10:09:07.000Z</time>
      </trkpt>
      <trkpt lat="49.75936" lon="4.81061">
        <ele>244</ele>
        <time>2021-03-30T10:09:08.000Z</time>
      </trkpt>
      <trkpt lat="49.75938" lon="4.81065">
        <ele>244</ele>
        <time>2021-03-30T10:09:09.000Z</time>
      </trkpt>
      <trkpt lat="49.7594" lon="4.81068">
        <ele>245</ele>
        <time>2021-03-30T10:09:10.000Z</time>
      </trkpt>
      <trkpt lat="49.75941" lon="4.81073">
        <ele>245</ele>
        <time>2021-03-30T10:09:11.000Z</time>
      </trkpt>
      <trkpt lat="49.75943" lon="4.81077">
        <ele>245</ele>
        <time>2021-03-30T10:09:12.000Z</time>
      </trkpt>
      <trkpt lat="49.75945" lon="4.81081">
        <ele>245</ele>
        <time>2021-03-30T10:09:13.000Z</time>
      </trkpt>
      <trkpt lat="49.75946" lon="4.81085">
        <ele>245</ele>
        <time>2021-03-30T10:09:14.000Z</time>
      </trkpt>
      <trkpt lat="49.75948" lon="4.8109">
        <ele>245</ele>
        <time>2021-03-30T10:09:15.000Z</time>
      </trkpt>
      <trkpt lat="49.7595" lon="4.81095">
        <ele>246</ele>
        <time>2021-03-30T10:09:16.000Z</time>
      </trkpt>
      <trkpt lat="49.75953" lon="4.811">
        <ele>246</ele>
        <time>2021-03-30T10:09:17.000Z</time>
      </trkpt>
      <trkpt lat="49.75955" lon="4.81104">
        <ele>246</ele>
        <time>2021-03-30T10:09:18.000Z</time>
      </trkpt>
      <trkpt lat="49.75958" lon="4.81108">
        <ele>246</ele>
        <time>2021-03-30T10:09:19.000Z</time>
      </trkpt>
      <trkpt lat="49.7596" lon="4.81112">
        <ele>246</ele>
        <time>2021-03-30T10:09:20.000Z</time>
      </trkpt>
      <trkpt lat="49.75963" lon="4.81116">
        <ele>246</ele>
        <time>2021-03-30T10:09:21.000Z</time>
      </trkpt>
      <trkpt lat="49.75965" lon="4.8112">
        <ele>246</ele>
        <time>2021-03-30T10:09:22.000Z</time>
      </trkpt>
      <trkpt lat="49.75967" lon="4.81124">
        <ele>247</ele>
        <time>2021-03-30T10:09:23.000Z</time>
      </trkpt>
      <trkpt lat="49.75969" lon="4.81127">
        <ele>247</ele>
        <time>2021-03-30T10:09:24.000Z</time>
      </trkpt>
      <trkpt lat="49.75972" lon="4.8113">
        <ele>247</ele>
        <time>2021-03-30T10:09:25.000Z</time>
      </trkpt>
      <trkpt lat="49.75975" lon="4.81132">
        <ele>247</ele>
        <time>2021-03-30T10:09:26.000Z</time>
      </trkpt>
      <trkpt lat="49.75979" lon="4.81135">
        <ele>247</ele>
        <time>2021-03-30T10:09:27.000Z</time>
      </trkpt>
      <trkpt lat="49.75981" lon="4.81137">
        <ele>247</ele>
        <time>2021-03-30T10:09:28.000Z</time>
      </trkpt>
      <trkpt lat="49.75984" lon="4.8114">
        <ele>248</ele>
        <time>2021-03-30T10:09:29.000Z</time>
      </trkpt>
      <trkpt lat="49.75988" lon="4.81143">
        <ele>248</ele>
        <time>2021-03-30T10:09:30.000Z</time>
      </trkpt>
      <trkpt lat="49.75991" lon="4.81145">
        <ele>248</ele>
        <time>2021-03-30T10:09:31.000Z</time>
      </trkpt>
      <trkpt lat="49.75993" lon="4.81148">
        <ele>248</ele>
        <time>2021-03-30T10:09:32.000Z</time>
      </trkpt>
      <trkpt lat="49.75996" lon="4.8115">
        <ele>249</ele>
        <time>2021-03-30T10:09:33.000Z</time>
      </trkpt>
      <trkpt lat="49.75998" lon="4.81154">
        <ele>249</ele>
        <time>2021-03-30T10:09:34.000Z</time>
      </trkpt>
      <trkpt lat="49.76" lon="4.81157">
        <ele>249</ele>
        <time>2021-03-30T10:09:35.000Z</time>
      </trkpt>
      <trkpt lat="49.76" lon="4.81159">
        <ele>250</ele>
        <time>2021-03-30T10:09:36.000Z</time>
      </trkpt>
      <trkpt lat="49.76001" lon="4.8116">
        <ele>250</ele>
        <time>2021-03-30T10:09:37.000Z</time>
      </trkpt>
      <trkpt lat="49.76001" lon="4.81161">
        <ele>250</ele>
        <time>2021-03-30T10:09:38.000Z</time>
      </trkpt>
      <trkpt lat="49.76002" lon="4.81162">
        <ele>250</ele>
        <time>2021-03-30T10:09:39.000Z</time>
      </trkpt>
      <trkpt lat="49.76002" lon="4.81163">
        <ele>251</ele>
        <time>2021-03-30T10:09:40.000Z</time>
      </trkpt>
      <trkpt lat="49.76003" lon="4.81163">
        <ele>251</ele>
        <time>2021-03-30T10:09:41.000Z</time>
      </trkpt>
      <trkpt lat="49.76003" lon="4.81164">
        <ele>251</ele>
        <time>2021-03-30T10:09:42.000Z</time>
      </trkpt>
      <trkpt lat="49.76004" lon="4.81165">
        <ele>251</ele>
        <time>2021-03-30T10:09:43.000Z</time>
      </trkpt>
      <trkpt lat="49.76006" lon="4.81166">
        <ele>252</ele>
        <time>2021-03-30T10:09:44.000Z</time>
      </trkpt>
      <trkpt lat="49.76008" lon="4.81169">
        <ele>252</ele>
        <time>2021-03-30T10:09:45.000Z</time>
      </trkpt>
      <trkpt lat="49.76009" lon="4.81171">
        <ele>252</ele>
        <time>2021-03-30T10:09:46.000Z</time>
      </trkpt>
      <trkpt lat="49.76011" lon="4.81174">
        <ele>252</ele>
        <time>2021-03-30T10:09:47.000Z</time>
      </trkpt>
      <trkpt lat="49.76012" lon="4.81176">
        <ele>252</ele>
        <time>2021-03-30T10:09:48.000Z</time>
      </trkpt>
      <trkpt lat="49.76013" lon="4.81177">
        <ele>253</ele>
        <time>2021-03-30T10:09:49.000Z</time>
      </trkpt>
      <trkpt lat="49.76014" lon="4.8118">
        <ele>253</ele>
        <time>2021-03-30T10:09:50.000Z</time>
      </trkpt>
      <trkpt lat="49.76017" lon="4.81183">
        <ele>253</ele>
        <time>2021-03-30T10:09:51.000Z</time>
      </trkpt>
      <trkpt lat="49.7602" lon="4.81187">
        <ele>253</ele>
        <time>2021-03-30T10:09:52.000Z</time>
      </trkpt>
      <trkpt lat="49.76023" lon="4.8119">
        <ele>254</ele>
        <time>2021-03-30T10:09:53.000Z</time>
      </trkpt>
      <trkpt lat="49.76025" lon="4.81193">
        <ele>254</ele>
        <time>2021-03-30T10:09:54.000Z</time>
      </trkpt>
      <trkpt lat="49.76028" lon="4.81195">
        <ele>254</ele>
        <time>2021-03-30T10:09:55.000Z</time>
      </trkpt>
      <trkpt lat="49.76031" lon="4.81198">
        <ele>254</ele>
        <time>2021-03-30T10:09:56.000Z</time>
      </trkpt>
      <trkpt lat="49.76034" lon="4.812">
        <ele>254</ele>
        <time>2021-03-30T10:09:57.000Z</time>
      </trkpt>
      <trkpt lat="49.76037" lon="4.81203">
        <ele>254</ele>
        <time>2021-03-30T10:09:58.000Z</time>
      </trkpt>
      <trkpt lat="49.7604" lon="4.81207">
        <ele>255</ele>
        <time>2021-03-30T10:09:59.000Z</time>
      </trkpt>
      <trkpt lat="49.76042" lon="4.81211">
        <ele>255</ele>
        <time>2021-03-30T10:10:00.000Z</time>
      </trkpt>
      <trkpt lat="49.76044" lon="4.81215">
        <ele>255</ele>
        <time>2021-03-30T10:10:01.000Z</time>
      </trkpt>
      <trkpt lat="49.76047" lon="4.81218">
        <ele>255</ele>
        <time>2021-03-30T10:10:02.000Z</time>
      </trkpt>
      <trkpt lat="49.7605" lon="4.8122">
        <ele>255</ele>
        <time>2021-03-30T10:10:03.000Z</time>
      </trkpt>
      <trkpt lat="49.76053" lon="4.81223">
        <ele>255</ele>
        <time>2021-03-30T10:10:04.000Z</time>
      </trkpt>
      <trkpt lat="49.76055" lon="4.81226">
        <ele>255</ele>
        <time>2021-03-30T10:10:05.000Z</time>
      </trkpt>
      <trkpt lat="49.76058" lon="4.81229">
        <ele>255</ele>
        <time>2021-03-30T10:10:06.000Z</time>
      </trkpt>
      <trkpt lat="49.7606" lon="4.81233">
        <ele>255</ele>
        <time>2021-03-30T10:10:07.000Z</time>
      </trkpt>
      <trkpt lat="49.76062" lon="4.81236">
        <ele>255</ele>
        <time>2021-03-30T10:10:08.000Z</time>
      </trkpt>
      <trkpt lat="49.76065" lon="4.8124">
        <ele>256</ele>
        <time>2021-03-30T10:10:09.000Z</time>
      </trkpt>
      <trkpt lat="49.76067" lon="4.81243">
        <ele>256</ele>
        <time>2021-03-30T10:10:10.000Z</time>
      </trkpt>
      <trkpt lat="49.7607" lon="4.81246">
        <ele>256</ele>
        <time>2021-03-30T10:10:11.000Z</time>
      </trkpt>
      <trkpt lat="49.76072" lon="4.81248">
        <ele>256</ele>
        <time>2021-03-30T10:10:12.000Z</time>
      </trkpt>
      <trkpt lat="49.76074" lon="4.81252">
        <ele>256</ele>
        <time>2021-03-30T10:10:13.000Z</time>
      </trkpt>
      <trkpt lat="49.76077" lon="4.81255">
        <ele>256</ele>
        <time>2021-03-30T10:10:14.000Z</time>
      </trkpt>
      <trkpt lat="49.76079" lon="4.81258">
        <ele>256</ele>
        <time>2021-03-30T10:10:15.000Z</time>
      </trkpt>
      <trkpt lat="49.76082" lon="4.81261">
        <ele>257</ele>
        <time>2021-03-30T10:10:16.000Z</time>
      </trkpt>
      <trkpt lat="49.76084" lon="4.81264">
        <ele>257</ele>
        <time>2021-03-30T10:10:17.000Z</time>
      </trkpt>
      <trkpt lat="49.76087" lon="4.81265">
        <ele>257</ele>
        <time>2021-03-30T10:10:18.000Z</time>
      </trkpt>
      <trkpt lat="49.76089" lon="4.81267">
        <ele>257</ele>
        <time>2021-03-30T10:10:19.000Z</time>
      </trkpt>
      <trkpt lat="49.76092" lon="4.81269">
        <ele>257</ele>
        <time>2021-03-30T10:10:20.000Z</time>
      </trkpt>
      <trkpt lat="49.76094" lon="4.81272">
        <ele>258</ele>
        <time>2021-03-30T10:10:21.000Z</time>
      </trkpt>
      <trkpt lat="49.76097" lon="4.81275">
        <ele>258</ele>
        <time>2021-03-30T10:10:22.000Z</time>
      </trkpt>
      <trkpt lat="49.76099" lon="4.81278">
        <ele>258</ele>
        <time>2021-03-30T10:10:23.000Z</time>
      </trkpt>
      <trkpt lat="49.76102" lon="4.81281">
        <ele>258</ele>
        <time>2021-03-30T10:10:24.000Z</time>
      </trkpt>
      <trkpt lat="49.76105" lon="4.81285">
        <ele>259</ele>
        <time>2021-03-30T10:10:25.000Z</time>
      </trkpt>
      <trkpt lat="49.76108" lon="4.81288">
        <ele>259</ele>
        <time>2021-03-30T10:10:26.000Z</time>
      </trkpt>
      <trkpt lat="49.76111" lon="4.81291">
        <ele>259</ele>
        <time>2021-03-30T10:10:27.000Z</time>
      </trkpt>
      <trkpt lat="49.76113" lon="4.81293">
        <ele>259</ele>
        <time>2021-03-30T10:10:28.000Z</time>
      </trkpt>
      <trkpt lat="49.76116" lon="4.81294">
        <ele>260</ele>
        <time>2021-03-30T10:10:29.000Z</time>
      </trkpt>
      <trkpt lat="49.7612" lon="4.81295">
        <ele>260</ele>
        <time>2021-03-30T10:10:30.000Z</time>
      </trkpt>
      <trkpt lat="49.76123" lon="4.81297">
        <ele>260</ele>
        <time>2021-03-30T10:10:31.000Z</time>
      </trkpt>
      <trkpt lat="49.76126" lon="4.813">
        <ele>261</ele>
        <time>2021-03-30T10:10:32.000Z</time>
      </trkpt>
      <trkpt lat="49.76129" lon="4.81303">
        <ele>261</ele>
        <time>2021-03-30T10:10:33.000Z</time>
      </trkpt>
      <trkpt lat="49.76131" lon="4.81307">
        <ele>262</ele>
        <time>2021-03-30T10:10:34.000Z</time>
      </trkpt>
      <trkpt lat="49.76132" lon="4.81311">
        <ele>262</ele>
        <time>2021-03-30T10:10:35.000Z</time>
      </trkpt>
      <trkpt lat="49.76133" lon="4.81314">
        <ele>262</ele>
        <time>2021-03-30T10:10:36.000Z</time>
      </trkpt>
      <trkpt lat="49.76134" lon="4.81318">
        <ele>263</ele>
        <time>2021-03-30T10:10:37.000Z</time>
      </trkpt>
      <trkpt lat="49.76134" lon="4.81322">
        <ele>263</ele>
        <time>2021-03-30T10:10:38.000Z</time>
      </trkpt>
      <trkpt lat="49.76134" lon="4.81326">
        <ele>263</ele>
        <time>2021-03-30T10:10:39.000Z</time>
      </trkpt>
      <trkpt lat="49.76135" lon="4.81328">
        <ele>264</ele>
        <time>2021-03-30T10:10:40.000Z</time>
      </trkpt>
      <trkpt lat="49.76135" lon="4.81331">
        <ele>264</ele>
        <time>2021-03-30T10:10:41.000Z</time>
      </trkpt>
      <trkpt lat="49.76135" lon="4.81334">
        <ele>264</ele>
        <time>2021-03-30T10:10:42.000Z</time>
      </trkpt>
      <trkpt lat="49.76135" lon="4.81338">
        <ele>265</ele>
        <time>2021-03-30T10:10:43.000Z</time>
      </trkpt>
      <trkpt lat="49.76134" lon="4.81341">
        <ele>265</ele>
        <time>2021-03-30T10:10:44.000Z</time>
      </trkpt>
      <trkpt lat="49.76133" lon="4.81344">
        <ele>265</ele>
        <time>2021-03-30T10:10:45.000Z</time>
      </trkpt>
      <trkpt lat="49.76133" lon="4.81347">
        <ele>266</ele>
        <time>2021-03-30T10:10:46.000Z</time>
      </trkpt>
      <trkpt lat="49.76133" lon="4.81349">
        <ele>266</ele>
        <time>2021-03-30T10:10:47.000Z</time>
      </trkpt>
      <trkpt lat="49.76133" lon="4.81351">
        <ele>266</ele>
        <time>2021-03-30T10:10:48.000Z</time>
      </trkpt>
      <trkpt lat="49.76133" lon="4.81354">
        <ele>267</ele>
        <time>2021-03-30T10:10:49.000Z</time>
      </trkpt>
      <trkpt lat="49.76133" lon="4.81357">
        <ele>267</ele>
        <time>2021-03-30T10:10:50.000Z</time>
      </trkpt>
      <trkpt lat="49.76133" lon="4.8136">
        <ele>267</ele>
        <time>2021-03-30T10:10:51.000Z</time>
      </trkpt>
      <trkpt lat="49.76133" lon="4.81364">
        <ele>267</ele>
        <time>2021-03-30T10:10:52.000Z</time>
      </trkpt>
      <trkpt lat="49.76132" lon="4.81367">
        <ele>268</ele>
        <time>2021-03-30T10:10:53.000Z</time>
      </trkpt>
      <trkpt lat="49.76131" lon="4.81371">
        <ele>268</ele>
        <time>2021-03-30T10:10:54.000Z</time>
      </trkpt>
      <trkpt lat="49.76131" lon="4.81374">
        <ele>268</ele>
        <time>2021-03-30T10:10:55.000Z</time>
      </trkpt>
      <trkpt lat="49.7613" lon="4.81377">
        <ele>268</ele>
        <time>2021-03-30T10:10:56.000Z</time>
      </trkpt>
      <trkpt lat="49.7613" lon="4.81381">
        <ele>268</ele>
        <time>2021-03-30T10:10:57.000Z</time>
      </trkpt>
      <trkpt lat="49.7613" lon="4.81385">
        <ele>268</ele>
        <time>2021-03-30T10:10:58.000Z</time>
      </trkpt>
      <trkpt lat="49.7613" lon="4.81389">
        <ele>268</ele>
        <time>2021-03-30T10:10:59.000Z</time>
      </trkpt>
      <trkpt lat="49.7613" lon="4.81393">
        <ele>269</ele>
        <time>2021-03-30T10:11:00.000Z</time>
      </trkpt>
      <trkpt lat="49.7613" lon="4.81398">
        <ele>269</ele>
        <time>2021-03-30T10:11:01.000Z</time>
      </trkpt>
      <trkpt lat="49.7613" lon="4.81402">
        <ele>269</ele>
        <time>2021-03-30T10:11:02.000Z</time>
      </trkpt>
      <trkpt lat="49.7613" lon="4.81406">
        <ele>269</ele>
        <time>2021-03-30T10:11:03.000Z</time>
      </trkpt>
      <trkpt lat="49.7613" lon="4.81409">
        <ele>269</ele>
        <time>2021-03-30T10:11:04.000Z</time>
      </trkpt>
      <trkpt lat="49.7613" lon="4.81414">
        <ele>269</ele>
        <time>2021-03-30T10:11:05.000Z</time>
      </trkpt>
      <trkpt lat="49.76131" lon="4.81417">
        <ele>269</ele>
        <time>2021-03-30T10:11:06.000Z</time>
      </trkpt>
      <trkpt lat="49.76132" lon="4.81421">
        <ele>269</ele>
        <time>2021-03-30T10:11:07.000Z</time>
      </trkpt>
      <trkpt lat="49.76133" lon="4.81424">
        <ele>269</ele>
        <time>2021-03-30T10:11:08.000Z</time>
      </trkpt>
      <trkpt lat="49.76135" lon="4.81427">
        <ele>269</ele>
        <time>2021-03-30T10:11:09.000Z</time>
      </trkpt>
      <trkpt lat="49.76137" lon="4.81429">
        <ele>269</ele>
        <time>2021-03-30T10:11:10.000Z</time>
      </trkpt>
      <trkpt lat="49.7614" lon="4.8143">
        <ele>269</ele>
        <time>2021-03-30T10:11:11.000Z</time>
      </trkpt>
      <trkpt lat="49.76143" lon="4.8143">
        <ele>269</ele>
        <time>2021-03-30T10:11:12.000Z</time>
      </trkpt>
      <trkpt lat="49.76145" lon="4.8143">
        <ele>269</ele>
        <time>2021-03-30T10:11:13.000Z</time>
      </trkpt>
      <trkpt lat="49.76148" lon="4.81431">
        <ele>269</ele>
        <time>2021-03-30T10:11:14.000Z</time>
      </trkpt>
      <trkpt lat="49.76151" lon="4.81433">
        <ele>269</ele>
        <time>2021-03-30T10:11:15.000Z</time>
      </trkpt>
      <trkpt lat="49.76154" lon="4.81434">
        <ele>269</ele>
        <time>2021-03-30T10:11:16.000Z</time>
      </trkpt>
      <trkpt lat="49.76158" lon="4.81435">
        <ele>269</ele>
        <time>2021-03-30T10:11:17.000Z</time>
      </trkpt>
      <trkpt lat="49.76161" lon="4.81436">
        <ele>269</ele>
        <time>2021-03-30T10:11:18.000Z</time>
      </trkpt>
      <trkpt lat="49.76164" lon="4.81437">
        <ele>269</ele>
        <time>2021-03-30T10:11:19.000Z</time>
      </trkpt>
      <trkpt lat="49.76168" lon="4.81439">
        <ele>269</ele>
        <time>2021-03-30T10:11:20.000Z</time>
      </trkpt>
      <trkpt lat="49.76171" lon="4.8144">
        <ele>269</ele>
        <time>2021-03-30T10:11:21.000Z</time>
      </trkpt>
      <trkpt lat="49.76175" lon="4.81441">
        <ele>269</ele>
        <time>2021-03-30T10:11:22.000Z</time>
      </trkpt>
      <trkpt lat="49.76177" lon="4.81441">
        <ele>269</ele>
        <time>2021-03-30T10:11:23.000Z</time>
      </trkpt>
      <trkpt lat="49.76178" lon="4.81439">
        <ele>269</ele>
        <time>2021-03-30T10:11:24.000Z</time>
      </trkpt>
      <trkpt lat="49.76178" lon="4.81436">
        <ele>269</ele>
        <time>2021-03-30T10:11:25.000Z</time>
      </trkpt>
      <trkpt lat="49.76179" lon="4.81431">
        <ele>269</ele>
        <time>2021-03-30T10:11:26.000Z</time>
      </trkpt>
      <trkpt lat="49.76179" lon="4.81424">
        <ele>269</ele>
        <time>2021-03-30T10:11:27.000Z</time>
      </trkpt>
      <trkpt lat="49.76179" lon="4.81414">
        <ele>269</ele>
        <time>2021-03-30T10:11:28.000Z</time>
      </trkpt>
      <trkpt lat="49.7618" lon="4.81404">
        <ele>269</ele>
        <time>2021-03-30T10:11:29.000Z</time>
      </trkpt>
      <trkpt lat="49.7618" lon="4.81394">
        <ele>269</ele>
        <time>2021-03-30T10:11:30.000Z</time>
      </trkpt>
      <trkpt lat="49.7618" lon="4.81383">
        <ele>269</ele>
        <time>2021-03-30T10:11:31.000Z</time>
      </trkpt>
      <trkpt lat="49.7618" lon="4.81372">
        <ele>269</ele>
        <time>2021-03-30T10:11:32.000Z</time>
      </trkpt>
      <trkpt lat="49.76181" lon="4.8136">
        <ele>269</ele>
        <time>2021-03-30T10:11:33.000Z</time>
      </trkpt>
      <trkpt lat="49.76181" lon="4.81347">
        <ele>269</ele>
        <time>2021-03-30T10:11:34.000Z</time>
      </trkpt>
      <trkpt lat="49.76182" lon="4.81334">
        <ele>269</ele>
        <time>2021-03-30T10:11:35.000Z</time>
      </trkpt>
      <trkpt lat="49.76182" lon="4.81321">
        <ele>268</ele>
        <time>2021-03-30T10:11:36.000Z</time>
      </trkpt>
      <trkpt lat="49.76183" lon="4.8131">
        <ele>268</ele>
        <time>2021-03-30T10:11:37.000Z</time>
      </trkpt>
      <trkpt lat="49.76185" lon="4.813">
        <ele>268</ele>
        <time>2021-03-30T10:11:38.000Z</time>
      </trkpt>
      <trkpt lat="49.76187" lon="4.81291">
        <ele>268</ele>
        <time>2021-03-30T10:11:39.000Z</time>
      </trkpt>
      <trkpt lat="49.76188" lon="4.81284">
        <ele>268</ele>
        <time>2021-03-30T10:11:40.000Z</time>
      </trkpt>
      <trkpt lat="49.76189" lon="4.81277">
        <ele>268</ele>
        <time>2021-03-30T10:11:41.000Z</time>
      </trkpt>
      <trkpt lat="49.76189" lon="4.81269">
        <ele>268</ele>
        <time>2021-03-30T10:11:42.000Z</time>
      </trkpt>
      <trkpt lat="49.76189" lon="4.81263">
        <ele>268</ele>
        <time>2021-03-30T10:11:43.000Z</time>
      </trkpt>
      <trkpt lat="49.76189" lon="4.81256">
        <ele>268</ele>
        <time>2021-03-30T10:11:44.000Z</time>
      </trkpt>
      <trkpt lat="49.76189" lon="4.81249">
        <ele>268</ele>
        <time>2021-03-30T10:11:45.000Z</time>
      </trkpt>
      <trkpt lat="49.76189" lon="4.81241">
        <ele>268</ele>
        <time>2021-03-30T10:11:46.000Z</time>
      </trkpt>
      <trkpt lat="49.76188" lon="4.81233">
        <ele>268</ele>
        <time>2021-03-30T10:11:47.000Z</time>
      </trkpt>
      <trkpt lat="49.76188" lon="4.81225">
        <ele>268</ele>
        <time>2021-03-30T10:11:48.000Z</time>
      </trkpt>
      <trkpt lat="49.76188" lon="4.81218">
        <ele>268</ele>
        <time>2021-03-30T10:11:49.000Z</time>
      </trkpt>
      <trkpt lat="49.76188" lon="4.8121">
        <ele>268</ele>
        <time>2021-03-30T10:11:50.000Z</time>
      </trkpt>
      <trkpt lat="49.76188" lon="4.81202">
        <ele>268</ele>
        <time>2021-03-30T10:11:51.000Z</time>
      </trkpt>
      <trkpt lat="49.76189" lon="4.81195">
        <ele>268</ele>
        <time>2021-03-30T10:11:52.000Z</time>
      </trkpt>
      <trkpt lat="49.76189" lon="4.81187">
        <ele>268</ele>
        <time>2021-03-30T10:11:53.000Z</time>
      </trkpt>
      <trkpt lat="49.7619" lon="4.8118">
        <ele>268</ele>
        <time>2021-03-30T10:11:54.000Z</time>
      </trkpt>
      <trkpt lat="49.7619" lon="4.81172">
        <ele>269</ele>
        <time>2021-03-30T10:11:55.000Z</time>
      </trkpt>
      <trkpt lat="49.76191" lon="4.81165">
        <ele>269</ele>
        <time>2021-03-30T10:11:56.000Z</time>
      </trkpt>
      <trkpt lat="49.76191" lon="4.81157">
        <ele>269</ele>
        <time>2021-03-30T10:11:57.000Z</time>
      </trkpt>
      <trkpt lat="49.76192" lon="4.81149">
        <ele>269</ele>
        <time>2021-03-30T10:11:58.000Z</time>
      </trkpt>
      <trkpt lat="49.76193" lon="4.8114">
        <ele>269</ele>
        <time>2021-03-30T10:11:59.000Z</time>
      </trkpt>
      <trkpt lat="49.76195" lon="4.81132">
        <ele>269</ele>
        <time>2021-03-30T10:12:00.000Z</time>
      </trkpt>
      <trkpt lat="49.76195" lon="4.81124">
        <ele>269</ele>
        <time>2021-03-30T10:12:01.000Z</time>
      </trkpt>
      <trkpt lat="49.76196" lon="4.81114">
        <ele>268</ele>
        <time>2021-03-30T10:12:02.000Z</time>
      </trkpt>
      <trkpt lat="49.76196" lon="4.81105">
        <ele>268</ele>
        <time>2021-03-30T10:12:03.000Z</time>
      </trkpt>
      <trkpt lat="49.76197" lon="4.81095">
        <ele>268</ele>
        <time>2021-03-30T10:12:04.000Z</time>
      </trkpt>
      <trkpt lat="49.76197" lon="4.81084">
        <ele>268</ele>
        <time>2021-03-30T10:12:05.000Z</time>
      </trkpt>
      <trkpt lat="49.76198" lon="4.81074">
        <ele>268</ele>
        <time>2021-03-30T10:12:06.000Z</time>
      </trkpt>
      <trkpt lat="49.76198" lon="4.81064">
        <ele>268</ele>
        <time>2021-03-30T10:12:07.000Z</time>
      </trkpt>
      <trkpt lat="49.76198" lon="4.81054">
        <ele>268</ele>
        <time>2021-03-30T10:12:08.000Z</time>
      </trkpt>
      <trkpt lat="49.76199" lon="4.81044">
        <ele>268</ele>
        <time>2021-03-30T10:12:09.000Z</time>
      </trkpt>
      <trkpt lat="49.76198" lon="4.81034">
        <ele>267</ele>
        <time>2021-03-30T10:12:10.000Z</time>
      </trkpt>
      <trkpt lat="49.76198" lon="4.81025">
        <ele>267</ele>
        <time>2021-03-30T10:12:11.000Z</time>
      </trkpt>
      <trkpt lat="49.76198" lon="4.81015">
        <ele>267</ele>
        <time>2021-03-30T10:12:12.000Z</time>
      </trkpt>
      <trkpt lat="49.76199" lon="4.81006">
        <ele>267</ele>
        <time>2021-03-30T10:12:13.000Z</time>
      </trkpt>
      <trkpt lat="49.762" lon="4.80997">
        <ele>267</ele>
        <time>2021-03-30T10:12:14.000Z</time>
      </trkpt>
      <trkpt lat="49.762" lon="4.80988">
        <ele>267</ele>
        <time>2021-03-30T10:12:15.000Z</time>
      </trkpt>
      <trkpt lat="49.76201" lon="4.80979">
        <ele>268</ele>
        <time>2021-03-30T10:12:16.000Z</time>
      </trkpt>
      <trkpt lat="49.76201" lon="4.8097">
        <ele>268</ele>
        <time>2021-03-30T10:12:17.000Z</time>
      </trkpt>
      <trkpt lat="49.76201" lon="4.80962">
        <ele>268</ele>
        <time>2021-03-30T10:12:18.000Z</time>
      </trkpt>
      <trkpt lat="49.76201" lon="4.80954">
        <ele>268</ele>
        <time>2021-03-30T10:12:19.000Z</time>
      </trkpt>
      <trkpt lat="49.76201" lon="4.80946">
        <ele>268</ele>
        <time>2021-03-30T10:12:20.000Z</time>
      </trkpt>
      <trkpt lat="49.762" lon="4.80939">
        <ele>268</ele>
        <time>2021-03-30T10:12:21.000Z</time>
      </trkpt>
      <trkpt lat="49.76199" lon="4.80931">
        <ele>268</ele>
        <time>2021-03-30T10:12:22.000Z</time>
      </trkpt>
      <trkpt lat="49.76198" lon="4.80923">
        <ele>268</ele>
        <time>2021-03-30T10:12:23.000Z</time>
      </trkpt>
      <trkpt lat="49.76199" lon="4.80916">
        <ele>268</ele>
        <time>2021-03-30T10:12:24.000Z</time>
      </trkpt>
      <trkpt lat="49.76201" lon="4.8091">
        <ele>268</ele>
        <time>2021-03-30T10:12:25.000Z</time>
      </trkpt>
      <trkpt lat="49.76206" lon="4.80907">
        <ele>268</ele>
        <time>2021-03-30T10:12:26.000Z</time>
      </trkpt>
      <trkpt lat="49.76211" lon="4.80906">
        <ele>268</ele>
        <time>2021-03-30T10:12:27.000Z</time>
      </trkpt>
      <trkpt lat="49.76215" lon="4.80906">
        <ele>268</ele>
        <time>2021-03-30T10:12:28.000Z</time>
      </trkpt>
      <trkpt lat="49.76219" lon="4.80907">
        <ele>268</ele>
        <time>2021-03-30T10:12:29.000Z</time>
      </trkpt>
      <trkpt lat="49.76223" lon="4.80908">
        <ele>268</ele>
        <time>2021-03-30T10:12:30.000Z</time>
      </trkpt>
      <trkpt lat="49.76226" lon="4.80909">
        <ele>268</ele>
        <time>2021-03-30T10:12:31.000Z</time>
      </trkpt>
      <trkpt lat="49.76228" lon="4.8091">
        <ele>268</ele>
        <time>2021-03-30T10:12:32.000Z</time>
      </trkpt>
      <trkpt lat="49.76231" lon="4.80911">
        <ele>268</ele>
        <time>2021-03-30T10:12:33.000Z</time>
      </trkpt>
      <trkpt lat="49.76234" lon="4.80913">
        <ele>268</ele>
        <time>2021-03-30T10:12:34.000Z</time>
      </trkpt>
      <trkpt lat="49.76237" lon="4.80914">
        <ele>268</ele>
        <time>2021-03-30T10:12:35.000Z</time>
      </trkpt>
      <trkpt lat="49.76239" lon="4.80915">
        <ele>268</ele>
        <time>2021-03-30T10:12:36.000Z</time>
      </trkpt>
      <trkpt lat="49.76242" lon="4.80916">
        <ele>268</ele>
        <time>2021-03-30T10:12:37.000Z</time>
      </trkpt>
      <trkpt lat="49.76245" lon="4.80918">
        <ele>268</ele>
        <time>2021-03-30T10:12:38.000Z</time>
      </trkpt>
      <trkpt lat="49.76248" lon="4.80919">
        <ele>268</ele>
        <time>2021-03-30T10:12:39.000Z</time>
      </trkpt>
      <trkpt lat="49.76251" lon="4.8092">
        <ele>268</ele>
        <time>2021-03-30T10:12:40.000Z</time>
      </trkpt>
      <trkpt lat="49.76254" lon="4.80921">
        <ele>269</ele>
        <time>2021-03-30T10:12:41.000Z</time>
      </trkpt>
      <trkpt lat="49.76257" lon="4.80923">
        <ele>269</ele>
        <time>2021-03-30T10:12:42.000Z</time>
      </trkpt>
      <trkpt lat="49.7626" lon="4.80924">
        <ele>269</ele>
        <time>2021-03-30T10:12:43.000Z</time>
      </trkpt>
      <trkpt lat="49.76264" lon="4.80926">
        <ele>269</ele>
        <time>2021-03-30T10:12:44.000Z</time>
      </trkpt>
      <trkpt lat="49.76267" lon="4.80927">
        <ele>269</ele>
        <time>2021-03-30T10:12:45.000Z</time>
      </trkpt>
      <trkpt lat="49.7627" lon="4.80928">
        <ele>270</ele>
        <time>2021-03-30T10:12:46.000Z</time>
      </trkpt>
      <trkpt lat="49.76273" lon="4.80929">
        <ele>270</ele>
        <time>2021-03-30T10:12:47.000Z</time>
      </trkpt>
      <trkpt lat="49.76276" lon="4.8093">
        <ele>270</ele>
        <time>2021-03-30T10:12:48.000Z</time>
      </trkpt>
      <trkpt lat="49.76279" lon="4.80932">
        <ele>270</ele>
        <time>2021-03-30T10:12:49.000Z</time>
      </trkpt>
      <trkpt lat="49.76281" lon="4.80933">
        <ele>270</ele>
        <time>2021-03-30T10:12:50.000Z</time>
      </trkpt>
      <trkpt lat="49.76284" lon="4.80935">
        <ele>270</ele>
        <time>2021-03-30T10:12:51.000Z</time>
      </trkpt>
      <trkpt lat="49.76287" lon="4.80936">
        <ele>270</ele>
        <time>2021-03-30T10:12:52.000Z</time>
      </trkpt>
      <trkpt lat="49.7629" lon="4.80937">
        <ele>271</ele>
        <time>2021-03-30T10:12:53.000Z</time>
      </trkpt>
      <trkpt lat="49.76293" lon="4.80938">
        <ele>271</ele>
        <time>2021-03-30T10:12:54.000Z</time>
      </trkpt>
      <trkpt lat="49.76296" lon="4.80939">
        <ele>271</ele>
        <time>2021-03-30T10:12:55.000Z</time>
      </trkpt>
      <trkpt lat="49.76299" lon="4.8094">
        <ele>271</ele>
        <time>2021-03-30T10:12:56.000Z</time>
      </trkpt>
      <trkpt lat="49.76302" lon="4.8094">
        <ele>271</ele>
        <time>2021-03-30T10:12:57.000Z</time>
      </trkpt>
      <trkpt lat="49.76305" lon="4.80938">
        <ele>271</ele>
        <time>2021-03-30T10:12:58.000Z</time>
      </trkpt>
      <trkpt lat="49.76307" lon="4.80935">
        <ele>271</ele>
        <time>2021-03-30T10:12:59.000Z</time>
      </trkpt>
      <trkpt lat="49.76308" lon="4.8093">
        <ele>271</ele>
        <time>2021-03-30T10:13:00.000Z</time>
      </trkpt>
      <trkpt lat="49.76309" lon="4.80924">
        <ele>272</ele>
        <time>2021-03-30T10:13:01.000Z</time>
      </trkpt>
      <trkpt lat="49.7631" lon="4.80918">
        <ele>272</ele>
        <time>2021-03-30T10:13:02.000Z</time>
      </trkpt>
      <trkpt lat="49.7631" lon="4.80913">
        <ele>272</ele>
        <time>2021-03-30T10:13:03.000Z</time>
      </trkpt>
      <trkpt lat="49.76311" lon="4.80908">
        <ele>272</ele>
        <time>2021-03-30T10:13:04.000Z</time>
      </trkpt>
      <trkpt lat="49.76311" lon="4.80902">
        <ele>272</ele>
        <time>2021-03-30T10:13:05.000Z</time>
      </trkpt>
      <trkpt lat="49.76312" lon="4.80897">
        <ele>272</ele>
        <time>2021-03-30T10:13:06.000Z</time>
      </trkpt>
      <trkpt lat="49.76313" lon="4.80891">
        <ele>272</ele>
        <time>2021-03-30T10:13:07.000Z</time>
      </trkpt>
      <trkpt lat="49.76313" lon="4.80885">
        <ele>272</ele>
        <time>2021-03-30T10:13:08.000Z</time>
      </trkpt>
      <trkpt lat="49.76313" lon="4.80878">
        <ele>272</ele>
        <time>2021-03-30T10:13:09.000Z</time>
      </trkpt>
      <trkpt lat="49.76313" lon="4.80872">
        <ele>272</ele>
        <time>2021-03-30T10:13:10.000Z</time>
      </trkpt>
      <trkpt lat="49.76313" lon="4.80866">
        <ele>273</ele>
        <time>2021-03-30T10:13:11.000Z</time>
      </trkpt>
      <trkpt lat="49.76314" lon="4.80859">
        <ele>273</ele>
        <time>2021-03-30T10:13:12.000Z</time>
      </trkpt>
      <trkpt lat="49.76314" lon="4.80853">
        <ele>273</ele>
        <time>2021-03-30T10:13:13.000Z</time>
      </trkpt>
      <trkpt lat="49.76314" lon="4.80846">
        <ele>273</ele>
        <time>2021-03-30T10:13:14.000Z</time>
      </trkpt>
      <trkpt lat="49.76314" lon="4.8084">
        <ele>273</ele>
        <time>2021-03-30T10:13:15.000Z</time>
      </trkpt>
      <trkpt lat="49.76314" lon="4.80833">
        <ele>273</ele>
        <time>2021-03-30T10:13:16.000Z</time>
      </trkpt>
      <trkpt lat="49.76314" lon="4.80826">
        <ele>273</ele>
        <time>2021-03-30T10:13:17.000Z</time>
      </trkpt>
      <trkpt lat="49.76314" lon="4.80819">
        <ele>273</ele>
        <time>2021-03-30T10:13:18.000Z</time>
      </trkpt>
      <trkpt lat="49.76313" lon="4.80812">
        <ele>273</ele>
        <time>2021-03-30T10:13:19.000Z</time>
      </trkpt>
      <trkpt lat="49.76314" lon="4.80804">
        <ele>273</ele>
        <time>2021-03-30T10:13:20.000Z</time>
      </trkpt>
      <trkpt lat="49.76316" lon="4.80797">
        <ele>273</ele>
        <time>2021-03-30T10:13:21.000Z</time>
      </trkpt>
      <trkpt lat="49.76317" lon="4.80791">
        <ele>273</ele>
        <time>2021-03-30T10:13:22.000Z</time>
      </trkpt>
      <trkpt lat="49.76319" lon="4.80783">
        <ele>273</ele>
        <time>2021-03-30T10:13:23.000Z</time>
      </trkpt>
      <trkpt lat="49.76319" lon="4.80776">
        <ele>273</ele>
        <time>2021-03-30T10:13:24.000Z</time>
      </trkpt>
      <trkpt lat="49.76319" lon="4.80768">
        <ele>273</ele>
        <time>2021-03-30T10:13:25.000Z</time>
      </trkpt>
      <trkpt lat="49.76318" lon="4.80761">
        <ele>273</ele>
        <time>2021-03-30T10:13:26.000Z</time>
      </trkpt>
      <trkpt lat="49.76318" lon="4.80753">
        <ele>273</ele>
        <time>2021-03-30T10:13:27.000Z</time>
      </trkpt>
      <trkpt lat="49.76319" lon="4.80745">
        <ele>273</ele>
        <time>2021-03-30T10:13:28.000Z</time>
      </trkpt>
      <trkpt lat="49.7632" lon="4.80738">
        <ele>273</ele>
        <time>2021-03-30T10:13:29.000Z</time>
      </trkpt>
      <trkpt lat="49.76322" lon="4.80731">
        <ele>273</ele>
        <time>2021-03-30T10:13:30.000Z</time>
      </trkpt>
      <trkpt lat="49.76324" lon="4.80725">
        <ele>273</ele>
        <time>2021-03-30T10:13:31.000Z</time>
      </trkpt>
      <trkpt lat="49.76327" lon="4.80718">
        <ele>273</ele>
        <time>2021-03-30T10:13:32.000Z</time>
      </trkpt>
      <trkpt lat="49.7633" lon="4.80713">
        <ele>273</ele>
        <time>2021-03-30T10:13:33.000Z</time>
      </trkpt>
      <trkpt lat="49.76334" lon="4.80707">
        <ele>273</ele>
        <time>2021-03-30T10:13:34.000Z</time>
      </trkpt>
      <trkpt lat="49.76337" lon="4.80701">
        <ele>273</ele>
        <time>2021-03-30T10:13:35.000Z</time>
      </trkpt>
      <trkpt lat="49.76341" lon="4.80695">
        <ele>272</ele>
        <time>2021-03-30T10:13:36.000Z</time>
      </trkpt>
      <trkpt lat="49.76344" lon="4.80689">
        <ele>272</ele>
        <time>2021-03-30T10:13:37.000Z</time>
      </trkpt>
      <trkpt lat="49.76348" lon="4.80684">
        <ele>272</ele>
        <time>2021-03-30T10:13:38.000Z</time>
      </trkpt>
      <trkpt lat="49.76351" lon="4.80677">
        <ele>272</ele>
        <time>2021-03-30T10:13:39.000Z</time>
      </trkpt>
      <trkpt lat="49.76355" lon="4.80671">
        <ele>272</ele>
        <time>2021-03-30T10:13:40.000Z</time>
      </trkpt>
      <trkpt lat="49.76359" lon="4.80664">
        <ele>272</ele>
        <time>2021-03-30T10:13:41.000Z</time>
      </trkpt>
      <trkpt lat="49.76364" lon="4.80657">
        <ele>272</ele>
        <time>2021-03-30T10:13:42.000Z</time>
      </trkpt>
      <trkpt lat="49.7637" lon="4.80651">
        <ele>272</ele>
        <time>2021-03-30T10:13:43.000Z</time>
      </trkpt>
      <trkpt lat="49.76375" lon="4.80646">
        <ele>272</ele>
        <time>2021-03-30T10:13:44.000Z</time>
      </trkpt>
      <trkpt lat="49.76381" lon="4.80641">
        <ele>272</ele>
        <time>2021-03-30T10:13:45.000Z</time>
      </trkpt>
      <trkpt lat="49.76387" lon="4.80637">
        <ele>272</ele>
        <time>2021-03-30T10:13:46.000Z</time>
      </trkpt>
      <trkpt lat="49.76392" lon="4.80633">
        <ele>272</ele>
        <time>2021-03-30T10:13:47.000Z</time>
      </trkpt>
      <trkpt lat="49.76398" lon="4.80629">
        <ele>272</ele>
        <time>2021-03-30T10:13:48.000Z</time>
      </trkpt>
      <trkpt lat="49.76403" lon="4.80625">
        <ele>271</ele>
        <time>2021-03-30T10:13:49.000Z</time>
      </trkpt>
      <trkpt lat="49.76409" lon="4.8062">
        <ele>271</ele>
        <time>2021-03-30T10:13:50.000Z</time>
      </trkpt>
      <trkpt lat="49.76415" lon="4.80616">
        <ele>271</ele>
        <time>2021-03-30T10:13:51.000Z</time>
      </trkpt>
      <trkpt lat="49.76421" lon="4.80612">
        <ele>271</ele>
        <time>2021-03-30T10:13:52.000Z</time>
      </trkpt>
      <trkpt lat="49.76427" lon="4.80608">
        <ele>271</ele>
        <time>2021-03-30T10:13:53.000Z</time>
      </trkpt>
      <trkpt lat="49.76433" lon="4.80603">
        <ele>271</ele>
        <time>2021-03-30T10:13:54.000Z</time>
      </trkpt>
      <trkpt lat="49.76439" lon="4.80598">
        <ele>270</ele>
        <time>2021-03-30T10:13:55.000Z</time>
      </trkpt>
      <trkpt lat="49.76446" lon="4.80593">
        <ele>270</ele>
        <time>2021-03-30T10:13:56.000Z</time>
      </trkpt>
      <trkpt lat="49.76452" lon="4.80588">
        <ele>270</ele>
        <time>2021-03-30T10:13:57.000Z</time>
      </trkpt>
      <trkpt lat="49.76458" lon="4.80583">
        <ele>270</ele>
        <time>2021-03-30T10:13:58.000Z</time>
      </trkpt>
      <trkpt lat="49.76465" lon="4.80577">
        <ele>269</ele>
        <time>2021-03-30T10:13:59.000Z</time>
      </trkpt>
      <trkpt lat="49.76471" lon="4.80571">
        <ele>269</ele>
        <time>2021-03-30T10:14:00.000Z</time>
      </trkpt>
      <trkpt lat="49.76478" lon="4.80566">
        <ele>269</ele>
        <time>2021-03-30T10:14:01.000Z</time>
      </trkpt>
      <trkpt lat="49.76484" lon="4.8056">
        <ele>269</ele>
        <time>2021-03-30T10:14:02.000Z</time>
      </trkpt>
      <trkpt lat="49.7649" lon="4.80555">
        <ele>269</ele>
        <time>2021-03-30T10:14:03.000Z</time>
      </trkpt>
      <trkpt lat="49.76496" lon="4.8055">
        <ele>269</ele>
        <time>2021-03-30T10:14:04.000Z</time>
      </trkpt>
      <trkpt lat="49.76501" lon="4.80545">
        <ele>269</ele>
        <time>2021-03-30T10:14:05.000Z</time>
      </trkpt>
      <trkpt lat="49.76506" lon="4.80539">
        <ele>269</ele>
        <time>2021-03-30T10:14:06.000Z</time>
      </trkpt>
      <trkpt lat="49.76511" lon="4.80535">
        <ele>269</ele>
        <time>2021-03-30T10:14:07.000Z</time>
      </trkpt>
      <trkpt lat="49.76516" lon="4.80529">
        <ele>269</ele>
        <time>2021-03-30T10:14:08.000Z</time>
      </trkpt>
      <trkpt lat="49.76521" lon="4.80524">
        <ele>269</ele>
        <time>2021-03-30T10:14:09.000Z</time>
      </trkpt>
      <trkpt lat="49.76526" lon="4.8052">
        <ele>269</ele>
        <time>2021-03-30T10:14:10.000Z</time>
      </trkpt>
      <trkpt lat="49.76532" lon="4.80518">
        <ele>269</ele>
        <time>2021-03-30T10:14:11.000Z</time>
      </trkpt>
      <trkpt lat="49.76538" lon="4.80518">
        <ele>269</ele>
        <time>2021-03-30T10:14:12.000Z</time>
      </trkpt>
      <trkpt lat="49.76543" lon="4.80517">
        <ele>269</ele>
        <time>2021-03-30T10:14:13.000Z</time>
      </trkpt>
      <trkpt lat="49.76547" lon="4.80515">
        <ele>269</ele>
        <time>2021-03-30T10:14:14.000Z</time>
      </trkpt>
      <trkpt lat="49.76551" lon="4.80513">
        <ele>269</ele>
        <time>2021-03-30T10:14:15.000Z</time>
      </trkpt>
      <trkpt lat="49.76554" lon="4.80511">
        <ele>270</ele>
        <time>2021-03-30T10:14:16.000Z</time>
      </trkpt>
      <trkpt lat="49.76558" lon="4.8051">
        <ele>270</ele>
        <time>2021-03-30T10:14:17.000Z</time>
      </trkpt>
      <trkpt lat="49.76562" lon="4.80509">
        <ele>270</ele>
        <time>2021-03-30T10:14:18.000Z</time>
      </trkpt>
      <trkpt lat="49.76566" lon="4.80508">
        <ele>270</ele>
        <time>2021-03-30T10:14:19.000Z</time>
      </trkpt>
      <trkpt lat="49.7657" lon="4.80507">
        <ele>270</ele>
        <time>2021-03-30T10:14:20.000Z</time>
      </trkpt>
      <trkpt lat="49.76573" lon="4.80506">
        <ele>270</ele>
        <time>2021-03-30T10:14:21.000Z</time>
      </trkpt>
      <trkpt lat="49.76577" lon="4.80504">
        <ele>270</ele>
        <time>2021-03-30T10:14:22.000Z</time>
      </trkpt>
      <trkpt lat="49.76581" lon="4.80503">
        <ele>270</ele>
        <time>2021-03-30T10:14:23.000Z</time>
      </trkpt>
      <trkpt lat="49.76585" lon="4.80502">
        <ele>271</ele>
        <time>2021-03-30T10:14:24.000Z</time>
      </trkpt>
      <trkpt lat="49.76588" lon="4.80501">
        <ele>271</ele>
        <time>2021-03-30T10:14:25.000Z</time>
      </trkpt>
      <trkpt lat="49.76592" lon="4.805">
        <ele>271</ele>
        <time>2021-03-30T10:14:26.000Z</time>
      </trkpt>
      <trkpt lat="49.76595" lon="4.80498">
        <ele>271</ele>
        <time>2021-03-30T10:14:27.000Z</time>
      </trkpt>
      <trkpt lat="49.76599" lon="4.80496">
        <ele>271</ele>
        <time>2021-03-30T10:14:28.000Z</time>
      </trkpt>
      <trkpt lat="49.76602" lon="4.80495">
        <ele>271</ele>
        <time>2021-03-30T10:14:29.000Z</time>
      </trkpt>
      <trkpt lat="49.76605" lon="4.80495">
        <ele>272</ele>
        <time>2021-03-30T10:14:30.000Z</time>
      </trkpt>
      <trkpt lat="49.76607" lon="4.80494">
        <ele>272</ele>
        <time>2021-03-30T10:14:31.000Z</time>
      </trkpt>
      <trkpt lat="49.76611" lon="4.80492">
        <ele>272</ele>
        <time>2021-03-30T10:14:32.000Z</time>
      </trkpt>
      <trkpt lat="49.76615" lon="4.80491">
        <ele>272</ele>
        <time>2021-03-30T10:14:33.000Z</time>
      </trkpt>
      <trkpt lat="49.76618" lon="4.80489">
        <ele>272</ele>
        <time>2021-03-30T10:14:34.000Z</time>
      </trkpt>
      <trkpt lat="49.76622" lon="4.80488">
        <ele>272</ele>
        <time>2021-03-30T10:14:35.000Z</time>
      </trkpt>
      <trkpt lat="49.76625" lon="4.80487">
        <ele>272</ele>
        <time>2021-03-30T10:14:36.000Z</time>
      </trkpt>
      <trkpt lat="49.76629" lon="4.80487">
        <ele>272</ele>
        <time>2021-03-30T10:14:37.000Z</time>
      </trkpt>
      <trkpt lat="49.76632" lon="4.80486">
        <ele>273</ele>
        <time>2021-03-30T10:14:38.000Z</time>
      </trkpt>
      <trkpt lat="49.76635" lon="4.80485">
        <ele>273</ele>
        <time>2021-03-30T10:14:39.000Z</time>
      </trkpt>
      <trkpt lat="49.76639" lon="4.80484">
        <ele>273</ele>
        <time>2021-03-30T10:14:40.000Z</time>
      </trkpt>
      <trkpt lat="49.76643" lon="4.80483">
        <ele>273</ele>
        <time>2021-03-30T10:14:41.000Z</time>
      </trkpt>
      <trkpt lat="49.76647" lon="4.80483">
        <ele>274</ele>
        <time>2021-03-30T10:14:42.000Z</time>
      </trkpt>
      <trkpt lat="49.76652" lon="4.80483">
        <ele>274</ele>
        <time>2021-03-30T10:14:43.000Z</time>
      </trkpt>
      <trkpt lat="49.76656" lon="4.80483">
        <ele>274</ele>
        <time>2021-03-30T10:14:44.000Z</time>
      </trkpt>
      <trkpt lat="49.76661" lon="4.80484">
        <ele>274</ele>
        <time>2021-03-30T10:14:45.000Z</time>
      </trkpt>
      <trkpt lat="49.76666" lon="4.80485">
        <ele>275</ele>
        <time>2021-03-30T10:14:46.000Z</time>
      </trkpt>
      <trkpt lat="49.7667" lon="4.80485">
        <ele>275</ele>
        <time>2021-03-30T10:14:47.000Z</time>
      </trkpt>
      <trkpt lat="49.76674" lon="4.80486">
        <ele>275</ele>
        <time>2021-03-30T10:14:48.000Z</time>
      </trkpt>
      <trkpt lat="49.76677" lon="4.80486">
        <ele>275</ele>
        <time>2021-03-30T10:14:49.000Z</time>
      </trkpt>
      <trkpt lat="49.76681" lon="4.80486">
        <ele>275</ele>
        <time>2021-03-30T10:14:50.000Z</time>
      </trkpt>
      <trkpt lat="49.76685" lon="4.80486">
        <ele>276</ele>
        <time>2021-03-30T10:14:51.000Z</time>
      </trkpt>
      <trkpt lat="49.76689" lon="4.80485">
        <ele>276</ele>
        <time>2021-03-30T10:14:52.000Z</time>
      </trkpt>
      <trkpt lat="49.76694" lon="4.80484">
        <ele>276</ele>
        <time>2021-03-30T10:14:53.000Z</time>
      </trkpt>
      <trkpt lat="49.76698" lon="4.80483">
        <ele>276</ele>
        <time>2021-03-30T10:14:54.000Z</time>
      </trkpt>
      <trkpt lat="49.76702" lon="4.80481">
        <ele>276</ele>
        <time>2021-03-30T10:14:55.000Z</time>
      </trkpt>
      <trkpt lat="49.76707" lon="4.80478">
        <ele>276</ele>
        <time>2021-03-30T10:14:56.000Z</time>
      </trkpt>
      <trkpt lat="49.76711" lon="4.80477">
        <ele>276</ele>
        <time>2021-03-30T10:14:57.000Z</time>
      </trkpt>
      <trkpt lat="49.76716" lon="4.80476">
        <ele>276</ele>
        <time>2021-03-30T10:14:58.000Z</time>
      </trkpt>
      <trkpt lat="49.76721" lon="4.80474">
        <ele>277</ele>
        <time>2021-03-30T10:14:59.000Z</time>
      </trkpt>
      <trkpt lat="49.76726" lon="4.80473">
        <ele>277</ele>
        <time>2021-03-30T10:15:00.000Z</time>
      </trkpt>
      <trkpt lat="49.7673" lon="4.80472">
        <ele>277</ele>
        <time>2021-03-30T10:15:01.000Z</time>
      </trkpt>
      <trkpt lat="49.76735" lon="4.8047">
        <ele>277</ele>
        <time>2021-03-30T10:15:02.000Z</time>
      </trkpt>
      <trkpt lat="49.7674" lon="4.80468">
        <ele>277</ele>
        <time>2021-03-30T10:15:03.000Z</time>
      </trkpt>
      <trkpt lat="49.76745" lon="4.80467">
        <ele>277</ele>
        <time>2021-03-30T10:15:04.000Z</time>
      </trkpt>
      <trkpt lat="49.7675" lon="4.80465">
        <ele>277</ele>
        <time>2021-03-30T10:15:05.000Z</time>
      </trkpt>
      <trkpt lat="49.76755" lon="4.80463">
        <ele>277</ele>
        <time>2021-03-30T10:15:06.000Z</time>
      </trkpt>
      <trkpt lat="49.7676" lon="4.80462">
        <ele>277</ele>
        <time>2021-03-30T10:15:07.000Z</time>
      </trkpt>
      <trkpt lat="49.76765" lon="4.80461">
        <ele>277</ele>
        <time>2021-03-30T10:15:08.000Z</time>
      </trkpt>
      <trkpt lat="49.7677" lon="4.8046">
        <ele>277</ele>
        <time>2021-03-30T10:15:09.000Z</time>
      </trkpt>
      <trkpt lat="49.76775" lon="4.80459">
        <ele>277</ele>
        <time>2021-03-30T10:15:10.000Z</time>
      </trkpt>
      <trkpt lat="49.7678" lon="4.80457">
        <ele>277</ele>
        <time>2021-03-30T10:15:11.000Z</time>
      </trkpt>
      <trkpt lat="49.76785" lon="4.80455">
        <ele>277</ele>
        <time>2021-03-30T10:15:12.000Z</time>
      </trkpt>
      <trkpt lat="49.7679" lon="4.80453">
        <ele>278</ele>
        <time>2021-03-30T10:15:13.000Z</time>
      </trkpt>
      <trkpt lat="49.76795" lon="4.80451">
        <ele>278</ele>
        <time>2021-03-30T10:15:14.000Z</time>
      </trkpt>
      <trkpt lat="49.768" lon="4.80449">
        <ele>278</ele>
        <time>2021-03-30T10:15:15.000Z</time>
      </trkpt>
      <trkpt lat="49.76805" lon="4.80446">
        <ele>278</ele>
        <time>2021-03-30T10:15:16.000Z</time>
      </trkpt>
      <trkpt lat="49.7681" lon="4.80443">
        <ele>278</ele>
        <time>2021-03-30T10:15:17.000Z</time>
      </trkpt>
      <trkpt lat="49.76814" lon="4.8044">
        <ele>278</ele>
        <time>2021-03-30T10:15:18.000Z</time>
      </trkpt>
      <trkpt lat="49.76819" lon="4.80439">
        <ele>278</ele>
        <time>2021-03-30T10:15:19.000Z</time>
      </trkpt>
      <trkpt lat="49.76823" lon="4.80437">
        <ele>279</ele>
        <time>2021-03-30T10:15:20.000Z</time>
      </trkpt>
      <trkpt lat="49.76826" lon="4.80434">
        <ele>279</ele>
        <time>2021-03-30T10:15:21.000Z</time>
      </trkpt>
      <trkpt lat="49.7683" lon="4.8043">
        <ele>279</ele>
        <time>2021-03-30T10:15:22.000Z</time>
      </trkpt>
      <trkpt lat="49.76834" lon="4.80427">
        <ele>279</ele>
        <time>2021-03-30T10:15:23.000Z</time>
      </trkpt>
      <trkpt lat="49.76838" lon="4.80424">
        <ele>279</ele>
        <time>2021-03-30T10:15:24.000Z</time>
      </trkpt>
      <trkpt lat="49.76842" lon="4.80419">
        <ele>279</ele>
        <time>2021-03-30T10:15:25.000Z</time>
      </trkpt>
      <trkpt lat="49.76846" lon="4.80415">
        <ele>279</ele>
        <time>2021-03-30T10:15:26.000Z</time>
      </trkpt>
      <trkpt lat="49.7685" lon="4.8041">
        <ele>280</ele>
        <time>2021-03-30T10:15:27.000Z</time>
      </trkpt>
      <trkpt lat="49.76854" lon="4.80407">
        <ele>280</ele>
        <time>2021-03-30T10:15:28.000Z</time>
      </trkpt>
      <trkpt lat="49.76859" lon="4.80404">
        <ele>280</ele>
        <time>2021-03-30T10:15:29.000Z</time>
      </trkpt>
      <trkpt lat="49.76864" lon="4.80401">
        <ele>280</ele>
        <time>2021-03-30T10:15:30.000Z</time>
      </trkpt>
      <trkpt lat="49.76868" lon="4.80398">
        <ele>281</ele>
        <time>2021-03-30T10:15:31.000Z</time>
      </trkpt>
      <trkpt lat="49.76873" lon="4.80396">
        <ele>281</ele>
        <time>2021-03-30T10:15:32.000Z</time>
      </trkpt>
      <trkpt lat="49.76878" lon="4.80393">
        <ele>281</ele>
        <time>2021-03-30T10:15:33.000Z</time>
      </trkpt>
      <trkpt lat="49.76883" lon="4.80391">
        <ele>282</ele>
        <time>2021-03-30T10:15:34.000Z</time>
      </trkpt>
      <trkpt lat="49.76888" lon="4.80388">
        <ele>282</ele>
        <time>2021-03-30T10:15:35.000Z</time>
      </trkpt>
      <trkpt lat="49.76892" lon="4.80385">
        <ele>282</ele>
        <time>2021-03-30T10:15:36.000Z</time>
      </trkpt>
      <trkpt lat="49.76897" lon="4.80381">
        <ele>282</ele>
        <time>2021-03-30T10:15:37.000Z</time>
      </trkpt>
      <trkpt lat="49.76901" lon="4.80376">
        <ele>282</ele>
        <time>2021-03-30T10:15:38.000Z</time>
      </trkpt>
      <trkpt lat="49.76906" lon="4.80371">
        <ele>282</ele>
        <time>2021-03-30T10:15:39.000Z</time>
      </trkpt>
      <trkpt lat="49.7691" lon="4.80366">
        <ele>282</ele>
        <time>2021-03-30T10:15:40.000Z</time>
      </trkpt>
      <trkpt lat="49.76914" lon="4.8036">
        <ele>282</ele>
        <time>2021-03-30T10:15:41.000Z</time>
      </trkpt>
      <trkpt lat="49.76918" lon="4.80354">
        <ele>282</ele>
        <time>2021-03-30T10:15:42.000Z</time>
      </trkpt>
      <trkpt lat="49.76923" lon="4.80348">
        <ele>282</ele>
        <time>2021-03-30T10:15:43.000Z</time>
      </trkpt>
      <trkpt lat="49.76927" lon="4.80343">
        <ele>283</ele>
        <time>2021-03-30T10:15:44.000Z</time>
      </trkpt>
      <trkpt lat="49.76932" lon="4.80338">
        <ele>283</ele>
        <time>2021-03-30T10:15:45.000Z</time>
      </trkpt>
      <trkpt lat="49.76936" lon="4.80334">
        <ele>283</ele>
        <time>2021-03-30T10:15:46.000Z</time>
      </trkpt>
      <trkpt lat="49.7694" lon="4.8033">
        <ele>283</ele>
        <time>2021-03-30T10:15:47.000Z</time>
      </trkpt>
      <trkpt lat="49.76943" lon="4.80325">
        <ele>283</ele>
        <time>2021-03-30T10:15:48.000Z</time>
      </trkpt>
      <trkpt lat="49.76946" lon="4.80322">
        <ele>283</ele>
        <time>2021-03-30T10:15:49.000Z</time>
      </trkpt>
      <trkpt lat="49.76948" lon="4.80318">
        <ele>284</ele>
        <time>2021-03-30T10:15:50.000Z</time>
      </trkpt>
      <trkpt lat="49.7695" lon="4.80316">
        <ele>284</ele>
        <time>2021-03-30T10:15:51.000Z</time>
      </trkpt>
      <trkpt lat="49.76952" lon="4.80313">
        <ele>284</ele>
        <time>2021-03-30T10:15:52.000Z</time>
      </trkpt>
      <trkpt lat="49.76953" lon="4.8031">
        <ele>284</ele>
        <time>2021-03-30T10:15:53.000Z</time>
      </trkpt>
      <trkpt lat="49.76956" lon="4.80307">
        <ele>285</ele>
        <time>2021-03-30T10:15:54.000Z</time>
      </trkpt>
      <trkpt lat="49.76958" lon="4.80304">
        <ele>285</ele>
        <time>2021-03-30T10:15:55.000Z</time>
      </trkpt>
      <trkpt lat="49.7696" lon="4.80301">
        <ele>285</ele>
        <time>2021-03-30T10:15:56.000Z</time>
      </trkpt>
      <trkpt lat="49.76963" lon="4.80297">
        <ele>285</ele>
        <time>2021-03-30T10:15:57.000Z</time>
      </trkpt>
      <trkpt lat="49.76965" lon="4.80294">
        <ele>286</ele>
        <time>2021-03-30T10:15:58.000Z</time>
      </trkpt>
      <trkpt lat="49.76967" lon="4.80289">
        <ele>286</ele>
        <time>2021-03-30T10:15:59.000Z</time>
      </trkpt>
      <trkpt lat="49.76969" lon="4.80286">
        <ele>286</ele>
        <time>2021-03-30T10:16:00.000Z</time>
      </trkpt>
      <trkpt lat="49.76971" lon="4.80283">
        <ele>286</ele>
        <time>2021-03-30T10:16:01.000Z</time>
      </trkpt>
      <trkpt lat="49.76974" lon="4.8028">
        <ele>286</ele>
        <time>2021-03-30T10:16:02.000Z</time>
      </trkpt>
      <trkpt lat="49.76976" lon="4.80276">
        <ele>286</ele>
        <time>2021-03-30T10:16:03.000Z</time>
      </trkpt>
      <trkpt lat="49.76979" lon="4.80273">
        <ele>286</ele>
        <time>2021-03-30T10:16:04.000Z</time>
      </trkpt>
      <trkpt lat="49.76981" lon="4.8027">
        <ele>287</ele>
        <time>2021-03-30T10:16:05.000Z</time>
      </trkpt>
      <trkpt lat="49.76984" lon="4.80267">
        <ele>287</ele>
        <time>2021-03-30T10:16:06.000Z</time>
      </trkpt>
      <trkpt lat="49.76987" lon="4.80264">
        <ele>287</ele>
        <time>2021-03-30T10:16:07.000Z</time>
      </trkpt>
      <trkpt lat="49.76989" lon="4.80261">
        <ele>287</ele>
        <time>2021-03-30T10:16:08.000Z</time>
      </trkpt>
      <trkpt lat="49.76991" lon="4.80258">
        <ele>287</ele>
        <time>2021-03-30T10:16:09.000Z</time>
      </trkpt>
      <trkpt lat="49.76993" lon="4.80255">
        <ele>288</ele>
        <time>2021-03-30T10:16:10.000Z</time>
      </trkpt>
      <trkpt lat="49.76995" lon="4.80252">
        <ele>288</ele>
        <time>2021-03-30T10:16:11.000Z</time>
      </trkpt>
      <trkpt lat="49.76997" lon="4.8025">
        <ele>288</ele>
        <time>2021-03-30T10:16:12.000Z</time>
      </trkpt>
      <trkpt lat="49.76999" lon="4.80247">
        <ele>289</ele>
        <time>2021-03-30T10:16:13.000Z</time>
      </trkpt>
      <trkpt lat="49.77002" lon="4.80244">
        <ele>289</ele>
        <time>2021-03-30T10:16:14.000Z</time>
      </trkpt>
      <trkpt lat="49.77004" lon="4.80241">
        <ele>289</ele>
        <time>2021-03-30T10:16:15.000Z</time>
      </trkpt>
      <trkpt lat="49.77007" lon="4.80238">
        <ele>290</ele>
        <time>2021-03-30T10:16:16.000Z</time>
      </trkpt>
      <trkpt lat="49.77009" lon="4.80236">
        <ele>290</ele>
        <time>2021-03-30T10:16:17.000Z</time>
      </trkpt>
      <trkpt lat="49.77011" lon="4.80233">
        <ele>290</ele>
        <time>2021-03-30T10:16:18.000Z</time>
      </trkpt>
      <trkpt lat="49.77013" lon="4.8023">
        <ele>291</ele>
        <time>2021-03-30T10:16:19.000Z</time>
      </trkpt>
      <trkpt lat="49.77015" lon="4.80228">
        <ele>291</ele>
        <time>2021-03-30T10:16:20.000Z</time>
      </trkpt>
      <trkpt lat="49.77017" lon="4.80225">
        <ele>291</ele>
        <time>2021-03-30T10:16:21.000Z</time>
      </trkpt>
      <trkpt lat="49.77019" lon="4.80223">
        <ele>292</ele>
        <time>2021-03-30T10:16:22.000Z</time>
      </trkpt>
      <trkpt lat="49.77022" lon="4.80221">
        <ele>292</ele>
        <time>2021-03-30T10:16:23.000Z</time>
      </trkpt>
      <trkpt lat="49.77025" lon="4.80217">
        <ele>292</ele>
        <time>2021-03-30T10:16:24.000Z</time>
      </trkpt>
      <trkpt lat="49.77029" lon="4.80214">
        <ele>293</ele>
        <time>2021-03-30T10:16:25.000Z</time>
      </trkpt>
      <trkpt lat="49.77032" lon="4.80211">
        <ele>293</ele>
        <time>2021-03-30T10:16:26.000Z</time>
      </trkpt>
      <trkpt lat="49.77036" lon="4.80208">
        <ele>294</ele>
        <time>2021-03-30T10:16:27.000Z</time>
      </trkpt>
      <trkpt lat="49.77039" lon="4.80205">
        <ele>294</ele>
        <time>2021-03-30T10:16:28.000Z</time>
      </trkpt>
      <trkpt lat="49.77042" lon="4.80202">
        <ele>295</ele>
        <time>2021-03-30T10:16:29.000Z</time>
      </trkpt>
      <trkpt lat="49.77045" lon="4.80199">
        <ele>295</ele>
        <time>2021-03-30T10:16:30.000Z</time>
      </trkpt>
      <trkpt lat="49.77047" lon="4.80196">
        <ele>295</ele>
        <time>2021-03-30T10:16:31.000Z</time>
      </trkpt>
      <trkpt lat="49.7705" lon="4.80192">
        <ele>296</ele>
        <time>2021-03-30T10:16:32.000Z</time>
      </trkpt>
      <trkpt lat="49.77052" lon="4.80188">
        <ele>296</ele>
        <time>2021-03-30T10:16:33.000Z</time>
      </trkpt>
      <trkpt lat="49.77054" lon="4.80183">
        <ele>296</ele>
        <time>2021-03-30T10:16:34.000Z</time>
      </trkpt>
      <trkpt lat="49.77056" lon="4.8018">
        <ele>297</ele>
        <time>2021-03-30T10:16:35.000Z</time>
      </trkpt>
      <trkpt lat="49.77059" lon="4.80176">
        <ele>297</ele>
        <time>2021-03-30T10:16:36.000Z</time>
      </trkpt>
      <trkpt lat="49.77061" lon="4.80172">
        <ele>297</ele>
        <time>2021-03-30T10:16:37.000Z</time>
      </trkpt>
      <trkpt lat="49.77063" lon="4.80168">
        <ele>297</ele>
        <time>2021-03-30T10:16:38.000Z</time>
      </trkpt>
      <trkpt lat="49.77067" lon="4.80164">
        <ele>298</ele>
        <time>2021-03-30T10:16:39.000Z</time>
      </trkpt>
      <trkpt lat="49.7707" lon="4.80162">
        <ele>298</ele>
        <time>2021-03-30T10:16:40.000Z</time>
      </trkpt>
      <trkpt lat="49.77074" lon="4.8016">
        <ele>298</ele>
        <time>2021-03-30T10:16:41.000Z</time>
      </trkpt>
      <trkpt lat="49.77077" lon="4.8016">
        <ele>298</ele>
        <time>2021-03-30T10:16:42.000Z</time>
      </trkpt>
      <trkpt lat="49.77081" lon="4.80162">
        <ele>298</ele>
        <time>2021-03-30T10:16:43.000Z</time>
      </trkpt>
      <trkpt lat="49.77084" lon="4.80163">
        <ele>298</ele>
        <time>2021-03-30T10:16:44.000Z</time>
      </trkpt>
      <trkpt lat="49.77087" lon="4.80166">
        <ele>298</ele>
        <time>2021-03-30T10:16:45.000Z</time>
      </trkpt>
      <trkpt lat="49.77091" lon="4.80169">
        <ele>298</ele>
        <time>2021-03-30T10:16:46.000Z</time>
      </trkpt>
      <trkpt lat="49.77095" lon="4.80172">
        <ele>298</ele>
        <time>2021-03-30T10:16:47.000Z</time>
      </trkpt>
      <trkpt lat="49.77099" lon="4.80175">
        <ele>298</ele>
        <time>2021-03-30T10:16:48.000Z</time>
      </trkpt>
      <trkpt lat="49.77103" lon="4.80178">
        <ele>298</ele>
        <time>2021-03-30T10:16:49.000Z</time>
      </trkpt>
      <trkpt lat="49.77108" lon="4.8018">
        <ele>298</ele>
        <time>2021-03-30T10:16:50.000Z</time>
      </trkpt>
      <trkpt lat="49.77111" lon="4.80182">
        <ele>298</ele>
        <time>2021-03-30T10:16:51.000Z</time>
      </trkpt>
      <trkpt lat="49.77115" lon="4.80182">
        <ele>298</ele>
        <time>2021-03-30T10:16:52.000Z</time>
      </trkpt>
      <trkpt lat="49.77119" lon="4.80181">
        <ele>298</ele>
        <time>2021-03-30T10:16:53.000Z</time>
      </trkpt>
      <trkpt lat="49.77123" lon="4.8018">
        <ele>298</ele>
        <time>2021-03-30T10:16:54.000Z</time>
      </trkpt>
      <trkpt lat="49.77128" lon="4.80178">
        <ele>298</ele>
        <time>2021-03-30T10:16:55.000Z</time>
      </trkpt>
      <trkpt lat="49.77132" lon="4.80176">
        <ele>298</ele>
        <time>2021-03-30T10:16:56.000Z</time>
      </trkpt>
      <trkpt lat="49.77136" lon="4.80174">
        <ele>298</ele>
        <time>2021-03-30T10:16:57.000Z</time>
      </trkpt>
      <trkpt lat="49.77141" lon="4.80173">
        <ele>298</ele>
        <time>2021-03-30T10:16:58.000Z</time>
      </trkpt>
      <trkpt lat="49.77145" lon="4.80173">
        <ele>298</ele>
        <time>2021-03-30T10:16:59.000Z</time>
      </trkpt>
      <trkpt lat="49.77149" lon="4.80172">
        <ele>298</ele>
        <time>2021-03-30T10:17:00.000Z</time>
      </trkpt>
      <trkpt lat="49.77153" lon="4.80172">
        <ele>298</ele>
        <time>2021-03-30T10:17:01.000Z</time>
      </trkpt>
      <trkpt lat="49.77158" lon="4.80172">
        <ele>297</ele>
        <time>2021-03-30T10:17:02.000Z</time>
      </trkpt>
      <trkpt lat="49.77163" lon="4.80172">
        <ele>297</ele>
        <time>2021-03-30T10:17:03.000Z</time>
      </trkpt>
      <trkpt lat="49.77169" lon="4.80172">
        <ele>297</ele>
        <time>2021-03-30T10:17:04.000Z</time>
      </trkpt>
      <trkpt lat="49.77175" lon="4.80171">
        <ele>297</ele>
        <time>2021-03-30T10:17:05.000Z</time>
      </trkpt>
      <trkpt lat="49.77181" lon="4.8017">
        <ele>297</ele>
        <time>2021-03-30T10:17:06.000Z</time>
      </trkpt>
      <trkpt lat="49.77187" lon="4.8017">
        <ele>297</ele>
        <time>2021-03-30T10:17:07.000Z</time>
      </trkpt>
      <trkpt lat="49.77194" lon="4.80169">
        <ele>296</ele>
        <time>2021-03-30T10:17:08.000Z</time>
      </trkpt>
      <trkpt lat="49.772" lon="4.80168">
        <ele>296</ele>
        <time>2021-03-30T10:17:09.000Z</time>
      </trkpt>
      <trkpt lat="49.77207" lon="4.80167">
        <ele>296</ele>
        <time>2021-03-30T10:17:10.000Z</time>
      </trkpt>
      <trkpt lat="49.77214" lon="4.80166">
        <ele>296</ele>
        <time>2021-03-30T10:17:11.000Z</time>
      </trkpt>
      <trkpt lat="49.7722" lon="4.80165">
        <ele>296</ele>
        <time>2021-03-30T10:17:12.000Z</time>
      </trkpt>
      <trkpt lat="49.77227" lon="4.80165">
        <ele>295</ele>
        <time>2021-03-30T10:17:13.000Z</time>
      </trkpt>
      <trkpt lat="49.77233" lon="4.80164">
        <ele>295</ele>
        <time>2021-03-30T10:17:14.000Z</time>
      </trkpt>
      <trkpt lat="49.77239" lon="4.80163">
        <ele>295</ele>
        <time>2021-03-30T10:17:15.000Z</time>
      </trkpt>
      <trkpt lat="49.77246" lon="4.80162">
        <ele>295</ele>
        <time>2021-03-30T10:17:16.000Z</time>
      </trkpt>
      <trkpt lat="49.77252" lon="4.80161">
        <ele>294</ele>
        <time>2021-03-30T10:17:17.000Z</time>
      </trkpt>
      <trkpt lat="49.77258" lon="4.8016">
        <ele>294</ele>
        <time>2021-03-30T10:17:18.000Z</time>
      </trkpt>
      <trkpt lat="49.77265" lon="4.80159">
        <ele>293</ele>
        <time>2021-03-30T10:17:19.000Z</time>
      </trkpt>
      <trkpt lat="49.77271" lon="4.80158">
        <ele>293</ele>
        <time>2021-03-30T10:17:20.000Z</time>
      </trkpt>
      <trkpt lat="49.77277" lon="4.80156">
        <ele>293</ele>
        <time>2021-03-30T10:17:21.000Z</time>
      </trkpt>
      <trkpt lat="49.77283" lon="4.80155">
        <ele>292</ele>
        <time>2021-03-30T10:17:22.000Z</time>
      </trkpt>
      <trkpt lat="49.7729" lon="4.80154">
        <ele>292</ele>
        <time>2021-03-30T10:17:23.000Z</time>
      </trkpt>
      <trkpt lat="49.77297" lon="4.80153">
        <ele>292</ele>
        <time>2021-03-30T10:17:24.000Z</time>
      </trkpt>
      <trkpt lat="49.77304" lon="4.80151">
        <ele>291</ele>
        <time>2021-03-30T10:17:25.000Z</time>
      </trkpt>
      <trkpt lat="49.7731" lon="4.8015">
        <ele>291</ele>
        <time>2021-03-30T10:17:26.000Z</time>
      </trkpt>
      <trkpt lat="49.77317" lon="4.80148">
        <ele>291</ele>
        <time>2021-03-30T10:17:27.000Z</time>
      </trkpt>
      <trkpt lat="49.77323" lon="4.80145">
        <ele>290</ele>
        <time>2021-03-30T10:17:28.000Z</time>
      </trkpt>
      <trkpt lat="49.7733" lon="4.80143">
        <ele>290</ele>
        <time>2021-03-30T10:17:29.000Z</time>
      </trkpt>
      <trkpt lat="49.77336" lon="4.8014">
        <ele>290</ele>
        <time>2021-03-30T10:17:30.000Z</time>
      </trkpt>
      <trkpt lat="49.77342" lon="4.80136">
        <ele>289</ele>
        <time>2021-03-30T10:17:31.000Z</time>
      </trkpt>
      <trkpt lat="49.77348" lon="4.80131">
        <ele>289</ele>
        <time>2021-03-30T10:17:32.000Z</time>
      </trkpt>
      <trkpt lat="49.77353" lon="4.80125">
        <ele>289</ele>
        <time>2021-03-30T10:17:33.000Z</time>
      </trkpt>
      <trkpt lat="49.77359" lon="4.80118">
        <ele>288</ele>
        <time>2021-03-30T10:17:34.000Z</time>
      </trkpt>
      <trkpt lat="49.77364" lon="4.80111">
        <ele>288</ele>
        <time>2021-03-30T10:17:35.000Z</time>
      </trkpt>
      <trkpt lat="49.7737" lon="4.80104">
        <ele>288</ele>
        <time>2021-03-30T10:17:36.000Z</time>
      </trkpt>
      <trkpt lat="49.77376" lon="4.80095">
        <ele>287</ele>
        <time>2021-03-30T10:17:37.000Z</time>
      </trkpt>
      <trkpt lat="49.77381" lon="4.80086">
        <ele>287</ele>
        <time>2021-03-30T10:17:38.000Z</time>
      </trkpt>
      <trkpt lat="49.77386" lon="4.80077">
        <ele>287</ele>
        <time>2021-03-30T10:17:39.000Z</time>
      </trkpt>
      <trkpt lat="49.77391" lon="4.80067">
        <ele>287</ele>
        <time>2021-03-30T10:17:40.000Z</time>
      </trkpt>
      <trkpt lat="49.77397" lon="4.80057">
        <ele>286</ele>
        <time>2021-03-30T10:17:41.000Z</time>
      </trkpt>
      <trkpt lat="49.77402" lon="4.80047">
        <ele>286</ele>
        <time>2021-03-30T10:17:42.000Z</time>
      </trkpt>
      <trkpt lat="49.77409" lon="4.80041">
        <ele>286</ele>
        <time>2021-03-30T10:17:43.000Z</time>
      </trkpt>
      <trkpt lat="49.77416" lon="4.80037">
        <ele>285</ele>
        <time>2021-03-30T10:17:44.000Z</time>
      </trkpt>
      <trkpt lat="49.77424" lon="4.80037">
        <ele>285</ele>
        <time>2021-03-30T10:17:45.000Z</time>
      </trkpt>
      <trkpt lat="49.77434" lon="4.80038">
        <ele>284</ele>
        <time>2021-03-30T10:17:46.000Z</time>
      </trkpt>
      <trkpt lat="49.77444" lon="4.80038">
        <ele>283</ele>
        <time>2021-03-30T10:17:47.000Z</time>
      </trkpt>
      <trkpt lat="49.77453" lon="4.80035">
        <ele>282</ele>
        <time>2021-03-30T10:17:48.000Z</time>
      </trkpt>
      <trkpt lat="49.77463" lon="4.8003">
        <ele>282</ele>
        <time>2021-03-30T10:17:49.000Z</time>
      </trkpt>
      <trkpt lat="49.77472" lon="4.80023">
        <ele>281</ele>
        <time>2021-03-30T10:17:50.000Z</time>
      </trkpt>
      <trkpt lat="49.77481" lon="4.80015">
        <ele>280</ele>
        <time>2021-03-30T10:17:51.000Z</time>
      </trkpt>
      <trkpt lat="49.7749" lon="4.80008">
        <ele>278</ele>
        <time>2021-03-30T10:17:52.000Z</time>
      </trkpt>
      <trkpt lat="49.775" lon="4.80002">
        <ele>277</ele>
        <time>2021-03-30T10:17:53.000Z</time>
      </trkpt>
      <trkpt lat="49.77509" lon="4.79998">
        <ele>276</ele>
        <time>2021-03-30T10:17:54.000Z</time>
      </trkpt>
      <trkpt lat="49.77518" lon="4.79994">
        <ele>275</ele>
        <time>2021-03-30T10:17:55.000Z</time>
      </trkpt>
      <trkpt lat="49.77529" lon="4.79991">
        <ele>273</ele>
        <time>2021-03-30T10:17:56.000Z</time>
      </trkpt>
      <trkpt lat="49.77539" lon="4.7999">
        <ele>272</ele>
        <time>2021-03-30T10:17:57.000Z</time>
      </trkpt>
      <trkpt lat="49.77549" lon="4.79988">
        <ele>271</ele>
        <time>2021-03-30T10:17:58.000Z</time>
      </trkpt>
      <trkpt lat="49.77559" lon="4.79987">
        <ele>269</ele>
        <time>2021-03-30T10:17:59.000Z</time>
      </trkpt>
      <trkpt lat="49.7757" lon="4.79985">
        <ele>268</ele>
        <time>2021-03-30T10:18:00.000Z</time>
      </trkpt>
      <trkpt lat="49.7758" lon="4.79984">
        <ele>267</ele>
        <time>2021-03-30T10:18:01.000Z</time>
      </trkpt>
      <trkpt lat="49.7759" lon="4.79983">
        <ele>266</ele>
        <time>2021-03-30T10:18:02.000Z</time>
      </trkpt>
      <trkpt lat="49.77599" lon="4.79982">
        <ele>265</ele>
        <time>2021-03-30T10:18:03.000Z</time>
      </trkpt>
      <trkpt lat="49.77609" lon="4.7998">
        <ele>264</ele>
        <time>2021-03-30T10:18:04.000Z</time>
      </trkpt>
      <trkpt lat="49.77618" lon="4.79978">
        <ele>264</ele>
        <time>2021-03-30T10:18:05.000Z</time>
      </trkpt>
      <trkpt lat="49.77627" lon="4.79975">
        <ele>263</ele>
        <time>2021-03-30T10:18:06.000Z</time>
      </trkpt>
      <trkpt lat="49.77636" lon="4.79972">
        <ele>262</ele>
        <time>2021-03-30T10:18:07.000Z</time>
      </trkpt>
      <trkpt lat="49.77644" lon="4.79968">
        <ele>262</ele>
        <time>2021-03-30T10:18:08.000Z</time>
      </trkpt>
      <trkpt lat="49.77651" lon="4.79962">
        <ele>261</ele>
        <time>2021-03-30T10:18:09.000Z</time>
      </trkpt>
      <trkpt lat="49.77658" lon="4.79956">
        <ele>261</ele>
        <time>2021-03-30T10:18:10.000Z</time>
      </trkpt>
      <trkpt lat="49.77665" lon="4.7995">
        <ele>261</ele>
        <time>2021-03-30T10:18:11.000Z</time>
      </trkpt>
      <trkpt lat="49.77672" lon="4.79942">
        <ele>260</ele>
        <time>2021-03-30T10:18:12.000Z</time>
      </trkpt>
      <trkpt lat="49.77678" lon="4.79935">
        <ele>260</ele>
        <time>2021-03-30T10:18:13.000Z</time>
      </trkpt>
      <trkpt lat="49.77685" lon="4.79927">
        <ele>259</ele>
        <time>2021-03-30T10:18:14.000Z</time>
      </trkpt>
      <trkpt lat="49.77692" lon="4.79919">
        <ele>259</ele>
        <time>2021-03-30T10:18:15.000Z</time>
      </trkpt>
      <trkpt lat="49.77699" lon="4.79911">
        <ele>258</ele>
        <time>2021-03-30T10:18:16.000Z</time>
      </trkpt>
      <trkpt lat="49.77706" lon="4.79904">
        <ele>258</ele>
        <time>2021-03-30T10:18:17.000Z</time>
      </trkpt>
      <trkpt lat="49.77713" lon="4.79896">
        <ele>257</ele>
        <time>2021-03-30T10:18:18.000Z</time>
      </trkpt>
      <trkpt lat="49.77721" lon="4.79889">
        <ele>257</ele>
        <time>2021-03-30T10:18:19.000Z</time>
      </trkpt>
      <trkpt lat="49.77728" lon="4.79883">
        <ele>257</ele>
        <time>2021-03-30T10:18:20.000Z</time>
      </trkpt>
      <trkpt lat="49.77736" lon="4.79877">
        <ele>257</ele>
        <time>2021-03-30T10:18:21.000Z</time>
      </trkpt>
      <trkpt lat="49.77744" lon="4.79871">
        <ele>257</ele>
        <time>2021-03-30T10:18:22.000Z</time>
      </trkpt>
      <trkpt lat="49.77752" lon="4.79864">
        <ele>256</ele>
        <time>2021-03-30T10:18:23.000Z</time>
      </trkpt>
      <trkpt lat="49.7776" lon="4.79858">
        <ele>256</ele>
        <time>2021-03-30T10:18:24.000Z</time>
      </trkpt>
      <trkpt lat="49.77767" lon="4.79851">
        <ele>256</ele>
        <time>2021-03-30T10:18:25.000Z</time>
      </trkpt>
      <trkpt lat="49.77774" lon="4.79844">
        <ele>256</ele>
        <time>2021-03-30T10:18:26.000Z</time>
      </trkpt>
      <trkpt lat="49.77781" lon="4.79836">
        <ele>256</ele>
        <time>2021-03-30T10:18:27.000Z</time>
      </trkpt>
      <trkpt lat="49.77787" lon="4.79828">
        <ele>256</ele>
        <time>2021-03-30T10:18:28.000Z</time>
      </trkpt>
      <trkpt lat="49.77794" lon="4.79822">
        <ele>256</ele>
        <time>2021-03-30T10:18:29.000Z</time>
      </trkpt>
      <trkpt lat="49.778" lon="4.79817">
        <ele>255</ele>
        <time>2021-03-30T10:18:30.000Z</time>
      </trkpt>
      <trkpt lat="49.77807" lon="4.79812">
        <ele>255</ele>
        <time>2021-03-30T10:18:31.000Z</time>
      </trkpt>
      <trkpt lat="49.77813" lon="4.79808">
        <ele>255</ele>
        <time>2021-03-30T10:18:32.000Z</time>
      </trkpt>
      <trkpt lat="49.77819" lon="4.79805">
        <ele>255</ele>
        <time>2021-03-30T10:18:33.000Z</time>
      </trkpt>
      <trkpt lat="49.77826" lon="4.79803">
        <ele>255</ele>
        <time>2021-03-30T10:18:34.000Z</time>
      </trkpt>
      <trkpt lat="49.77832" lon="4.79799">
        <ele>255</ele>
        <time>2021-03-30T10:18:35.000Z</time>
      </trkpt>
      <trkpt lat="49.77838" lon="4.79795">
        <ele>255</ele>
        <time>2021-03-30T10:18:36.000Z</time>
      </trkpt>
      <trkpt lat="49.77844" lon="4.79791">
        <ele>255</ele>
        <time>2021-03-30T10:18:37.000Z</time>
      </trkpt>
      <trkpt lat="49.7785" lon="4.79786">
        <ele>254</ele>
        <time>2021-03-30T10:18:38.000Z</time>
      </trkpt>
      <trkpt lat="49.77856" lon="4.7978">
        <ele>254</ele>
        <time>2021-03-30T10:18:39.000Z</time>
      </trkpt>
      <trkpt lat="49.77863" lon="4.79774">
        <ele>254</ele>
        <time>2021-03-30T10:18:40.000Z</time>
      </trkpt>
      <trkpt lat="49.7787" lon="4.79768">
        <ele>254</ele>
        <time>2021-03-30T10:18:41.000Z</time>
      </trkpt>
      <trkpt lat="49.77878" lon="4.79763">
        <ele>254</ele>
        <time>2021-03-30T10:18:42.000Z</time>
      </trkpt>
      <trkpt lat="49.77885" lon="4.79756">
        <ele>254</ele>
        <time>2021-03-30T10:18:43.000Z</time>
      </trkpt>
      <trkpt lat="49.77892" lon="4.7975">
        <ele>253</ele>
        <time>2021-03-30T10:18:44.000Z</time>
      </trkpt>
      <trkpt lat="49.779" lon="4.79744">
        <ele>253</ele>
        <time>2021-03-30T10:18:45.000Z</time>
      </trkpt>
      <trkpt lat="49.77908" lon="4.79738">
        <ele>253</ele>
        <time>2021-03-30T10:18:46.000Z</time>
      </trkpt>
      <trkpt lat="49.77917" lon="4.79734">
        <ele>253</ele>
        <time>2021-03-30T10:18:47.000Z</time>
      </trkpt>
      <trkpt lat="49.77926" lon="4.7973">
        <ele>252</ele>
        <time>2021-03-30T10:18:48.000Z</time>
      </trkpt>
      <trkpt lat="49.77936" lon="4.79727">
        <ele>252</ele>
        <time>2021-03-30T10:18:49.000Z</time>
      </trkpt>
      <trkpt lat="49.77945" lon="4.79725">
        <ele>252</ele>
        <time>2021-03-30T10:18:50.000Z</time>
      </trkpt>
      <trkpt lat="49.77954" lon="4.79723">
        <ele>251</ele>
        <time>2021-03-30T10:18:51.000Z</time>
      </trkpt>
      <trkpt lat="49.77962" lon="4.79723">
        <ele>250</ele>
        <time>2021-03-30T10:18:52.000Z</time>
      </trkpt>
      <trkpt lat="49.7797" lon="4.79726">
        <ele>250</ele>
        <time>2021-03-30T10:18:53.000Z</time>
      </trkpt>
      <trkpt lat="49.77976" lon="4.79731">
        <ele>249</ele>
        <time>2021-03-30T10:18:54.000Z</time>
      </trkpt>
      <trkpt lat="49.77979" lon="4.7974">
        <ele>249</ele>
        <time>2021-03-30T10:18:55.000Z</time>
      </trkpt>
      <trkpt lat="49.77982" lon="4.79749">
        <ele>248</ele>
        <time>2021-03-30T10:18:56.000Z</time>
      </trkpt>
      <trkpt lat="49.77984" lon="4.79756">
        <ele>248</ele>
        <time>2021-03-30T10:18:57.000Z</time>
      </trkpt>
      <trkpt lat="49.77988" lon="4.79762">
        <ele>247</ele>
        <time>2021-03-30T10:18:58.000Z</time>
      </trkpt>
      <trkpt lat="49.77991" lon="4.79767">
        <ele>247</ele>
        <time>2021-03-30T10:18:59.000Z</time>
      </trkpt>
      <trkpt lat="49.77996" lon="4.79771">
        <ele>248</ele>
        <time>2021-03-30T10:19:00.000Z</time>
      </trkpt>
      <trkpt lat="49.78" lon="4.79774">
        <ele>248</ele>
        <time>2021-03-30T10:19:01.000Z</time>
      </trkpt>
      <trkpt lat="49.78005" lon="4.79775">
        <ele>248</ele>
        <time>2021-03-30T10:19:02.000Z</time>
      </trkpt>
      <trkpt lat="49.78009" lon="4.79776">
        <ele>248</ele>
        <time>2021-03-30T10:19:03.000Z</time>
      </trkpt>
      <trkpt lat="49.78014" lon="4.79778">
        <ele>249</ele>
        <time>2021-03-30T10:19:04.000Z</time>
      </trkpt>
      <trkpt lat="49.78019" lon="4.79779">
        <ele>249</ele>
        <time>2021-03-30T10:19:05.000Z</time>
      </trkpt>
      <trkpt lat="49.78024" lon="4.79779">
        <ele>249</ele>
        <time>2021-03-30T10:19:06.000Z</time>
      </trkpt>
      <trkpt lat="49.78029" lon="4.79779">
        <ele>249</ele>
        <time>2021-03-30T10:19:07.000Z</time>
      </trkpt>
      <trkpt lat="49.78034" lon="4.79779">
        <ele>249</ele>
        <time>2021-03-30T10:19:08.000Z</time>
      </trkpt>
      <trkpt lat="49.78039" lon="4.79779">
        <ele>249</ele>
        <time>2021-03-30T10:19:09.000Z</time>
      </trkpt>
      <trkpt lat="49.78045" lon="4.79778">
        <ele>250</ele>
        <time>2021-03-30T10:19:10.000Z</time>
      </trkpt>
      <trkpt lat="49.7805" lon="4.79778">
        <ele>250</ele>
        <time>2021-03-30T10:19:11.000Z</time>
      </trkpt>
      <trkpt lat="49.78055" lon="4.79777">
        <ele>250</ele>
        <time>2021-03-30T10:19:12.000Z</time>
      </trkpt>
      <trkpt lat="49.78061" lon="4.79776">
        <ele>250</ele>
        <time>2021-03-30T10:19:13.000Z</time>
      </trkpt>
      <trkpt lat="49.78066" lon="4.79775">
        <ele>250</ele>
        <time>2021-03-30T10:19:14.000Z</time>
      </trkpt>
      <trkpt lat="49.78072" lon="4.79771">
        <ele>250</ele>
        <time>2021-03-30T10:19:15.000Z</time>
      </trkpt>
      <trkpt lat="49.78078" lon="4.79767">
        <ele>250</ele>
        <time>2021-03-30T10:19:16.000Z</time>
      </trkpt>
      <trkpt lat="49.78083" lon="4.79762">
        <ele>249</ele>
        <time>2021-03-30T10:19:17.000Z</time>
      </trkpt>
      <trkpt lat="49.78087" lon="4.79757">
        <ele>249</ele>
        <time>2021-03-30T10:19:18.000Z</time>
      </trkpt>
      <trkpt lat="49.78091" lon="4.79749">
        <ele>249</ele>
        <time>2021-03-30T10:19:19.000Z</time>
      </trkpt>
      <trkpt lat="49.78095" lon="4.7974">
        <ele>249</ele>
        <time>2021-03-30T10:19:20.000Z</time>
      </trkpt>
      <trkpt lat="49.781" lon="4.79732">
        <ele>249</ele>
        <time>2021-03-30T10:19:21.000Z</time>
      </trkpt>
      <trkpt lat="49.78104" lon="4.79725">
        <ele>249</ele>
        <time>2021-03-30T10:19:22.000Z</time>
      </trkpt>
      <trkpt lat="49.78108" lon="4.79717">
        <ele>250</ele>
        <time>2021-03-30T10:19:23.000Z</time>
      </trkpt>
      <trkpt lat="49.78112" lon="4.79709">
        <ele>250</ele>
        <time>2021-03-30T10:19:24.000Z</time>
      </trkpt>
      <trkpt lat="49.78116" lon="4.79703">
        <ele>250</ele>
        <time>2021-03-30T10:19:25.000Z</time>
      </trkpt>
      <trkpt lat="49.78122" lon="4.79699">
        <ele>251</ele>
        <time>2021-03-30T10:19:26.000Z</time>
      </trkpt>
      <trkpt lat="49.78127" lon="4.79696">
        <ele>251</ele>
        <time>2021-03-30T10:19:27.000Z</time>
      </trkpt>
      <trkpt lat="49.78132" lon="4.79693">
        <ele>251</ele>
        <time>2021-03-30T10:19:28.000Z</time>
      </trkpt>
      <trkpt lat="49.78138" lon="4.7969">
        <ele>251</ele>
        <time>2021-03-30T10:19:29.000Z</time>
      </trkpt>
      <trkpt lat="49.78143" lon="4.79686">
        <ele>252</ele>
        <time>2021-03-30T10:19:30.000Z</time>
      </trkpt>
      <trkpt lat="49.78148" lon="4.79682">
        <ele>252</ele>
        <time>2021-03-30T10:19:31.000Z</time>
      </trkpt>
      <trkpt lat="49.78153" lon="4.79679">
        <ele>252</ele>
        <time>2021-03-30T10:19:32.000Z</time>
      </trkpt>
      <trkpt lat="49.78159" lon="4.79675">
        <ele>252</ele>
        <time>2021-03-30T10:19:33.000Z</time>
      </trkpt>
      <trkpt lat="49.78164" lon="4.79671">
        <ele>253</ele>
        <time>2021-03-30T10:19:34.000Z</time>
      </trkpt>
      <trkpt lat="49.7817" lon="4.79667">
        <ele>253</ele>
        <time>2021-03-30T10:19:35.000Z</time>
      </trkpt>
      <trkpt lat="49.78175" lon="4.79662">
        <ele>253</ele>
        <time>2021-03-30T10:19:36.000Z</time>
      </trkpt>
      <trkpt lat="49.78181" lon="4.79657">
        <ele>253</ele>
        <time>2021-03-30T10:19:37.000Z</time>
      </trkpt>
      <trkpt lat="49.78186" lon="4.79652">
        <ele>253</ele>
        <time>2021-03-30T10:19:38.000Z</time>
      </trkpt>
      <trkpt lat="49.78191" lon="4.79647">
        <ele>254</ele>
        <time>2021-03-30T10:19:39.000Z</time>
      </trkpt>
      <trkpt lat="49.78197" lon="4.79643">
        <ele>254</ele>
        <time>2021-03-30T10:19:40.000Z</time>
      </trkpt>
      <trkpt lat="49.78203" lon="4.79638">
        <ele>254</ele>
        <time>2021-03-30T10:19:41.000Z</time>
      </trkpt>
      <trkpt lat="49.78208" lon="4.79634">
        <ele>254</ele>
        <time>2021-03-30T10:19:42.000Z</time>
      </trkpt>
      <trkpt lat="49.78215" lon="4.79629">
        <ele>254</ele>
        <time>2021-03-30T10:19:43.000Z</time>
      </trkpt>
      <trkpt lat="49.78221" lon="4.79624">
        <ele>254</ele>
        <time>2021-03-30T10:19:44.000Z</time>
      </trkpt>
      <trkpt lat="49.78228" lon="4.7962">
        <ele>253</ele>
        <time>2021-03-30T10:19:45.000Z</time>
      </trkpt>
      <trkpt lat="49.78235" lon="4.79616">
        <ele>253</ele>
        <time>2021-03-30T10:19:46.000Z</time>
      </trkpt>
      <trkpt lat="49.78242" lon="4.79612">
        <ele>253</ele>
        <time>2021-03-30T10:19:47.000Z</time>
      </trkpt>
      <trkpt lat="49.7825" lon="4.79608">
        <ele>253</ele>
        <time>2021-03-30T10:19:48.000Z</time>
      </trkpt>
      <trkpt lat="49.78258" lon="4.79605">
        <ele>252</ele>
        <time>2021-03-30T10:19:49.000Z</time>
      </trkpt>
      <trkpt lat="49.78266" lon="4.79602">
        <ele>252</ele>
        <time>2021-03-30T10:19:50.000Z</time>
      </trkpt>
      <trkpt lat="49.78275" lon="4.79599">
        <ele>251</ele>
        <time>2021-03-30T10:19:51.000Z</time>
      </trkpt>
      <trkpt lat="49.78283" lon="4.79597">
        <ele>251</ele>
        <time>2021-03-30T10:19:52.000Z</time>
      </trkpt>
      <trkpt lat="49.78289" lon="4.79596">
        <ele>250</ele>
        <time>2021-03-30T10:19:53.000Z</time>
      </trkpt>
      <trkpt lat="49.78294" lon="4.79595">
        <ele>250</ele>
        <time>2021-03-30T10:19:54.000Z</time>
      </trkpt>
      <trkpt lat="49.78298" lon="4.79594">
        <ele>250</ele>
        <time>2021-03-30T10:19:55.000Z</time>
      </trkpt>
      <trkpt lat="49.78303" lon="4.79595">
        <ele>250</ele>
        <time>2021-03-30T10:19:56.000Z</time>
      </trkpt>
      <trkpt lat="49.78308" lon="4.79598">
        <ele>250</ele>
        <time>2021-03-30T10:19:57.000Z</time>
      </trkpt>
      <trkpt lat="49.78312" lon="4.796">
        <ele>250</ele>
        <time>2021-03-30T10:19:58.000Z</time>
      </trkpt>
      <trkpt lat="49.78317" lon="4.79603">
        <ele>250</ele>
        <time>2021-03-30T10:19:59.000Z</time>
      </trkpt>
      <trkpt lat="49.78322" lon="4.79606">
        <ele>250</ele>
        <time>2021-03-30T10:20:00.000Z</time>
      </trkpt>
      <trkpt lat="49.78327" lon="4.79609">
        <ele>250</ele>
        <time>2021-03-30T10:20:01.000Z</time>
      </trkpt>
      <trkpt lat="49.78332" lon="4.79612">
        <ele>250</ele>
        <time>2021-03-30T10:20:02.000Z</time>
      </trkpt>
      <trkpt lat="49.78337" lon="4.79615">
        <ele>250</ele>
        <time>2021-03-30T10:20:03.000Z</time>
      </trkpt>
      <trkpt lat="49.78342" lon="4.79618">
        <ele>250</ele>
        <time>2021-03-30T10:20:04.000Z</time>
      </trkpt>
      <trkpt lat="49.78347" lon="4.79622">
        <ele>250</ele>
        <time>2021-03-30T10:20:05.000Z</time>
      </trkpt>
      <trkpt lat="49.78352" lon="4.79625">
        <ele>250</ele>
        <time>2021-03-30T10:20:06.000Z</time>
      </trkpt>
      <trkpt lat="49.78358" lon="4.79629">
        <ele>250</ele>
        <time>2021-03-30T10:20:07.000Z</time>
      </trkpt>
      <trkpt lat="49.78363" lon="4.79632">
        <ele>250</ele>
        <time>2021-03-30T10:20:08.000Z</time>
      </trkpt>
      <trkpt lat="49.78368" lon="4.79636">
        <ele>251</ele>
        <time>2021-03-30T10:20:09.000Z</time>
      </trkpt>
      <trkpt lat="49.78373" lon="4.79639">
        <ele>251</ele>
        <time>2021-03-30T10:20:10.000Z</time>
      </trkpt>
      <trkpt lat="49.78378" lon="4.79642">
        <ele>251</ele>
        <time>2021-03-30T10:20:11.000Z</time>
      </trkpt>
      <trkpt lat="49.78383" lon="4.79645">
        <ele>251</ele>
        <time>2021-03-30T10:20:12.000Z</time>
      </trkpt>
      <trkpt lat="49.78388" lon="4.79647">
        <ele>251</ele>
        <time>2021-03-30T10:20:13.000Z</time>
      </trkpt>
      <trkpt lat="49.78394" lon="4.7965">
        <ele>251</ele>
        <time>2021-03-30T10:20:14.000Z</time>
      </trkpt>
      <trkpt lat="49.78399" lon="4.79652">
        <ele>251</ele>
        <time>2021-03-30T10:20:15.000Z</time>
      </trkpt>
      <trkpt lat="49.78404" lon="4.79655">
        <ele>251</ele>
        <time>2021-03-30T10:20:16.000Z</time>
      </trkpt>
      <trkpt lat="49.78409" lon="4.79657">
        <ele>252</ele>
        <time>2021-03-30T10:20:17.000Z</time>
      </trkpt>
      <trkpt lat="49.78414" lon="4.7966">
        <ele>252</ele>
        <time>2021-03-30T10:20:18.000Z</time>
      </trkpt>
      <trkpt lat="49.78419" lon="4.79662">
        <ele>252</ele>
        <time>2021-03-30T10:20:19.000Z</time>
      </trkpt>
      <trkpt lat="49.78424" lon="4.79665">
        <ele>252</ele>
        <time>2021-03-30T10:20:20.000Z</time>
      </trkpt>
      <trkpt lat="49.78429" lon="4.79666">
        <ele>252</ele>
        <time>2021-03-30T10:20:21.000Z</time>
      </trkpt>
      <trkpt lat="49.78434" lon="4.79668">
        <ele>253</ele>
        <time>2021-03-30T10:20:22.000Z</time>
      </trkpt>
      <trkpt lat="49.78439" lon="4.7967">
        <ele>253</ele>
        <time>2021-03-30T10:20:23.000Z</time>
      </trkpt>
      <trkpt lat="49.78444" lon="4.79672">
        <ele>253</ele>
        <time>2021-03-30T10:20:24.000Z</time>
      </trkpt>
      <trkpt lat="49.78449" lon="4.79674">
        <ele>253</ele>
        <time>2021-03-30T10:20:25.000Z</time>
      </trkpt>
      <trkpt lat="49.78455" lon="4.79675">
        <ele>253</ele>
        <time>2021-03-30T10:20:26.000Z</time>
      </trkpt>
      <trkpt lat="49.7846" lon="4.79677">
        <ele>254</ele>
        <time>2021-03-30T10:20:27.000Z</time>
      </trkpt>
      <trkpt lat="49.78464" lon="4.79679">
        <ele>254</ele>
        <time>2021-03-30T10:20:28.000Z</time>
      </trkpt>
      <trkpt lat="49.78469" lon="4.79681">
        <ele>254</ele>
        <time>2021-03-30T10:20:29.000Z</time>
      </trkpt>
      <trkpt lat="49.78474" lon="4.79683">
        <ele>254</ele>
        <time>2021-03-30T10:20:30.000Z</time>
      </trkpt>
      <trkpt lat="49.78479" lon="4.79684">
        <ele>254</ele>
        <time>2021-03-30T10:20:31.000Z</time>
      </trkpt>
      <trkpt lat="49.78483" lon="4.79686">
        <ele>254</ele>
        <time>2021-03-30T10:20:32.000Z</time>
      </trkpt>
      <trkpt lat="49.78488" lon="4.79688">
        <ele>255</ele>
        <time>2021-03-30T10:20:33.000Z</time>
      </trkpt>
      <trkpt lat="49.78493" lon="4.7969">
        <ele>255</ele>
        <time>2021-03-30T10:20:34.000Z</time>
      </trkpt>
      <trkpt lat="49.78498" lon="4.79692">
        <ele>255</ele>
        <time>2021-03-30T10:20:35.000Z</time>
      </trkpt>
      <trkpt lat="49.78502" lon="4.79695">
        <ele>255</ele>
        <time>2021-03-30T10:20:36.000Z</time>
      </trkpt>
      <trkpt lat="49.78507" lon="4.79697">
        <ele>255</ele>
        <time>2021-03-30T10:20:37.000Z</time>
      </trkpt>
      <trkpt lat="49.78512" lon="4.79699">
        <ele>256</ele>
        <time>2021-03-30T10:20:38.000Z</time>
      </trkpt>
      <trkpt lat="49.78516" lon="4.79701">
        <ele>256</ele>
        <time>2021-03-30T10:20:39.000Z</time>
      </trkpt>
      <trkpt lat="49.78521" lon="4.79702">
        <ele>256</ele>
        <time>2021-03-30T10:20:40.000Z</time>
      </trkpt>
      <trkpt lat="49.78526" lon="4.79703">
        <ele>256</ele>
        <time>2021-03-30T10:20:41.000Z</time>
      </trkpt>
      <trkpt lat="49.7853" lon="4.79705">
        <ele>256</ele>
        <time>2021-03-30T10:20:42.000Z</time>
      </trkpt>
      <trkpt lat="49.78535" lon="4.79706">
        <ele>257</ele>
        <time>2021-03-30T10:20:43.000Z</time>
      </trkpt>
      <trkpt lat="49.78539" lon="4.79707">
        <ele>257</ele>
        <time>2021-03-30T10:20:44.000Z</time>
      </trkpt>
      <trkpt lat="49.78544" lon="4.79709">
        <ele>257</ele>
        <time>2021-03-30T10:20:45.000Z</time>
      </trkpt>
      <trkpt lat="49.78548" lon="4.79711">
        <ele>258</ele>
        <time>2021-03-30T10:20:46.000Z</time>
      </trkpt>
      <trkpt lat="49.78553" lon="4.79712">
        <ele>258</ele>
        <time>2021-03-30T10:20:47.000Z</time>
      </trkpt>
      <trkpt lat="49.78557" lon="4.79714">
        <ele>258</ele>
        <time>2021-03-30T10:20:48.000Z</time>
      </trkpt>
      <trkpt lat="49.78561" lon="4.79715">
        <ele>258</ele>
        <time>2021-03-30T10:20:49.000Z</time>
      </trkpt>
      <trkpt lat="49.78566" lon="4.79717">
        <ele>258</ele>
        <time>2021-03-30T10:20:50.000Z</time>
      </trkpt>
      <trkpt lat="49.7857" lon="4.79718">
        <ele>259</ele>
        <time>2021-03-30T10:20:51.000Z</time>
      </trkpt>
      <trkpt lat="49.78574" lon="4.7972">
        <ele>259</ele>
        <time>2021-03-30T10:20:52.000Z</time>
      </trkpt>
      <trkpt lat="49.78579" lon="4.79721">
        <ele>259</ele>
        <time>2021-03-30T10:20:53.000Z</time>
      </trkpt>
      <trkpt lat="49.78583" lon="4.79723">
        <ele>259</ele>
        <time>2021-03-30T10:20:54.000Z</time>
      </trkpt>
      <trkpt lat="49.78588" lon="4.79725">
        <ele>259</ele>
        <time>2021-03-30T10:20:55.000Z</time>
      </trkpt>
      <trkpt lat="49.78592" lon="4.79727">
        <ele>260</ele>
        <time>2021-03-30T10:20:56.000Z</time>
      </trkpt>
      <trkpt lat="49.78597" lon="4.79728">
        <ele>260</ele>
        <time>2021-03-30T10:20:57.000Z</time>
      </trkpt>
      <trkpt lat="49.78601" lon="4.7973">
        <ele>260</ele>
        <time>2021-03-30T10:20:58.000Z</time>
      </trkpt>
      <trkpt lat="49.78606" lon="4.79732">
        <ele>260</ele>
        <time>2021-03-30T10:20:59.000Z</time>
      </trkpt>
      <trkpt lat="49.7861" lon="4.79733">
        <ele>260</ele>
        <time>2021-03-30T10:21:00.000Z</time>
      </trkpt>
      <trkpt lat="49.78615" lon="4.79735">
        <ele>261</ele>
        <time>2021-03-30T10:21:01.000Z</time>
      </trkpt>
      <trkpt lat="49.78619" lon="4.79737">
        <ele>261</ele>
        <time>2021-03-30T10:21:02.000Z</time>
      </trkpt>
      <trkpt lat="49.78624" lon="4.79738">
        <ele>261</ele>
        <time>2021-03-30T10:21:03.000Z</time>
      </trkpt>
      <trkpt lat="49.78629" lon="4.7974">
        <ele>261</ele>
        <time>2021-03-30T10:21:04.000Z</time>
      </trkpt>
      <trkpt lat="49.78633" lon="4.79742">
        <ele>261</ele>
        <time>2021-03-30T10:21:05.000Z</time>
      </trkpt>
      <trkpt lat="49.78638" lon="4.79744">
        <ele>262</ele>
        <time>2021-03-30T10:21:06.000Z</time>
      </trkpt>
      <trkpt lat="49.78643" lon="4.79745">
        <ele>262</ele>
        <time>2021-03-30T10:21:07.000Z</time>
      </trkpt>
      <trkpt lat="49.78647" lon="4.79747">
        <ele>262</ele>
        <time>2021-03-30T10:21:08.000Z</time>
      </trkpt>
      <trkpt lat="49.78652" lon="4.79748">
        <ele>262</ele>
        <time>2021-03-30T10:21:09.000Z</time>
      </trkpt>
      <trkpt lat="49.78657" lon="4.7975">
        <ele>262</ele>
        <time>2021-03-30T10:21:10.000Z</time>
      </trkpt>
      <trkpt lat="49.78661" lon="4.79752">
        <ele>262</ele>
        <time>2021-03-30T10:21:11.000Z</time>
      </trkpt>
      <trkpt lat="49.78666" lon="4.79754">
        <ele>262</ele>
        <time>2021-03-30T10:21:12.000Z</time>
      </trkpt>
      <trkpt lat="49.78671" lon="4.79755">
        <ele>263</ele>
        <time>2021-03-30T10:21:13.000Z</time>
      </trkpt>
      <trkpt lat="49.78675" lon="4.79757">
        <ele>263</ele>
        <time>2021-03-30T10:21:14.000Z</time>
      </trkpt>
      <trkpt lat="49.7868" lon="4.79759">
        <ele>263</ele>
        <time>2021-03-30T10:21:15.000Z</time>
      </trkpt>
      <trkpt lat="49.78685" lon="4.79761">
        <ele>263</ele>
        <time>2021-03-30T10:21:16.000Z</time>
      </trkpt>
      <trkpt lat="49.78689" lon="4.79762">
        <ele>263</ele>
        <time>2021-03-30T10:21:17.000Z</time>
      </trkpt>
      <trkpt lat="49.78694" lon="4.79764">
        <ele>263</ele>
        <time>2021-03-30T10:21:18.000Z</time>
      </trkpt>
      <trkpt lat="49.78698" lon="4.79766">
        <ele>263</ele>
        <time>2021-03-30T10:21:19.000Z</time>
      </trkpt>
      <trkpt lat="49.78703" lon="4.79767">
        <ele>263</ele>
        <time>2021-03-30T10:21:20.000Z</time>
      </trkpt>
      <trkpt lat="49.78707" lon="4.79769">
        <ele>263</ele>
        <time>2021-03-30T10:21:21.000Z</time>
      </trkpt>
      <trkpt lat="49.78711" lon="4.79769">
        <ele>263</ele>
        <time>2021-03-30T10:21:22.000Z</time>
      </trkpt>
      <trkpt lat="49.78716" lon="4.79771">
        <ele>263</ele>
        <time>2021-03-30T10:21:23.000Z</time>
      </trkpt>
      <trkpt lat="49.78721" lon="4.79773">
        <ele>263</ele>
        <time>2021-03-30T10:21:24.000Z</time>
      </trkpt>
      <trkpt lat="49.78726" lon="4.79776">
        <ele>263</ele>
        <time>2021-03-30T10:21:25.000Z</time>
      </trkpt>
      <trkpt lat="49.78731" lon="4.79778">
        <ele>264</ele>
        <time>2021-03-30T10:21:26.000Z</time>
      </trkpt>
      <trkpt lat="49.78737" lon="4.7978">
        <ele>264</ele>
        <time>2021-03-30T10:21:27.000Z</time>
      </trkpt>
      <trkpt lat="49.78743" lon="4.79783">
        <ele>264</ele>
        <time>2021-03-30T10:21:28.000Z</time>
      </trkpt>
      <trkpt lat="49.78749" lon="4.79785">
        <ele>264</ele>
        <time>2021-03-30T10:21:29.000Z</time>
      </trkpt>
      <trkpt lat="49.78755" lon="4.79788">
        <ele>264</ele>
        <time>2021-03-30T10:21:30.000Z</time>
      </trkpt>
      <trkpt lat="49.78762" lon="4.7979">
        <ele>264</ele>
        <time>2021-03-30T10:21:31.000Z</time>
      </trkpt>
      <trkpt lat="49.78768" lon="4.79793">
        <ele>264</ele>
        <time>2021-03-30T10:21:32.000Z</time>
      </trkpt>
      <trkpt lat="49.78774" lon="4.79796">
        <ele>264</ele>
        <time>2021-03-30T10:21:33.000Z</time>
      </trkpt>
      <trkpt lat="49.7878" lon="4.79799">
        <ele>264</ele>
        <time>2021-03-30T10:21:34.000Z</time>
      </trkpt>
      <trkpt lat="49.78786" lon="4.79802">
        <ele>264</ele>
        <time>2021-03-30T10:21:35.000Z</time>
      </trkpt>
      <trkpt lat="49.78793" lon="4.79805">
        <ele>264</ele>
        <time>2021-03-30T10:21:36.000Z</time>
      </trkpt>
      <trkpt lat="49.78799" lon="4.79808">
        <ele>264</ele>
        <time>2021-03-30T10:21:37.000Z</time>
      </trkpt>
      <trkpt lat="49.78804" lon="4.79811">
        <ele>265</ele>
        <time>2021-03-30T10:21:38.000Z</time>
      </trkpt>
      <trkpt lat="49.7881" lon="4.79814">
        <ele>265</ele>
        <time>2021-03-30T10:21:39.000Z</time>
      </trkpt>
      <trkpt lat="49.78816" lon="4.79817">
        <ele>265</ele>
        <time>2021-03-30T10:21:40.000Z</time>
      </trkpt>
      <trkpt lat="49.78821" lon="4.7982">
        <ele>265</ele>
        <time>2021-03-30T10:21:41.000Z</time>
      </trkpt>
      <trkpt lat="49.78827" lon="4.79822">
        <ele>265</ele>
        <time>2021-03-30T10:21:42.000Z</time>
      </trkpt>
      <trkpt lat="49.78833" lon="4.79825">
        <ele>266</ele>
        <time>2021-03-30T10:21:43.000Z</time>
      </trkpt>
      <trkpt lat="49.78838" lon="4.79828">
        <ele>266</ele>
        <time>2021-03-30T10:21:44.000Z</time>
      </trkpt>
      <trkpt lat="49.78843" lon="4.79832">
        <ele>266</ele>
        <time>2021-03-30T10:21:45.000Z</time>
      </trkpt>
      <trkpt lat="49.78849" lon="4.79836">
        <ele>266</ele>
        <time>2021-03-30T10:21:46.000Z</time>
      </trkpt>
      <trkpt lat="49.78854" lon="4.7984">
        <ele>266</ele>
        <time>2021-03-30T10:21:47.000Z</time>
      </trkpt>
      <trkpt lat="49.7886" lon="4.79844">
        <ele>266</ele>
        <time>2021-03-30T10:21:48.000Z</time>
      </trkpt>
      <trkpt lat="49.78865" lon="4.79848">
        <ele>266</ele>
        <time>2021-03-30T10:21:49.000Z</time>
      </trkpt>
      <trkpt lat="49.78871" lon="4.79853">
        <ele>266</ele>
        <time>2021-03-30T10:21:50.000Z</time>
      </trkpt>
      <trkpt lat="49.78877" lon="4.79857">
        <ele>266</ele>
        <time>2021-03-30T10:21:51.000Z</time>
      </trkpt>
      <trkpt lat="49.78883" lon="4.79861">
        <ele>266</ele>
        <time>2021-03-30T10:21:52.000Z</time>
      </trkpt>
      <trkpt lat="49.78889" lon="4.79866">
        <ele>266</ele>
        <time>2021-03-30T10:21:53.000Z</time>
      </trkpt>
      <trkpt lat="49.78895" lon="4.7987">
        <ele>266</ele>
        <time>2021-03-30T10:21:54.000Z</time>
      </trkpt>
      <trkpt lat="49.78902" lon="4.79875">
        <ele>266</ele>
        <time>2021-03-30T10:21:55.000Z</time>
      </trkpt>
      <trkpt lat="49.78908" lon="4.7988">
        <ele>266</ele>
        <time>2021-03-30T10:21:56.000Z</time>
      </trkpt>
      <trkpt lat="49.78914" lon="4.79885">
        <ele>266</ele>
        <time>2021-03-30T10:21:57.000Z</time>
      </trkpt>
      <trkpt lat="49.7892" lon="4.7989">
        <ele>266</ele>
        <time>2021-03-30T10:21:58.000Z</time>
      </trkpt>
      <trkpt lat="49.78926" lon="4.79895">
        <ele>266</ele>
        <time>2021-03-30T10:21:59.000Z</time>
      </trkpt>
      <trkpt lat="49.78932" lon="4.79901">
        <ele>266</ele>
        <time>2021-03-30T10:22:00.000Z</time>
      </trkpt>
      <trkpt lat="49.78938" lon="4.79906">
        <ele>265</ele>
        <time>2021-03-30T10:22:01.000Z</time>
      </trkpt>
      <trkpt lat="49.78944" lon="4.79911">
        <ele>265</ele>
        <time>2021-03-30T10:22:02.000Z</time>
      </trkpt>
      <trkpt lat="49.78951" lon="4.79916">
        <ele>265</ele>
        <time>2021-03-30T10:22:03.000Z</time>
      </trkpt>
      <trkpt lat="49.78957" lon="4.79921">
        <ele>265</ele>
        <time>2021-03-30T10:22:04.000Z</time>
      </trkpt>
      <trkpt lat="49.78963" lon="4.79926">
        <ele>265</ele>
        <time>2021-03-30T10:22:05.000Z</time>
      </trkpt>
      <trkpt lat="49.78969" lon="4.79932">
        <ele>265</ele>
        <time>2021-03-30T10:22:06.000Z</time>
      </trkpt>
      <trkpt lat="49.78975" lon="4.79937">
        <ele>265</ele>
        <time>2021-03-30T10:22:07.000Z</time>
      </trkpt>
      <trkpt lat="49.78982" lon="4.79942">
        <ele>264</ele>
        <time>2021-03-30T10:22:08.000Z</time>
      </trkpt>
      <trkpt lat="49.78988" lon="4.79948">
        <ele>264</ele>
        <time>2021-03-30T10:22:09.000Z</time>
      </trkpt>
      <trkpt lat="49.78993" lon="4.79953">
        <ele>264</ele>
        <time>2021-03-30T10:22:10.000Z</time>
      </trkpt>
      <trkpt lat="49.78999" lon="4.79958">
        <ele>264</ele>
        <time>2021-03-30T10:22:11.000Z</time>
      </trkpt>
      <trkpt lat="49.79005" lon="4.79964">
        <ele>264</ele>
        <time>2021-03-30T10:22:12.000Z</time>
      </trkpt>
      <trkpt lat="49.79011" lon="4.79969">
        <ele>264</ele>
        <time>2021-03-30T10:22:13.000Z</time>
      </trkpt>
      <trkpt lat="49.79017" lon="4.79974">
        <ele>264</ele>
        <time>2021-03-30T10:22:14.000Z</time>
      </trkpt>
      <trkpt lat="49.79023" lon="4.79979">
        <ele>264</ele>
        <time>2021-03-30T10:22:15.000Z</time>
      </trkpt>
      <trkpt lat="49.7903" lon="4.79985">
        <ele>264</ele>
        <time>2021-03-30T10:22:16.000Z</time>
      </trkpt>
      <trkpt lat="49.79036" lon="4.7999">
        <ele>264</ele>
        <time>2021-03-30T10:22:17.000Z</time>
      </trkpt>
      <trkpt lat="49.79042" lon="4.79996">
        <ele>263</ele>
        <time>2021-03-30T10:22:18.000Z</time>
      </trkpt>
      <trkpt lat="49.79049" lon="4.80002">
        <ele>263</ele>
        <time>2021-03-30T10:22:19.000Z</time>
      </trkpt>
      <trkpt lat="49.79055" lon="4.80008">
        <ele>263</ele>
        <time>2021-03-30T10:22:20.000Z</time>
      </trkpt>
      <trkpt lat="49.79061" lon="4.80013">
        <ele>263</ele>
        <time>2021-03-30T10:22:21.000Z</time>
      </trkpt>
      <trkpt lat="49.79067" lon="4.80019">
        <ele>263</ele>
        <time>2021-03-30T10:22:22.000Z</time>
      </trkpt>
      <trkpt lat="49.79074" lon="4.80024">
        <ele>263</ele>
        <time>2021-03-30T10:22:23.000Z</time>
      </trkpt>
      <trkpt lat="49.7908" lon="4.8003">
        <ele>263</ele>
        <time>2021-03-30T10:22:24.000Z</time>
      </trkpt>
      <trkpt lat="49.79086" lon="4.80035">
        <ele>262</ele>
        <time>2021-03-30T10:22:25.000Z</time>
      </trkpt>
      <trkpt lat="49.79092" lon="4.8004">
        <ele>262</ele>
        <time>2021-03-30T10:22:26.000Z</time>
      </trkpt>
      <trkpt lat="49.79098" lon="4.80045">
        <ele>262</ele>
        <time>2021-03-30T10:22:27.000Z</time>
      </trkpt>
      <trkpt lat="49.79104" lon="4.8005">
        <ele>262</ele>
        <time>2021-03-30T10:22:28.000Z</time>
      </trkpt>
      <trkpt lat="49.79111" lon="4.80055">
        <ele>262</ele>
        <time>2021-03-30T10:22:29.000Z</time>
      </trkpt>
      <trkpt lat="49.79116" lon="4.8006">
        <ele>262</ele>
        <time>2021-03-30T10:22:30.000Z</time>
      </trkpt>
      <trkpt lat="49.79122" lon="4.80064">
        <ele>262</ele>
        <time>2021-03-30T10:22:31.000Z</time>
      </trkpt>
      <trkpt lat="49.79127" lon="4.80068">
        <ele>262</ele>
        <time>2021-03-30T10:22:32.000Z</time>
      </trkpt>
      <trkpt lat="49.79133" lon="4.8007">
        <ele>262</ele>
        <time>2021-03-30T10:22:33.000Z</time>
      </trkpt>
      <trkpt lat="49.79138" lon="4.80071">
        <ele>262</ele>
        <time>2021-03-30T10:22:34.000Z</time>
      </trkpt>
      <trkpt lat="49.79144" lon="4.80071">
        <ele>262</ele>
        <time>2021-03-30T10:22:35.000Z</time>
      </trkpt>
      <trkpt lat="49.7915" lon="4.8007">
        <ele>262</ele>
        <time>2021-03-30T10:22:36.000Z</time>
      </trkpt>
      <trkpt lat="49.79155" lon="4.80069">
        <ele>262</ele>
        <time>2021-03-30T10:22:37.000Z</time>
      </trkpt>
      <trkpt lat="49.79161" lon="4.80068">
        <ele>262</ele>
        <time>2021-03-30T10:22:38.000Z</time>
      </trkpt>
      <trkpt lat="49.79166" lon="4.80067">
        <ele>262</ele>
        <time>2021-03-30T10:22:39.000Z</time>
      </trkpt>
      <trkpt lat="49.79171" lon="4.80066">
        <ele>262</ele>
        <time>2021-03-30T10:22:40.000Z</time>
      </trkpt>
      <trkpt lat="49.79176" lon="4.80064">
        <ele>262</ele>
        <time>2021-03-30T10:22:41.000Z</time>
      </trkpt>
      <trkpt lat="49.79181" lon="4.80063">
        <ele>262</ele>
        <time>2021-03-30T10:22:42.000Z</time>
      </trkpt>
      <trkpt lat="49.79187" lon="4.80062">
        <ele>263</ele>
        <time>2021-03-30T10:22:43.000Z</time>
      </trkpt>
      <trkpt lat="49.79191" lon="4.80061">
        <ele>263</ele>
        <time>2021-03-30T10:22:44.000Z</time>
      </trkpt>
      <trkpt lat="49.79196" lon="4.8006">
        <ele>263</ele>
        <time>2021-03-30T10:22:45.000Z</time>
      </trkpt>
      <trkpt lat="49.792" lon="4.8006">
        <ele>263</ele>
        <time>2021-03-30T10:22:46.000Z</time>
      </trkpt>
      <trkpt lat="49.79204" lon="4.80059">
        <ele>263</ele>
        <time>2021-03-30T10:22:47.000Z</time>
      </trkpt>
      <trkpt lat="49.79208" lon="4.80059">
        <ele>263</ele>
        <time>2021-03-30T10:22:48.000Z</time>
      </trkpt>
      <trkpt lat="49.79211" lon="4.80059">
        <ele>264</ele>
        <time>2021-03-30T10:22:49.000Z</time>
      </trkpt>
      <trkpt lat="49.79214" lon="4.8006">
        <ele>264</ele>
        <time>2021-03-30T10:22:50.000Z</time>
      </trkpt>
      <trkpt lat="49.79218" lon="4.80059">
        <ele>264</ele>
        <time>2021-03-30T10:22:51.000Z</time>
      </trkpt>
      <trkpt lat="49.79221" lon="4.80058">
        <ele>264</ele>
        <time>2021-03-30T10:22:52.000Z</time>
      </trkpt>
      <trkpt lat="49.79224" lon="4.80058">
        <ele>265</ele>
        <time>2021-03-30T10:22:53.000Z</time>
      </trkpt>
      <trkpt lat="49.79227" lon="4.80057">
        <ele>265</ele>
        <time>2021-03-30T10:22:54.000Z</time>
      </trkpt>
      <trkpt lat="49.7923" lon="4.80055">
        <ele>265</ele>
        <time>2021-03-30T10:22:55.000Z</time>
      </trkpt>
      <trkpt lat="49.79232" lon="4.80055">
        <ele>266</ele>
        <time>2021-03-30T10:22:56.000Z</time>
      </trkpt>
      <trkpt lat="49.79235" lon="4.80055">
        <ele>266</ele>
        <time>2021-03-30T10:22:57.000Z</time>
      </trkpt>
      <trkpt lat="49.79238" lon="4.80054">
        <ele>266</ele>
        <time>2021-03-30T10:22:58.000Z</time>
      </trkpt>
      <trkpt lat="49.79241" lon="4.80053">
        <ele>266</ele>
        <time>2021-03-30T10:22:59.000Z</time>
      </trkpt>
      <trkpt lat="49.79244" lon="4.80053">
        <ele>267</ele>
        <time>2021-03-30T10:23:00.000Z</time>
      </trkpt>
      <trkpt lat="49.79247" lon="4.80052">
        <ele>267</ele>
        <time>2021-03-30T10:23:01.000Z</time>
      </trkpt>
      <trkpt lat="49.7925" lon="4.80051">
        <ele>267</ele>
        <time>2021-03-30T10:23:02.000Z</time>
      </trkpt>
      <trkpt lat="49.79253" lon="4.8005">
        <ele>268</ele>
        <time>2021-03-30T10:23:03.000Z</time>
      </trkpt>
      <trkpt lat="49.79256" lon="4.80048">
        <ele>268</ele>
        <time>2021-03-30T10:23:04.000Z</time>
      </trkpt>
      <trkpt lat="49.79259" lon="4.80047">
        <ele>268</ele>
        <time>2021-03-30T10:23:05.000Z</time>
      </trkpt>
      <trkpt lat="49.79262" lon="4.80046">
        <ele>269</ele>
        <time>2021-03-30T10:23:06.000Z</time>
      </trkpt>
      <trkpt lat="49.79265" lon="4.80045">
        <ele>269</ele>
        <time>2021-03-30T10:23:07.000Z</time>
      </trkpt>
      <trkpt lat="49.79269" lon="4.80045">
        <ele>269</ele>
        <time>2021-03-30T10:23:08.000Z</time>
      </trkpt>
      <trkpt lat="49.79272" lon="4.80044">
        <ele>270</ele>
        <time>2021-03-30T10:23:09.000Z</time>
      </trkpt>
      <trkpt lat="49.79276" lon="4.80044">
        <ele>270</ele>
        <time>2021-03-30T10:23:10.000Z</time>
      </trkpt>
      <trkpt lat="49.7928" lon="4.80044">
        <ele>270</ele>
        <time>2021-03-30T10:23:11.000Z</time>
      </trkpt>
      <trkpt lat="49.79283" lon="4.80043">
        <ele>271</ele>
        <time>2021-03-30T10:23:12.000Z</time>
      </trkpt>
      <trkpt lat="49.79287" lon="4.80044">
        <ele>271</ele>
        <time>2021-03-30T10:23:13.000Z</time>
      </trkpt>
      <trkpt lat="49.7929" lon="4.80043">
        <ele>271</ele>
        <time>2021-03-30T10:23:14.000Z</time>
      </trkpt>
      <trkpt lat="49.79293" lon="4.80043">
        <ele>272</ele>
        <time>2021-03-30T10:23:15.000Z</time>
      </trkpt>
      <trkpt lat="49.79296" lon="4.80043">
        <ele>272</ele>
        <time>2021-03-30T10:23:16.000Z</time>
      </trkpt>
      <trkpt lat="49.79299" lon="4.80042">
        <ele>272</ele>
        <time>2021-03-30T10:23:17.000Z</time>
      </trkpt>
      <trkpt lat="49.79302" lon="4.80042">
        <ele>272</ele>
        <time>2021-03-30T10:23:18.000Z</time>
      </trkpt>
      <trkpt lat="49.79303" lon="4.80041">
        <ele>273</ele>
        <time>2021-03-30T10:23:19.000Z</time>
      </trkpt>
      <trkpt lat="49.79305" lon="4.80039">
        <ele>273</ele>
        <time>2021-03-30T10:23:20.000Z</time>
      </trkpt>
      <trkpt lat="49.79307" lon="4.80036">
        <ele>273</ele>
        <time>2021-03-30T10:23:21.000Z</time>
      </trkpt>
      <trkpt lat="49.79309" lon="4.80032">
        <ele>273</ele>
        <time>2021-03-30T10:23:22.000Z</time>
      </trkpt>
      <trkpt lat="49.79311" lon="4.80027">
        <ele>273</ele>
        <time>2021-03-30T10:23:23.000Z</time>
      </trkpt>
      <trkpt lat="49.79314" lon="4.80022">
        <ele>273</ele>
        <time>2021-03-30T10:23:24.000Z</time>
      </trkpt>
      <trkpt lat="49.79316" lon="4.80017">
        <ele>273</ele>
        <time>2021-03-30T10:23:25.000Z</time>
      </trkpt>
      <trkpt lat="49.7932" lon="4.80012">
        <ele>274</ele>
        <time>2021-03-30T10:23:26.000Z</time>
      </trkpt>
      <trkpt lat="49.79323" lon="4.80008">
        <ele>274</ele>
        <time>2021-03-30T10:23:27.000Z</time>
      </trkpt>
      <trkpt lat="49.79326" lon="4.80003">
        <ele>274</ele>
        <time>2021-03-30T10:23:28.000Z</time>
      </trkpt>
      <trkpt lat="49.79329" lon="4.79998">
        <ele>274</ele>
        <time>2021-03-30T10:23:29.000Z</time>
      </trkpt>
      <trkpt lat="49.79332" lon="4.79992">
        <ele>275</ele>
        <time>2021-03-30T10:23:30.000Z</time>
      </trkpt>
      <trkpt lat="49.79334" lon="4.79986">
        <ele>275</ele>
        <time>2021-03-30T10:23:31.000Z</time>
      </trkpt>
      <trkpt lat="49.79336" lon="4.7998">
        <ele>275</ele>
        <time>2021-03-30T10:23:32.000Z</time>
      </trkpt>
      <trkpt lat="49.79338" lon="4.79974">
        <ele>276</ele>
        <time>2021-03-30T10:23:33.000Z</time>
      </trkpt>
      <trkpt lat="49.79339" lon="4.7997">
        <ele>276</ele>
        <time>2021-03-30T10:23:34.000Z</time>
      </trkpt>
      <trkpt lat="49.7934" lon="4.79965">
        <ele>276</ele>
        <time>2021-03-30T10:23:35.000Z</time>
      </trkpt>
      <trkpt lat="49.79342" lon="4.79959">
        <ele>276</ele>
        <time>2021-03-30T10:23:36.000Z</time>
      </trkpt>
      <trkpt lat="49.79344" lon="4.79954">
        <ele>276</ele>
        <time>2021-03-30T10:23:37.000Z</time>
      </trkpt>
      <trkpt lat="49.79347" lon="4.79948">
        <ele>276</ele>
        <time>2021-03-30T10:23:38.000Z</time>
      </trkpt>
      <trkpt lat="49.79349" lon="4.79943">
        <ele>277</ele>
        <time>2021-03-30T10:23:39.000Z</time>
      </trkpt>
      <trkpt lat="49.79352" lon="4.79939">
        <ele>277</ele>
        <time>2021-03-30T10:23:40.000Z</time>
      </trkpt>
      <trkpt lat="49.79354" lon="4.79934">
        <ele>277</ele>
        <time>2021-03-30T10:23:41.000Z</time>
      </trkpt>
      <trkpt lat="49.79356" lon="4.79929">
        <ele>277</ele>
        <time>2021-03-30T10:23:42.000Z</time>
      </trkpt>
      <trkpt lat="49.79358" lon="4.79924">
        <ele>277</ele>
        <time>2021-03-30T10:23:43.000Z</time>
      </trkpt>
      <trkpt lat="49.7936" lon="4.79919">
        <ele>277</ele>
        <time>2021-03-30T10:23:44.000Z</time>
      </trkpt>
      <trkpt lat="49.79361" lon="4.79915">
        <ele>278</ele>
        <time>2021-03-30T10:23:45.000Z</time>
      </trkpt>
      <trkpt lat="49.79363" lon="4.7991">
        <ele>278</ele>
        <time>2021-03-30T10:23:46.000Z</time>
      </trkpt>
      <trkpt lat="49.79364" lon="4.79905">
        <ele>278</ele>
        <time>2021-03-30T10:23:47.000Z</time>
      </trkpt>
      <trkpt lat="49.79366" lon="4.79901">
        <ele>279</ele>
        <time>2021-03-30T10:23:48.000Z</time>
      </trkpt>
      <trkpt lat="49.79368" lon="4.79897">
        <ele>279</ele>
        <time>2021-03-30T10:23:49.000Z</time>
      </trkpt>
      <trkpt lat="49.79371" lon="4.79893">
        <ele>279</ele>
        <time>2021-03-30T10:23:50.000Z</time>
      </trkpt>
      <trkpt lat="49.79372" lon="4.7989">
        <ele>280</ele>
        <time>2021-03-30T10:23:51.000Z</time>
      </trkpt>
      <trkpt lat="49.79374" lon="4.79886">
        <ele>280</ele>
        <time>2021-03-30T10:23:52.000Z</time>
      </trkpt>
      <trkpt lat="49.79376" lon="4.79882">
        <ele>280</ele>
        <time>2021-03-30T10:23:53.000Z</time>
      </trkpt>
      <trkpt lat="49.79378" lon="4.79879">
        <ele>280</ele>
        <time>2021-03-30T10:23:54.000Z</time>
      </trkpt>
      <trkpt lat="49.7938" lon="4.79876">
        <ele>281</ele>
        <time>2021-03-30T10:23:55.000Z</time>
      </trkpt>
      <trkpt lat="49.79382" lon="4.79872">
        <ele>281</ele>
        <time>2021-03-30T10:23:56.000Z</time>
      </trkpt>
      <trkpt lat="49.79383" lon="4.79868">
        <ele>281</ele>
        <time>2021-03-30T10:23:57.000Z</time>
      </trkpt>
      <trkpt lat="49.79384" lon="4.79863">
        <ele>282</ele>
        <time>2021-03-30T10:23:58.000Z</time>
      </trkpt>
      <trkpt lat="49.79385" lon="4.79859">
        <ele>282</ele>
        <time>2021-03-30T10:23:59.000Z</time>
      </trkpt>
      <trkpt lat="49.79386" lon="4.79855">
        <ele>282</ele>
        <time>2021-03-30T10:24:00.000Z</time>
      </trkpt>
      <trkpt lat="49.79388" lon="4.79851">
        <ele>282</ele>
        <time>2021-03-30T10:24:01.000Z</time>
      </trkpt>
      <trkpt lat="49.79389" lon="4.79847">
        <ele>283</ele>
        <time>2021-03-30T10:24:02.000Z</time>
      </trkpt>
      <trkpt lat="49.79391" lon="4.79846">
        <ele>283</ele>
        <time>2021-03-30T10:24:03.000Z</time>
      </trkpt>
      <trkpt lat="49.79393" lon="4.79845">
        <ele>283</ele>
        <time>2021-03-30T10:24:04.000Z</time>
      </trkpt>
      <trkpt lat="49.79395" lon="4.79845">
        <ele>283</ele>
        <time>2021-03-30T10:24:05.000Z</time>
      </trkpt>
      <trkpt lat="49.79396" lon="4.79845">
        <ele>283</ele>
        <time>2021-03-30T10:24:06.000Z</time>
      </trkpt>
      <trkpt lat="49.79398" lon="4.79845">
        <ele>283</ele>
        <time>2021-03-30T10:24:07.000Z</time>
      </trkpt>
      <trkpt lat="49.794" lon="4.79844">
        <ele>284</ele>
        <time>2021-03-30T10:24:08.000Z</time>
      </trkpt>
      <trkpt lat="49.79402" lon="4.79844">
        <ele>284</ele>
        <time>2021-03-30T10:24:09.000Z</time>
      </trkpt>
      <trkpt lat="49.79405" lon="4.79844">
        <ele>284</ele>
        <time>2021-03-30T10:24:10.000Z</time>
      </trkpt>
      <trkpt lat="49.79407" lon="4.79844">
        <ele>284</ele>
        <time>2021-03-30T10:24:11.000Z</time>
      </trkpt>
      <trkpt lat="49.79409" lon="4.79843">
        <ele>284</ele>
        <time>2021-03-30T10:24:12.000Z</time>
      </trkpt>
      <trkpt lat="49.7941" lon="4.79844">
        <ele>284</ele>
        <time>2021-03-30T10:24:13.000Z</time>
      </trkpt>
      <trkpt lat="49.79412" lon="4.79844">
        <ele>283</ele>
        <time>2021-03-30T10:24:14.000Z</time>
      </trkpt>
      <trkpt lat="49.79414" lon="4.79844">
        <ele>283</ele>
        <time>2021-03-30T10:24:15.000Z</time>
      </trkpt>
      <trkpt lat="49.79416" lon="4.79844">
        <ele>283</ele>
        <time>2021-03-30T10:24:16.000Z</time>
      </trkpt>
      <trkpt lat="49.79418" lon="4.79844">
        <ele>283</ele>
        <time>2021-03-30T10:24:17.000Z</time>
      </trkpt>
      <trkpt lat="49.7942" lon="4.79844">
        <ele>283</ele>
        <time>2021-03-30T10:24:18.000Z</time>
      </trkpt>
      <trkpt lat="49.79422" lon="4.79844">
        <ele>283</ele>
        <time>2021-03-30T10:24:19.000Z</time>
      </trkpt>
      <trkpt lat="49.79424" lon="4.79844">
        <ele>283</ele>
        <time>2021-03-30T10:24:20.000Z</time>
      </trkpt>
      <trkpt lat="49.79427" lon="4.79844">
        <ele>283</ele>
        <time>2021-03-30T10:24:21.000Z</time>
      </trkpt>
      <trkpt lat="49.79429" lon="4.79844">
        <ele>283</ele>
        <time>2021-03-30T10:24:22.000Z</time>
      </trkpt>
      <trkpt lat="49.79432" lon="4.79844">
        <ele>283</ele>
        <time>2021-03-30T10:24:23.000Z</time>
      </trkpt>
      <trkpt lat="49.79434" lon="4.79844">
        <ele>284</ele>
        <time>2021-03-30T10:24:24.000Z</time>
      </trkpt>
      <trkpt lat="49.79437" lon="4.79845">
        <ele>284</ele>
        <time>2021-03-30T10:24:25.000Z</time>
      </trkpt>
      <trkpt lat="49.79438" lon="4.79845">
        <ele>284</ele>
        <time>2021-03-30T10:24:26.000Z</time>
      </trkpt>
      <trkpt lat="49.79441" lon="4.79845">
        <ele>284</ele>
        <time>2021-03-30T10:24:27.000Z</time>
      </trkpt>
      <trkpt lat="49.79443" lon="4.79845">
        <ele>284</ele>
        <time>2021-03-30T10:24:28.000Z</time>
      </trkpt>
      <trkpt lat="49.79445" lon="4.79845">
        <ele>284</ele>
        <time>2021-03-30T10:24:29.000Z</time>
      </trkpt>
      <trkpt lat="49.79447" lon="4.79844">
        <ele>284</ele>
        <time>2021-03-30T10:24:30.000Z</time>
      </trkpt>
      <trkpt lat="49.7945" lon="4.79843">
        <ele>285</ele>
        <time>2021-03-30T10:24:31.000Z</time>
      </trkpt>
      <trkpt lat="49.79453" lon="4.79842">
        <ele>285</ele>
        <time>2021-03-30T10:24:32.000Z</time>
      </trkpt>
      <trkpt lat="49.79455" lon="4.79841">
        <ele>285</ele>
        <time>2021-03-30T10:24:33.000Z</time>
      </trkpt>
      <trkpt lat="49.79459" lon="4.79841">
        <ele>285</ele>
        <time>2021-03-30T10:24:34.000Z</time>
      </trkpt>
      <trkpt lat="49.79461" lon="4.79841">
        <ele>285</ele>
        <time>2021-03-30T10:24:35.000Z</time>
      </trkpt>
      <trkpt lat="49.79464" lon="4.79841">
        <ele>285</ele>
        <time>2021-03-30T10:24:36.000Z</time>
      </trkpt>
      <trkpt lat="49.79466" lon="4.79841">
        <ele>285</ele>
        <time>2021-03-30T10:24:37.000Z</time>
      </trkpt>
      <trkpt lat="49.79469" lon="4.7984">
        <ele>285</ele>
        <time>2021-03-30T10:24:38.000Z</time>
      </trkpt>
      <trkpt lat="49.79471" lon="4.79839">
        <ele>286</ele>
        <time>2021-03-30T10:24:39.000Z</time>
      </trkpt>
      <trkpt lat="49.79474" lon="4.79839">
        <ele>286</ele>
        <time>2021-03-30T10:24:40.000Z</time>
      </trkpt>
      <trkpt lat="49.79477" lon="4.79839">
        <ele>286</ele>
        <time>2021-03-30T10:24:41.000Z</time>
      </trkpt>
      <trkpt lat="49.7948" lon="4.79838">
        <ele>286</ele>
        <time>2021-03-30T10:24:42.000Z</time>
      </trkpt>
      <trkpt lat="49.79484" lon="4.79838">
        <ele>286</ele>
        <time>2021-03-30T10:24:43.000Z</time>
      </trkpt>
      <trkpt lat="49.79487" lon="4.79838">
        <ele>286</ele>
        <time>2021-03-30T10:24:44.000Z</time>
      </trkpt>
      <trkpt lat="49.7949" lon="4.79837">
        <ele>286</ele>
        <time>2021-03-30T10:24:45.000Z</time>
      </trkpt>
      <trkpt lat="49.79493" lon="4.79837">
        <ele>286</ele>
        <time>2021-03-30T10:24:46.000Z</time>
      </trkpt>
      <trkpt lat="49.79496" lon="4.79836">
        <ele>286</ele>
        <time>2021-03-30T10:24:47.000Z</time>
      </trkpt>
      <trkpt lat="49.79499" lon="4.79835">
        <ele>286</ele>
        <time>2021-03-30T10:24:48.000Z</time>
      </trkpt>
      <trkpt lat="49.79502" lon="4.79835">
        <ele>286</ele>
        <time>2021-03-30T10:24:49.000Z</time>
      </trkpt>
      <trkpt lat="49.79504" lon="4.79835">
        <ele>286</ele>
        <time>2021-03-30T10:24:50.000Z</time>
      </trkpt>
      <trkpt lat="49.79507" lon="4.79836">
        <ele>286</ele>
        <time>2021-03-30T10:24:51.000Z</time>
      </trkpt>
      <trkpt lat="49.79509" lon="4.79835">
        <ele>286</ele>
        <time>2021-03-30T10:24:52.000Z</time>
      </trkpt>
      <trkpt lat="49.79512" lon="4.79835">
        <ele>287</ele>
        <time>2021-03-30T10:24:53.000Z</time>
      </trkpt>
      <trkpt lat="49.79514" lon="4.79834">
        <ele>287</ele>
        <time>2021-03-30T10:24:54.000Z</time>
      </trkpt>
      <trkpt lat="49.79517" lon="4.79834">
        <ele>287</ele>
        <time>2021-03-30T10:24:55.000Z</time>
      </trkpt>
      <trkpt lat="49.7952" lon="4.79833">
        <ele>287</ele>
        <time>2021-03-30T10:24:56.000Z</time>
      </trkpt>
      <trkpt lat="49.79523" lon="4.79833">
        <ele>287</ele>
        <time>2021-03-30T10:24:57.000Z</time>
      </trkpt>
      <trkpt lat="49.79526" lon="4.79833">
        <ele>287</ele>
        <time>2021-03-30T10:24:58.000Z</time>
      </trkpt>
      <trkpt lat="49.79528" lon="4.79833">
        <ele>287</ele>
        <time>2021-03-30T10:24:59.000Z</time>
      </trkpt>
      <trkpt lat="49.79531" lon="4.79833">
        <ele>287</ele>
        <time>2021-03-30T10:25:00.000Z</time>
      </trkpt>
      <trkpt lat="49.79534" lon="4.79832">
        <ele>287</ele>
        <time>2021-03-30T10:25:01.000Z</time>
      </trkpt>
      <trkpt lat="49.79537" lon="4.79832">
        <ele>287</ele>
        <time>2021-03-30T10:25:02.000Z</time>
      </trkpt>
      <trkpt lat="49.79539" lon="4.79831">
        <ele>287</ele>
        <time>2021-03-30T10:25:03.000Z</time>
      </trkpt>
      <trkpt lat="49.79542" lon="4.79831">
        <ele>287</ele>
        <time>2021-03-30T10:25:04.000Z</time>
      </trkpt>
      <trkpt lat="49.79545" lon="4.79831">
        <ele>288</ele>
        <time>2021-03-30T10:25:05.000Z</time>
      </trkpt>
      <trkpt lat="49.79547" lon="4.79831">
        <ele>288</ele>
        <time>2021-03-30T10:25:06.000Z</time>
      </trkpt>
      <trkpt lat="49.79549" lon="4.79831">
        <ele>288</ele>
        <time>2021-03-30T10:25:07.000Z</time>
      </trkpt>
      <trkpt lat="49.79552" lon="4.79831">
        <ele>288</ele>
        <time>2021-03-30T10:25:08.000Z</time>
      </trkpt>
      <trkpt lat="49.79555" lon="4.79832">
        <ele>288</ele>
        <time>2021-03-30T10:25:09.000Z</time>
      </trkpt>
      <trkpt lat="49.79558" lon="4.79832">
        <ele>288</ele>
        <time>2021-03-30T10:25:10.000Z</time>
      </trkpt>
      <trkpt lat="49.79561" lon="4.79832">
        <ele>288</ele>
        <time>2021-03-30T10:25:11.000Z</time>
      </trkpt>
      <trkpt lat="49.79564" lon="4.79831">
        <ele>288</ele>
        <time>2021-03-30T10:25:12.000Z</time>
      </trkpt>
      <trkpt lat="49.79566" lon="4.7983">
        <ele>288</ele>
        <time>2021-03-30T10:25:13.000Z</time>
      </trkpt>
      <trkpt lat="49.79569" lon="4.7983">
        <ele>288</ele>
        <time>2021-03-30T10:25:14.000Z</time>
      </trkpt>
      <trkpt lat="49.79572" lon="4.79829">
        <ele>288</ele>
        <time>2021-03-30T10:25:15.000Z</time>
      </trkpt>
      <trkpt lat="49.79575" lon="4.79829">
        <ele>288</ele>
        <time>2021-03-30T10:25:16.000Z</time>
      </trkpt>
      <trkpt lat="49.79578" lon="4.79829">
        <ele>288</ele>
        <time>2021-03-30T10:25:17.000Z</time>
      </trkpt>
      <trkpt lat="49.79581" lon="4.79829">
        <ele>289</ele>
        <time>2021-03-30T10:25:18.000Z</time>
      </trkpt>
      <trkpt lat="49.79583" lon="4.79828">
        <ele>289</ele>
        <time>2021-03-30T10:25:19.000Z</time>
      </trkpt>
      <trkpt lat="49.79586" lon="4.79828">
        <ele>289</ele>
        <time>2021-03-30T10:25:20.000Z</time>
      </trkpt>
      <trkpt lat="49.79589" lon="4.79827">
        <ele>289</ele>
        <time>2021-03-30T10:25:21.000Z</time>
      </trkpt>
      <trkpt lat="49.79593" lon="4.79826">
        <ele>290</ele>
        <time>2021-03-30T10:25:22.000Z</time>
      </trkpt>
      <trkpt lat="49.79596" lon="4.79826">
        <ele>290</ele>
        <time>2021-03-30T10:25:23.000Z</time>
      </trkpt>
      <trkpt lat="49.79598" lon="4.79825">
        <ele>290</ele>
        <time>2021-03-30T10:25:24.000Z</time>
      </trkpt>
      <trkpt lat="49.79601" lon="4.79824">
        <ele>290</ele>
        <time>2021-03-30T10:25:25.000Z</time>
      </trkpt>
      <trkpt lat="49.79604" lon="4.79824">
        <ele>290</ele>
        <time>2021-03-30T10:25:26.000Z</time>
      </trkpt>
      <trkpt lat="49.79606" lon="4.79824">
        <ele>291</ele>
        <time>2021-03-30T10:25:27.000Z</time>
      </trkpt>
      <trkpt lat="49.79609" lon="4.79823">
        <ele>291</ele>
        <time>2021-03-30T10:25:28.000Z</time>
      </trkpt>
      <trkpt lat="49.79611" lon="4.79823">
        <ele>291</ele>
        <time>2021-03-30T10:25:29.000Z</time>
      </trkpt>
      <trkpt lat="49.79614" lon="4.79823">
        <ele>291</ele>
        <time>2021-03-30T10:25:30.000Z</time>
      </trkpt>
      <trkpt lat="49.79616" lon="4.79824">
        <ele>291</ele>
        <time>2021-03-30T10:25:31.000Z</time>
      </trkpt>
      <trkpt lat="49.79618" lon="4.79823">
        <ele>291</ele>
        <time>2021-03-30T10:25:32.000Z</time>
      </trkpt>
      <trkpt lat="49.79621" lon="4.79823">
        <ele>292</ele>
        <time>2021-03-30T10:25:33.000Z</time>
      </trkpt>
      <trkpt lat="49.79624" lon="4.79823">
        <ele>292</ele>
        <time>2021-03-30T10:25:34.000Z</time>
      </trkpt>
      <trkpt lat="49.79626" lon="4.79822">
        <ele>292</ele>
        <time>2021-03-30T10:25:35.000Z</time>
      </trkpt>
      <trkpt lat="49.7963" lon="4.79822">
        <ele>292</ele>
        <time>2021-03-30T10:25:36.000Z</time>
      </trkpt>
      <trkpt lat="49.79633" lon="4.79823">
        <ele>292</ele>
        <time>2021-03-30T10:25:37.000Z</time>
      </trkpt>
      <trkpt lat="49.79636" lon="4.79822">
        <ele>292</ele>
        <time>2021-03-30T10:25:38.000Z</time>
      </trkpt>
      <trkpt lat="49.79639" lon="4.79822">
        <ele>292</ele>
        <time>2021-03-30T10:25:39.000Z</time>
      </trkpt>
      <trkpt lat="49.79643" lon="4.79822">
        <ele>292</ele>
        <time>2021-03-30T10:25:40.000Z</time>
      </trkpt>
      <trkpt lat="49.79646" lon="4.79822">
        <ele>292</ele>
        <time>2021-03-30T10:25:41.000Z</time>
      </trkpt>
      <trkpt lat="49.79649" lon="4.79822">
        <ele>292</ele>
        <time>2021-03-30T10:25:42.000Z</time>
      </trkpt>
      <trkpt lat="49.79652" lon="4.79823">
        <ele>292</ele>
        <time>2021-03-30T10:25:43.000Z</time>
      </trkpt>
      <trkpt lat="49.79655" lon="4.79822">
        <ele>293</ele>
        <time>2021-03-30T10:25:44.000Z</time>
      </trkpt>
      <trkpt lat="49.79659" lon="4.79822">
        <ele>293</ele>
        <time>2021-03-30T10:25:45.000Z</time>
      </trkpt>
      <trkpt lat="49.79663" lon="4.79822">
        <ele>293</ele>
        <time>2021-03-30T10:25:46.000Z</time>
      </trkpt>
      <trkpt lat="49.79667" lon="4.79822">
        <ele>293</ele>
        <time>2021-03-30T10:25:47.000Z</time>
      </trkpt>
      <trkpt lat="49.79671" lon="4.79822">
        <ele>293</ele>
        <time>2021-03-30T10:25:48.000Z</time>
      </trkpt>
      <trkpt lat="49.79675" lon="4.79822">
        <ele>293</ele>
        <time>2021-03-30T10:25:49.000Z</time>
      </trkpt>
      <trkpt lat="49.79678" lon="4.79821">
        <ele>293</ele>
        <time>2021-03-30T10:25:50.000Z</time>
      </trkpt>
      <trkpt lat="49.79682" lon="4.79821">
        <ele>293</ele>
        <time>2021-03-30T10:25:51.000Z</time>
      </trkpt>
      <trkpt lat="49.79685" lon="4.79821">
        <ele>293</ele>
        <time>2021-03-30T10:25:52.000Z</time>
      </trkpt>
      <trkpt lat="49.79689" lon="4.79821">
        <ele>293</ele>
        <time>2021-03-30T10:25:53.000Z</time>
      </trkpt>
      <trkpt lat="49.79693" lon="4.7982">
        <ele>293</ele>
        <time>2021-03-30T10:25:54.000Z</time>
      </trkpt>
      <trkpt lat="49.79697" lon="4.7982">
        <ele>293</ele>
        <time>2021-03-30T10:25:55.000Z</time>
      </trkpt>
      <trkpt lat="49.79702" lon="4.7982">
        <ele>294</ele>
        <time>2021-03-30T10:25:56.000Z</time>
      </trkpt>
      <trkpt lat="49.79706" lon="4.79819">
        <ele>294</ele>
        <time>2021-03-30T10:25:57.000Z</time>
      </trkpt>
      <trkpt lat="49.7971" lon="4.79818">
        <ele>294</ele>
        <time>2021-03-30T10:25:58.000Z</time>
      </trkpt>
      <trkpt lat="49.79715" lon="4.79818">
        <ele>294</ele>
        <time>2021-03-30T10:25:59.000Z</time>
      </trkpt>
      <trkpt lat="49.79719" lon="4.79818">
        <ele>295</ele>
        <time>2021-03-30T10:26:00.000Z</time>
      </trkpt>
      <trkpt lat="49.79724" lon="4.79817">
        <ele>295</ele>
        <time>2021-03-30T10:26:01.000Z</time>
      </trkpt>
      <trkpt lat="49.79729" lon="4.79817">
        <ele>295</ele>
        <time>2021-03-30T10:26:02.000Z</time>
      </trkpt>
      <trkpt lat="49.79734" lon="4.79815">
        <ele>295</ele>
        <time>2021-03-30T10:26:03.000Z</time>
      </trkpt>
      <trkpt lat="49.79739" lon="4.79815">
        <ele>295</ele>
        <time>2021-03-30T10:26:04.000Z</time>
      </trkpt>
      <trkpt lat="49.79745" lon="4.79814">
        <ele>295</ele>
        <time>2021-03-30T10:26:05.000Z</time>
      </trkpt>
      <trkpt lat="49.7975" lon="4.79814">
        <ele>295</ele>
        <time>2021-03-30T10:26:06.000Z</time>
      </trkpt>
      <trkpt lat="49.79755" lon="4.79814">
        <ele>295</ele>
        <time>2021-03-30T10:26:07.000Z</time>
      </trkpt>
      <trkpt lat="49.7976" lon="4.79814">
        <ele>295</ele>
        <time>2021-03-30T10:26:08.000Z</time>
      </trkpt>
      <trkpt lat="49.79765" lon="4.79813">
        <ele>295</ele>
        <time>2021-03-30T10:26:09.000Z</time>
      </trkpt>
      <trkpt lat="49.79771" lon="4.79813">
        <ele>295</ele>
        <time>2021-03-30T10:26:10.000Z</time>
      </trkpt>
      <trkpt lat="49.79776" lon="4.79812">
        <ele>295</ele>
        <time>2021-03-30T10:26:11.000Z</time>
      </trkpt>
      <trkpt lat="49.79781" lon="4.79811">
        <ele>295</ele>
        <time>2021-03-30T10:26:12.000Z</time>
      </trkpt>
      <trkpt lat="49.79786" lon="4.79811">
        <ele>295</ele>
        <time>2021-03-30T10:26:13.000Z</time>
      </trkpt>
      <trkpt lat="49.79791" lon="4.79811">
        <ele>296</ele>
        <time>2021-03-30T10:26:14.000Z</time>
      </trkpt>
      <trkpt lat="49.79797" lon="4.79811">
        <ele>296</ele>
        <time>2021-03-30T10:26:15.000Z</time>
      </trkpt>
      <trkpt lat="49.79802" lon="4.79811">
        <ele>296</ele>
        <time>2021-03-30T10:26:16.000Z</time>
      </trkpt>
      <trkpt lat="49.79808" lon="4.79811">
        <ele>296</ele>
        <time>2021-03-30T10:26:17.000Z</time>
      </trkpt>
      <trkpt lat="49.79814" lon="4.79811">
        <ele>296</ele>
        <time>2021-03-30T10:26:18.000Z</time>
      </trkpt>
      <trkpt lat="49.7982" lon="4.7981">
        <ele>296</ele>
        <time>2021-03-30T10:26:19.000Z</time>
      </trkpt>
      <trkpt lat="49.79826" lon="4.79809">
        <ele>296</ele>
        <time>2021-03-30T10:26:20.000Z</time>
      </trkpt>
      <trkpt lat="49.79832" lon="4.79808">
        <ele>296</ele>
        <time>2021-03-30T10:26:21.000Z</time>
      </trkpt>
      <trkpt lat="49.79839" lon="4.79808">
        <ele>295</ele>
        <time>2021-03-30T10:26:22.000Z</time>
      </trkpt>
      <trkpt lat="49.79844" lon="4.79808">
        <ele>295</ele>
        <time>2021-03-30T10:26:23.000Z</time>
      </trkpt>
      <trkpt lat="49.7985" lon="4.79808">
        <ele>295</ele>
        <time>2021-03-30T10:26:24.000Z</time>
      </trkpt>
      <trkpt lat="49.79855" lon="4.79807">
        <ele>295</ele>
        <time>2021-03-30T10:26:25.000Z</time>
      </trkpt>
      <trkpt lat="49.7986" lon="4.79806">
        <ele>295</ele>
        <time>2021-03-30T10:26:26.000Z</time>
      </trkpt>
      <trkpt lat="49.79866" lon="4.79805">
        <ele>295</ele>
        <time>2021-03-30T10:26:27.000Z</time>
      </trkpt>
      <trkpt lat="49.79871" lon="4.79805">
        <ele>295</ele>
        <time>2021-03-30T10:26:28.000Z</time>
      </trkpt>
      <trkpt lat="49.79876" lon="4.79804">
        <ele>295</ele>
        <time>2021-03-30T10:26:29.000Z</time>
      </trkpt>
      <trkpt lat="49.79881" lon="4.79803">
        <ele>295</ele>
        <time>2021-03-30T10:26:30.000Z</time>
      </trkpt>
      <trkpt lat="49.79885" lon="4.79803">
        <ele>294</ele>
        <time>2021-03-30T10:26:31.000Z</time>
      </trkpt>
      <trkpt lat="49.7989" lon="4.79803">
        <ele>294</ele>
        <time>2021-03-30T10:26:32.000Z</time>
      </trkpt>
      <trkpt lat="49.79895" lon="4.79803">
        <ele>294</ele>
        <time>2021-03-30T10:26:33.000Z</time>
      </trkpt>
      <trkpt lat="49.799" lon="4.79802">
        <ele>294</ele>
        <time>2021-03-30T10:26:34.000Z</time>
      </trkpt>
      <trkpt lat="49.79905" lon="4.79801">
        <ele>294</ele>
        <time>2021-03-30T10:26:35.000Z</time>
      </trkpt>
      <trkpt lat="49.7991" lon="4.79801">
        <ele>294</ele>
        <time>2021-03-30T10:26:36.000Z</time>
      </trkpt>
      <trkpt lat="49.79915" lon="4.79801">
        <ele>294</ele>
        <time>2021-03-30T10:26:37.000Z</time>
      </trkpt>
      <trkpt lat="49.7992" lon="4.79801">
        <ele>294</ele>
        <time>2021-03-30T10:26:38.000Z</time>
      </trkpt>
      <trkpt lat="49.79925" lon="4.79799">
        <ele>294</ele>
        <time>2021-03-30T10:26:39.000Z</time>
      </trkpt>
      <trkpt lat="49.79929" lon="4.79799">
        <ele>294</ele>
        <time>2021-03-30T10:26:40.000Z</time>
      </trkpt>
      <trkpt lat="49.79934" lon="4.79799">
        <ele>295</ele>
        <time>2021-03-30T10:26:41.000Z</time>
      </trkpt>
      <trkpt lat="49.79939" lon="4.79798">
        <ele>295</ele>
        <time>2021-03-30T10:26:42.000Z</time>
      </trkpt>
      <trkpt lat="49.79944" lon="4.79798">
        <ele>295</ele>
        <time>2021-03-30T10:26:43.000Z</time>
      </trkpt>
      <trkpt lat="49.79949" lon="4.79798">
        <ele>295</ele>
        <time>2021-03-30T10:26:44.000Z</time>
      </trkpt>
      <trkpt lat="49.79954" lon="4.79797">
        <ele>295</ele>
        <time>2021-03-30T10:26:45.000Z</time>
      </trkpt>
      <trkpt lat="49.7996" lon="4.79797">
        <ele>295</ele>
        <time>2021-03-30T10:26:46.000Z</time>
      </trkpt>
      <trkpt lat="49.79966" lon="4.79796">
        <ele>295</ele>
        <time>2021-03-30T10:26:47.000Z</time>
      </trkpt>
      <trkpt lat="49.79972" lon="4.79796">
        <ele>295</ele>
        <time>2021-03-30T10:26:48.000Z</time>
      </trkpt>
      <trkpt lat="49.79977" lon="4.79795">
        <ele>295</ele>
        <time>2021-03-30T10:26:49.000Z</time>
      </trkpt>
      <trkpt lat="49.79982" lon="4.79795">
        <ele>295</ele>
        <time>2021-03-30T10:26:50.000Z</time>
      </trkpt>
      <trkpt lat="49.79987" lon="4.79795">
        <ele>295</ele>
        <time>2021-03-30T10:26:51.000Z</time>
      </trkpt>
      <trkpt lat="49.79992" lon="4.79795">
        <ele>295</ele>
        <time>2021-03-30T10:26:52.000Z</time>
      </trkpt>
      <trkpt lat="49.79998" lon="4.79794">
        <ele>295</ele>
        <time>2021-03-30T10:26:53.000Z</time>
      </trkpt>
      <trkpt lat="49.80003" lon="4.79793">
        <ele>295</ele>
        <time>2021-03-30T10:26:54.000Z</time>
      </trkpt>
      <trkpt lat="49.80009" lon="4.79793">
        <ele>295</ele>
        <time>2021-03-30T10:26:55.000Z</time>
      </trkpt>
      <trkpt lat="49.80015" lon="4.79793">
        <ele>295</ele>
        <time>2021-03-30T10:26:56.000Z</time>
      </trkpt>
      <trkpt lat="49.8002" lon="4.79794">
        <ele>294</ele>
        <time>2021-03-30T10:26:57.000Z</time>
      </trkpt>
      <trkpt lat="49.80026" lon="4.79794">
        <ele>294</ele>
        <time>2021-03-30T10:26:58.000Z</time>
      </trkpt>
      <trkpt lat="49.80031" lon="4.79793">
        <ele>294</ele>
        <time>2021-03-30T10:26:59.000Z</time>
      </trkpt>
      <trkpt lat="49.80036" lon="4.79792">
        <ele>295</ele>
        <time>2021-03-30T10:27:00.000Z</time>
      </trkpt>
      <trkpt lat="49.80041" lon="4.79792">
        <ele>294</ele>
        <time>2021-03-30T10:27:01.000Z</time>
      </trkpt>
      <trkpt lat="49.80046" lon="4.79792">
        <ele>294</ele>
        <time>2021-03-30T10:27:02.000Z</time>
      </trkpt>
      <trkpt lat="49.80051" lon="4.79792">
        <ele>294</ele>
        <time>2021-03-30T10:27:03.000Z</time>
      </trkpt>
      <trkpt lat="49.80055" lon="4.7979">
        <ele>294</ele>
        <time>2021-03-30T10:27:04.000Z</time>
      </trkpt>
      <trkpt lat="49.8006" lon="4.79789">
        <ele>295</ele>
        <time>2021-03-30T10:27:05.000Z</time>
      </trkpt>
      <trkpt lat="49.80065" lon="4.79788">
        <ele>295</ele>
        <time>2021-03-30T10:27:06.000Z</time>
      </trkpt>
      <trkpt lat="49.8007" lon="4.79787">
        <ele>295</ele>
        <time>2021-03-30T10:27:07.000Z</time>
      </trkpt>
      <trkpt lat="49.80076" lon="4.79787">
        <ele>295</ele>
        <time>2021-03-30T10:27:08.000Z</time>
      </trkpt>
      <trkpt lat="49.80082" lon="4.79787">
        <ele>295</ele>
        <time>2021-03-30T10:27:09.000Z</time>
      </trkpt>
      <trkpt lat="49.80088" lon="4.79786">
        <ele>295</ele>
        <time>2021-03-30T10:27:10.000Z</time>
      </trkpt>
      <trkpt lat="49.80094" lon="4.79786">
        <ele>294</ele>
        <time>2021-03-30T10:27:11.000Z</time>
      </trkpt>
      <trkpt lat="49.80101" lon="4.79785">
        <ele>294</ele>
        <time>2021-03-30T10:27:12.000Z</time>
      </trkpt>
      <trkpt lat="49.80107" lon="4.79785">
        <ele>294</ele>
        <time>2021-03-30T10:27:13.000Z</time>
      </trkpt>
      <trkpt lat="49.80113" lon="4.79783">
        <ele>294</ele>
        <time>2021-03-30T10:27:14.000Z</time>
      </trkpt>
      <trkpt lat="49.8012" lon="4.79782">
        <ele>294</ele>
        <time>2021-03-30T10:27:15.000Z</time>
      </trkpt>
      <trkpt lat="49.80127" lon="4.79781">
        <ele>294</ele>
        <time>2021-03-30T10:27:16.000Z</time>
      </trkpt>
      <trkpt lat="49.80133" lon="4.79781">
        <ele>293</ele>
        <time>2021-03-30T10:27:17.000Z</time>
      </trkpt>
      <trkpt lat="49.8014" lon="4.7978">
        <ele>293</ele>
        <time>2021-03-30T10:27:18.000Z</time>
      </trkpt>
      <trkpt lat="49.80145" lon="4.79779">
        <ele>293</ele>
        <time>2021-03-30T10:27:19.000Z</time>
      </trkpt>
      <trkpt lat="49.8015" lon="4.79778">
        <ele>293</ele>
        <time>2021-03-30T10:27:20.000Z</time>
      </trkpt>
      <trkpt lat="49.80156" lon="4.79777">
        <ele>292</ele>
        <time>2021-03-30T10:27:21.000Z</time>
      </trkpt>
      <trkpt lat="49.80162" lon="4.79778">
        <ele>292</ele>
        <time>2021-03-30T10:27:22.000Z</time>
      </trkpt>
      <trkpt lat="49.80167" lon="4.79778">
        <ele>292</ele>
        <time>2021-03-30T10:27:23.000Z</time>
      </trkpt>
      <trkpt lat="49.80172" lon="4.79778">
        <ele>292</ele>
        <time>2021-03-30T10:27:24.000Z</time>
      </trkpt>
      <trkpt lat="49.80176" lon="4.79777">
        <ele>291</ele>
        <time>2021-03-30T10:27:25.000Z</time>
      </trkpt>
      <trkpt lat="49.80179" lon="4.79775">
        <ele>291</ele>
        <time>2021-03-30T10:27:26.000Z</time>
      </trkpt>
      <trkpt lat="49.80183" lon="4.79774">
        <ele>291</ele>
        <time>2021-03-30T10:27:27.000Z</time>
      </trkpt>
      <trkpt lat="49.80185" lon="4.79774">
        <ele>291</ele>
        <time>2021-03-30T10:27:28.000Z</time>
      </trkpt>
      <trkpt lat="49.80187" lon="4.79775">
        <ele>291</ele>
        <time>2021-03-30T10:27:29.000Z</time>
      </trkpt>
      <trkpt lat="49.80189" lon="4.79776">
        <ele>290</ele>
        <time>2021-03-30T10:27:30.000Z</time>
      </trkpt>
      <trkpt lat="49.8019" lon="4.79778">
        <ele>290</ele>
        <time>2021-03-30T10:27:31.000Z</time>
      </trkpt>
      <trkpt lat="49.80191" lon="4.79781">
        <ele>290</ele>
        <time>2021-03-30T10:27:32.000Z</time>
      </trkpt>
      <trkpt lat="49.80191" lon="4.79784">
        <ele>290</ele>
        <time>2021-03-30T10:27:33.000Z</time>
      </trkpt>
      <trkpt lat="49.80191" lon="4.79786">
        <ele>290</ele>
        <time>2021-03-30T10:27:34.000Z</time>
      </trkpt>
      <trkpt lat="49.8019" lon="4.79788">
        <ele>290</ele>
        <time>2021-03-30T10:27:35.000Z</time>
      </trkpt>
      <trkpt lat="49.80189" lon="4.79791">
        <ele>289</ele>
        <time>2021-03-30T10:27:36.000Z</time>
      </trkpt>
      <trkpt lat="49.80188" lon="4.79794">
        <ele>289</ele>
        <time>2021-03-30T10:27:37.000Z</time>
      </trkpt>
      <trkpt lat="49.80188" lon="4.79796">
        <ele>289</ele>
        <time>2021-03-30T10:27:38.000Z</time>
      </trkpt>
      <trkpt lat="49.80187" lon="4.79799">
        <ele>289</ele>
        <time>2021-03-30T10:27:39.000Z</time>
      </trkpt>
      <trkpt lat="49.80186" lon="4.79802">
        <ele>289</ele>
        <time>2021-03-30T10:27:40.000Z</time>
      </trkpt>
      <trkpt lat="49.80186" lon="4.79805">
        <ele>289</ele>
        <time>2021-03-30T10:27:41.000Z</time>
      </trkpt>
      <trkpt lat="49.80185" lon="4.79808">
        <ele>289</ele>
        <time>2021-03-30T10:27:42.000Z</time>
      </trkpt>
      <trkpt lat="49.80185" lon="4.79811">
        <ele>289</ele>
        <time>2021-03-30T10:27:43.000Z</time>
      </trkpt>
      <trkpt lat="49.80185" lon="4.79812">
        <ele>289</ele>
        <time>2021-03-30T10:27:44.000Z</time>
      </trkpt>
      <trkpt lat="49.80187" lon="4.79815">
        <ele>289</ele>
        <time>2021-03-30T10:27:45.000Z</time>
      </trkpt>
      <trkpt lat="49.80189" lon="4.79817">
        <ele>289</ele>
        <time>2021-03-30T10:27:46.000Z</time>
      </trkpt>
      <trkpt lat="49.80191" lon="4.79818">
        <ele>289</ele>
        <time>2021-03-30T10:27:47.000Z</time>
      </trkpt>
      <trkpt lat="49.80193" lon="4.79818">
        <ele>289</ele>
        <time>2021-03-30T10:27:48.000Z</time>
      </trkpt>
      <trkpt lat="49.80196" lon="4.79816">
        <ele>289</ele>
        <time>2021-03-30T10:27:49.000Z</time>
      </trkpt>
      <trkpt lat="49.80198" lon="4.79816">
        <ele>289</ele>
        <time>2021-03-30T10:27:50.000Z</time>
      </trkpt>
      <trkpt lat="49.802" lon="4.79816">
        <ele>289</ele>
        <time>2021-03-30T10:27:51.000Z</time>
      </trkpt>
      <trkpt lat="49.80202" lon="4.79818">
        <ele>289</ele>
        <time>2021-03-30T10:27:52.000Z</time>
      </trkpt>
      <trkpt lat="49.80204" lon="4.79819">
        <ele>289</ele>
        <time>2021-03-30T10:27:53.000Z</time>
      </trkpt>
      <trkpt lat="49.80205" lon="4.79819">
        <ele>289</ele>
        <time>2021-03-30T10:27:54.000Z</time>
      </trkpt>
      <trkpt lat="49.80208" lon="4.79819">
        <ele>289</ele>
        <time>2021-03-30T10:27:55.000Z</time>
      </trkpt>
      <trkpt lat="49.8021" lon="4.79819">
        <ele>289</ele>
        <time>2021-03-30T10:27:56.000Z</time>
      </trkpt>
      <trkpt lat="49.80213" lon="4.7982">
        <ele>289</ele>
        <time>2021-03-30T10:27:57.000Z</time>
      </trkpt>
      <trkpt lat="49.80216" lon="4.79821">
        <ele>289</ele>
        <time>2021-03-30T10:27:58.000Z</time>
      </trkpt>
      <trkpt lat="49.80218" lon="4.79821">
        <ele>289</ele>
        <time>2021-03-30T10:27:59.000Z</time>
      </trkpt>
      <trkpt lat="49.8022" lon="4.79821">
        <ele>289</ele>
        <time>2021-03-30T10:28:00.000Z</time>
      </trkpt>
      <trkpt lat="49.80222" lon="4.79821">
        <ele>289</ele>
        <time>2021-03-30T10:28:01.000Z</time>
      </trkpt>
      <trkpt lat="49.80224" lon="4.79821">
        <ele>289</ele>
        <time>2021-03-30T10:28:02.000Z</time>
      </trkpt>
      <trkpt lat="49.80227" lon="4.79822">
        <ele>290</ele>
        <time>2021-03-30T10:28:03.000Z</time>
      </trkpt>
      <trkpt lat="49.80229" lon="4.79823">
        <ele>290</ele>
        <time>2021-03-30T10:28:04.000Z</time>
      </trkpt>
      <trkpt lat="49.80231" lon="4.79824">
        <ele>290</ele>
        <time>2021-03-30T10:28:05.000Z</time>
      </trkpt>
      <trkpt lat="49.80234" lon="4.79824">
        <ele>290</ele>
        <time>2021-03-30T10:28:06.000Z</time>
      </trkpt>
      <trkpt lat="49.80236" lon="4.79824">
        <ele>290</ele>
        <time>2021-03-30T10:28:07.000Z</time>
      </trkpt>
      <trkpt lat="49.80238" lon="4.79824">
        <ele>290</ele>
        <time>2021-03-30T10:28:08.000Z</time>
      </trkpt>
      <trkpt lat="49.8024" lon="4.79825">
        <ele>290</ele>
        <time>2021-03-30T10:28:09.000Z</time>
      </trkpt>
      <trkpt lat="49.80242" lon="4.79825">
        <ele>290</ele>
        <time>2021-03-30T10:28:10.000Z</time>
      </trkpt>
      <trkpt lat="49.80243" lon="4.79825">
        <ele>290</ele>
        <time>2021-03-30T10:28:11.000Z</time>
      </trkpt>
      <trkpt lat="49.80245" lon="4.79826">
        <ele>290</ele>
        <time>2021-03-30T10:28:12.000Z</time>
      </trkpt>
      <trkpt lat="49.80248" lon="4.79826">
        <ele>290</ele>
        <time>2021-03-30T10:28:13.000Z</time>
      </trkpt>
      <trkpt lat="49.80251" lon="4.79826">
        <ele>290</ele>
        <time>2021-03-30T10:28:14.000Z</time>
      </trkpt>
      <trkpt lat="49.80254" lon="4.79826">
        <ele>290</ele>
        <time>2021-03-30T10:28:15.000Z</time>
      </trkpt>
      <trkpt lat="49.80256" lon="4.79826">
        <ele>290</ele>
        <time>2021-03-30T10:28:16.000Z</time>
      </trkpt>
      <trkpt lat="49.80258" lon="4.79826">
        <ele>290</ele>
        <time>2021-03-30T10:28:17.000Z</time>
      </trkpt>
      <trkpt lat="49.80261" lon="4.79827">
        <ele>290</ele>
        <time>2021-03-30T10:28:18.000Z</time>
      </trkpt>
      <trkpt lat="49.80264" lon="4.79827">
        <ele>291</ele>
        <time>2021-03-30T10:28:19.000Z</time>
      </trkpt>
      <trkpt lat="49.80267" lon="4.79827">
        <ele>291</ele>
        <time>2021-03-30T10:28:20.000Z</time>
      </trkpt>
      <trkpt lat="49.80269" lon="4.79827">
        <ele>291</ele>
        <time>2021-03-30T10:28:21.000Z</time>
      </trkpt>
      <trkpt lat="49.80271" lon="4.79828">
        <ele>291</ele>
        <time>2021-03-30T10:28:22.000Z</time>
      </trkpt>
      <trkpt lat="49.80274" lon="4.79829">
        <ele>291</ele>
        <time>2021-03-30T10:28:23.000Z</time>
      </trkpt>
      <trkpt lat="49.80276" lon="4.79829">
        <ele>290</ele>
        <time>2021-03-30T10:28:24.000Z</time>
      </trkpt>
      <trkpt lat="49.80277" lon="4.7983">
        <ele>290</ele>
        <time>2021-03-30T10:28:25.000Z</time>
      </trkpt>
      <trkpt lat="49.80279" lon="4.7983">
        <ele>290</ele>
        <time>2021-03-30T10:28:26.000Z</time>
      </trkpt>
      <trkpt lat="49.80281" lon="4.7983">
        <ele>290</ele>
        <time>2021-03-30T10:28:27.000Z</time>
      </trkpt>
      <trkpt lat="49.80283" lon="4.79832">
        <ele>290</ele>
        <time>2021-03-30T10:28:28.000Z</time>
      </trkpt>
      <trkpt lat="49.80285" lon="4.79834">
        <ele>291</ele>
        <time>2021-03-30T10:28:29.000Z</time>
      </trkpt>
      <trkpt lat="49.80287" lon="4.79836">
        <ele>291</ele>
        <time>2021-03-30T10:28:30.000Z</time>
      </trkpt>
      <trkpt lat="49.80288" lon="4.79838">
        <ele>291</ele>
        <time>2021-03-30T10:28:31.000Z</time>
      </trkpt>
      <trkpt lat="49.80289" lon="4.79841">
        <ele>291</ele>
        <time>2021-03-30T10:28:32.000Z</time>
      </trkpt>
      <trkpt lat="49.8029" lon="4.79843">
        <ele>291</ele>
        <time>2021-03-30T10:28:33.000Z</time>
      </trkpt>
      <trkpt lat="49.80291" lon="4.79845">
        <ele>291</ele>
        <time>2021-03-30T10:28:34.000Z</time>
      </trkpt>
      <trkpt lat="49.80293" lon="4.79847">
        <ele>291</ele>
        <time>2021-03-30T10:28:35.000Z</time>
      </trkpt>
      <trkpt lat="49.80294" lon="4.79848">
        <ele>291</ele>
        <time>2021-03-30T10:28:36.000Z</time>
      </trkpt>
      <trkpt lat="49.80296" lon="4.7985">
        <ele>292</ele>
        <time>2021-03-30T10:28:37.000Z</time>
      </trkpt>
      <trkpt lat="49.80298" lon="4.79853">
        <ele>292</ele>
        <time>2021-03-30T10:28:38.000Z</time>
      </trkpt>
      <trkpt lat="49.803" lon="4.79856">
        <ele>292</ele>
        <time>2021-03-30T10:28:39.000Z</time>
      </trkpt>
      <trkpt lat="49.80303" lon="4.79859">
        <ele>292</ele>
        <time>2021-03-30T10:28:40.000Z</time>
      </trkpt>
      <trkpt lat="49.80305" lon="4.79862">
        <ele>292</ele>
        <time>2021-03-30T10:28:41.000Z</time>
      </trkpt>
      <trkpt lat="49.80307" lon="4.79865">
        <ele>292</ele>
        <time>2021-03-30T10:28:42.000Z</time>
      </trkpt>
      <trkpt lat="49.8031" lon="4.79869">
        <ele>292</ele>
        <time>2021-03-30T10:28:43.000Z</time>
      </trkpt>
      <trkpt lat="49.80311" lon="4.79873">
        <ele>292</ele>
        <time>2021-03-30T10:28:44.000Z</time>
      </trkpt>
      <trkpt lat="49.80311" lon="4.79878">
        <ele>292</ele>
        <time>2021-03-30T10:28:45.000Z</time>
      </trkpt>
      <trkpt lat="49.80311" lon="4.79882">
        <ele>292</ele>
        <time>2021-03-30T10:28:46.000Z</time>
      </trkpt>
      <trkpt lat="49.8031" lon="4.79887">
        <ele>291</ele>
        <time>2021-03-30T10:28:47.000Z</time>
      </trkpt>
      <trkpt lat="49.80309" lon="4.79892">
        <ele>291</ele>
        <time>2021-03-30T10:28:48.000Z</time>
      </trkpt>
      <trkpt lat="49.80308" lon="4.79897">
        <ele>291</ele>
        <time>2021-03-30T10:28:49.000Z</time>
      </trkpt>
      <trkpt lat="49.80307" lon="4.79902">
        <ele>291</ele>
        <time>2021-03-30T10:28:50.000Z</time>
      </trkpt>
      <trkpt lat="49.80307" lon="4.79906">
        <ele>291</ele>
        <time>2021-03-30T10:28:51.000Z</time>
      </trkpt>
      <trkpt lat="49.80306" lon="4.79912">
        <ele>291</ele>
        <time>2021-03-30T10:28:52.000Z</time>
      </trkpt>
      <trkpt lat="49.80306" lon="4.79918">
        <ele>291</ele>
        <time>2021-03-30T10:28:53.000Z</time>
      </trkpt>
      <trkpt lat="49.80305" lon="4.79923">
        <ele>291</ele>
        <time>2021-03-30T10:28:54.000Z</time>
      </trkpt>
      <trkpt lat="49.80305" lon="4.79928">
        <ele>291</ele>
        <time>2021-03-30T10:28:55.000Z</time>
      </trkpt>
      <trkpt lat="49.80304" lon="4.79934">
        <ele>291</ele>
        <time>2021-03-30T10:28:56.000Z</time>
      </trkpt>
      <trkpt lat="49.80304" lon="4.7994">
        <ele>291</ele>
        <time>2021-03-30T10:28:57.000Z</time>
      </trkpt>
      <trkpt lat="49.80303" lon="4.79946">
        <ele>291</ele>
        <time>2021-03-30T10:28:58.000Z</time>
      </trkpt>
      <trkpt lat="49.80303" lon="4.79952">
        <ele>291</ele>
        <time>2021-03-30T10:28:59.000Z</time>
      </trkpt>
      <trkpt lat="49.80302" lon="4.79959">
        <ele>291</ele>
        <time>2021-03-30T10:29:00.000Z</time>
      </trkpt>
      <trkpt lat="49.80301" lon="4.79966">
        <ele>291</ele>
        <time>2021-03-30T10:29:01.000Z</time>
      </trkpt>
      <trkpt lat="49.803" lon="4.79972">
        <ele>291</ele>
        <time>2021-03-30T10:29:02.000Z</time>
      </trkpt>
      <trkpt lat="49.80298" lon="4.7998">
        <ele>291</ele>
        <time>2021-03-30T10:29:03.000Z</time>
      </trkpt>
      <trkpt lat="49.80297" lon="4.79987">
        <ele>291</ele>
        <time>2021-03-30T10:29:04.000Z</time>
      </trkpt>
      <trkpt lat="49.80297" lon="4.79993">
        <ele>291</ele>
        <time>2021-03-30T10:29:05.000Z</time>
      </trkpt>
      <trkpt lat="49.80296" lon="4.8">
        <ele>291</ele>
        <time>2021-03-30T10:29:06.000Z</time>
      </trkpt>
      <trkpt lat="49.80295" lon="4.80006">
        <ele>291</ele>
        <time>2021-03-30T10:29:07.000Z</time>
      </trkpt>
      <trkpt lat="49.80294" lon="4.80012">
        <ele>291</ele>
        <time>2021-03-30T10:29:08.000Z</time>
      </trkpt>
      <trkpt lat="49.80293" lon="4.80017">
        <ele>291</ele>
        <time>2021-03-30T10:29:09.000Z</time>
      </trkpt>
      <trkpt lat="49.80291" lon="4.80022">
        <ele>291</ele>
        <time>2021-03-30T10:29:10.000Z</time>
      </trkpt>
      <trkpt lat="49.80292" lon="4.80028">
        <ele>291</ele>
        <time>2021-03-30T10:29:11.000Z</time>
      </trkpt>
      <trkpt lat="49.80293" lon="4.80034">
        <ele>291</ele>
        <time>2021-03-30T10:29:12.000Z</time>
      </trkpt>
      <trkpt lat="49.80295" lon="4.80042">
        <ele>291</ele>
        <time>2021-03-30T10:29:13.000Z</time>
      </trkpt>
      <trkpt lat="49.80298" lon="4.8005">
        <ele>291</ele>
        <time>2021-03-30T10:29:14.000Z</time>
      </trkpt>
      <trkpt lat="49.803" lon="4.80058">
        <ele>291</ele>
        <time>2021-03-30T10:29:15.000Z</time>
      </trkpt>
      <trkpt lat="49.80302" lon="4.80066">
        <ele>291</ele>
        <time>2021-03-30T10:29:16.000Z</time>
      </trkpt>
      <trkpt lat="49.80304" lon="4.80074">
        <ele>291</ele>
        <time>2021-03-30T10:29:17.000Z</time>
      </trkpt>
      <trkpt lat="49.80306" lon="4.80082">
        <ele>290</ele>
        <time>2021-03-30T10:29:18.000Z</time>
      </trkpt>
      <trkpt lat="49.80309" lon="4.80091">
        <ele>290</ele>
        <time>2021-03-30T10:29:19.000Z</time>
      </trkpt>
      <trkpt lat="49.80311" lon="4.80099">
        <ele>290</ele>
        <time>2021-03-30T10:29:20.000Z</time>
      </trkpt>
      <trkpt lat="49.80314" lon="4.80107">
        <ele>290</ele>
        <time>2021-03-30T10:29:21.000Z</time>
      </trkpt>
      <trkpt lat="49.80316" lon="4.80115">
        <ele>289</ele>
        <time>2021-03-30T10:29:22.000Z</time>
      </trkpt>
      <trkpt lat="49.80318" lon="4.80123">
        <ele>289</ele>
        <time>2021-03-30T10:29:23.000Z</time>
      </trkpt>
      <trkpt lat="49.8032" lon="4.80131">
        <ele>289</ele>
        <time>2021-03-30T10:29:24.000Z</time>
      </trkpt>
      <trkpt lat="49.80322" lon="4.80138">
        <ele>289</ele>
        <time>2021-03-30T10:29:25.000Z</time>
      </trkpt>
      <trkpt lat="49.80324" lon="4.80145">
        <ele>288</ele>
        <time>2021-03-30T10:29:26.000Z</time>
      </trkpt>
      <trkpt lat="49.80326" lon="4.80153">
        <ele>288</ele>
        <time>2021-03-30T10:29:27.000Z</time>
      </trkpt>
      <trkpt lat="49.80327" lon="4.80162">
        <ele>288</ele>
        <time>2021-03-30T10:29:28.000Z</time>
      </trkpt>
      <trkpt lat="49.80327" lon="4.8017">
        <ele>287</ele>
        <time>2021-03-30T10:29:29.000Z</time>
      </trkpt>
      <trkpt lat="49.80328" lon="4.80178">
        <ele>287</ele>
        <time>2021-03-30T10:29:30.000Z</time>
      </trkpt>
      <trkpt lat="49.80329" lon="4.80187">
        <ele>287</ele>
        <time>2021-03-30T10:29:31.000Z</time>
      </trkpt>
      <trkpt lat="49.8033" lon="4.80196">
        <ele>286</ele>
        <time>2021-03-30T10:29:32.000Z</time>
      </trkpt>
      <trkpt lat="49.8033" lon="4.80205">
        <ele>286</ele>
        <time>2021-03-30T10:29:33.000Z</time>
      </trkpt>
      <trkpt lat="49.80331" lon="4.80213">
        <ele>285</ele>
        <time>2021-03-30T10:29:34.000Z</time>
      </trkpt>
      <trkpt lat="49.80331" lon="4.80221">
        <ele>285</ele>
        <time>2021-03-30T10:29:35.000Z</time>
      </trkpt>
      <trkpt lat="49.80331" lon="4.80229">
        <ele>285</ele>
        <time>2021-03-30T10:29:36.000Z</time>
      </trkpt>
      <trkpt lat="49.80331" lon="4.80237">
        <ele>284</ele>
        <time>2021-03-30T10:29:37.000Z</time>
      </trkpt>
      <trkpt lat="49.80332" lon="4.80245">
        <ele>284</ele>
        <time>2021-03-30T10:29:38.000Z</time>
      </trkpt>
      <trkpt lat="49.80331" lon="4.80253">
        <ele>283</ele>
        <time>2021-03-30T10:29:39.000Z</time>
      </trkpt>
      <trkpt lat="49.80331" lon="4.80261">
        <ele>283</ele>
        <time>2021-03-30T10:29:40.000Z</time>
      </trkpt>
      <trkpt lat="49.80331" lon="4.80269">
        <ele>282</ele>
        <time>2021-03-30T10:29:41.000Z</time>
      </trkpt>
      <trkpt lat="49.80329" lon="4.80276">
        <ele>282</ele>
        <time>2021-03-30T10:29:42.000Z</time>
      </trkpt>
      <trkpt lat="49.80327" lon="4.80283">
        <ele>281</ele>
        <time>2021-03-30T10:29:43.000Z</time>
      </trkpt>
      <trkpt lat="49.80325" lon="4.80291">
        <ele>281</ele>
        <time>2021-03-30T10:29:44.000Z</time>
      </trkpt>
      <trkpt lat="49.80323" lon="4.80301">
        <ele>281</ele>
        <time>2021-03-30T10:29:45.000Z</time>
      </trkpt>
      <trkpt lat="49.80321" lon="4.80312">
        <ele>280</ele>
        <time>2021-03-30T10:29:46.000Z</time>
      </trkpt>
      <trkpt lat="49.80318" lon="4.80323">
        <ele>279</ele>
        <time>2021-03-30T10:29:47.000Z</time>
      </trkpt>
      <trkpt lat="49.80315" lon="4.80332">
        <ele>279</ele>
        <time>2021-03-30T10:29:48.000Z</time>
      </trkpt>
      <trkpt lat="49.80313" lon="4.8034">
        <ele>278</ele>
        <time>2021-03-30T10:29:49.000Z</time>
      </trkpt>
      <trkpt lat="49.80311" lon="4.80349">
        <ele>277</ele>
        <time>2021-03-30T10:29:50.000Z</time>
      </trkpt>
      <trkpt lat="49.80309" lon="4.80356">
        <ele>277</ele>
        <time>2021-03-30T10:29:51.000Z</time>
      </trkpt>
      <trkpt lat="49.80306" lon="4.80361">
        <ele>276</ele>
        <time>2021-03-30T10:29:52.000Z</time>
      </trkpt>
      <trkpt lat="49.80303" lon="4.80363">
        <ele>276</ele>
        <time>2021-03-30T10:29:53.000Z</time>
      </trkpt>
      <trkpt lat="49.803" lon="4.80366">
        <ele>275</ele>
        <time>2021-03-30T10:29:54.000Z</time>
      </trkpt>
      <trkpt lat="49.80296" lon="4.8037">
        <ele>274</ele>
        <time>2021-03-30T10:29:55.000Z</time>
      </trkpt>
      <trkpt lat="49.80294" lon="4.80375">
        <ele>274</ele>
        <time>2021-03-30T10:29:56.000Z</time>
      </trkpt>
      <trkpt lat="49.80293" lon="4.80379">
        <ele>273</ele>
        <time>2021-03-30T10:29:57.000Z</time>
      </trkpt>
      <trkpt lat="49.80291" lon="4.80383">
        <ele>273</ele>
        <time>2021-03-30T10:29:58.000Z</time>
      </trkpt>
      <trkpt lat="49.80289" lon="4.80388">
        <ele>272</ele>
        <time>2021-03-30T10:29:59.000Z</time>
      </trkpt>
      <trkpt lat="49.80286" lon="4.80392">
        <ele>272</ele>
        <time>2021-03-30T10:30:00.000Z</time>
      </trkpt>
      <trkpt lat="49.80282" lon="4.80396">
        <ele>272</ele>
        <time>2021-03-30T10:30:01.000Z</time>
      </trkpt>
      <trkpt lat="49.80279" lon="4.804">
        <ele>271</ele>
        <time>2021-03-30T10:30:02.000Z</time>
      </trkpt>
      <trkpt lat="49.80277" lon="4.80403">
        <ele>271</ele>
        <time>2021-03-30T10:30:03.000Z</time>
      </trkpt>
      <trkpt lat="49.80274" lon="4.80406">
        <ele>271</ele>
        <time>2021-03-30T10:30:04.000Z</time>
      </trkpt>
      <trkpt lat="49.80272" lon="4.80408">
        <ele>271</ele>
        <time>2021-03-30T10:30:05.000Z</time>
      </trkpt>
      <trkpt lat="49.8027" lon="4.8041">
        <ele>271</ele>
        <time>2021-03-30T10:30:06.000Z</time>
      </trkpt>
      <trkpt lat="49.80269" lon="4.80411">
        <ele>270</ele>
        <time>2021-03-30T10:30:07.000Z</time>
      </trkpt>
      <trkpt lat="49.80267" lon="4.80413">
        <ele>270</ele>
        <time>2021-03-30T10:30:08.000Z</time>
      </trkpt>
      <trkpt lat="49.80266" lon="4.80415">
        <ele>270</ele>
        <time>2021-03-30T10:30:09.000Z</time>
      </trkpt>
      <trkpt lat="49.80265" lon="4.80417">
        <ele>270</ele>
        <time>2021-03-30T10:30:10.000Z</time>
      </trkpt>
      <trkpt lat="49.80265" lon="4.80419">
        <ele>269</ele>
        <time>2021-03-30T10:30:11.000Z</time>
      </trkpt>
      <trkpt lat="49.80266" lon="4.8042">
        <ele>269</ele>
        <time>2021-03-30T10:30:12.000Z</time>
      </trkpt>
      <trkpt lat="49.80267" lon="4.8042">
        <ele>269</ele>
        <time>2021-03-30T10:30:13.000Z</time>
      </trkpt>
      <trkpt lat="49.80268" lon="4.80422">
        <ele>268</ele>
        <time>2021-03-30T10:30:14.000Z</time>
      </trkpt>
      <trkpt lat="49.80272" lon="4.80424">
        <ele>268</ele>
        <time>2021-03-30T10:30:15.000Z</time>
      </trkpt>
      <trkpt lat="49.80276" lon="4.80425">
        <ele>268</ele>
        <time>2021-03-30T10:30:16.000Z</time>
      </trkpt>
      <trkpt lat="49.80281" lon="4.80427">
        <ele>267</ele>
        <time>2021-03-30T10:30:17.000Z</time>
      </trkpt>
      <trkpt lat="49.80285" lon="4.80428">
        <ele>267</ele>
        <time>2021-03-30T10:30:18.000Z</time>
      </trkpt>
      <trkpt lat="49.80288" lon="4.80429">
        <ele>267</ele>
        <time>2021-03-30T10:30:19.000Z</time>
      </trkpt>
      <trkpt lat="49.80291" lon="4.80429">
        <ele>267</ele>
        <time>2021-03-30T10:30:20.000Z</time>
      </trkpt>
      <trkpt lat="49.80293" lon="4.80429">
        <ele>266</ele>
        <time>2021-03-30T10:30:21.000Z</time>
      </trkpt>
      <trkpt lat="49.80295" lon="4.8043">
        <ele>266</ele>
        <time>2021-03-30T10:30:22.000Z</time>
      </trkpt>
      <trkpt lat="49.80298" lon="4.80431">
        <ele>266</ele>
        <time>2021-03-30T10:30:23.000Z</time>
      </trkpt>
      <trkpt lat="49.80301" lon="4.80431">
        <ele>266</ele>
        <time>2021-03-30T10:30:24.000Z</time>
      </trkpt>
      <trkpt lat="49.80304" lon="4.80431">
        <ele>266</ele>
        <time>2021-03-30T10:30:25.000Z</time>
      </trkpt>
      <trkpt lat="49.80307" lon="4.80431">
        <ele>265</ele>
        <time>2021-03-30T10:30:26.000Z</time>
      </trkpt>
      <trkpt lat="49.80311" lon="4.80431">
        <ele>265</ele>
        <time>2021-03-30T10:30:27.000Z</time>
      </trkpt>
      <trkpt lat="49.80314" lon="4.80431">
        <ele>265</ele>
        <time>2021-03-30T10:30:28.000Z</time>
      </trkpt>
      <trkpt lat="49.80317" lon="4.80432">
        <ele>264</ele>
        <time>2021-03-30T10:30:29.000Z</time>
      </trkpt>
      <trkpt lat="49.8032" lon="4.80432">
        <ele>264</ele>
        <time>2021-03-30T10:30:30.000Z</time>
      </trkpt>
      <trkpt lat="49.80322" lon="4.80433">
        <ele>264</ele>
        <time>2021-03-30T10:30:31.000Z</time>
      </trkpt>
      <trkpt lat="49.80325" lon="4.80434">
        <ele>264</ele>
        <time>2021-03-30T10:30:32.000Z</time>
      </trkpt>
      <trkpt lat="49.80327" lon="4.80435">
        <ele>263</ele>
        <time>2021-03-30T10:30:33.000Z</time>
      </trkpt>
      <trkpt lat="49.80329" lon="4.80436">
        <ele>263</ele>
        <time>2021-03-30T10:30:34.000Z</time>
      </trkpt>
      <trkpt lat="49.80332" lon="4.80436">
        <ele>263</ele>
        <time>2021-03-30T10:30:35.000Z</time>
      </trkpt>
      <trkpt lat="49.80334" lon="4.80437">
        <ele>263</ele>
        <time>2021-03-30T10:30:36.000Z</time>
      </trkpt>
      <trkpt lat="49.80336" lon="4.80437">
        <ele>262</ele>
        <time>2021-03-30T10:30:37.000Z</time>
      </trkpt>
      <trkpt lat="49.80339" lon="4.80438">
        <ele>262</ele>
        <time>2021-03-30T10:30:38.000Z</time>
      </trkpt>
      <trkpt lat="49.80341" lon="4.80438">
        <ele>262</ele>
        <time>2021-03-30T10:30:39.000Z</time>
      </trkpt>
      <trkpt lat="49.80343" lon="4.80439">
        <ele>262</ele>
        <time>2021-03-30T10:30:40.000Z</time>
      </trkpt>
      <trkpt lat="49.80345" lon="4.80441">
        <ele>262</ele>
        <time>2021-03-30T10:30:41.000Z</time>
      </trkpt>
      <trkpt lat="49.80347" lon="4.80441">
        <ele>262</ele>
        <time>2021-03-30T10:30:42.000Z</time>
      </trkpt>
      <trkpt lat="49.8035" lon="4.80441">
        <ele>262</ele>
        <time>2021-03-30T10:30:43.000Z</time>
      </trkpt>
      <trkpt lat="49.80352" lon="4.80441">
        <ele>262</ele>
        <time>2021-03-30T10:30:44.000Z</time>
      </trkpt>
      <trkpt lat="49.80355" lon="4.80441">
        <ele>262</ele>
        <time>2021-03-30T10:30:45.000Z</time>
      </trkpt>
      <trkpt lat="49.80357" lon="4.80442">
        <ele>262</ele>
        <time>2021-03-30T10:30:46.000Z</time>
      </trkpt>
      <trkpt lat="49.8036" lon="4.80443">
        <ele>262</ele>
        <time>2021-03-30T10:30:47.000Z</time>
      </trkpt>
      <trkpt lat="49.80363" lon="4.80443">
        <ele>261</ele>
        <time>2021-03-30T10:30:48.000Z</time>
      </trkpt>
      <trkpt lat="49.80366" lon="4.80445">
        <ele>261</ele>
        <time>2021-03-30T10:30:49.000Z</time>
      </trkpt>
      <trkpt lat="49.80369" lon="4.80446">
        <ele>261</ele>
        <time>2021-03-30T10:30:50.000Z</time>
      </trkpt>
      <trkpt lat="49.80372" lon="4.80447">
        <ele>260</ele>
        <time>2021-03-30T10:30:51.000Z</time>
      </trkpt>
      <trkpt lat="49.80376" lon="4.80447">
        <ele>260</ele>
        <time>2021-03-30T10:30:52.000Z</time>
      </trkpt>
      <trkpt lat="49.80379" lon="4.80448">
        <ele>260</ele>
        <time>2021-03-30T10:30:53.000Z</time>
      </trkpt>
      <trkpt lat="49.80382" lon="4.80447">
        <ele>260</ele>
        <time>2021-03-30T10:30:54.000Z</time>
      </trkpt>
      <trkpt lat="49.80384" lon="4.80446">
        <ele>259</ele>
        <time>2021-03-30T10:30:55.000Z</time>
      </trkpt>
      <trkpt lat="49.80387" lon="4.80445">
        <ele>259</ele>
        <time>2021-03-30T10:30:56.000Z</time>
      </trkpt>
      <trkpt lat="49.8039" lon="4.80443">
        <ele>259</ele>
        <time>2021-03-30T10:30:57.000Z</time>
      </trkpt>
      <trkpt lat="49.80394" lon="4.80443">
        <ele>258</ele>
        <time>2021-03-30T10:30:58.000Z</time>
      </trkpt>
      <trkpt lat="49.80399" lon="4.80442">
        <ele>258</ele>
        <time>2021-03-30T10:30:59.000Z</time>
      </trkpt>
      <trkpt lat="49.80405" lon="4.80442">
        <ele>258</ele>
        <time>2021-03-30T10:31:00.000Z</time>
      </trkpt>
      <trkpt lat="49.80409" lon="4.80442">
        <ele>258</ele>
        <time>2021-03-30T10:31:01.000Z</time>
      </trkpt>
      <trkpt lat="49.80413" lon="4.80441">
        <ele>257</ele>
        <time>2021-03-30T10:31:02.000Z</time>
      </trkpt>
      <trkpt lat="49.80416" lon="4.8044">
        <ele>257</ele>
        <time>2021-03-30T10:31:03.000Z</time>
      </trkpt>
      <trkpt lat="49.80419" lon="4.8044">
        <ele>257</ele>
        <time>2021-03-30T10:31:04.000Z</time>
      </trkpt>
      <trkpt lat="49.80423" lon="4.80438">
        <ele>256</ele>
        <time>2021-03-30T10:31:05.000Z</time>
      </trkpt>
      <trkpt lat="49.80427" lon="4.80437">
        <ele>256</ele>
        <time>2021-03-30T10:31:06.000Z</time>
      </trkpt>
      <trkpt lat="49.80433" lon="4.80436">
        <ele>255</ele>
        <time>2021-03-30T10:31:07.000Z</time>
      </trkpt>
      <trkpt lat="49.80438" lon="4.80435">
        <ele>255</ele>
        <time>2021-03-30T10:31:08.000Z</time>
      </trkpt>
      <trkpt lat="49.80444" lon="4.80435">
        <ele>254</ele>
        <time>2021-03-30T10:31:09.000Z</time>
      </trkpt>
      <trkpt lat="49.8045" lon="4.80433">
        <ele>254</ele>
        <time>2021-03-30T10:31:10.000Z</time>
      </trkpt>
      <trkpt lat="49.80456" lon="4.80432">
        <ele>253</ele>
        <time>2021-03-30T10:31:11.000Z</time>
      </trkpt>
      <trkpt lat="49.80463" lon="4.80429">
        <ele>252</ele>
        <time>2021-03-30T10:31:12.000Z</time>
      </trkpt>
      <trkpt lat="49.8047" lon="4.80426">
        <ele>252</ele>
        <time>2021-03-30T10:31:13.000Z</time>
      </trkpt>
      <trkpt lat="49.80477" lon="4.80423">
        <ele>251</ele>
        <time>2021-03-30T10:31:14.000Z</time>
      </trkpt>
      <trkpt lat="49.80485" lon="4.8042">
        <ele>251</ele>
        <time>2021-03-30T10:31:15.000Z</time>
      </trkpt>
      <trkpt lat="49.80493" lon="4.80417">
        <ele>250</ele>
        <time>2021-03-30T10:31:16.000Z</time>
      </trkpt>
      <trkpt lat="49.805" lon="4.80415">
        <ele>249</ele>
        <time>2021-03-30T10:31:17.000Z</time>
      </trkpt>
      <trkpt lat="49.80506" lon="4.80413">
        <ele>249</ele>
        <time>2021-03-30T10:31:18.000Z</time>
      </trkpt>
      <trkpt lat="49.80511" lon="4.80411">
        <ele>248</ele>
        <time>2021-03-30T10:31:19.000Z</time>
      </trkpt>
      <trkpt lat="49.80517" lon="4.8041">
        <ele>248</ele>
        <time>2021-03-30T10:31:20.000Z</time>
      </trkpt>
      <trkpt lat="49.80521" lon="4.80407">
        <ele>248</ele>
        <time>2021-03-30T10:31:21.000Z</time>
      </trkpt>
      <trkpt lat="49.80526" lon="4.80403">
        <ele>247</ele>
        <time>2021-03-30T10:31:22.000Z</time>
      </trkpt>
      <trkpt lat="49.80531" lon="4.80398">
        <ele>247</ele>
        <time>2021-03-30T10:31:23.000Z</time>
      </trkpt>
      <trkpt lat="49.80535" lon="4.80393">
        <ele>246</ele>
        <time>2021-03-30T10:31:24.000Z</time>
      </trkpt>
      <trkpt lat="49.80538" lon="4.80386">
        <ele>246</ele>
        <time>2021-03-30T10:31:25.000Z</time>
      </trkpt>
      <trkpt lat="49.80541" lon="4.8038">
        <ele>245</ele>
        <time>2021-03-30T10:31:26.000Z</time>
      </trkpt>
      <trkpt lat="49.80545" lon="4.80373">
        <ele>245</ele>
        <time>2021-03-30T10:31:27.000Z</time>
      </trkpt>
      <trkpt lat="49.8055" lon="4.80367">
        <ele>244</ele>
        <time>2021-03-30T10:31:28.000Z</time>
      </trkpt>
      <trkpt lat="49.80554" lon="4.8036">
        <ele>244</ele>
        <time>2021-03-30T10:31:29.000Z</time>
      </trkpt>
      <trkpt lat="49.80559" lon="4.80353">
        <ele>244</ele>
        <time>2021-03-30T10:31:30.000Z</time>
      </trkpt>
      <trkpt lat="49.80562" lon="4.80346">
        <ele>243</ele>
        <time>2021-03-30T10:31:31.000Z</time>
      </trkpt>
      <trkpt lat="49.80566" lon="4.80339">
        <ele>243</ele>
        <time>2021-03-30T10:31:32.000Z</time>
      </trkpt>
      <trkpt lat="49.80569" lon="4.80332">
        <ele>243</ele>
        <time>2021-03-30T10:31:33.000Z</time>
      </trkpt>
      <trkpt lat="49.80573" lon="4.80325">
        <ele>242</ele>
        <time>2021-03-30T10:31:34.000Z</time>
      </trkpt>
      <trkpt lat="49.80577" lon="4.80317">
        <ele>242</ele>
        <time>2021-03-30T10:31:35.000Z</time>
      </trkpt>
      <trkpt lat="49.80583" lon="4.8031">
        <ele>242</ele>
        <time>2021-03-30T10:31:36.000Z</time>
      </trkpt>
      <trkpt lat="49.80588" lon="4.80301">
        <ele>241</ele>
        <time>2021-03-30T10:31:37.000Z</time>
      </trkpt>
      <trkpt lat="49.80593" lon="4.80293">
        <ele>241</ele>
        <time>2021-03-30T10:31:38.000Z</time>
      </trkpt>
      <trkpt lat="49.80598" lon="4.80283">
        <ele>241</ele>
        <time>2021-03-30T10:31:39.000Z</time>
      </trkpt>
      <trkpt lat="49.80603" lon="4.80274">
        <ele>240</ele>
        <time>2021-03-30T10:31:40.000Z</time>
      </trkpt>
      <trkpt lat="49.80608" lon="4.80265">
        <ele>240</ele>
        <time>2021-03-30T10:31:41.000Z</time>
      </trkpt>
      <trkpt lat="49.80613" lon="4.80257">
        <ele>239</ele>
        <time>2021-03-30T10:31:42.000Z</time>
      </trkpt>
      <trkpt lat="49.8062" lon="4.80246">
        <ele>239</ele>
        <time>2021-03-30T10:31:43.000Z</time>
      </trkpt>
      <trkpt lat="49.80627" lon="4.80237">
        <ele>238</ele>
        <time>2021-03-30T10:31:44.000Z</time>
      </trkpt>
      <trkpt lat="49.80634" lon="4.80227">
        <ele>237</ele>
        <time>2021-03-30T10:31:45.000Z</time>
      </trkpt>
      <trkpt lat="49.8064" lon="4.80217">
        <ele>236</ele>
        <time>2021-03-30T10:31:46.000Z</time>
      </trkpt>
      <trkpt lat="49.80647" lon="4.80206">
        <ele>236</ele>
        <time>2021-03-30T10:31:47.000Z</time>
      </trkpt>
      <trkpt lat="49.80655" lon="4.80195">
        <ele>235</ele>
        <time>2021-03-30T10:31:48.000Z</time>
      </trkpt>
      <trkpt lat="49.80662" lon="4.80185">
        <ele>234</ele>
        <time>2021-03-30T10:31:49.000Z</time>
      </trkpt>
      <trkpt lat="49.8067" lon="4.80175">
        <ele>233</ele>
        <time>2021-03-30T10:31:50.000Z</time>
      </trkpt>
      <trkpt lat="49.80677" lon="4.80166">
        <ele>232</ele>
        <time>2021-03-30T10:31:51.000Z</time>
      </trkpt>
      <trkpt lat="49.80684" lon="4.80156">
        <ele>231</ele>
        <time>2021-03-30T10:31:52.000Z</time>
      </trkpt>
      <trkpt lat="49.8069" lon="4.80147">
        <ele>230</ele>
        <time>2021-03-30T10:31:53.000Z</time>
      </trkpt>
      <trkpt lat="49.80697" lon="4.80138">
        <ele>228</ele>
        <time>2021-03-30T10:31:54.000Z</time>
      </trkpt>
      <trkpt lat="49.80705" lon="4.80129">
        <ele>227</ele>
        <time>2021-03-30T10:31:55.000Z</time>
      </trkpt>
      <trkpt lat="49.80713" lon="4.80121">
        <ele>226</ele>
        <time>2021-03-30T10:31:56.000Z</time>
      </trkpt>
      <trkpt lat="49.8072" lon="4.80116">
        <ele>225</ele>
        <time>2021-03-30T10:31:57.000Z</time>
      </trkpt>
      <trkpt lat="49.80726" lon="4.80112">
        <ele>224</ele>
        <time>2021-03-30T10:31:58.000Z</time>
      </trkpt>
      <trkpt lat="49.80733" lon="4.80108">
        <ele>222</ele>
        <time>2021-03-30T10:31:59.000Z</time>
      </trkpt>
      <trkpt lat="49.80739" lon="4.80105">
        <ele>221</ele>
        <time>2021-03-30T10:32:00.000Z</time>
      </trkpt>
      <trkpt lat="49.80745" lon="4.80101">
        <ele>220</ele>
        <time>2021-03-30T10:32:01.000Z</time>
      </trkpt>
      <trkpt lat="49.8075" lon="4.80094">
        <ele>219</ele>
        <time>2021-03-30T10:32:02.000Z</time>
      </trkpt>
      <trkpt lat="49.80755" lon="4.80085">
        <ele>218</ele>
        <time>2021-03-30T10:32:03.000Z</time>
      </trkpt>
      <trkpt lat="49.80759" lon="4.80075">
        <ele>216</ele>
        <time>2021-03-30T10:32:04.000Z</time>
      </trkpt>
      <trkpt lat="49.80764" lon="4.80066">
        <ele>215</ele>
        <time>2021-03-30T10:32:05.000Z</time>
      </trkpt>
      <trkpt lat="49.80768" lon="4.80055">
        <ele>214</ele>
        <time>2021-03-30T10:32:06.000Z</time>
      </trkpt>
      <trkpt lat="49.80772" lon="4.80043">
        <ele>213</ele>
        <time>2021-03-30T10:32:07.000Z</time>
      </trkpt>
      <trkpt lat="49.80775" lon="4.80031">
        <ele>212</ele>
        <time>2021-03-30T10:32:08.000Z</time>
      </trkpt>
      <trkpt lat="49.80778" lon="4.80019">
        <ele>210</ele>
        <time>2021-03-30T10:32:09.000Z</time>
      </trkpt>
      <trkpt lat="49.80782" lon="4.80007">
        <ele>209</ele>
        <time>2021-03-30T10:32:10.000Z</time>
      </trkpt>
      <trkpt lat="49.80786" lon="4.79995">
        <ele>208</ele>
        <time>2021-03-30T10:32:11.000Z</time>
      </trkpt>
      <trkpt lat="49.8079" lon="4.79983">
        <ele>207</ele>
        <time>2021-03-30T10:32:12.000Z</time>
      </trkpt>
      <trkpt lat="49.80793" lon="4.7997">
        <ele>206</ele>
        <time>2021-03-30T10:32:13.000Z</time>
      </trkpt>
      <trkpt lat="49.80797" lon="4.79958">
        <ele>205</ele>
        <time>2021-03-30T10:32:14.000Z</time>
      </trkpt>
      <trkpt lat="49.80801" lon="4.79945">
        <ele>204</ele>
        <time>2021-03-30T10:32:15.000Z</time>
      </trkpt>
      <trkpt lat="49.80806" lon="4.79932">
        <ele>203</ele>
        <time>2021-03-30T10:32:16.000Z</time>
      </trkpt>
      <trkpt lat="49.8081" lon="4.79919">
        <ele>202</ele>
        <time>2021-03-30T10:32:17.000Z</time>
      </trkpt>
      <trkpt lat="49.80816" lon="4.79907">
        <ele>201</ele>
        <time>2021-03-30T10:32:18.000Z</time>
      </trkpt>
      <trkpt lat="49.80822" lon="4.79896">
        <ele>200</ele>
        <time>2021-03-30T10:32:19.000Z</time>
      </trkpt>
      <trkpt lat="49.80829" lon="4.79885">
        <ele>199</ele>
        <time>2021-03-30T10:32:20.000Z</time>
      </trkpt>
      <trkpt lat="49.80837" lon="4.79875">
        <ele>198</ele>
        <time>2021-03-30T10:32:21.000Z</time>
      </trkpt>
      <trkpt lat="49.80845" lon="4.79866">
        <ele>197</ele>
        <time>2021-03-30T10:32:22.000Z</time>
      </trkpt>
      <trkpt lat="49.80853" lon="4.79855">
        <ele>197</ele>
        <time>2021-03-30T10:32:23.000Z</time>
      </trkpt>
      <trkpt lat="49.80862" lon="4.79846">
        <ele>196</ele>
        <time>2021-03-30T10:32:24.000Z</time>
      </trkpt>
      <trkpt lat="49.80872" lon="4.79838">
        <ele>195</ele>
        <time>2021-03-30T10:32:25.000Z</time>
      </trkpt>
      <trkpt lat="49.80882" lon="4.79831">
        <ele>194</ele>
        <time>2021-03-30T10:32:26.000Z</time>
      </trkpt>
      <trkpt lat="49.80891" lon="4.79824">
        <ele>193</ele>
        <time>2021-03-30T10:32:27.000Z</time>
      </trkpt>
      <trkpt lat="49.80899" lon="4.79816">
        <ele>191</ele>
        <time>2021-03-30T10:32:28.000Z</time>
      </trkpt>
      <trkpt lat="49.80908" lon="4.79808">
        <ele>190</ele>
        <time>2021-03-30T10:32:29.000Z</time>
      </trkpt>
      <trkpt lat="49.80916" lon="4.798">
        <ele>189</ele>
        <time>2021-03-30T10:32:30.000Z</time>
      </trkpt>
      <trkpt lat="49.80925" lon="4.79792">
        <ele>187</ele>
        <time>2021-03-30T10:32:31.000Z</time>
      </trkpt>
      <trkpt lat="49.80934" lon="4.79785">
        <ele>186</ele>
        <time>2021-03-30T10:32:32.000Z</time>
      </trkpt>
      <trkpt lat="49.80942" lon="4.79778">
        <ele>185</ele>
        <time>2021-03-30T10:32:33.000Z</time>
      </trkpt>
      <trkpt lat="49.80951" lon="4.79773">
        <ele>185</ele>
        <time>2021-03-30T10:32:34.000Z</time>
      </trkpt>
      <trkpt lat="49.80957" lon="4.79771">
        <ele>184</ele>
        <time>2021-03-30T10:32:35.000Z</time>
      </trkpt>
      <trkpt lat="49.80963" lon="4.7977">
        <ele>184</ele>
        <time>2021-03-30T10:32:36.000Z</time>
      </trkpt>
      <trkpt lat="49.80969" lon="4.79767">
        <ele>183</ele>
        <time>2021-03-30T10:32:37.000Z</time>
      </trkpt>
      <trkpt lat="49.80974" lon="4.79762">
        <ele>183</ele>
        <time>2021-03-30T10:32:38.000Z</time>
      </trkpt>
      <trkpt lat="49.8098" lon="4.79756">
        <ele>183</ele>
        <time>2021-03-30T10:32:39.000Z</time>
      </trkpt>
      <trkpt lat="49.80985" lon="4.79751">
        <ele>182</ele>
        <time>2021-03-30T10:32:40.000Z</time>
      </trkpt>
      <trkpt lat="49.80991" lon="4.79746">
        <ele>182</ele>
        <time>2021-03-30T10:32:41.000Z</time>
      </trkpt>
      <trkpt lat="49.80996" lon="4.7974">
        <ele>182</ele>
        <time>2021-03-30T10:32:42.000Z</time>
      </trkpt>
      <trkpt lat="49.81001" lon="4.79735">
        <ele>182</ele>
        <time>2021-03-30T10:32:43.000Z</time>
      </trkpt>
      <trkpt lat="49.81006" lon="4.79731">
        <ele>182</ele>
        <time>2021-03-30T10:32:44.000Z</time>
      </trkpt>
      <trkpt lat="49.81011" lon="4.79727">
        <ele>182</ele>
        <time>2021-03-30T10:32:45.000Z</time>
      </trkpt>
      <trkpt lat="49.81016" lon="4.79726">
        <ele>181</ele>
        <time>2021-03-30T10:32:46.000Z</time>
      </trkpt>
      <trkpt lat="49.81021" lon="4.7973">
        <ele>181</ele>
        <time>2021-03-30T10:32:47.000Z</time>
      </trkpt>
      <trkpt lat="49.81025" lon="4.79736">
        <ele>181</ele>
        <time>2021-03-30T10:32:48.000Z</time>
      </trkpt>
      <trkpt lat="49.81029" lon="4.79742">
        <ele>181</ele>
        <time>2021-03-30T10:32:49.000Z</time>
      </trkpt>
      <trkpt lat="49.81033" lon="4.79748">
        <ele>181</ele>
        <time>2021-03-30T10:32:50.000Z</time>
      </trkpt>
      <trkpt lat="49.81038" lon="4.79755">
        <ele>180</ele>
        <time>2021-03-30T10:32:51.000Z</time>
      </trkpt>
      <trkpt lat="49.81042" lon="4.79762">
        <ele>180</ele>
        <time>2021-03-30T10:32:52.000Z</time>
      </trkpt>
      <trkpt lat="49.81046" lon="4.79769">
        <ele>180</ele>
        <time>2021-03-30T10:32:53.000Z</time>
      </trkpt>
      <trkpt lat="49.8105" lon="4.79777">
        <ele>180</ele>
        <time>2021-03-30T10:32:54.000Z</time>
      </trkpt>
      <trkpt lat="49.81054" lon="4.79785">
        <ele>180</ele>
        <time>2021-03-30T10:32:55.000Z</time>
      </trkpt>
      <trkpt lat="49.81059" lon="4.79793">
        <ele>180</ele>
        <time>2021-03-30T10:32:56.000Z</time>
      </trkpt>
      <trkpt lat="49.81063" lon="4.79801">
        <ele>180</ele>
        <time>2021-03-30T10:32:57.000Z</time>
      </trkpt>
      <trkpt lat="49.81066" lon="4.7981">
        <ele>180</ele>
        <time>2021-03-30T10:32:58.000Z</time>
      </trkpt>
      <trkpt lat="49.8107" lon="4.79818">
        <ele>179</ele>
        <time>2021-03-30T10:32:59.000Z</time>
      </trkpt>
      <trkpt lat="49.81072" lon="4.79827">
        <ele>179</ele>
        <time>2021-03-30T10:33:00.000Z</time>
      </trkpt>
      <trkpt lat="49.81075" lon="4.79836">
        <ele>179</ele>
        <time>2021-03-30T10:33:01.000Z</time>
      </trkpt>
      <trkpt lat="49.81078" lon="4.79844">
        <ele>178</ele>
        <time>2021-03-30T10:33:02.000Z</time>
      </trkpt>
      <trkpt lat="49.81081" lon="4.79852">
        <ele>178</ele>
        <time>2021-03-30T10:33:03.000Z</time>
      </trkpt>
      <trkpt lat="49.81084" lon="4.7986">
        <ele>178</ele>
        <time>2021-03-30T10:33:04.000Z</time>
      </trkpt>
      <trkpt lat="49.81087" lon="4.79868">
        <ele>177</ele>
        <time>2021-03-30T10:33:05.000Z</time>
      </trkpt>
      <trkpt lat="49.81091" lon="4.79876">
        <ele>177</ele>
        <time>2021-03-30T10:33:06.000Z</time>
      </trkpt>
      <trkpt lat="49.81094" lon="4.79883">
        <ele>177</ele>
        <time>2021-03-30T10:33:07.000Z</time>
      </trkpt>
      <trkpt lat="49.81097" lon="4.7989">
        <ele>177</ele>
        <time>2021-03-30T10:33:08.000Z</time>
      </trkpt>
      <trkpt lat="49.811" lon="4.79898">
        <ele>176</ele>
        <time>2021-03-30T10:33:09.000Z</time>
      </trkpt>
      <trkpt lat="49.81103" lon="4.79905">
        <ele>176</ele>
        <time>2021-03-30T10:33:10.000Z</time>
      </trkpt>
      <trkpt lat="49.81106" lon="4.79911">
        <ele>176</ele>
        <time>2021-03-30T10:33:11.000Z</time>
      </trkpt>
      <trkpt lat="49.81109" lon="4.79918">
        <ele>176</ele>
        <time>2021-03-30T10:33:12.000Z</time>
      </trkpt>
      <trkpt lat="49.81113" lon="4.79924">
        <ele>176</ele>
        <time>2021-03-30T10:33:13.000Z</time>
      </trkpt>
      <trkpt lat="49.81117" lon="4.7993">
        <ele>175</ele>
        <time>2021-03-30T10:33:14.000Z</time>
      </trkpt>
      <trkpt lat="49.8112" lon="4.79937">
        <ele>175</ele>
        <time>2021-03-30T10:33:15.000Z</time>
      </trkpt>
      <trkpt lat="49.81124" lon="4.79943">
        <ele>175</ele>
        <time>2021-03-30T10:33:16.000Z</time>
      </trkpt>
      <trkpt lat="49.81129" lon="4.79948">
        <ele>175</ele>
        <time>2021-03-30T10:33:17.000Z</time>
      </trkpt>
      <trkpt lat="49.81133" lon="4.79954">
        <ele>175</ele>
        <time>2021-03-30T10:33:18.000Z</time>
      </trkpt>
      <trkpt lat="49.81138" lon="4.7996">
        <ele>175</ele>
        <time>2021-03-30T10:33:19.000Z</time>
      </trkpt>
      <trkpt lat="49.81141" lon="4.79967">
        <ele>175</ele>
        <time>2021-03-30T10:33:20.000Z</time>
      </trkpt>
      <trkpt lat="49.81144" lon="4.79975">
        <ele>175</ele>
        <time>2021-03-30T10:33:21.000Z</time>
      </trkpt>
      <trkpt lat="49.81145" lon="4.79983">
        <ele>175</ele>
        <time>2021-03-30T10:33:22.000Z</time>
      </trkpt>
      <trkpt lat="49.81145" lon="4.79989">
        <ele>175</ele>
        <time>2021-03-30T10:33:23.000Z</time>
      </trkpt>
      <trkpt lat="49.81145" lon="4.79994">
        <ele>175</ele>
        <time>2021-03-30T10:33:24.000Z</time>
      </trkpt>
      <trkpt lat="49.81145" lon="4.79999">
        <ele>175</ele>
        <time>2021-03-30T10:33:25.000Z</time>
      </trkpt>
      <trkpt lat="49.81147" lon="4.80004">
        <ele>175</ele>
        <time>2021-03-30T10:33:26.000Z</time>
      </trkpt>
      <trkpt lat="49.81148" lon="4.80008">
        <ele>175</ele>
        <time>2021-03-30T10:33:27.000Z</time>
      </trkpt>
      <trkpt lat="49.81149" lon="4.80012">
        <ele>175</ele>
        <time>2021-03-30T10:33:28.000Z</time>
      </trkpt>
      <trkpt lat="49.8115" lon="4.80016">
        <ele>175</ele>
        <time>2021-03-30T10:33:29.000Z</time>
      </trkpt>
      <trkpt lat="49.8115" lon="4.8002">
        <ele>175</ele>
        <time>2021-03-30T10:33:30.000Z</time>
      </trkpt>
      <trkpt lat="49.8115" lon="4.80024">
        <ele>175</ele>
        <time>2021-03-30T10:33:31.000Z</time>
      </trkpt>
      <trkpt lat="49.81149" lon="4.80027">
        <ele>175</ele>
        <time>2021-03-30T10:33:32.000Z</time>
      </trkpt>
      <trkpt lat="49.81149" lon="4.8003">
        <ele>175</ele>
        <time>2021-03-30T10:33:33.000Z</time>
      </trkpt>
      <trkpt lat="49.81148" lon="4.80034">
        <ele>175</ele>
        <time>2021-03-30T10:33:34.000Z</time>
      </trkpt>
      <trkpt lat="49.81148" lon="4.80038">
        <ele>175</ele>
        <time>2021-03-30T10:33:35.000Z</time>
      </trkpt>
      <trkpt lat="49.81147" lon="4.80042">
        <ele>175</ele>
        <time>2021-03-30T10:33:36.000Z</time>
      </trkpt>
      <trkpt lat="49.81147" lon="4.80046">
        <ele>175</ele>
        <time>2021-03-30T10:33:37.000Z</time>
      </trkpt>
      <trkpt lat="49.81146" lon="4.8005">
        <ele>175</ele>
        <time>2021-03-30T10:33:38.000Z</time>
      </trkpt>
      <trkpt lat="49.81145" lon="4.80054">
        <ele>175</ele>
        <time>2021-03-30T10:33:39.000Z</time>
      </trkpt>
      <trkpt lat="49.81144" lon="4.80059">
        <ele>175</ele>
        <time>2021-03-30T10:33:40.000Z</time>
      </trkpt>
      <trkpt lat="49.81143" lon="4.80063">
        <ele>175</ele>
        <time>2021-03-30T10:33:41.000Z</time>
      </trkpt>
      <trkpt lat="49.81142" lon="4.80067">
        <ele>175</ele>
        <time>2021-03-30T10:33:42.000Z</time>
      </trkpt>
      <trkpt lat="49.81142" lon="4.80071">
        <ele>175</ele>
        <time>2021-03-30T10:33:43.000Z</time>
      </trkpt>
      <trkpt lat="49.81141" lon="4.80076">
        <ele>175</ele>
        <time>2021-03-30T10:33:44.000Z</time>
      </trkpt>
      <trkpt lat="49.8114" lon="4.8008">
        <ele>175</ele>
        <time>2021-03-30T10:33:45.000Z</time>
      </trkpt>
      <trkpt lat="49.81139" lon="4.80084">
        <ele>175</ele>
        <time>2021-03-30T10:33:46.000Z</time>
      </trkpt>
      <trkpt lat="49.81138" lon="4.80088">
        <ele>175</ele>
        <time>2021-03-30T10:33:47.000Z</time>
      </trkpt>
      <trkpt lat="49.81137" lon="4.80091">
        <ele>175</ele>
        <time>2021-03-30T10:33:48.000Z</time>
      </trkpt>
      <trkpt lat="49.81136" lon="4.80094">
        <ele>176</ele>
        <time>2021-03-30T10:33:49.000Z</time>
      </trkpt>
      <trkpt lat="49.81135" lon="4.80097">
        <ele>176</ele>
        <time>2021-03-30T10:33:50.000Z</time>
      </trkpt>
      <trkpt lat="49.81134" lon="4.801">
        <ele>176</ele>
        <time>2021-03-30T10:33:51.000Z</time>
      </trkpt>
      <trkpt lat="49.81133" lon="4.80104">
        <ele>176</ele>
        <time>2021-03-30T10:33:52.000Z</time>
      </trkpt>
      <trkpt lat="49.81132" lon="4.80107">
        <ele>176</ele>
        <time>2021-03-30T10:33:53.000Z</time>
      </trkpt>
      <trkpt lat="49.81132" lon="4.8011">
        <ele>177</ele>
        <time>2021-03-30T10:33:54.000Z</time>
      </trkpt>
      <trkpt lat="49.81131" lon="4.80113">
        <ele>177</ele>
        <time>2021-03-30T10:33:55.000Z</time>
      </trkpt>
      <trkpt lat="49.81131" lon="4.80117">
        <ele>177</ele>
        <time>2021-03-30T10:33:56.000Z</time>
      </trkpt>
      <trkpt lat="49.81131" lon="4.80121">
        <ele>177</ele>
        <time>2021-03-30T10:33:57.000Z</time>
      </trkpt>
      <trkpt lat="49.81131" lon="4.80125">
        <ele>177</ele>
        <time>2021-03-30T10:33:58.000Z</time>
      </trkpt>
      <trkpt lat="49.8113" lon="4.80129">
        <ele>177</ele>
        <time>2021-03-30T10:33:59.000Z</time>
      </trkpt>
      <trkpt lat="49.8113" lon="4.80134">
        <ele>177</ele>
        <time>2021-03-30T10:34:00.000Z</time>
      </trkpt>
      <trkpt lat="49.81129" lon="4.80138">
        <ele>177</ele>
        <time>2021-03-30T10:34:01.000Z</time>
      </trkpt>
      <trkpt lat="49.81129" lon="4.80142">
        <ele>178</ele>
        <time>2021-03-30T10:34:02.000Z</time>
      </trkpt>
      <trkpt lat="49.8113" lon="4.80146">
        <ele>178</ele>
        <time>2021-03-30T10:34:03.000Z</time>
      </trkpt>
      <trkpt lat="49.8113" lon="4.8015">
        <ele>178</ele>
        <time>2021-03-30T10:34:04.000Z</time>
      </trkpt>
      <trkpt lat="49.8113" lon="4.80154">
        <ele>178</ele>
        <time>2021-03-30T10:34:05.000Z</time>
      </trkpt>
      <trkpt lat="49.8113" lon="4.80158">
        <ele>179</ele>
        <time>2021-03-30T10:34:06.000Z</time>
      </trkpt>
      <trkpt lat="49.8113" lon="4.80161">
        <ele>179</ele>
        <time>2021-03-30T10:34:07.000Z</time>
      </trkpt>
      <trkpt lat="49.81129" lon="4.80164">
        <ele>179</ele>
        <time>2021-03-30T10:34:08.000Z</time>
      </trkpt>
      <trkpt lat="49.8113" lon="4.80169">
        <ele>179</ele>
        <time>2021-03-30T10:34:09.000Z</time>
      </trkpt>
      <trkpt lat="49.8113" lon="4.80173">
        <ele>179</ele>
        <time>2021-03-30T10:34:10.000Z</time>
      </trkpt>
      <trkpt lat="49.81131" lon="4.80178">
        <ele>179</ele>
        <time>2021-03-30T10:34:11.000Z</time>
      </trkpt>
      <trkpt lat="49.81131" lon="4.80183">
        <ele>179</ele>
        <time>2021-03-30T10:34:12.000Z</time>
      </trkpt>
      <trkpt lat="49.81131" lon="4.80187">
        <ele>180</ele>
        <time>2021-03-30T10:34:13.000Z</time>
      </trkpt>
      <trkpt lat="49.81131" lon="4.80191">
        <ele>180</ele>
        <time>2021-03-30T10:34:14.000Z</time>
      </trkpt>
      <trkpt lat="49.81131" lon="4.80195">
        <ele>180</ele>
        <time>2021-03-30T10:34:15.000Z</time>
      </trkpt>
      <trkpt lat="49.8113" lon="4.80199">
        <ele>180</ele>
        <time>2021-03-30T10:34:16.000Z</time>
      </trkpt>
      <trkpt lat="49.8113" lon="4.80203">
        <ele>180</ele>
        <time>2021-03-30T10:34:17.000Z</time>
      </trkpt>
      <trkpt lat="49.81131" lon="4.80208">
        <ele>180</ele>
        <time>2021-03-30T10:34:18.000Z</time>
      </trkpt>
      <trkpt lat="49.81131" lon="4.80212">
        <ele>181</ele>
        <time>2021-03-30T10:34:19.000Z</time>
      </trkpt>
      <trkpt lat="49.81132" lon="4.80217">
        <ele>181</ele>
        <time>2021-03-30T10:34:20.000Z</time>
      </trkpt>
      <trkpt lat="49.81132" lon="4.80221">
        <ele>181</ele>
        <time>2021-03-30T10:34:21.000Z</time>
      </trkpt>
      <trkpt lat="49.81132" lon="4.80225">
        <ele>181</ele>
        <time>2021-03-30T10:34:22.000Z</time>
      </trkpt>
      <trkpt lat="49.81132" lon="4.80229">
        <ele>181</ele>
        <time>2021-03-30T10:34:23.000Z</time>
      </trkpt>
      <trkpt lat="49.81132" lon="4.80232">
        <ele>182</ele>
        <time>2021-03-30T10:34:24.000Z</time>
      </trkpt>
      <trkpt lat="49.81133" lon="4.80235">
        <ele>182</ele>
        <time>2021-03-30T10:34:25.000Z</time>
      </trkpt>
      <trkpt lat="49.81133" lon="4.80238">
        <ele>182</ele>
        <time>2021-03-30T10:34:26.000Z</time>
      </trkpt>
      <trkpt lat="49.81133" lon="4.8024">
        <ele>182</ele>
        <time>2021-03-30T10:34:27.000Z</time>
      </trkpt>
      <trkpt lat="49.81133" lon="4.80242">
        <ele>182</ele>
        <time>2021-03-30T10:34:28.000Z</time>
      </trkpt>
      <trkpt lat="49.81133" lon="4.80245">
        <ele>183</ele>
        <time>2021-03-30T10:34:29.000Z</time>
      </trkpt>
      <trkpt lat="49.81134" lon="4.80248">
        <ele>183</ele>
        <time>2021-03-30T10:34:30.000Z</time>
      </trkpt>
      <trkpt lat="49.81134" lon="4.80251">
        <ele>183</ele>
        <time>2021-03-30T10:34:31.000Z</time>
      </trkpt>
      <trkpt lat="49.81135" lon="4.80255">
        <ele>183</ele>
        <time>2021-03-30T10:34:32.000Z</time>
      </trkpt>
      <trkpt lat="49.81135" lon="4.80259">
        <ele>184</ele>
        <time>2021-03-30T10:34:33.000Z</time>
      </trkpt>
      <trkpt lat="49.81135" lon="4.80263">
        <ele>184</ele>
        <time>2021-03-30T10:34:34.000Z</time>
      </trkpt>
      <trkpt lat="49.81136" lon="4.80267">
        <ele>184</ele>
        <time>2021-03-30T10:34:35.000Z</time>
      </trkpt>
      <trkpt lat="49.81137" lon="4.80271">
        <ele>184</ele>
        <time>2021-03-30T10:34:36.000Z</time>
      </trkpt>
      <trkpt lat="49.81137" lon="4.80275">
        <ele>184</ele>
        <time>2021-03-30T10:34:37.000Z</time>
      </trkpt>
      <trkpt lat="49.81138" lon="4.80279">
        <ele>185</ele>
        <time>2021-03-30T10:34:38.000Z</time>
      </trkpt>
      <trkpt lat="49.81138" lon="4.80282">
        <ele>185</ele>
        <time>2021-03-30T10:34:39.000Z</time>
      </trkpt>
      <trkpt lat="49.81137" lon="4.80286">
        <ele>185</ele>
        <time>2021-03-30T10:34:40.000Z</time>
      </trkpt>
      <trkpt lat="49.81137" lon="4.8029">
        <ele>185</ele>
        <time>2021-03-30T10:34:41.000Z</time>
      </trkpt>
      <trkpt lat="49.81137" lon="4.80294">
        <ele>185</ele>
        <time>2021-03-30T10:34:42.000Z</time>
      </trkpt>
      <trkpt lat="49.81137" lon="4.80297">
        <ele>185</ele>
        <time>2021-03-30T10:34:43.000Z</time>
      </trkpt>
      <trkpt lat="49.81137" lon="4.803">
        <ele>186</ele>
        <time>2021-03-30T10:34:44.000Z</time>
      </trkpt>
      <trkpt lat="49.81137" lon="4.80304">
        <ele>186</ele>
        <time>2021-03-30T10:34:45.000Z</time>
      </trkpt>
      <trkpt lat="49.81136" lon="4.80307">
        <ele>186</ele>
        <time>2021-03-30T10:34:46.000Z</time>
      </trkpt>
      <trkpt lat="49.81136" lon="4.8031">
        <ele>186</ele>
        <time>2021-03-30T10:34:47.000Z</time>
      </trkpt>
      <trkpt lat="49.81136" lon="4.80314">
        <ele>187</ele>
        <time>2021-03-30T10:34:48.000Z</time>
      </trkpt>
      <trkpt lat="49.81136" lon="4.80318">
        <ele>187</ele>
        <time>2021-03-30T10:34:49.000Z</time>
      </trkpt>
      <trkpt lat="49.81136" lon="4.80321">
        <ele>187</ele>
        <time>2021-03-30T10:34:50.000Z</time>
      </trkpt>
      <trkpt lat="49.81136" lon="4.80325">
        <ele>187</ele>
        <time>2021-03-30T10:34:51.000Z</time>
      </trkpt>
      <trkpt lat="49.81136" lon="4.80328">
        <ele>188</ele>
        <time>2021-03-30T10:34:52.000Z</time>
      </trkpt>
      <trkpt lat="49.81136" lon="4.80331">
        <ele>188</ele>
        <time>2021-03-30T10:34:53.000Z</time>
      </trkpt>
      <trkpt lat="49.81137" lon="4.80335">
        <ele>188</ele>
        <time>2021-03-30T10:34:54.000Z</time>
      </trkpt>
      <trkpt lat="49.81138" lon="4.8034">
        <ele>188</ele>
        <time>2021-03-30T10:34:55.000Z</time>
      </trkpt>
      <trkpt lat="49.81138" lon="4.80344">
        <ele>188</ele>
        <time>2021-03-30T10:34:56.000Z</time>
      </trkpt>
      <trkpt lat="49.81138" lon="4.80349">
        <ele>189</ele>
        <time>2021-03-30T10:34:57.000Z</time>
      </trkpt>
      <trkpt lat="49.81139" lon="4.80353">
        <ele>189</ele>
        <time>2021-03-30T10:34:58.000Z</time>
      </trkpt>
      <trkpt lat="49.81139" lon="4.80357">
        <ele>189</ele>
        <time>2021-03-30T10:34:59.000Z</time>
      </trkpt>
      <trkpt lat="49.8114" lon="4.8036">
        <ele>190</ele>
        <time>2021-03-30T10:35:00.000Z</time>
      </trkpt>
      <trkpt lat="49.81141" lon="4.80364">
        <ele>190</ele>
        <time>2021-03-30T10:35:01.000Z</time>
      </trkpt>
      <trkpt lat="49.81141" lon="4.80367">
        <ele>190</ele>
        <time>2021-03-30T10:35:02.000Z</time>
      </trkpt>
      <trkpt lat="49.81142" lon="4.8037">
        <ele>191</ele>
        <time>2021-03-30T10:35:03.000Z</time>
      </trkpt>
      <trkpt lat="49.81143" lon="4.80372">
        <ele>191</ele>
        <time>2021-03-30T10:35:04.000Z</time>
      </trkpt>
      <trkpt lat="49.81143" lon="4.80374">
        <ele>192</ele>
        <time>2021-03-30T10:35:05.000Z</time>
      </trkpt>
      <trkpt lat="49.81143" lon="4.80376">
        <ele>192</ele>
        <time>2021-03-30T10:35:06.000Z</time>
      </trkpt>
      <trkpt lat="49.81144" lon="4.80378">
        <ele>192</ele>
        <time>2021-03-30T10:35:07.000Z</time>
      </trkpt>
      <trkpt lat="49.81144" lon="4.80382">
        <ele>193</ele>
        <time>2021-03-30T10:35:08.000Z</time>
      </trkpt>
      <trkpt lat="49.81145" lon="4.80387">
        <ele>193</ele>
        <time>2021-03-30T10:35:09.000Z</time>
      </trkpt>
      <trkpt lat="49.81146" lon="4.80391">
        <ele>193</ele>
        <time>2021-03-30T10:35:10.000Z</time>
      </trkpt>
      <trkpt lat="49.81147" lon="4.80394">
        <ele>194</ele>
        <time>2021-03-30T10:35:11.000Z</time>
      </trkpt>
      <trkpt lat="49.81148" lon="4.80398">
        <ele>194</ele>
        <time>2021-03-30T10:35:12.000Z</time>
      </trkpt>
      <trkpt lat="49.81148" lon="4.80402">
        <ele>195</ele>
        <time>2021-03-30T10:35:13.000Z</time>
      </trkpt>
      <trkpt lat="49.81148" lon="4.80406">
        <ele>195</ele>
        <time>2021-03-30T10:35:14.000Z</time>
      </trkpt>
      <trkpt lat="49.81149" lon="4.8041">
        <ele>195</ele>
        <time>2021-03-30T10:35:15.000Z</time>
      </trkpt>
      <trkpt lat="49.81149" lon="4.80413">
        <ele>196</ele>
        <time>2021-03-30T10:35:16.000Z</time>
      </trkpt>
      <trkpt lat="49.81149" lon="4.80417">
        <ele>196</ele>
        <time>2021-03-30T10:35:17.000Z</time>
      </trkpt>
      <trkpt lat="49.8115" lon="4.80421">
        <ele>197</ele>
        <time>2021-03-30T10:35:18.000Z</time>
      </trkpt>
      <trkpt lat="49.8115" lon="4.80424">
        <ele>197</ele>
        <time>2021-03-30T10:35:19.000Z</time>
      </trkpt>
      <trkpt lat="49.81151" lon="4.80428">
        <ele>197</ele>
        <time>2021-03-30T10:35:20.000Z</time>
      </trkpt>
      <trkpt lat="49.81151" lon="4.80432">
        <ele>198</ele>
        <time>2021-03-30T10:35:21.000Z</time>
      </trkpt>
      <trkpt lat="49.8115" lon="4.80436">
        <ele>198</ele>
        <time>2021-03-30T10:35:22.000Z</time>
      </trkpt>
      <trkpt lat="49.81151" lon="4.8044">
        <ele>198</ele>
        <time>2021-03-30T10:35:23.000Z</time>
      </trkpt>
      <trkpt lat="49.81151" lon="4.80444">
        <ele>199</ele>
        <time>2021-03-30T10:35:24.000Z</time>
      </trkpt>
      <trkpt lat="49.81151" lon="4.80448">
        <ele>199</ele>
        <time>2021-03-30T10:35:25.000Z</time>
      </trkpt>
      <trkpt lat="49.81151" lon="4.80452">
        <ele>200</ele>
        <time>2021-03-30T10:35:26.000Z</time>
      </trkpt>
      <trkpt lat="49.81149" lon="4.80455">
        <ele>200</ele>
        <time>2021-03-30T10:35:27.000Z</time>
      </trkpt>
      <trkpt lat="49.81148" lon="4.80457">
        <ele>200</ele>
        <time>2021-03-30T10:35:28.000Z</time>
      </trkpt>
      <trkpt lat="49.81146" lon="4.8046">
        <ele>200</ele>
        <time>2021-03-30T10:35:29.000Z</time>
      </trkpt>
      <trkpt lat="49.81145" lon="4.80463">
        <ele>201</ele>
        <time>2021-03-30T10:35:30.000Z</time>
      </trkpt>
      <trkpt lat="49.81145" lon="4.80466">
        <ele>201</ele>
        <time>2021-03-30T10:35:31.000Z</time>
      </trkpt>
      <trkpt lat="49.81144" lon="4.8047">
        <ele>201</ele>
        <time>2021-03-30T10:35:32.000Z</time>
      </trkpt>
      <trkpt lat="49.81143" lon="4.80473">
        <ele>202</ele>
        <time>2021-03-30T10:35:33.000Z</time>
      </trkpt>
      <trkpt lat="49.81143" lon="4.80476">
        <ele>202</ele>
        <time>2021-03-30T10:35:34.000Z</time>
      </trkpt>
      <trkpt lat="49.81142" lon="4.8048">
        <ele>202</ele>
        <time>2021-03-30T10:35:35.000Z</time>
      </trkpt>
      <trkpt lat="49.81142" lon="4.80484">
        <ele>203</ele>
        <time>2021-03-30T10:35:36.000Z</time>
      </trkpt>
      <trkpt lat="49.81141" lon="4.80488">
        <ele>203</ele>
        <time>2021-03-30T10:35:37.000Z</time>
      </trkpt>
      <trkpt lat="49.8114" lon="4.80491">
        <ele>203</ele>
        <time>2021-03-30T10:35:38.000Z</time>
      </trkpt>
      <trkpt lat="49.8114" lon="4.80494">
        <ele>204</ele>
        <time>2021-03-30T10:35:39.000Z</time>
      </trkpt>
      <trkpt lat="49.81139" lon="4.80498">
        <ele>204</ele>
        <time>2021-03-30T10:35:40.000Z</time>
      </trkpt>
      <trkpt lat="49.81139" lon="4.80501">
        <ele>204</ele>
        <time>2021-03-30T10:35:41.000Z</time>
      </trkpt>
      <trkpt lat="49.81138" lon="4.80505">
        <ele>204</ele>
        <time>2021-03-30T10:35:42.000Z</time>
      </trkpt>
      <trkpt lat="49.81137" lon="4.80509">
        <ele>205</ele>
        <time>2021-03-30T10:35:43.000Z</time>
      </trkpt>
      <trkpt lat="49.81136" lon="4.80512">
        <ele>205</ele>
        <time>2021-03-30T10:35:44.000Z</time>
      </trkpt>
      <trkpt lat="49.81136" lon="4.80516">
        <ele>205</ele>
        <time>2021-03-30T10:35:45.000Z</time>
      </trkpt>
      <trkpt lat="49.81135" lon="4.8052">
        <ele>206</ele>
        <time>2021-03-30T10:35:46.000Z</time>
      </trkpt>
      <trkpt lat="49.81134" lon="4.80523">
        <ele>206</ele>
        <time>2021-03-30T10:35:47.000Z</time>
      </trkpt>
      <trkpt lat="49.81134" lon="4.80527">
        <ele>206</ele>
        <time>2021-03-30T10:35:48.000Z</time>
      </trkpt>
      <trkpt lat="49.81133" lon="4.80531">
        <ele>206</ele>
        <time>2021-03-30T10:35:49.000Z</time>
      </trkpt>
      <trkpt lat="49.81133" lon="4.80534">
        <ele>206</ele>
        <time>2021-03-30T10:35:50.000Z</time>
      </trkpt>
      <trkpt lat="49.81132" lon="4.80537">
        <ele>207</ele>
        <time>2021-03-30T10:35:51.000Z</time>
      </trkpt>
      <trkpt lat="49.81132" lon="4.8054">
        <ele>207</ele>
        <time>2021-03-30T10:35:52.000Z</time>
      </trkpt>
      <trkpt lat="49.81131" lon="4.80543">
        <ele>207</ele>
        <time>2021-03-30T10:35:53.000Z</time>
      </trkpt>
      <trkpt lat="49.81131" lon="4.80546">
        <ele>207</ele>
        <time>2021-03-30T10:35:54.000Z</time>
      </trkpt>
      <trkpt lat="49.8113" lon="4.80549">
        <ele>207</ele>
        <time>2021-03-30T10:35:55.000Z</time>
      </trkpt>
      <trkpt lat="49.81129" lon="4.80552">
        <ele>208</ele>
        <time>2021-03-30T10:35:56.000Z</time>
      </trkpt>
      <trkpt lat="49.81128" lon="4.80554">
        <ele>208</ele>
        <time>2021-03-30T10:35:57.000Z</time>
      </trkpt>
      <trkpt lat="49.81128" lon="4.80558">
        <ele>208</ele>
        <time>2021-03-30T10:35:58.000Z</time>
      </trkpt>
      <trkpt lat="49.81127" lon="4.80561">
        <ele>209</ele>
        <time>2021-03-30T10:35:59.000Z</time>
      </trkpt>
      <trkpt lat="49.81127" lon="4.80564">
        <ele>209</ele>
        <time>2021-03-30T10:36:00.000Z</time>
      </trkpt>
      <trkpt lat="49.81127" lon="4.80568">
        <ele>209</ele>
        <time>2021-03-30T10:36:01.000Z</time>
      </trkpt>
      <trkpt lat="49.81126" lon="4.80572">
        <ele>210</ele>
        <time>2021-03-30T10:36:02.000Z</time>
      </trkpt>
      <trkpt lat="49.81126" lon="4.80575">
        <ele>210</ele>
        <time>2021-03-30T10:36:03.000Z</time>
      </trkpt>
      <trkpt lat="49.81125" lon="4.80579">
        <ele>210</ele>
        <time>2021-03-30T10:36:04.000Z</time>
      </trkpt>
      <trkpt lat="49.81126" lon="4.80582">
        <ele>211</ele>
        <time>2021-03-30T10:36:05.000Z</time>
      </trkpt>
      <trkpt lat="49.81126" lon="4.80586">
        <ele>211</ele>
        <time>2021-03-30T10:36:06.000Z</time>
      </trkpt>
      <trkpt lat="49.81126" lon="4.8059">
        <ele>212</ele>
        <time>2021-03-30T10:36:07.000Z</time>
      </trkpt>
      <trkpt lat="49.81126" lon="4.80593">
        <ele>212</ele>
        <time>2021-03-30T10:36:08.000Z</time>
      </trkpt>
      <trkpt lat="49.81125" lon="4.80596">
        <ele>213</ele>
        <time>2021-03-30T10:36:09.000Z</time>
      </trkpt>
      <trkpt lat="49.81125" lon="4.80599">
        <ele>213</ele>
        <time>2021-03-30T10:36:10.000Z</time>
      </trkpt>
      <trkpt lat="49.81125" lon="4.80602">
        <ele>214</ele>
        <time>2021-03-30T10:36:11.000Z</time>
      </trkpt>
      <trkpt lat="49.81125" lon="4.80605">
        <ele>214</ele>
        <time>2021-03-30T10:36:12.000Z</time>
      </trkpt>
      <trkpt lat="49.81125" lon="4.80607">
        <ele>215</ele>
        <time>2021-03-30T10:36:13.000Z</time>
      </trkpt>
      <trkpt lat="49.81125" lon="4.80609">
        <ele>215</ele>
        <time>2021-03-30T10:36:14.000Z</time>
      </trkpt>
      <trkpt lat="49.81125" lon="4.80612">
        <ele>216</ele>
        <time>2021-03-30T10:36:15.000Z</time>
      </trkpt>
      <trkpt lat="49.81125" lon="4.80615">
        <ele>216</ele>
        <time>2021-03-30T10:36:16.000Z</time>
      </trkpt>
      <trkpt lat="49.81125" lon="4.80617">
        <ele>216</ele>
        <time>2021-03-30T10:36:17.000Z</time>
      </trkpt>
      <trkpt lat="49.81125" lon="4.80619">
        <ele>216</ele>
        <time>2021-03-30T10:36:18.000Z</time>
      </trkpt>
      <trkpt lat="49.81125" lon="4.80621">
        <ele>217</ele>
        <time>2021-03-30T10:36:19.000Z</time>
      </trkpt>
      <trkpt lat="49.81124" lon="4.80623">
        <ele>217</ele>
        <time>2021-03-30T10:36:20.000Z</time>
      </trkpt>
      <trkpt lat="49.81124" lon="4.80625">
        <ele>217</ele>
        <time>2021-03-30T10:36:21.000Z</time>
      </trkpt>
      <trkpt lat="49.81125" lon="4.80627">
        <ele>218</ele>
        <time>2021-03-30T10:36:22.000Z</time>
      </trkpt>
      <trkpt lat="49.81126" lon="4.80629">
        <ele>218</ele>
        <time>2021-03-30T10:36:23.000Z</time>
      </trkpt>
      <trkpt lat="49.81127" lon="4.80631">
        <ele>218</ele>
        <time>2021-03-30T10:36:24.000Z</time>
      </trkpt>
      <trkpt lat="49.81127" lon="4.80634">
        <ele>218</ele>
        <time>2021-03-30T10:36:25.000Z</time>
      </trkpt>
      <trkpt lat="49.81127" lon="4.80636">
        <ele>219</ele>
        <time>2021-03-30T10:36:26.000Z</time>
      </trkpt>
      <trkpt lat="49.81127" lon="4.80638">
        <ele>219</ele>
        <time>2021-03-30T10:36:27.000Z</time>
      </trkpt>
      <trkpt lat="49.81126" lon="4.80641">
        <ele>219</ele>
        <time>2021-03-30T10:36:28.000Z</time>
      </trkpt>
      <trkpt lat="49.81127" lon="4.80645">
        <ele>220</ele>
        <time>2021-03-30T10:36:29.000Z</time>
      </trkpt>
      <trkpt lat="49.81126" lon="4.80647">
        <ele>220</ele>
        <time>2021-03-30T10:36:30.000Z</time>
      </trkpt>
      <trkpt lat="49.81126" lon="4.8065">
        <ele>220</ele>
        <time>2021-03-30T10:36:31.000Z</time>
      </trkpt>
      <trkpt lat="49.81125" lon="4.80653">
        <ele>220</ele>
        <time>2021-03-30T10:36:32.000Z</time>
      </trkpt>
      <trkpt lat="49.81124" lon="4.80654">
        <ele>220</ele>
        <time>2021-03-30T10:36:33.000Z</time>
      </trkpt>
      <trkpt lat="49.81122" lon="4.80656">
        <ele>220</ele>
        <time>2021-03-30T10:36:34.000Z</time>
      </trkpt>
      <trkpt lat="49.81122" lon="4.80659">
        <ele>220</ele>
        <time>2021-03-30T10:36:35.000Z</time>
      </trkpt>
      <trkpt lat="49.81121" lon="4.80661">
        <ele>220</ele>
        <time>2021-03-30T10:36:36.000Z</time>
      </trkpt>
      <trkpt lat="49.8112" lon="4.80664">
        <ele>220</ele>
        <time>2021-03-30T10:36:37.000Z</time>
      </trkpt>
      <trkpt lat="49.81119" lon="4.80666">
        <ele>220</ele>
        <time>2021-03-30T10:36:38.000Z</time>
      </trkpt>
      <trkpt lat="49.81119" lon="4.80668">
        <ele>220</ele>
        <time>2021-03-30T10:36:39.000Z</time>
      </trkpt>
      <trkpt lat="49.81118" lon="4.8067">
        <ele>221</ele>
        <time>2021-03-30T10:36:40.000Z</time>
      </trkpt>
      <trkpt lat="49.81118" lon="4.80673">
        <ele>221</ele>
        <time>2021-03-30T10:36:41.000Z</time>
      </trkpt>
      <trkpt lat="49.81119" lon="4.80675">
        <ele>221</ele>
        <time>2021-03-30T10:36:42.000Z</time>
      </trkpt>
      <trkpt lat="49.81119" lon="4.80677">
        <ele>221</ele>
        <time>2021-03-30T10:36:43.000Z</time>
      </trkpt>
      <trkpt lat="49.81118" lon="4.80679">
        <ele>221</ele>
        <time>2021-03-30T10:36:44.000Z</time>
      </trkpt>
      <trkpt lat="49.81119" lon="4.80681">
        <ele>221</ele>
        <time>2021-03-30T10:36:45.000Z</time>
      </trkpt>
      <trkpt lat="49.81119" lon="4.80684">
        <ele>222</ele>
        <time>2021-03-30T10:36:46.000Z</time>
      </trkpt>
      <trkpt lat="49.8112" lon="4.80686">
        <ele>222</ele>
        <time>2021-03-30T10:36:47.000Z</time>
      </trkpt>
      <trkpt lat="49.8112" lon="4.80689">
        <ele>222</ele>
        <time>2021-03-30T10:36:48.000Z</time>
      </trkpt>
      <trkpt lat="49.8112" lon="4.80692">
        <ele>222</ele>
        <time>2021-03-30T10:36:49.000Z</time>
      </trkpt>
      <trkpt lat="49.81119" lon="4.80695">
        <ele>223</ele>
        <time>2021-03-30T10:36:50.000Z</time>
      </trkpt>
      <trkpt lat="49.81119" lon="4.80697">
        <ele>223</ele>
        <time>2021-03-30T10:36:51.000Z</time>
      </trkpt>
      <trkpt lat="49.81119" lon="4.80699">
        <ele>223</ele>
        <time>2021-03-30T10:36:52.000Z</time>
      </trkpt>
      <trkpt lat="49.81118" lon="4.80702">
        <ele>223</ele>
        <time>2021-03-30T10:36:53.000Z</time>
      </trkpt>
      <trkpt lat="49.81118" lon="4.80705">
        <ele>224</ele>
        <time>2021-03-30T10:36:54.000Z</time>
      </trkpt>
      <trkpt lat="49.81118" lon="4.80707">
        <ele>224</ele>
        <time>2021-03-30T10:36:55.000Z</time>
      </trkpt>
      <trkpt lat="49.81118" lon="4.8071">
        <ele>224</ele>
        <time>2021-03-30T10:36:56.000Z</time>
      </trkpt>
      <trkpt lat="49.81117" lon="4.80712">
        <ele>224</ele>
        <time>2021-03-30T10:36:57.000Z</time>
      </trkpt>
      <trkpt lat="49.81117" lon="4.80714">
        <ele>225</ele>
        <time>2021-03-30T10:36:58.000Z</time>
      </trkpt>
      <trkpt lat="49.81117" lon="4.80716">
        <ele>225</ele>
        <time>2021-03-30T10:36:59.000Z</time>
      </trkpt>
      <trkpt lat="49.81116" lon="4.80719">
        <ele>225</ele>
        <time>2021-03-30T10:37:00.000Z</time>
      </trkpt>
      <trkpt lat="49.81116" lon="4.80722">
        <ele>225</ele>
        <time>2021-03-30T10:37:01.000Z</time>
      </trkpt>
      <trkpt lat="49.81117" lon="4.80724">
        <ele>226</ele>
        <time>2021-03-30T10:37:02.000Z</time>
      </trkpt>
      <trkpt lat="49.81117" lon="4.80726">
        <ele>226</ele>
        <time>2021-03-30T10:37:03.000Z</time>
      </trkpt>
      <trkpt lat="49.81117" lon="4.80729">
        <ele>226</ele>
        <time>2021-03-30T10:37:04.000Z</time>
      </trkpt>
      <trkpt lat="49.81118" lon="4.80732">
        <ele>226</ele>
        <time>2021-03-30T10:37:05.000Z</time>
      </trkpt>
      <trkpt lat="49.81118" lon="4.80735">
        <ele>227</ele>
        <time>2021-03-30T10:37:06.000Z</time>
      </trkpt>
      <trkpt lat="49.81119" lon="4.80737">
        <ele>227</ele>
        <time>2021-03-30T10:37:07.000Z</time>
      </trkpt>
      <trkpt lat="49.81119" lon="4.8074">
        <ele>227</ele>
        <time>2021-03-30T10:37:08.000Z</time>
      </trkpt>
      <trkpt lat="49.8112" lon="4.80743">
        <ele>228</ele>
        <time>2021-03-30T10:37:09.000Z</time>
      </trkpt>
      <trkpt lat="49.8112" lon="4.80746">
        <ele>228</ele>
        <time>2021-03-30T10:37:10.000Z</time>
      </trkpt>
      <trkpt lat="49.81121" lon="4.80749">
        <ele>228</ele>
        <time>2021-03-30T10:37:11.000Z</time>
      </trkpt>
      <trkpt lat="49.81122" lon="4.80752">
        <ele>228</ele>
        <time>2021-03-30T10:37:12.000Z</time>
      </trkpt>
      <trkpt lat="49.81122" lon="4.80755">
        <ele>229</ele>
        <time>2021-03-30T10:37:13.000Z</time>
      </trkpt>
      <trkpt lat="49.81122" lon="4.80758">
        <ele>229</ele>
        <time>2021-03-30T10:37:14.000Z</time>
      </trkpt>
      <trkpt lat="49.81123" lon="4.80761">
        <ele>229</ele>
        <time>2021-03-30T10:37:15.000Z</time>
      </trkpt>
      <trkpt lat="49.81124" lon="4.80764">
        <ele>229</ele>
        <time>2021-03-30T10:37:16.000Z</time>
      </trkpt>
      <trkpt lat="49.81124" lon="4.80766">
        <ele>230</ele>
        <time>2021-03-30T10:37:17.000Z</time>
      </trkpt>
      <trkpt lat="49.81125" lon="4.80769">
        <ele>230</ele>
        <time>2021-03-30T10:37:18.000Z</time>
      </trkpt>
      <trkpt lat="49.81126" lon="4.80772">
        <ele>230</ele>
        <time>2021-03-30T10:37:19.000Z</time>
      </trkpt>
      <trkpt lat="49.81126" lon="4.80775">
        <ele>231</ele>
        <time>2021-03-30T10:37:20.000Z</time>
      </trkpt>
      <trkpt lat="49.81127" lon="4.80778">
        <ele>231</ele>
        <time>2021-03-30T10:37:21.000Z</time>
      </trkpt>
      <trkpt lat="49.81128" lon="4.80781">
        <ele>231</ele>
        <time>2021-03-30T10:37:22.000Z</time>
      </trkpt>
      <trkpt lat="49.81128" lon="4.80784">
        <ele>232</ele>
        <time>2021-03-30T10:37:23.000Z</time>
      </trkpt>
      <trkpt lat="49.81128" lon="4.80786">
        <ele>232</ele>
        <time>2021-03-30T10:37:24.000Z</time>
      </trkpt>
      <trkpt lat="49.81128" lon="4.80789">
        <ele>232</ele>
        <time>2021-03-30T10:37:25.000Z</time>
      </trkpt>
      <trkpt lat="49.81128" lon="4.80791">
        <ele>233</ele>
        <time>2021-03-30T10:37:26.000Z</time>
      </trkpt>
      <trkpt lat="49.81128" lon="4.80794">
        <ele>233</ele>
        <time>2021-03-30T10:37:27.000Z</time>
      </trkpt>
      <trkpt lat="49.81127" lon="4.80796">
        <ele>234</ele>
        <time>2021-03-30T10:37:28.000Z</time>
      </trkpt>
      <trkpt lat="49.81127" lon="4.80798">
        <ele>234</ele>
        <time>2021-03-30T10:37:29.000Z</time>
      </trkpt>
      <trkpt lat="49.81127" lon="4.808">
        <ele>234</ele>
        <time>2021-03-30T10:37:30.000Z</time>
      </trkpt>
      <trkpt lat="49.81127" lon="4.80802">
        <ele>235</ele>
        <time>2021-03-30T10:37:31.000Z</time>
      </trkpt>
      <trkpt lat="49.81127" lon="4.80804">
        <ele>235</ele>
        <time>2021-03-30T10:37:32.000Z</time>
      </trkpt>
      <trkpt lat="49.81127" lon="4.80806">
        <ele>235</ele>
        <time>2021-03-30T10:37:33.000Z</time>
      </trkpt>
      <trkpt lat="49.81128" lon="4.80809">
        <ele>236</ele>
        <time>2021-03-30T10:37:34.000Z</time>
      </trkpt>
      <trkpt lat="49.81128" lon="4.8081">
        <ele>236</ele>
        <time>2021-03-30T10:37:35.000Z</time>
      </trkpt>
      <trkpt lat="49.81129" lon="4.80812">
        <ele>236</ele>
        <time>2021-03-30T10:37:36.000Z</time>
      </trkpt>
      <trkpt lat="49.8113" lon="4.80814">
        <ele>237</ele>
        <time>2021-03-30T10:37:37.000Z</time>
      </trkpt>
      <trkpt lat="49.8113" lon="4.80815">
        <ele>237</ele>
        <time>2021-03-30T10:37:38.000Z</time>
      </trkpt>
      <trkpt lat="49.81131" lon="4.80817">
        <ele>237</ele>
        <time>2021-03-30T10:37:39.000Z</time>
      </trkpt>
      <trkpt lat="49.81132" lon="4.80818">
        <ele>238</ele>
        <time>2021-03-30T10:37:40.000Z</time>
      </trkpt>
      <trkpt lat="49.81133" lon="4.8082">
        <ele>238</ele>
        <time>2021-03-30T10:37:41.000Z</time>
      </trkpt>
      <trkpt lat="49.81135" lon="4.80822">
        <ele>238</ele>
        <time>2021-03-30T10:37:42.000Z</time>
      </trkpt>
      <trkpt lat="49.81135" lon="4.80823">
        <ele>238</ele>
        <time>2021-03-30T10:37:43.000Z</time>
      </trkpt>
      <trkpt lat="49.81136" lon="4.80825">
        <ele>238</ele>
        <time>2021-03-30T10:37:44.000Z</time>
      </trkpt>
      <trkpt lat="49.81138" lon="4.80827">
        <ele>239</ele>
        <time>2021-03-30T10:37:45.000Z</time>
      </trkpt>
      <trkpt lat="49.81138" lon="4.80828">
        <ele>239</ele>
        <time>2021-03-30T10:37:46.000Z</time>
      </trkpt>
      <trkpt lat="49.81139" lon="4.80829">
        <ele>239</ele>
        <time>2021-03-30T10:37:47.000Z</time>
      </trkpt>
      <trkpt lat="49.8114" lon="4.80831">
        <ele>239</ele>
        <time>2021-03-30T10:37:48.000Z</time>
      </trkpt>
      <trkpt lat="49.81141" lon="4.80832">
        <ele>240</ele>
        <time>2021-03-30T10:37:49.000Z</time>
      </trkpt>
      <trkpt lat="49.81141" lon="4.80834">
        <ele>240</ele>
        <time>2021-03-30T10:37:50.000Z</time>
      </trkpt>
      <trkpt lat="49.81142" lon="4.80835">
        <ele>240</ele>
        <time>2021-03-30T10:37:51.000Z</time>
      </trkpt>
      <trkpt lat="49.81143" lon="4.80836">
        <ele>241</ele>
        <time>2021-03-30T10:37:52.000Z</time>
      </trkpt>
      <trkpt lat="49.81144" lon="4.80837">
        <ele>241</ele>
        <time>2021-03-30T10:37:53.000Z</time>
      </trkpt>
      <trkpt lat="49.81146" lon="4.80839">
        <ele>241</ele>
        <time>2021-03-30T10:37:54.000Z</time>
      </trkpt>
      <trkpt lat="49.81147" lon="4.8084">
        <ele>242</ele>
        <time>2021-03-30T10:37:55.000Z</time>
      </trkpt>
      <trkpt lat="49.81148" lon="4.8084">
        <ele>242</ele>
        <time>2021-03-30T10:37:56.000Z</time>
      </trkpt>
      <trkpt lat="49.81149" lon="4.8084">
        <ele>243</ele>
        <time>2021-03-30T10:37:57.000Z</time>
      </trkpt>
      <trkpt lat="49.81151" lon="4.8084">
        <ele>243</ele>
        <time>2021-03-30T10:37:58.000Z</time>
      </trkpt>
      <trkpt lat="49.81152" lon="4.8084">
        <ele>244</ele>
        <time>2021-03-30T10:37:59.000Z</time>
      </trkpt>
      <trkpt lat="49.81153" lon="4.8084">
        <ele>244</ele>
        <time>2021-03-30T10:38:00.000Z</time>
      </trkpt>
      <trkpt lat="49.81154" lon="4.80839">
        <ele>245</ele>
        <time>2021-03-30T10:38:01.000Z</time>
      </trkpt>
      <trkpt lat="49.81156" lon="4.80838">
        <ele>245</ele>
        <time>2021-03-30T10:38:02.000Z</time>
      </trkpt>
      <trkpt lat="49.81157" lon="4.80838">
        <ele>245</ele>
        <time>2021-03-30T10:38:03.000Z</time>
      </trkpt>
      <trkpt lat="49.81158" lon="4.80836">
        <ele>245</ele>
        <time>2021-03-30T10:38:04.000Z</time>
      </trkpt>
      <trkpt lat="49.8116" lon="4.80835">
        <ele>246</ele>
        <time>2021-03-30T10:38:05.000Z</time>
      </trkpt>
      <trkpt lat="49.81161" lon="4.80834">
        <ele>246</ele>
        <time>2021-03-30T10:38:06.000Z</time>
      </trkpt>
      <trkpt lat="49.81163" lon="4.80833">
        <ele>246</ele>
        <time>2021-03-30T10:38:07.000Z</time>
      </trkpt>
      <trkpt lat="49.81164" lon="4.80832">
        <ele>246</ele>
        <time>2021-03-30T10:38:08.000Z</time>
      </trkpt>
      <trkpt lat="49.81166" lon="4.80831">
        <ele>246</ele>
        <time>2021-03-30T10:38:09.000Z</time>
      </trkpt>
      <trkpt lat="49.81168" lon="4.8083">
        <ele>246</ele>
        <time>2021-03-30T10:38:10.000Z</time>
      </trkpt>
      <trkpt lat="49.8117" lon="4.80829">
        <ele>246</ele>
        <time>2021-03-30T10:38:11.000Z</time>
      </trkpt>
      <trkpt lat="49.81171" lon="4.80829">
        <ele>246</ele>
        <time>2021-03-30T10:38:12.000Z</time>
      </trkpt>
      <trkpt lat="49.81173" lon="4.80827">
        <ele>247</ele>
        <time>2021-03-30T10:38:13.000Z</time>
      </trkpt>
      <trkpt lat="49.81175" lon="4.80826">
        <ele>247</ele>
        <time>2021-03-30T10:38:14.000Z</time>
      </trkpt>
      <trkpt lat="49.81177" lon="4.80824">
        <ele>247</ele>
        <time>2021-03-30T10:38:15.000Z</time>
      </trkpt>
      <trkpt lat="49.81178" lon="4.80823">
        <ele>247</ele>
        <time>2021-03-30T10:38:16.000Z</time>
      </trkpt>
      <trkpt lat="49.8118" lon="4.80823">
        <ele>247</ele>
        <time>2021-03-30T10:38:17.000Z</time>
      </trkpt>
      <trkpt lat="49.81181" lon="4.80823">
        <ele>247</ele>
        <time>2021-03-30T10:38:18.000Z</time>
      </trkpt>
      <trkpt lat="49.81183" lon="4.80823">
        <ele>247</ele>
        <time>2021-03-30T10:38:19.000Z</time>
      </trkpt>
      <trkpt lat="49.81184" lon="4.80822">
        <ele>247</ele>
        <time>2021-03-30T10:38:20.000Z</time>
      </trkpt>
      <trkpt lat="49.81186" lon="4.80821">
        <ele>247</ele>
        <time>2021-03-30T10:38:21.000Z</time>
      </trkpt>
      <trkpt lat="49.81187" lon="4.80821">
        <ele>247</ele>
        <time>2021-03-30T10:38:22.000Z</time>
      </trkpt>
      <trkpt lat="49.81189" lon="4.8082">
        <ele>248</ele>
        <time>2021-03-30T10:38:23.000Z</time>
      </trkpt>
      <trkpt lat="49.81191" lon="4.8082">
        <ele>248</ele>
        <time>2021-03-30T10:38:24.000Z</time>
      </trkpt>
      <trkpt lat="49.81193" lon="4.80819">
        <ele>248</ele>
        <time>2021-03-30T10:38:25.000Z</time>
      </trkpt>
      <trkpt lat="49.81194" lon="4.80819">
        <ele>248</ele>
        <time>2021-03-30T10:38:26.000Z</time>
      </trkpt>
      <trkpt lat="49.81196" lon="4.80818">
        <ele>248</ele>
        <time>2021-03-30T10:38:27.000Z</time>
      </trkpt>
      <trkpt lat="49.81198" lon="4.80818">
        <ele>249</ele>
        <time>2021-03-30T10:38:28.000Z</time>
      </trkpt>
      <trkpt lat="49.812" lon="4.80817">
        <ele>249</ele>
        <time>2021-03-30T10:38:29.000Z</time>
      </trkpt>
      <trkpt lat="49.81201" lon="4.80817">
        <ele>249</ele>
        <time>2021-03-30T10:38:30.000Z</time>
      </trkpt>
      <trkpt lat="49.81203" lon="4.80817">
        <ele>249</ele>
        <time>2021-03-30T10:38:31.000Z</time>
      </trkpt>
      <trkpt lat="49.81204" lon="4.80816">
        <ele>249</ele>
        <time>2021-03-30T10:38:32.000Z</time>
      </trkpt>
      <trkpt lat="49.81205" lon="4.80816">
        <ele>250</ele>
        <time>2021-03-30T10:38:33.000Z</time>
      </trkpt>
      <trkpt lat="49.81207" lon="4.80815">
        <ele>250</ele>
        <time>2021-03-30T10:38:34.000Z</time>
      </trkpt>
      <trkpt lat="49.81208" lon="4.80815">
        <ele>250</ele>
        <time>2021-03-30T10:38:35.000Z</time>
      </trkpt>
      <trkpt lat="49.8121" lon="4.80814">
        <ele>250</ele>
        <time>2021-03-30T10:38:36.000Z</time>
      </trkpt>
      <trkpt lat="49.81211" lon="4.80813">
        <ele>251</ele>
        <time>2021-03-30T10:38:37.000Z</time>
      </trkpt>
      <trkpt lat="49.81213" lon="4.80812">
        <ele>251</ele>
        <time>2021-03-30T10:38:38.000Z</time>
      </trkpt>
      <trkpt lat="49.81215" lon="4.80812">
        <ele>251</ele>
        <time>2021-03-30T10:38:39.000Z</time>
      </trkpt>
      <trkpt lat="49.81216" lon="4.80811">
        <ele>252</ele>
        <time>2021-03-30T10:38:40.000Z</time>
      </trkpt>
      <trkpt lat="49.81218" lon="4.8081">
        <ele>252</ele>
        <time>2021-03-30T10:38:41.000Z</time>
      </trkpt>
      <trkpt lat="49.8122" lon="4.80809">
        <ele>252</ele>
        <time>2021-03-30T10:38:42.000Z</time>
      </trkpt>
      <trkpt lat="49.81221" lon="4.80807">
        <ele>253</ele>
        <time>2021-03-30T10:38:43.000Z</time>
      </trkpt>
      <trkpt lat="49.81222" lon="4.80806">
        <ele>253</ele>
        <time>2021-03-30T10:38:44.000Z</time>
      </trkpt>
      <trkpt lat="49.81224" lon="4.80806">
        <ele>253</ele>
        <time>2021-03-30T10:38:45.000Z</time>
      </trkpt>
      <trkpt lat="49.81224" lon="4.80805">
        <ele>254</ele>
        <time>2021-03-30T10:38:46.000Z</time>
      </trkpt>
      <trkpt lat="49.81226" lon="4.80804">
        <ele>254</ele>
        <time>2021-03-30T10:38:47.000Z</time>
      </trkpt>
      <trkpt lat="49.81227" lon="4.80802">
        <ele>255</ele>
        <time>2021-03-30T10:38:48.000Z</time>
      </trkpt>
      <trkpt lat="49.81228" lon="4.80801">
        <ele>255</ele>
        <time>2021-03-30T10:38:49.000Z</time>
      </trkpt>
      <trkpt lat="49.8123" lon="4.808">
        <ele>255</ele>
        <time>2021-03-30T10:38:50.000Z</time>
      </trkpt>
      <trkpt lat="49.81231" lon="4.80799">
        <ele>255</ele>
        <time>2021-03-30T10:38:51.000Z</time>
      </trkpt>
      <trkpt lat="49.81232" lon="4.80798">
        <ele>256</ele>
        <time>2021-03-30T10:38:52.000Z</time>
      </trkpt>
      <trkpt lat="49.81234" lon="4.80798">
        <ele>256</ele>
        <time>2021-03-30T10:38:53.000Z</time>
      </trkpt>
      <trkpt lat="49.81235" lon="4.80797">
        <ele>256</ele>
        <time>2021-03-30T10:38:54.000Z</time>
      </trkpt>
      <trkpt lat="49.81236" lon="4.80796">
        <ele>257</ele>
        <time>2021-03-30T10:38:55.000Z</time>
      </trkpt>
      <trkpt lat="49.81238" lon="4.80795">
        <ele>257</ele>
        <time>2021-03-30T10:38:56.000Z</time>
      </trkpt>
      <trkpt lat="49.81239" lon="4.80794">
        <ele>257</ele>
        <time>2021-03-30T10:38:57.000Z</time>
      </trkpt>
      <trkpt lat="49.8124" lon="4.80793">
        <ele>258</ele>
        <time>2021-03-30T10:38:58.000Z</time>
      </trkpt>
      <trkpt lat="49.81241" lon="4.80792">
        <ele>258</ele>
        <time>2021-03-30T10:38:59.000Z</time>
      </trkpt>
      <trkpt lat="49.81242" lon="4.80791">
        <ele>259</ele>
        <time>2021-03-30T10:39:00.000Z</time>
      </trkpt>
      <trkpt lat="49.81244" lon="4.8079">
        <ele>259</ele>
        <time>2021-03-30T10:39:01.000Z</time>
      </trkpt>
      <trkpt lat="49.81245" lon="4.80789">
        <ele>259</ele>
        <time>2021-03-30T10:39:02.000Z</time>
      </trkpt>
      <trkpt lat="49.81246" lon="4.80788">
        <ele>260</ele>
        <time>2021-03-30T10:39:03.000Z</time>
      </trkpt>
      <trkpt lat="49.81248" lon="4.80787">
        <ele>260</ele>
        <time>2021-03-30T10:39:04.000Z</time>
      </trkpt>
      <trkpt lat="49.81249" lon="4.80786">
        <ele>260</ele>
        <time>2021-03-30T10:39:05.000Z</time>
      </trkpt>
      <trkpt lat="49.81251" lon="4.80784">
        <ele>260</ele>
        <time>2021-03-30T10:39:06.000Z</time>
      </trkpt>
      <trkpt lat="49.81252" lon="4.80783">
        <ele>261</ele>
        <time>2021-03-30T10:39:07.000Z</time>
      </trkpt>
      <trkpt lat="49.81253" lon="4.80782">
        <ele>261</ele>
        <time>2021-03-30T10:39:08.000Z</time>
      </trkpt>
      <trkpt lat="49.81255" lon="4.80781">
        <ele>261</ele>
        <time>2021-03-30T10:39:09.000Z</time>
      </trkpt>
      <trkpt lat="49.81256" lon="4.8078">
        <ele>261</ele>
        <time>2021-03-30T10:39:10.000Z</time>
      </trkpt>
      <trkpt lat="49.81257" lon="4.80779">
        <ele>261</ele>
        <time>2021-03-30T10:39:11.000Z</time>
      </trkpt>
      <trkpt lat="49.81258" lon="4.80778">
        <ele>261</ele>
        <time>2021-03-30T10:39:12.000Z</time>
      </trkpt>
      <trkpt lat="49.8126" lon="4.80777">
        <ele>262</ele>
        <time>2021-03-30T10:39:13.000Z</time>
      </trkpt>
      <trkpt lat="49.81262" lon="4.80776">
        <ele>262</ele>
        <time>2021-03-30T10:39:14.000Z</time>
      </trkpt>
      <trkpt lat="49.81263" lon="4.80774">
        <ele>262</ele>
        <time>2021-03-30T10:39:15.000Z</time>
      </trkpt>
      <trkpt lat="49.81265" lon="4.80774">
        <ele>262</ele>
        <time>2021-03-30T10:39:16.000Z</time>
      </trkpt>
      <trkpt lat="49.81266" lon="4.80773">
        <ele>262</ele>
        <time>2021-03-30T10:39:17.000Z</time>
      </trkpt>
      <trkpt lat="49.81268" lon="4.80772">
        <ele>262</ele>
        <time>2021-03-30T10:39:18.000Z</time>
      </trkpt>
      <trkpt lat="49.81269" lon="4.80771">
        <ele>263</ele>
        <time>2021-03-30T10:39:19.000Z</time>
      </trkpt>
      <trkpt lat="49.8127" lon="4.8077">
        <ele>263</ele>
        <time>2021-03-30T10:39:20.000Z</time>
      </trkpt>
      <trkpt lat="49.81271" lon="4.80769">
        <ele>263</ele>
        <time>2021-03-30T10:39:21.000Z</time>
      </trkpt>
      <trkpt lat="49.81273" lon="4.80767">
        <ele>264</ele>
        <time>2021-03-30T10:39:22.000Z</time>
      </trkpt>
      <trkpt lat="49.81274" lon="4.80766">
        <ele>264</ele>
        <time>2021-03-30T10:39:23.000Z</time>
      </trkpt>
      <trkpt lat="49.81275" lon="4.80764">
        <ele>264</ele>
        <time>2021-03-30T10:39:24.000Z</time>
      </trkpt>
      <trkpt lat="49.81277" lon="4.80763">
        <ele>264</ele>
        <time>2021-03-30T10:39:25.000Z</time>
      </trkpt>
      <trkpt lat="49.81277" lon="4.80762">
        <ele>265</ele>
        <time>2021-03-30T10:39:26.000Z</time>
      </trkpt>
      <trkpt lat="49.81278" lon="4.8076">
        <ele>265</ele>
        <time>2021-03-30T10:39:27.000Z</time>
      </trkpt>
      <trkpt lat="49.8128" lon="4.80759">
        <ele>265</ele>
        <time>2021-03-30T10:39:28.000Z</time>
      </trkpt>
      <trkpt lat="49.81281" lon="4.80757">
        <ele>266</ele>
        <time>2021-03-30T10:39:29.000Z</time>
      </trkpt>
      <trkpt lat="49.81282" lon="4.80756">
        <ele>266</ele>
        <time>2021-03-30T10:39:30.000Z</time>
      </trkpt>
      <trkpt lat="49.81283" lon="4.80755">
        <ele>266</ele>
        <time>2021-03-30T10:39:31.000Z</time>
      </trkpt>
      <trkpt lat="49.81284" lon="4.80754">
        <ele>267</ele>
        <time>2021-03-30T10:39:32.000Z</time>
      </trkpt>
      <trkpt lat="49.81285" lon="4.80752">
        <ele>267</ele>
        <time>2021-03-30T10:39:33.000Z</time>
      </trkpt>
      <trkpt lat="49.81286" lon="4.80751">
        <ele>268</ele>
        <time>2021-03-30T10:39:34.000Z</time>
      </trkpt>
      <trkpt lat="49.81287" lon="4.80749">
        <ele>268</ele>
        <time>2021-03-30T10:39:35.000Z</time>
      </trkpt>
      <trkpt lat="49.81289" lon="4.80748">
        <ele>268</ele>
        <time>2021-03-30T10:39:36.000Z</time>
      </trkpt>
      <trkpt lat="49.8129" lon="4.80747">
        <ele>269</ele>
        <time>2021-03-30T10:39:37.000Z</time>
      </trkpt>
      <trkpt lat="49.81291" lon="4.80746">
        <ele>269</ele>
        <time>2021-03-30T10:39:38.000Z</time>
      </trkpt>
      <trkpt lat="49.81292" lon="4.80745">
        <ele>270</ele>
        <time>2021-03-30T10:39:39.000Z</time>
      </trkpt>
      <trkpt lat="49.81293" lon="4.80744">
        <ele>270</ele>
        <time>2021-03-30T10:39:40.000Z</time>
      </trkpt>
      <trkpt lat="49.81295" lon="4.80744">
        <ele>271</ele>
        <time>2021-03-30T10:39:41.000Z</time>
      </trkpt>
      <trkpt lat="49.81296" lon="4.80743">
        <ele>272</ele>
        <time>2021-03-30T10:39:42.000Z</time>
      </trkpt>
      <trkpt lat="49.81297" lon="4.80741">
        <ele>272</ele>
        <time>2021-03-30T10:39:43.000Z</time>
      </trkpt>
      <trkpt lat="49.81298" lon="4.8074">
        <ele>272</ele>
        <time>2021-03-30T10:39:44.000Z</time>
      </trkpt>
      <trkpt lat="49.813" lon="4.80739">
        <ele>273</ele>
        <time>2021-03-30T10:39:45.000Z</time>
      </trkpt>
      <trkpt lat="49.81301" lon="4.80738">
        <ele>273</ele>
        <time>2021-03-30T10:39:46.000Z</time>
      </trkpt>
      <trkpt lat="49.81302" lon="4.80737">
        <ele>273</ele>
        <time>2021-03-30T10:39:47.000Z</time>
      </trkpt>
      <trkpt lat="49.81303" lon="4.80736">
        <ele>274</ele>
        <time>2021-03-30T10:39:48.000Z</time>
      </trkpt>
      <trkpt lat="49.81304" lon="4.80734">
        <ele>274</ele>
        <time>2021-03-30T10:39:49.000Z</time>
      </trkpt>
      <trkpt lat="49.81306" lon="4.80733">
        <ele>274</ele>
        <time>2021-03-30T10:39:50.000Z</time>
      </trkpt>
      <trkpt lat="49.81306" lon="4.80732">
        <ele>275</ele>
        <time>2021-03-30T10:39:51.000Z</time>
      </trkpt>
      <trkpt lat="49.81308" lon="4.80731">
        <ele>275</ele>
        <time>2021-03-30T10:39:52.000Z</time>
      </trkpt>
      <trkpt lat="49.81309" lon="4.80729">
        <ele>275</ele>
        <time>2021-03-30T10:39:53.000Z</time>
      </trkpt>
      <trkpt lat="49.8131" lon="4.80728">
        <ele>275</ele>
        <time>2021-03-30T10:39:54.000Z</time>
      </trkpt>
      <trkpt lat="49.81311" lon="4.80726">
        <ele>276</ele>
        <time>2021-03-30T10:39:55.000Z</time>
      </trkpt>
      <trkpt lat="49.81312" lon="4.80725">
        <ele>276</ele>
        <time>2021-03-30T10:39:56.000Z</time>
      </trkpt>
      <trkpt lat="49.81314" lon="4.80723">
        <ele>276</ele>
        <time>2021-03-30T10:39:57.000Z</time>
      </trkpt>
      <trkpt lat="49.81315" lon="4.80722">
        <ele>276</ele>
        <time>2021-03-30T10:39:58.000Z</time>
      </trkpt>
      <trkpt lat="49.81316" lon="4.8072">
        <ele>277</ele>
        <time>2021-03-30T10:39:59.000Z</time>
      </trkpt>
      <trkpt lat="49.81318" lon="4.80719">
        <ele>277</ele>
        <time>2021-03-30T10:40:00.000Z</time>
      </trkpt>
      <trkpt lat="49.81319" lon="4.80717">
        <ele>277</ele>
        <time>2021-03-30T10:40:01.000Z</time>
      </trkpt>
      <trkpt lat="49.8132" lon="4.80716">
        <ele>277</ele>
        <time>2021-03-30T10:40:02.000Z</time>
      </trkpt>
      <trkpt lat="49.81321" lon="4.80715">
        <ele>277</ele>
        <time>2021-03-30T10:40:03.000Z</time>
      </trkpt>
      <trkpt lat="49.81323" lon="4.80714">
        <ele>277</ele>
        <time>2021-03-30T10:40:04.000Z</time>
      </trkpt>
      <trkpt lat="49.81324" lon="4.80712">
        <ele>278</ele>
        <time>2021-03-30T10:40:05.000Z</time>
      </trkpt>
      <trkpt lat="49.81325" lon="4.80711">
        <ele>278</ele>
        <time>2021-03-30T10:40:06.000Z</time>
      </trkpt>
      <trkpt lat="49.81326" lon="4.80709">
        <ele>278</ele>
        <time>2021-03-30T10:40:07.000Z</time>
      </trkpt>
      <trkpt lat="49.81327" lon="4.80708">
        <ele>278</ele>
        <time>2021-03-30T10:40:08.000Z</time>
      </trkpt>
      <trkpt lat="49.81328" lon="4.80706">
        <ele>278</ele>
        <time>2021-03-30T10:40:09.000Z</time>
      </trkpt>
      <trkpt lat="49.81329" lon="4.80704">
        <ele>279</ele>
        <time>2021-03-30T10:40:10.000Z</time>
      </trkpt>
      <trkpt lat="49.8133" lon="4.80703">
        <ele>279</ele>
        <time>2021-03-30T10:40:11.000Z</time>
      </trkpt>
      <trkpt lat="49.81331" lon="4.80701">
        <ele>279</ele>
        <time>2021-03-30T10:40:12.000Z</time>
      </trkpt>
      <trkpt lat="49.81332" lon="4.807">
        <ele>280</ele>
        <time>2021-03-30T10:40:13.000Z</time>
      </trkpt>
      <trkpt lat="49.81333" lon="4.80698">
        <ele>280</ele>
        <time>2021-03-30T10:40:14.000Z</time>
      </trkpt>
      <trkpt lat="49.81334" lon="4.80696">
        <ele>281</ele>
        <time>2021-03-30T10:40:15.000Z</time>
      </trkpt>
      <trkpt lat="49.81335" lon="4.80695">
        <ele>281</ele>
        <time>2021-03-30T10:40:16.000Z</time>
      </trkpt>
      <trkpt lat="49.81336" lon="4.80694">
        <ele>281</ele>
        <time>2021-03-30T10:40:17.000Z</time>
      </trkpt>
      <trkpt lat="49.81337" lon="4.80692">
        <ele>281</ele>
        <time>2021-03-30T10:40:18.000Z</time>
      </trkpt>
      <trkpt lat="49.81338" lon="4.80691">
        <ele>282</ele>
        <time>2021-03-30T10:40:19.000Z</time>
      </trkpt>
      <trkpt lat="49.81339" lon="4.80689">
        <ele>282</ele>
        <time>2021-03-30T10:40:20.000Z</time>
      </trkpt>
      <trkpt lat="49.8134" lon="4.80688">
        <ele>282</ele>
        <time>2021-03-30T10:40:21.000Z</time>
      </trkpt>
      <trkpt lat="49.8134" lon="4.80686">
        <ele>283</ele>
        <time>2021-03-30T10:40:22.000Z</time>
      </trkpt>
      <trkpt lat="49.81341" lon="4.80684">
        <ele>283</ele>
        <time>2021-03-30T10:40:23.000Z</time>
      </trkpt>
      <trkpt lat="49.81342" lon="4.80683">
        <ele>283</ele>
        <time>2021-03-30T10:40:24.000Z</time>
      </trkpt>
      <trkpt lat="49.81343" lon="4.80682">
        <ele>283</ele>
        <time>2021-03-30T10:40:25.000Z</time>
      </trkpt>
      <trkpt lat="49.81344" lon="4.8068">
        <ele>284</ele>
        <time>2021-03-30T10:40:26.000Z</time>
      </trkpt>
      <trkpt lat="49.81345" lon="4.80679">
        <ele>284</ele>
        <time>2021-03-30T10:40:27.000Z</time>
      </trkpt>
      <trkpt lat="49.81346" lon="4.80677">
        <ele>284</ele>
        <time>2021-03-30T10:40:28.000Z</time>
      </trkpt>
      <trkpt lat="49.81347" lon="4.80676">
        <ele>285</ele>
        <time>2021-03-30T10:40:29.000Z</time>
      </trkpt>
      <trkpt lat="49.81349" lon="4.80675">
        <ele>285</ele>
        <time>2021-03-30T10:40:30.000Z</time>
      </trkpt>
      <trkpt lat="49.8135" lon="4.80673">
        <ele>285</ele>
        <time>2021-03-30T10:40:31.000Z</time>
      </trkpt>
      <trkpt lat="49.81351" lon="4.80671">
        <ele>286</ele>
        <time>2021-03-30T10:40:32.000Z</time>
      </trkpt>
      <trkpt lat="49.81352" lon="4.80669">
        <ele>286</ele>
        <time>2021-03-30T10:40:33.000Z</time>
      </trkpt>
      <trkpt lat="49.81353" lon="4.80668">
        <ele>286</ele>
        <time>2021-03-30T10:40:34.000Z</time>
      </trkpt>
      <trkpt lat="49.81354" lon="4.80667">
        <ele>286</ele>
        <time>2021-03-30T10:40:35.000Z</time>
      </trkpt>
      <trkpt lat="49.81355" lon="4.80665">
        <ele>287</ele>
        <time>2021-03-30T10:40:36.000Z</time>
      </trkpt>
      <trkpt lat="49.81356" lon="4.80664">
        <ele>287</ele>
        <time>2021-03-30T10:40:37.000Z</time>
      </trkpt>
      <trkpt lat="49.81357" lon="4.80662">
        <ele>287</ele>
        <time>2021-03-30T10:40:38.000Z</time>
      </trkpt>
      <trkpt lat="49.81358" lon="4.8066">
        <ele>287</ele>
        <time>2021-03-30T10:40:39.000Z</time>
      </trkpt>
      <trkpt lat="49.81359" lon="4.80658">
        <ele>287</ele>
        <time>2021-03-30T10:40:40.000Z</time>
      </trkpt>
      <trkpt lat="49.8136" lon="4.80656">
        <ele>287</ele>
        <time>2021-03-30T10:40:41.000Z</time>
      </trkpt>
      <trkpt lat="49.81362" lon="4.80655">
        <ele>287</ele>
        <time>2021-03-30T10:40:42.000Z</time>
      </trkpt>
      <trkpt lat="49.81363" lon="4.80653">
        <ele>288</ele>
        <time>2021-03-30T10:40:43.000Z</time>
      </trkpt>
      <trkpt lat="49.81364" lon="4.8065">
        <ele>288</ele>
        <time>2021-03-30T10:40:44.000Z</time>
      </trkpt>
      <trkpt lat="49.81365" lon="4.80648">
        <ele>288</ele>
        <time>2021-03-30T10:40:45.000Z</time>
      </trkpt>
      <trkpt lat="49.81366" lon="4.80646">
        <ele>288</ele>
        <time>2021-03-30T10:40:46.000Z</time>
      </trkpt>
      <trkpt lat="49.81367" lon="4.80644">
        <ele>288</ele>
        <time>2021-03-30T10:40:47.000Z</time>
      </trkpt>
      <trkpt lat="49.81368" lon="4.80643">
        <ele>289</ele>
        <time>2021-03-30T10:40:48.000Z</time>
      </trkpt>
      <trkpt lat="49.8137" lon="4.80641">
        <ele>289</ele>
        <time>2021-03-30T10:40:49.000Z</time>
      </trkpt>
      <trkpt lat="49.81371" lon="4.8064">
        <ele>289</ele>
        <time>2021-03-30T10:40:50.000Z</time>
      </trkpt>
      <trkpt lat="49.81373" lon="4.80638">
        <ele>290</ele>
        <time>2021-03-30T10:40:51.000Z</time>
      </trkpt>
      <trkpt lat="49.81373" lon="4.80638">
        <ele>290</ele>
        <time>2021-03-30T10:40:52.000Z</time>
      </trkpt>
      <trkpt lat="49.81374" lon="4.80636">
        <ele>290</ele>
        <time>2021-03-30T10:40:53.000Z</time>
      </trkpt>
      <trkpt lat="49.81375" lon="4.80634">
        <ele>291</ele>
        <time>2021-03-30T10:40:54.000Z</time>
      </trkpt>
      <trkpt lat="49.81376" lon="4.80633">
        <ele>291</ele>
        <time>2021-03-30T10:40:55.000Z</time>
      </trkpt>
      <trkpt lat="49.81378" lon="4.80632">
        <ele>291</ele>
        <time>2021-03-30T10:40:56.000Z</time>
      </trkpt>
      <trkpt lat="49.81379" lon="4.80631">
        <ele>292</ele>
        <time>2021-03-30T10:40:57.000Z</time>
      </trkpt>
      <trkpt lat="49.8138" lon="4.8063">
        <ele>292</ele>
        <time>2021-03-30T10:40:58.000Z</time>
      </trkpt>
      <trkpt lat="49.81381" lon="4.80629">
        <ele>292</ele>
        <time>2021-03-30T10:40:59.000Z</time>
      </trkpt>
      <trkpt lat="49.81382" lon="4.80629">
        <ele>293</ele>
        <time>2021-03-30T10:41:00.000Z</time>
      </trkpt>
      <trkpt lat="49.81383" lon="4.80628">
        <ele>293</ele>
        <time>2021-03-30T10:41:01.000Z</time>
      </trkpt>
      <trkpt lat="49.81385" lon="4.80627">
        <ele>293</ele>
        <time>2021-03-30T10:41:02.000Z</time>
      </trkpt>
      <trkpt lat="49.81386" lon="4.80627">
        <ele>293</ele>
        <time>2021-03-30T10:41:03.000Z</time>
      </trkpt>
      <trkpt lat="49.81387" lon="4.80626">
        <ele>293</ele>
        <time>2021-03-30T10:41:04.000Z</time>
      </trkpt>
      <trkpt lat="49.81388" lon="4.80625">
        <ele>293</ele>
        <time>2021-03-30T10:41:05.000Z</time>
      </trkpt>
      <trkpt lat="49.8139" lon="4.80625">
        <ele>294</ele>
        <time>2021-03-30T10:41:06.000Z</time>
      </trkpt>
      <trkpt lat="49.81391" lon="4.80624">
        <ele>294</ele>
        <time>2021-03-30T10:41:07.000Z</time>
      </trkpt>
      <trkpt lat="49.81392" lon="4.80623">
        <ele>294</ele>
        <time>2021-03-30T10:41:08.000Z</time>
      </trkpt>
      <trkpt lat="49.81393" lon="4.80622">
        <ele>295</ele>
        <time>2021-03-30T10:41:09.000Z</time>
      </trkpt>
      <trkpt lat="49.81394" lon="4.80621">
        <ele>295</ele>
        <time>2021-03-30T10:41:10.000Z</time>
      </trkpt>
      <trkpt lat="49.81396" lon="4.80619">
        <ele>295</ele>
        <time>2021-03-30T10:41:11.000Z</time>
      </trkpt>
      <trkpt lat="49.81397" lon="4.80617">
        <ele>296</ele>
        <time>2021-03-30T10:41:12.000Z</time>
      </trkpt>
      <trkpt lat="49.81399" lon="4.80616">
        <ele>296</ele>
        <time>2021-03-30T10:41:13.000Z</time>
      </trkpt>
      <trkpt lat="49.814" lon="4.80615">
        <ele>297</ele>
        <time>2021-03-30T10:41:14.000Z</time>
      </trkpt>
      <trkpt lat="49.81401" lon="4.80614">
        <ele>297</ele>
        <time>2021-03-30T10:41:15.000Z</time>
      </trkpt>
      <trkpt lat="49.81403" lon="4.80612">
        <ele>298</ele>
        <time>2021-03-30T10:41:16.000Z</time>
      </trkpt>
      <trkpt lat="49.81405" lon="4.8061">
        <ele>298</ele>
        <time>2021-03-30T10:41:17.000Z</time>
      </trkpt>
      <trkpt lat="49.81406" lon="4.80609">
        <ele>298</ele>
        <time>2021-03-30T10:41:18.000Z</time>
      </trkpt>
      <trkpt lat="49.81408" lon="4.80608">
        <ele>298</ele>
        <time>2021-03-30T10:41:19.000Z</time>
      </trkpt>
      <trkpt lat="49.81409" lon="4.80607">
        <ele>298</ele>
        <time>2021-03-30T10:41:20.000Z</time>
      </trkpt>
      <trkpt lat="49.8141" lon="4.80605">
        <ele>299</ele>
        <time>2021-03-30T10:41:21.000Z</time>
      </trkpt>
      <trkpt lat="49.81412" lon="4.80603">
        <ele>299</ele>
        <time>2021-03-30T10:41:22.000Z</time>
      </trkpt>
      <trkpt lat="49.81413" lon="4.80602">
        <ele>299</ele>
        <time>2021-03-30T10:41:23.000Z</time>
      </trkpt>
      <trkpt lat="49.81415" lon="4.806">
        <ele>299</ele>
        <time>2021-03-30T10:41:24.000Z</time>
      </trkpt>
      <trkpt lat="49.81417" lon="4.80598">
        <ele>299</ele>
        <time>2021-03-30T10:41:25.000Z</time>
      </trkpt>
      <trkpt lat="49.81419" lon="4.80597">
        <ele>299</ele>
        <time>2021-03-30T10:41:26.000Z</time>
      </trkpt>
      <trkpt lat="49.81421" lon="4.80596">
        <ele>299</ele>
        <time>2021-03-30T10:41:27.000Z</time>
      </trkpt>
      <trkpt lat="49.81422" lon="4.80595">
        <ele>299</ele>
        <time>2021-03-30T10:41:28.000Z</time>
      </trkpt>
      <trkpt lat="49.81423" lon="4.80593">
        <ele>300</ele>
        <time>2021-03-30T10:41:29.000Z</time>
      </trkpt>
      <trkpt lat="49.81425" lon="4.80591">
        <ele>300</ele>
        <time>2021-03-30T10:41:30.000Z</time>
      </trkpt>
      <trkpt lat="49.81426" lon="4.8059">
        <ele>300</ele>
        <time>2021-03-30T10:41:31.000Z</time>
      </trkpt>
      <trkpt lat="49.81428" lon="4.80589">
        <ele>300</ele>
        <time>2021-03-30T10:41:32.000Z</time>
      </trkpt>
      <trkpt lat="49.81429" lon="4.80588">
        <ele>301</ele>
        <time>2021-03-30T10:41:33.000Z</time>
      </trkpt>
      <trkpt lat="49.81431" lon="4.80587">
        <ele>301</ele>
        <time>2021-03-30T10:41:34.000Z</time>
      </trkpt>
      <trkpt lat="49.81432" lon="4.80586">
        <ele>301</ele>
        <time>2021-03-30T10:41:35.000Z</time>
      </trkpt>
      <trkpt lat="49.81434" lon="4.80584">
        <ele>302</ele>
        <time>2021-03-30T10:41:36.000Z</time>
      </trkpt>
      <trkpt lat="49.81435" lon="4.80583">
        <ele>302</ele>
        <time>2021-03-30T10:41:37.000Z</time>
      </trkpt>
      <trkpt lat="49.81437" lon="4.80582">
        <ele>302</ele>
        <time>2021-03-30T10:41:38.000Z</time>
      </trkpt>
      <trkpt lat="49.81438" lon="4.8058">
        <ele>303</ele>
        <time>2021-03-30T10:41:39.000Z</time>
      </trkpt>
      <trkpt lat="49.8144" lon="4.80579">
        <ele>303</ele>
        <time>2021-03-30T10:41:40.000Z</time>
      </trkpt>
      <trkpt lat="49.81441" lon="4.80579">
        <ele>303</ele>
        <time>2021-03-30T10:41:41.000Z</time>
      </trkpt>
      <trkpt lat="49.81443" lon="4.80578">
        <ele>304</ele>
        <time>2021-03-30T10:41:42.000Z</time>
      </trkpt>
      <trkpt lat="49.81444" lon="4.80577">
        <ele>304</ele>
        <time>2021-03-30T10:41:43.000Z</time>
      </trkpt>
      <trkpt lat="49.81445" lon="4.80576">
        <ele>304</ele>
        <time>2021-03-30T10:41:44.000Z</time>
      </trkpt>
      <trkpt lat="49.81447" lon="4.80576">
        <ele>304</ele>
        <time>2021-03-30T10:41:45.000Z</time>
      </trkpt>
      <trkpt lat="49.81448" lon="4.80575">
        <ele>305</ele>
        <time>2021-03-30T10:41:46.000Z</time>
      </trkpt>
      <trkpt lat="49.8145" lon="4.80574">
        <ele>305</ele>
        <time>2021-03-30T10:41:47.000Z</time>
      </trkpt>
      <trkpt lat="49.81451" lon="4.80573">
        <ele>306</ele>
        <time>2021-03-30T10:41:48.000Z</time>
      </trkpt>
      <trkpt lat="49.81453" lon="4.80572">
        <ele>306</ele>
        <time>2021-03-30T10:41:49.000Z</time>
      </trkpt>
      <trkpt lat="49.81454" lon="4.80571">
        <ele>307</ele>
        <time>2021-03-30T10:41:50.000Z</time>
      </trkpt>
      <trkpt lat="49.81456" lon="4.80571">
        <ele>307</ele>
        <time>2021-03-30T10:41:51.000Z</time>
      </trkpt>
      <trkpt lat="49.81458" lon="4.8057">
        <ele>308</ele>
        <time>2021-03-30T10:41:52.000Z</time>
      </trkpt>
      <trkpt lat="49.8146" lon="4.8057">
        <ele>308</ele>
        <time>2021-03-30T10:41:53.000Z</time>
      </trkpt>
      <trkpt lat="49.81461" lon="4.8057">
        <ele>308</ele>
        <time>2021-03-30T10:41:54.000Z</time>
      </trkpt>
      <trkpt lat="49.81463" lon="4.8057">
        <ele>309</ele>
        <time>2021-03-30T10:41:55.000Z</time>
      </trkpt>
      <trkpt lat="49.81465" lon="4.80569">
        <ele>309</ele>
        <time>2021-03-30T10:41:56.000Z</time>
      </trkpt>
      <trkpt lat="49.81467" lon="4.80569">
        <ele>310</ele>
        <time>2021-03-30T10:41:57.000Z</time>
      </trkpt>
      <trkpt lat="49.81468" lon="4.8057">
        <ele>310</ele>
        <time>2021-03-30T10:41:58.000Z</time>
      </trkpt>
      <trkpt lat="49.81469" lon="4.8057">
        <ele>311</ele>
        <time>2021-03-30T10:41:59.000Z</time>
      </trkpt>
      <trkpt lat="49.81471" lon="4.8057">
        <ele>311</ele>
        <time>2021-03-30T10:42:00.000Z</time>
      </trkpt>
      <trkpt lat="49.81473" lon="4.8057">
        <ele>311</ele>
        <time>2021-03-30T10:42:01.000Z</time>
      </trkpt>
      <trkpt lat="49.81475" lon="4.80571">
        <ele>311</ele>
        <time>2021-03-30T10:42:02.000Z</time>
      </trkpt>
      <trkpt lat="49.81477" lon="4.80572">
        <ele>312</ele>
        <time>2021-03-30T10:42:03.000Z</time>
      </trkpt>
      <trkpt lat="49.81479" lon="4.80572">
        <ele>312</ele>
        <time>2021-03-30T10:42:04.000Z</time>
      </trkpt>
      <trkpt lat="49.81482" lon="4.80573">
        <ele>312</ele>
        <time>2021-03-30T10:42:05.000Z</time>
      </trkpt>
      <trkpt lat="49.81484" lon="4.80573">
        <ele>312</ele>
        <time>2021-03-30T10:42:06.000Z</time>
      </trkpt>
      <trkpt lat="49.81485" lon="4.80573">
        <ele>313</ele>
        <time>2021-03-30T10:42:07.000Z</time>
      </trkpt>
      <trkpt lat="49.81487" lon="4.80573">
        <ele>313</ele>
        <time>2021-03-30T10:42:08.000Z</time>
      </trkpt>
      <trkpt lat="49.81489" lon="4.80573">
        <ele>313</ele>
        <time>2021-03-30T10:42:09.000Z</time>
      </trkpt>
      <trkpt lat="49.81491" lon="4.80573">
        <ele>314</ele>
        <time>2021-03-30T10:42:10.000Z</time>
      </trkpt>
      <trkpt lat="49.81492" lon="4.80573">
        <ele>314</ele>
        <time>2021-03-30T10:42:11.000Z</time>
      </trkpt>
      <trkpt lat="49.81495" lon="4.80573">
        <ele>314</ele>
        <time>2021-03-30T10:42:12.000Z</time>
      </trkpt>
      <trkpt lat="49.81497" lon="4.80573">
        <ele>315</ele>
        <time>2021-03-30T10:42:13.000Z</time>
      </trkpt>
      <trkpt lat="49.81499" lon="4.80573">
        <ele>315</ele>
        <time>2021-03-30T10:42:14.000Z</time>
      </trkpt>
      <trkpt lat="49.815" lon="4.80573">
        <ele>315</ele>
        <time>2021-03-30T10:42:15.000Z</time>
      </trkpt>
      <trkpt lat="49.81502" lon="4.80572">
        <ele>315</ele>
        <time>2021-03-30T10:42:16.000Z</time>
      </trkpt>
      <trkpt lat="49.81503" lon="4.80572">
        <ele>316</ele>
        <time>2021-03-30T10:42:17.000Z</time>
      </trkpt>
      <trkpt lat="49.81505" lon="4.80572">
        <ele>316</ele>
        <time>2021-03-30T10:42:18.000Z</time>
      </trkpt>
      <trkpt lat="49.81507" lon="4.80572">
        <ele>316</ele>
        <time>2021-03-30T10:42:19.000Z</time>
      </trkpt>
      <trkpt lat="49.81509" lon="4.80572">
        <ele>316</ele>
        <time>2021-03-30T10:42:20.000Z</time>
      </trkpt>
      <trkpt lat="49.81511" lon="4.80571">
        <ele>316</ele>
        <time>2021-03-30T10:42:21.000Z</time>
      </trkpt>
      <trkpt lat="49.81513" lon="4.80572">
        <ele>316</ele>
        <time>2021-03-30T10:42:22.000Z</time>
      </trkpt>
      <trkpt lat="49.81515" lon="4.80573">
        <ele>316</ele>
        <time>2021-03-30T10:42:23.000Z</time>
      </trkpt>
      <trkpt lat="49.81517" lon="4.80573">
        <ele>316</ele>
        <time>2021-03-30T10:42:24.000Z</time>
      </trkpt>
      <trkpt lat="49.81518" lon="4.80574">
        <ele>316</ele>
        <time>2021-03-30T10:42:25.000Z</time>
      </trkpt>
      <trkpt lat="49.8152" lon="4.80574">
        <ele>316</ele>
        <time>2021-03-30T10:42:26.000Z</time>
      </trkpt>
      <trkpt lat="49.81523" lon="4.80574">
        <ele>316</ele>
        <time>2021-03-30T10:42:27.000Z</time>
      </trkpt>
      <trkpt lat="49.81525" lon="4.80573">
        <ele>316</ele>
        <time>2021-03-30T10:42:28.000Z</time>
      </trkpt>
      <trkpt lat="49.81527" lon="4.80573">
        <ele>317</ele>
        <time>2021-03-30T10:42:29.000Z</time>
      </trkpt>
      <trkpt lat="49.8153" lon="4.80572">
        <ele>317</ele>
        <time>2021-03-30T10:42:30.000Z</time>
      </trkpt>
      <trkpt lat="49.81532" lon="4.80572">
        <ele>317</ele>
        <time>2021-03-30T10:42:31.000Z</time>
      </trkpt>
      <trkpt lat="49.81534" lon="4.80572">
        <ele>317</ele>
        <time>2021-03-30T10:42:32.000Z</time>
      </trkpt>
      <trkpt lat="49.81536" lon="4.80571">
        <ele>317</ele>
        <time>2021-03-30T10:42:33.000Z</time>
      </trkpt>
      <trkpt lat="49.8154" lon="4.80571">
        <ele>317</ele>
        <time>2021-03-30T10:42:34.000Z</time>
      </trkpt>
      <trkpt lat="49.81543" lon="4.80571">
        <ele>317</ele>
        <time>2021-03-30T10:42:35.000Z</time>
      </trkpt>
      <trkpt lat="49.81546" lon="4.80571">
        <ele>317</ele>
        <time>2021-03-30T10:42:36.000Z</time>
      </trkpt>
      <trkpt lat="49.81548" lon="4.8057">
        <ele>317</ele>
        <time>2021-03-30T10:42:37.000Z</time>
      </trkpt>
      <trkpt lat="49.81551" lon="4.8057">
        <ele>318</ele>
        <time>2021-03-30T10:42:38.000Z</time>
      </trkpt>
      <trkpt lat="49.81554" lon="4.8057">
        <ele>318</ele>
        <time>2021-03-30T10:42:39.000Z</time>
      </trkpt>
      <trkpt lat="49.81557" lon="4.8057">
        <ele>318</ele>
        <time>2021-03-30T10:42:40.000Z</time>
      </trkpt>
      <trkpt lat="49.81561" lon="4.8057">
        <ele>318</ele>
        <time>2021-03-30T10:42:41.000Z</time>
      </trkpt>
      <trkpt lat="49.81565" lon="4.80569">
        <ele>318</ele>
        <time>2021-03-30T10:42:42.000Z</time>
      </trkpt>
      <trkpt lat="49.81568" lon="4.80569">
        <ele>318</ele>
        <time>2021-03-30T10:42:43.000Z</time>
      </trkpt>
      <trkpt lat="49.81572" lon="4.80569">
        <ele>318</ele>
        <time>2021-03-30T10:42:44.000Z</time>
      </trkpt>
      <trkpt lat="49.81575" lon="4.80569">
        <ele>318</ele>
        <time>2021-03-30T10:42:45.000Z</time>
      </trkpt>
      <trkpt lat="49.81578" lon="4.8057">
        <ele>319</ele>
        <time>2021-03-30T10:42:46.000Z</time>
      </trkpt>
      <trkpt lat="49.81581" lon="4.8057">
        <ele>319</ele>
        <time>2021-03-30T10:42:47.000Z</time>
      </trkpt>
      <trkpt lat="49.81584" lon="4.80571">
        <ele>319</ele>
        <time>2021-03-30T10:42:48.000Z</time>
      </trkpt>
      <trkpt lat="49.81587" lon="4.8057">
        <ele>319</ele>
        <time>2021-03-30T10:42:49.000Z</time>
      </trkpt>
      <trkpt lat="49.8159" lon="4.8057">
        <ele>319</ele>
        <time>2021-03-30T10:42:50.000Z</time>
      </trkpt>
      <trkpt lat="49.81593" lon="4.8057">
        <ele>319</ele>
        <time>2021-03-30T10:42:51.000Z</time>
      </trkpt>
      <trkpt lat="49.81596" lon="4.80569">
        <ele>319</ele>
        <time>2021-03-30T10:42:52.000Z</time>
      </trkpt>
      <trkpt lat="49.81599" lon="4.8057">
        <ele>320</ele>
        <time>2021-03-30T10:42:53.000Z</time>
      </trkpt>
      <trkpt lat="49.81602" lon="4.8057">
        <ele>320</ele>
        <time>2021-03-30T10:42:54.000Z</time>
      </trkpt>
      <trkpt lat="49.81605" lon="4.8057">
        <ele>320</ele>
        <time>2021-03-30T10:42:55.000Z</time>
      </trkpt>
      <trkpt lat="49.81609" lon="4.80571">
        <ele>320</ele>
        <time>2021-03-30T10:42:56.000Z</time>
      </trkpt>
      <trkpt lat="49.81613" lon="4.80572">
        <ele>320</ele>
        <time>2021-03-30T10:42:57.000Z</time>
      </trkpt>
      <trkpt lat="49.81616" lon="4.80573">
        <ele>321</ele>
        <time>2021-03-30T10:42:58.000Z</time>
      </trkpt>
      <trkpt lat="49.8162" lon="4.80573">
        <ele>321</ele>
        <time>2021-03-30T10:42:59.000Z</time>
      </trkpt>
      <trkpt lat="49.81624" lon="4.80574">
        <ele>321</ele>
        <time>2021-03-30T10:43:00.000Z</time>
      </trkpt>
      <trkpt lat="49.81628" lon="4.80574">
        <ele>321</ele>
        <time>2021-03-30T10:43:01.000Z</time>
      </trkpt>
      <trkpt lat="49.81632" lon="4.80575">
        <ele>321</ele>
        <time>2021-03-30T10:43:02.000Z</time>
      </trkpt>
      <trkpt lat="49.81636" lon="4.80575">
        <ele>321</ele>
        <time>2021-03-30T10:43:03.000Z</time>
      </trkpt>
      <trkpt lat="49.8164" lon="4.80575">
        <ele>322</ele>
        <time>2021-03-30T10:43:04.000Z</time>
      </trkpt>
      <trkpt lat="49.81644" lon="4.80575">
        <ele>322</ele>
        <time>2021-03-30T10:43:05.000Z</time>
      </trkpt>
      <trkpt lat="49.81649" lon="4.80574">
        <ele>322</ele>
        <time>2021-03-30T10:43:06.000Z</time>
      </trkpt>
      <trkpt lat="49.81653" lon="4.80574">
        <ele>322</ele>
        <time>2021-03-30T10:43:07.000Z</time>
      </trkpt>
      <trkpt lat="49.81658" lon="4.80573">
        <ele>322</ele>
        <time>2021-03-30T10:43:08.000Z</time>
      </trkpt>
      <trkpt lat="49.81662" lon="4.80572">
        <ele>322</ele>
        <time>2021-03-30T10:43:09.000Z</time>
      </trkpt>
      <trkpt lat="49.81667" lon="4.80571">
        <ele>322</ele>
        <time>2021-03-30T10:43:10.000Z</time>
      </trkpt>
      <trkpt lat="49.81671" lon="4.80572">
        <ele>322</ele>
        <time>2021-03-30T10:43:11.000Z</time>
      </trkpt>
      <trkpt lat="49.81676" lon="4.80571">
        <ele>322</ele>
        <time>2021-03-30T10:43:12.000Z</time>
      </trkpt>
      <trkpt lat="49.8168" lon="4.8057">
        <ele>322</ele>
        <time>2021-03-30T10:43:13.000Z</time>
      </trkpt>
      <trkpt lat="49.81685" lon="4.80569">
        <ele>322</ele>
        <time>2021-03-30T10:43:14.000Z</time>
      </trkpt>
      <trkpt lat="49.81689" lon="4.80568">
        <ele>322</ele>
        <time>2021-03-30T10:43:15.000Z</time>
      </trkpt>
      <trkpt lat="49.81694" lon="4.80568">
        <ele>322</ele>
        <time>2021-03-30T10:43:16.000Z</time>
      </trkpt>
      <trkpt lat="49.81697" lon="4.80568">
        <ele>322</ele>
        <time>2021-03-30T10:43:17.000Z</time>
      </trkpt>
      <trkpt lat="49.81702" lon="4.80569">
        <ele>322</ele>
        <time>2021-03-30T10:43:18.000Z</time>
      </trkpt>
      <trkpt lat="49.81707" lon="4.80569">
        <ele>322</ele>
        <time>2021-03-30T10:43:19.000Z</time>
      </trkpt>
      <trkpt lat="49.81712" lon="4.8057">
        <ele>322</ele>
        <time>2021-03-30T10:43:20.000Z</time>
      </trkpt>
      <trkpt lat="49.81717" lon="4.8057">
        <ele>322</ele>
        <time>2021-03-30T10:43:21.000Z</time>
      </trkpt>
      <trkpt lat="49.81721" lon="4.8057">
        <ele>322</ele>
        <time>2021-03-30T10:43:22.000Z</time>
      </trkpt>
      <trkpt lat="49.81726" lon="4.80569">
        <ele>322</ele>
        <time>2021-03-30T10:43:23.000Z</time>
      </trkpt>
      <trkpt lat="49.8173" lon="4.80569">
        <ele>322</ele>
        <time>2021-03-30T10:43:24.000Z</time>
      </trkpt>
      <trkpt lat="49.81734" lon="4.80569">
        <ele>322</ele>
        <time>2021-03-30T10:43:25.000Z</time>
      </trkpt>
      <trkpt lat="49.81738" lon="4.8057">
        <ele>321</ele>
        <time>2021-03-30T10:43:26.000Z</time>
      </trkpt>
      <trkpt lat="49.81742" lon="4.80571">
        <ele>321</ele>
        <time>2021-03-30T10:43:27.000Z</time>
      </trkpt>
      <trkpt lat="49.81746" lon="4.80571">
        <ele>321</ele>
        <time>2021-03-30T10:43:28.000Z</time>
      </trkpt>
      <trkpt lat="49.81749" lon="4.80572">
        <ele>321</ele>
        <time>2021-03-30T10:43:29.000Z</time>
      </trkpt>
      <trkpt lat="49.81752" lon="4.80572">
        <ele>321</ele>
        <time>2021-03-30T10:43:30.000Z</time>
      </trkpt>
      <trkpt lat="49.81755" lon="4.80571">
        <ele>321</ele>
        <time>2021-03-30T10:43:31.000Z</time>
      </trkpt>
      <trkpt lat="49.81758" lon="4.80569">
        <ele>321</ele>
        <time>2021-03-30T10:43:32.000Z</time>
      </trkpt>
      <trkpt lat="49.8176" lon="4.80568">
        <ele>321</ele>
        <time>2021-03-30T10:43:33.000Z</time>
      </trkpt>
      <trkpt lat="49.81763" lon="4.80568">
        <ele>321</ele>
        <time>2021-03-30T10:43:34.000Z</time>
      </trkpt>
      <trkpt lat="49.81766" lon="4.80566">
        <ele>321</ele>
        <time>2021-03-30T10:43:35.000Z</time>
      </trkpt>
      <trkpt lat="49.81768" lon="4.80565">
        <ele>321</ele>
        <time>2021-03-30T10:43:36.000Z</time>
      </trkpt>
      <trkpt lat="49.81771" lon="4.80563">
        <ele>321</ele>
        <time>2021-03-30T10:43:37.000Z</time>
      </trkpt>
      <trkpt lat="49.81774" lon="4.80562">
        <ele>321</ele>
        <time>2021-03-30T10:43:38.000Z</time>
      </trkpt>
      <trkpt lat="49.81777" lon="4.80562">
        <ele>322</ele>
        <time>2021-03-30T10:43:39.000Z</time>
      </trkpt>
      <trkpt lat="49.8178" lon="4.80561">
        <ele>322</ele>
        <time>2021-03-30T10:43:40.000Z</time>
      </trkpt>
      <trkpt lat="49.81783" lon="4.80561">
        <ele>322</ele>
        <time>2021-03-30T10:43:41.000Z</time>
      </trkpt>
      <trkpt lat="49.81786" lon="4.8056">
        <ele>322</ele>
        <time>2021-03-30T10:43:42.000Z</time>
      </trkpt>
      <trkpt lat="49.81789" lon="4.8056">
        <ele>323</ele>
        <time>2021-03-30T10:43:43.000Z</time>
      </trkpt>
      <trkpt lat="49.81791" lon="4.80559">
        <ele>323</ele>
        <time>2021-03-30T10:43:44.000Z</time>
      </trkpt>
      <trkpt lat="49.81794" lon="4.8056">
        <ele>323</ele>
        <time>2021-03-30T10:43:45.000Z</time>
      </trkpt>
      <trkpt lat="49.81797" lon="4.8056">
        <ele>323</ele>
        <time>2021-03-30T10:43:46.000Z</time>
      </trkpt>
      <trkpt lat="49.818" lon="4.8056">
        <ele>323</ele>
        <time>2021-03-30T10:43:47.000Z</time>
      </trkpt>
      <trkpt lat="49.81803" lon="4.80561">
        <ele>323</ele>
        <time>2021-03-30T10:43:48.000Z</time>
      </trkpt>
      <trkpt lat="49.81805" lon="4.80561">
        <ele>324</ele>
        <time>2021-03-30T10:43:49.000Z</time>
      </trkpt>
      <trkpt lat="49.81808" lon="4.80561">
        <ele>324</ele>
        <time>2021-03-30T10:43:50.000Z</time>
      </trkpt>
      <trkpt lat="49.81811" lon="4.8056">
        <ele>324</ele>
        <time>2021-03-30T10:43:51.000Z</time>
      </trkpt>
      <trkpt lat="49.81814" lon="4.8056">
        <ele>324</ele>
        <time>2021-03-30T10:43:52.000Z</time>
      </trkpt>
      <trkpt lat="49.81817" lon="4.8056">
        <ele>324</ele>
        <time>2021-03-30T10:43:53.000Z</time>
      </trkpt>
      <trkpt lat="49.81819" lon="4.8056">
        <ele>324</ele>
        <time>2021-03-30T10:43:54.000Z</time>
      </trkpt>
      <trkpt lat="49.81822" lon="4.8056">
        <ele>324</ele>
        <time>2021-03-30T10:43:55.000Z</time>
      </trkpt>
      <trkpt lat="49.81824" lon="4.8056">
        <ele>324</ele>
        <time>2021-03-30T10:43:56.000Z</time>
      </trkpt>
      <trkpt lat="49.81827" lon="4.80561">
        <ele>324</ele>
        <time>2021-03-30T10:43:57.000Z</time>
      </trkpt>
      <trkpt lat="49.8183" lon="4.80562">
        <ele>325</ele>
        <time>2021-03-30T10:43:58.000Z</time>
      </trkpt>
      <trkpt lat="49.81833" lon="4.80562">
        <ele>325</ele>
        <time>2021-03-30T10:43:59.000Z</time>
      </trkpt>
      <trkpt lat="49.81836" lon="4.80561">
        <ele>325</ele>
        <time>2021-03-30T10:44:00.000Z</time>
      </trkpt>
      <trkpt lat="49.81839" lon="4.8056">
        <ele>325</ele>
        <time>2021-03-30T10:44:01.000Z</time>
      </trkpt>
      <trkpt lat="49.81842" lon="4.8056">
        <ele>325</ele>
        <time>2021-03-30T10:44:02.000Z</time>
      </trkpt>
      <trkpt lat="49.81845" lon="4.80559">
        <ele>326</ele>
        <time>2021-03-30T10:44:03.000Z</time>
      </trkpt>
      <trkpt lat="49.81847" lon="4.80558">
        <ele>326</ele>
        <time>2021-03-30T10:44:04.000Z</time>
      </trkpt>
      <trkpt lat="49.8185" lon="4.80557">
        <ele>326</ele>
        <time>2021-03-30T10:44:05.000Z</time>
      </trkpt>
      <trkpt lat="49.81853" lon="4.80557">
        <ele>326</ele>
        <time>2021-03-30T10:44:06.000Z</time>
      </trkpt>
      <trkpt lat="49.81856" lon="4.80556">
        <ele>327</ele>
        <time>2021-03-30T10:44:07.000Z</time>
      </trkpt>
      <trkpt lat="49.81859" lon="4.80555">
        <ele>327</ele>
        <time>2021-03-30T10:44:08.000Z</time>
      </trkpt>
      <trkpt lat="49.81861" lon="4.80555">
        <ele>327</ele>
        <time>2021-03-30T10:44:09.000Z</time>
      </trkpt>
      <trkpt lat="49.81864" lon="4.80555">
        <ele>327</ele>
        <time>2021-03-30T10:44:10.000Z</time>
      </trkpt>
      <trkpt lat="49.81867" lon="4.80555">
        <ele>328</ele>
        <time>2021-03-30T10:44:11.000Z</time>
      </trkpt>
      <trkpt lat="49.8187" lon="4.80555">
        <ele>328</ele>
        <time>2021-03-30T10:44:12.000Z</time>
      </trkpt>
      <trkpt lat="49.81873" lon="4.80554">
        <ele>328</ele>
        <time>2021-03-30T10:44:13.000Z</time>
      </trkpt>
      <trkpt lat="49.81877" lon="4.80554">
        <ele>328</ele>
        <time>2021-03-30T10:44:14.000Z</time>
      </trkpt>
      <trkpt lat="49.8188" lon="4.80553">
        <ele>328</ele>
        <time>2021-03-30T10:44:15.000Z</time>
      </trkpt>
      <trkpt lat="49.81883" lon="4.80552">
        <ele>328</ele>
        <time>2021-03-30T10:44:16.000Z</time>
      </trkpt>
      <trkpt lat="49.81886" lon="4.80552">
        <ele>328</ele>
        <time>2021-03-30T10:44:17.000Z</time>
      </trkpt>
      <trkpt lat="49.81889" lon="4.8055">
        <ele>329</ele>
        <time>2021-03-30T10:44:18.000Z</time>
      </trkpt>
      <trkpt lat="49.81892" lon="4.80549">
        <ele>329</ele>
        <time>2021-03-30T10:44:19.000Z</time>
      </trkpt>
      <trkpt lat="49.81895" lon="4.80549">
        <ele>329</ele>
        <time>2021-03-30T10:44:20.000Z</time>
      </trkpt>
      <trkpt lat="49.81898" lon="4.80549">
        <ele>329</ele>
        <time>2021-03-30T10:44:21.000Z</time>
      </trkpt>
      <trkpt lat="49.81901" lon="4.8055">
        <ele>329</ele>
        <time>2021-03-30T10:44:22.000Z</time>
      </trkpt>
      <trkpt lat="49.81904" lon="4.80552">
        <ele>329</ele>
        <time>2021-03-30T10:44:23.000Z</time>
      </trkpt>
      <trkpt lat="49.81907" lon="4.80554">
        <ele>329</ele>
        <time>2021-03-30T10:44:24.000Z</time>
      </trkpt>
      <trkpt lat="49.81909" lon="4.80557">
        <ele>329</ele>
        <time>2021-03-30T10:44:25.000Z</time>
      </trkpt>
      <trkpt lat="49.81912" lon="4.80559">
        <ele>329</ele>
        <time>2021-03-30T10:44:26.000Z</time>
      </trkpt>
      <trkpt lat="49.81914" lon="4.80561">
        <ele>329</ele>
        <time>2021-03-30T10:44:27.000Z</time>
      </trkpt>
      <trkpt lat="49.81917" lon="4.80562">
        <ele>329</ele>
        <time>2021-03-30T10:44:28.000Z</time>
      </trkpt>
      <trkpt lat="49.8192" lon="4.80561">
        <ele>329</ele>
        <time>2021-03-30T10:44:29.000Z</time>
      </trkpt>
      <trkpt lat="49.81922" lon="4.80561">
        <ele>329</ele>
        <time>2021-03-30T10:44:30.000Z</time>
      </trkpt>
      <trkpt lat="49.81924" lon="4.8056">
        <ele>329</ele>
        <time>2021-03-30T10:44:31.000Z</time>
      </trkpt>
      <trkpt lat="49.81926" lon="4.8056">
        <ele>329</ele>
        <time>2021-03-30T10:44:32.000Z</time>
      </trkpt>
      <trkpt lat="49.81929" lon="4.8056">
        <ele>329</ele>
        <time>2021-03-30T10:44:33.000Z</time>
      </trkpt>
      <trkpt lat="49.81931" lon="4.80558">
        <ele>329</ele>
        <time>2021-03-30T10:44:34.000Z</time>
      </trkpt>
      <trkpt lat="49.81935" lon="4.80557">
        <ele>329</ele>
        <time>2021-03-30T10:44:35.000Z</time>
      </trkpt>
      <trkpt lat="49.81937" lon="4.80555">
        <ele>329</ele>
        <time>2021-03-30T10:44:36.000Z</time>
      </trkpt>
      <trkpt lat="49.81938" lon="4.80552">
        <ele>329</ele>
        <time>2021-03-30T10:44:37.000Z</time>
      </trkpt>
      <trkpt lat="49.81939" lon="4.80548">
        <ele>329</ele>
        <time>2021-03-30T10:44:38.000Z</time>
      </trkpt>
      <trkpt lat="49.8194" lon="4.80545">
        <ele>329</ele>
        <time>2021-03-30T10:44:39.000Z</time>
      </trkpt>
      <trkpt lat="49.81941" lon="4.80541">
        <ele>329</ele>
        <time>2021-03-30T10:44:40.000Z</time>
      </trkpt>
      <trkpt lat="49.81942" lon="4.80537">
        <ele>330</ele>
        <time>2021-03-30T10:44:41.000Z</time>
      </trkpt>
      <trkpt lat="49.81944" lon="4.80534">
        <ele>330</ele>
        <time>2021-03-30T10:44:42.000Z</time>
      </trkpt>
      <trkpt lat="49.81944" lon="4.8053">
        <ele>330</ele>
        <time>2021-03-30T10:44:43.000Z</time>
      </trkpt>
      <trkpt lat="49.81944" lon="4.80525">
        <ele>330</ele>
        <time>2021-03-30T10:44:44.000Z</time>
      </trkpt>
      <trkpt lat="49.81944" lon="4.80521">
        <ele>330</ele>
        <time>2021-03-30T10:44:45.000Z</time>
      </trkpt>
      <trkpt lat="49.81944" lon="4.80518">
        <ele>330</ele>
        <time>2021-03-30T10:44:46.000Z</time>
      </trkpt>
      <trkpt lat="49.81943" lon="4.80513">
        <ele>330</ele>
        <time>2021-03-30T10:44:47.000Z</time>
      </trkpt>
      <trkpt lat="49.81941" lon="4.80509">
        <ele>330</ele>
        <time>2021-03-30T10:44:48.000Z</time>
      </trkpt>
      <trkpt lat="49.8194" lon="4.80505">
        <ele>330</ele>
        <time>2021-03-30T10:44:49.000Z</time>
      </trkpt>
      <trkpt lat="49.8194" lon="4.805">
        <ele>331</ele>
        <time>2021-03-30T10:44:50.000Z</time>
      </trkpt>
      <trkpt lat="49.81939" lon="4.80496">
        <ele>331</ele>
        <time>2021-03-30T10:44:51.000Z</time>
      </trkpt>
      <trkpt lat="49.81938" lon="4.80492">
        <ele>331</ele>
        <time>2021-03-30T10:44:52.000Z</time>
      </trkpt>
      <trkpt lat="49.81937" lon="4.80487">
        <ele>331</ele>
        <time>2021-03-30T10:44:53.000Z</time>
      </trkpt>
      <trkpt lat="49.81937" lon="4.80483">
        <ele>331</ele>
        <time>2021-03-30T10:44:54.000Z</time>
      </trkpt>
      <trkpt lat="49.81936" lon="4.80478">
        <ele>331</ele>
        <time>2021-03-30T10:44:55.000Z</time>
      </trkpt>
      <trkpt lat="49.81935" lon="4.80474">
        <ele>331</ele>
        <time>2021-03-30T10:44:56.000Z</time>
      </trkpt>
      <trkpt lat="49.81934" lon="4.80469">
        <ele>331</ele>
        <time>2021-03-30T10:44:57.000Z</time>
      </trkpt>
      <trkpt lat="49.81934" lon="4.80465">
        <ele>331</ele>
        <time>2021-03-30T10:44:58.000Z</time>
      </trkpt>
      <trkpt lat="49.81934" lon="4.80461">
        <ele>331</ele>
        <time>2021-03-30T10:44:59.000Z</time>
      </trkpt>
      <trkpt lat="49.81934" lon="4.80457">
        <ele>331</ele>
        <time>2021-03-30T10:45:00.000Z</time>
      </trkpt>
      <trkpt lat="49.81933" lon="4.80454">
        <ele>331</ele>
        <time>2021-03-30T10:45:01.000Z</time>
      </trkpt>
      <trkpt lat="49.81932" lon="4.8045">
        <ele>331</ele>
        <time>2021-03-30T10:45:02.000Z</time>
      </trkpt>
      <trkpt lat="49.8193" lon="4.80446">
        <ele>330</ele>
        <time>2021-03-30T10:45:03.000Z</time>
      </trkpt>
      <trkpt lat="49.81929" lon="4.8044">
        <ele>331</ele>
        <time>2021-03-30T10:45:04.000Z</time>
      </trkpt>
      <trkpt lat="49.81928" lon="4.80436">
        <ele>331</ele>
        <time>2021-03-30T10:45:05.000Z</time>
      </trkpt>
      <trkpt lat="49.81927" lon="4.80431">
        <ele>331</ele>
        <time>2021-03-30T10:45:06.000Z</time>
      </trkpt>
      <trkpt lat="49.81927" lon="4.80426">
        <ele>331</ele>
        <time>2021-03-30T10:45:07.000Z</time>
      </trkpt>
      <trkpt lat="49.81926" lon="4.8042">
        <ele>331</ele>
        <time>2021-03-30T10:45:08.000Z</time>
      </trkpt>
      <trkpt lat="49.81925" lon="4.80415">
        <ele>331</ele>
        <time>2021-03-30T10:45:09.000Z</time>
      </trkpt>
      <trkpt lat="49.81923" lon="4.8041">
        <ele>331</ele>
        <time>2021-03-30T10:45:10.000Z</time>
      </trkpt>
      <trkpt lat="49.81922" lon="4.80405">
        <ele>332</ele>
        <time>2021-03-30T10:45:11.000Z</time>
      </trkpt>
      <trkpt lat="49.81921" lon="4.80399">
        <ele>332</ele>
        <time>2021-03-30T10:45:12.000Z</time>
      </trkpt>
      <trkpt lat="49.8192" lon="4.80394">
        <ele>332</ele>
        <time>2021-03-30T10:45:13.000Z</time>
      </trkpt>
      <trkpt lat="49.81919" lon="4.80388">
        <ele>332</ele>
        <time>2021-03-30T10:45:14.000Z</time>
      </trkpt>
      <trkpt lat="49.81918" lon="4.80383">
        <ele>332</ele>
        <time>2021-03-30T10:45:15.000Z</time>
      </trkpt>
      <trkpt lat="49.81917" lon="4.80377">
        <ele>332</ele>
        <time>2021-03-30T10:45:16.000Z</time>
      </trkpt>
      <trkpt lat="49.81916" lon="4.80371">
        <ele>332</ele>
        <time>2021-03-30T10:45:17.000Z</time>
      </trkpt>
      <trkpt lat="49.81915" lon="4.80366">
        <ele>332</ele>
        <time>2021-03-30T10:45:18.000Z</time>
      </trkpt>
      <trkpt lat="49.81915" lon="4.8036">
        <ele>332</ele>
        <time>2021-03-30T10:45:19.000Z</time>
      </trkpt>
      <trkpt lat="49.81914" lon="4.80355">
        <ele>332</ele>
        <time>2021-03-30T10:45:20.000Z</time>
      </trkpt>
      <trkpt lat="49.81913" lon="4.80351">
        <ele>332</ele>
        <time>2021-03-30T10:45:21.000Z</time>
      </trkpt>
      <trkpt lat="49.81912" lon="4.80346">
        <ele>332</ele>
        <time>2021-03-30T10:45:22.000Z</time>
      </trkpt>
      <trkpt lat="49.81912" lon="4.80342">
        <ele>332</ele>
        <time>2021-03-30T10:45:23.000Z</time>
      </trkpt>
      <trkpt lat="49.81912" lon="4.80337">
        <ele>332</ele>
        <time>2021-03-30T10:45:24.000Z</time>
      </trkpt>
      <trkpt lat="49.81911" lon="4.80333">
        <ele>332</ele>
        <time>2021-03-30T10:45:25.000Z</time>
      </trkpt>
      <trkpt lat="49.8191" lon="4.80327">
        <ele>332</ele>
        <time>2021-03-30T10:45:26.000Z</time>
      </trkpt>
      <trkpt lat="49.81909" lon="4.80322">
        <ele>332</ele>
        <time>2021-03-30T10:45:27.000Z</time>
      </trkpt>
      <trkpt lat="49.81908" lon="4.80316">
        <ele>333</ele>
        <time>2021-03-30T10:45:28.000Z</time>
      </trkpt>
      <trkpt lat="49.81907" lon="4.8031">
        <ele>333</ele>
        <time>2021-03-30T10:45:29.000Z</time>
      </trkpt>
      <trkpt lat="49.81906" lon="4.80304">
        <ele>333</ele>
        <time>2021-03-30T10:45:30.000Z</time>
      </trkpt>
      <trkpt lat="49.81905" lon="4.80297">
        <ele>333</ele>
        <time>2021-03-30T10:45:31.000Z</time>
      </trkpt>
      <trkpt lat="49.81905" lon="4.8029">
        <ele>334</ele>
        <time>2021-03-30T10:45:32.000Z</time>
      </trkpt>
      <trkpt lat="49.81904" lon="4.80283">
        <ele>334</ele>
        <time>2021-03-30T10:45:33.000Z</time>
      </trkpt>
      <trkpt lat="49.81903" lon="4.80277">
        <ele>334</ele>
        <time>2021-03-30T10:45:34.000Z</time>
      </trkpt>
      <trkpt lat="49.81901" lon="4.8027">
        <ele>334</ele>
        <time>2021-03-30T10:45:35.000Z</time>
      </trkpt>
      <trkpt lat="49.819" lon="4.80264">
        <ele>334</ele>
        <time>2021-03-30T10:45:36.000Z</time>
      </trkpt>
      <trkpt lat="49.81899" lon="4.80258">
        <ele>334</ele>
        <time>2021-03-30T10:45:37.000Z</time>
      </trkpt>
      <trkpt lat="49.81897" lon="4.80251">
        <ele>334</ele>
        <time>2021-03-30T10:45:38.000Z</time>
      </trkpt>
      <trkpt lat="49.81895" lon="4.80244">
        <ele>334</ele>
        <time>2021-03-30T10:45:39.000Z</time>
      </trkpt>
      <trkpt lat="49.81894" lon="4.80237">
        <ele>333</ele>
        <time>2021-03-30T10:45:40.000Z</time>
      </trkpt>
      <trkpt lat="49.81893" lon="4.8023">
        <ele>333</ele>
        <time>2021-03-30T10:45:41.000Z</time>
      </trkpt>
      <trkpt lat="49.81891" lon="4.80223">
        <ele>333</ele>
        <time>2021-03-30T10:45:42.000Z</time>
      </trkpt>
      <trkpt lat="49.8189" lon="4.80217">
        <ele>333</ele>
        <time>2021-03-30T10:45:43.000Z</time>
      </trkpt>
      <trkpt lat="49.81889" lon="4.8021">
        <ele>333</ele>
        <time>2021-03-30T10:45:44.000Z</time>
      </trkpt>
      <trkpt lat="49.81888" lon="4.80202">
        <ele>333</ele>
        <time>2021-03-30T10:45:45.000Z</time>
      </trkpt>
      <trkpt lat="49.81886" lon="4.80195">
        <ele>333</ele>
        <time>2021-03-30T10:45:46.000Z</time>
      </trkpt>
      <trkpt lat="49.81884" lon="4.80188">
        <ele>333</ele>
        <time>2021-03-30T10:45:47.000Z</time>
      </trkpt>
      <trkpt lat="49.81883" lon="4.8018">
        <ele>333</ele>
        <time>2021-03-30T10:45:48.000Z</time>
      </trkpt>
      <trkpt lat="49.81881" lon="4.80172">
        <ele>333</ele>
        <time>2021-03-30T10:45:49.000Z</time>
      </trkpt>
      <trkpt lat="49.8188" lon="4.80163">
        <ele>333</ele>
        <time>2021-03-30T10:45:50.000Z</time>
      </trkpt>
      <trkpt lat="49.81878" lon="4.80155">
        <ele>333</ele>
        <time>2021-03-30T10:45:51.000Z</time>
      </trkpt>
      <trkpt lat="49.81877" lon="4.80147">
        <ele>333</ele>
        <time>2021-03-30T10:45:52.000Z</time>
      </trkpt>
      <trkpt lat="49.81876" lon="4.80139">
        <ele>333</ele>
        <time>2021-03-30T10:45:53.000Z</time>
      </trkpt>
      <trkpt lat="49.81875" lon="4.80131">
        <ele>333</ele>
        <time>2021-03-30T10:45:54.000Z</time>
      </trkpt>
      <trkpt lat="49.81874" lon="4.80123">
        <ele>333</ele>
        <time>2021-03-30T10:45:55.000Z</time>
      </trkpt>
      <trkpt lat="49.81873" lon="4.80114">
        <ele>333</ele>
        <time>2021-03-30T10:45:56.000Z</time>
      </trkpt>
      <trkpt lat="49.81872" lon="4.80106">
        <ele>332</ele>
        <time>2021-03-30T10:45:57.000Z</time>
      </trkpt>
      <trkpt lat="49.8187" lon="4.80099">
        <ele>332</ele>
        <time>2021-03-30T10:45:58.000Z</time>
      </trkpt>
      <trkpt lat="49.81868" lon="4.80091">
        <ele>332</ele>
        <time>2021-03-30T10:45:59.000Z</time>
      </trkpt>
      <trkpt lat="49.81867" lon="4.80083">
        <ele>332</ele>
        <time>2021-03-30T10:46:00.000Z</time>
      </trkpt>
      <trkpt lat="49.81866" lon="4.80075">
        <ele>332</ele>
        <time>2021-03-30T10:46:01.000Z</time>
      </trkpt>
      <trkpt lat="49.81866" lon="4.80066">
        <ele>332</ele>
        <time>2021-03-30T10:46:02.000Z</time>
      </trkpt>
      <trkpt lat="49.81866" lon="4.80058">
        <ele>331</ele>
        <time>2021-03-30T10:46:03.000Z</time>
      </trkpt>
      <trkpt lat="49.81864" lon="4.8005">
        <ele>331</ele>
        <time>2021-03-30T10:46:04.000Z</time>
      </trkpt>
      <trkpt lat="49.81862" lon="4.80043">
        <ele>331</ele>
        <time>2021-03-30T10:46:05.000Z</time>
      </trkpt>
      <trkpt lat="49.81859" lon="4.80035">
        <ele>331</ele>
        <time>2021-03-30T10:46:06.000Z</time>
      </trkpt>
      <trkpt lat="49.81857" lon="4.80026">
        <ele>331</ele>
        <time>2021-03-30T10:46:07.000Z</time>
      </trkpt>
      <trkpt lat="49.81855" lon="4.80017">
        <ele>331</ele>
        <time>2021-03-30T10:46:08.000Z</time>
      </trkpt>
      <trkpt lat="49.81853" lon="4.80007">
        <ele>330</ele>
        <time>2021-03-30T10:46:09.000Z</time>
      </trkpt>
      <trkpt lat="49.81851" lon="4.79998">
        <ele>330</ele>
        <time>2021-03-30T10:46:10.000Z</time>
      </trkpt>
      <trkpt lat="49.8185" lon="4.79989">
        <ele>330</ele>
        <time>2021-03-30T10:46:11.000Z</time>
      </trkpt>
      <trkpt lat="49.81848" lon="4.79979">
        <ele>330</ele>
        <time>2021-03-30T10:46:12.000Z</time>
      </trkpt>
      <trkpt lat="49.81846" lon="4.79969">
        <ele>330</ele>
        <time>2021-03-30T10:46:13.000Z</time>
      </trkpt>
      <trkpt lat="49.81844" lon="4.79959">
        <ele>329</ele>
        <time>2021-03-30T10:46:14.000Z</time>
      </trkpt>
      <trkpt lat="49.81842" lon="4.79949">
        <ele>329</ele>
        <time>2021-03-30T10:46:15.000Z</time>
      </trkpt>
      <trkpt lat="49.8184" lon="4.79939">
        <ele>329</ele>
        <time>2021-03-30T10:46:16.000Z</time>
      </trkpt>
      <trkpt lat="49.81838" lon="4.79928">
        <ele>328</ele>
        <time>2021-03-30T10:46:17.000Z</time>
      </trkpt>
      <trkpt lat="49.81837" lon="4.79918">
        <ele>328</ele>
        <time>2021-03-30T10:46:18.000Z</time>
      </trkpt>
      <trkpt lat="49.81837" lon="4.79907">
        <ele>328</ele>
        <time>2021-03-30T10:46:19.000Z</time>
      </trkpt>
      <trkpt lat="49.81837" lon="4.79895">
        <ele>327</ele>
        <time>2021-03-30T10:46:20.000Z</time>
      </trkpt>
      <trkpt lat="49.81838" lon="4.79884">
        <ele>327</ele>
        <time>2021-03-30T10:46:21.000Z</time>
      </trkpt>
      <trkpt lat="49.81838" lon="4.79872">
        <ele>326</ele>
        <time>2021-03-30T10:46:22.000Z</time>
      </trkpt>
      <trkpt lat="49.81837" lon="4.79861">
        <ele>326</ele>
        <time>2021-03-30T10:46:23.000Z</time>
      </trkpt>
      <trkpt lat="49.81836" lon="4.79848">
        <ele>325</ele>
        <time>2021-03-30T10:46:24.000Z</time>
      </trkpt>
      <trkpt lat="49.81835" lon="4.79836">
        <ele>324</ele>
        <time>2021-03-30T10:46:25.000Z</time>
      </trkpt>
      <trkpt lat="49.81833" lon="4.79823">
        <ele>323</ele>
        <time>2021-03-30T10:46:26.000Z</time>
      </trkpt>
      <trkpt lat="49.81831" lon="4.7981">
        <ele>323</ele>
        <time>2021-03-30T10:46:27.000Z</time>
      </trkpt>
      <trkpt lat="49.81829" lon="4.79797">
        <ele>322</ele>
        <time>2021-03-30T10:46:28.000Z</time>
      </trkpt>
      <trkpt lat="49.81826" lon="4.79785">
        <ele>321</ele>
        <time>2021-03-30T10:46:29.000Z</time>
      </trkpt>
      <trkpt lat="49.81824" lon="4.79774">
        <ele>320</ele>
        <time>2021-03-30T10:46:30.000Z</time>
      </trkpt>
      <trkpt lat="49.81821" lon="4.79763">
        <ele>319</ele>
        <time>2021-03-30T10:46:31.000Z</time>
      </trkpt>
      <trkpt lat="49.81817" lon="4.79753">
        <ele>318</ele>
        <time>2021-03-30T10:46:32.000Z</time>
      </trkpt>
      <trkpt lat="49.81814" lon="4.79742">
        <ele>317</ele>
        <time>2021-03-30T10:46:33.000Z</time>
      </trkpt>
      <trkpt lat="49.8181" lon="4.79731">
        <ele>316</ele>
        <time>2021-03-30T10:46:34.000Z</time>
      </trkpt>
      <trkpt lat="49.81807" lon="4.79719">
        <ele>315</ele>
        <time>2021-03-30T10:46:35.000Z</time>
      </trkpt>
      <trkpt lat="49.81803" lon="4.79707">
        <ele>314</ele>
        <time>2021-03-30T10:46:36.000Z</time>
      </trkpt>
      <trkpt lat="49.81799" lon="4.79695">
        <ele>314</ele>
        <time>2021-03-30T10:46:37.000Z</time>
      </trkpt>
      <trkpt lat="49.81796" lon="4.79683">
        <ele>313</ele>
        <time>2021-03-30T10:46:38.000Z</time>
      </trkpt>
      <trkpt lat="49.81792" lon="4.79669">
        <ele>312</ele>
        <time>2021-03-30T10:46:39.000Z</time>
      </trkpt>
      <trkpt lat="49.81788" lon="4.79657">
        <ele>311</ele>
        <time>2021-03-30T10:46:40.000Z</time>
      </trkpt>
      <trkpt lat="49.81785" lon="4.79645">
        <ele>310</ele>
        <time>2021-03-30T10:46:41.000Z</time>
      </trkpt>
      <trkpt lat="49.81783" lon="4.79634">
        <ele>309</ele>
        <time>2021-03-30T10:46:42.000Z</time>
      </trkpt>
      <trkpt lat="49.8178" lon="4.79621">
        <ele>308</ele>
        <time>2021-03-30T10:46:43.000Z</time>
      </trkpt>
      <trkpt lat="49.81778" lon="4.79609">
        <ele>307</ele>
        <time>2021-03-30T10:46:44.000Z</time>
      </trkpt>
      <trkpt lat="49.81776" lon="4.79596">
        <ele>305</ele>
        <time>2021-03-30T10:46:45.000Z</time>
      </trkpt>
      <trkpt lat="49.81774" lon="4.79585">
        <ele>304</ele>
        <time>2021-03-30T10:46:46.000Z</time>
      </trkpt>
      <trkpt lat="49.81772" lon="4.79573">
        <ele>303</ele>
        <time>2021-03-30T10:46:47.000Z</time>
      </trkpt>
      <trkpt lat="49.81771" lon="4.79562">
        <ele>302</ele>
        <time>2021-03-30T10:46:48.000Z</time>
      </trkpt>
      <trkpt lat="49.8177" lon="4.79551">
        <ele>301</ele>
        <time>2021-03-30T10:46:49.000Z</time>
      </trkpt>
      <trkpt lat="49.81771" lon="4.79541">
        <ele>300</ele>
        <time>2021-03-30T10:46:50.000Z</time>
      </trkpt>
      <trkpt lat="49.81771" lon="4.79532">
        <ele>299</ele>
        <time>2021-03-30T10:46:51.000Z</time>
      </trkpt>
      <trkpt lat="49.81772" lon="4.79524">
        <ele>298</ele>
        <time>2021-03-30T10:46:52.000Z</time>
      </trkpt>
      <trkpt lat="49.81772" lon="4.79515">
        <ele>297</ele>
        <time>2021-03-30T10:46:53.000Z</time>
      </trkpt>
      <trkpt lat="49.81773" lon="4.79507">
        <ele>296</ele>
        <time>2021-03-30T10:46:54.000Z</time>
      </trkpt>
      <trkpt lat="49.81773" lon="4.79499">
        <ele>296</ele>
        <time>2021-03-30T10:46:55.000Z</time>
      </trkpt>
      <trkpt lat="49.81774" lon="4.79491">
        <ele>295</ele>
        <time>2021-03-30T10:46:56.000Z</time>
      </trkpt>
      <trkpt lat="49.81774" lon="4.79483">
        <ele>295</ele>
        <time>2021-03-30T10:46:57.000Z</time>
      </trkpt>
      <trkpt lat="49.81773" lon="4.79475">
        <ele>295</ele>
        <time>2021-03-30T10:46:58.000Z</time>
      </trkpt>
      <trkpt lat="49.81772" lon="4.79467">
        <ele>294</ele>
        <time>2021-03-30T10:46:59.000Z</time>
      </trkpt>
      <trkpt lat="49.81771" lon="4.7946">
        <ele>294</ele>
        <time>2021-03-30T10:47:00.000Z</time>
      </trkpt>
      <trkpt lat="49.81769" lon="4.79453">
        <ele>293</ele>
        <time>2021-03-30T10:47:01.000Z</time>
      </trkpt>
      <trkpt lat="49.81768" lon="4.79445">
        <ele>293</ele>
        <time>2021-03-30T10:47:02.000Z</time>
      </trkpt>
      <trkpt lat="49.81767" lon="4.79438">
        <ele>292</ele>
        <time>2021-03-30T10:47:03.000Z</time>
      </trkpt>
      <trkpt lat="49.81767" lon="4.7943">
        <ele>292</ele>
        <time>2021-03-30T10:47:04.000Z</time>
      </trkpt>
      <trkpt lat="49.81767" lon="4.79423">
        <ele>292</ele>
        <time>2021-03-30T10:47:05.000Z</time>
      </trkpt>
      <trkpt lat="49.81767" lon="4.79416">
        <ele>292</ele>
        <time>2021-03-30T10:47:06.000Z</time>
      </trkpt>
      <trkpt lat="49.81767" lon="4.79409">
        <ele>291</ele>
        <time>2021-03-30T10:47:07.000Z</time>
      </trkpt>
      <trkpt lat="49.81767" lon="4.79402">
        <ele>291</ele>
        <time>2021-03-30T10:47:08.000Z</time>
      </trkpt>
      <trkpt lat="49.81767" lon="4.79395">
        <ele>291</ele>
        <time>2021-03-30T10:47:09.000Z</time>
      </trkpt>
      <trkpt lat="49.81767" lon="4.79387">
        <ele>291</ele>
        <time>2021-03-30T10:47:10.000Z</time>
      </trkpt>
      <trkpt lat="49.81766" lon="4.7938">
        <ele>291</ele>
        <time>2021-03-30T10:47:11.000Z</time>
      </trkpt>
      <trkpt lat="49.81767" lon="4.79373">
        <ele>290</ele>
        <time>2021-03-30T10:47:12.000Z</time>
      </trkpt>
      <trkpt lat="49.81766" lon="4.79365">
        <ele>290</ele>
        <time>2021-03-30T10:47:13.000Z</time>
      </trkpt>
      <trkpt lat="49.81766" lon="4.79358">
        <ele>290</ele>
        <time>2021-03-30T10:47:14.000Z</time>
      </trkpt>
      <trkpt lat="49.81766" lon="4.79351">
        <ele>290</ele>
        <time>2021-03-30T10:47:15.000Z</time>
      </trkpt>
      <trkpt lat="49.81766" lon="4.79345">
        <ele>291</ele>
        <time>2021-03-30T10:47:16.000Z</time>
      </trkpt>
      <trkpt lat="49.81766" lon="4.79339">
        <ele>291</ele>
        <time>2021-03-30T10:47:17.000Z</time>
      </trkpt>
      <trkpt lat="49.81766" lon="4.79333">
        <ele>291</ele>
        <time>2021-03-30T10:47:18.000Z</time>
      </trkpt>
      <trkpt lat="49.81765" lon="4.79328">
        <ele>291</ele>
        <time>2021-03-30T10:47:19.000Z</time>
      </trkpt>
      <trkpt lat="49.81764" lon="4.79323">
        <ele>291</ele>
        <time>2021-03-30T10:47:20.000Z</time>
      </trkpt>
      <trkpt lat="49.81763" lon="4.79317">
        <ele>291</ele>
        <time>2021-03-30T10:47:21.000Z</time>
      </trkpt>
      <trkpt lat="49.81762" lon="4.79311">
        <ele>291</ele>
        <time>2021-03-30T10:47:22.000Z</time>
      </trkpt>
      <trkpt lat="49.8176" lon="4.79304">
        <ele>291</ele>
        <time>2021-03-30T10:47:23.000Z</time>
      </trkpt>
      <trkpt lat="49.81759" lon="4.79298">
        <ele>291</ele>
        <time>2021-03-30T10:47:24.000Z</time>
      </trkpt>
      <trkpt lat="49.81758" lon="4.79291">
        <ele>291</ele>
        <time>2021-03-30T10:47:25.000Z</time>
      </trkpt>
      <trkpt lat="49.81758" lon="4.79284">
        <ele>291</ele>
        <time>2021-03-30T10:47:26.000Z</time>
      </trkpt>
      <trkpt lat="49.81756" lon="4.79277">
        <ele>291</ele>
        <time>2021-03-30T10:47:27.000Z</time>
      </trkpt>
      <trkpt lat="49.81756" lon="4.79271">
        <ele>291</ele>
        <time>2021-03-30T10:47:28.000Z</time>
      </trkpt>
      <trkpt lat="49.81755" lon="4.79264">
        <ele>291</ele>
        <time>2021-03-30T10:47:29.000Z</time>
      </trkpt>
      <trkpt lat="49.81754" lon="4.79258">
        <ele>291</ele>
        <time>2021-03-30T10:47:30.000Z</time>
      </trkpt>
      <trkpt lat="49.81753" lon="4.79252">
        <ele>291</ele>
        <time>2021-03-30T10:47:31.000Z</time>
      </trkpt>
      <trkpt lat="49.81752" lon="4.79245">
        <ele>291</ele>
        <time>2021-03-30T10:47:32.000Z</time>
      </trkpt>
      <trkpt lat="49.81751" lon="4.79239">
        <ele>291</ele>
        <time>2021-03-30T10:47:33.000Z</time>
      </trkpt>
      <trkpt lat="49.8175" lon="4.79232">
        <ele>291</ele>
        <time>2021-03-30T10:47:34.000Z</time>
      </trkpt>
      <trkpt lat="49.81749" lon="4.79226">
        <ele>290</ele>
        <time>2021-03-30T10:47:35.000Z</time>
      </trkpt>
      <trkpt lat="49.81747" lon="4.7922">
        <ele>290</ele>
        <time>2021-03-30T10:47:36.000Z</time>
      </trkpt>
      <trkpt lat="49.81745" lon="4.79214">
        <ele>290</ele>
        <time>2021-03-30T10:47:37.000Z</time>
      </trkpt>
      <trkpt lat="49.81743" lon="4.79207">
        <ele>290</ele>
        <time>2021-03-30T10:47:38.000Z</time>
      </trkpt>
      <trkpt lat="49.81741" lon="4.792">
        <ele>290</ele>
        <time>2021-03-30T10:47:39.000Z</time>
      </trkpt>
      <trkpt lat="49.81739" lon="4.79192">
        <ele>290</ele>
        <time>2021-03-30T10:47:40.000Z</time>
      </trkpt>
      <trkpt lat="49.81736" lon="4.79184">
        <ele>290</ele>
        <time>2021-03-30T10:47:41.000Z</time>
      </trkpt>
      <trkpt lat="49.81733" lon="4.79175">
        <ele>289</ele>
        <time>2021-03-30T10:47:42.000Z</time>
      </trkpt>
      <trkpt lat="49.81731" lon="4.79166">
        <ele>289</ele>
        <time>2021-03-30T10:47:43.000Z</time>
      </trkpt>
      <trkpt lat="49.81728" lon="4.79157">
        <ele>289</ele>
        <time>2021-03-30T10:47:44.000Z</time>
      </trkpt>
      <trkpt lat="49.81727" lon="4.79149">
        <ele>289</ele>
        <time>2021-03-30T10:47:45.000Z</time>
      </trkpt>
      <trkpt lat="49.81725" lon="4.79142">
        <ele>288</ele>
        <time>2021-03-30T10:47:46.000Z</time>
      </trkpt>
      <trkpt lat="49.81724" lon="4.79133">
        <ele>288</ele>
        <time>2021-03-30T10:47:47.000Z</time>
      </trkpt>
      <trkpt lat="49.81723" lon="4.79124">
        <ele>288</ele>
        <time>2021-03-30T10:47:48.000Z</time>
      </trkpt>
      <trkpt lat="49.81721" lon="4.79116">
        <ele>287</ele>
        <time>2021-03-30T10:47:49.000Z</time>
      </trkpt>
      <trkpt lat="49.8172" lon="4.79108">
        <ele>287</ele>
        <time>2021-03-30T10:47:50.000Z</time>
      </trkpt>
      <trkpt lat="49.81718" lon="4.791">
        <ele>286</ele>
        <time>2021-03-30T10:47:51.000Z</time>
      </trkpt>
      <trkpt lat="49.81716" lon="4.79093">
        <ele>286</ele>
        <time>2021-03-30T10:47:52.000Z</time>
      </trkpt>
      <trkpt lat="49.81714" lon="4.79085">
        <ele>285</ele>
        <time>2021-03-30T10:47:53.000Z</time>
      </trkpt>
      <trkpt lat="49.81711" lon="4.79077">
        <ele>285</ele>
        <time>2021-03-30T10:47:54.000Z</time>
      </trkpt>
      <trkpt lat="49.81708" lon="4.7907">
        <ele>284</ele>
        <time>2021-03-30T10:47:55.000Z</time>
      </trkpt>
      <trkpt lat="49.81706" lon="4.79062">
        <ele>284</ele>
        <time>2021-03-30T10:47:56.000Z</time>
      </trkpt>
      <trkpt lat="49.81704" lon="4.79054">
        <ele>283</ele>
        <time>2021-03-30T10:47:57.000Z</time>
      </trkpt>
      <trkpt lat="49.81703" lon="4.79047">
        <ele>283</ele>
        <time>2021-03-30T10:47:58.000Z</time>
      </trkpt>
      <trkpt lat="49.81702" lon="4.79041">
        <ele>282</ele>
        <time>2021-03-30T10:47:59.000Z</time>
      </trkpt>
      <trkpt lat="49.81701" lon="4.79034">
        <ele>281</ele>
        <time>2021-03-30T10:48:00.000Z</time>
      </trkpt>
      <trkpt lat="49.81701" lon="4.79027">
        <ele>280</ele>
        <time>2021-03-30T10:48:01.000Z</time>
      </trkpt>
      <trkpt lat="49.817" lon="4.7902">
        <ele>280</ele>
        <time>2021-03-30T10:48:02.000Z</time>
      </trkpt>
      <trkpt lat="49.81698" lon="4.79013">
        <ele>279</ele>
        <time>2021-03-30T10:48:03.000Z</time>
      </trkpt>
      <trkpt lat="49.81695" lon="4.79006">
        <ele>278</ele>
        <time>2021-03-30T10:48:04.000Z</time>
      </trkpt>
      <trkpt lat="49.81693" lon="4.79">
        <ele>278</ele>
        <time>2021-03-30T10:48:05.000Z</time>
      </trkpt>
      <trkpt lat="49.81691" lon="4.78995">
        <ele>277</ele>
        <time>2021-03-30T10:48:06.000Z</time>
      </trkpt>
      <trkpt lat="49.81688" lon="4.78989">
        <ele>276</ele>
        <time>2021-03-30T10:48:07.000Z</time>
      </trkpt>
      <trkpt lat="49.81685" lon="4.78983">
        <ele>275</ele>
        <time>2021-03-30T10:48:08.000Z</time>
      </trkpt>
      <trkpt lat="49.81683" lon="4.78977">
        <ele>274</ele>
        <time>2021-03-30T10:48:09.000Z</time>
      </trkpt>
      <trkpt lat="49.8168" lon="4.78969">
        <ele>273</ele>
        <time>2021-03-30T10:48:10.000Z</time>
      </trkpt>
      <trkpt lat="49.81677" lon="4.78961">
        <ele>272</ele>
        <time>2021-03-30T10:48:11.000Z</time>
      </trkpt>
      <trkpt lat="49.81674" lon="4.78952">
        <ele>271</ele>
        <time>2021-03-30T10:48:12.000Z</time>
      </trkpt>
      <trkpt lat="49.81671" lon="4.78944">
        <ele>270</ele>
        <time>2021-03-30T10:48:13.000Z</time>
      </trkpt>
      <trkpt lat="49.81668" lon="4.78937">
        <ele>268</ele>
        <time>2021-03-30T10:48:14.000Z</time>
      </trkpt>
      <trkpt lat="49.81666" lon="4.7893">
        <ele>267</ele>
        <time>2021-03-30T10:48:15.000Z</time>
      </trkpt>
      <trkpt lat="49.81664" lon="4.78922">
        <ele>266</ele>
        <time>2021-03-30T10:48:16.000Z</time>
      </trkpt>
      <trkpt lat="49.81662" lon="4.78914">
        <ele>264</ele>
        <time>2021-03-30T10:48:17.000Z</time>
      </trkpt>
      <trkpt lat="49.8166" lon="4.78907">
        <ele>263</ele>
        <time>2021-03-30T10:48:18.000Z</time>
      </trkpt>
      <trkpt lat="49.81659" lon="4.78903">
        <ele>261</ele>
        <time>2021-03-30T10:48:19.000Z</time>
      </trkpt>
      <trkpt lat="49.81659" lon="4.78899">
        <ele>260</ele>
        <time>2021-03-30T10:48:20.000Z</time>
      </trkpt>
      <trkpt lat="49.81658" lon="4.78893">
        <ele>258</ele>
        <time>2021-03-30T10:48:21.000Z</time>
      </trkpt>
      <trkpt lat="49.81657" lon="4.78886">
        <ele>256</ele>
        <time>2021-03-30T10:48:22.000Z</time>
      </trkpt>
      <trkpt lat="49.81655" lon="4.7888">
        <ele>255</ele>
        <time>2021-03-30T10:48:23.000Z</time>
      </trkpt>
      <trkpt lat="49.81652" lon="4.78874">
        <ele>253</ele>
        <time>2021-03-30T10:48:24.000Z</time>
      </trkpt>
      <trkpt lat="49.8165" lon="4.78869">
        <ele>251</ele>
        <time>2021-03-30T10:48:25.000Z</time>
      </trkpt>
      <trkpt lat="49.81647" lon="4.78863">
        <ele>249</ele>
        <time>2021-03-30T10:48:26.000Z</time>
      </trkpt>
      <trkpt lat="49.81644" lon="4.78859">
        <ele>247</ele>
        <time>2021-03-30T10:48:27.000Z</time>
      </trkpt>
      <trkpt lat="49.81642" lon="4.78855">
        <ele>245</ele>
        <time>2021-03-30T10:48:28.000Z</time>
      </trkpt>
      <trkpt lat="49.81641" lon="4.78851">
        <ele>244</ele>
        <time>2021-03-30T10:48:29.000Z</time>
      </trkpt>
      <trkpt lat="49.8164" lon="4.78847">
        <ele>242</ele>
        <time>2021-03-30T10:48:30.000Z</time>
      </trkpt>
      <trkpt lat="49.81639" lon="4.78841">
        <ele>241</ele>
        <time>2021-03-30T10:48:31.000Z</time>
      </trkpt>
      <trkpt lat="49.81638" lon="4.78836">
        <ele>239</ele>
        <time>2021-03-30T10:48:32.000Z</time>
      </trkpt>
      <trkpt lat="49.81636" lon="4.78831">
        <ele>238</ele>
        <time>2021-03-30T10:48:33.000Z</time>
      </trkpt>
      <trkpt lat="49.81634" lon="4.78827">
        <ele>237</ele>
        <time>2021-03-30T10:48:34.000Z</time>
      </trkpt>
      <trkpt lat="49.81633" lon="4.78824">
        <ele>236</ele>
        <time>2021-03-30T10:48:35.000Z</time>
      </trkpt>
      <trkpt lat="49.81632" lon="4.7882">
        <ele>235</ele>
        <time>2021-03-30T10:48:36.000Z</time>
      </trkpt>
      <trkpt lat="49.81631" lon="4.78817">
        <ele>233</ele>
        <time>2021-03-30T10:48:37.000Z</time>
      </trkpt>
      <trkpt lat="49.81629" lon="4.78812">
        <ele>232</ele>
        <time>2021-03-30T10:48:38.000Z</time>
      </trkpt>
      <trkpt lat="49.81627" lon="4.78807">
        <ele>231</ele>
        <time>2021-03-30T10:48:39.000Z</time>
      </trkpt>
      <trkpt lat="49.81625" lon="4.78802">
        <ele>230</ele>
        <time>2021-03-30T10:48:40.000Z</time>
      </trkpt>
      <trkpt lat="49.81623" lon="4.78798">
        <ele>230</ele>
        <time>2021-03-30T10:48:41.000Z</time>
      </trkpt>
      <trkpt lat="49.81621" lon="4.78792">
        <ele>229</ele>
        <time>2021-03-30T10:48:42.000Z</time>
      </trkpt>
      <trkpt lat="49.8162" lon="4.78786">
        <ele>228</ele>
        <time>2021-03-30T10:48:43.000Z</time>
      </trkpt>
      <trkpt lat="49.81618" lon="4.78778">
        <ele>227</ele>
        <time>2021-03-30T10:48:44.000Z</time>
      </trkpt>
      <trkpt lat="49.81618" lon="4.7877">
        <ele>227</ele>
        <time>2021-03-30T10:48:45.000Z</time>
      </trkpt>
      <trkpt lat="49.81617" lon="4.78763">
        <ele>226</ele>
        <time>2021-03-30T10:48:46.000Z</time>
      </trkpt>
      <trkpt lat="49.81616" lon="4.78756">
        <ele>225</ele>
        <time>2021-03-30T10:48:47.000Z</time>
      </trkpt>
      <trkpt lat="49.81615" lon="4.7875">
        <ele>224</ele>
        <time>2021-03-30T10:48:48.000Z</time>
      </trkpt>
      <trkpt lat="49.81614" lon="4.78745">
        <ele>223</ele>
        <time>2021-03-30T10:48:49.000Z</time>
      </trkpt>
      <trkpt lat="49.81613" lon="4.78739">
        <ele>222</ele>
        <time>2021-03-30T10:48:50.000Z</time>
      </trkpt>
      <trkpt lat="49.81613" lon="4.78733">
        <ele>222</ele>
        <time>2021-03-30T10:48:51.000Z</time>
      </trkpt>
      <trkpt lat="49.81612" lon="4.78727">
        <ele>221</ele>
        <time>2021-03-30T10:48:52.000Z</time>
      </trkpt>
      <trkpt lat="49.81612" lon="4.78722">
        <ele>220</ele>
        <time>2021-03-30T10:48:53.000Z</time>
      </trkpt>
      <trkpt lat="49.8161" lon="4.78719">
        <ele>219</ele>
        <time>2021-03-30T10:48:54.000Z</time>
      </trkpt>
      <trkpt lat="49.81609" lon="4.78718">
        <ele>219</ele>
        <time>2021-03-30T10:48:55.000Z</time>
      </trkpt>
      <trkpt lat="49.81607" lon="4.78716">
        <ele>218</ele>
        <time>2021-03-30T10:48:56.000Z</time>
      </trkpt>
      <trkpt lat="49.81604" lon="4.78714">
        <ele>217</ele>
        <time>2021-03-30T10:48:57.000Z</time>
      </trkpt>
      <trkpt lat="49.81602" lon="4.78709">
        <ele>217</ele>
        <time>2021-03-30T10:48:58.000Z</time>
      </trkpt>
      <trkpt lat="49.816" lon="4.78703">
        <ele>216</ele>
        <time>2021-03-30T10:48:59.000Z</time>
      </trkpt>
      <trkpt lat="49.81598" lon="4.78696">
        <ele>215</ele>
        <time>2021-03-30T10:49:00.000Z</time>
      </trkpt>
      <trkpt lat="49.81597" lon="4.7869">
        <ele>215</ele>
        <time>2021-03-30T10:49:01.000Z</time>
      </trkpt>
      <trkpt lat="49.81596" lon="4.78684">
        <ele>214</ele>
        <time>2021-03-30T10:49:02.000Z</time>
      </trkpt>
      <trkpt lat="49.81595" lon="4.78679">
        <ele>213</ele>
        <time>2021-03-30T10:49:03.000Z</time>
      </trkpt>
      <trkpt lat="49.81595" lon="4.78676">
        <ele>213</ele>
        <time>2021-03-30T10:49:04.000Z</time>
      </trkpt>
      <trkpt lat="49.81595" lon="4.78673">
        <ele>212</ele>
        <time>2021-03-30T10:49:05.000Z</time>
      </trkpt>
      <trkpt lat="49.81595" lon="4.7867">
        <ele>212</ele>
        <time>2021-03-30T10:49:06.000Z</time>
      </trkpt>
      <trkpt lat="49.81595" lon="4.78668">
        <ele>211</ele>
        <time>2021-03-30T10:49:07.000Z</time>
      </trkpt>
      <trkpt lat="49.81595" lon="4.78666">
        <ele>210</ele>
        <time>2021-03-30T10:49:08.000Z</time>
      </trkpt>
      <trkpt lat="49.81596" lon="4.78664">
        <ele>210</ele>
        <time>2021-03-30T10:49:09.000Z</time>
      </trkpt>
      <trkpt lat="49.81598" lon="4.78664">
        <ele>209</ele>
        <time>2021-03-30T10:49:10.000Z</time>
      </trkpt>
      <trkpt lat="49.816" lon="4.78664">
        <ele>209</ele>
        <time>2021-03-30T10:49:11.000Z</time>
      </trkpt>
      <trkpt lat="49.81603" lon="4.78664">
        <ele>208</ele>
        <time>2021-03-30T10:49:12.000Z</time>
      </trkpt>
      <trkpt lat="49.81605" lon="4.78665">
        <ele>207</ele>
        <time>2021-03-30T10:49:13.000Z</time>
      </trkpt>
      <trkpt lat="49.81608" lon="4.78666">
        <ele>207</ele>
        <time>2021-03-30T10:49:14.000Z</time>
      </trkpt>
      <trkpt lat="49.81611" lon="4.78669">
        <ele>206</ele>
        <time>2021-03-30T10:49:15.000Z</time>
      </trkpt>
      <trkpt lat="49.81615" lon="4.78671">
        <ele>206</ele>
        <time>2021-03-30T10:49:16.000Z</time>
      </trkpt>
      <trkpt lat="49.81619" lon="4.78674">
        <ele>205</ele>
        <time>2021-03-30T10:49:17.000Z</time>
      </trkpt>
      <trkpt lat="49.81622" lon="4.78677">
        <ele>205</ele>
        <time>2021-03-30T10:49:18.000Z</time>
      </trkpt>
      <trkpt lat="49.81625" lon="4.78679">
        <ele>204</ele>
        <time>2021-03-30T10:49:19.000Z</time>
      </trkpt>
      <trkpt lat="49.81629" lon="4.7868">
        <ele>204</ele>
        <time>2021-03-30T10:49:20.000Z</time>
      </trkpt>
      <trkpt lat="49.81633" lon="4.78681">
        <ele>203</ele>
        <time>2021-03-30T10:49:21.000Z</time>
      </trkpt>
      <trkpt lat="49.81637" lon="4.78684">
        <ele>203</ele>
        <time>2021-03-30T10:49:22.000Z</time>
      </trkpt>
      <trkpt lat="49.81641" lon="4.78687">
        <ele>202</ele>
        <time>2021-03-30T10:49:23.000Z</time>
      </trkpt>
      <trkpt lat="49.81644" lon="4.78689">
        <ele>202</ele>
        <time>2021-03-30T10:49:24.000Z</time>
      </trkpt>
      <trkpt lat="49.81648" lon="4.78691">
        <ele>201</ele>
        <time>2021-03-30T10:49:25.000Z</time>
      </trkpt>
      <trkpt lat="49.81651" lon="4.78693">
        <ele>201</ele>
        <time>2021-03-30T10:49:26.000Z</time>
      </trkpt>
      <trkpt lat="49.81655" lon="4.78695">
        <ele>200</ele>
        <time>2021-03-30T10:49:27.000Z</time>
      </trkpt>
      <trkpt lat="49.81659" lon="4.78697">
        <ele>200</ele>
        <time>2021-03-30T10:49:28.000Z</time>
      </trkpt>
      <trkpt lat="49.81663" lon="4.78699">
        <ele>199</ele>
        <time>2021-03-30T10:49:29.000Z</time>
      </trkpt>
      <trkpt lat="49.81667" lon="4.78701">
        <ele>199</ele>
        <time>2021-03-30T10:49:30.000Z</time>
      </trkpt>
      <trkpt lat="49.81671" lon="4.78703">
        <ele>198</ele>
        <time>2021-03-30T10:49:31.000Z</time>
      </trkpt>
      <trkpt lat="49.81675" lon="4.78705">
        <ele>198</ele>
        <time>2021-03-30T10:49:32.000Z</time>
      </trkpt>
      <trkpt lat="49.81679" lon="4.78707">
        <ele>198</ele>
        <time>2021-03-30T10:49:33.000Z</time>
      </trkpt>
      <trkpt lat="49.81683" lon="4.78709">
        <ele>198</ele>
        <time>2021-03-30T10:49:34.000Z</time>
      </trkpt>
      <trkpt lat="49.81687" lon="4.78712">
        <ele>197</ele>
        <time>2021-03-30T10:49:35.000Z</time>
      </trkpt>
      <trkpt lat="49.81691" lon="4.78716">
        <ele>197</ele>
        <time>2021-03-30T10:49:36.000Z</time>
      </trkpt>
      <trkpt lat="49.81696" lon="4.78718">
        <ele>196</ele>
        <time>2021-03-30T10:49:37.000Z</time>
      </trkpt>
      <trkpt lat="49.817" lon="4.78721">
        <ele>196</ele>
        <time>2021-03-30T10:49:38.000Z</time>
      </trkpt>
      <trkpt lat="49.81704" lon="4.78724">
        <ele>196</ele>
        <time>2021-03-30T10:49:39.000Z</time>
      </trkpt>
      <trkpt lat="49.81709" lon="4.78728">
        <ele>195</ele>
        <time>2021-03-30T10:49:40.000Z</time>
      </trkpt>
      <trkpt lat="49.81713" lon="4.78731">
        <ele>195</ele>
        <time>2021-03-30T10:49:41.000Z</time>
      </trkpt>
      <trkpt lat="49.81717" lon="4.78735">
        <ele>195</ele>
        <time>2021-03-30T10:49:42.000Z</time>
      </trkpt>
      <trkpt lat="49.81721" lon="4.78737">
        <ele>195</ele>
        <time>2021-03-30T10:49:43.000Z</time>
      </trkpt>
      <trkpt lat="49.81726" lon="4.7874">
        <ele>194</ele>
        <time>2021-03-30T10:49:44.000Z</time>
      </trkpt>
      <trkpt lat="49.8173" lon="4.78744">
        <ele>194</ele>
        <time>2021-03-30T10:49:45.000Z</time>
      </trkpt>
      <trkpt lat="49.81735" lon="4.78748">
        <ele>194</ele>
        <time>2021-03-30T10:49:46.000Z</time>
      </trkpt>
      <trkpt lat="49.81739" lon="4.78752">
        <ele>194</ele>
        <time>2021-03-30T10:49:47.000Z</time>
      </trkpt>
      <trkpt lat="49.81743" lon="4.78757">
        <ele>194</ele>
        <time>2021-03-30T10:49:48.000Z</time>
      </trkpt>
      <trkpt lat="49.81747" lon="4.7876">
        <ele>193</ele>
        <time>2021-03-30T10:49:49.000Z</time>
      </trkpt>
      <trkpt lat="49.81752" lon="4.78763">
        <ele>193</ele>
        <time>2021-03-30T10:49:50.000Z</time>
      </trkpt>
      <trkpt lat="49.81756" lon="4.78764">
        <ele>193</ele>
        <time>2021-03-30T10:49:51.000Z</time>
      </trkpt>
      <trkpt lat="49.8176" lon="4.78764">
        <ele>193</ele>
        <time>2021-03-30T10:49:52.000Z</time>
      </trkpt>
      <trkpt lat="49.81763" lon="4.78763">
        <ele>193</ele>
        <time>2021-03-30T10:49:53.000Z</time>
      </trkpt>
      <trkpt lat="49.81766" lon="4.78761">
        <ele>192</ele>
        <time>2021-03-30T10:49:54.000Z</time>
      </trkpt>
      <trkpt lat="49.81767" lon="4.78758">
        <ele>192</ele>
        <time>2021-03-30T10:49:55.000Z</time>
      </trkpt>
      <trkpt lat="49.81769" lon="4.78754">
        <ele>192</ele>
        <time>2021-03-30T10:49:56.000Z</time>
      </trkpt>
      <trkpt lat="49.81768" lon="4.78749">
        <ele>192</ele>
        <time>2021-03-30T10:49:57.000Z</time>
      </trkpt>
      <trkpt lat="49.81765" lon="4.78745">
        <ele>192</ele>
        <time>2021-03-30T10:49:58.000Z</time>
      </trkpt>
      <trkpt lat="49.81763" lon="4.78742">
        <ele>191</ele>
        <time>2021-03-30T10:49:59.000Z</time>
      </trkpt>
      <trkpt lat="49.81762" lon="4.78741">
        <ele>191</ele>
        <time>2021-03-30T10:50:00.000Z</time>
      </trkpt>
      <trkpt lat="49.81762" lon="4.78741">
        <ele>191</ele>
        <time>2021-03-30T10:50:01.000Z</time>
      </trkpt>
      <trkpt lat="49.81762" lon="4.7874">
        <ele>191</ele>
        <time>2021-03-30T10:50:02.000Z</time>
      </trkpt>
      <trkpt lat="49.81761" lon="4.7874">
        <ele>191</ele>
        <time>2021-03-30T10:50:03.000Z</time>
      </trkpt>
      <trkpt lat="49.81761" lon="4.7874">
        <ele>191</ele>
        <time>2021-03-30T10:50:04.000Z</time>
      </trkpt>
      <trkpt lat="49.81761" lon="4.78739">
        <ele>191</ele>
        <time>2021-03-30T10:50:05.000Z</time>
      </trkpt>
      <trkpt lat="49.81761" lon="4.78739">
        <ele>192</ele>
        <time>2021-03-30T10:50:06.000Z</time>
      </trkpt>
      <trkpt lat="49.81761" lon="4.78739">
        <ele>192</ele>
        <time>2021-03-30T10:50:07.000Z</time>
      </trkpt>
      <trkpt lat="49.81761" lon="4.78739">
        <ele>192</ele>
        <time>2021-03-30T10:50:08.000Z</time>
      </trkpt>
      <trkpt lat="49.81761" lon="4.78739">
        <ele>192</ele>
        <time>2021-03-30T10:50:09.000Z</time>
      </trkpt>
      <trkpt lat="49.81761" lon="4.78739">
        <ele>192</ele>
        <time>2021-03-30T10:50:10.000Z</time>
      </trkpt>
      <trkpt lat="49.8176" lon="4.78739">
        <ele>192</ele>
        <time>2021-03-30T10:50:11.000Z</time>
      </trkpt>
      <trkpt lat="49.8176" lon="4.78738">
        <ele>192</ele>
        <time>2021-03-30T10:50:12.000Z</time>
      </trkpt>
      <trkpt lat="49.8176" lon="4.78739">
        <ele>192</ele>
        <time>2021-03-30T10:50:13.000Z</time>
      </trkpt>
      <trkpt lat="49.81759" lon="4.78738">
        <ele>192</ele>
        <time>2021-03-30T10:50:14.000Z</time>
      </trkpt>
      <trkpt lat="49.81758" lon="4.78737">
        <ele>192</ele>
        <time>2021-03-30T10:50:15.000Z</time>
      </trkpt>
      <trkpt lat="49.81757" lon="4.78736">
        <ele>192</ele>
        <time>2021-03-30T10:50:16.000Z</time>
      </trkpt>
      <trkpt lat="49.81755" lon="4.78735">
        <ele>192</ele>
        <time>2021-03-30T10:50:17.000Z</time>
      </trkpt>
      <trkpt lat="49.81753" lon="4.78734">
        <ele>192</ele>
        <time>2021-03-30T10:50:18.000Z</time>
      </trkpt>
      <trkpt lat="49.81751" lon="4.78732">
        <ele>192</ele>
        <time>2021-03-30T10:50:19.000Z</time>
      </trkpt>
      <trkpt lat="49.81749" lon="4.78731">
        <ele>191</ele>
        <time>2021-03-30T10:50:20.000Z</time>
      </trkpt>
      <trkpt lat="49.81746" lon="4.78729">
        <ele>191</ele>
        <time>2021-03-30T10:50:21.000Z</time>
      </trkpt>
      <trkpt lat="49.81744" lon="4.78728">
        <ele>191</ele>
        <time>2021-03-30T10:50:22.000Z</time>
      </trkpt>
      <trkpt lat="49.81743" lon="4.78728">
        <ele>191</ele>
        <time>2021-03-30T10:50:23.000Z</time>
      </trkpt>
      <trkpt lat="49.81743" lon="4.78728">
        <ele>190</ele>
        <time>2021-03-30T10:50:24.000Z</time>
      </trkpt>
      <trkpt lat="49.81743" lon="4.78728">
        <ele>190</ele>
        <time>2021-03-30T10:50:25.000Z</time>
      </trkpt>
      <trkpt lat="49.81743" lon="4.78728">
        <ele>190</ele>
        <time>2021-03-30T10:50:26.000Z</time>
      </trkpt>
      <trkpt lat="49.81743" lon="4.78728">
        <ele>190</ele>
        <time>2021-03-30T10:50:27.000Z</time>
      </trkpt>
      <trkpt lat="49.81743" lon="4.78728">
        <ele>190</ele>
        <time>2021-03-30T10:50:28.000Z</time>
      </trkpt>
      <trkpt lat="49.81743" lon="4.78728">
        <ele>190</ele>
        <time>2021-03-30T10:50:29.000Z</time>
      </trkpt>
      <trkpt lat="49.81743" lon="4.78728">
        <ele>190</ele>
        <time>2021-03-30T10:50:30.000Z</time>
      </trkpt>
      <trkpt lat="49.81743" lon="4.78729">
        <ele>190</ele>
        <time>2021-03-30T10:50:31.000Z</time>
      </trkpt>
      <trkpt lat="49.81743" lon="4.78729">
        <ele>190</ele>
        <time>2021-03-30T10:50:32.000Z</time>
      </trkpt>
      <trkpt lat="49.81743" lon="4.7873">
        <ele>190</ele>
        <time>2021-03-30T10:50:33.000Z</time>
      </trkpt>
      <trkpt lat="49.81744" lon="4.7873">
        <ele>190</ele>
        <time>2021-03-30T10:50:34.000Z</time>
      </trkpt>
      <trkpt lat="49.81743" lon="4.7873">
        <ele>190</ele>
        <time>2021-03-30T10:50:35.000Z</time>
      </trkpt>
      <trkpt lat="49.81743" lon="4.78731">
        <ele>190</ele>
        <time>2021-03-30T10:50:36.000Z</time>
      </trkpt>
      <trkpt lat="49.81743" lon="4.78731">
        <ele>190</ele>
        <time>2021-03-30T10:50:37.000Z</time>
      </trkpt>
      <trkpt lat="49.81743" lon="4.78731">
        <ele>190</ele>
        <time>2021-03-30T10:50:38.000Z</time>
      </trkpt>
      <trkpt lat="49.81742" lon="4.7873">
        <ele>190</ele>
        <time>2021-03-30T10:50:39.000Z</time>
      </trkpt>
      <trkpt lat="49.81742" lon="4.78729">
        <ele>190</ele>
        <time>2021-03-30T10:50:40.000Z</time>
      </trkpt>
      <trkpt lat="49.8174" lon="4.78728">
        <ele>190</ele>
        <time>2021-03-30T10:50:41.000Z</time>
      </trkpt>
      <trkpt lat="49.81738" lon="4.78726">
        <ele>190</ele>
        <time>2021-03-30T10:50:42.000Z</time>
      </trkpt>
      <trkpt lat="49.81735" lon="4.78723">
        <ele>190</ele>
        <time>2021-03-30T10:50:43.000Z</time>
      </trkpt>
      <trkpt lat="49.81732" lon="4.78719">
        <ele>190</ele>
        <time>2021-03-30T10:50:44.000Z</time>
      </trkpt>
      <trkpt lat="49.81729" lon="4.78716">
        <ele>190</ele>
        <time>2021-03-30T10:50:45.000Z</time>
      </trkpt>
      <trkpt lat="49.81725" lon="4.78713">
        <ele>190</ele>
        <time>2021-03-30T10:50:46.000Z</time>
      </trkpt>
      <trkpt lat="49.81722" lon="4.78709">
        <ele>189</ele>
        <time>2021-03-30T10:50:47.000Z</time>
      </trkpt>
      <trkpt lat="49.81718" lon="4.78705">
        <ele>189</ele>
        <time>2021-03-30T10:50:48.000Z</time>
      </trkpt>
      <trkpt lat="49.81713" lon="4.78701">
        <ele>189</ele>
        <time>2021-03-30T10:50:49.000Z</time>
      </trkpt>
      <trkpt lat="49.81709" lon="4.78696">
        <ele>188</ele>
        <time>2021-03-30T10:50:50.000Z</time>
      </trkpt>
      <trkpt lat="49.81705" lon="4.78692">
        <ele>188</ele>
        <time>2021-03-30T10:50:51.000Z</time>
      </trkpt>
      <trkpt lat="49.817" lon="4.78687">
        <ele>188</ele>
        <time>2021-03-30T10:50:52.000Z</time>
      </trkpt>
      <trkpt lat="49.81695" lon="4.78683">
        <ele>187</ele>
        <time>2021-03-30T10:50:53.000Z</time>
      </trkpt>
      <trkpt lat="49.81691" lon="4.78679">
        <ele>187</ele>
        <time>2021-03-30T10:50:54.000Z</time>
      </trkpt>
      <trkpt lat="49.81687" lon="4.78674">
        <ele>186</ele>
        <time>2021-03-30T10:50:55.000Z</time>
      </trkpt>
      <trkpt lat="49.81682" lon="4.78671">
        <ele>186</ele>
        <time>2021-03-30T10:50:56.000Z</time>
      </trkpt>
      <trkpt lat="49.81678" lon="4.78667">
        <ele>186</ele>
        <time>2021-03-30T10:50:57.000Z</time>
      </trkpt>
      <trkpt lat="49.81673" lon="4.78663">
        <ele>185</ele>
        <time>2021-03-30T10:50:58.000Z</time>
      </trkpt>
      <trkpt lat="49.81668" lon="4.78659">
        <ele>185</ele>
        <time>2021-03-30T10:50:59.000Z</time>
      </trkpt>
      <trkpt lat="49.81664" lon="4.78656">
        <ele>185</ele>
        <time>2021-03-30T10:51:00.000Z</time>
      </trkpt>
      <trkpt lat="49.81658" lon="4.78653">
        <ele>184</ele>
        <time>2021-03-30T10:51:01.000Z</time>
      </trkpt>
      <trkpt lat="49.81652" lon="4.7865">
        <ele>184</ele>
        <time>2021-03-30T10:51:02.000Z</time>
      </trkpt>
      <trkpt lat="49.81647" lon="4.78647">
        <ele>183</ele>
        <time>2021-03-30T10:51:03.000Z</time>
      </trkpt>
      <trkpt lat="49.81641" lon="4.78643">
        <ele>183</ele>
        <time>2021-03-30T10:51:04.000Z</time>
      </trkpt>
      <trkpt lat="49.81636" lon="4.7864">
        <ele>183</ele>
        <time>2021-03-30T10:51:05.000Z</time>
      </trkpt>
      <trkpt lat="49.8163" lon="4.78637">
        <ele>182</ele>
        <time>2021-03-30T10:51:06.000Z</time>
      </trkpt>
      <trkpt lat="49.81625" lon="4.78634">
        <ele>182</ele>
        <time>2021-03-30T10:51:07.000Z</time>
      </trkpt>
      <trkpt lat="49.8162" lon="4.78632">
        <ele>182</ele>
        <time>2021-03-30T10:51:08.000Z</time>
      </trkpt>
      <trkpt lat="49.81615" lon="4.78629">
        <ele>181</ele>
        <time>2021-03-30T10:51:09.000Z</time>
      </trkpt>
      <trkpt lat="49.8161" lon="4.78626">
        <ele>181</ele>
        <time>2021-03-30T10:51:10.000Z</time>
      </trkpt>
      <trkpt lat="49.81605" lon="4.78623">
        <ele>180</ele>
        <time>2021-03-30T10:51:11.000Z</time>
      </trkpt>
      <trkpt lat="49.816" lon="4.7862">
        <ele>180</ele>
        <time>2021-03-30T10:51:12.000Z</time>
      </trkpt>
      <trkpt lat="49.81595" lon="4.78618">
        <ele>180</ele>
        <time>2021-03-30T10:51:13.000Z</time>
      </trkpt>
      <trkpt lat="49.8159" lon="4.78617">
        <ele>179</ele>
        <time>2021-03-30T10:51:14.000Z</time>
      </trkpt>
      <trkpt lat="49.81585" lon="4.78617">
        <ele>179</ele>
        <time>2021-03-30T10:51:15.000Z</time>
      </trkpt>
      <trkpt lat="49.81579" lon="4.78619">
        <ele>179</ele>
        <time>2021-03-30T10:51:16.000Z</time>
      </trkpt>
      <trkpt lat="49.81574" lon="4.78622">
        <ele>179</ele>
        <time>2021-03-30T10:51:17.000Z</time>
      </trkpt>
      <trkpt lat="49.81569" lon="4.78626">
        <ele>179</ele>
        <time>2021-03-30T10:51:18.000Z</time>
      </trkpt>
      <trkpt lat="49.81564" lon="4.7863">
        <ele>179</ele>
        <time>2021-03-30T10:51:19.000Z</time>
      </trkpt>
      <trkpt lat="49.81559" lon="4.78635">
        <ele>178</ele>
        <time>2021-03-30T10:51:20.000Z</time>
      </trkpt>
      <trkpt lat="49.81554" lon="4.7864">
        <ele>178</ele>
        <time>2021-03-30T10:51:21.000Z</time>
      </trkpt>
      <trkpt lat="49.81549" lon="4.78646">
        <ele>178</ele>
        <time>2021-03-30T10:51:22.000Z</time>
      </trkpt>
      <trkpt lat="49.81544" lon="4.78651">
        <ele>178</ele>
        <time>2021-03-30T10:51:23.000Z</time>
      </trkpt>
      <trkpt lat="49.81539" lon="4.78655">
        <ele>178</ele>
        <time>2021-03-30T10:51:24.000Z</time>
      </trkpt>
      <trkpt lat="49.81535" lon="4.78659">
        <ele>178</ele>
        <time>2021-03-30T10:51:25.000Z</time>
      </trkpt>
      <trkpt lat="49.8153" lon="4.78664">
        <ele>177</ele>
        <time>2021-03-30T10:51:26.000Z</time>
      </trkpt>
      <trkpt lat="49.81526" lon="4.78669">
        <ele>177</ele>
        <time>2021-03-30T10:51:27.000Z</time>
      </trkpt>
      <trkpt lat="49.81521" lon="4.78675">
        <ele>177</ele>
        <time>2021-03-30T10:51:28.000Z</time>
      </trkpt>
      <trkpt lat="49.81517" lon="4.78679">
        <ele>177</ele>
        <time>2021-03-30T10:51:29.000Z</time>
      </trkpt>
      <trkpt lat="49.81512" lon="4.78684">
        <ele>177</ele>
        <time>2021-03-30T10:51:30.000Z</time>
      </trkpt>
      <trkpt lat="49.81507" lon="4.78689">
        <ele>177</ele>
        <time>2021-03-30T10:51:31.000Z</time>
      </trkpt>
      <trkpt lat="49.81502" lon="4.78694">
        <ele>177</ele>
        <time>2021-03-30T10:51:32.000Z</time>
      </trkpt>
      <trkpt lat="49.81497" lon="4.78696">
        <ele>177</ele>
        <time>2021-03-30T10:51:33.000Z</time>
      </trkpt>
      <trkpt lat="49.81492" lon="4.78696">
        <ele>177</ele>
        <time>2021-03-30T10:51:34.000Z</time>
      </trkpt>
      <trkpt lat="49.81487" lon="4.78693">
        <ele>177</ele>
        <time>2021-03-30T10:51:35.000Z</time>
      </trkpt>
      <trkpt lat="49.81483" lon="4.78686">
        <ele>177</ele>
        <time>2021-03-30T10:51:36.000Z</time>
      </trkpt>
      <trkpt lat="49.81479" lon="4.78677">
        <ele>176</ele>
        <time>2021-03-30T10:51:37.000Z</time>
      </trkpt>
      <trkpt lat="49.81477" lon="4.78666">
        <ele>176</ele>
        <time>2021-03-30T10:51:38.000Z</time>
      </trkpt>
      <trkpt lat="49.81476" lon="4.78654">
        <ele>176</ele>
        <time>2021-03-30T10:51:39.000Z</time>
      </trkpt>
      <trkpt lat="49.81475" lon="4.78642">
        <ele>176</ele>
        <time>2021-03-30T10:51:40.000Z</time>
      </trkpt>
      <trkpt lat="49.81476" lon="4.78631">
        <ele>175</ele>
        <time>2021-03-30T10:51:41.000Z</time>
      </trkpt>
      <trkpt lat="49.81477" lon="4.78619">
        <ele>175</ele>
        <time>2021-03-30T10:51:42.000Z</time>
      </trkpt>
      <trkpt lat="49.81479" lon="4.78608">
        <ele>174</ele>
        <time>2021-03-30T10:51:43.000Z</time>
      </trkpt>
      <trkpt lat="49.81482" lon="4.78597">
        <ele>174</ele>
        <time>2021-03-30T10:51:44.000Z</time>
      </trkpt>
      <trkpt lat="49.81486" lon="4.78587">
        <ele>174</ele>
        <time>2021-03-30T10:51:45.000Z</time>
      </trkpt>
      <trkpt lat="49.8149" lon="4.78577">
        <ele>173</ele>
        <time>2021-03-30T10:51:46.000Z</time>
      </trkpt>
      <trkpt lat="49.81495" lon="4.78567">
        <ele>173</ele>
        <time>2021-03-30T10:51:47.000Z</time>
      </trkpt>
      <trkpt lat="49.81499" lon="4.78558">
        <ele>172</ele>
        <time>2021-03-30T10:51:48.000Z</time>
      </trkpt>
      <trkpt lat="49.81504" lon="4.78548">
        <ele>172</ele>
        <time>2021-03-30T10:51:49.000Z</time>
      </trkpt>
      <trkpt lat="49.8151" lon="4.78538">
        <ele>171</ele>
        <time>2021-03-30T10:51:50.000Z</time>
      </trkpt>
      <trkpt lat="49.81516" lon="4.78529">
        <ele>171</ele>
        <time>2021-03-30T10:51:51.000Z</time>
      </trkpt>
      <trkpt lat="49.81522" lon="4.78521">
        <ele>170</ele>
        <time>2021-03-30T10:51:52.000Z</time>
      </trkpt>
      <trkpt lat="49.81527" lon="4.78512">
        <ele>170</ele>
        <time>2021-03-30T10:51:53.000Z</time>
      </trkpt>
      <trkpt lat="49.81532" lon="4.78502">
        <ele>170</ele>
        <time>2021-03-30T10:51:54.000Z</time>
      </trkpt>
      <trkpt lat="49.81536" lon="4.78493">
        <ele>169</ele>
        <time>2021-03-30T10:51:55.000Z</time>
      </trkpt>
      <trkpt lat="49.8154" lon="4.78483">
        <ele>169</ele>
        <time>2021-03-30T10:51:56.000Z</time>
      </trkpt>
      <trkpt lat="49.81543" lon="4.78473">
        <ele>169</ele>
        <time>2021-03-30T10:51:57.000Z</time>
      </trkpt>
      <trkpt lat="49.81544" lon="4.78462">
        <ele>168</ele>
        <time>2021-03-30T10:51:58.000Z</time>
      </trkpt>
      <trkpt lat="49.81545" lon="4.78452">
        <ele>168</ele>
        <time>2021-03-30T10:51:59.000Z</time>
      </trkpt>
      <trkpt lat="49.81545" lon="4.78442">
        <ele>168</ele>
        <time>2021-03-30T10:52:00.000Z</time>
      </trkpt>
      <trkpt lat="49.81545" lon="4.78432">
        <ele>167</ele>
        <time>2021-03-30T10:52:01.000Z</time>
      </trkpt>
      <trkpt lat="49.81545" lon="4.78421">
        <ele>167</ele>
        <time>2021-03-30T10:52:02.000Z</time>
      </trkpt>
      <trkpt lat="49.81545" lon="4.78411">
        <ele>167</ele>
        <time>2021-03-30T10:52:03.000Z</time>
      </trkpt>
      <trkpt lat="49.81545" lon="4.78401">
        <ele>167</ele>
        <time>2021-03-30T10:52:04.000Z</time>
      </trkpt>
      <trkpt lat="49.81546" lon="4.78391">
        <ele>167</ele>
        <time>2021-03-30T10:52:05.000Z</time>
      </trkpt>
      <trkpt lat="49.81548" lon="4.78382">
        <ele>167</ele>
        <time>2021-03-30T10:52:06.000Z</time>
      </trkpt>
      <trkpt lat="49.81549" lon="4.78373">
        <ele>167</ele>
        <time>2021-03-30T10:52:07.000Z</time>
      </trkpt>
      <trkpt lat="49.81551" lon="4.78364">
        <ele>167</ele>
        <time>2021-03-30T10:52:08.000Z</time>
      </trkpt>
      <trkpt lat="49.81552" lon="4.78356">
        <ele>167</ele>
        <time>2021-03-30T10:52:09.000Z</time>
      </trkpt>
      <trkpt lat="49.81554" lon="4.78349">
        <ele>167</ele>
        <time>2021-03-30T10:52:10.000Z</time>
      </trkpt>
      <trkpt lat="49.81555" lon="4.78342">
        <ele>167</ele>
        <time>2021-03-30T10:52:11.000Z</time>
      </trkpt>
      <trkpt lat="49.81557" lon="4.78337">
        <ele>167</ele>
        <time>2021-03-30T10:52:12.000Z</time>
      </trkpt>
      <trkpt lat="49.8156" lon="4.78332">
        <ele>167</ele>
        <time>2021-03-30T10:52:13.000Z</time>
      </trkpt>
      <trkpt lat="49.81563" lon="4.78327">
        <ele>167</ele>
        <time>2021-03-30T10:52:14.000Z</time>
      </trkpt>
      <trkpt lat="49.81566" lon="4.7832">
        <ele>167</ele>
        <time>2021-03-30T10:52:15.000Z</time>
      </trkpt>
      <trkpt lat="49.81569" lon="4.78314">
        <ele>167</ele>
        <time>2021-03-30T10:52:16.000Z</time>
      </trkpt>
      <trkpt lat="49.81571" lon="4.78307">
        <ele>168</ele>
        <time>2021-03-30T10:52:17.000Z</time>
      </trkpt>
      <trkpt lat="49.81573" lon="4.78301">
        <ele>168</ele>
        <time>2021-03-30T10:52:18.000Z</time>
      </trkpt>
      <trkpt lat="49.81574" lon="4.78296">
        <ele>168</ele>
        <time>2021-03-30T10:52:19.000Z</time>
      </trkpt>
      <trkpt lat="49.81576" lon="4.78292">
        <ele>168</ele>
        <time>2021-03-30T10:52:20.000Z</time>
      </trkpt>
      <trkpt lat="49.81577" lon="4.78288">
        <ele>168</ele>
        <time>2021-03-30T10:52:21.000Z</time>
      </trkpt>
      <trkpt lat="49.81579" lon="4.78286">
        <ele>168</ele>
        <time>2021-03-30T10:52:22.000Z</time>
      </trkpt>
      <trkpt lat="49.81581" lon="4.78286">
        <ele>169</ele>
        <time>2021-03-30T10:52:23.000Z</time>
      </trkpt>
      <trkpt lat="49.81583" lon="4.78288">
        <ele>169</ele>
        <time>2021-03-30T10:52:24.000Z</time>
      </trkpt>
      <trkpt lat="49.81586" lon="4.7829">
        <ele>169</ele>
        <time>2021-03-30T10:52:25.000Z</time>
      </trkpt>
      <trkpt lat="49.81588" lon="4.78293">
        <ele>169</ele>
        <time>2021-03-30T10:52:26.000Z</time>
      </trkpt>
      <trkpt lat="49.81589" lon="4.78296">
        <ele>169</ele>
        <time>2021-03-30T10:52:27.000Z</time>
      </trkpt>
      <trkpt lat="49.81589" lon="4.783">
        <ele>169</ele>
        <time>2021-03-30T10:52:28.000Z</time>
      </trkpt>
      <trkpt lat="49.81589" lon="4.78304">
        <ele>169</ele>
        <time>2021-03-30T10:52:29.000Z</time>
      </trkpt>
      <trkpt lat="49.81589" lon="4.78308">
        <ele>169</ele>
        <time>2021-03-30T10:52:30.000Z</time>
      </trkpt>
      <trkpt lat="49.81587" lon="4.78312">
        <ele>169</ele>
        <time>2021-03-30T10:52:31.000Z</time>
      </trkpt>
      <trkpt lat="49.81584" lon="4.78313">
        <ele>169</ele>
        <time>2021-03-30T10:52:32.000Z</time>
      </trkpt>
      <trkpt lat="49.8158" lon="4.78314">
        <ele>169</ele>
        <time>2021-03-30T10:52:33.000Z</time>
      </trkpt>
      <trkpt lat="49.81578" lon="4.78315">
        <ele>169</ele>
        <time>2021-03-30T10:52:34.000Z</time>
      </trkpt>
      <trkpt lat="49.81575" lon="4.78316">
        <ele>170</ele>
        <time>2021-03-30T10:52:35.000Z</time>
      </trkpt>
      <trkpt lat="49.81572" lon="4.78317">
        <ele>170</ele>
        <time>2021-03-30T10:52:36.000Z</time>
      </trkpt>
      <trkpt lat="49.81569" lon="4.78318">
        <ele>170</ele>
        <time>2021-03-30T10:52:37.000Z</time>
      </trkpt>
      <trkpt lat="49.81567" lon="4.7832">
        <ele>170</ele>
        <time>2021-03-30T10:52:38.000Z</time>
      </trkpt>
      <trkpt lat="49.81566" lon="4.78322">
        <ele>170</ele>
        <time>2021-03-30T10:52:39.000Z</time>
      </trkpt>
      <trkpt lat="49.81567" lon="4.78323">
        <ele>170</ele>
        <time>2021-03-30T10:52:40.000Z</time>
      </trkpt>
      <trkpt lat="49.81568" lon="4.78322">
        <ele>170</ele>
        <time>2021-03-30T10:52:41.000Z</time>
      </trkpt>
      <trkpt lat="49.81569" lon="4.7832">
        <ele>170</ele>
        <time>2021-03-30T10:52:42.000Z</time>
      </trkpt>
      <trkpt lat="49.81569" lon="4.78317">
        <ele>170</ele>
        <time>2021-03-30T10:52:43.000Z</time>
      </trkpt>
      <trkpt lat="49.8157" lon="4.78313">
        <ele>170</ele>
        <time>2021-03-30T10:52:44.000Z</time>
      </trkpt>
      <trkpt lat="49.81571" lon="4.78311">
        <ele>170</ele>
        <time>2021-03-30T10:52:45.000Z</time>
      </trkpt>
      <trkpt lat="49.81572" lon="4.78307">
        <ele>170</ele>
        <time>2021-03-30T10:52:46.000Z</time>
      </trkpt>
      <trkpt lat="49.81573" lon="4.78304">
        <ele>170</ele>
        <time>2021-03-30T10:52:47.000Z</time>
      </trkpt>
      <trkpt lat="49.81575" lon="4.78299">
        <ele>170</ele>
        <time>2021-03-30T10:52:48.000Z</time>
      </trkpt>
      <trkpt lat="49.81575" lon="4.78295">
        <ele>170</ele>
        <time>2021-03-30T10:52:49.000Z</time>
      </trkpt>
      <trkpt lat="49.81576" lon="4.78291">
        <ele>170</ele>
        <time>2021-03-30T10:52:50.000Z</time>
      </trkpt>
      <trkpt lat="49.81577" lon="4.78288">
        <ele>170</ele>
        <time>2021-03-30T10:52:51.000Z</time>
      </trkpt>
      <trkpt lat="49.8158" lon="4.78287">
        <ele>170</ele>
        <time>2021-03-30T10:52:52.000Z</time>
      </trkpt>
      <trkpt lat="49.81582" lon="4.78287">
        <ele>170</ele>
        <time>2021-03-30T10:52:53.000Z</time>
      </trkpt>
      <trkpt lat="49.81584" lon="4.78289">
        <ele>170</ele>
        <time>2021-03-30T10:52:54.000Z</time>
      </trkpt>
      <trkpt lat="49.81585" lon="4.78291">
        <ele>170</ele>
        <time>2021-03-30T10:52:55.000Z</time>
      </trkpt>
      <trkpt lat="49.81587" lon="4.78294">
        <ele>170</ele>
        <time>2021-03-30T10:52:56.000Z</time>
      </trkpt>
      <trkpt lat="49.81588" lon="4.78296">
        <ele>170</ele>
        <time>2021-03-30T10:52:57.000Z</time>
      </trkpt>
      <trkpt lat="49.81589" lon="4.78299">
        <ele>170</ele>
        <time>2021-03-30T10:52:58.000Z</time>
      </trkpt>
      <trkpt lat="49.81589" lon="4.78302">
        <ele>170</ele>
        <time>2021-03-30T10:52:59.000Z</time>
      </trkpt>
      <trkpt lat="49.8159" lon="4.78306">
        <ele>170</ele>
        <time>2021-03-30T10:53:00.000Z</time>
      </trkpt>
      <trkpt lat="49.81591" lon="4.78309">
        <ele>170</ele>
        <time>2021-03-30T10:53:01.000Z</time>
      </trkpt>
      <trkpt lat="49.81592" lon="4.78313">
        <ele>170</ele>
        <time>2021-03-30T10:53:02.000Z</time>
      </trkpt>
      <trkpt lat="49.81594" lon="4.78316">
        <ele>171</ele>
        <time>2021-03-30T10:53:03.000Z</time>
      </trkpt>
      <trkpt lat="49.81596" lon="4.78318">
        <ele>171</ele>
        <time>2021-03-30T10:53:04.000Z</time>
      </trkpt>
      <trkpt lat="49.81598" lon="4.78318">
        <ele>171</ele>
        <time>2021-03-30T10:53:05.000Z</time>
      </trkpt>
      <trkpt lat="49.816" lon="4.78316">
        <ele>171</ele>
        <time>2021-03-30T10:53:06.000Z</time>
      </trkpt>
      <trkpt lat="49.81602" lon="4.78314">
        <ele>171</ele>
        <time>2021-03-30T10:53:07.000Z</time>
      </trkpt>
      <trkpt lat="49.81604" lon="4.78312">
        <ele>171</ele>
        <time>2021-03-30T10:53:08.000Z</time>
      </trkpt>
      <trkpt lat="49.81606" lon="4.78312">
        <ele>171</ele>
        <time>2021-03-30T10:53:09.000Z</time>
      </trkpt>
      <trkpt lat="49.81608" lon="4.78312">
        <ele>171</ele>
        <time>2021-03-30T10:53:10.000Z</time>
      </trkpt>
      <trkpt lat="49.8161" lon="4.78314">
        <ele>171</ele>
        <time>2021-03-30T10:53:11.000Z</time>
      </trkpt>
      <trkpt lat="49.81611" lon="4.78317">
        <ele>171</ele>
        <time>2021-03-30T10:53:12.000Z</time>
      </trkpt>
      <trkpt lat="49.81613" lon="4.78319">
        <ele>172</ele>
        <time>2021-03-30T10:53:13.000Z</time>
      </trkpt>
      <trkpt lat="49.81614" lon="4.78321">
        <ele>172</ele>
        <time>2021-03-30T10:53:14.000Z</time>
      </trkpt>
      <trkpt lat="49.81616" lon="4.78324">
        <ele>172</ele>
        <time>2021-03-30T10:53:15.000Z</time>
      </trkpt>
      <trkpt lat="49.81617" lon="4.78327">
        <ele>173</ele>
        <time>2021-03-30T10:53:16.000Z</time>
      </trkpt>
      <trkpt lat="49.81619" lon="4.78329">
        <ele>173</ele>
        <time>2021-03-30T10:53:17.000Z</time>
      </trkpt>
      <trkpt lat="49.8162" lon="4.78331">
        <ele>174</ele>
        <time>2021-03-30T10:53:18.000Z</time>
      </trkpt>
      <trkpt lat="49.8162" lon="4.78331">
        <ele>174</ele>
        <time>2021-03-30T10:53:19.000Z</time>
      </trkpt>
      <trkpt lat="49.81621" lon="4.78331">
        <ele>175</ele>
        <time>2021-03-30T10:53:20.000Z</time>
      </trkpt>
      <trkpt lat="49.81623" lon="4.78331">
        <ele>175</ele>
        <time>2021-03-30T10:53:21.000Z</time>
      </trkpt>
      <trkpt lat="49.81624" lon="4.7833">
        <ele>175</ele>
        <time>2021-03-30T10:53:22.000Z</time>
      </trkpt>
      <trkpt lat="49.81625" lon="4.78328">
        <ele>176</ele>
        <time>2021-03-30T10:53:23.000Z</time>
      </trkpt>
      <trkpt lat="49.81626" lon="4.78327">
        <ele>176</ele>
        <time>2021-03-30T10:53:24.000Z</time>
      </trkpt>
      <trkpt lat="49.81626" lon="4.78324">
        <ele>176</ele>
        <time>2021-03-30T10:53:25.000Z</time>
      </trkpt>
      <trkpt lat="49.81627" lon="4.78322">
        <ele>177</ele>
        <time>2021-03-30T10:53:26.000Z</time>
      </trkpt>
      <trkpt lat="49.81627" lon="4.78319">
        <ele>177</ele>
        <time>2021-03-30T10:53:27.000Z</time>
      </trkpt>
      <trkpt lat="49.81627" lon="4.78317">
        <ele>177</ele>
        <time>2021-03-30T10:53:28.000Z</time>
      </trkpt>
      <trkpt lat="49.81626" lon="4.78314">
        <ele>177</ele>
        <time>2021-03-30T10:53:29.000Z</time>
      </trkpt>
      <trkpt lat="49.81625" lon="4.7831">
        <ele>178</ele>
        <time>2021-03-30T10:53:30.000Z</time>
      </trkpt>
      <trkpt lat="49.81624" lon="4.78307">
        <ele>178</ele>
        <time>2021-03-30T10:53:31.000Z</time>
      </trkpt>
      <trkpt lat="49.81624" lon="4.78304">
        <ele>178</ele>
        <time>2021-03-30T10:53:32.000Z</time>
      </trkpt>
      <trkpt lat="49.81623" lon="4.78303">
        <ele>178</ele>
        <time>2021-03-30T10:53:33.000Z</time>
      </trkpt>
      <trkpt lat="49.81622" lon="4.78303">
        <ele>179</ele>
        <time>2021-03-30T10:53:34.000Z</time>
      </trkpt>
      <trkpt lat="49.8162" lon="4.78305">
        <ele>179</ele>
        <time>2021-03-30T10:53:35.000Z</time>
      </trkpt>
      <trkpt lat="49.81617" lon="4.78307">
        <ele>179</ele>
        <time>2021-03-30T10:53:36.000Z</time>
      </trkpt>
      <trkpt lat="49.81613" lon="4.78311">
        <ele>179</ele>
        <time>2021-03-30T10:53:37.000Z</time>
      </trkpt>
      <trkpt lat="49.81608" lon="4.78316">
        <ele>179</ele>
        <time>2021-03-30T10:53:38.000Z</time>
      </trkpt>
      <trkpt lat="49.81603" lon="4.78321">
        <ele>179</ele>
        <time>2021-03-30T10:53:39.000Z</time>
      </trkpt>
      <trkpt lat="49.81601" lon="4.78326">
        <ele>179</ele>
        <time>2021-03-30T10:53:40.000Z</time>
      </trkpt>
      <trkpt lat="49.816" lon="4.78332">
        <ele>179</ele>
        <time>2021-03-30T10:53:41.000Z</time>
      </trkpt>
      <trkpt lat="49.81601" lon="4.78337">
        <ele>179</ele>
        <time>2021-03-30T10:53:42.000Z</time>
      </trkpt>
      <trkpt lat="49.81603" lon="4.78343">
        <ele>179</ele>
        <time>2021-03-30T10:53:43.000Z</time>
      </trkpt>
      <trkpt lat="49.81606" lon="4.78349">
        <ele>179</ele>
        <time>2021-03-30T10:53:44.000Z</time>
      </trkpt>
      <trkpt lat="49.81609" lon="4.78355">
        <ele>179</ele>
        <time>2021-03-30T10:53:45.000Z</time>
      </trkpt>
      <trkpt lat="49.81612" lon="4.78362">
        <ele>178</ele>
        <time>2021-03-30T10:53:46.000Z</time>
      </trkpt>
      <trkpt lat="49.81615" lon="4.78368">
        <ele>178</ele>
        <time>2021-03-30T10:53:47.000Z</time>
      </trkpt>
      <trkpt lat="49.81619" lon="4.78375">
        <ele>178</ele>
        <time>2021-03-30T10:53:48.000Z</time>
      </trkpt>
      <trkpt lat="49.81622" lon="4.78381">
        <ele>178</ele>
        <time>2021-03-30T10:53:49.000Z</time>
      </trkpt>
      <trkpt lat="49.81625" lon="4.78387">
        <ele>178</ele>
        <time>2021-03-30T10:53:50.000Z</time>
      </trkpt>
      <trkpt lat="49.81628" lon="4.78393">
        <ele>177</ele>
        <time>2021-03-30T10:53:51.000Z</time>
      </trkpt>
      <trkpt lat="49.81631" lon="4.78399">
        <ele>177</ele>
        <time>2021-03-30T10:53:52.000Z</time>
      </trkpt>
      <trkpt lat="49.81634" lon="4.78405">
        <ele>177</ele>
        <time>2021-03-30T10:53:53.000Z</time>
      </trkpt>
      <trkpt lat="49.81637" lon="4.7841">
        <ele>177</ele>
        <time>2021-03-30T10:53:54.000Z</time>
      </trkpt>
      <trkpt lat="49.8164" lon="4.78416">
        <ele>177</ele>
        <time>2021-03-30T10:53:55.000Z</time>
      </trkpt>
      <trkpt lat="49.81644" lon="4.78421">
        <ele>177</ele>
        <time>2021-03-30T10:53:56.000Z</time>
      </trkpt>
      <trkpt lat="49.81647" lon="4.78426">
        <ele>176</ele>
        <time>2021-03-30T10:53:57.000Z</time>
      </trkpt>
      <trkpt lat="49.81651" lon="4.78431">
        <ele>176</ele>
        <time>2021-03-30T10:53:58.000Z</time>
      </trkpt>
      <trkpt lat="49.81655" lon="4.78435">
        <ele>176</ele>
        <time>2021-03-30T10:53:59.000Z</time>
      </trkpt>
      <trkpt lat="49.81659" lon="4.78438">
        <ele>176</ele>
        <time>2021-03-30T10:54:00.000Z</time>
      </trkpt>
      <trkpt lat="49.81663" lon="4.78442">
        <ele>176</ele>
        <time>2021-03-30T10:54:01.000Z</time>
      </trkpt>
      <trkpt lat="49.81667" lon="4.78446">
        <ele>176</ele>
        <time>2021-03-30T10:54:02.000Z</time>
      </trkpt>
      <trkpt lat="49.81671" lon="4.7845">
        <ele>175</ele>
        <time>2021-03-30T10:54:03.000Z</time>
      </trkpt>
      <trkpt lat="49.81676" lon="4.78454">
        <ele>175</ele>
        <time>2021-03-30T10:54:04.000Z</time>
      </trkpt>
      <trkpt lat="49.8168" lon="4.78458">
        <ele>175</ele>
        <time>2021-03-30T10:54:05.000Z</time>
      </trkpt>
      <trkpt lat="49.81684" lon="4.78463">
        <ele>175</ele>
        <time>2021-03-30T10:54:06.000Z</time>
      </trkpt>
      <trkpt lat="49.81688" lon="4.78467">
        <ele>175</ele>
        <time>2021-03-30T10:54:07.000Z</time>
      </trkpt>
      <trkpt lat="49.81692" lon="4.78471">
        <ele>174</ele>
        <time>2021-03-30T10:54:08.000Z</time>
      </trkpt>
      <trkpt lat="49.81696" lon="4.78476">
        <ele>174</ele>
        <time>2021-03-30T10:54:09.000Z</time>
      </trkpt>
      <trkpt lat="49.817" lon="4.7848">
        <ele>174</ele>
        <time>2021-03-30T10:54:10.000Z</time>
      </trkpt>
      <trkpt lat="49.81704" lon="4.78484">
        <ele>174</ele>
        <time>2021-03-30T10:54:11.000Z</time>
      </trkpt>
      <trkpt lat="49.81707" lon="4.78488">
        <ele>174</ele>
        <time>2021-03-30T10:54:12.000Z</time>
      </trkpt>
      <trkpt lat="49.81711" lon="4.78493">
        <ele>174</ele>
        <time>2021-03-30T10:54:13.000Z</time>
      </trkpt>
      <trkpt lat="49.81715" lon="4.78497">
        <ele>174</ele>
        <time>2021-03-30T10:54:14.000Z</time>
      </trkpt>
      <trkpt lat="49.81719" lon="4.78501">
        <ele>173</ele>
        <time>2021-03-30T10:54:15.000Z</time>
      </trkpt>
      <trkpt lat="49.81723" lon="4.78504">
        <ele>173</ele>
        <time>2021-03-30T10:54:16.000Z</time>
      </trkpt>
      <trkpt lat="49.81727" lon="4.78507">
        <ele>173</ele>
        <time>2021-03-30T10:54:17.000Z</time>
      </trkpt>
      <trkpt lat="49.81731" lon="4.78509">
        <ele>173</ele>
        <time>2021-03-30T10:54:18.000Z</time>
      </trkpt>
      <trkpt lat="49.81735" lon="4.78512">
        <ele>173</ele>
        <time>2021-03-30T10:54:19.000Z</time>
      </trkpt>
      <trkpt lat="49.81739" lon="4.78514">
        <ele>173</ele>
        <time>2021-03-30T10:54:20.000Z</time>
      </trkpt>
      <trkpt lat="49.81743" lon="4.78517">
        <ele>173</ele>
        <time>2021-03-30T10:54:21.000Z</time>
      </trkpt>
      <trkpt lat="49.81746" lon="4.7852">
        <ele>173</ele>
        <time>2021-03-30T10:54:22.000Z</time>
      </trkpt>
      <trkpt lat="49.8175" lon="4.78522">
        <ele>173</ele>
        <time>2021-03-30T10:54:23.000Z</time>
      </trkpt>
      <trkpt lat="49.81753" lon="4.78524">
        <ele>173</ele>
        <time>2021-03-30T10:54:24.000Z</time>
      </trkpt>
      <trkpt lat="49.81757" lon="4.78525">
        <ele>173</ele>
        <time>2021-03-30T10:54:25.000Z</time>
      </trkpt>
      <trkpt lat="49.8176" lon="4.78527">
        <ele>173</ele>
        <time>2021-03-30T10:54:26.000Z</time>
      </trkpt>
      <trkpt lat="49.81764" lon="4.78529">
        <ele>173</ele>
        <time>2021-03-30T10:54:27.000Z</time>
      </trkpt>
      <trkpt lat="49.81767" lon="4.78531">
        <ele>174</ele>
        <time>2021-03-30T10:54:28.000Z</time>
      </trkpt>
      <trkpt lat="49.81771" lon="4.78533">
        <ele>174</ele>
        <time>2021-03-30T10:54:29.000Z</time>
      </trkpt>
      <trkpt lat="49.81774" lon="4.78535">
        <ele>174</ele>
        <time>2021-03-30T10:54:30.000Z</time>
      </trkpt>
      <trkpt lat="49.81777" lon="4.78538">
        <ele>174</ele>
        <time>2021-03-30T10:54:31.000Z</time>
      </trkpt>
      <trkpt lat="49.81781" lon="4.7854">
        <ele>174</ele>
        <time>2021-03-30T10:54:32.000Z</time>
      </trkpt>
      <trkpt lat="49.81784" lon="4.78543">
        <ele>175</ele>
        <time>2021-03-30T10:54:33.000Z</time>
      </trkpt>
      <trkpt lat="49.81788" lon="4.78546">
        <ele>175</ele>
        <time>2021-03-30T10:54:34.000Z</time>
      </trkpt>
      <trkpt lat="49.81791" lon="4.78548">
        <ele>175</ele>
        <time>2021-03-30T10:54:35.000Z</time>
      </trkpt>
      <trkpt lat="49.81795" lon="4.78551">
        <ele>175</ele>
        <time>2021-03-30T10:54:36.000Z</time>
      </trkpt>
      <trkpt lat="49.81799" lon="4.78555">
        <ele>175</ele>
        <time>2021-03-30T10:54:37.000Z</time>
      </trkpt>
      <trkpt lat="49.81803" lon="4.78558">
        <ele>176</ele>
        <time>2021-03-30T10:54:38.000Z</time>
      </trkpt>
      <trkpt lat="49.81807" lon="4.78561">
        <ele>176</ele>
        <time>2021-03-30T10:54:39.000Z</time>
      </trkpt>
      <trkpt lat="49.81811" lon="4.78564">
        <ele>176</ele>
        <time>2021-03-30T10:54:40.000Z</time>
      </trkpt>
      <trkpt lat="49.81815" lon="4.78568">
        <ele>176</ele>
        <time>2021-03-30T10:54:41.000Z</time>
      </trkpt>
      <trkpt lat="49.81819" lon="4.78571">
        <ele>176</ele>
        <time>2021-03-30T10:54:42.000Z</time>
      </trkpt>
      <trkpt lat="49.81822" lon="4.78574">
        <ele>176</ele>
        <time>2021-03-30T10:54:43.000Z</time>
      </trkpt>
      <trkpt lat="49.81826" lon="4.78578">
        <ele>176</ele>
        <time>2021-03-30T10:54:44.000Z</time>
      </trkpt>
      <trkpt lat="49.8183" lon="4.78581">
        <ele>176</ele>
        <time>2021-03-30T10:54:45.000Z</time>
      </trkpt>
      <trkpt lat="49.81833" lon="4.78585">
        <ele>176</ele>
        <time>2021-03-30T10:54:46.000Z</time>
      </trkpt>
      <trkpt lat="49.81836" lon="4.78588">
        <ele>176</ele>
        <time>2021-03-30T10:54:47.000Z</time>
      </trkpt>
      <trkpt lat="49.8184" lon="4.78592">
        <ele>176</ele>
        <time>2021-03-30T10:54:48.000Z</time>
      </trkpt>
      <trkpt lat="49.81844" lon="4.78596">
        <ele>176</ele>
        <time>2021-03-30T10:54:49.000Z</time>
      </trkpt>
      <trkpt lat="49.81847" lon="4.786">
        <ele>176</ele>
        <time>2021-03-30T10:54:50.000Z</time>
      </trkpt>
      <trkpt lat="49.81851" lon="4.78604">
        <ele>177</ele>
        <time>2021-03-30T10:54:51.000Z</time>
      </trkpt>
      <trkpt lat="49.81855" lon="4.78607">
        <ele>177</ele>
        <time>2021-03-30T10:54:52.000Z</time>
      </trkpt>
      <trkpt lat="49.81858" lon="4.78611">
        <ele>177</ele>
        <time>2021-03-30T10:54:53.000Z</time>
      </trkpt>
      <trkpt lat="49.81862" lon="4.78615">
        <ele>177</ele>
        <time>2021-03-30T10:54:54.000Z</time>
      </trkpt>
      <trkpt lat="49.81866" lon="4.78619">
        <ele>177</ele>
        <time>2021-03-30T10:54:55.000Z</time>
      </trkpt>
      <trkpt lat="49.8187" lon="4.78623">
        <ele>177</ele>
        <time>2021-03-30T10:54:56.000Z</time>
      </trkpt>
      <trkpt lat="49.81874" lon="4.78627">
        <ele>177</ele>
        <time>2021-03-30T10:54:57.000Z</time>
      </trkpt>
      <trkpt lat="49.81877" lon="4.78631">
        <ele>178</ele>
        <time>2021-03-30T10:54:58.000Z</time>
      </trkpt>
      <trkpt lat="49.81881" lon="4.78635">
        <ele>178</ele>
        <time>2021-03-30T10:54:59.000Z</time>
      </trkpt>
      <trkpt lat="49.81885" lon="4.78639">
        <ele>178</ele>
        <time>2021-03-30T10:55:00.000Z</time>
      </trkpt>
      <trkpt lat="49.81889" lon="4.78643">
        <ele>178</ele>
        <time>2021-03-30T10:55:01.000Z</time>
      </trkpt>
      <trkpt lat="49.81893" lon="4.78648">
        <ele>178</ele>
        <time>2021-03-30T10:55:02.000Z</time>
      </trkpt>
      <trkpt lat="49.81897" lon="4.78652">
        <ele>178</ele>
        <time>2021-03-30T10:55:03.000Z</time>
      </trkpt>
      <trkpt lat="49.81901" lon="4.78656">
        <ele>178</ele>
        <time>2021-03-30T10:55:04.000Z</time>
      </trkpt>
      <trkpt lat="49.81904" lon="4.7866">
        <ele>179</ele>
        <time>2021-03-30T10:55:05.000Z</time>
      </trkpt>
      <trkpt lat="49.81908" lon="4.78664">
        <ele>179</ele>
        <time>2021-03-30T10:55:06.000Z</time>
      </trkpt>
      <trkpt lat="49.81912" lon="4.78668">
        <ele>179</ele>
        <time>2021-03-30T10:55:07.000Z</time>
      </trkpt>
      <trkpt lat="49.81916" lon="4.78672">
        <ele>179</ele>
        <time>2021-03-30T10:55:08.000Z</time>
      </trkpt>
      <trkpt lat="49.81919" lon="4.78675">
        <ele>179</ele>
        <time>2021-03-30T10:55:09.000Z</time>
      </trkpt>
      <trkpt lat="49.81923" lon="4.78679">
        <ele>179</ele>
        <time>2021-03-30T10:55:10.000Z</time>
      </trkpt>
      <trkpt lat="49.81926" lon="4.78683">
        <ele>180</ele>
        <time>2021-03-30T10:55:11.000Z</time>
      </trkpt>
      <trkpt lat="49.8193" lon="4.78687">
        <ele>180</ele>
        <time>2021-03-30T10:55:12.000Z</time>
      </trkpt>
      <trkpt lat="49.81934" lon="4.78691">
        <ele>180</ele>
        <time>2021-03-30T10:55:13.000Z</time>
      </trkpt>
      <trkpt lat="49.81938" lon="4.78694">
        <ele>181</ele>
        <time>2021-03-30T10:55:14.000Z</time>
      </trkpt>
      <trkpt lat="49.81942" lon="4.78698">
        <ele>181</ele>
        <time>2021-03-30T10:55:15.000Z</time>
      </trkpt>
      <trkpt lat="49.81946" lon="4.78702">
        <ele>181</ele>
        <time>2021-03-30T10:55:16.000Z</time>
      </trkpt>
      <trkpt lat="49.8195" lon="4.78705">
        <ele>181</ele>
        <time>2021-03-30T10:55:17.000Z</time>
      </trkpt>
      <trkpt lat="49.81954" lon="4.78708">
        <ele>182</ele>
        <time>2021-03-30T10:55:18.000Z</time>
      </trkpt>
      <trkpt lat="49.81957" lon="4.78712">
        <ele>182</ele>
        <time>2021-03-30T10:55:19.000Z</time>
      </trkpt>
      <trkpt lat="49.81961" lon="4.78716">
        <ele>182</ele>
        <time>2021-03-30T10:55:20.000Z</time>
      </trkpt>
      <trkpt lat="49.81965" lon="4.7872">
        <ele>182</ele>
        <time>2021-03-30T10:55:21.000Z</time>
      </trkpt>
      <trkpt lat="49.81969" lon="4.78724">
        <ele>183</ele>
        <time>2021-03-30T10:55:22.000Z</time>
      </trkpt>
      <trkpt lat="49.81973" lon="4.78728">
        <ele>183</ele>
        <time>2021-03-30T10:55:23.000Z</time>
      </trkpt>
      <trkpt lat="49.81977" lon="4.78732">
        <ele>183</ele>
        <time>2021-03-30T10:55:24.000Z</time>
      </trkpt>
      <trkpt lat="49.81981" lon="4.78735">
        <ele>183</ele>
        <time>2021-03-30T10:55:25.000Z</time>
      </trkpt>
      <trkpt lat="49.81986" lon="4.78738">
        <ele>183</ele>
        <time>2021-03-30T10:55:26.000Z</time>
      </trkpt>
      <trkpt lat="49.8199" lon="4.78742">
        <ele>184</ele>
        <time>2021-03-30T10:55:27.000Z</time>
      </trkpt>
      <trkpt lat="49.81994" lon="4.78745">
        <ele>184</ele>
        <time>2021-03-30T10:55:28.000Z</time>
      </trkpt>
      <trkpt lat="49.81998" lon="4.78748">
        <ele>184</ele>
        <time>2021-03-30T10:55:29.000Z</time>
      </trkpt>
      <trkpt lat="49.82002" lon="4.78751">
        <ele>184</ele>
        <time>2021-03-30T10:55:30.000Z</time>
      </trkpt>
      <trkpt lat="49.82006" lon="4.78755">
        <ele>185</ele>
        <time>2021-03-30T10:55:31.000Z</time>
      </trkpt>
      <trkpt lat="49.8201" lon="4.78758">
        <ele>185</ele>
        <time>2021-03-30T10:55:32.000Z</time>
      </trkpt>
      <trkpt lat="49.82014" lon="4.78762">
        <ele>185</ele>
        <time>2021-03-30T10:55:33.000Z</time>
      </trkpt>
      <trkpt lat="49.82018" lon="4.78765">
        <ele>186</ele>
        <time>2021-03-30T10:55:34.000Z</time>
      </trkpt>
      <trkpt lat="49.82022" lon="4.78768">
        <ele>186</ele>
        <time>2021-03-30T10:55:35.000Z</time>
      </trkpt>
      <trkpt lat="49.82026" lon="4.7877">
        <ele>186</ele>
        <time>2021-03-30T10:55:36.000Z</time>
      </trkpt>
      <trkpt lat="49.8203" lon="4.78773">
        <ele>186</ele>
        <time>2021-03-30T10:55:37.000Z</time>
      </trkpt>
      <trkpt lat="49.82034" lon="4.78776">
        <ele>187</ele>
        <time>2021-03-30T10:55:38.000Z</time>
      </trkpt>
      <trkpt lat="49.82038" lon="4.78779">
        <ele>187</ele>
        <time>2021-03-30T10:55:39.000Z</time>
      </trkpt>
      <trkpt lat="49.82041" lon="4.78782">
        <ele>187</ele>
        <time>2021-03-30T10:55:40.000Z</time>
      </trkpt>
      <trkpt lat="49.82045" lon="4.78786">
        <ele>187</ele>
        <time>2021-03-30T10:55:41.000Z</time>
      </trkpt>
      <trkpt lat="49.82049" lon="4.78789">
        <ele>188</ele>
        <time>2021-03-30T10:55:42.000Z</time>
      </trkpt>
      <trkpt lat="49.82053" lon="4.78792">
        <ele>188</ele>
        <time>2021-03-30T10:55:43.000Z</time>
      </trkpt>
      <trkpt lat="49.82056" lon="4.78796">
        <ele>188</ele>
        <time>2021-03-30T10:55:44.000Z</time>
      </trkpt>
      <trkpt lat="49.8206" lon="4.78799">
        <ele>188</ele>
        <time>2021-03-30T10:55:45.000Z</time>
      </trkpt>
      <trkpt lat="49.82064" lon="4.78803">
        <ele>188</ele>
        <time>2021-03-30T10:55:46.000Z</time>
      </trkpt>
      <trkpt lat="49.82067" lon="4.78807">
        <ele>188</ele>
        <time>2021-03-30T10:55:47.000Z</time>
      </trkpt>
      <trkpt lat="49.82071" lon="4.78811">
        <ele>188</ele>
        <time>2021-03-30T10:55:48.000Z</time>
      </trkpt>
      <trkpt lat="49.82075" lon="4.78815">
        <ele>188</ele>
        <time>2021-03-30T10:55:49.000Z</time>
      </trkpt>
      <trkpt lat="49.82078" lon="4.7882">
        <ele>189</ele>
        <time>2021-03-30T10:55:50.000Z</time>
      </trkpt>
      <trkpt lat="49.8208" lon="4.78824">
        <ele>189</ele>
        <time>2021-03-30T10:55:51.000Z</time>
      </trkpt>
      <trkpt lat="49.82083" lon="4.78828">
        <ele>189</ele>
        <time>2021-03-30T10:55:52.000Z</time>
      </trkpt>
      <trkpt lat="49.82086" lon="4.78834">
        <ele>189</ele>
        <time>2021-03-30T10:55:53.000Z</time>
      </trkpt>
      <trkpt lat="49.82089" lon="4.7884">
        <ele>189</ele>
        <time>2021-03-30T10:55:54.000Z</time>
      </trkpt>
      <trkpt lat="49.82092" lon="4.78846">
        <ele>189</ele>
        <time>2021-03-30T10:55:55.000Z</time>
      </trkpt>
      <trkpt lat="49.82094" lon="4.78851">
        <ele>190</ele>
        <time>2021-03-30T10:55:56.000Z</time>
      </trkpt>
      <trkpt lat="49.82097" lon="4.78857">
        <ele>190</ele>
        <time>2021-03-30T10:55:57.000Z</time>
      </trkpt>
      <trkpt lat="49.82099" lon="4.78863">
        <ele>190</ele>
        <time>2021-03-30T10:55:58.000Z</time>
      </trkpt>
      <trkpt lat="49.82101" lon="4.78869">
        <ele>190</ele>
        <time>2021-03-30T10:55:59.000Z</time>
      </trkpt>
      <trkpt lat="49.82103" lon="4.78875">
        <ele>190</ele>
        <time>2021-03-30T10:56:00.000Z</time>
      </trkpt>
      <trkpt lat="49.82106" lon="4.7888">
        <ele>190</ele>
        <time>2021-03-30T10:56:01.000Z</time>
      </trkpt>
      <trkpt lat="49.82108" lon="4.78886">
        <ele>191</ele>
        <time>2021-03-30T10:56:02.000Z</time>
      </trkpt>
      <trkpt lat="49.8211" lon="4.78892">
        <ele>191</ele>
        <time>2021-03-30T10:56:03.000Z</time>
      </trkpt>
      <trkpt lat="49.82112" lon="4.78897">
        <ele>191</ele>
        <time>2021-03-30T10:56:04.000Z</time>
      </trkpt>
      <trkpt lat="49.82115" lon="4.78902">
        <ele>191</ele>
        <time>2021-03-30T10:56:05.000Z</time>
      </trkpt>
      <trkpt lat="49.82117" lon="4.78907">
        <ele>191</ele>
        <time>2021-03-30T10:56:06.000Z</time>
      </trkpt>
      <trkpt lat="49.8212" lon="4.78913">
        <ele>192</ele>
        <time>2021-03-30T10:56:07.000Z</time>
      </trkpt>
      <trkpt lat="49.82122" lon="4.78918">
        <ele>192</ele>
        <time>2021-03-30T10:56:08.000Z</time>
      </trkpt>
      <trkpt lat="49.82125" lon="4.78923">
        <ele>192</ele>
        <time>2021-03-30T10:56:09.000Z</time>
      </trkpt>
      <trkpt lat="49.82127" lon="4.78928">
        <ele>192</ele>
        <time>2021-03-30T10:56:10.000Z</time>
      </trkpt>
      <trkpt lat="49.82129" lon="4.78933">
        <ele>192</ele>
        <time>2021-03-30T10:56:11.000Z</time>
      </trkpt>
      <trkpt lat="49.82132" lon="4.78938">
        <ele>193</ele>
        <time>2021-03-30T10:56:12.000Z</time>
      </trkpt>
      <trkpt lat="49.82135" lon="4.78942">
        <ele>193</ele>
        <time>2021-03-30T10:56:13.000Z</time>
      </trkpt>
      <trkpt lat="49.82138" lon="4.78947">
        <ele>193</ele>
        <time>2021-03-30T10:56:14.000Z</time>
      </trkpt>
      <trkpt lat="49.82141" lon="4.78952">
        <ele>193</ele>
        <time>2021-03-30T10:56:15.000Z</time>
      </trkpt>
      <trkpt lat="49.82144" lon="4.78957">
        <ele>193</ele>
        <time>2021-03-30T10:56:16.000Z</time>
      </trkpt>
      <trkpt lat="49.82147" lon="4.78962">
        <ele>192</ele>
        <time>2021-03-30T10:56:17.000Z</time>
      </trkpt>
      <trkpt lat="49.8215" lon="4.78967">
        <ele>192</ele>
        <time>2021-03-30T10:56:18.000Z</time>
      </trkpt>
      <trkpt lat="49.82154" lon="4.78972">
        <ele>192</ele>
        <time>2021-03-30T10:56:19.000Z</time>
      </trkpt>
      <trkpt lat="49.82156" lon="4.78977">
        <ele>192</ele>
        <time>2021-03-30T10:56:20.000Z</time>
      </trkpt>
      <trkpt lat="49.82159" lon="4.78982">
        <ele>192</ele>
        <time>2021-03-30T10:56:21.000Z</time>
      </trkpt>
      <trkpt lat="49.82163" lon="4.78986">
        <ele>192</ele>
        <time>2021-03-30T10:56:22.000Z</time>
      </trkpt>
      <trkpt lat="49.82166" lon="4.7899">
        <ele>192</ele>
        <time>2021-03-30T10:56:23.000Z</time>
      </trkpt>
      <trkpt lat="49.8217" lon="4.78994">
        <ele>192</ele>
        <time>2021-03-30T10:56:24.000Z</time>
      </trkpt>
      <trkpt lat="49.82173" lon="4.78998">
        <ele>192</ele>
        <time>2021-03-30T10:56:25.000Z</time>
      </trkpt>
      <trkpt lat="49.82177" lon="4.79002">
        <ele>192</ele>
        <time>2021-03-30T10:56:26.000Z</time>
      </trkpt>
      <trkpt lat="49.82182" lon="4.79005">
        <ele>192</ele>
        <time>2021-03-30T10:56:27.000Z</time>
      </trkpt>
      <trkpt lat="49.82187" lon="4.79007">
        <ele>192</ele>
        <time>2021-03-30T10:56:28.000Z</time>
      </trkpt>
      <trkpt lat="49.82191" lon="4.79009">
        <ele>192</ele>
        <time>2021-03-30T10:56:29.000Z</time>
      </trkpt>
      <trkpt lat="49.82196" lon="4.7901">
        <ele>191</ele>
        <time>2021-03-30T10:56:30.000Z</time>
      </trkpt>
      <trkpt lat="49.82202" lon="4.79011">
        <ele>191</ele>
        <time>2021-03-30T10:56:31.000Z</time>
      </trkpt>
      <trkpt lat="49.82207" lon="4.79012">
        <ele>191</ele>
        <time>2021-03-30T10:56:32.000Z</time>
      </trkpt>
      <trkpt lat="49.82213" lon="4.79013">
        <ele>191</ele>
        <time>2021-03-30T10:56:33.000Z</time>
      </trkpt>
      <trkpt lat="49.82219" lon="4.79013">
        <ele>191</ele>
        <time>2021-03-30T10:56:34.000Z</time>
      </trkpt>
      <trkpt lat="49.82225" lon="4.79014">
        <ele>191</ele>
        <time>2021-03-30T10:56:35.000Z</time>
      </trkpt>
      <trkpt lat="49.82231" lon="4.79014">
        <ele>190</ele>
        <time>2021-03-30T10:56:36.000Z</time>
      </trkpt>
      <trkpt lat="49.82238" lon="4.79016">
        <ele>190</ele>
        <time>2021-03-30T10:56:37.000Z</time>
      </trkpt>
      <trkpt lat="49.82244" lon="4.79017">
        <ele>190</ele>
        <time>2021-03-30T10:56:38.000Z</time>
      </trkpt>
      <trkpt lat="49.8225" lon="4.79019">
        <ele>190</ele>
        <time>2021-03-30T10:56:39.000Z</time>
      </trkpt>
      <trkpt lat="49.82255" lon="4.79021">
        <ele>190</ele>
        <time>2021-03-30T10:56:40.000Z</time>
      </trkpt>
      <trkpt lat="49.82261" lon="4.79023">
        <ele>190</ele>
        <time>2021-03-30T10:56:41.000Z</time>
      </trkpt>
      <trkpt lat="49.82266" lon="4.79026">
        <ele>190</ele>
        <time>2021-03-30T10:56:42.000Z</time>
      </trkpt>
      <trkpt lat="49.82271" lon="4.79028">
        <ele>190</ele>
        <time>2021-03-30T10:56:43.000Z</time>
      </trkpt>
      <trkpt lat="49.82276" lon="4.7903">
        <ele>190</ele>
        <time>2021-03-30T10:56:44.000Z</time>
      </trkpt>
      <trkpt lat="49.82281" lon="4.79032">
        <ele>190</ele>
        <time>2021-03-30T10:56:45.000Z</time>
      </trkpt>
      <trkpt lat="49.82285" lon="4.79035">
        <ele>190</ele>
        <time>2021-03-30T10:56:46.000Z</time>
      </trkpt>
      <trkpt lat="49.82289" lon="4.79037">
        <ele>190</ele>
        <time>2021-03-30T10:56:47.000Z</time>
      </trkpt>
      <trkpt lat="49.82294" lon="4.79039">
        <ele>190</ele>
        <time>2021-03-30T10:56:48.000Z</time>
      </trkpt>
      <trkpt lat="49.82299" lon="4.79041">
        <ele>190</ele>
        <time>2021-03-30T10:56:49.000Z</time>
      </trkpt>
      <trkpt lat="49.82304" lon="4.79043">
        <ele>190</ele>
        <time>2021-03-30T10:56:50.000Z</time>
      </trkpt>
      <trkpt lat="49.8231" lon="4.79045">
        <ele>190</ele>
        <time>2021-03-30T10:56:51.000Z</time>
      </trkpt>
      <trkpt lat="49.82315" lon="4.79047">
        <ele>190</ele>
        <time>2021-03-30T10:56:52.000Z</time>
      </trkpt>
      <trkpt lat="49.82321" lon="4.79048">
        <ele>190</ele>
        <time>2021-03-30T10:56:53.000Z</time>
      </trkpt>
      <trkpt lat="49.82326" lon="4.79049">
        <ele>190</ele>
        <time>2021-03-30T10:56:54.000Z</time>
      </trkpt>
      <trkpt lat="49.82332" lon="4.7905">
        <ele>190</ele>
        <time>2021-03-30T10:56:55.000Z</time>
      </trkpt>
      <trkpt lat="49.82338" lon="4.79051">
        <ele>190</ele>
        <time>2021-03-30T10:56:56.000Z</time>
      </trkpt>
      <trkpt lat="49.82344" lon="4.79051">
        <ele>190</ele>
        <time>2021-03-30T10:56:57.000Z</time>
      </trkpt>
      <trkpt lat="49.8235" lon="4.79052">
        <ele>190</ele>
        <time>2021-03-30T10:56:58.000Z</time>
      </trkpt>
      <trkpt lat="49.82356" lon="4.79052">
        <ele>191</ele>
        <time>2021-03-30T10:56:59.000Z</time>
      </trkpt>
      <trkpt lat="49.8236" lon="4.79052">
        <ele>190</ele>
        <time>2021-03-30T10:57:00.000Z</time>
      </trkpt>
      <trkpt lat="49.82366" lon="4.79052">
        <ele>190</ele>
        <time>2021-03-30T10:57:01.000Z</time>
      </trkpt>
      <trkpt lat="49.82372" lon="4.79053">
        <ele>191</ele>
        <time>2021-03-30T10:57:02.000Z</time>
      </trkpt>
      <trkpt lat="49.82377" lon="4.79055">
        <ele>191</ele>
        <time>2021-03-30T10:57:03.000Z</time>
      </trkpt>
      <trkpt lat="49.82382" lon="4.79057">
        <ele>191</ele>
        <time>2021-03-30T10:57:04.000Z</time>
      </trkpt>
      <trkpt lat="49.82388" lon="4.79059">
        <ele>191</ele>
        <time>2021-03-30T10:57:05.000Z</time>
      </trkpt>
      <trkpt lat="49.82393" lon="4.79062">
        <ele>191</ele>
        <time>2021-03-30T10:57:06.000Z</time>
      </trkpt>
      <trkpt lat="49.82398" lon="4.79065">
        <ele>191</ele>
        <time>2021-03-30T10:57:07.000Z</time>
      </trkpt>
      <trkpt lat="49.82402" lon="4.79069">
        <ele>192</ele>
        <time>2021-03-30T10:57:08.000Z</time>
      </trkpt>
      <trkpt lat="49.82408" lon="4.79072">
        <ele>192</ele>
        <time>2021-03-30T10:57:09.000Z</time>
      </trkpt>
      <trkpt lat="49.82412" lon="4.79075">
        <ele>192</ele>
        <time>2021-03-30T10:57:10.000Z</time>
      </trkpt>
      <trkpt lat="49.82417" lon="4.79078">
        <ele>192</ele>
        <time>2021-03-30T10:57:11.000Z</time>
      </trkpt>
      <trkpt lat="49.82422" lon="4.79081">
        <ele>192</ele>
        <time>2021-03-30T10:57:12.000Z</time>
      </trkpt>
      <trkpt lat="49.82426" lon="4.79082">
        <ele>192</ele>
        <time>2021-03-30T10:57:13.000Z</time>
      </trkpt>
      <trkpt lat="49.82432" lon="4.79083">
        <ele>192</ele>
        <time>2021-03-30T10:57:14.000Z</time>
      </trkpt>
      <trkpt lat="49.82438" lon="4.79083">
        <ele>192</ele>
        <time>2021-03-30T10:57:15.000Z</time>
      </trkpt>
      <trkpt lat="49.82443" lon="4.79082">
        <ele>192</ele>
        <time>2021-03-30T10:57:16.000Z</time>
      </trkpt>
      <trkpt lat="49.82449" lon="4.7908">
        <ele>192</ele>
        <time>2021-03-30T10:57:17.000Z</time>
      </trkpt>
      <trkpt lat="49.82455" lon="4.79078">
        <ele>192</ele>
        <time>2021-03-30T10:57:18.000Z</time>
      </trkpt>
      <trkpt lat="49.82462" lon="4.79075">
        <ele>192</ele>
        <time>2021-03-30T10:57:19.000Z</time>
      </trkpt>
      <trkpt lat="49.82469" lon="4.79074">
        <ele>192</ele>
        <time>2021-03-30T10:57:20.000Z</time>
      </trkpt>
      <trkpt lat="49.82475" lon="4.79073">
        <ele>192</ele>
        <time>2021-03-30T10:57:21.000Z</time>
      </trkpt>
      <trkpt lat="49.82482" lon="4.79072">
        <ele>192</ele>
        <time>2021-03-30T10:57:22.000Z</time>
      </trkpt>
      <trkpt lat="49.82489" lon="4.79073">
        <ele>192</ele>
        <time>2021-03-30T10:57:23.000Z</time>
      </trkpt>
      <trkpt lat="49.82495" lon="4.79074">
        <ele>192</ele>
        <time>2021-03-30T10:57:24.000Z</time>
      </trkpt>
      <trkpt lat="49.82501" lon="4.79075">
        <ele>192</ele>
        <time>2021-03-30T10:57:25.000Z</time>
      </trkpt>
      <trkpt lat="49.82506" lon="4.79076">
        <ele>192</ele>
        <time>2021-03-30T10:57:26.000Z</time>
      </trkpt>
      <trkpt lat="49.82512" lon="4.79078">
        <ele>192</ele>
        <time>2021-03-30T10:57:27.000Z</time>
      </trkpt>
      <trkpt lat="49.82518" lon="4.79079">
        <ele>192</ele>
        <time>2021-03-30T10:57:28.000Z</time>
      </trkpt>
      <trkpt lat="49.82524" lon="4.7908">
        <ele>192</ele>
        <time>2021-03-30T10:57:29.000Z</time>
      </trkpt>
      <trkpt lat="49.8253" lon="4.7908">
        <ele>192</ele>
        <time>2021-03-30T10:57:30.000Z</time>
      </trkpt>
      <trkpt lat="49.82536" lon="4.79081">
        <ele>192</ele>
        <time>2021-03-30T10:57:31.000Z</time>
      </trkpt>
      <trkpt lat="49.82543" lon="4.79081">
        <ele>192</ele>
        <time>2021-03-30T10:57:32.000Z</time>
      </trkpt>
      <trkpt lat="49.82549" lon="4.79082">
        <ele>192</ele>
        <time>2021-03-30T10:57:33.000Z</time>
      </trkpt>
      <trkpt lat="49.82554" lon="4.79083">
        <ele>192</ele>
        <time>2021-03-30T10:57:34.000Z</time>
      </trkpt>
      <trkpt lat="49.8256" lon="4.79085">
        <ele>192</ele>
        <time>2021-03-30T10:57:35.000Z</time>
      </trkpt>
      <trkpt lat="49.82566" lon="4.79087">
        <ele>192</ele>
        <time>2021-03-30T10:57:36.000Z</time>
      </trkpt>
      <trkpt lat="49.82572" lon="4.79088">
        <ele>192</ele>
        <time>2021-03-30T10:57:37.000Z</time>
      </trkpt>
      <trkpt lat="49.82578" lon="4.79089">
        <ele>192</ele>
        <time>2021-03-30T10:57:38.000Z</time>
      </trkpt>
      <trkpt lat="49.82584" lon="4.7909">
        <ele>193</ele>
        <time>2021-03-30T10:57:39.000Z</time>
      </trkpt>
      <trkpt lat="49.8259" lon="4.79092">
        <ele>193</ele>
        <time>2021-03-30T10:57:40.000Z</time>
      </trkpt>
      <trkpt lat="49.82595" lon="4.79095">
        <ele>193</ele>
        <time>2021-03-30T10:57:41.000Z</time>
      </trkpt>
      <trkpt lat="49.82601" lon="4.79097">
        <ele>193</ele>
        <time>2021-03-30T10:57:42.000Z</time>
      </trkpt>
      <trkpt lat="49.82606" lon="4.79098">
        <ele>193</ele>
        <time>2021-03-30T10:57:43.000Z</time>
      </trkpt>
      <trkpt lat="49.82611" lon="4.79101">
        <ele>193</ele>
        <time>2021-03-30T10:57:44.000Z</time>
      </trkpt>
      <trkpt lat="49.82617" lon="4.79103">
        <ele>193</ele>
        <time>2021-03-30T10:57:45.000Z</time>
      </trkpt>
      <trkpt lat="49.82622" lon="4.79106">
        <ele>193</ele>
        <time>2021-03-30T10:57:46.000Z</time>
      </trkpt>
      <trkpt lat="49.82627" lon="4.79109">
        <ele>193</ele>
        <time>2021-03-30T10:57:47.000Z</time>
      </trkpt>
      <trkpt lat="49.82632" lon="4.79111">
        <ele>193</ele>
        <time>2021-03-30T10:57:48.000Z</time>
      </trkpt>
      <trkpt lat="49.82637" lon="4.79113">
        <ele>194</ele>
        <time>2021-03-30T10:57:49.000Z</time>
      </trkpt>
      <trkpt lat="49.82642" lon="4.79114">
        <ele>194</ele>
        <time>2021-03-30T10:57:50.000Z</time>
      </trkpt>
      <trkpt lat="49.82647" lon="4.79116">
        <ele>194</ele>
        <time>2021-03-30T10:57:51.000Z</time>
      </trkpt>
      <trkpt lat="49.82652" lon="4.79117">
        <ele>194</ele>
        <time>2021-03-30T10:57:52.000Z</time>
      </trkpt>
      <trkpt lat="49.82657" lon="4.79117">
        <ele>194</ele>
        <time>2021-03-30T10:57:53.000Z</time>
      </trkpt>
      <trkpt lat="49.82662" lon="4.79117">
        <ele>195</ele>
        <time>2021-03-30T10:57:54.000Z</time>
      </trkpt>
      <trkpt lat="49.82666" lon="4.79117">
        <ele>195</ele>
        <time>2021-03-30T10:57:55.000Z</time>
      </trkpt>
      <trkpt lat="49.82671" lon="4.79117">
        <ele>195</ele>
        <time>2021-03-30T10:57:56.000Z</time>
      </trkpt>
      <trkpt lat="49.82675" lon="4.79118">
        <ele>196</ele>
        <time>2021-03-30T10:57:57.000Z</time>
      </trkpt>
      <trkpt lat="49.8268" lon="4.79118">
        <ele>196</ele>
        <time>2021-03-30T10:57:58.000Z</time>
      </trkpt>
      <trkpt lat="49.82684" lon="4.7912">
        <ele>196</ele>
        <time>2021-03-30T10:57:59.000Z</time>
      </trkpt>
      <trkpt lat="49.82689" lon="4.79122">
        <ele>196</ele>
        <time>2021-03-30T10:58:00.000Z</time>
      </trkpt>
      <trkpt lat="49.82694" lon="4.79125">
        <ele>196</ele>
        <time>2021-03-30T10:58:01.000Z</time>
      </trkpt>
      <trkpt lat="49.82698" lon="4.79128">
        <ele>196</ele>
        <time>2021-03-30T10:58:02.000Z</time>
      </trkpt>
      <trkpt lat="49.82703" lon="4.79131">
        <ele>196</ele>
        <time>2021-03-30T10:58:03.000Z</time>
      </trkpt>
      <trkpt lat="49.82708" lon="4.79135">
        <ele>196</ele>
        <time>2021-03-30T10:58:04.000Z</time>
      </trkpt>
      <trkpt lat="49.82713" lon="4.79138">
        <ele>196</ele>
        <time>2021-03-30T10:58:05.000Z</time>
      </trkpt>
      <trkpt lat="49.82718" lon="4.79142">
        <ele>196</ele>
        <time>2021-03-30T10:58:06.000Z</time>
      </trkpt>
      <trkpt lat="49.82724" lon="4.79145">
        <ele>196</ele>
        <time>2021-03-30T10:58:07.000Z</time>
      </trkpt>
      <trkpt lat="49.82729" lon="4.79148">
        <ele>195</ele>
        <time>2021-03-30T10:58:08.000Z</time>
      </trkpt>
      <trkpt lat="49.82734" lon="4.79152">
        <ele>195</ele>
        <time>2021-03-30T10:58:09.000Z</time>
      </trkpt>
      <trkpt lat="49.82739" lon="4.79155">
        <ele>195</ele>
        <time>2021-03-30T10:58:10.000Z</time>
      </trkpt>
      <trkpt lat="49.82744" lon="4.79159">
        <ele>195</ele>
        <time>2021-03-30T10:58:11.000Z</time>
      </trkpt>
      <trkpt lat="49.82749" lon="4.79162">
        <ele>194</ele>
        <time>2021-03-30T10:58:12.000Z</time>
      </trkpt>
      <trkpt lat="49.82754" lon="4.79166">
        <ele>194</ele>
        <time>2021-03-30T10:58:13.000Z</time>
      </trkpt>
      <trkpt lat="49.82759" lon="4.7917">
        <ele>194</ele>
        <time>2021-03-30T10:58:14.000Z</time>
      </trkpt>
      <trkpt lat="49.82764" lon="4.79175">
        <ele>194</ele>
        <time>2021-03-30T10:58:15.000Z</time>
      </trkpt>
      <trkpt lat="49.82769" lon="4.79179">
        <ele>194</ele>
        <time>2021-03-30T10:58:16.000Z</time>
      </trkpt>
      <trkpt lat="49.82774" lon="4.79184">
        <ele>194</ele>
        <time>2021-03-30T10:58:17.000Z</time>
      </trkpt>
      <trkpt lat="49.82778" lon="4.7919">
        <ele>194</ele>
        <time>2021-03-30T10:58:18.000Z</time>
      </trkpt>
      <trkpt lat="49.82782" lon="4.79196">
        <ele>194</ele>
        <time>2021-03-30T10:58:19.000Z</time>
      </trkpt>
      <trkpt lat="49.82786" lon="4.79202">
        <ele>194</ele>
        <time>2021-03-30T10:58:20.000Z</time>
      </trkpt>
      <trkpt lat="49.8279" lon="4.79209">
        <ele>194</ele>
        <time>2021-03-30T10:58:21.000Z</time>
      </trkpt>
      <trkpt lat="49.82793" lon="4.79215">
        <ele>194</ele>
        <time>2021-03-30T10:58:22.000Z</time>
      </trkpt>
      <trkpt lat="49.82796" lon="4.79221">
        <ele>194</ele>
        <time>2021-03-30T10:58:23.000Z</time>
      </trkpt>
      <trkpt lat="49.82799" lon="4.79228">
        <ele>194</ele>
        <time>2021-03-30T10:58:24.000Z</time>
      </trkpt>
      <trkpt lat="49.82803" lon="4.79234">
        <ele>194</ele>
        <time>2021-03-30T10:58:25.000Z</time>
      </trkpt>
      <trkpt lat="49.82806" lon="4.79241">
        <ele>194</ele>
        <time>2021-03-30T10:58:26.000Z</time>
      </trkpt>
      <trkpt lat="49.8281" lon="4.79247">
        <ele>194</ele>
        <time>2021-03-30T10:58:27.000Z</time>
      </trkpt>
      <trkpt lat="49.82814" lon="4.79253">
        <ele>194</ele>
        <time>2021-03-30T10:58:28.000Z</time>
      </trkpt>
      <trkpt lat="49.82817" lon="4.79259">
        <ele>194</ele>
        <time>2021-03-30T10:58:29.000Z</time>
      </trkpt>
      <trkpt lat="49.82821" lon="4.79264">
        <ele>194</ele>
        <time>2021-03-30T10:58:30.000Z</time>
      </trkpt>
      <trkpt lat="49.82826" lon="4.79268">
        <ele>194</ele>
        <time>2021-03-30T10:58:31.000Z</time>
      </trkpt>
      <trkpt lat="49.8283" lon="4.79272">
        <ele>194</ele>
        <time>2021-03-30T10:58:32.000Z</time>
      </trkpt>
      <trkpt lat="49.82835" lon="4.79276">
        <ele>195</ele>
        <time>2021-03-30T10:58:33.000Z</time>
      </trkpt>
      <trkpt lat="49.8284" lon="4.7928">
        <ele>195</ele>
        <time>2021-03-30T10:58:34.000Z</time>
      </trkpt>
      <trkpt lat="49.82844" lon="4.79284">
        <ele>195</ele>
        <time>2021-03-30T10:58:35.000Z</time>
      </trkpt>
      <trkpt lat="49.82849" lon="4.79288">
        <ele>195</ele>
        <time>2021-03-30T10:58:36.000Z</time>
      </trkpt>
      <trkpt lat="49.82853" lon="4.79293">
        <ele>195</ele>
        <time>2021-03-30T10:58:37.000Z</time>
      </trkpt>
      <trkpt lat="49.82858" lon="4.79299">
        <ele>195</ele>
        <time>2021-03-30T10:58:38.000Z</time>
      </trkpt>
      <trkpt lat="49.82862" lon="4.79305">
        <ele>195</ele>
        <time>2021-03-30T10:58:39.000Z</time>
      </trkpt>
      <trkpt lat="49.82866" lon="4.79312">
        <ele>195</ele>
        <time>2021-03-30T10:58:40.000Z</time>
      </trkpt>
      <trkpt lat="49.8287" lon="4.79318">
        <ele>195</ele>
        <time>2021-03-30T10:58:41.000Z</time>
      </trkpt>
      <trkpt lat="49.82873" lon="4.79324">
        <ele>196</ele>
        <time>2021-03-30T10:58:42.000Z</time>
      </trkpt>
      <trkpt lat="49.82876" lon="4.79329">
        <ele>196</ele>
        <time>2021-03-30T10:58:43.000Z</time>
      </trkpt>
      <trkpt lat="49.82879" lon="4.79334">
        <ele>196</ele>
        <time>2021-03-30T10:58:44.000Z</time>
      </trkpt>
      <trkpt lat="49.82882" lon="4.7934">
        <ele>196</ele>
        <time>2021-03-30T10:58:45.000Z</time>
      </trkpt>
      <trkpt lat="49.82885" lon="4.79345">
        <ele>196</ele>
        <time>2021-03-30T10:58:46.000Z</time>
      </trkpt>
      <trkpt lat="49.82887" lon="4.79351">
        <ele>197</ele>
        <time>2021-03-30T10:58:47.000Z</time>
      </trkpt>
      <trkpt lat="49.8289" lon="4.79356">
        <ele>197</ele>
        <time>2021-03-30T10:58:48.000Z</time>
      </trkpt>
      <trkpt lat="49.82893" lon="4.79362">
        <ele>197</ele>
        <time>2021-03-30T10:58:49.000Z</time>
      </trkpt>
      <trkpt lat="49.82895" lon="4.79368">
        <ele>197</ele>
        <time>2021-03-30T10:58:50.000Z</time>
      </trkpt>
      <trkpt lat="49.82898" lon="4.79374">
        <ele>197</ele>
        <time>2021-03-30T10:58:51.000Z</time>
      </trkpt>
      <trkpt lat="49.829" lon="4.7938">
        <ele>197</ele>
        <time>2021-03-30T10:58:52.000Z</time>
      </trkpt>
      <trkpt lat="49.82902" lon="4.79386">
        <ele>198</ele>
        <time>2021-03-30T10:58:53.000Z</time>
      </trkpt>
      <trkpt lat="49.82904" lon="4.79392">
        <ele>198</ele>
        <time>2021-03-30T10:58:54.000Z</time>
      </trkpt>
      <trkpt lat="49.82906" lon="4.79399">
        <ele>198</ele>
        <time>2021-03-30T10:58:55.000Z</time>
      </trkpt>
      <trkpt lat="49.82908" lon="4.79406">
        <ele>198</ele>
        <time>2021-03-30T10:58:56.000Z</time>
      </trkpt>
      <trkpt lat="49.8291" lon="4.79412">
        <ele>199</ele>
        <time>2021-03-30T10:58:57.000Z</time>
      </trkpt>
      <trkpt lat="49.82912" lon="4.79418">
        <ele>199</ele>
        <time>2021-03-30T10:58:58.000Z</time>
      </trkpt>
      <trkpt lat="49.82914" lon="4.79424">
        <ele>199</ele>
        <time>2021-03-30T10:58:59.000Z</time>
      </trkpt>
      <trkpt lat="49.82916" lon="4.7943">
        <ele>200</ele>
        <time>2021-03-30T10:59:00.000Z</time>
      </trkpt>
      <trkpt lat="49.82918" lon="4.79436">
        <ele>200</ele>
        <time>2021-03-30T10:59:01.000Z</time>
      </trkpt>
      <trkpt lat="49.8292" lon="4.79441">
        <ele>200</ele>
        <time>2021-03-30T10:59:02.000Z</time>
      </trkpt>
      <trkpt lat="49.82923" lon="4.79446">
        <ele>200</ele>
        <time>2021-03-30T10:59:03.000Z</time>
      </trkpt>
      <trkpt lat="49.82925" lon="4.7945">
        <ele>201</ele>
        <time>2021-03-30T10:59:04.000Z</time>
      </trkpt>
      <trkpt lat="49.82928" lon="4.79453">
        <ele>201</ele>
        <time>2021-03-30T10:59:05.000Z</time>
      </trkpt>
      <trkpt lat="49.82931" lon="4.79457">
        <ele>201</ele>
        <time>2021-03-30T10:59:06.000Z</time>
      </trkpt>
      <trkpt lat="49.82934" lon="4.79461">
        <ele>201</ele>
        <time>2021-03-30T10:59:07.000Z</time>
      </trkpt>
      <trkpt lat="49.82936" lon="4.79463">
        <ele>202</ele>
        <time>2021-03-30T10:59:08.000Z</time>
      </trkpt>
      <trkpt lat="49.82939" lon="4.79465">
        <ele>202</ele>
        <time>2021-03-30T10:59:09.000Z</time>
      </trkpt>
      <trkpt lat="49.82943" lon="4.79467">
        <ele>202</ele>
        <time>2021-03-30T10:59:10.000Z</time>
      </trkpt>
      <trkpt lat="49.82946" lon="4.79468">
        <ele>203</ele>
        <time>2021-03-30T10:59:11.000Z</time>
      </trkpt>
      <trkpt lat="49.8295" lon="4.7947">
        <ele>203</ele>
        <time>2021-03-30T10:59:12.000Z</time>
      </trkpt>
      <trkpt lat="49.82953" lon="4.79471">
        <ele>204</ele>
        <time>2021-03-30T10:59:13.000Z</time>
      </trkpt>
      <trkpt lat="49.82956" lon="4.79472">
        <ele>204</ele>
        <time>2021-03-30T10:59:14.000Z</time>
      </trkpt>
      <trkpt lat="49.82959" lon="4.79473">
        <ele>205</ele>
        <time>2021-03-30T10:59:15.000Z</time>
      </trkpt>
      <trkpt lat="49.82963" lon="4.79474">
        <ele>205</ele>
        <time>2021-03-30T10:59:16.000Z</time>
      </trkpt>
      <trkpt lat="49.82968" lon="4.79476">
        <ele>206</ele>
        <time>2021-03-30T10:59:17.000Z</time>
      </trkpt>
      <trkpt lat="49.82972" lon="4.79477">
        <ele>207</ele>
        <time>2021-03-30T10:59:18.000Z</time>
      </trkpt>
      <trkpt lat="49.82975" lon="4.79479">
        <ele>207</ele>
        <time>2021-03-30T10:59:19.000Z</time>
      </trkpt>
      <trkpt lat="49.82979" lon="4.79479">
        <ele>208</ele>
        <time>2021-03-30T10:59:20.000Z</time>
      </trkpt>
      <trkpt lat="49.82982" lon="4.79479">
        <ele>209</ele>
        <time>2021-03-30T10:59:21.000Z</time>
      </trkpt>
      <trkpt lat="49.82984" lon="4.79479">
        <ele>209</ele>
        <time>2021-03-30T10:59:22.000Z</time>
      </trkpt>
      <trkpt lat="49.82987" lon="4.79479">
        <ele>210</ele>
        <time>2021-03-30T10:59:23.000Z</time>
      </trkpt>
      <trkpt lat="49.8299" lon="4.79479">
        <ele>211</ele>
        <time>2021-03-30T10:59:24.000Z</time>
      </trkpt>
      <trkpt lat="49.82993" lon="4.79479">
        <ele>211</ele>
        <time>2021-03-30T10:59:25.000Z</time>
      </trkpt>
      <trkpt lat="49.82995" lon="4.79479">
        <ele>212</ele>
        <time>2021-03-30T10:59:26.000Z</time>
      </trkpt>
      <trkpt lat="49.82998" lon="4.79479">
        <ele>213</ele>
        <time>2021-03-30T10:59:27.000Z</time>
      </trkpt>
      <trkpt lat="49.83001" lon="4.7948">
        <ele>214</ele>
        <time>2021-03-30T10:59:28.000Z</time>
      </trkpt>
      <trkpt lat="49.83003" lon="4.7948">
        <ele>214</ele>
        <time>2021-03-30T10:59:29.000Z</time>
      </trkpt>
      <trkpt lat="49.83006" lon="4.7948">
        <ele>215</ele>
        <time>2021-03-30T10:59:30.000Z</time>
      </trkpt>
      <trkpt lat="49.83008" lon="4.79479">
        <ele>216</ele>
        <time>2021-03-30T10:59:31.000Z</time>
      </trkpt>
      <trkpt lat="49.83011" lon="4.79479">
        <ele>216</ele>
        <time>2021-03-30T10:59:32.000Z</time>
      </trkpt>
      <trkpt lat="49.83014" lon="4.79479">
        <ele>217</ele>
        <time>2021-03-30T10:59:33.000Z</time>
      </trkpt>
      <trkpt lat="49.83016" lon="4.7948">
        <ele>217</ele>
        <time>2021-03-30T10:59:34.000Z</time>
      </trkpt>
      <trkpt lat="49.83019" lon="4.7948">
        <ele>218</ele>
        <time>2021-03-30T10:59:35.000Z</time>
      </trkpt>
      <trkpt lat="49.83021" lon="4.7948">
        <ele>219</ele>
        <time>2021-03-30T10:59:36.000Z</time>
      </trkpt>
      <trkpt lat="49.83024" lon="4.7948">
        <ele>219</ele>
        <time>2021-03-30T10:59:37.000Z</time>
      </trkpt>
      <trkpt lat="49.83025" lon="4.7948">
        <ele>220</ele>
        <time>2021-03-30T10:59:38.000Z</time>
      </trkpt>
      <trkpt lat="49.83026" lon="4.79481">
        <ele>220</ele>
        <time>2021-03-30T10:59:39.000Z</time>
      </trkpt>
      <trkpt lat="49.83027" lon="4.79481">
        <ele>221</ele>
        <time>2021-03-30T10:59:40.000Z</time>
      </trkpt>
      <trkpt lat="49.83028" lon="4.7948">
        <ele>222</ele>
        <time>2021-03-30T10:59:41.000Z</time>
      </trkpt>
      <trkpt lat="49.8303" lon="4.7948">
        <ele>222</ele>
        <time>2021-03-30T10:59:42.000Z</time>
      </trkpt>
      <trkpt lat="49.83031" lon="4.7948">
        <ele>223</ele>
        <time>2021-03-30T10:59:43.000Z</time>
      </trkpt>
      <trkpt lat="49.83033" lon="4.7948">
        <ele>224</ele>
        <time>2021-03-30T10:59:44.000Z</time>
      </trkpt>
      <trkpt lat="49.83035" lon="4.7948">
        <ele>225</ele>
        <time>2021-03-30T10:59:45.000Z</time>
      </trkpt>
      <trkpt lat="49.83036" lon="4.79479">
        <ele>225</ele>
        <time>2021-03-30T10:59:46.000Z</time>
      </trkpt>
      <trkpt lat="49.83038" lon="4.79479">
        <ele>226</ele>
        <time>2021-03-30T10:59:47.000Z</time>
      </trkpt>
      <trkpt lat="49.8304" lon="4.79479">
        <ele>226</ele>
        <time>2021-03-30T10:59:48.000Z</time>
      </trkpt>
      <trkpt lat="49.83043" lon="4.79479">
        <ele>227</ele>
        <time>2021-03-30T10:59:49.000Z</time>
      </trkpt>
      <trkpt lat="49.83045" lon="4.79479">
        <ele>228</ele>
        <time>2021-03-30T10:59:50.000Z</time>
      </trkpt>
      <trkpt lat="49.83047" lon="4.79479">
        <ele>228</ele>
        <time>2021-03-30T10:59:51.000Z</time>
      </trkpt>
      <trkpt lat="49.83049" lon="4.79479">
        <ele>229</ele>
        <time>2021-03-30T10:59:52.000Z</time>
      </trkpt>
      <trkpt lat="49.83051" lon="4.79479">
        <ele>229</ele>
        <time>2021-03-30T10:59:53.000Z</time>
      </trkpt>
      <trkpt lat="49.83053" lon="4.79478">
        <ele>229</ele>
        <time>2021-03-30T10:59:54.000Z</time>
      </trkpt>
      <trkpt lat="49.83056" lon="4.79478">
        <ele>230</ele>
        <time>2021-03-30T10:59:55.000Z</time>
      </trkpt>
      <trkpt lat="49.83058" lon="4.79476">
        <ele>230</ele>
        <time>2021-03-30T10:59:56.000Z</time>
      </trkpt>
      <trkpt lat="49.8306" lon="4.79474">
        <ele>230</ele>
        <time>2021-03-30T10:59:57.000Z</time>
      </trkpt>
      <trkpt lat="49.83062" lon="4.79472">
        <ele>231</ele>
        <time>2021-03-30T10:59:58.000Z</time>
      </trkpt>
      <trkpt lat="49.83063" lon="4.79469">
        <ele>231</ele>
        <time>2021-03-30T10:59:59.000Z</time>
      </trkpt>
      <trkpt lat="49.83063" lon="4.79466">
        <ele>231</ele>
        <time>2021-03-30T11:00:00.000Z</time>
      </trkpt>
      <trkpt lat="49.83062" lon="4.79463">
        <ele>231</ele>
        <time>2021-03-30T11:00:01.000Z</time>
      </trkpt>
      <trkpt lat="49.8306" lon="4.79462">
        <ele>231</ele>
        <time>2021-03-30T11:00:02.000Z</time>
      </trkpt>
      <trkpt lat="49.83058" lon="4.7946">
        <ele>231</ele>
        <time>2021-03-30T11:00:03.000Z</time>
      </trkpt>
      <trkpt lat="49.83056" lon="4.79459">
        <ele>231</ele>
        <time>2021-03-30T11:00:04.000Z</time>
      </trkpt>
      <trkpt lat="49.83054" lon="4.79459">
        <ele>231</ele>
        <time>2021-03-30T11:00:05.000Z</time>
      </trkpt>
      <trkpt lat="49.83051" lon="4.79458">
        <ele>230</ele>
        <time>2021-03-30T11:00:06.000Z</time>
      </trkpt>
      <trkpt lat="49.83048" lon="4.79458">
        <ele>230</ele>
        <time>2021-03-30T11:00:07.000Z</time>
      </trkpt>
      <trkpt lat="49.83045" lon="4.79457">
        <ele>230</ele>
        <time>2021-03-30T11:00:08.000Z</time>
      </trkpt>
      <trkpt lat="49.83043" lon="4.79456">
        <ele>230</ele>
        <time>2021-03-30T11:00:09.000Z</time>
      </trkpt>
      <trkpt lat="49.8304" lon="4.79455">
        <ele>230</ele>
        <time>2021-03-30T11:00:10.000Z</time>
      </trkpt>
      <trkpt lat="49.83037" lon="4.79453">
        <ele>230</ele>
        <time>2021-03-30T11:00:11.000Z</time>
      </trkpt>
      <trkpt lat="49.83035" lon="4.79452">
        <ele>229</ele>
        <time>2021-03-30T11:00:12.000Z</time>
      </trkpt>
      <trkpt lat="49.83032" lon="4.7945">
        <ele>229</ele>
        <time>2021-03-30T11:00:13.000Z</time>
      </trkpt>
      <trkpt lat="49.8303" lon="4.79448">
        <ele>229</ele>
        <time>2021-03-30T11:00:14.000Z</time>
      </trkpt>
      <trkpt lat="49.83028" lon="4.79446">
        <ele>228</ele>
        <time>2021-03-30T11:00:15.000Z</time>
      </trkpt>
      <trkpt lat="49.83026" lon="4.79445">
        <ele>228</ele>
        <time>2021-03-30T11:00:16.000Z</time>
      </trkpt>
      <trkpt lat="49.83024" lon="4.79444">
        <ele>228</ele>
        <time>2021-03-30T11:00:17.000Z</time>
      </trkpt>
      <trkpt lat="49.83023" lon="4.79442">
        <ele>228</ele>
        <time>2021-03-30T11:00:18.000Z</time>
      </trkpt>
      <trkpt lat="49.83021" lon="4.7944">
        <ele>227</ele>
        <time>2021-03-30T11:00:19.000Z</time>
      </trkpt>
      <trkpt lat="49.83019" lon="4.79438">
        <ele>227</ele>
        <time>2021-03-30T11:00:20.000Z</time>
      </trkpt>
      <trkpt lat="49.83017" lon="4.79437">
        <ele>227</ele>
        <time>2021-03-30T11:00:21.000Z</time>
      </trkpt>
      <trkpt lat="49.83016" lon="4.79435">
        <ele>227</ele>
        <time>2021-03-30T11:00:22.000Z</time>
      </trkpt>
      <trkpt lat="49.83014" lon="4.79433">
        <ele>227</ele>
        <time>2021-03-30T11:00:23.000Z</time>
      </trkpt>
      <trkpt lat="49.83012" lon="4.79432">
        <ele>227</ele>
        <time>2021-03-30T11:00:24.000Z</time>
      </trkpt>
      <trkpt lat="49.83011" lon="4.7943">
        <ele>227</ele>
        <time>2021-03-30T11:00:25.000Z</time>
      </trkpt>
      <trkpt lat="49.83009" lon="4.79428">
        <ele>227</ele>
        <time>2021-03-30T11:00:26.000Z</time>
      </trkpt>
      <trkpt lat="49.83008" lon="4.79427">
        <ele>227</ele>
        <time>2021-03-30T11:00:27.000Z</time>
      </trkpt>
      <trkpt lat="49.83007" lon="4.79426">
        <ele>227</ele>
        <time>2021-03-30T11:00:28.000Z</time>
      </trkpt>
      <trkpt lat="49.83006" lon="4.79425">
        <ele>227</ele>
        <time>2021-03-30T11:00:29.000Z</time>
      </trkpt>
      <trkpt lat="49.83004" lon="4.79423">
        <ele>227</ele>
        <time>2021-03-30T11:00:30.000Z</time>
      </trkpt>
      <trkpt lat="49.83002" lon="4.79422">
        <ele>227</ele>
        <time>2021-03-30T11:00:31.000Z</time>
      </trkpt>
      <trkpt lat="49.83" lon="4.7942">
        <ele>227</ele>
        <time>2021-03-30T11:00:32.000Z</time>
      </trkpt>
      <trkpt lat="49.82998" lon="4.79419">
        <ele>227</ele>
        <time>2021-03-30T11:00:33.000Z</time>
      </trkpt>
      <trkpt lat="49.82996" lon="4.79416">
        <ele>227</ele>
        <time>2021-03-30T11:00:34.000Z</time>
      </trkpt>
      <trkpt lat="49.82995" lon="4.79414">
        <ele>228</ele>
        <time>2021-03-30T11:00:35.000Z</time>
      </trkpt>
      <trkpt lat="49.82993" lon="4.79413">
        <ele>228</ele>
        <time>2021-03-30T11:00:36.000Z</time>
      </trkpt>
      <trkpt lat="49.82991" lon="4.79411">
        <ele>228</ele>
        <time>2021-03-30T11:00:37.000Z</time>
      </trkpt>
      <trkpt lat="49.82989" lon="4.79409">
        <ele>228</ele>
        <time>2021-03-30T11:00:38.000Z</time>
      </trkpt>
      <trkpt lat="49.82988" lon="4.79406">
        <ele>228</ele>
        <time>2021-03-30T11:00:39.000Z</time>
      </trkpt>
      <trkpt lat="49.82986" lon="4.79404">
        <ele>228</ele>
        <time>2021-03-30T11:00:40.000Z</time>
      </trkpt>
      <trkpt lat="49.82984" lon="4.79402">
        <ele>229</ele>
        <time>2021-03-30T11:00:41.000Z</time>
      </trkpt>
      <trkpt lat="49.82982" lon="4.794">
        <ele>229</ele>
        <time>2021-03-30T11:00:42.000Z</time>
      </trkpt>
      <trkpt lat="49.82981" lon="4.79398">
        <ele>229</ele>
        <time>2021-03-30T11:00:43.000Z</time>
      </trkpt>
      <trkpt lat="49.82979" lon="4.79396">
        <ele>229</ele>
        <time>2021-03-30T11:00:44.000Z</time>
      </trkpt>
      <trkpt lat="49.82977" lon="4.79394">
        <ele>229</ele>
        <time>2021-03-30T11:00:45.000Z</time>
      </trkpt>
      <trkpt lat="49.82976" lon="4.79391">
        <ele>229</ele>
        <time>2021-03-30T11:00:46.000Z</time>
      </trkpt>
      <trkpt lat="49.82974" lon="4.79389">
        <ele>230</ele>
        <time>2021-03-30T11:00:47.000Z</time>
      </trkpt>
      <trkpt lat="49.82972" lon="4.79387">
        <ele>230</ele>
        <time>2021-03-30T11:00:48.000Z</time>
      </trkpt>
      <trkpt lat="49.8297" lon="4.79386">
        <ele>230</ele>
        <time>2021-03-30T11:00:49.000Z</time>
      </trkpt>
      <trkpt lat="49.82969" lon="4.79384">
        <ele>231</ele>
        <time>2021-03-30T11:00:50.000Z</time>
      </trkpt>
      <trkpt lat="49.82967" lon="4.79381">
        <ele>231</ele>
        <time>2021-03-30T11:00:51.000Z</time>
      </trkpt>
      <trkpt lat="49.82965" lon="4.79379">
        <ele>231</ele>
        <time>2021-03-30T11:00:52.000Z</time>
      </trkpt>
      <trkpt lat="49.82964" lon="4.79377">
        <ele>232</ele>
        <time>2021-03-30T11:00:53.000Z</time>
      </trkpt>
      <trkpt lat="49.82963" lon="4.79375">
        <ele>232</ele>
        <time>2021-03-30T11:00:54.000Z</time>
      </trkpt>
      <trkpt lat="49.82963" lon="4.79375">
        <ele>232</ele>
        <time>2021-03-30T11:00:55.000Z</time>
      </trkpt>
      <trkpt lat="49.82963" lon="4.79375">
        <ele>232</ele>
        <time>2021-03-30T11:00:56.000Z</time>
      </trkpt>
      <trkpt lat="49.82963" lon="4.79374">
        <ele>232</ele>
        <time>2021-03-30T11:00:57.000Z</time>
      </trkpt>
      <trkpt lat="49.82963" lon="4.79374">
        <ele>232</ele>
        <time>2021-03-30T11:00:58.000Z</time>
      </trkpt>
      <trkpt lat="49.82963" lon="4.79374">
        <ele>232</ele>
        <time>2021-03-30T11:00:59.000Z</time>
      </trkpt>
      <trkpt lat="49.82963" lon="4.79374">
        <ele>232</ele>
        <time>2021-03-30T11:01:00.000Z</time>
      </trkpt>
      <trkpt lat="49.82963" lon="4.79374">
        <ele>233</ele>
        <time>2021-03-30T11:01:01.000Z</time>
      </trkpt>
      <trkpt lat="49.82963" lon="4.79373">
        <ele>233</ele>
        <time>2021-03-30T11:01:02.000Z</time>
      </trkpt>
      <trkpt lat="49.82964" lon="4.79373">
        <ele>233</ele>
        <time>2021-03-30T11:01:03.000Z</time>
      </trkpt>
      <trkpt lat="49.82964" lon="4.79374">
        <ele>233</ele>
        <time>2021-03-30T11:01:04.000Z</time>
      </trkpt>
      <trkpt lat="49.82963" lon="4.79374">
        <ele>233</ele>
        <time>2021-03-30T11:01:05.000Z</time>
      </trkpt>
      <trkpt lat="49.82962" lon="4.79373">
        <ele>233</ele>
        <time>2021-03-30T11:01:06.000Z</time>
      </trkpt>
      <trkpt lat="49.82962" lon="4.79371">
        <ele>233</ele>
        <time>2021-03-30T11:01:07.000Z</time>
      </trkpt>
      <trkpt lat="49.8296" lon="4.79369">
        <ele>233</ele>
        <time>2021-03-30T11:01:08.000Z</time>
      </trkpt>
      <trkpt lat="49.82959" lon="4.79367">
        <ele>233</ele>
        <time>2021-03-30T11:01:09.000Z</time>
      </trkpt>
      <trkpt lat="49.82958" lon="4.79364">
        <ele>233</ele>
        <time>2021-03-30T11:01:10.000Z</time>
      </trkpt>
      <trkpt lat="49.82956" lon="4.79362">
        <ele>234</ele>
        <time>2021-03-30T11:01:11.000Z</time>
      </trkpt>
      <trkpt lat="49.82955" lon="4.7936">
        <ele>234</ele>
        <time>2021-03-30T11:01:12.000Z</time>
      </trkpt>
      <trkpt lat="49.82953" lon="4.79357">
        <ele>234</ele>
        <time>2021-03-30T11:01:13.000Z</time>
      </trkpt>
      <trkpt lat="49.82952" lon="4.79354">
        <ele>234</ele>
        <time>2021-03-30T11:01:14.000Z</time>
      </trkpt>
      <trkpt lat="49.8295" lon="4.79351">
        <ele>234</ele>
        <time>2021-03-30T11:01:15.000Z</time>
      </trkpt>
      <trkpt lat="49.82949" lon="4.79348">
        <ele>234</ele>
        <time>2021-03-30T11:01:16.000Z</time>
      </trkpt>
      <trkpt lat="49.82948" lon="4.79345">
        <ele>234</ele>
        <time>2021-03-30T11:01:17.000Z</time>
      </trkpt>
      <trkpt lat="49.82947" lon="4.79342">
        <ele>234</ele>
        <time>2021-03-30T11:01:18.000Z</time>
      </trkpt>
      <trkpt lat="49.82946" lon="4.79339">
        <ele>234</ele>
        <time>2021-03-30T11:01:19.000Z</time>
      </trkpt>
      <trkpt lat="49.82946" lon="4.79336">
        <ele>234</ele>
        <time>2021-03-30T11:01:20.000Z</time>
      </trkpt>
      <trkpt lat="49.82945" lon="4.79333">
        <ele>234</ele>
        <time>2021-03-30T11:01:21.000Z</time>
      </trkpt>
      <trkpt lat="49.82945" lon="4.79329">
        <ele>234</ele>
        <time>2021-03-30T11:01:22.000Z</time>
      </trkpt>
      <trkpt lat="49.82944" lon="4.79326">
        <ele>234</ele>
        <time>2021-03-30T11:01:23.000Z</time>
      </trkpt>
      <trkpt lat="49.82944" lon="4.79323">
        <ele>234</ele>
        <time>2021-03-30T11:01:24.000Z</time>
      </trkpt>
      <trkpt lat="49.82943" lon="4.7932">
        <ele>234</ele>
        <time>2021-03-30T11:01:25.000Z</time>
      </trkpt>
      <trkpt lat="49.82943" lon="4.79316">
        <ele>234</ele>
        <time>2021-03-30T11:01:26.000Z</time>
      </trkpt>
      <trkpt lat="49.82943" lon="4.79313">
        <ele>234</ele>
        <time>2021-03-30T11:01:27.000Z</time>
      </trkpt>
      <trkpt lat="49.82942" lon="4.79309">
        <ele>234</ele>
        <time>2021-03-30T11:01:28.000Z</time>
      </trkpt>
      <trkpt lat="49.82942" lon="4.79306">
        <ele>234</ele>
        <time>2021-03-30T11:01:29.000Z</time>
      </trkpt>
      <trkpt lat="49.82942" lon="4.79302">
        <ele>234</ele>
        <time>2021-03-30T11:01:30.000Z</time>
      </trkpt>
      <trkpt lat="49.82942" lon="4.79298">
        <ele>234</ele>
        <time>2021-03-30T11:01:31.000Z</time>
      </trkpt>
      <trkpt lat="49.82942" lon="4.79294">
        <ele>234</ele>
        <time>2021-03-30T11:01:32.000Z</time>
      </trkpt>
      <trkpt lat="49.82942" lon="4.79289">
        <ele>234</ele>
        <time>2021-03-30T11:01:33.000Z</time>
      </trkpt>
      <trkpt lat="49.82942" lon="4.79284">
        <ele>234</ele>
        <time>2021-03-30T11:01:34.000Z</time>
      </trkpt>
      <trkpt lat="49.82942" lon="4.7928">
        <ele>235</ele>
        <time>2021-03-30T11:01:35.000Z</time>
      </trkpt>
      <trkpt lat="49.82942" lon="4.79275">
        <ele>235</ele>
        <time>2021-03-30T11:01:36.000Z</time>
      </trkpt>
      <trkpt lat="49.82942" lon="4.7927">
        <ele>235</ele>
        <time>2021-03-30T11:01:37.000Z</time>
      </trkpt>
      <trkpt lat="49.82943" lon="4.79265">
        <ele>235</ele>
        <time>2021-03-30T11:01:38.000Z</time>
      </trkpt>
      <trkpt lat="49.82943" lon="4.7926">
        <ele>235</ele>
        <time>2021-03-30T11:01:39.000Z</time>
      </trkpt>
      <trkpt lat="49.82944" lon="4.79255">
        <ele>236</ele>
        <time>2021-03-30T11:01:40.000Z</time>
      </trkpt>
      <trkpt lat="49.82943" lon="4.79251">
        <ele>236</ele>
        <time>2021-03-30T11:01:41.000Z</time>
      </trkpt>
      <trkpt lat="49.82943" lon="4.79246">
        <ele>236</ele>
        <time>2021-03-30T11:01:42.000Z</time>
      </trkpt>
      <trkpt lat="49.82943" lon="4.79241">
        <ele>236</ele>
        <time>2021-03-30T11:01:43.000Z</time>
      </trkpt>
      <trkpt lat="49.82944" lon="4.79237">
        <ele>236</ele>
        <time>2021-03-30T11:01:44.000Z</time>
      </trkpt>
      <trkpt lat="49.82945" lon="4.79234">
        <ele>237</ele>
        <time>2021-03-30T11:01:45.000Z</time>
      </trkpt>
      <trkpt lat="49.82946" lon="4.7923">
        <ele>237</ele>
        <time>2021-03-30T11:01:46.000Z</time>
      </trkpt>
      <trkpt lat="49.82946" lon="4.79226">
        <ele>237</ele>
        <time>2021-03-30T11:01:47.000Z</time>
      </trkpt>
      <trkpt lat="49.82947" lon="4.79222">
        <ele>237</ele>
        <time>2021-03-30T11:01:48.000Z</time>
      </trkpt>
      <trkpt lat="49.82947" lon="4.79218">
        <ele>237</ele>
        <time>2021-03-30T11:01:49.000Z</time>
      </trkpt>
      <trkpt lat="49.82949" lon="4.79214">
        <ele>237</ele>
        <time>2021-03-30T11:01:50.000Z</time>
      </trkpt>
      <trkpt lat="49.82949" lon="4.7921">
        <ele>237</ele>
        <time>2021-03-30T11:01:51.000Z</time>
      </trkpt>
      <trkpt lat="49.8295" lon="4.79207">
        <ele>237</ele>
        <time>2021-03-30T11:01:52.000Z</time>
      </trkpt>
      <trkpt lat="49.82951" lon="4.79203">
        <ele>237</ele>
        <time>2021-03-30T11:01:53.000Z</time>
      </trkpt>
      <trkpt lat="49.82952" lon="4.792">
        <ele>237</ele>
        <time>2021-03-30T11:01:54.000Z</time>
      </trkpt>
      <trkpt lat="49.82952" lon="4.79197">
        <ele>237</ele>
        <time>2021-03-30T11:01:55.000Z</time>
      </trkpt>
      <trkpt lat="49.82953" lon="4.79194">
        <ele>237</ele>
        <time>2021-03-30T11:01:56.000Z</time>
      </trkpt>
      <trkpt lat="49.82954" lon="4.79191">
        <ele>237</ele>
        <time>2021-03-30T11:01:57.000Z</time>
      </trkpt>
      <trkpt lat="49.82954" lon="4.79188">
        <ele>238</ele>
        <time>2021-03-30T11:01:58.000Z</time>
      </trkpt>
      <trkpt lat="49.82955" lon="4.79185">
        <ele>238</ele>
        <time>2021-03-30T11:01:59.000Z</time>
      </trkpt>
      <trkpt lat="49.82955" lon="4.79182">
        <ele>238</ele>
        <time>2021-03-30T11:02:00.000Z</time>
      </trkpt>
      <trkpt lat="49.82956" lon="4.79178">
        <ele>238</ele>
        <time>2021-03-30T11:02:01.000Z</time>
      </trkpt>
      <trkpt lat="49.82956" lon="4.79175">
        <ele>238</ele>
        <time>2021-03-30T11:02:02.000Z</time>
      </trkpt>
      <trkpt lat="49.82956" lon="4.79172">
        <ele>238</ele>
        <time>2021-03-30T11:02:03.000Z</time>
      </trkpt>
      <trkpt lat="49.82956" lon="4.79169">
        <ele>238</ele>
        <time>2021-03-30T11:02:04.000Z</time>
      </trkpt>
      <trkpt lat="49.82956" lon="4.79165">
        <ele>238</ele>
        <time>2021-03-30T11:02:05.000Z</time>
      </trkpt>
      <trkpt lat="49.82956" lon="4.79162">
        <ele>239</ele>
        <time>2021-03-30T11:02:06.000Z</time>
      </trkpt>
      <trkpt lat="49.82955" lon="4.79159">
        <ele>239</ele>
        <time>2021-03-30T11:02:07.000Z</time>
      </trkpt>
      <trkpt lat="49.82954" lon="4.79156">
        <ele>239</ele>
        <time>2021-03-30T11:02:08.000Z</time>
      </trkpt>
      <trkpt lat="49.82953" lon="4.79153">
        <ele>239</ele>
        <time>2021-03-30T11:02:09.000Z</time>
      </trkpt>
      <trkpt lat="49.82953" lon="4.79149">
        <ele>239</ele>
        <time>2021-03-30T11:02:10.000Z</time>
      </trkpt>
      <trkpt lat="49.82952" lon="4.79145">
        <ele>240</ele>
        <time>2021-03-30T11:02:11.000Z</time>
      </trkpt>
      <trkpt lat="49.82951" lon="4.79142">
        <ele>240</ele>
        <time>2021-03-30T11:02:12.000Z</time>
      </trkpt>
      <trkpt lat="49.8295" lon="4.79139">
        <ele>240</ele>
        <time>2021-03-30T11:02:13.000Z</time>
      </trkpt>
      <trkpt lat="49.82949" lon="4.79135">
        <ele>241</ele>
        <time>2021-03-30T11:02:14.000Z</time>
      </trkpt>
      <trkpt lat="49.82948" lon="4.79132">
        <ele>241</ele>
        <time>2021-03-30T11:02:15.000Z</time>
      </trkpt>
      <trkpt lat="49.82946" lon="4.79129">
        <ele>241</ele>
        <time>2021-03-30T11:02:16.000Z</time>
      </trkpt>
      <trkpt lat="49.82944" lon="4.79125">
        <ele>241</ele>
        <time>2021-03-30T11:02:17.000Z</time>
      </trkpt>
      <trkpt lat="49.82942" lon="4.79121">
        <ele>242</ele>
        <time>2021-03-30T11:02:18.000Z</time>
      </trkpt>
      <trkpt lat="49.82941" lon="4.79117">
        <ele>242</ele>
        <time>2021-03-30T11:02:19.000Z</time>
      </trkpt>
      <trkpt lat="49.82939" lon="4.79114">
        <ele>242</ele>
        <time>2021-03-30T11:02:20.000Z</time>
      </trkpt>
      <trkpt lat="49.82937" lon="4.79109">
        <ele>242</ele>
        <time>2021-03-30T11:02:21.000Z</time>
      </trkpt>
      <trkpt lat="49.82936" lon="4.79105">
        <ele>242</ele>
        <time>2021-03-30T11:02:22.000Z</time>
      </trkpt>
      <trkpt lat="49.82934" lon="4.79101">
        <ele>243</ele>
        <time>2021-03-30T11:02:23.000Z</time>
      </trkpt>
      <trkpt lat="49.82931" lon="4.79098">
        <ele>243</ele>
        <time>2021-03-30T11:02:24.000Z</time>
      </trkpt>
      <trkpt lat="49.82929" lon="4.79094">
        <ele>243</ele>
        <time>2021-03-30T11:02:25.000Z</time>
      </trkpt>
      <trkpt lat="49.82927" lon="4.79091">
        <ele>243</ele>
        <time>2021-03-30T11:02:26.000Z</time>
      </trkpt>
      <trkpt lat="49.82925" lon="4.79088">
        <ele>243</ele>
        <time>2021-03-30T11:02:27.000Z</time>
      </trkpt>
      <trkpt lat="49.82922" lon="4.79085">
        <ele>243</ele>
        <time>2021-03-30T11:02:28.000Z</time>
      </trkpt>
      <trkpt lat="49.82919" lon="4.79082">
        <ele>243</ele>
        <time>2021-03-30T11:02:29.000Z</time>
      </trkpt>
      <trkpt lat="49.82916" lon="4.79079">
        <ele>243</ele>
        <time>2021-03-30T11:02:30.000Z</time>
      </trkpt>
      <trkpt lat="49.82912" lon="4.79076">
        <ele>243</ele>
        <time>2021-03-30T11:02:31.000Z</time>
      </trkpt>
      <trkpt lat="49.82909" lon="4.79074">
        <ele>243</ele>
        <time>2021-03-30T11:02:32.000Z</time>
      </trkpt>
      <trkpt lat="49.82907" lon="4.79072">
        <ele>243</ele>
        <time>2021-03-30T11:02:33.000Z</time>
      </trkpt>
      <trkpt lat="49.82904" lon="4.79069">
        <ele>244</ele>
        <time>2021-03-30T11:02:34.000Z</time>
      </trkpt>
      <trkpt lat="49.82901" lon="4.79066">
        <ele>244</ele>
        <time>2021-03-30T11:02:35.000Z</time>
      </trkpt>
      <trkpt lat="49.82899" lon="4.79064">
        <ele>244</ele>
        <time>2021-03-30T11:02:36.000Z</time>
      </trkpt>
      <trkpt lat="49.82896" lon="4.79061">
        <ele>244</ele>
        <time>2021-03-30T11:02:37.000Z</time>
      </trkpt>
      <trkpt lat="49.82893" lon="4.79058">
        <ele>244</ele>
        <time>2021-03-30T11:02:38.000Z</time>
      </trkpt>
      <trkpt lat="49.8289" lon="4.79056">
        <ele>244</ele>
        <time>2021-03-30T11:02:39.000Z</time>
      </trkpt>
      <trkpt lat="49.82887" lon="4.79053">
        <ele>245</ele>
        <time>2021-03-30T11:02:40.000Z</time>
      </trkpt>
      <trkpt lat="49.82884" lon="4.7905">
        <ele>245</ele>
        <time>2021-03-30T11:02:41.000Z</time>
      </trkpt>
      <trkpt lat="49.82882" lon="4.79048">
        <ele>245</ele>
        <time>2021-03-30T11:02:42.000Z</time>
      </trkpt>
      <trkpt lat="49.82879" lon="4.79045">
        <ele>245</ele>
        <time>2021-03-30T11:02:43.000Z</time>
      </trkpt>
      <trkpt lat="49.82877" lon="4.79043">
        <ele>246</ele>
        <time>2021-03-30T11:02:44.000Z</time>
      </trkpt>
      <trkpt lat="49.82875" lon="4.7904">
        <ele>246</ele>
        <time>2021-03-30T11:02:45.000Z</time>
      </trkpt>
      <trkpt lat="49.82873" lon="4.79038">
        <ele>246</ele>
        <time>2021-03-30T11:02:46.000Z</time>
      </trkpt>
      <trkpt lat="49.82871" lon="4.79035">
        <ele>246</ele>
        <time>2021-03-30T11:02:47.000Z</time>
      </trkpt>
      <trkpt lat="49.82869" lon="4.79032">
        <ele>247</ele>
        <time>2021-03-30T11:02:48.000Z</time>
      </trkpt>
      <trkpt lat="49.82867" lon="4.79029">
        <ele>247</ele>
        <time>2021-03-30T11:02:49.000Z</time>
      </trkpt>
      <trkpt lat="49.82865" lon="4.79026">
        <ele>247</ele>
        <time>2021-03-30T11:02:50.000Z</time>
      </trkpt>
      <trkpt lat="49.82863" lon="4.79023">
        <ele>247</ele>
        <time>2021-03-30T11:02:51.000Z</time>
      </trkpt>
      <trkpt lat="49.82861" lon="4.7902">
        <ele>248</ele>
        <time>2021-03-30T11:02:52.000Z</time>
      </trkpt>
      <trkpt lat="49.8286" lon="4.79017">
        <ele>248</ele>
        <time>2021-03-30T11:02:53.000Z</time>
      </trkpt>
      <trkpt lat="49.82858" lon="4.79013">
        <ele>248</ele>
        <time>2021-03-30T11:02:54.000Z</time>
      </trkpt>
      <trkpt lat="49.82856" lon="4.7901">
        <ele>248</ele>
        <time>2021-03-30T11:02:55.000Z</time>
      </trkpt>
      <trkpt lat="49.82856" lon="4.79006">
        <ele>249</ele>
        <time>2021-03-30T11:02:56.000Z</time>
      </trkpt>
      <trkpt lat="49.82856" lon="4.79003">
        <ele>249</ele>
        <time>2021-03-30T11:02:57.000Z</time>
      </trkpt>
      <trkpt lat="49.82855" lon="4.78999">
        <ele>249</ele>
        <time>2021-03-30T11:02:58.000Z</time>
      </trkpt>
      <trkpt lat="49.82855" lon="4.78995">
        <ele>249</ele>
        <time>2021-03-30T11:02:59.000Z</time>
      </trkpt>
      <trkpt lat="49.82855" lon="4.78992">
        <ele>249</ele>
        <time>2021-03-30T11:03:00.000Z</time>
      </trkpt>
      <trkpt lat="49.82855" lon="4.78988">
        <ele>249</ele>
        <time>2021-03-30T11:03:01.000Z</time>
      </trkpt>
      <trkpt lat="49.82856" lon="4.78985">
        <ele>250</ele>
        <time>2021-03-30T11:03:02.000Z</time>
      </trkpt>
      <trkpt lat="49.82857" lon="4.78982">
        <ele>250</ele>
        <time>2021-03-30T11:03:03.000Z</time>
      </trkpt>
      <trkpt lat="49.82858" lon="4.7898">
        <ele>250</ele>
        <time>2021-03-30T11:03:04.000Z</time>
      </trkpt>
      <trkpt lat="49.82859" lon="4.78977">
        <ele>251</ele>
        <time>2021-03-30T11:03:05.000Z</time>
      </trkpt>
      <trkpt lat="49.82861" lon="4.78975">
        <ele>251</ele>
        <time>2021-03-30T11:03:06.000Z</time>
      </trkpt>
      <trkpt lat="49.82862" lon="4.78974">
        <ele>251</ele>
        <time>2021-03-30T11:03:07.000Z</time>
      </trkpt>
      <trkpt lat="49.82864" lon="4.78973">
        <ele>252</ele>
        <time>2021-03-30T11:03:08.000Z</time>
      </trkpt>
      <trkpt lat="49.82864" lon="4.78972">
        <ele>252</ele>
        <time>2021-03-30T11:03:09.000Z</time>
      </trkpt>
      <trkpt lat="49.82865" lon="4.78972">
        <ele>252</ele>
        <time>2021-03-30T11:03:10.000Z</time>
      </trkpt>
      <trkpt lat="49.82867" lon="4.78973">
        <ele>253</ele>
        <time>2021-03-30T11:03:11.000Z</time>
      </trkpt>
      <trkpt lat="49.82869" lon="4.78973">
        <ele>253</ele>
        <time>2021-03-30T11:03:12.000Z</time>
      </trkpt>
      <trkpt lat="49.8287" lon="4.78974">
        <ele>254</ele>
        <time>2021-03-30T11:03:13.000Z</time>
      </trkpt>
      <trkpt lat="49.82871" lon="4.78975">
        <ele>254</ele>
        <time>2021-03-30T11:03:14.000Z</time>
      </trkpt>
      <trkpt lat="49.82874" lon="4.78976">
        <ele>254</ele>
        <time>2021-03-30T11:03:15.000Z</time>
      </trkpt>
      <trkpt lat="49.82876" lon="4.78978">
        <ele>255</ele>
        <time>2021-03-30T11:03:16.000Z</time>
      </trkpt>
      <trkpt lat="49.82878" lon="4.78979">
        <ele>255</ele>
        <time>2021-03-30T11:03:17.000Z</time>
      </trkpt>
      <trkpt lat="49.8288" lon="4.78982">
        <ele>255</ele>
        <time>2021-03-30T11:03:18.000Z</time>
      </trkpt>
      <trkpt lat="49.82882" lon="4.78984">
        <ele>255</ele>
        <time>2021-03-30T11:03:19.000Z</time>
      </trkpt>
      <trkpt lat="49.82885" lon="4.78986">
        <ele>256</ele>
        <time>2021-03-30T11:03:20.000Z</time>
      </trkpt>
      <trkpt lat="49.82888" lon="4.78988">
        <ele>256</ele>
        <time>2021-03-30T11:03:21.000Z</time>
      </trkpt>
      <trkpt lat="49.82891" lon="4.7899">
        <ele>256</ele>
        <time>2021-03-30T11:03:22.000Z</time>
      </trkpt>
      <trkpt lat="49.82893" lon="4.78992">
        <ele>256</ele>
        <time>2021-03-30T11:03:23.000Z</time>
      </trkpt>
      <trkpt lat="49.82896" lon="4.78995">
        <ele>256</ele>
        <time>2021-03-30T11:03:24.000Z</time>
      </trkpt>
      <trkpt lat="49.82898" lon="4.78997">
        <ele>257</ele>
        <time>2021-03-30T11:03:25.000Z</time>
      </trkpt>
      <trkpt lat="49.82901" lon="4.79">
        <ele>257</ele>
        <time>2021-03-30T11:03:26.000Z</time>
      </trkpt>
      <trkpt lat="49.82903" lon="4.79003">
        <ele>257</ele>
        <time>2021-03-30T11:03:27.000Z</time>
      </trkpt>
      <trkpt lat="49.82905" lon="4.79005">
        <ele>258</ele>
        <time>2021-03-30T11:03:28.000Z</time>
      </trkpt>
      <trkpt lat="49.82908" lon="4.79008">
        <ele>258</ele>
        <time>2021-03-30T11:03:29.000Z</time>
      </trkpt>
      <trkpt lat="49.8291" lon="4.7901">
        <ele>258</ele>
        <time>2021-03-30T11:03:30.000Z</time>
      </trkpt>
      <trkpt lat="49.82913" lon="4.79013">
        <ele>259</ele>
        <time>2021-03-30T11:03:31.000Z</time>
      </trkpt>
      <trkpt lat="49.82915" lon="4.79015">
        <ele>259</ele>
        <time>2021-03-30T11:03:32.000Z</time>
      </trkpt>
      <trkpt lat="49.82918" lon="4.79018">
        <ele>259</ele>
        <time>2021-03-30T11:03:33.000Z</time>
      </trkpt>
      <trkpt lat="49.8292" lon="4.7902">
        <ele>259</ele>
        <time>2021-03-30T11:03:34.000Z</time>
      </trkpt>
      <trkpt lat="49.82923" lon="4.79023">
        <ele>260</ele>
        <time>2021-03-30T11:03:35.000Z</time>
      </trkpt>
      <trkpt lat="49.82926" lon="4.79025">
        <ele>260</ele>
        <time>2021-03-30T11:03:36.000Z</time>
      </trkpt>
      <trkpt lat="49.82928" lon="4.79028">
        <ele>260</ele>
        <time>2021-03-30T11:03:37.000Z</time>
      </trkpt>
      <trkpt lat="49.82931" lon="4.79031">
        <ele>261</ele>
        <time>2021-03-30T11:03:38.000Z</time>
      </trkpt>
      <trkpt lat="49.82933" lon="4.79033">
        <ele>261</ele>
        <time>2021-03-30T11:03:39.000Z</time>
      </trkpt>
      <trkpt lat="49.82936" lon="4.79036">
        <ele>261</ele>
        <time>2021-03-30T11:03:40.000Z</time>
      </trkpt>
      <trkpt lat="49.82938" lon="4.79039">
        <ele>261</ele>
        <time>2021-03-30T11:03:41.000Z</time>
      </trkpt>
      <trkpt lat="49.82941" lon="4.79041">
        <ele>261</ele>
        <time>2021-03-30T11:03:42.000Z</time>
      </trkpt>
      <trkpt lat="49.82943" lon="4.79043">
        <ele>262</ele>
        <time>2021-03-30T11:03:43.000Z</time>
      </trkpt>
      <trkpt lat="49.82945" lon="4.79046">
        <ele>262</ele>
        <time>2021-03-30T11:03:44.000Z</time>
      </trkpt>
      <trkpt lat="49.82948" lon="4.79049">
        <ele>262</ele>
        <time>2021-03-30T11:03:45.000Z</time>
      </trkpt>
      <trkpt lat="49.82949" lon="4.79051">
        <ele>262</ele>
        <time>2021-03-30T11:03:46.000Z</time>
      </trkpt>
      <trkpt lat="49.82952" lon="4.79053">
        <ele>262</ele>
        <time>2021-03-30T11:03:47.000Z</time>
      </trkpt>
      <trkpt lat="49.82954" lon="4.79055">
        <ele>262</ele>
        <time>2021-03-30T11:03:48.000Z</time>
      </trkpt>
      <trkpt lat="49.82956" lon="4.79057">
        <ele>262</ele>
        <time>2021-03-30T11:03:49.000Z</time>
      </trkpt>
      <trkpt lat="49.82958" lon="4.7906">
        <ele>262</ele>
        <time>2021-03-30T11:03:50.000Z</time>
      </trkpt>
      <trkpt lat="49.8296" lon="4.79063">
        <ele>263</ele>
        <time>2021-03-30T11:03:51.000Z</time>
      </trkpt>
      <trkpt lat="49.82962" lon="4.79065">
        <ele>263</ele>
        <time>2021-03-30T11:03:52.000Z</time>
      </trkpt>
      <trkpt lat="49.82965" lon="4.79067">
        <ele>263</ele>
        <time>2021-03-30T11:03:53.000Z</time>
      </trkpt>
      <trkpt lat="49.82967" lon="4.7907">
        <ele>263</ele>
        <time>2021-03-30T11:03:54.000Z</time>
      </trkpt>
      <trkpt lat="49.82969" lon="4.79072">
        <ele>264</ele>
        <time>2021-03-30T11:03:55.000Z</time>
      </trkpt>
      <trkpt lat="49.82971" lon="4.79074">
        <ele>264</ele>
        <time>2021-03-30T11:03:56.000Z</time>
      </trkpt>
      <trkpt lat="49.82973" lon="4.79076">
        <ele>264</ele>
        <time>2021-03-30T11:03:57.000Z</time>
      </trkpt>
      <trkpt lat="49.82975" lon="4.79078">
        <ele>264</ele>
        <time>2021-03-30T11:03:58.000Z</time>
      </trkpt>
      <trkpt lat="49.82978" lon="4.79081">
        <ele>265</ele>
        <time>2021-03-30T11:03:59.000Z</time>
      </trkpt>
      <trkpt lat="49.8298" lon="4.79083">
        <ele>265</ele>
        <time>2021-03-30T11:04:00.000Z</time>
      </trkpt>
      <trkpt lat="49.82981" lon="4.79085">
        <ele>265</ele>
        <time>2021-03-30T11:04:01.000Z</time>
      </trkpt>
      <trkpt lat="49.82983" lon="4.79087">
        <ele>266</ele>
        <time>2021-03-30T11:04:02.000Z</time>
      </trkpt>
      <trkpt lat="49.82985" lon="4.79089">
        <ele>266</ele>
        <time>2021-03-30T11:04:03.000Z</time>
      </trkpt>
      <trkpt lat="49.82986" lon="4.79091">
        <ele>266</ele>
        <time>2021-03-30T11:04:04.000Z</time>
      </trkpt>
      <trkpt lat="49.82988" lon="4.79093">
        <ele>266</ele>
        <time>2021-03-30T11:04:05.000Z</time>
      </trkpt>
      <trkpt lat="49.8299" lon="4.79095">
        <ele>267</ele>
        <time>2021-03-30T11:04:06.000Z</time>
      </trkpt>
      <trkpt lat="49.82993" lon="4.79097">
        <ele>267</ele>
        <time>2021-03-30T11:04:07.000Z</time>
      </trkpt>
      <trkpt lat="49.82995" lon="4.79099">
        <ele>267</ele>
        <time>2021-03-30T11:04:08.000Z</time>
      </trkpt>
      <trkpt lat="49.82997" lon="4.791">
        <ele>267</ele>
        <time>2021-03-30T11:04:09.000Z</time>
      </trkpt>
      <trkpt lat="49.82999" lon="4.79101">
        <ele>268</ele>
        <time>2021-03-30T11:04:10.000Z</time>
      </trkpt>
      <trkpt lat="49.83001" lon="4.79102">
        <ele>268</ele>
        <time>2021-03-30T11:04:11.000Z</time>
      </trkpt>
      <trkpt lat="49.83003" lon="4.79104">
        <ele>268</ele>
        <time>2021-03-30T11:04:12.000Z</time>
      </trkpt>
      <trkpt lat="49.83006" lon="4.79105">
        <ele>268</ele>
        <time>2021-03-30T11:04:13.000Z</time>
      </trkpt>
      <trkpt lat="49.83008" lon="4.79106">
        <ele>269</ele>
        <time>2021-03-30T11:04:14.000Z</time>
      </trkpt>
      <trkpt lat="49.83011" lon="4.79106">
        <ele>269</ele>
        <time>2021-03-30T11:04:15.000Z</time>
      </trkpt>
      <trkpt lat="49.83013" lon="4.79107">
        <ele>269</ele>
        <time>2021-03-30T11:04:16.000Z</time>
      </trkpt>
      <trkpt lat="49.83015" lon="4.79108">
        <ele>269</ele>
        <time>2021-03-30T11:04:17.000Z</time>
      </trkpt>
      <trkpt lat="49.83018" lon="4.79108">
        <ele>270</ele>
        <time>2021-03-30T11:04:18.000Z</time>
      </trkpt>
      <trkpt lat="49.83021" lon="4.79109">
        <ele>270</ele>
        <time>2021-03-30T11:04:19.000Z</time>
      </trkpt>
      <trkpt lat="49.83023" lon="4.7911">
        <ele>270</ele>
        <time>2021-03-30T11:04:20.000Z</time>
      </trkpt>
      <trkpt lat="49.83026" lon="4.7911">
        <ele>271</ele>
        <time>2021-03-30T11:04:21.000Z</time>
      </trkpt>
      <trkpt lat="49.83029" lon="4.79111">
        <ele>271</ele>
        <time>2021-03-30T11:04:22.000Z</time>
      </trkpt>
      <trkpt lat="49.83031" lon="4.79113">
        <ele>271</ele>
        <time>2021-03-30T11:04:23.000Z</time>
      </trkpt>
      <trkpt lat="49.83033" lon="4.79114">
        <ele>271</ele>
        <time>2021-03-30T11:04:24.000Z</time>
      </trkpt>
      <trkpt lat="49.83035" lon="4.79116">
        <ele>272</ele>
        <time>2021-03-30T11:04:25.000Z</time>
      </trkpt>
      <trkpt lat="49.83038" lon="4.79119">
        <ele>272</ele>
        <time>2021-03-30T11:04:26.000Z</time>
      </trkpt>
      <trkpt lat="49.8304" lon="4.79122">
        <ele>272</ele>
        <time>2021-03-30T11:04:27.000Z</time>
      </trkpt>
      <trkpt lat="49.83042" lon="4.79124">
        <ele>272</ele>
        <time>2021-03-30T11:04:28.000Z</time>
      </trkpt>
      <trkpt lat="49.83044" lon="4.79127">
        <ele>272</ele>
        <time>2021-03-30T11:04:29.000Z</time>
      </trkpt>
      <trkpt lat="49.83046" lon="4.7913">
        <ele>273</ele>
        <time>2021-03-30T11:04:30.000Z</time>
      </trkpt>
      <trkpt lat="49.83048" lon="4.79133">
        <ele>273</ele>
        <time>2021-03-30T11:04:31.000Z</time>
      </trkpt>
      <trkpt lat="49.8305" lon="4.79136">
        <ele>273</ele>
        <time>2021-03-30T11:04:32.000Z</time>
      </trkpt>
      <trkpt lat="49.83052" lon="4.7914">
        <ele>273</ele>
        <time>2021-03-30T11:04:33.000Z</time>
      </trkpt>
      <trkpt lat="49.83053" lon="4.79144">
        <ele>274</ele>
        <time>2021-03-30T11:04:34.000Z</time>
      </trkpt>
      <trkpt lat="49.83055" lon="4.79148">
        <ele>274</ele>
        <time>2021-03-30T11:04:35.000Z</time>
      </trkpt>
      <trkpt lat="49.83057" lon="4.79152">
        <ele>274</ele>
        <time>2021-03-30T11:04:36.000Z</time>
      </trkpt>
      <trkpt lat="49.83059" lon="4.79156">
        <ele>275</ele>
        <time>2021-03-30T11:04:37.000Z</time>
      </trkpt>
      <trkpt lat="49.8306" lon="4.79161">
        <ele>275</ele>
        <time>2021-03-30T11:04:38.000Z</time>
      </trkpt>
      <trkpt lat="49.83062" lon="4.79165">
        <ele>275</ele>
        <time>2021-03-30T11:04:39.000Z</time>
      </trkpt>
      <trkpt lat="49.83063" lon="4.79169">
        <ele>275</ele>
        <time>2021-03-30T11:04:40.000Z</time>
      </trkpt>
      <trkpt lat="49.83064" lon="4.79173">
        <ele>275</ele>
        <time>2021-03-30T11:04:41.000Z</time>
      </trkpt>
      <trkpt lat="49.83066" lon="4.79177">
        <ele>276</ele>
        <time>2021-03-30T11:04:42.000Z</time>
      </trkpt>
      <trkpt lat="49.83068" lon="4.7918">
        <ele>276</ele>
        <time>2021-03-30T11:04:43.000Z</time>
      </trkpt>
      <trkpt lat="49.83068" lon="4.79184">
        <ele>276</ele>
        <time>2021-03-30T11:04:44.000Z</time>
      </trkpt>
      <trkpt lat="49.83069" lon="4.79188">
        <ele>277</ele>
        <time>2021-03-30T11:04:45.000Z</time>
      </trkpt>
      <trkpt lat="49.83071" lon="4.79191">
        <ele>277</ele>
        <time>2021-03-30T11:04:46.000Z</time>
      </trkpt>
      <trkpt lat="49.83073" lon="4.79195">
        <ele>277</ele>
        <time>2021-03-30T11:04:47.000Z</time>
      </trkpt>
      <trkpt lat="49.83074" lon="4.79198">
        <ele>278</ele>
        <time>2021-03-30T11:04:48.000Z</time>
      </trkpt>
      <trkpt lat="49.83076" lon="4.79201">
        <ele>278</ele>
        <time>2021-03-30T11:04:49.000Z</time>
      </trkpt>
      <trkpt lat="49.83078" lon="4.79204">
        <ele>279</ele>
        <time>2021-03-30T11:04:50.000Z</time>
      </trkpt>
      <trkpt lat="49.8308" lon="4.79207">
        <ele>279</ele>
        <time>2021-03-30T11:04:51.000Z</time>
      </trkpt>
      <trkpt lat="49.83082" lon="4.79209">
        <ele>280</ele>
        <time>2021-03-30T11:04:52.000Z</time>
      </trkpt>
      <trkpt lat="49.83083" lon="4.79211">
        <ele>280</ele>
        <time>2021-03-30T11:04:53.000Z</time>
      </trkpt>
      <trkpt lat="49.83085" lon="4.79213">
        <ele>281</ele>
        <time>2021-03-30T11:04:54.000Z</time>
      </trkpt>
      <trkpt lat="49.83087" lon="4.79214">
        <ele>281</ele>
        <time>2021-03-30T11:04:55.000Z</time>
      </trkpt>
      <trkpt lat="49.83089" lon="4.79214">
        <ele>281</ele>
        <time>2021-03-30T11:04:56.000Z</time>
      </trkpt>
      <trkpt lat="49.83091" lon="4.79214">
        <ele>282</ele>
        <time>2021-03-30T11:04:57.000Z</time>
      </trkpt>
      <trkpt lat="49.83094" lon="4.79214">
        <ele>282</ele>
        <time>2021-03-30T11:04:58.000Z</time>
      </trkpt>
      <trkpt lat="49.83097" lon="4.79214">
        <ele>282</ele>
        <time>2021-03-30T11:04:59.000Z</time>
      </trkpt>
      <trkpt lat="49.831" lon="4.79213">
        <ele>282</ele>
        <time>2021-03-30T11:05:00.000Z</time>
      </trkpt>
      <trkpt lat="49.83102" lon="4.79212">
        <ele>283</ele>
        <time>2021-03-30T11:05:01.000Z</time>
      </trkpt>
      <trkpt lat="49.83106" lon="4.79211">
        <ele>283</ele>
        <time>2021-03-30T11:05:02.000Z</time>
      </trkpt>
      <trkpt lat="49.83109" lon="4.7921">
        <ele>283</ele>
        <time>2021-03-30T11:05:03.000Z</time>
      </trkpt>
      <trkpt lat="49.83112" lon="4.79209">
        <ele>283</ele>
        <time>2021-03-30T11:05:04.000Z</time>
      </trkpt>
      <trkpt lat="49.83115" lon="4.79209">
        <ele>283</ele>
        <time>2021-03-30T11:05:05.000Z</time>
      </trkpt>
      <trkpt lat="49.83118" lon="4.7921">
        <ele>283</ele>
        <time>2021-03-30T11:05:06.000Z</time>
      </trkpt>
      <trkpt lat="49.83121" lon="4.7921">
        <ele>283</ele>
        <time>2021-03-30T11:05:07.000Z</time>
      </trkpt>
      <trkpt lat="49.83123" lon="4.79211">
        <ele>283</ele>
        <time>2021-03-30T11:05:08.000Z</time>
      </trkpt>
      <trkpt lat="49.83125" lon="4.79212">
        <ele>283</ele>
        <time>2021-03-30T11:05:09.000Z</time>
      </trkpt>
      <trkpt lat="49.83127" lon="4.79213">
        <ele>283</ele>
        <time>2021-03-30T11:05:10.000Z</time>
      </trkpt>
      <trkpt lat="49.83129" lon="4.79215">
        <ele>283</ele>
        <time>2021-03-30T11:05:11.000Z</time>
      </trkpt>
      <trkpt lat="49.83132" lon="4.79216">
        <ele>283</ele>
        <time>2021-03-30T11:05:12.000Z</time>
      </trkpt>
      <trkpt lat="49.83134" lon="4.79217">
        <ele>283</ele>
        <time>2021-03-30T11:05:13.000Z</time>
      </trkpt>
      <trkpt lat="49.83137" lon="4.79218">
        <ele>283</ele>
        <time>2021-03-30T11:05:14.000Z</time>
      </trkpt>
      <trkpt lat="49.8314" lon="4.79219">
        <ele>283</ele>
        <time>2021-03-30T11:05:15.000Z</time>
      </trkpt>
      <trkpt lat="49.83143" lon="4.7922">
        <ele>283</ele>
        <time>2021-03-30T11:05:16.000Z</time>
      </trkpt>
      <trkpt lat="49.83146" lon="4.79221">
        <ele>283</ele>
        <time>2021-03-30T11:05:17.000Z</time>
      </trkpt>
      <trkpt lat="49.83148" lon="4.79221">
        <ele>283</ele>
        <time>2021-03-30T11:05:18.000Z</time>
      </trkpt>
      <trkpt lat="49.8315" lon="4.79221">
        <ele>283</ele>
        <time>2021-03-30T11:05:19.000Z</time>
      </trkpt>
      <trkpt lat="49.83152" lon="4.79222">
        <ele>283</ele>
        <time>2021-03-30T11:05:20.000Z</time>
      </trkpt>
      <trkpt lat="49.83154" lon="4.79221">
        <ele>283</ele>
        <time>2021-03-30T11:05:21.000Z</time>
      </trkpt>
      <trkpt lat="49.83156" lon="4.79221">
        <ele>283</ele>
        <time>2021-03-30T11:05:22.000Z</time>
      </trkpt>
      <trkpt lat="49.83158" lon="4.79221">
        <ele>284</ele>
        <time>2021-03-30T11:05:23.000Z</time>
      </trkpt>
      <trkpt lat="49.8316" lon="4.7922">
        <ele>284</ele>
        <time>2021-03-30T11:05:24.000Z</time>
      </trkpt>
      <trkpt lat="49.83162" lon="4.7922">
        <ele>284</ele>
        <time>2021-03-30T11:05:25.000Z</time>
      </trkpt>
      <trkpt lat="49.83164" lon="4.79219">
        <ele>285</ele>
        <time>2021-03-30T11:05:26.000Z</time>
      </trkpt>
      <trkpt lat="49.83166" lon="4.79218">
        <ele>285</ele>
        <time>2021-03-30T11:05:27.000Z</time>
      </trkpt>
      <trkpt lat="49.83168" lon="4.79217">
        <ele>285</ele>
        <time>2021-03-30T11:05:28.000Z</time>
      </trkpt>
      <trkpt lat="49.83171" lon="4.79217">
        <ele>285</ele>
        <time>2021-03-30T11:05:29.000Z</time>
      </trkpt>
      <trkpt lat="49.83173" lon="4.79216">
        <ele>286</ele>
        <time>2021-03-30T11:05:30.000Z</time>
      </trkpt>
      <trkpt lat="49.83175" lon="4.79215">
        <ele>286</ele>
        <time>2021-03-30T11:05:31.000Z</time>
      </trkpt>
      <trkpt lat="49.83177" lon="4.79214">
        <ele>286</ele>
        <time>2021-03-30T11:05:32.000Z</time>
      </trkpt>
      <trkpt lat="49.83179" lon="4.79212">
        <ele>286</ele>
        <time>2021-03-30T11:05:33.000Z</time>
      </trkpt>
      <trkpt lat="49.83181" lon="4.7921">
        <ele>286</ele>
        <time>2021-03-30T11:05:34.000Z</time>
      </trkpt>
      <trkpt lat="49.83184" lon="4.79207">
        <ele>287</ele>
        <time>2021-03-30T11:05:35.000Z</time>
      </trkpt>
      <trkpt lat="49.83186" lon="4.79205">
        <ele>287</ele>
        <time>2021-03-30T11:05:36.000Z</time>
      </trkpt>
      <trkpt lat="49.83188" lon="4.79201">
        <ele>287</ele>
        <time>2021-03-30T11:05:37.000Z</time>
      </trkpt>
      <trkpt lat="49.83191" lon="4.79198">
        <ele>287</ele>
        <time>2021-03-30T11:05:38.000Z</time>
      </trkpt>
      <trkpt lat="49.83193" lon="4.79194">
        <ele>287</ele>
        <time>2021-03-30T11:05:39.000Z</time>
      </trkpt>
      <trkpt lat="49.83194" lon="4.79191">
        <ele>287</ele>
        <time>2021-03-30T11:05:40.000Z</time>
      </trkpt>
      <trkpt lat="49.83196" lon="4.79187">
        <ele>287</ele>
        <time>2021-03-30T11:05:41.000Z</time>
      </trkpt>
      <trkpt lat="49.83197" lon="4.79183">
        <ele>287</ele>
        <time>2021-03-30T11:05:42.000Z</time>
      </trkpt>
      <trkpt lat="49.83198" lon="4.79179">
        <ele>287</ele>
        <time>2021-03-30T11:05:43.000Z</time>
      </trkpt>
      <trkpt lat="49.83199" lon="4.79175">
        <ele>287</ele>
        <time>2021-03-30T11:05:44.000Z</time>
      </trkpt>
      <trkpt lat="49.83201" lon="4.79171">
        <ele>288</ele>
        <time>2021-03-30T11:05:45.000Z</time>
      </trkpt>
      <trkpt lat="49.83202" lon="4.79168">
        <ele>288</ele>
        <time>2021-03-30T11:05:46.000Z</time>
      </trkpt>
      <trkpt lat="49.83203" lon="4.79164">
        <ele>288</ele>
        <time>2021-03-30T11:05:47.000Z</time>
      </trkpt>
      <trkpt lat="49.83204" lon="4.7916">
        <ele>288</ele>
        <time>2021-03-30T11:05:48.000Z</time>
      </trkpt>
      <trkpt lat="49.83206" lon="4.79156">
        <ele>288</ele>
        <time>2021-03-30T11:05:49.000Z</time>
      </trkpt>
      <trkpt lat="49.83207" lon="4.79153">
        <ele>288</ele>
        <time>2021-03-30T11:05:50.000Z</time>
      </trkpt>
      <trkpt lat="49.83208" lon="4.79149">
        <ele>289</ele>
        <time>2021-03-30T11:05:51.000Z</time>
      </trkpt>
      <trkpt lat="49.83209" lon="4.79146">
        <ele>289</ele>
        <time>2021-03-30T11:05:52.000Z</time>
      </trkpt>
      <trkpt lat="49.83209" lon="4.79142">
        <ele>289</ele>
        <time>2021-03-30T11:05:53.000Z</time>
      </trkpt>
      <trkpt lat="49.8321" lon="4.79138">
        <ele>289</ele>
        <time>2021-03-30T11:05:54.000Z</time>
      </trkpt>
      <trkpt lat="49.83211" lon="4.79135">
        <ele>290</ele>
        <time>2021-03-30T11:05:55.000Z</time>
      </trkpt>
      <trkpt lat="49.83212" lon="4.79132">
        <ele>290</ele>
        <time>2021-03-30T11:05:56.000Z</time>
      </trkpt>
      <trkpt lat="49.83214" lon="4.79128">
        <ele>290</ele>
        <time>2021-03-30T11:05:57.000Z</time>
      </trkpt>
      <trkpt lat="49.83216" lon="4.79125">
        <ele>290</ele>
        <time>2021-03-30T11:05:58.000Z</time>
      </trkpt>
      <trkpt lat="49.83217" lon="4.79121">
        <ele>290</ele>
        <time>2021-03-30T11:05:59.000Z</time>
      </trkpt>
      <trkpt lat="49.83219" lon="4.79117">
        <ele>290</ele>
        <time>2021-03-30T11:06:00.000Z</time>
      </trkpt>
      <trkpt lat="49.83221" lon="4.79114">
        <ele>290</ele>
        <time>2021-03-30T11:06:01.000Z</time>
      </trkpt>
      <trkpt lat="49.83223" lon="4.7911">
        <ele>291</ele>
        <time>2021-03-30T11:06:02.000Z</time>
      </trkpt>
      <trkpt lat="49.83225" lon="4.79107">
        <ele>291</ele>
        <time>2021-03-30T11:06:03.000Z</time>
      </trkpt>
      <trkpt lat="49.83227" lon="4.79103">
        <ele>291</ele>
        <time>2021-03-30T11:06:04.000Z</time>
      </trkpt>
      <trkpt lat="49.83229" lon="4.791">
        <ele>291</ele>
        <time>2021-03-30T11:06:05.000Z</time>
      </trkpt>
      <trkpt lat="49.83231" lon="4.79097">
        <ele>292</ele>
        <time>2021-03-30T11:06:06.000Z</time>
      </trkpt>
      <trkpt lat="49.83234" lon="4.79094">
        <ele>292</ele>
        <time>2021-03-30T11:06:07.000Z</time>
      </trkpt>
      <trkpt lat="49.83237" lon="4.79091">
        <ele>292</ele>
        <time>2021-03-30T11:06:08.000Z</time>
      </trkpt>
      <trkpt lat="49.83239" lon="4.7909">
        <ele>292</ele>
        <time>2021-03-30T11:06:09.000Z</time>
      </trkpt>
      <trkpt lat="49.83241" lon="4.79088">
        <ele>293</ele>
        <time>2021-03-30T11:06:10.000Z</time>
      </trkpt>
      <trkpt lat="49.83243" lon="4.79087">
        <ele>293</ele>
        <time>2021-03-30T11:06:11.000Z</time>
      </trkpt>
      <trkpt lat="49.83245" lon="4.79086">
        <ele>293</ele>
        <time>2021-03-30T11:06:12.000Z</time>
      </trkpt>
      <trkpt lat="49.83248" lon="4.79086">
        <ele>293</ele>
        <time>2021-03-30T11:06:13.000Z</time>
      </trkpt>
      <trkpt lat="49.83251" lon="4.79086">
        <ele>293</ele>
        <time>2021-03-30T11:06:14.000Z</time>
      </trkpt>
      <trkpt lat="49.83254" lon="4.79087">
        <ele>294</ele>
        <time>2021-03-30T11:06:15.000Z</time>
      </trkpt>
      <trkpt lat="49.83256" lon="4.79087">
        <ele>294</ele>
        <time>2021-03-30T11:06:16.000Z</time>
      </trkpt>
      <trkpt lat="49.83258" lon="4.79087">
        <ele>294</ele>
        <time>2021-03-30T11:06:17.000Z</time>
      </trkpt>
      <trkpt lat="49.83261" lon="4.79088">
        <ele>294</ele>
        <time>2021-03-30T11:06:18.000Z</time>
      </trkpt>
      <trkpt lat="49.83263" lon="4.79088">
        <ele>294</ele>
        <time>2021-03-30T11:06:19.000Z</time>
      </trkpt>
      <trkpt lat="49.83266" lon="4.79089">
        <ele>294</ele>
        <time>2021-03-30T11:06:20.000Z</time>
      </trkpt>
      <trkpt lat="49.83269" lon="4.79089">
        <ele>294</ele>
        <time>2021-03-30T11:06:21.000Z</time>
      </trkpt>
      <trkpt lat="49.83272" lon="4.7909">
        <ele>294</ele>
        <time>2021-03-30T11:06:22.000Z</time>
      </trkpt>
      <trkpt lat="49.83275" lon="4.7909">
        <ele>294</ele>
        <time>2021-03-30T11:06:23.000Z</time>
      </trkpt>
      <trkpt lat="49.83278" lon="4.79089">
        <ele>294</ele>
        <time>2021-03-30T11:06:24.000Z</time>
      </trkpt>
      <trkpt lat="49.83282" lon="4.79088">
        <ele>294</ele>
        <time>2021-03-30T11:06:25.000Z</time>
      </trkpt>
      <trkpt lat="49.83285" lon="4.79087">
        <ele>294</ele>
        <time>2021-03-30T11:06:26.000Z</time>
      </trkpt>
      <trkpt lat="49.8329" lon="4.79083">
        <ele>293</ele>
        <time>2021-03-30T11:06:27.000Z</time>
      </trkpt>
      <trkpt lat="49.83296" lon="4.79079">
        <ele>293</ele>
        <time>2021-03-30T11:06:28.000Z</time>
      </trkpt>
      <trkpt lat="49.83301" lon="4.79073">
        <ele>293</ele>
        <time>2021-03-30T11:06:29.000Z</time>
      </trkpt>
      <trkpt lat="49.83307" lon="4.79065">
        <ele>293</ele>
        <time>2021-03-30T11:06:30.000Z</time>
      </trkpt>
      <trkpt lat="49.83314" lon="4.79056">
        <ele>293</ele>
        <time>2021-03-30T11:06:31.000Z</time>
      </trkpt>
      <trkpt lat="49.8332" lon="4.79048">
        <ele>293</ele>
        <time>2021-03-30T11:06:32.000Z</time>
      </trkpt>
      <trkpt lat="49.83325" lon="4.79037">
        <ele>292</ele>
        <time>2021-03-30T11:06:33.000Z</time>
      </trkpt>
      <trkpt lat="49.83331" lon="4.79026">
        <ele>292</ele>
        <time>2021-03-30T11:06:34.000Z</time>
      </trkpt>
      <trkpt lat="49.83336" lon="4.79016">
        <ele>292</ele>
        <time>2021-03-30T11:06:35.000Z</time>
      </trkpt>
      <trkpt lat="49.83341" lon="4.79005">
        <ele>291</ele>
        <time>2021-03-30T11:06:36.000Z</time>
      </trkpt>
      <trkpt lat="49.83346" lon="4.78994">
        <ele>291</ele>
        <time>2021-03-30T11:06:37.000Z</time>
      </trkpt>
      <trkpt lat="49.83351" lon="4.78983">
        <ele>291</ele>
        <time>2021-03-30T11:06:38.000Z</time>
      </trkpt>
      <trkpt lat="49.83356" lon="4.78972">
        <ele>291</ele>
        <time>2021-03-30T11:06:39.000Z</time>
      </trkpt>
      <trkpt lat="49.83361" lon="4.78962">
        <ele>291</ele>
        <time>2021-03-30T11:06:40.000Z</time>
      </trkpt>
      <trkpt lat="49.83366" lon="4.78952">
        <ele>291</ele>
        <time>2021-03-30T11:06:41.000Z</time>
      </trkpt>
      <trkpt lat="49.83372" lon="4.78943">
        <ele>291</ele>
        <time>2021-03-30T11:06:42.000Z</time>
      </trkpt>
      <trkpt lat="49.83378" lon="4.78936">
        <ele>291</ele>
        <time>2021-03-30T11:06:43.000Z</time>
      </trkpt>
      <trkpt lat="49.83384" lon="4.78928">
        <ele>291</ele>
        <time>2021-03-30T11:06:44.000Z</time>
      </trkpt>
      <trkpt lat="49.83389" lon="4.78922">
        <ele>291</ele>
        <time>2021-03-30T11:06:45.000Z</time>
      </trkpt>
      <trkpt lat="49.83395" lon="4.78916">
        <ele>292</ele>
        <time>2021-03-30T11:06:46.000Z</time>
      </trkpt>
      <trkpt lat="49.834" lon="4.78912">
        <ele>292</ele>
        <time>2021-03-30T11:06:47.000Z</time>
      </trkpt>
      <trkpt lat="49.83404" lon="4.78908">
        <ele>292</ele>
        <time>2021-03-30T11:06:48.000Z</time>
      </trkpt>
      <trkpt lat="49.83407" lon="4.78905">
        <ele>293</ele>
        <time>2021-03-30T11:06:49.000Z</time>
      </trkpt>
      <trkpt lat="49.83409" lon="4.78903">
        <ele>293</ele>
        <time>2021-03-30T11:06:50.000Z</time>
      </trkpt>
      <trkpt lat="49.83413" lon="4.78902">
        <ele>293</ele>
        <time>2021-03-30T11:06:51.000Z</time>
      </trkpt>
      <trkpt lat="49.83417" lon="4.78901">
        <ele>293</ele>
        <time>2021-03-30T11:06:52.000Z</time>
      </trkpt>
      <trkpt lat="49.8342" lon="4.78901">
        <ele>293</ele>
        <time>2021-03-30T11:06:53.000Z</time>
      </trkpt>
      <trkpt lat="49.83423" lon="4.789">
        <ele>294</ele>
        <time>2021-03-30T11:06:54.000Z</time>
      </trkpt>
      <trkpt lat="49.83427" lon="4.78899">
        <ele>294</ele>
        <time>2021-03-30T11:06:55.000Z</time>
      </trkpt>
      <trkpt lat="49.83432" lon="4.78897">
        <ele>294</ele>
        <time>2021-03-30T11:06:56.000Z</time>
      </trkpt>
      <trkpt lat="49.83437" lon="4.78895">
        <ele>295</ele>
        <time>2021-03-30T11:06:57.000Z</time>
      </trkpt>
      <trkpt lat="49.8344" lon="4.78893">
        <ele>295</ele>
        <time>2021-03-30T11:06:58.000Z</time>
      </trkpt>
      <trkpt lat="49.83443" lon="4.78892">
        <ele>295</ele>
        <time>2021-03-30T11:06:59.000Z</time>
      </trkpt>
      <trkpt lat="49.83447" lon="4.78892">
        <ele>296</ele>
        <time>2021-03-30T11:07:00.000Z</time>
      </trkpt>
      <trkpt lat="49.83449" lon="4.78892">
        <ele>296</ele>
        <time>2021-03-30T11:07:01.000Z</time>
      </trkpt>
      <trkpt lat="49.83452" lon="4.7889">
        <ele>296</ele>
        <time>2021-03-30T11:07:02.000Z</time>
      </trkpt>
      <trkpt lat="49.83455" lon="4.78887">
        <ele>296</ele>
        <time>2021-03-30T11:07:03.000Z</time>
      </trkpt>
      <trkpt lat="49.83458" lon="4.78882">
        <ele>297</ele>
        <time>2021-03-30T11:07:04.000Z</time>
      </trkpt>
      <trkpt lat="49.83461" lon="4.78878">
        <ele>297</ele>
        <time>2021-03-30T11:07:05.000Z</time>
      </trkpt>
      <trkpt lat="49.83464" lon="4.78873">
        <ele>297</ele>
        <time>2021-03-30T11:07:06.000Z</time>
      </trkpt>
      <trkpt lat="49.83467" lon="4.78867">
        <ele>297</ele>
        <time>2021-03-30T11:07:07.000Z</time>
      </trkpt>
      <trkpt lat="49.83469" lon="4.78862">
        <ele>297</ele>
        <time>2021-03-30T11:07:08.000Z</time>
      </trkpt>
      <trkpt lat="49.83471" lon="4.78856">
        <ele>297</ele>
        <time>2021-03-30T11:07:09.000Z</time>
      </trkpt>
      <trkpt lat="49.83471" lon="4.7885">
        <ele>297</ele>
        <time>2021-03-30T11:07:10.000Z</time>
      </trkpt>
      <trkpt lat="49.83471" lon="4.78844">
        <ele>297</ele>
        <time>2021-03-30T11:07:11.000Z</time>
      </trkpt>
      <trkpt lat="49.83471" lon="4.78838">
        <ele>297</ele>
        <time>2021-03-30T11:07:12.000Z</time>
      </trkpt>
      <trkpt lat="49.83471" lon="4.78831">
        <ele>297</ele>
        <time>2021-03-30T11:07:13.000Z</time>
      </trkpt>
      <trkpt lat="49.83472" lon="4.78825">
        <ele>297</ele>
        <time>2021-03-30T11:07:14.000Z</time>
      </trkpt>
      <trkpt lat="49.83474" lon="4.78821">
        <ele>297</ele>
        <time>2021-03-30T11:07:15.000Z</time>
      </trkpt>
      <trkpt lat="49.83477" lon="4.78818">
        <ele>297</ele>
        <time>2021-03-30T11:07:16.000Z</time>
      </trkpt>
      <trkpt lat="49.83481" lon="4.78816">
        <ele>297</ele>
        <time>2021-03-30T11:07:17.000Z</time>
      </trkpt>
      <trkpt lat="49.83485" lon="4.78814">
        <ele>297</ele>
        <time>2021-03-30T11:07:18.000Z</time>
      </trkpt>
      <trkpt lat="49.83489" lon="4.78811">
        <ele>297</ele>
        <time>2021-03-30T11:07:19.000Z</time>
      </trkpt>
      <trkpt lat="49.83492" lon="4.78808">
        <ele>297</ele>
        <time>2021-03-30T11:07:20.000Z</time>
      </trkpt>
      <trkpt lat="49.83495" lon="4.78804">
        <ele>297</ele>
        <time>2021-03-30T11:07:21.000Z</time>
      </trkpt>
      <trkpt lat="49.83498" lon="4.78799">
        <ele>297</ele>
        <time>2021-03-30T11:07:22.000Z</time>
      </trkpt>
      <trkpt lat="49.835" lon="4.78794">
        <ele>297</ele>
        <time>2021-03-30T11:07:23.000Z</time>
      </trkpt>
      <trkpt lat="49.83501" lon="4.7879">
        <ele>297</ele>
        <time>2021-03-30T11:07:24.000Z</time>
      </trkpt>
      <trkpt lat="49.835" lon="4.78789">
        <ele>296</ele>
        <time>2021-03-30T11:07:25.000Z</time>
      </trkpt>
      <trkpt lat="49.83499" lon="4.78787">
        <ele>296</ele>
        <time>2021-03-30T11:07:26.000Z</time>
      </trkpt>
      <trkpt lat="49.83497" lon="4.78786">
        <ele>296</ele>
        <time>2021-03-30T11:07:27.000Z</time>
      </trkpt>
      <trkpt lat="49.83495" lon="4.78784">
        <ele>296</ele>
        <time>2021-03-30T11:07:28.000Z</time>
      </trkpt>
      <trkpt lat="49.83492" lon="4.78782">
        <ele>296</ele>
        <time>2021-03-30T11:07:29.000Z</time>
      </trkpt>
      <trkpt lat="49.8349" lon="4.7878">
        <ele>296</ele>
        <time>2021-03-30T11:07:30.000Z</time>
      </trkpt>
      <trkpt lat="49.83487" lon="4.78778">
        <ele>296</ele>
        <time>2021-03-30T11:07:31.000Z</time>
      </trkpt>
      <trkpt lat="49.83485" lon="4.78774">
        <ele>296</ele>
        <time>2021-03-30T11:07:32.000Z</time>
      </trkpt>
      <trkpt lat="49.83483" lon="4.7877">
        <ele>295</ele>
        <time>2021-03-30T11:07:33.000Z</time>
      </trkpt>
      <trkpt lat="49.83482" lon="4.78765">
        <ele>295</ele>
        <time>2021-03-30T11:07:34.000Z</time>
      </trkpt>
      <trkpt lat="49.8348" lon="4.78761">
        <ele>295</ele>
        <time>2021-03-30T11:07:35.000Z</time>
      </trkpt>
      <trkpt lat="49.83479" lon="4.78758">
        <ele>294</ele>
        <time>2021-03-30T11:07:36.000Z</time>
      </trkpt>
      <trkpt lat="49.83478" lon="4.78755">
        <ele>294</ele>
        <time>2021-03-30T11:07:37.000Z</time>
      </trkpt>
      <trkpt lat="49.83476" lon="4.78752">
        <ele>294</ele>
        <time>2021-03-30T11:07:38.000Z</time>
      </trkpt>
      <trkpt lat="49.83474" lon="4.78748">
        <ele>294</ele>
        <time>2021-03-30T11:07:39.000Z</time>
      </trkpt>
      <trkpt lat="49.83472" lon="4.78744">
        <ele>293</ele>
        <time>2021-03-30T11:07:40.000Z</time>
      </trkpt>
      <trkpt lat="49.83469" lon="4.7874">
        <ele>293</ele>
        <time>2021-03-30T11:07:41.000Z</time>
      </trkpt>
      <trkpt lat="49.83467" lon="4.78735">
        <ele>293</ele>
        <time>2021-03-30T11:07:42.000Z</time>
      </trkpt>
      <trkpt lat="49.83465" lon="4.78732">
        <ele>293</ele>
        <time>2021-03-30T11:07:43.000Z</time>
      </trkpt>
      <trkpt lat="49.83462" lon="4.78728">
        <ele>292</ele>
        <time>2021-03-30T11:07:44.000Z</time>
      </trkpt>
      <trkpt lat="49.83459" lon="4.78725">
        <ele>292</ele>
        <time>2021-03-30T11:07:45.000Z</time>
      </trkpt>
      <trkpt lat="49.83457" lon="4.78721">
        <ele>292</ele>
        <time>2021-03-30T11:07:46.000Z</time>
      </trkpt>
      <trkpt lat="49.83454" lon="4.78717">
        <ele>292</ele>
        <time>2021-03-30T11:07:47.000Z</time>
      </trkpt>
      <trkpt lat="49.83451" lon="4.78712">
        <ele>292</ele>
        <time>2021-03-30T11:07:48.000Z</time>
      </trkpt>
      <trkpt lat="49.83447" lon="4.78706">
        <ele>292</ele>
        <time>2021-03-30T11:07:49.000Z</time>
      </trkpt>
      <trkpt lat="49.83443" lon="4.78701">
        <ele>292</ele>
        <time>2021-03-30T11:07:50.000Z</time>
      </trkpt>
      <trkpt lat="49.83441" lon="4.78697">
        <ele>291</ele>
        <time>2021-03-30T11:07:51.000Z</time>
      </trkpt>
      <trkpt lat="49.83439" lon="4.78693">
        <ele>291</ele>
        <time>2021-03-30T11:07:52.000Z</time>
      </trkpt>
      <trkpt lat="49.83437" lon="4.78689">
        <ele>291</ele>
        <time>2021-03-30T11:07:53.000Z</time>
      </trkpt>
      <trkpt lat="49.83435" lon="4.78686">
        <ele>291</ele>
        <time>2021-03-30T11:07:54.000Z</time>
      </trkpt>
      <trkpt lat="49.83434" lon="4.78684">
        <ele>291</ele>
        <time>2021-03-30T11:07:55.000Z</time>
      </trkpt>
      <trkpt lat="49.83433" lon="4.78683">
        <ele>291</ele>
        <time>2021-03-30T11:07:56.000Z</time>
      </trkpt>
      <trkpt lat="49.83433" lon="4.78682">
        <ele>291</ele>
        <time>2021-03-30T11:07:57.000Z</time>
      </trkpt>
      <trkpt lat="49.83433" lon="4.78682">
        <ele>291</ele>
        <time>2021-03-30T11:07:58.000Z</time>
      </trkpt>
      <trkpt lat="49.83433" lon="4.78681">
        <ele>291</ele>
        <time>2021-03-30T11:07:59.000Z</time>
      </trkpt>
      <trkpt lat="49.83432" lon="4.78681">
        <ele>291</ele>
        <time>2021-03-30T11:08:00.000Z</time>
      </trkpt>
      <trkpt lat="49.83432" lon="4.7868">
        <ele>290</ele>
        <time>2021-03-30T11:08:01.000Z</time>
      </trkpt>
      <trkpt lat="49.83432" lon="4.78679">
        <ele>290</ele>
        <time>2021-03-30T11:08:02.000Z</time>
      </trkpt>
      <trkpt lat="49.83432" lon="4.78678">
        <ele>290</ele>
        <time>2021-03-30T11:08:03.000Z</time>
      </trkpt>
      <trkpt lat="49.83432" lon="4.78677">
        <ele>290</ele>
        <time>2021-03-30T11:08:04.000Z</time>
      </trkpt>
      <trkpt lat="49.83432" lon="4.78676">
        <ele>290</ele>
        <time>2021-03-30T11:08:05.000Z</time>
      </trkpt>
      <trkpt lat="49.83431" lon="4.78676">
        <ele>290</ele>
        <time>2021-03-30T11:08:06.000Z</time>
      </trkpt>
      <trkpt lat="49.8343" lon="4.78675">
        <ele>289</ele>
        <time>2021-03-30T11:08:07.000Z</time>
      </trkpt>
      <trkpt lat="49.8343" lon="4.78674">
        <ele>289</ele>
        <time>2021-03-30T11:08:08.000Z</time>
      </trkpt>
      <trkpt lat="49.83429" lon="4.78671">
        <ele>289</ele>
        <time>2021-03-30T11:08:09.000Z</time>
      </trkpt>
      <trkpt lat="49.83427" lon="4.78669">
        <ele>289</ele>
        <time>2021-03-30T11:08:10.000Z</time>
      </trkpt>
      <trkpt lat="49.83426" lon="4.78666">
        <ele>289</ele>
        <time>2021-03-30T11:08:11.000Z</time>
      </trkpt>
      <trkpt lat="49.83424" lon="4.78664">
        <ele>289</ele>
        <time>2021-03-30T11:08:12.000Z</time>
      </trkpt>
      <trkpt lat="49.83422" lon="4.78661">
        <ele>289</ele>
        <time>2021-03-30T11:08:13.000Z</time>
      </trkpt>
      <trkpt lat="49.83421" lon="4.7866">
        <ele>289</ele>
        <time>2021-03-30T11:08:14.000Z</time>
      </trkpt>
      <trkpt lat="49.8342" lon="4.78659">
        <ele>289</ele>
        <time>2021-03-30T11:08:15.000Z</time>
      </trkpt>
      <trkpt lat="49.8342" lon="4.78659">
        <ele>289</ele>
        <time>2021-03-30T11:08:16.000Z</time>
      </trkpt>
      <trkpt lat="49.8342" lon="4.78658">
        <ele>289</ele>
        <time>2021-03-30T11:08:17.000Z</time>
      </trkpt>
      <trkpt lat="49.8342" lon="4.78658">
        <ele>289</ele>
        <time>2021-03-30T11:08:18.000Z</time>
      </trkpt>
      <trkpt lat="49.83419" lon="4.78657">
        <ele>288</ele>
        <time>2021-03-30T11:08:19.000Z</time>
      </trkpt>
      <trkpt lat="49.83418" lon="4.78654">
        <ele>288</ele>
        <time>2021-03-30T11:08:20.000Z</time>
      </trkpt>
      <trkpt lat="49.83417" lon="4.78651">
        <ele>288</ele>
        <time>2021-03-30T11:08:21.000Z</time>
      </trkpt>
      <trkpt lat="49.83416" lon="4.78647">
        <ele>288</ele>
        <time>2021-03-30T11:08:22.000Z</time>
      </trkpt>
      <trkpt lat="49.83415" lon="4.78643">
        <ele>288</ele>
        <time>2021-03-30T11:08:23.000Z</time>
      </trkpt>
      <trkpt lat="49.83413" lon="4.78639">
        <ele>288</ele>
        <time>2021-03-30T11:08:24.000Z</time>
      </trkpt>
      <trkpt lat="49.8341" lon="4.78634">
        <ele>287</ele>
        <time>2021-03-30T11:08:25.000Z</time>
      </trkpt>
      <trkpt lat="49.83406" lon="4.78629">
        <ele>287</ele>
        <time>2021-03-30T11:08:26.000Z</time>
      </trkpt>
      <trkpt lat="49.83403" lon="4.78624">
        <ele>287</ele>
        <time>2021-03-30T11:08:27.000Z</time>
      </trkpt>
      <trkpt lat="49.83399" lon="4.78619">
        <ele>287</ele>
        <time>2021-03-30T11:08:28.000Z</time>
      </trkpt>
      <trkpt lat="49.83396" lon="4.78615">
        <ele>286</ele>
        <time>2021-03-30T11:08:29.000Z</time>
      </trkpt>
      <trkpt lat="49.83392" lon="4.78611">
        <ele>286</ele>
        <time>2021-03-30T11:08:30.000Z</time>
      </trkpt>
      <trkpt lat="49.83389" lon="4.78606">
        <ele>286</ele>
        <time>2021-03-30T11:08:31.000Z</time>
      </trkpt>
      <trkpt lat="49.83385" lon="4.78602">
        <ele>286</ele>
        <time>2021-03-30T11:08:32.000Z</time>
      </trkpt>
      <trkpt lat="49.83381" lon="4.78597">
        <ele>285</ele>
        <time>2021-03-30T11:08:33.000Z</time>
      </trkpt>
      <trkpt lat="49.83376" lon="4.78592">
        <ele>285</ele>
        <time>2021-03-30T11:08:34.000Z</time>
      </trkpt>
      <trkpt lat="49.83372" lon="4.78586">
        <ele>285</ele>
        <time>2021-03-30T11:08:35.000Z</time>
      </trkpt>
      <trkpt lat="49.83368" lon="4.78581">
        <ele>285</ele>
        <time>2021-03-30T11:08:36.000Z</time>
      </trkpt>
      <trkpt lat="49.83364" lon="4.78578">
        <ele>284</ele>
        <time>2021-03-30T11:08:37.000Z</time>
      </trkpt>
      <trkpt lat="49.83362" lon="4.78576">
        <ele>284</ele>
        <time>2021-03-30T11:08:38.000Z</time>
      </trkpt>
      <trkpt lat="49.8336" lon="4.78575">
        <ele>284</ele>
        <time>2021-03-30T11:08:39.000Z</time>
      </trkpt>
      <trkpt lat="49.83358" lon="4.78573">
        <ele>284</ele>
        <time>2021-03-30T11:08:40.000Z</time>
      </trkpt>
      <trkpt lat="49.83356" lon="4.78572">
        <ele>284</ele>
        <time>2021-03-30T11:08:41.000Z</time>
      </trkpt>
      <trkpt lat="49.83355" lon="4.7857">
        <ele>284</ele>
        <time>2021-03-30T11:08:42.000Z</time>
      </trkpt>
      <trkpt lat="49.83352" lon="4.78569">
        <ele>284</ele>
        <time>2021-03-30T11:08:43.000Z</time>
      </trkpt>
      <trkpt lat="49.8335" lon="4.78568">
        <ele>284</ele>
        <time>2021-03-30T11:08:44.000Z</time>
      </trkpt>
      <trkpt lat="49.83347" lon="4.78566">
        <ele>284</ele>
        <time>2021-03-30T11:08:45.000Z</time>
      </trkpt>
      <trkpt lat="49.83345" lon="4.78564">
        <ele>284</ele>
        <time>2021-03-30T11:08:46.000Z</time>
      </trkpt>
      <trkpt lat="49.83343" lon="4.78564">
        <ele>283</ele>
        <time>2021-03-30T11:08:47.000Z</time>
      </trkpt>
      <trkpt lat="49.83342" lon="4.78563">
        <ele>283</ele>
        <time>2021-03-30T11:08:48.000Z</time>
      </trkpt>
      <trkpt lat="49.83341" lon="4.78563">
        <ele>283</ele>
        <time>2021-03-30T11:08:49.000Z</time>
      </trkpt>
      <trkpt lat="49.8334" lon="4.78562">
        <ele>284</ele>
        <time>2021-03-30T11:08:50.000Z</time>
      </trkpt>
      <trkpt lat="49.8334" lon="4.78562">
        <ele>284</ele>
        <time>2021-03-30T11:08:51.000Z</time>
      </trkpt>
      <trkpt lat="49.8334" lon="4.78561">
        <ele>284</ele>
        <time>2021-03-30T11:08:52.000Z</time>
      </trkpt>
      <trkpt lat="49.8334" lon="4.7856">
        <ele>284</ele>
        <time>2021-03-30T11:08:53.000Z</time>
      </trkpt>
      <trkpt lat="49.8334" lon="4.78558">
        <ele>284</ele>
        <time>2021-03-30T11:08:54.000Z</time>
      </trkpt>
      <trkpt lat="49.8334" lon="4.78557">
        <ele>284</ele>
        <time>2021-03-30T11:08:55.000Z</time>
      </trkpt>
      <trkpt lat="49.8334" lon="4.78557">
        <ele>284</ele>
        <time>2021-03-30T11:08:56.000Z</time>
      </trkpt>
      <trkpt lat="49.8334" lon="4.78556">
        <ele>284</ele>
        <time>2021-03-30T11:08:57.000Z</time>
      </trkpt>
      <trkpt lat="49.8334" lon="4.78554">
        <ele>284</ele>
        <time>2021-03-30T11:08:58.000Z</time>
      </trkpt>
      <trkpt lat="49.83339" lon="4.78552">
        <ele>284</ele>
        <time>2021-03-30T11:08:59.000Z</time>
      </trkpt>
      <trkpt lat="49.83339" lon="4.78549">
        <ele>285</ele>
        <time>2021-03-30T11:09:00.000Z</time>
      </trkpt>
      <trkpt lat="49.83338" lon="4.78546">
        <ele>285</ele>
        <time>2021-03-30T11:09:01.000Z</time>
      </trkpt>
      <trkpt lat="49.83337" lon="4.78543">
        <ele>285</ele>
        <time>2021-03-30T11:09:02.000Z</time>
      </trkpt>
      <trkpt lat="49.83336" lon="4.7854">
        <ele>285</ele>
        <time>2021-03-30T11:09:03.000Z</time>
      </trkpt>
      <trkpt lat="49.83335" lon="4.78537">
        <ele>285</ele>
        <time>2021-03-30T11:09:04.000Z</time>
      </trkpt>
      <trkpt lat="49.83333" lon="4.78536">
        <ele>285</ele>
        <time>2021-03-30T11:09:05.000Z</time>
      </trkpt>
      <trkpt lat="49.83332" lon="4.78535">
        <ele>285</ele>
        <time>2021-03-30T11:09:06.000Z</time>
      </trkpt>
      <trkpt lat="49.83331" lon="4.78535">
        <ele>285</ele>
        <time>2021-03-30T11:09:07.000Z</time>
      </trkpt>
      <trkpt lat="49.83329" lon="4.78535">
        <ele>286</ele>
        <time>2021-03-30T11:09:08.000Z</time>
      </trkpt>
      <trkpt lat="49.83327" lon="4.78536">
        <ele>286</ele>
        <time>2021-03-30T11:09:09.000Z</time>
      </trkpt>
      <trkpt lat="49.83326" lon="4.78536">
        <ele>286</ele>
        <time>2021-03-30T11:09:10.000Z</time>
      </trkpt>
      <trkpt lat="49.83326" lon="4.78537">
        <ele>286</ele>
        <time>2021-03-30T11:09:11.000Z</time>
      </trkpt>
      <trkpt lat="49.83326" lon="4.78537">
        <ele>286</ele>
        <time>2021-03-30T11:09:12.000Z</time>
      </trkpt>
      <trkpt lat="49.83325" lon="4.78537">
        <ele>286</ele>
        <time>2021-03-30T11:09:13.000Z</time>
      </trkpt>
      <trkpt lat="49.83325" lon="4.78537">
        <ele>286</ele>
        <time>2021-03-30T11:09:14.000Z</time>
      </trkpt>
      <trkpt lat="49.83325" lon="4.78536">
        <ele>286</ele>
        <time>2021-03-30T11:09:15.000Z</time>
      </trkpt>
      <trkpt lat="49.83325" lon="4.78536">
        <ele>286</ele>
        <time>2021-03-30T11:09:16.000Z</time>
      </trkpt>
      <trkpt lat="49.83325" lon="4.78535">
        <ele>286</ele>
        <time>2021-03-30T11:09:17.000Z</time>
      </trkpt>
      <trkpt lat="49.83325" lon="4.78535">
        <ele>286</ele>
        <time>2021-03-30T11:09:18.000Z</time>
      </trkpt>
      <trkpt lat="49.83325" lon="4.78533">
        <ele>286</ele>
        <time>2021-03-30T11:09:19.000Z</time>
      </trkpt>
      <trkpt lat="49.83326" lon="4.78529">
        <ele>286</ele>
        <time>2021-03-30T11:09:20.000Z</time>
      </trkpt>
      <trkpt lat="49.83326" lon="4.78525">
        <ele>286</ele>
        <time>2021-03-30T11:09:21.000Z</time>
      </trkpt>
      <trkpt lat="49.83326" lon="4.78521">
        <ele>286</ele>
        <time>2021-03-30T11:09:22.000Z</time>
      </trkpt>
      <trkpt lat="49.83327" lon="4.78517">
        <ele>286</ele>
        <time>2021-03-30T11:09:23.000Z</time>
      </trkpt>
      <trkpt lat="49.83327" lon="4.78514">
        <ele>286</ele>
        <time>2021-03-30T11:09:24.000Z</time>
      </trkpt>
      <trkpt lat="49.83328" lon="4.78511">
        <ele>286</ele>
        <time>2021-03-30T11:09:25.000Z</time>
      </trkpt>
      <trkpt lat="49.83329" lon="4.78507">
        <ele>286</ele>
        <time>2021-03-30T11:09:26.000Z</time>
      </trkpt>
      <trkpt lat="49.8333" lon="4.78503">
        <ele>286</ele>
        <time>2021-03-30T11:09:27.000Z</time>
      </trkpt>
      <trkpt lat="49.8333" lon="4.785">
        <ele>286</ele>
        <time>2021-03-30T11:09:28.000Z</time>
      </trkpt>
      <trkpt lat="49.83329" lon="4.78497">
        <ele>286</ele>
        <time>2021-03-30T11:09:29.000Z</time>
      </trkpt>
      <trkpt lat="49.83328" lon="4.78494">
        <ele>286</ele>
        <time>2021-03-30T11:09:30.000Z</time>
      </trkpt>
      <trkpt lat="49.83326" lon="4.78491">
        <ele>286</ele>
        <time>2021-03-30T11:09:31.000Z</time>
      </trkpt>
      <trkpt lat="49.83325" lon="4.78488">
        <ele>286</ele>
        <time>2021-03-30T11:09:32.000Z</time>
      </trkpt>
      <trkpt lat="49.83323" lon="4.78485">
        <ele>286</ele>
        <time>2021-03-30T11:09:33.000Z</time>
      </trkpt>
      <trkpt lat="49.83322" lon="4.78482">
        <ele>285</ele>
        <time>2021-03-30T11:09:34.000Z</time>
      </trkpt>
      <trkpt lat="49.83322" lon="4.78479">
        <ele>285</ele>
        <time>2021-03-30T11:09:35.000Z</time>
      </trkpt>
      <trkpt lat="49.8332" lon="4.78476">
        <ele>285</ele>
        <time>2021-03-30T11:09:36.000Z</time>
      </trkpt>
      <trkpt lat="49.83319" lon="4.78474">
        <ele>285</ele>
        <time>2021-03-30T11:09:37.000Z</time>
      </trkpt>
      <trkpt lat="49.83318" lon="4.78471">
        <ele>284</ele>
        <time>2021-03-30T11:09:38.000Z</time>
      </trkpt>
      <trkpt lat="49.83317" lon="4.78468">
        <ele>284</ele>
        <time>2021-03-30T11:09:39.000Z</time>
      </trkpt>
      <trkpt lat="49.83316" lon="4.78464">
        <ele>284</ele>
        <time>2021-03-30T11:09:40.000Z</time>
      </trkpt>
      <trkpt lat="49.83315" lon="4.78459">
        <ele>283</ele>
        <time>2021-03-30T11:09:41.000Z</time>
      </trkpt>
      <trkpt lat="49.83314" lon="4.78454">
        <ele>283</ele>
        <time>2021-03-30T11:09:42.000Z</time>
      </trkpt>
      <trkpt lat="49.83313" lon="4.78449">
        <ele>283</ele>
        <time>2021-03-30T11:09:43.000Z</time>
      </trkpt>
      <trkpt lat="49.83311" lon="4.78444">
        <ele>282</ele>
        <time>2021-03-30T11:09:44.000Z</time>
      </trkpt>
      <trkpt lat="49.83309" lon="4.78439">
        <ele>282</ele>
        <time>2021-03-30T11:09:45.000Z</time>
      </trkpt>
      <trkpt lat="49.83308" lon="4.78434">
        <ele>281</ele>
        <time>2021-03-30T11:09:46.000Z</time>
      </trkpt>
      <trkpt lat="49.83306" lon="4.7843">
        <ele>281</ele>
        <time>2021-03-30T11:09:47.000Z</time>
      </trkpt>
      <trkpt lat="49.83305" lon="4.78425">
        <ele>280</ele>
        <time>2021-03-30T11:09:48.000Z</time>
      </trkpt>
      <trkpt lat="49.83303" lon="4.7842">
        <ele>280</ele>
        <time>2021-03-30T11:09:49.000Z</time>
      </trkpt>
      <trkpt lat="49.83301" lon="4.78414">
        <ele>280</ele>
        <time>2021-03-30T11:09:50.000Z</time>
      </trkpt>
      <trkpt lat="49.83299" lon="4.78409">
        <ele>279</ele>
        <time>2021-03-30T11:09:51.000Z</time>
      </trkpt>
      <trkpt lat="49.83297" lon="4.78403">
        <ele>279</ele>
        <time>2021-03-30T11:09:52.000Z</time>
      </trkpt>
      <trkpt lat="49.83295" lon="4.78397">
        <ele>278</ele>
        <time>2021-03-30T11:09:53.000Z</time>
      </trkpt>
      <trkpt lat="49.83294" lon="4.78391">
        <ele>278</ele>
        <time>2021-03-30T11:09:54.000Z</time>
      </trkpt>
      <trkpt lat="49.83293" lon="4.78385">
        <ele>277</ele>
        <time>2021-03-30T11:09:55.000Z</time>
      </trkpt>
      <trkpt lat="49.83292" lon="4.78379">
        <ele>277</ele>
        <time>2021-03-30T11:09:56.000Z</time>
      </trkpt>
      <trkpt lat="49.83291" lon="4.78373">
        <ele>277</ele>
        <time>2021-03-30T11:09:57.000Z</time>
      </trkpt>
      <trkpt lat="49.8329" lon="4.78366">
        <ele>276</ele>
        <time>2021-03-30T11:09:58.000Z</time>
      </trkpt>
      <trkpt lat="49.83289" lon="4.7836">
        <ele>276</ele>
        <time>2021-03-30T11:09:59.000Z</time>
      </trkpt>
      <trkpt lat="49.83289" lon="4.78353">
        <ele>275</ele>
        <time>2021-03-30T11:10:00.000Z</time>
      </trkpt>
      <trkpt lat="49.83289" lon="4.78347">
        <ele>275</ele>
        <time>2021-03-30T11:10:01.000Z</time>
      </trkpt>
      <trkpt lat="49.83289" lon="4.78341">
        <ele>275</ele>
        <time>2021-03-30T11:10:02.000Z</time>
      </trkpt>
      <trkpt lat="49.83289" lon="4.78336">
        <ele>274</ele>
        <time>2021-03-30T11:10:03.000Z</time>
      </trkpt>
      <trkpt lat="49.83288" lon="4.7833">
        <ele>274</ele>
        <time>2021-03-30T11:10:04.000Z</time>
      </trkpt>
      <trkpt lat="49.83289" lon="4.78325">
        <ele>274</ele>
        <time>2021-03-30T11:10:05.000Z</time>
      </trkpt>
      <trkpt lat="49.8329" lon="4.78319">
        <ele>274</ele>
        <time>2021-03-30T11:10:06.000Z</time>
      </trkpt>
      <trkpt lat="49.83292" lon="4.78313">
        <ele>274</ele>
        <time>2021-03-30T11:10:07.000Z</time>
      </trkpt>
      <trkpt lat="49.83293" lon="4.78307">
        <ele>274</ele>
        <time>2021-03-30T11:10:08.000Z</time>
      </trkpt>
      <trkpt lat="49.83294" lon="4.78301">
        <ele>274</ele>
        <time>2021-03-30T11:10:09.000Z</time>
      </trkpt>
      <trkpt lat="49.83296" lon="4.78295">
        <ele>274</ele>
        <time>2021-03-30T11:10:10.000Z</time>
      </trkpt>
      <trkpt lat="49.83298" lon="4.7829">
        <ele>274</ele>
        <time>2021-03-30T11:10:11.000Z</time>
      </trkpt>
      <trkpt lat="49.833" lon="4.78284">
        <ele>273</ele>
        <time>2021-03-30T11:10:12.000Z</time>
      </trkpt>
      <trkpt lat="49.83301" lon="4.78279">
        <ele>273</ele>
        <time>2021-03-30T11:10:13.000Z</time>
      </trkpt>
      <trkpt lat="49.83303" lon="4.78275">
        <ele>273</ele>
        <time>2021-03-30T11:10:14.000Z</time>
      </trkpt>
      <trkpt lat="49.83305" lon="4.78272">
        <ele>273</ele>
        <time>2021-03-30T11:10:15.000Z</time>
      </trkpt>
      <trkpt lat="49.83308" lon="4.78271">
        <ele>273</ele>
        <time>2021-03-30T11:10:16.000Z</time>
      </trkpt>
      <trkpt lat="49.8331" lon="4.78271">
        <ele>273</ele>
        <time>2021-03-30T11:10:17.000Z</time>
      </trkpt>
      <trkpt lat="49.83312" lon="4.78271">
        <ele>273</ele>
        <time>2021-03-30T11:10:18.000Z</time>
      </trkpt>
      <trkpt lat="49.83313" lon="4.78273">
        <ele>273</ele>
        <time>2021-03-30T11:10:19.000Z</time>
      </trkpt>
      <trkpt lat="49.83314" lon="4.78274">
        <ele>273</ele>
        <time>2021-03-30T11:10:20.000Z</time>
      </trkpt>
      <trkpt lat="49.83315" lon="4.78275">
        <ele>272</ele>
        <time>2021-03-30T11:10:21.000Z</time>
      </trkpt>
      <trkpt lat="49.83316" lon="4.78276">
        <ele>272</ele>
        <time>2021-03-30T11:10:22.000Z</time>
      </trkpt>
      <trkpt lat="49.83317" lon="4.78278">
        <ele>272</ele>
        <time>2021-03-30T11:10:23.000Z</time>
      </trkpt>
      <trkpt lat="49.83319" lon="4.78279">
        <ele>272</ele>
        <time>2021-03-30T11:10:24.000Z</time>
      </trkpt>
      <trkpt lat="49.83321" lon="4.78281">
        <ele>272</ele>
        <time>2021-03-30T11:10:25.000Z</time>
      </trkpt>
      <trkpt lat="49.83323" lon="4.78282">
        <ele>272</ele>
        <time>2021-03-30T11:10:26.000Z</time>
      </trkpt>
      <trkpt lat="49.83325" lon="4.78284">
        <ele>272</ele>
        <time>2021-03-30T11:10:27.000Z</time>
      </trkpt>
      <trkpt lat="49.83327" lon="4.78285">
        <ele>273</ele>
        <time>2021-03-30T11:10:28.000Z</time>
      </trkpt>
      <trkpt lat="49.83328" lon="4.78286">
        <ele>273</ele>
        <time>2021-03-30T11:10:29.000Z</time>
      </trkpt>
      <trkpt lat="49.83328" lon="4.78287">
        <ele>273</ele>
        <time>2021-03-30T11:10:30.000Z</time>
      </trkpt>
      <trkpt lat="49.83329" lon="4.78288">
        <ele>273</ele>
        <time>2021-03-30T11:10:31.000Z</time>
      </trkpt>
      <trkpt lat="49.8333" lon="4.78289">
        <ele>274</ele>
        <time>2021-03-30T11:10:32.000Z</time>
      </trkpt>
      <trkpt lat="49.83331" lon="4.7829">
        <ele>274</ele>
        <time>2021-03-30T11:10:33.000Z</time>
      </trkpt>
      <trkpt lat="49.83332" lon="4.7829">
        <ele>275</ele>
        <time>2021-03-30T11:10:34.000Z</time>
      </trkpt>
      <trkpt lat="49.83333" lon="4.78292">
        <ele>275</ele>
        <time>2021-03-30T11:10:35.000Z</time>
      </trkpt>
      <trkpt lat="49.83335" lon="4.78293">
        <ele>275</ele>
        <time>2021-03-30T11:10:36.000Z</time>
      </trkpt>
      <trkpt lat="49.83337" lon="4.78294">
        <ele>276</ele>
        <time>2021-03-30T11:10:37.000Z</time>
      </trkpt>
      <trkpt lat="49.83338" lon="4.78296">
        <ele>276</ele>
        <time>2021-03-30T11:10:38.000Z</time>
      </trkpt>
      <trkpt lat="49.83339" lon="4.78297">
        <ele>277</ele>
        <time>2021-03-30T11:10:39.000Z</time>
      </trkpt>
      <trkpt lat="49.83341" lon="4.78298">
        <ele>277</ele>
        <time>2021-03-30T11:10:40.000Z</time>
      </trkpt>
      <trkpt lat="49.83343" lon="4.78299">
        <ele>278</ele>
        <time>2021-03-30T11:10:41.000Z</time>
      </trkpt>
      <trkpt lat="49.83345" lon="4.783">
        <ele>278</ele>
        <time>2021-03-30T11:10:42.000Z</time>
      </trkpt>
      <trkpt lat="49.83348" lon="4.78302">
        <ele>278</ele>
        <time>2021-03-30T11:10:43.000Z</time>
      </trkpt>
      <trkpt lat="49.83349" lon="4.78303">
        <ele>279</ele>
        <time>2021-03-30T11:10:44.000Z</time>
      </trkpt>
      <trkpt lat="49.83351" lon="4.78305">
        <ele>279</ele>
        <time>2021-03-30T11:10:45.000Z</time>
      </trkpt>
      <trkpt lat="49.83353" lon="4.78306">
        <ele>280</ele>
        <time>2021-03-30T11:10:46.000Z</time>
      </trkpt>
      <trkpt lat="49.83355" lon="4.78307">
        <ele>280</ele>
        <time>2021-03-30T11:10:47.000Z</time>
      </trkpt>
      <trkpt lat="49.83356" lon="4.78309">
        <ele>280</ele>
        <time>2021-03-30T11:10:48.000Z</time>
      </trkpt>
      <trkpt lat="49.83358" lon="4.78311">
        <ele>281</ele>
        <time>2021-03-30T11:10:49.000Z</time>
      </trkpt>
      <trkpt lat="49.8336" lon="4.78312">
        <ele>281</ele>
        <time>2021-03-30T11:10:50.000Z</time>
      </trkpt>
      <trkpt lat="49.83361" lon="4.78314">
        <ele>281</ele>
        <time>2021-03-30T11:10:51.000Z</time>
      </trkpt>
      <trkpt lat="49.83363" lon="4.78315">
        <ele>282</ele>
        <time>2021-03-30T11:10:52.000Z</time>
      </trkpt>
      <trkpt lat="49.83364" lon="4.78316">
        <ele>282</ele>
        <time>2021-03-30T11:10:53.000Z</time>
      </trkpt>
      <trkpt lat="49.83365" lon="4.78317">
        <ele>282</ele>
        <time>2021-03-30T11:10:54.000Z</time>
      </trkpt>
      <trkpt lat="49.83367" lon="4.78318">
        <ele>282</ele>
        <time>2021-03-30T11:10:55.000Z</time>
      </trkpt>
      <trkpt lat="49.83368" lon="4.78319">
        <ele>283</ele>
        <time>2021-03-30T11:10:56.000Z</time>
      </trkpt>
      <trkpt lat="49.8337" lon="4.7832">
        <ele>283</ele>
        <time>2021-03-30T11:10:57.000Z</time>
      </trkpt>
      <trkpt lat="49.83373" lon="4.78322">
        <ele>283</ele>
        <time>2021-03-30T11:10:58.000Z</time>
      </trkpt>
      <trkpt lat="49.83375" lon="4.78323">
        <ele>283</ele>
        <time>2021-03-30T11:10:59.000Z</time>
      </trkpt>
      <trkpt lat="49.83377" lon="4.78324">
        <ele>283</ele>
        <time>2021-03-30T11:11:00.000Z</time>
      </trkpt>
      <trkpt lat="49.83379" lon="4.78326">
        <ele>283</ele>
        <time>2021-03-30T11:11:01.000Z</time>
      </trkpt>
      <trkpt lat="49.83381" lon="4.78327">
        <ele>283</ele>
        <time>2021-03-30T11:11:02.000Z</time>
      </trkpt>
      <trkpt lat="49.83383" lon="4.78329">
        <ele>284</ele>
        <time>2021-03-30T11:11:03.000Z</time>
      </trkpt>
      <trkpt lat="49.83385" lon="4.7833">
        <ele>284</ele>
        <time>2021-03-30T11:11:04.000Z</time>
      </trkpt>
      <trkpt lat="49.83386" lon="4.78332">
        <ele>284</ele>
        <time>2021-03-30T11:11:05.000Z</time>
      </trkpt>
      <trkpt lat="49.83388" lon="4.78334">
        <ele>284</ele>
        <time>2021-03-30T11:11:06.000Z</time>
      </trkpt>
      <trkpt lat="49.8339" lon="4.78335">
        <ele>284</ele>
        <time>2021-03-30T11:11:07.000Z</time>
      </trkpt>
      <trkpt lat="49.83392" lon="4.78337">
        <ele>284</ele>
        <time>2021-03-30T11:11:08.000Z</time>
      </trkpt>
      <trkpt lat="49.83395" lon="4.78339">
        <ele>284</ele>
        <time>2021-03-30T11:11:09.000Z</time>
      </trkpt>
      <trkpt lat="49.83397" lon="4.78341">
        <ele>284</ele>
        <time>2021-03-30T11:11:10.000Z</time>
      </trkpt>
      <trkpt lat="49.834" lon="4.78344">
        <ele>283</ele>
        <time>2021-03-30T11:11:11.000Z</time>
      </trkpt>
      <trkpt lat="49.83402" lon="4.78346">
        <ele>283</ele>
        <time>2021-03-30T11:11:12.000Z</time>
      </trkpt>
      <trkpt lat="49.83405" lon="4.78349">
        <ele>283</ele>
        <time>2021-03-30T11:11:13.000Z</time>
      </trkpt>
      <trkpt lat="49.83408" lon="4.78351">
        <ele>283</ele>
        <time>2021-03-30T11:11:14.000Z</time>
      </trkpt>
      <trkpt lat="49.83411" lon="4.78354">
        <ele>283</ele>
        <time>2021-03-30T11:11:15.000Z</time>
      </trkpt>
      <trkpt lat="49.83414" lon="4.78358">
        <ele>282</ele>
        <time>2021-03-30T11:11:16.000Z</time>
      </trkpt>
      <trkpt lat="49.83416" lon="4.78361">
        <ele>282</ele>
        <time>2021-03-30T11:11:17.000Z</time>
      </trkpt>
      <trkpt lat="49.8342" lon="4.78366">
        <ele>282</ele>
        <time>2021-03-30T11:11:18.000Z</time>
      </trkpt>
      <trkpt lat="49.83423" lon="4.78371">
        <ele>282</ele>
        <time>2021-03-30T11:11:19.000Z</time>
      </trkpt>
      <trkpt lat="49.83427" lon="4.78376">
        <ele>282</ele>
        <time>2021-03-30T11:11:20.000Z</time>
      </trkpt>
      <trkpt lat="49.83432" lon="4.78381">
        <ele>282</ele>
        <time>2021-03-30T11:11:21.000Z</time>
      </trkpt>
      <trkpt lat="49.83437" lon="4.78386">
        <ele>282</ele>
        <time>2021-03-30T11:11:22.000Z</time>
      </trkpt>
      <trkpt lat="49.83442" lon="4.78391">
        <ele>282</ele>
        <time>2021-03-30T11:11:23.000Z</time>
      </trkpt>
      <trkpt lat="49.83448" lon="4.78396">
        <ele>282</ele>
        <time>2021-03-30T11:11:24.000Z</time>
      </trkpt>
      <trkpt lat="49.83453" lon="4.78402">
        <ele>282</ele>
        <time>2021-03-30T11:11:25.000Z</time>
      </trkpt>
      <trkpt lat="49.83459" lon="4.78407">
        <ele>282</ele>
        <time>2021-03-30T11:11:26.000Z</time>
      </trkpt>
      <trkpt lat="49.83464" lon="4.78412">
        <ele>282</ele>
        <time>2021-03-30T11:11:27.000Z</time>
      </trkpt>
      <trkpt lat="49.83469" lon="4.78415">
        <ele>282</ele>
        <time>2021-03-30T11:11:28.000Z</time>
      </trkpt>
      <trkpt lat="49.83475" lon="4.78418">
        <ele>282</ele>
        <time>2021-03-30T11:11:29.000Z</time>
      </trkpt>
      <trkpt lat="49.83481" lon="4.78419">
        <ele>282</ele>
        <time>2021-03-30T11:11:30.000Z</time>
      </trkpt>
      <trkpt lat="49.83488" lon="4.78419">
        <ele>282</ele>
        <time>2021-03-30T11:11:31.000Z</time>
      </trkpt>
      <trkpt lat="49.83496" lon="4.78418">
        <ele>282</ele>
        <time>2021-03-30T11:11:32.000Z</time>
      </trkpt>
      <trkpt lat="49.83504" lon="4.78416">
        <ele>281</ele>
        <time>2021-03-30T11:11:33.000Z</time>
      </trkpt>
      <trkpt lat="49.83513" lon="4.78413">
        <ele>281</ele>
        <time>2021-03-30T11:11:34.000Z</time>
      </trkpt>
      <trkpt lat="49.83521" lon="4.78409">
        <ele>281</ele>
        <time>2021-03-30T11:11:35.000Z</time>
      </trkpt>
      <trkpt lat="49.8353" lon="4.78404">
        <ele>280</ele>
        <time>2021-03-30T11:11:36.000Z</time>
      </trkpt>
      <trkpt lat="49.83538" lon="4.784">
        <ele>279</ele>
        <time>2021-03-30T11:11:37.000Z</time>
      </trkpt>
      <trkpt lat="49.83547" lon="4.78398">
        <ele>279</ele>
        <time>2021-03-30T11:11:38.000Z</time>
      </trkpt>
      <trkpt lat="49.83554" lon="4.78398">
        <ele>278</ele>
        <time>2021-03-30T11:11:39.000Z</time>
      </trkpt>
      <trkpt lat="49.83563" lon="4.78401">
        <ele>278</ele>
        <time>2021-03-30T11:11:40.000Z</time>
      </trkpt>
      <trkpt lat="49.8357" lon="4.78406">
        <ele>277</ele>
        <time>2021-03-30T11:11:41.000Z</time>
      </trkpt>
      <trkpt lat="49.83575" lon="4.78411">
        <ele>276</ele>
        <time>2021-03-30T11:11:42.000Z</time>
      </trkpt>
      <trkpt lat="49.83581" lon="4.78418">
        <ele>276</ele>
        <time>2021-03-30T11:11:43.000Z</time>
      </trkpt>
      <trkpt lat="49.83587" lon="4.78424">
        <ele>275</ele>
        <time>2021-03-30T11:11:44.000Z</time>
      </trkpt>
      <trkpt lat="49.83592" lon="4.78429">
        <ele>274</ele>
        <time>2021-03-30T11:11:45.000Z</time>
      </trkpt>
      <trkpt lat="49.83598" lon="4.78434">
        <ele>273</ele>
        <time>2021-03-30T11:11:46.000Z</time>
      </trkpt>
      <trkpt lat="49.83605" lon="4.78438">
        <ele>273</ele>
        <time>2021-03-30T11:11:47.000Z</time>
      </trkpt>
      <trkpt lat="49.83611" lon="4.78443">
        <ele>272</ele>
        <time>2021-03-30T11:11:48.000Z</time>
      </trkpt>
      <trkpt lat="49.83618" lon="4.78447">
        <ele>272</ele>
        <time>2021-03-30T11:11:49.000Z</time>
      </trkpt>
      <trkpt lat="49.83625" lon="4.7845">
        <ele>271</ele>
        <time>2021-03-30T11:11:50.000Z</time>
      </trkpt>
      <trkpt lat="49.83632" lon="4.78453">
        <ele>271</ele>
        <time>2021-03-30T11:11:51.000Z</time>
      </trkpt>
      <trkpt lat="49.83639" lon="4.78456">
        <ele>271</ele>
        <time>2021-03-30T11:11:52.000Z</time>
      </trkpt>
      <trkpt lat="49.83646" lon="4.7846">
        <ele>270</ele>
        <time>2021-03-30T11:11:53.000Z</time>
      </trkpt>
      <trkpt lat="49.83652" lon="4.78463">
        <ele>270</ele>
        <time>2021-03-30T11:11:54.000Z</time>
      </trkpt>
      <trkpt lat="49.83657" lon="4.78466">
        <ele>270</ele>
        <time>2021-03-30T11:11:55.000Z</time>
      </trkpt>
      <trkpt lat="49.83662" lon="4.78468">
        <ele>269</ele>
        <time>2021-03-30T11:11:56.000Z</time>
      </trkpt>
      <trkpt lat="49.83667" lon="4.78471">
        <ele>269</ele>
        <time>2021-03-30T11:11:57.000Z</time>
      </trkpt>
      <trkpt lat="49.83671" lon="4.78474">
        <ele>269</ele>
        <time>2021-03-30T11:11:58.000Z</time>
      </trkpt>
      <trkpt lat="49.83676" lon="4.78476">
        <ele>269</ele>
        <time>2021-03-30T11:11:59.000Z</time>
      </trkpt>
      <trkpt lat="49.8368" lon="4.78478">
        <ele>268</ele>
        <time>2021-03-30T11:12:00.000Z</time>
      </trkpt>
      <trkpt lat="49.83685" lon="4.7848">
        <ele>268</ele>
        <time>2021-03-30T11:12:01.000Z</time>
      </trkpt>
      <trkpt lat="49.8369" lon="4.78481">
        <ele>268</ele>
        <time>2021-03-30T11:12:02.000Z</time>
      </trkpt>
      <trkpt lat="49.83696" lon="4.78482">
        <ele>268</ele>
        <time>2021-03-30T11:12:03.000Z</time>
      </trkpt>
      <trkpt lat="49.83701" lon="4.78483">
        <ele>268</ele>
        <time>2021-03-30T11:12:04.000Z</time>
      </trkpt>
      <trkpt lat="49.83706" lon="4.78484">
        <ele>267</ele>
        <time>2021-03-30T11:12:05.000Z</time>
      </trkpt>
      <trkpt lat="49.83711" lon="4.78484">
        <ele>267</ele>
        <time>2021-03-30T11:12:06.000Z</time>
      </trkpt>
      <trkpt lat="49.83716" lon="4.78484">
        <ele>267</ele>
        <time>2021-03-30T11:12:07.000Z</time>
      </trkpt>
      <trkpt lat="49.83722" lon="4.78485">
        <ele>267</ele>
        <time>2021-03-30T11:12:08.000Z</time>
      </trkpt>
      <trkpt lat="49.83728" lon="4.78484">
        <ele>267</ele>
        <time>2021-03-30T11:12:09.000Z</time>
      </trkpt>
      <trkpt lat="49.83733" lon="4.78484">
        <ele>267</ele>
        <time>2021-03-30T11:12:10.000Z</time>
      </trkpt>
      <trkpt lat="49.83739" lon="4.78483">
        <ele>267</ele>
        <time>2021-03-30T11:12:11.000Z</time>
      </trkpt>
      <trkpt lat="49.83744" lon="4.78482">
        <ele>267</ele>
        <time>2021-03-30T11:12:12.000Z</time>
      </trkpt>
      <trkpt lat="49.83749" lon="4.78482">
        <ele>267</ele>
        <time>2021-03-30T11:12:13.000Z</time>
      </trkpt>
      <trkpt lat="49.83753" lon="4.78481">
        <ele>267</ele>
        <time>2021-03-30T11:12:14.000Z</time>
      </trkpt>
      <trkpt lat="49.83757" lon="4.78481">
        <ele>267</ele>
        <time>2021-03-30T11:12:15.000Z</time>
      </trkpt>
      <trkpt lat="49.83761" lon="4.7848">
        <ele>267</ele>
        <time>2021-03-30T11:12:16.000Z</time>
      </trkpt>
      <trkpt lat="49.83765" lon="4.7848">
        <ele>267</ele>
        <time>2021-03-30T11:12:17.000Z</time>
      </trkpt>
      <trkpt lat="49.83768" lon="4.78479">
        <ele>267</ele>
        <time>2021-03-30T11:12:18.000Z</time>
      </trkpt>
      <trkpt lat="49.83772" lon="4.78479">
        <ele>267</ele>
        <time>2021-03-30T11:12:19.000Z</time>
      </trkpt>
      <trkpt lat="49.83775" lon="4.78479">
        <ele>267</ele>
        <time>2021-03-30T11:12:20.000Z</time>
      </trkpt>
      <trkpt lat="49.83779" lon="4.78479">
        <ele>267</ele>
        <time>2021-03-30T11:12:21.000Z</time>
      </trkpt>
      <trkpt lat="49.83782" lon="4.7848">
        <ele>267</ele>
        <time>2021-03-30T11:12:22.000Z</time>
      </trkpt>
      <trkpt lat="49.83785" lon="4.78481">
        <ele>267</ele>
        <time>2021-03-30T11:12:23.000Z</time>
      </trkpt>
      <trkpt lat="49.83787" lon="4.78482">
        <ele>267</ele>
        <time>2021-03-30T11:12:24.000Z</time>
      </trkpt>
      <trkpt lat="49.8379" lon="4.78482">
        <ele>267</ele>
        <time>2021-03-30T11:12:25.000Z</time>
      </trkpt>
      <trkpt lat="49.83793" lon="4.78482">
        <ele>267</ele>
        <time>2021-03-30T11:12:26.000Z</time>
      </trkpt>
      <trkpt lat="49.83796" lon="4.78481">
        <ele>267</ele>
        <time>2021-03-30T11:12:27.000Z</time>
      </trkpt>
      <trkpt lat="49.83799" lon="4.7848">
        <ele>267</ele>
        <time>2021-03-30T11:12:28.000Z</time>
      </trkpt>
      <trkpt lat="49.83803" lon="4.7848">
        <ele>267</ele>
        <time>2021-03-30T11:12:29.000Z</time>
      </trkpt>
      <trkpt lat="49.83808" lon="4.7848">
        <ele>267</ele>
        <time>2021-03-30T11:12:30.000Z</time>
      </trkpt>
      <trkpt lat="49.83814" lon="4.7848">
        <ele>267</ele>
        <time>2021-03-30T11:12:31.000Z</time>
      </trkpt>
      <trkpt lat="49.83821" lon="4.78481">
        <ele>267</ele>
        <time>2021-03-30T11:12:32.000Z</time>
      </trkpt>
      <trkpt lat="49.83827" lon="4.78482">
        <ele>267</ele>
        <time>2021-03-30T11:12:33.000Z</time>
      </trkpt>
      <trkpt lat="49.83833" lon="4.78483">
        <ele>267</ele>
        <time>2021-03-30T11:12:34.000Z</time>
      </trkpt>
      <trkpt lat="49.83839" lon="4.78485">
        <ele>267</ele>
        <time>2021-03-30T11:12:35.000Z</time>
      </trkpt>
      <trkpt lat="49.83844" lon="4.78486">
        <ele>267</ele>
        <time>2021-03-30T11:12:36.000Z</time>
      </trkpt>
      <trkpt lat="49.83849" lon="4.78487">
        <ele>267</ele>
        <time>2021-03-30T11:12:37.000Z</time>
      </trkpt>
      <trkpt lat="49.83854" lon="4.78488">
        <ele>267</ele>
        <time>2021-03-30T11:12:38.000Z</time>
      </trkpt>
      <trkpt lat="49.83858" lon="4.78488">
        <ele>267</ele>
        <time>2021-03-30T11:12:39.000Z</time>
      </trkpt>
      <trkpt lat="49.83862" lon="4.78489">
        <ele>266</ele>
        <time>2021-03-30T11:12:40.000Z</time>
      </trkpt>
      <trkpt lat="49.83865" lon="4.7849">
        <ele>266</ele>
        <time>2021-03-30T11:12:41.000Z</time>
      </trkpt>
      <trkpt lat="49.83869" lon="4.7849">
        <ele>266</ele>
        <time>2021-03-30T11:12:42.000Z</time>
      </trkpt>
      <trkpt lat="49.83873" lon="4.78491">
        <ele>266</ele>
        <time>2021-03-30T11:12:43.000Z</time>
      </trkpt>
      <trkpt lat="49.83877" lon="4.78492">
        <ele>266</ele>
        <time>2021-03-30T11:12:44.000Z</time>
      </trkpt>
      <trkpt lat="49.83882" lon="4.78492">
        <ele>266</ele>
        <time>2021-03-30T11:12:45.000Z</time>
      </trkpt>
      <trkpt lat="49.83886" lon="4.78492">
        <ele>266</ele>
        <time>2021-03-30T11:12:46.000Z</time>
      </trkpt>
      <trkpt lat="49.83891" lon="4.78492">
        <ele>266</ele>
        <time>2021-03-30T11:12:47.000Z</time>
      </trkpt>
      <trkpt lat="49.83895" lon="4.78492">
        <ele>266</ele>
        <time>2021-03-30T11:12:48.000Z</time>
      </trkpt>
      <trkpt lat="49.839" lon="4.78492">
        <ele>266</ele>
        <time>2021-03-30T11:12:49.000Z</time>
      </trkpt>
      <trkpt lat="49.83905" lon="4.78492">
        <ele>266</ele>
        <time>2021-03-30T11:12:50.000Z</time>
      </trkpt>
      <trkpt lat="49.8391" lon="4.78491">
        <ele>266</ele>
        <time>2021-03-30T11:12:51.000Z</time>
      </trkpt>
      <trkpt lat="49.83915" lon="4.7849">
        <ele>266</ele>
        <time>2021-03-30T11:12:52.000Z</time>
      </trkpt>
      <trkpt lat="49.83918" lon="4.78489">
        <ele>266</ele>
        <time>2021-03-30T11:12:53.000Z</time>
      </trkpt>
      <trkpt lat="49.83922" lon="4.78487">
        <ele>266</ele>
        <time>2021-03-30T11:12:54.000Z</time>
      </trkpt>
      <trkpt lat="49.83927" lon="4.78486">
        <ele>266</ele>
        <time>2021-03-30T11:12:55.000Z</time>
      </trkpt>
      <trkpt lat="49.83932" lon="4.78485">
        <ele>266</ele>
        <time>2021-03-30T11:12:56.000Z</time>
      </trkpt>
      <trkpt lat="49.83936" lon="4.78484">
        <ele>266</ele>
        <time>2021-03-30T11:12:57.000Z</time>
      </trkpt>
      <trkpt lat="49.8394" lon="4.78483">
        <ele>266</ele>
        <time>2021-03-30T11:12:58.000Z</time>
      </trkpt>
      <trkpt lat="49.83944" lon="4.78482">
        <ele>266</ele>
        <time>2021-03-30T11:12:59.000Z</time>
      </trkpt>
      <trkpt lat="49.83948" lon="4.78482">
        <ele>266</ele>
        <time>2021-03-30T11:13:00.000Z</time>
      </trkpt>
      <trkpt lat="49.83954" lon="4.78482">
        <ele>266</ele>
        <time>2021-03-30T11:13:01.000Z</time>
      </trkpt>
      <trkpt lat="49.83959" lon="4.78482">
        <ele>266</ele>
        <time>2021-03-30T11:13:02.000Z</time>
      </trkpt>
      <trkpt lat="49.83965" lon="4.78482">
        <ele>266</ele>
        <time>2021-03-30T11:13:03.000Z</time>
      </trkpt>
      <trkpt lat="49.83971" lon="4.78482">
        <ele>266</ele>
        <time>2021-03-30T11:13:04.000Z</time>
      </trkpt>
      <trkpt lat="49.83976" lon="4.78482">
        <ele>266</ele>
        <time>2021-03-30T11:13:05.000Z</time>
      </trkpt>
      <trkpt lat="49.83982" lon="4.78481">
        <ele>266</ele>
        <time>2021-03-30T11:13:06.000Z</time>
      </trkpt>
      <trkpt lat="49.83988" lon="4.78481">
        <ele>266</ele>
        <time>2021-03-30T11:13:07.000Z</time>
      </trkpt>
      <trkpt lat="49.83993" lon="4.78482">
        <ele>266</ele>
        <time>2021-03-30T11:13:08.000Z</time>
      </trkpt>
      <trkpt lat="49.83998" lon="4.78482">
        <ele>265</ele>
        <time>2021-03-30T11:13:09.000Z</time>
      </trkpt>
      <trkpt lat="49.84003" lon="4.78483">
        <ele>265</ele>
        <time>2021-03-30T11:13:10.000Z</time>
      </trkpt>
      <trkpt lat="49.84009" lon="4.78484">
        <ele>265</ele>
        <time>2021-03-30T11:13:11.000Z</time>
      </trkpt>
      <trkpt lat="49.84015" lon="4.78486">
        <ele>265</ele>
        <time>2021-03-30T11:13:12.000Z</time>
      </trkpt>
      <trkpt lat="49.8402" lon="4.78488">
        <ele>265</ele>
        <time>2021-03-30T11:13:13.000Z</time>
      </trkpt>
      <trkpt lat="49.84026" lon="4.7849">
        <ele>265</ele>
        <time>2021-03-30T11:13:14.000Z</time>
      </trkpt>
      <trkpt lat="49.84031" lon="4.78493">
        <ele>265</ele>
        <time>2021-03-30T11:13:15.000Z</time>
      </trkpt>
      <trkpt lat="49.84036" lon="4.78496">
        <ele>264</ele>
        <time>2021-03-30T11:13:16.000Z</time>
      </trkpt>
      <trkpt lat="49.84041" lon="4.78499">
        <ele>264</ele>
        <time>2021-03-30T11:13:17.000Z</time>
      </trkpt>
      <trkpt lat="49.84046" lon="4.78502">
        <ele>264</ele>
        <time>2021-03-30T11:13:18.000Z</time>
      </trkpt>
      <trkpt lat="49.84051" lon="4.78505">
        <ele>264</ele>
        <time>2021-03-30T11:13:19.000Z</time>
      </trkpt>
      <trkpt lat="49.84056" lon="4.78507">
        <ele>264</ele>
        <time>2021-03-30T11:13:20.000Z</time>
      </trkpt>
      <trkpt lat="49.84061" lon="4.78508">
        <ele>264</ele>
        <time>2021-03-30T11:13:21.000Z</time>
      </trkpt>
      <trkpt lat="49.84065" lon="4.7851">
        <ele>265</ele>
        <time>2021-03-30T11:13:22.000Z</time>
      </trkpt>
      <trkpt lat="49.84068" lon="4.78511">
        <ele>265</ele>
        <time>2021-03-30T11:13:23.000Z</time>
      </trkpt>
      <trkpt lat="49.8407" lon="4.78513">
        <ele>265</ele>
        <time>2021-03-30T11:13:24.000Z</time>
      </trkpt>
      <trkpt lat="49.84072" lon="4.78515">
        <ele>265</ele>
        <time>2021-03-30T11:13:25.000Z</time>
      </trkpt>
      <trkpt lat="49.84074" lon="4.78516">
        <ele>266</ele>
        <time>2021-03-30T11:13:26.000Z</time>
      </trkpt>
      <trkpt lat="49.84077" lon="4.78517">
        <ele>266</ele>
        <time>2021-03-30T11:13:27.000Z</time>
      </trkpt>
      <trkpt lat="49.84079" lon="4.78517">
        <ele>266</ele>
        <time>2021-03-30T11:13:28.000Z</time>
      </trkpt>
      <trkpt lat="49.84081" lon="4.78518">
        <ele>266</ele>
        <time>2021-03-30T11:13:29.000Z</time>
      </trkpt>
      <trkpt lat="49.84084" lon="4.78518">
        <ele>267</ele>
        <time>2021-03-30T11:13:30.000Z</time>
      </trkpt>
      <trkpt lat="49.84086" lon="4.78519">
        <ele>267</ele>
        <time>2021-03-30T11:13:31.000Z</time>
      </trkpt>
      <trkpt lat="49.84089" lon="4.78519">
        <ele>267</ele>
        <time>2021-03-30T11:13:32.000Z</time>
      </trkpt>
      <trkpt lat="49.84091" lon="4.78518">
        <ele>267</ele>
        <time>2021-03-30T11:13:33.000Z</time>
      </trkpt>
      <trkpt lat="49.84093" lon="4.78518">
        <ele>267</ele>
        <time>2021-03-30T11:13:34.000Z</time>
      </trkpt>
      <trkpt lat="49.84096" lon="4.78518">
        <ele>267</ele>
        <time>2021-03-30T11:13:35.000Z</time>
      </trkpt>
      <trkpt lat="49.84098" lon="4.78518">
        <ele>267</ele>
        <time>2021-03-30T11:13:36.000Z</time>
      </trkpt>
      <trkpt lat="49.84101" lon="4.78518">
        <ele>267</ele>
        <time>2021-03-30T11:13:37.000Z</time>
      </trkpt>
      <trkpt lat="49.84103" lon="4.78517">
        <ele>267</ele>
        <time>2021-03-30T11:13:38.000Z</time>
      </trkpt>
      <trkpt lat="49.84106" lon="4.78517">
        <ele>267</ele>
        <time>2021-03-30T11:13:39.000Z</time>
      </trkpt>
      <trkpt lat="49.84108" lon="4.78516">
        <ele>267</ele>
        <time>2021-03-30T11:13:40.000Z</time>
      </trkpt>
      <trkpt lat="49.8411" lon="4.78516">
        <ele>268</ele>
        <time>2021-03-30T11:13:41.000Z</time>
      </trkpt>
      <trkpt lat="49.84113" lon="4.78515">
        <ele>268</ele>
        <time>2021-03-30T11:13:42.000Z</time>
      </trkpt>
      <trkpt lat="49.84114" lon="4.78515">
        <ele>268</ele>
        <time>2021-03-30T11:13:43.000Z</time>
      </trkpt>
      <trkpt lat="49.84117" lon="4.78515">
        <ele>268</ele>
        <time>2021-03-30T11:13:44.000Z</time>
      </trkpt>
      <trkpt lat="49.8412" lon="4.78515">
        <ele>268</ele>
        <time>2021-03-30T11:13:45.000Z</time>
      </trkpt>
      <trkpt lat="49.84123" lon="4.78515">
        <ele>268</ele>
        <time>2021-03-30T11:13:46.000Z</time>
      </trkpt>
      <trkpt lat="49.84125" lon="4.78514">
        <ele>268</ele>
        <time>2021-03-30T11:13:47.000Z</time>
      </trkpt>
      <trkpt lat="49.84127" lon="4.78514">
        <ele>269</ele>
        <time>2021-03-30T11:13:48.000Z</time>
      </trkpt>
      <trkpt lat="49.84129" lon="4.78514">
        <ele>269</ele>
        <time>2021-03-30T11:13:49.000Z</time>
      </trkpt>
      <trkpt lat="49.84131" lon="4.78514">
        <ele>269</ele>
        <time>2021-03-30T11:13:50.000Z</time>
      </trkpt>
      <trkpt lat="49.84134" lon="4.78514">
        <ele>269</ele>
        <time>2021-03-30T11:13:51.000Z</time>
      </trkpt>
      <trkpt lat="49.84137" lon="4.78514">
        <ele>269</ele>
        <time>2021-03-30T11:13:52.000Z</time>
      </trkpt>
      <trkpt lat="49.84139" lon="4.78515">
        <ele>270</ele>
        <time>2021-03-30T11:13:53.000Z</time>
      </trkpt>
      <trkpt lat="49.8414" lon="4.78516">
        <ele>270</ele>
        <time>2021-03-30T11:13:54.000Z</time>
      </trkpt>
      <trkpt lat="49.84143" lon="4.78516">
        <ele>270</ele>
        <time>2021-03-30T11:13:55.000Z</time>
      </trkpt>
      <trkpt lat="49.84145" lon="4.78517">
        <ele>270</ele>
        <time>2021-03-30T11:13:56.000Z</time>
      </trkpt>
      <trkpt lat="49.84148" lon="4.78518">
        <ele>270</ele>
        <time>2021-03-30T11:13:57.000Z</time>
      </trkpt>
      <trkpt lat="49.8415" lon="4.7852">
        <ele>270</ele>
        <time>2021-03-30T11:13:58.000Z</time>
      </trkpt>
      <trkpt lat="49.84153" lon="4.78521">
        <ele>271</ele>
        <time>2021-03-30T11:13:59.000Z</time>
      </trkpt>
      <trkpt lat="49.84156" lon="4.78522">
        <ele>271</ele>
        <time>2021-03-30T11:14:00.000Z</time>
      </trkpt>
      <trkpt lat="49.84158" lon="4.78524">
        <ele>271</ele>
        <time>2021-03-30T11:14:01.000Z</time>
      </trkpt>
      <trkpt lat="49.8416" lon="4.78525">
        <ele>271</ele>
        <time>2021-03-30T11:14:02.000Z</time>
      </trkpt>
      <trkpt lat="49.84161" lon="4.78527">
        <ele>271</ele>
        <time>2021-03-30T11:14:03.000Z</time>
      </trkpt>
      <trkpt lat="49.84163" lon="4.78529">
        <ele>271</ele>
        <time>2021-03-30T11:14:04.000Z</time>
      </trkpt>
      <trkpt lat="49.84165" lon="4.7853">
        <ele>272</ele>
        <time>2021-03-30T11:14:05.000Z</time>
      </trkpt>
      <trkpt lat="49.84167" lon="4.78533">
        <ele>272</ele>
        <time>2021-03-30T11:14:06.000Z</time>
      </trkpt>
      <trkpt lat="49.84169" lon="4.78535">
        <ele>272</ele>
        <time>2021-03-30T11:14:07.000Z</time>
      </trkpt>
      <trkpt lat="49.84171" lon="4.78537">
        <ele>272</ele>
        <time>2021-03-30T11:14:08.000Z</time>
      </trkpt>
      <trkpt lat="49.84173" lon="4.78538">
        <ele>272</ele>
        <time>2021-03-30T11:14:09.000Z</time>
      </trkpt>
      <trkpt lat="49.84175" lon="4.78541">
        <ele>272</ele>
        <time>2021-03-30T11:14:10.000Z</time>
      </trkpt>
      <trkpt lat="49.84178" lon="4.78542">
        <ele>272</ele>
        <time>2021-03-30T11:14:11.000Z</time>
      </trkpt>
      <trkpt lat="49.8418" lon="4.78544">
        <ele>273</ele>
        <time>2021-03-30T11:14:12.000Z</time>
      </trkpt>
      <trkpt lat="49.84183" lon="4.78545">
        <ele>273</ele>
        <time>2021-03-30T11:14:13.000Z</time>
      </trkpt>
      <trkpt lat="49.84186" lon="4.78546">
        <ele>273</ele>
        <time>2021-03-30T11:14:14.000Z</time>
      </trkpt>
      <trkpt lat="49.84188" lon="4.78546">
        <ele>273</ele>
        <time>2021-03-30T11:14:15.000Z</time>
      </trkpt>
      <trkpt lat="49.8419" lon="4.78547">
        <ele>273</ele>
        <time>2021-03-30T11:14:16.000Z</time>
      </trkpt>
      <trkpt lat="49.84192" lon="4.78547">
        <ele>273</ele>
        <time>2021-03-30T11:14:17.000Z</time>
      </trkpt>
      <trkpt lat="49.84194" lon="4.78547">
        <ele>274</ele>
        <time>2021-03-30T11:14:18.000Z</time>
      </trkpt>
      <trkpt lat="49.84196" lon="4.78548">
        <ele>274</ele>
        <time>2021-03-30T11:14:19.000Z</time>
      </trkpt>
      <trkpt lat="49.84198" lon="4.78548">
        <ele>274</ele>
        <time>2021-03-30T11:14:20.000Z</time>
      </trkpt>
      <trkpt lat="49.842" lon="4.78549">
        <ele>274</ele>
        <time>2021-03-30T11:14:21.000Z</time>
      </trkpt>
      <trkpt lat="49.84201" lon="4.78549">
        <ele>274</ele>
        <time>2021-03-30T11:14:22.000Z</time>
      </trkpt>
      <trkpt lat="49.84203" lon="4.7855">
        <ele>275</ele>
        <time>2021-03-30T11:14:23.000Z</time>
      </trkpt>
      <trkpt lat="49.84205" lon="4.7855">
        <ele>275</ele>
        <time>2021-03-30T11:14:24.000Z</time>
      </trkpt>
      <trkpt lat="49.84207" lon="4.78551">
        <ele>275</ele>
        <time>2021-03-30T11:14:25.000Z</time>
      </trkpt>
      <trkpt lat="49.84209" lon="4.78551">
        <ele>275</ele>
        <time>2021-03-30T11:14:26.000Z</time>
      </trkpt>
      <trkpt lat="49.84211" lon="4.78552">
        <ele>275</ele>
        <time>2021-03-30T11:14:27.000Z</time>
      </trkpt>
      <trkpt lat="49.84214" lon="4.78553">
        <ele>275</ele>
        <time>2021-03-30T11:14:28.000Z</time>
      </trkpt>
      <trkpt lat="49.84216" lon="4.78554">
        <ele>276</ele>
        <time>2021-03-30T11:14:29.000Z</time>
      </trkpt>
      <trkpt lat="49.84219" lon="4.78555">
        <ele>276</ele>
        <time>2021-03-30T11:14:30.000Z</time>
      </trkpt>
      <trkpt lat="49.84222" lon="4.78556">
        <ele>276</ele>
        <time>2021-03-30T11:14:31.000Z</time>
      </trkpt>
      <trkpt lat="49.84225" lon="4.78557">
        <ele>276</ele>
        <time>2021-03-30T11:14:32.000Z</time>
      </trkpt>
      <trkpt lat="49.84228" lon="4.78558">
        <ele>277</ele>
        <time>2021-03-30T11:14:33.000Z</time>
      </trkpt>
      <trkpt lat="49.84231" lon="4.7856">
        <ele>277</ele>
        <time>2021-03-30T11:14:34.000Z</time>
      </trkpt>
      <trkpt lat="49.84233" lon="4.78561">
        <ele>277</ele>
        <time>2021-03-30T11:14:35.000Z</time>
      </trkpt>
      <trkpt lat="49.84236" lon="4.78562">
        <ele>278</ele>
        <time>2021-03-30T11:14:36.000Z</time>
      </trkpt>
      <trkpt lat="49.84239" lon="4.78562">
        <ele>278</ele>
        <time>2021-03-30T11:14:37.000Z</time>
      </trkpt>
      <trkpt lat="49.84242" lon="4.78563">
        <ele>278</ele>
        <time>2021-03-30T11:14:38.000Z</time>
      </trkpt>
      <trkpt lat="49.84245" lon="4.78565">
        <ele>279</ele>
        <time>2021-03-30T11:14:39.000Z</time>
      </trkpt>
      <trkpt lat="49.84248" lon="4.78566">
        <ele>279</ele>
        <time>2021-03-30T11:14:40.000Z</time>
      </trkpt>
      <trkpt lat="49.84251" lon="4.78567">
        <ele>279</ele>
        <time>2021-03-30T11:14:41.000Z</time>
      </trkpt>
      <trkpt lat="49.84254" lon="4.78568">
        <ele>280</ele>
        <time>2021-03-30T11:14:42.000Z</time>
      </trkpt>
      <trkpt lat="49.84256" lon="4.7857">
        <ele>280</ele>
        <time>2021-03-30T11:14:43.000Z</time>
      </trkpt>
      <trkpt lat="49.84258" lon="4.78572">
        <ele>280</ele>
        <time>2021-03-30T11:14:44.000Z</time>
      </trkpt>
      <trkpt lat="49.8426" lon="4.78573">
        <ele>281</ele>
        <time>2021-03-30T11:14:45.000Z</time>
      </trkpt>
      <trkpt lat="49.84262" lon="4.78575">
        <ele>281</ele>
        <time>2021-03-30T11:14:46.000Z</time>
      </trkpt>
      <trkpt lat="49.84263" lon="4.78577">
        <ele>281</ele>
        <time>2021-03-30T11:14:47.000Z</time>
      </trkpt>
      <trkpt lat="49.84265" lon="4.78579">
        <ele>282</ele>
        <time>2021-03-30T11:14:48.000Z</time>
      </trkpt>
      <trkpt lat="49.84268" lon="4.78581">
        <ele>282</ele>
        <time>2021-03-30T11:14:49.000Z</time>
      </trkpt>
      <trkpt lat="49.8427" lon="4.78583">
        <ele>282</ele>
        <time>2021-03-30T11:14:50.000Z</time>
      </trkpt>
      <trkpt lat="49.84272" lon="4.78585">
        <ele>283</ele>
        <time>2021-03-30T11:14:51.000Z</time>
      </trkpt>
      <trkpt lat="49.84274" lon="4.78588">
        <ele>283</ele>
        <time>2021-03-30T11:14:52.000Z</time>
      </trkpt>
      <trkpt lat="49.84275" lon="4.78591">
        <ele>284</ele>
        <time>2021-03-30T11:14:53.000Z</time>
      </trkpt>
      <trkpt lat="49.84277" lon="4.78593">
        <ele>284</ele>
        <time>2021-03-30T11:14:54.000Z</time>
      </trkpt>
      <trkpt lat="49.84278" lon="4.78595">
        <ele>285</ele>
        <time>2021-03-30T11:14:55.000Z</time>
      </trkpt>
      <trkpt lat="49.8428" lon="4.78597">
        <ele>285</ele>
        <time>2021-03-30T11:14:56.000Z</time>
      </trkpt>
      <trkpt lat="49.84283" lon="4.78599">
        <ele>286</ele>
        <time>2021-03-30T11:14:57.000Z</time>
      </trkpt>
      <trkpt lat="49.84286" lon="4.786">
        <ele>286</ele>
        <time>2021-03-30T11:14:58.000Z</time>
      </trkpt>
      <trkpt lat="49.84289" lon="4.78601">
        <ele>287</ele>
        <time>2021-03-30T11:14:59.000Z</time>
      </trkpt>
      <trkpt lat="49.84292" lon="4.78602">
        <ele>287</ele>
        <time>2021-03-30T11:15:00.000Z</time>
      </trkpt>
      <trkpt lat="49.84295" lon="4.78603">
        <ele>288</ele>
        <time>2021-03-30T11:15:01.000Z</time>
      </trkpt>
      <trkpt lat="49.84298" lon="4.78604">
        <ele>288</ele>
        <time>2021-03-30T11:15:02.000Z</time>
      </trkpt>
      <trkpt lat="49.84301" lon="4.78604">
        <ele>288</ele>
        <time>2021-03-30T11:15:03.000Z</time>
      </trkpt>
      <trkpt lat="49.84305" lon="4.78604">
        <ele>289</ele>
        <time>2021-03-30T11:15:04.000Z</time>
      </trkpt>
      <trkpt lat="49.84308" lon="4.78603">
        <ele>289</ele>
        <time>2021-03-30T11:15:05.000Z</time>
      </trkpt>
      <trkpt lat="49.84312" lon="4.78602">
        <ele>290</ele>
        <time>2021-03-30T11:15:06.000Z</time>
      </trkpt>
      <trkpt lat="49.84314" lon="4.78602">
        <ele>290</ele>
        <time>2021-03-30T11:15:07.000Z</time>
      </trkpt>
      <trkpt lat="49.84317" lon="4.78601">
        <ele>290</ele>
        <time>2021-03-30T11:15:08.000Z</time>
      </trkpt>
      <trkpt lat="49.84319" lon="4.78601">
        <ele>291</ele>
        <time>2021-03-30T11:15:09.000Z</time>
      </trkpt>
      <trkpt lat="49.84321" lon="4.786">
        <ele>291</ele>
        <time>2021-03-30T11:15:10.000Z</time>
      </trkpt>
      <trkpt lat="49.84323" lon="4.78598">
        <ele>291</ele>
        <time>2021-03-30T11:15:11.000Z</time>
      </trkpt>
      <trkpt lat="49.84325" lon="4.78597">
        <ele>292</ele>
        <time>2021-03-30T11:15:12.000Z</time>
      </trkpt>
      <trkpt lat="49.84327" lon="4.78597">
        <ele>292</ele>
        <time>2021-03-30T11:15:13.000Z</time>
      </trkpt>
      <trkpt lat="49.84329" lon="4.78596">
        <ele>292</ele>
        <time>2021-03-30T11:15:14.000Z</time>
      </trkpt>
      <trkpt lat="49.84332" lon="4.78595">
        <ele>292</ele>
        <time>2021-03-30T11:15:15.000Z</time>
      </trkpt>
      <trkpt lat="49.84336" lon="4.78593">
        <ele>292</ele>
        <time>2021-03-30T11:15:16.000Z</time>
      </trkpt>
      <trkpt lat="49.84338" lon="4.78592">
        <ele>292</ele>
        <time>2021-03-30T11:15:17.000Z</time>
      </trkpt>
      <trkpt lat="49.84342" lon="4.78591">
        <ele>292</ele>
        <time>2021-03-30T11:15:18.000Z</time>
      </trkpt>
      <trkpt lat="49.84345" lon="4.78591">
        <ele>292</ele>
        <time>2021-03-30T11:15:19.000Z</time>
      </trkpt>
      <trkpt lat="49.84348" lon="4.7859">
        <ele>292</ele>
        <time>2021-03-30T11:15:20.000Z</time>
      </trkpt>
      <trkpt lat="49.84352" lon="4.7859">
        <ele>292</ele>
        <time>2021-03-30T11:15:21.000Z</time>
      </trkpt>
      <trkpt lat="49.84355" lon="4.78589">
        <ele>292</ele>
        <time>2021-03-30T11:15:22.000Z</time>
      </trkpt>
      <trkpt lat="49.84358" lon="4.78589">
        <ele>292</ele>
        <time>2021-03-30T11:15:23.000Z</time>
      </trkpt>
      <trkpt lat="49.84362" lon="4.78589">
        <ele>292</ele>
        <time>2021-03-30T11:15:24.000Z</time>
      </trkpt>
      <trkpt lat="49.84365" lon="4.78589">
        <ele>292</ele>
        <time>2021-03-30T11:15:25.000Z</time>
      </trkpt>
      <trkpt lat="49.84368" lon="4.7859">
        <ele>293</ele>
        <time>2021-03-30T11:15:26.000Z</time>
      </trkpt>
      <trkpt lat="49.84371" lon="4.7859">
        <ele>293</ele>
        <time>2021-03-30T11:15:27.000Z</time>
      </trkpt>
      <trkpt lat="49.84375" lon="4.78589">
        <ele>293</ele>
        <time>2021-03-30T11:15:28.000Z</time>
      </trkpt>
      <trkpt lat="49.84378" lon="4.78589">
        <ele>293</ele>
        <time>2021-03-30T11:15:29.000Z</time>
      </trkpt>
      <trkpt lat="49.8438" lon="4.78588">
        <ele>293</ele>
        <time>2021-03-30T11:15:30.000Z</time>
      </trkpt>
      <trkpt lat="49.84382" lon="4.78586">
        <ele>293</ele>
        <time>2021-03-30T11:15:31.000Z</time>
      </trkpt>
      <trkpt lat="49.84384" lon="4.78584">
        <ele>294</ele>
        <time>2021-03-30T11:15:32.000Z</time>
      </trkpt>
      <trkpt lat="49.84386" lon="4.7858">
        <ele>294</ele>
        <time>2021-03-30T11:15:33.000Z</time>
      </trkpt>
      <trkpt lat="49.84388" lon="4.78575">
        <ele>294</ele>
        <time>2021-03-30T11:15:34.000Z</time>
      </trkpt>
      <trkpt lat="49.8439" lon="4.7857">
        <ele>294</ele>
        <time>2021-03-30T11:15:35.000Z</time>
      </trkpt>
      <trkpt lat="49.84393" lon="4.78566">
        <ele>294</ele>
        <time>2021-03-30T11:15:36.000Z</time>
      </trkpt>
      <trkpt lat="49.84395" lon="4.78562">
        <ele>294</ele>
        <time>2021-03-30T11:15:37.000Z</time>
      </trkpt>
      <trkpt lat="49.84397" lon="4.78559">
        <ele>294</ele>
        <time>2021-03-30T11:15:38.000Z</time>
      </trkpt>
      <trkpt lat="49.84399" lon="4.78555">
        <ele>294</ele>
        <time>2021-03-30T11:15:39.000Z</time>
      </trkpt>
      <trkpt lat="49.84401" lon="4.78551">
        <ele>294</ele>
        <time>2021-03-30T11:15:40.000Z</time>
      </trkpt>
      <trkpt lat="49.84403" lon="4.78547">
        <ele>294</ele>
        <time>2021-03-30T11:15:41.000Z</time>
      </trkpt>
      <trkpt lat="49.84404" lon="4.78543">
        <ele>294</ele>
        <time>2021-03-30T11:15:42.000Z</time>
      </trkpt>
      <trkpt lat="49.84405" lon="4.78539">
        <ele>294</ele>
        <time>2021-03-30T11:15:43.000Z</time>
      </trkpt>
      <trkpt lat="49.84408" lon="4.78535">
        <ele>294</ele>
        <time>2021-03-30T11:15:44.000Z</time>
      </trkpt>
      <trkpt lat="49.84411" lon="4.78533">
        <ele>294</ele>
        <time>2021-03-30T11:15:45.000Z</time>
      </trkpt>
      <trkpt lat="49.84414" lon="4.78531">
        <ele>294</ele>
        <time>2021-03-30T11:15:46.000Z</time>
      </trkpt>
      <trkpt lat="49.84418" lon="4.7853">
        <ele>294</ele>
        <time>2021-03-30T11:15:47.000Z</time>
      </trkpt>
      <trkpt lat="49.84421" lon="4.78529">
        <ele>294</ele>
        <time>2021-03-30T11:15:48.000Z</time>
      </trkpt>
      <trkpt lat="49.84424" lon="4.78528">
        <ele>294</ele>
        <time>2021-03-30T11:15:49.000Z</time>
      </trkpt>
      <trkpt lat="49.84427" lon="4.78526">
        <ele>294</ele>
        <time>2021-03-30T11:15:50.000Z</time>
      </trkpt>
      <trkpt lat="49.84431" lon="4.78523">
        <ele>294</ele>
        <time>2021-03-30T11:15:51.000Z</time>
      </trkpt>
      <trkpt lat="49.84435" lon="4.7852">
        <ele>294</ele>
        <time>2021-03-30T11:15:52.000Z</time>
      </trkpt>
      <trkpt lat="49.84439" lon="4.78516">
        <ele>295</ele>
        <time>2021-03-30T11:15:53.000Z</time>
      </trkpt>
      <trkpt lat="49.84442" lon="4.78512">
        <ele>295</ele>
        <time>2021-03-30T11:15:54.000Z</time>
      </trkpt>
      <trkpt lat="49.84446" lon="4.78509">
        <ele>295</ele>
        <time>2021-03-30T11:15:55.000Z</time>
      </trkpt>
      <trkpt lat="49.8445" lon="4.78505">
        <ele>295</ele>
        <time>2021-03-30T11:15:56.000Z</time>
      </trkpt>
      <trkpt lat="49.84454" lon="4.78501">
        <ele>295</ele>
        <time>2021-03-30T11:15:57.000Z</time>
      </trkpt>
      <trkpt lat="49.84458" lon="4.78496">
        <ele>295</ele>
        <time>2021-03-30T11:15:58.000Z</time>
      </trkpt>
      <trkpt lat="49.84462" lon="4.78491">
        <ele>295</ele>
        <time>2021-03-30T11:15:59.000Z</time>
      </trkpt>
      <trkpt lat="49.84465" lon="4.78487">
        <ele>295</ele>
        <time>2021-03-30T11:16:00.000Z</time>
      </trkpt>
      <trkpt lat="49.8447" lon="4.78483">
        <ele>296</ele>
        <time>2021-03-30T11:16:01.000Z</time>
      </trkpt>
      <trkpt lat="49.84474" lon="4.78478">
        <ele>296</ele>
        <time>2021-03-30T11:16:02.000Z</time>
      </trkpt>
      <trkpt lat="49.84479" lon="4.78474">
        <ele>296</ele>
        <time>2021-03-30T11:16:03.000Z</time>
      </trkpt>
      <trkpt lat="49.84483" lon="4.78469">
        <ele>296</ele>
        <time>2021-03-30T11:16:04.000Z</time>
      </trkpt>
      <trkpt lat="49.84488" lon="4.78465">
        <ele>296</ele>
        <time>2021-03-30T11:16:05.000Z</time>
      </trkpt>
      <trkpt lat="49.84491" lon="4.7846">
        <ele>296</ele>
        <time>2021-03-30T11:16:06.000Z</time>
      </trkpt>
      <trkpt lat="49.84494" lon="4.78456">
        <ele>296</ele>
        <time>2021-03-30T11:16:07.000Z</time>
      </trkpt>
      <trkpt lat="49.84497" lon="4.78452">
        <ele>296</ele>
        <time>2021-03-30T11:16:08.000Z</time>
      </trkpt>
      <trkpt lat="49.845" lon="4.78447">
        <ele>296</ele>
        <time>2021-03-30T11:16:09.000Z</time>
      </trkpt>
      <trkpt lat="49.84503" lon="4.78443">
        <ele>296</ele>
        <time>2021-03-30T11:16:10.000Z</time>
      </trkpt>
      <trkpt lat="49.84507" lon="4.78439">
        <ele>296</ele>
        <time>2021-03-30T11:16:11.000Z</time>
      </trkpt>
      <trkpt lat="49.8451" lon="4.78435">
        <ele>296</ele>
        <time>2021-03-30T11:16:12.000Z</time>
      </trkpt>
      <trkpt lat="49.84513" lon="4.78432">
        <ele>296</ele>
        <time>2021-03-30T11:16:13.000Z</time>
      </trkpt>
      <trkpt lat="49.84518" lon="4.78429">
        <ele>296</ele>
        <time>2021-03-30T11:16:14.000Z</time>
      </trkpt>
      <trkpt lat="49.84522" lon="4.78427">
        <ele>295</ele>
        <time>2021-03-30T11:16:15.000Z</time>
      </trkpt>
      <trkpt lat="49.84527" lon="4.78425">
        <ele>295</ele>
        <time>2021-03-30T11:16:16.000Z</time>
      </trkpt>
      <trkpt lat="49.84532" lon="4.78423">
        <ele>295</ele>
        <time>2021-03-30T11:16:17.000Z</time>
      </trkpt>
      <trkpt lat="49.84536" lon="4.78423">
        <ele>295</ele>
        <time>2021-03-30T11:16:18.000Z</time>
      </trkpt>
      <trkpt lat="49.8454" lon="4.78425">
        <ele>295</ele>
        <time>2021-03-30T11:16:19.000Z</time>
      </trkpt>
      <trkpt lat="49.84544" lon="4.78426">
        <ele>295</ele>
        <time>2021-03-30T11:16:20.000Z</time>
      </trkpt>
      <trkpt lat="49.84548" lon="4.78427">
        <ele>295</ele>
        <time>2021-03-30T11:16:21.000Z</time>
      </trkpt>
      <trkpt lat="49.84551" lon="4.78427">
        <ele>295</ele>
        <time>2021-03-30T11:16:22.000Z</time>
      </trkpt>
      <trkpt lat="49.84553" lon="4.78426">
        <ele>295</ele>
        <time>2021-03-30T11:16:23.000Z</time>
      </trkpt>
      <trkpt lat="49.84556" lon="4.78426">
        <ele>295</ele>
        <time>2021-03-30T11:16:24.000Z</time>
      </trkpt>
      <trkpt lat="49.84558" lon="4.78425">
        <ele>296</ele>
        <time>2021-03-30T11:16:25.000Z</time>
      </trkpt>
      <trkpt lat="49.84559" lon="4.78423">
        <ele>296</ele>
        <time>2021-03-30T11:16:26.000Z</time>
      </trkpt>
      <trkpt lat="49.84561" lon="4.78421">
        <ele>296</ele>
        <time>2021-03-30T11:16:27.000Z</time>
      </trkpt>
      <trkpt lat="49.84563" lon="4.7842">
        <ele>296</ele>
        <time>2021-03-30T11:16:28.000Z</time>
      </trkpt>
      <trkpt lat="49.84565" lon="4.78418">
        <ele>296</ele>
        <time>2021-03-30T11:16:29.000Z</time>
      </trkpt>
      <trkpt lat="49.84568" lon="4.78416">
        <ele>296</ele>
        <time>2021-03-30T11:16:30.000Z</time>
      </trkpt>
      <trkpt lat="49.84571" lon="4.78413">
        <ele>296</ele>
        <time>2021-03-30T11:16:31.000Z</time>
      </trkpt>
      <trkpt lat="49.84573" lon="4.78411">
        <ele>296</ele>
        <time>2021-03-30T11:16:32.000Z</time>
      </trkpt>
      <trkpt lat="49.84575" lon="4.78409">
        <ele>296</ele>
        <time>2021-03-30T11:16:33.000Z</time>
      </trkpt>
      <trkpt lat="49.84578" lon="4.78407">
        <ele>296</ele>
        <time>2021-03-30T11:16:34.000Z</time>
      </trkpt>
      <trkpt lat="49.84581" lon="4.78405">
        <ele>296</ele>
        <time>2021-03-30T11:16:35.000Z</time>
      </trkpt>
      <trkpt lat="49.84583" lon="4.78402">
        <ele>296</ele>
        <time>2021-03-30T11:16:36.000Z</time>
      </trkpt>
      <trkpt lat="49.84585" lon="4.784">
        <ele>296</ele>
        <time>2021-03-30T11:16:37.000Z</time>
      </trkpt>
      <trkpt lat="49.84588" lon="4.78398">
        <ele>296</ele>
        <time>2021-03-30T11:16:38.000Z</time>
      </trkpt>
      <trkpt lat="49.8459" lon="4.78396">
        <ele>297</ele>
        <time>2021-03-30T11:16:39.000Z</time>
      </trkpt>
      <trkpt lat="49.84592" lon="4.78394">
        <ele>297</ele>
        <time>2021-03-30T11:16:40.000Z</time>
      </trkpt>
      <trkpt lat="49.84594" lon="4.78393">
        <ele>297</ele>
        <time>2021-03-30T11:16:41.000Z</time>
      </trkpt>
      <trkpt lat="49.84597" lon="4.78391">
        <ele>297</ele>
        <time>2021-03-30T11:16:42.000Z</time>
      </trkpt>
      <trkpt lat="49.846" lon="4.78392">
        <ele>297</ele>
        <time>2021-03-30T11:16:43.000Z</time>
      </trkpt>
      <trkpt lat="49.84601" lon="4.78392">
        <ele>298</ele>
        <time>2021-03-30T11:16:44.000Z</time>
      </trkpt>
      <trkpt lat="49.84603" lon="4.78393">
        <ele>298</ele>
        <time>2021-03-30T11:16:45.000Z</time>
      </trkpt>
      <trkpt lat="49.84605" lon="4.78394">
        <ele>298</ele>
        <time>2021-03-30T11:16:46.000Z</time>
      </trkpt>
      <trkpt lat="49.84607" lon="4.78395">
        <ele>299</ele>
        <time>2021-03-30T11:16:47.000Z</time>
      </trkpt>
      <trkpt lat="49.84609" lon="4.78395">
        <ele>299</ele>
        <time>2021-03-30T11:16:48.000Z</time>
      </trkpt>
      <trkpt lat="49.84611" lon="4.78396">
        <ele>300</ele>
        <time>2021-03-30T11:16:49.000Z</time>
      </trkpt>
      <trkpt lat="49.84613" lon="4.78396">
        <ele>300</ele>
        <time>2021-03-30T11:16:50.000Z</time>
      </trkpt>
      <trkpt lat="49.84615" lon="4.78396">
        <ele>300</ele>
        <time>2021-03-30T11:16:51.000Z</time>
      </trkpt>
      <trkpt lat="49.84617" lon="4.78396">
        <ele>300</ele>
        <time>2021-03-30T11:16:52.000Z</time>
      </trkpt>
      <trkpt lat="49.8462" lon="4.78396">
        <ele>300</ele>
        <time>2021-03-30T11:16:53.000Z</time>
      </trkpt>
      <trkpt lat="49.84621" lon="4.78396">
        <ele>301</ele>
        <time>2021-03-30T11:16:54.000Z</time>
      </trkpt>
      <trkpt lat="49.84624" lon="4.78396">
        <ele>301</ele>
        <time>2021-03-30T11:16:55.000Z</time>
      </trkpt>
      <trkpt lat="49.84625" lon="4.78395">
        <ele>301</ele>
        <time>2021-03-30T11:16:56.000Z</time>
      </trkpt>
      <trkpt lat="49.84627" lon="4.78395">
        <ele>302</ele>
        <time>2021-03-30T11:16:57.000Z</time>
      </trkpt>
      <trkpt lat="49.84629" lon="4.78395">
        <ele>302</ele>
        <time>2021-03-30T11:16:58.000Z</time>
      </trkpt>
      <trkpt lat="49.8463" lon="4.78394">
        <ele>302</ele>
        <time>2021-03-30T11:16:59.000Z</time>
      </trkpt>
      <trkpt lat="49.84632" lon="4.78393">
        <ele>302</ele>
        <time>2021-03-30T11:17:00.000Z</time>
      </trkpt>
      <trkpt lat="49.84635" lon="4.78392">
        <ele>303</ele>
        <time>2021-03-30T11:17:01.000Z</time>
      </trkpt>
      <trkpt lat="49.84637" lon="4.78391">
        <ele>303</ele>
        <time>2021-03-30T11:17:02.000Z</time>
      </trkpt>
      <trkpt lat="49.84638" lon="4.7839">
        <ele>303</ele>
        <time>2021-03-30T11:17:03.000Z</time>
      </trkpt>
      <trkpt lat="49.8464" lon="4.78388">
        <ele>303</ele>
        <time>2021-03-30T11:17:04.000Z</time>
      </trkpt>
      <trkpt lat="49.84641" lon="4.78387">
        <ele>303</ele>
        <time>2021-03-30T11:17:05.000Z</time>
      </trkpt>
      <trkpt lat="49.84643" lon="4.78386">
        <ele>303</ele>
        <time>2021-03-30T11:17:06.000Z</time>
      </trkpt>
      <trkpt lat="49.84645" lon="4.78385">
        <ele>303</ele>
        <time>2021-03-30T11:17:07.000Z</time>
      </trkpt>
      <trkpt lat="49.84647" lon="4.78385">
        <ele>303</ele>
        <time>2021-03-30T11:17:08.000Z</time>
      </trkpt>
      <trkpt lat="49.84648" lon="4.78384">
        <ele>303</ele>
        <time>2021-03-30T11:17:09.000Z</time>
      </trkpt>
      <trkpt lat="49.8465" lon="4.78382">
        <ele>303</ele>
        <time>2021-03-30T11:17:10.000Z</time>
      </trkpt>
      <trkpt lat="49.84652" lon="4.78381">
        <ele>303</ele>
        <time>2021-03-30T11:17:11.000Z</time>
      </trkpt>
      <trkpt lat="49.84654" lon="4.7838">
        <ele>303</ele>
        <time>2021-03-30T11:17:12.000Z</time>
      </trkpt>
      <trkpt lat="49.84656" lon="4.7838">
        <ele>303</ele>
        <time>2021-03-30T11:17:13.000Z</time>
      </trkpt>
      <trkpt lat="49.84659" lon="4.78379">
        <ele>303</ele>
        <time>2021-03-30T11:17:14.000Z</time>
      </trkpt>
      <trkpt lat="49.84661" lon="4.78377">
        <ele>303</ele>
        <time>2021-03-30T11:17:15.000Z</time>
      </trkpt>
      <trkpt lat="49.84663" lon="4.78377">
        <ele>304</ele>
        <time>2021-03-30T11:17:16.000Z</time>
      </trkpt>
      <trkpt lat="49.84666" lon="4.78375">
        <ele>304</ele>
        <time>2021-03-30T11:17:17.000Z</time>
      </trkpt>
      <trkpt lat="49.84668" lon="4.78374">
        <ele>304</ele>
        <time>2021-03-30T11:17:18.000Z</time>
      </trkpt>
      <trkpt lat="49.8467" lon="4.78372">
        <ele>304</ele>
        <time>2021-03-30T11:17:19.000Z</time>
      </trkpt>
      <trkpt lat="49.84672" lon="4.78371">
        <ele>304</ele>
        <time>2021-03-30T11:17:20.000Z</time>
      </trkpt>
      <trkpt lat="49.84674" lon="4.7837">
        <ele>304</ele>
        <time>2021-03-30T11:17:21.000Z</time>
      </trkpt>
      <trkpt lat="49.84676" lon="4.7837">
        <ele>304</ele>
        <time>2021-03-30T11:17:22.000Z</time>
      </trkpt>
      <trkpt lat="49.84679" lon="4.78369">
        <ele>305</ele>
        <time>2021-03-30T11:17:23.000Z</time>
      </trkpt>
      <trkpt lat="49.84681" lon="4.78368">
        <ele>305</ele>
        <time>2021-03-30T11:17:24.000Z</time>
      </trkpt>
      <trkpt lat="49.84681" lon="4.78367">
        <ele>305</ele>
        <time>2021-03-30T11:17:25.000Z</time>
      </trkpt>
      <trkpt lat="49.84682" lon="4.78367">
        <ele>305</ele>
        <time>2021-03-30T11:17:26.000Z</time>
      </trkpt>
      <trkpt lat="49.84684" lon="4.78367">
        <ele>305</ele>
        <time>2021-03-30T11:17:27.000Z</time>
      </trkpt>
      <trkpt lat="49.84687" lon="4.78368">
        <ele>305</ele>
        <time>2021-03-30T11:17:28.000Z</time>
      </trkpt>
      <trkpt lat="49.8469" lon="4.78368">
        <ele>305</ele>
        <time>2021-03-30T11:17:29.000Z</time>
      </trkpt>
      <trkpt lat="49.84694" lon="4.78368">
        <ele>306</ele>
        <time>2021-03-30T11:17:30.000Z</time>
      </trkpt>
      <trkpt lat="49.84698" lon="4.78368">
        <ele>306</ele>
        <time>2021-03-30T11:17:31.000Z</time>
      </trkpt>
      <trkpt lat="49.84703" lon="4.78368">
        <ele>306</ele>
        <time>2021-03-30T11:17:32.000Z</time>
      </trkpt>
      <trkpt lat="49.84707" lon="4.78368">
        <ele>306</ele>
        <time>2021-03-30T11:17:33.000Z</time>
      </trkpt>
      <trkpt lat="49.84711" lon="4.78369">
        <ele>306</ele>
        <time>2021-03-30T11:17:34.000Z</time>
      </trkpt>
      <trkpt lat="49.84715" lon="4.78371">
        <ele>306</ele>
        <time>2021-03-30T11:17:35.000Z</time>
      </trkpt>
      <trkpt lat="49.84718" lon="4.78374">
        <ele>306</ele>
        <time>2021-03-30T11:17:36.000Z</time>
      </trkpt>
      <trkpt lat="49.84721" lon="4.78378">
        <ele>306</ele>
        <time>2021-03-30T11:17:37.000Z</time>
      </trkpt>
      <trkpt lat="49.84723" lon="4.7838">
        <ele>306</ele>
        <time>2021-03-30T11:17:38.000Z</time>
      </trkpt>
      <trkpt lat="49.84726" lon="4.78383">
        <ele>306</ele>
        <time>2021-03-30T11:17:39.000Z</time>
      </trkpt>
      <trkpt lat="49.84727" lon="4.78386">
        <ele>307</ele>
        <time>2021-03-30T11:17:40.000Z</time>
      </trkpt>
      <trkpt lat="49.84729" lon="4.78388">
        <ele>307</ele>
        <time>2021-03-30T11:17:41.000Z</time>
      </trkpt>
      <trkpt lat="49.8473" lon="4.78391">
        <ele>307</ele>
        <time>2021-03-30T11:17:42.000Z</time>
      </trkpt>
      <trkpt lat="49.84731" lon="4.78394">
        <ele>307</ele>
        <time>2021-03-30T11:17:43.000Z</time>
      </trkpt>
      <trkpt lat="49.84732" lon="4.78398">
        <ele>307</ele>
        <time>2021-03-30T11:17:44.000Z</time>
      </trkpt>
      <trkpt lat="49.84732" lon="4.78401">
        <ele>308</ele>
        <time>2021-03-30T11:17:45.000Z</time>
      </trkpt>
      <trkpt lat="49.84732" lon="4.78404">
        <ele>308</ele>
        <time>2021-03-30T11:17:46.000Z</time>
      </trkpt>
      <trkpt lat="49.84732" lon="4.78407">
        <ele>308</ele>
        <time>2021-03-30T11:17:47.000Z</time>
      </trkpt>
      <trkpt lat="49.84732" lon="4.78411">
        <ele>308</ele>
        <time>2021-03-30T11:17:48.000Z</time>
      </trkpt>
      <trkpt lat="49.84732" lon="4.78414">
        <ele>308</ele>
        <time>2021-03-30T11:17:49.000Z</time>
      </trkpt>
      <trkpt lat="49.84732" lon="4.78417">
        <ele>308</ele>
        <time>2021-03-30T11:17:50.000Z</time>
      </trkpt>
      <trkpt lat="49.84731" lon="4.78421">
        <ele>308</ele>
        <time>2021-03-30T11:17:51.000Z</time>
      </trkpt>
      <trkpt lat="49.84731" lon="4.78424">
        <ele>309</ele>
        <time>2021-03-30T11:17:52.000Z</time>
      </trkpt>
      <trkpt lat="49.84731" lon="4.78427">
        <ele>309</ele>
        <time>2021-03-30T11:17:53.000Z</time>
      </trkpt>
      <trkpt lat="49.8473" lon="4.7843">
        <ele>309</ele>
        <time>2021-03-30T11:17:54.000Z</time>
      </trkpt>
      <trkpt lat="49.8473" lon="4.78433">
        <ele>309</ele>
        <time>2021-03-30T11:17:55.000Z</time>
      </trkpt>
      <trkpt lat="49.8473" lon="4.78436">
        <ele>309</ele>
        <time>2021-03-30T11:17:56.000Z</time>
      </trkpt>
      <trkpt lat="49.8473" lon="4.78439">
        <ele>309</ele>
        <time>2021-03-30T11:17:57.000Z</time>
      </trkpt>
      <trkpt lat="49.8473" lon="4.78441">
        <ele>310</ele>
        <time>2021-03-30T11:17:58.000Z</time>
      </trkpt>
      <trkpt lat="49.84729" lon="4.78444">
        <ele>310</ele>
        <time>2021-03-30T11:17:59.000Z</time>
      </trkpt>
      <trkpt lat="49.84729" lon="4.78447">
        <ele>310</ele>
        <time>2021-03-30T11:18:00.000Z</time>
      </trkpt>
      <trkpt lat="49.84729" lon="4.78449">
        <ele>310</ele>
        <time>2021-03-30T11:18:01.000Z</time>
      </trkpt>
      <trkpt lat="49.84728" lon="4.78452">
        <ele>310</ele>
        <time>2021-03-30T11:18:02.000Z</time>
      </trkpt>
      <trkpt lat="49.84728" lon="4.78455">
        <ele>311</ele>
        <time>2021-03-30T11:18:03.000Z</time>
      </trkpt>
      <trkpt lat="49.84727" lon="4.78457">
        <ele>311</ele>
        <time>2021-03-30T11:18:04.000Z</time>
      </trkpt>
      <trkpt lat="49.84727" lon="4.7846">
        <ele>311</ele>
        <time>2021-03-30T11:18:05.000Z</time>
      </trkpt>
      <trkpt lat="49.84726" lon="4.78463">
        <ele>311</ele>
        <time>2021-03-30T11:18:06.000Z</time>
      </trkpt>
      <trkpt lat="49.84726" lon="4.78465">
        <ele>311</ele>
        <time>2021-03-30T11:18:07.000Z</time>
      </trkpt>
      <trkpt lat="49.84726" lon="4.78468">
        <ele>312</ele>
        <time>2021-03-30T11:18:08.000Z</time>
      </trkpt>
      <trkpt lat="49.84726" lon="4.78471">
        <ele>312</ele>
        <time>2021-03-30T11:18:09.000Z</time>
      </trkpt>
      <trkpt lat="49.84725" lon="4.78473">
        <ele>313</ele>
        <time>2021-03-30T11:18:10.000Z</time>
      </trkpt>
      <trkpt lat="49.84725" lon="4.78476">
        <ele>313</ele>
        <time>2021-03-30T11:18:11.000Z</time>
      </trkpt>
      <trkpt lat="49.84725" lon="4.78479">
        <ele>313</ele>
        <time>2021-03-30T11:18:12.000Z</time>
      </trkpt>
      <trkpt lat="49.84724" lon="4.78482">
        <ele>314</ele>
        <time>2021-03-30T11:18:13.000Z</time>
      </trkpt>
      <trkpt lat="49.84724" lon="4.78485">
        <ele>314</ele>
        <time>2021-03-30T11:18:14.000Z</time>
      </trkpt>
      <trkpt lat="49.84723" lon="4.78489">
        <ele>314</ele>
        <time>2021-03-30T11:18:15.000Z</time>
      </trkpt>
      <trkpt lat="49.84722" lon="4.78492">
        <ele>315</ele>
        <time>2021-03-30T11:18:16.000Z</time>
      </trkpt>
      <trkpt lat="49.84721" lon="4.78495">
        <ele>315</ele>
        <time>2021-03-30T11:18:17.000Z</time>
      </trkpt>
      <trkpt lat="49.84719" lon="4.78498">
        <ele>315</ele>
        <time>2021-03-30T11:18:18.000Z</time>
      </trkpt>
      <trkpt lat="49.84718" lon="4.78501">
        <ele>315</ele>
        <time>2021-03-30T11:18:19.000Z</time>
      </trkpt>
      <trkpt lat="49.84718" lon="4.78504">
        <ele>315</ele>
        <time>2021-03-30T11:18:20.000Z</time>
      </trkpt>
      <trkpt lat="49.84717" lon="4.78507">
        <ele>315</ele>
        <time>2021-03-30T11:18:21.000Z</time>
      </trkpt>
      <trkpt lat="49.84716" lon="4.78511">
        <ele>316</ele>
        <time>2021-03-30T11:18:22.000Z</time>
      </trkpt>
      <trkpt lat="49.84717" lon="4.78514">
        <ele>316</ele>
        <time>2021-03-30T11:18:23.000Z</time>
      </trkpt>
      <trkpt lat="49.84716" lon="4.78518">
        <ele>316</ele>
        <time>2021-03-30T11:18:24.000Z</time>
      </trkpt>
      <trkpt lat="49.84715" lon="4.78521">
        <ele>316</ele>
        <time>2021-03-30T11:18:25.000Z</time>
      </trkpt>
      <trkpt lat="49.84715" lon="4.78524">
        <ele>316</ele>
        <time>2021-03-30T11:18:26.000Z</time>
      </trkpt>
      <trkpt lat="49.84714" lon="4.78527">
        <ele>317</ele>
        <time>2021-03-30T11:18:27.000Z</time>
      </trkpt>
      <trkpt lat="49.84713" lon="4.78531">
        <ele>317</ele>
        <time>2021-03-30T11:18:28.000Z</time>
      </trkpt>
      <trkpt lat="49.84713" lon="4.78534">
        <ele>317</ele>
        <time>2021-03-30T11:18:29.000Z</time>
      </trkpt>
      <trkpt lat="49.84712" lon="4.78538">
        <ele>318</ele>
        <time>2021-03-30T11:18:30.000Z</time>
      </trkpt>
      <trkpt lat="49.84712" lon="4.78541">
        <ele>318</ele>
        <time>2021-03-30T11:18:31.000Z</time>
      </trkpt>
      <trkpt lat="49.84711" lon="4.78544">
        <ele>318</ele>
        <time>2021-03-30T11:18:32.000Z</time>
      </trkpt>
      <trkpt lat="49.84711" lon="4.78547">
        <ele>319</ele>
        <time>2021-03-30T11:18:33.000Z</time>
      </trkpt>
      <trkpt lat="49.8471" lon="4.7855">
        <ele>319</ele>
        <time>2021-03-30T11:18:34.000Z</time>
      </trkpt>
      <trkpt lat="49.8471" lon="4.78553">
        <ele>319</ele>
        <time>2021-03-30T11:18:35.000Z</time>
      </trkpt>
      <trkpt lat="49.8471" lon="4.78556">
        <ele>319</ele>
        <time>2021-03-30T11:18:36.000Z</time>
      </trkpt>
      <trkpt lat="49.84709" lon="4.78559">
        <ele>320</ele>
        <time>2021-03-30T11:18:37.000Z</time>
      </trkpt>
      <trkpt lat="49.84709" lon="4.78563">
        <ele>320</ele>
        <time>2021-03-30T11:18:38.000Z</time>
      </trkpt>
      <trkpt lat="49.84709" lon="4.78566">
        <ele>320</ele>
        <time>2021-03-30T11:18:39.000Z</time>
      </trkpt>
      <trkpt lat="49.84709" lon="4.7857">
        <ele>320</ele>
        <time>2021-03-30T11:18:40.000Z</time>
      </trkpt>
      <trkpt lat="49.84709" lon="4.78573">
        <ele>321</ele>
        <time>2021-03-30T11:18:41.000Z</time>
      </trkpt>
      <trkpt lat="49.8471" lon="4.78577">
        <ele>321</ele>
        <time>2021-03-30T11:18:42.000Z</time>
      </trkpt>
      <trkpt lat="49.84711" lon="4.78581">
        <ele>321</ele>
        <time>2021-03-30T11:18:43.000Z</time>
      </trkpt>
      <trkpt lat="49.84711" lon="4.78584">
        <ele>322</ele>
        <time>2021-03-30T11:18:44.000Z</time>
      </trkpt>
      <trkpt lat="49.84711" lon="4.78588">
        <ele>322</ele>
        <time>2021-03-30T11:18:45.000Z</time>
      </trkpt>
      <trkpt lat="49.84712" lon="4.78591">
        <ele>322</ele>
        <time>2021-03-30T11:18:46.000Z</time>
      </trkpt>
      <trkpt lat="49.84712" lon="4.78595">
        <ele>322</ele>
        <time>2021-03-30T11:18:47.000Z</time>
      </trkpt>
      <trkpt lat="49.84713" lon="4.78598">
        <ele>322</ele>
        <time>2021-03-30T11:18:48.000Z</time>
      </trkpt>
      <trkpt lat="49.84713" lon="4.78602">
        <ele>323</ele>
        <time>2021-03-30T11:18:49.000Z</time>
      </trkpt>
      <trkpt lat="49.84714" lon="4.78605">
        <ele>323</ele>
        <time>2021-03-30T11:18:50.000Z</time>
      </trkpt>
      <trkpt lat="49.84714" lon="4.78609">
        <ele>323</ele>
        <time>2021-03-30T11:18:51.000Z</time>
      </trkpt>
      <trkpt lat="49.84714" lon="4.78612">
        <ele>323</ele>
        <time>2021-03-30T11:18:52.000Z</time>
      </trkpt>
      <trkpt lat="49.84714" lon="4.78615">
        <ele>323</ele>
        <time>2021-03-30T11:18:53.000Z</time>
      </trkpt>
      <trkpt lat="49.84714" lon="4.78619">
        <ele>323</ele>
        <time>2021-03-30T11:18:54.000Z</time>
      </trkpt>
      <trkpt lat="49.84714" lon="4.78622">
        <ele>323</ele>
        <time>2021-03-30T11:18:55.000Z</time>
      </trkpt>
      <trkpt lat="49.84713" lon="4.78625">
        <ele>324</ele>
        <time>2021-03-30T11:18:56.000Z</time>
      </trkpt>
      <trkpt lat="49.84713" lon="4.78629">
        <ele>324</ele>
        <time>2021-03-30T11:18:57.000Z</time>
      </trkpt>
      <trkpt lat="49.84713" lon="4.78632">
        <ele>324</ele>
        <time>2021-03-30T11:18:58.000Z</time>
      </trkpt>
      <trkpt lat="49.84712" lon="4.78635">
        <ele>324</ele>
        <time>2021-03-30T11:18:59.000Z</time>
      </trkpt>
      <trkpt lat="49.84712" lon="4.78639">
        <ele>324</ele>
        <time>2021-03-30T11:19:00.000Z</time>
      </trkpt>
      <trkpt lat="49.84712" lon="4.78642">
        <ele>325</ele>
        <time>2021-03-30T11:19:01.000Z</time>
      </trkpt>
      <trkpt lat="49.84711" lon="4.78646">
        <ele>325</ele>
        <time>2021-03-30T11:19:02.000Z</time>
      </trkpt>
      <trkpt lat="49.84711" lon="4.78649">
        <ele>325</ele>
        <time>2021-03-30T11:19:03.000Z</time>
      </trkpt>
      <trkpt lat="49.84711" lon="4.78652">
        <ele>325</ele>
        <time>2021-03-30T11:19:04.000Z</time>
      </trkpt>
      <trkpt lat="49.84711" lon="4.78655">
        <ele>325</ele>
        <time>2021-03-30T11:19:05.000Z</time>
      </trkpt>
      <trkpt lat="49.8471" lon="4.78659">
        <ele>326</ele>
        <time>2021-03-30T11:19:06.000Z</time>
      </trkpt>
      <trkpt lat="49.8471" lon="4.78662">
        <ele>326</ele>
        <time>2021-03-30T11:19:07.000Z</time>
      </trkpt>
      <trkpt lat="49.8471" lon="4.78665">
        <ele>326</ele>
        <time>2021-03-30T11:19:08.000Z</time>
      </trkpt>
      <trkpt lat="49.8471" lon="4.78669">
        <ele>326</ele>
        <time>2021-03-30T11:19:09.000Z</time>
      </trkpt>
      <trkpt lat="49.8471" lon="4.78672">
        <ele>327</ele>
        <time>2021-03-30T11:19:10.000Z</time>
      </trkpt>
      <trkpt lat="49.84711" lon="4.78675">
        <ele>327</ele>
        <time>2021-03-30T11:19:11.000Z</time>
      </trkpt>
      <trkpt lat="49.84711" lon="4.78678">
        <ele>328</ele>
        <time>2021-03-30T11:19:12.000Z</time>
      </trkpt>
      <trkpt lat="49.84711" lon="4.78681">
        <ele>328</ele>
        <time>2021-03-30T11:19:13.000Z</time>
      </trkpt>
      <trkpt lat="49.84711" lon="4.78685">
        <ele>328</ele>
        <time>2021-03-30T11:19:14.000Z</time>
      </trkpt>
      <trkpt lat="49.84712" lon="4.78688">
        <ele>329</ele>
        <time>2021-03-30T11:19:15.000Z</time>
      </trkpt>
      <trkpt lat="49.84713" lon="4.78691">
        <ele>329</ele>
        <time>2021-03-30T11:19:16.000Z</time>
      </trkpt>
      <trkpt lat="49.84714" lon="4.78694">
        <ele>330</ele>
        <time>2021-03-30T11:19:17.000Z</time>
      </trkpt>
      <trkpt lat="49.84714" lon="4.78697">
        <ele>330</ele>
        <time>2021-03-30T11:19:18.000Z</time>
      </trkpt>
      <trkpt lat="49.84715" lon="4.787">
        <ele>331</ele>
        <time>2021-03-30T11:19:19.000Z</time>
      </trkpt>
      <trkpt lat="49.84716" lon="4.78703">
        <ele>331</ele>
        <time>2021-03-30T11:19:20.000Z</time>
      </trkpt>
      <trkpt lat="49.84716" lon="4.78706">
        <ele>332</ele>
        <time>2021-03-30T11:19:21.000Z</time>
      </trkpt>
      <trkpt lat="49.84717" lon="4.78709">
        <ele>332</ele>
        <time>2021-03-30T11:19:22.000Z</time>
      </trkpt>
      <trkpt lat="49.84719" lon="4.78711">
        <ele>332</ele>
        <time>2021-03-30T11:19:23.000Z</time>
      </trkpt>
      <trkpt lat="49.8472" lon="4.78714">
        <ele>333</ele>
        <time>2021-03-30T11:19:24.000Z</time>
      </trkpt>
      <trkpt lat="49.84722" lon="4.78717">
        <ele>333</ele>
        <time>2021-03-30T11:19:25.000Z</time>
      </trkpt>
      <trkpt lat="49.84722" lon="4.7872">
        <ele>334</ele>
        <time>2021-03-30T11:19:26.000Z</time>
      </trkpt>
      <trkpt lat="49.84723" lon="4.78723">
        <ele>334</ele>
        <time>2021-03-30T11:19:27.000Z</time>
      </trkpt>
      <trkpt lat="49.84723" lon="4.78727">
        <ele>334</ele>
        <time>2021-03-30T11:19:28.000Z</time>
      </trkpt>
      <trkpt lat="49.84723" lon="4.7873">
        <ele>334</ele>
        <time>2021-03-30T11:19:29.000Z</time>
      </trkpt>
      <trkpt lat="49.84723" lon="4.78734">
        <ele>334</ele>
        <time>2021-03-30T11:19:30.000Z</time>
      </trkpt>
      <trkpt lat="49.84723" lon="4.78738">
        <ele>334</ele>
        <time>2021-03-30T11:19:31.000Z</time>
      </trkpt>
      <trkpt lat="49.84724" lon="4.78741">
        <ele>334</ele>
        <time>2021-03-30T11:19:32.000Z</time>
      </trkpt>
      <trkpt lat="49.84724" lon="4.78745">
        <ele>334</ele>
        <time>2021-03-30T11:19:33.000Z</time>
      </trkpt>
      <trkpt lat="49.84724" lon="4.78748">
        <ele>334</ele>
        <time>2021-03-30T11:19:34.000Z</time>
      </trkpt>
      <trkpt lat="49.84725" lon="4.78752">
        <ele>334</ele>
        <time>2021-03-30T11:19:35.000Z</time>
      </trkpt>
      <trkpt lat="49.84726" lon="4.78755">
        <ele>335</ele>
        <time>2021-03-30T11:19:36.000Z</time>
      </trkpt>
      <trkpt lat="49.84726" lon="4.78759">
        <ele>335</ele>
        <time>2021-03-30T11:19:37.000Z</time>
      </trkpt>
      <trkpt lat="49.84725" lon="4.78763">
        <ele>335</ele>
        <time>2021-03-30T11:19:38.000Z</time>
      </trkpt>
      <trkpt lat="49.84725" lon="4.78767">
        <ele>335</ele>
        <time>2021-03-30T11:19:39.000Z</time>
      </trkpt>
      <trkpt lat="49.84724" lon="4.78771">
        <ele>335</ele>
        <time>2021-03-30T11:19:40.000Z</time>
      </trkpt>
      <trkpt lat="49.84724" lon="4.78776">
        <ele>335</ele>
        <time>2021-03-30T11:19:41.000Z</time>
      </trkpt>
      <trkpt lat="49.84724" lon="4.7878">
        <ele>336</ele>
        <time>2021-03-30T11:19:42.000Z</time>
      </trkpt>
      <trkpt lat="49.84724" lon="4.78784">
        <ele>336</ele>
        <time>2021-03-30T11:19:43.000Z</time>
      </trkpt>
      <trkpt lat="49.84724" lon="4.78788">
        <ele>336</ele>
        <time>2021-03-30T11:19:44.000Z</time>
      </trkpt>
      <trkpt lat="49.84724" lon="4.78793">
        <ele>336</ele>
        <time>2021-03-30T11:19:45.000Z</time>
      </trkpt>
      <trkpt lat="49.84724" lon="4.78797">
        <ele>336</ele>
        <time>2021-03-30T11:19:46.000Z</time>
      </trkpt>
      <trkpt lat="49.84724" lon="4.78802">
        <ele>336</ele>
        <time>2021-03-30T11:19:47.000Z</time>
      </trkpt>
      <trkpt lat="49.84723" lon="4.78807">
        <ele>336</ele>
        <time>2021-03-30T11:19:48.000Z</time>
      </trkpt>
      <trkpt lat="49.84723" lon="4.78812">
        <ele>336</ele>
        <time>2021-03-30T11:19:49.000Z</time>
      </trkpt>
      <trkpt lat="49.84723" lon="4.78817">
        <ele>336</ele>
        <time>2021-03-30T11:19:50.000Z</time>
      </trkpt>
      <trkpt lat="49.84723" lon="4.78822">
        <ele>336</ele>
        <time>2021-03-30T11:19:51.000Z</time>
      </trkpt>
      <trkpt lat="49.84723" lon="4.78827">
        <ele>335</ele>
        <time>2021-03-30T11:19:52.000Z</time>
      </trkpt>
      <trkpt lat="49.84723" lon="4.78833">
        <ele>335</ele>
        <time>2021-03-30T11:19:53.000Z</time>
      </trkpt>
      <trkpt lat="49.84724" lon="4.78839">
        <ele>335</ele>
        <time>2021-03-30T11:19:54.000Z</time>
      </trkpt>
      <trkpt lat="49.84724" lon="4.78845">
        <ele>335</ele>
        <time>2021-03-30T11:19:55.000Z</time>
      </trkpt>
      <trkpt lat="49.84724" lon="4.7885">
        <ele>335</ele>
        <time>2021-03-30T11:19:56.000Z</time>
      </trkpt>
      <trkpt lat="49.84724" lon="4.78856">
        <ele>335</ele>
        <time>2021-03-30T11:19:57.000Z</time>
      </trkpt>
      <trkpt lat="49.84724" lon="4.78862">
        <ele>335</ele>
        <time>2021-03-30T11:19:58.000Z</time>
      </trkpt>
      <trkpt lat="49.84724" lon="4.78867">
        <ele>335</ele>
        <time>2021-03-30T11:19:59.000Z</time>
      </trkpt>
      <trkpt lat="49.84723" lon="4.78873">
        <ele>335</ele>
        <time>2021-03-30T11:20:00.000Z</time>
      </trkpt>
      <trkpt lat="49.84723" lon="4.78878">
        <ele>335</ele>
        <time>2021-03-30T11:20:01.000Z</time>
      </trkpt>
      <trkpt lat="49.84723" lon="4.78881">
        <ele>335</ele>
        <time>2021-03-30T11:20:02.000Z</time>
      </trkpt>
      <trkpt lat="49.84723" lon="4.78884">
        <ele>335</ele>
        <time>2021-03-30T11:20:03.000Z</time>
      </trkpt>
      <trkpt lat="49.84724" lon="4.78887">
        <ele>335</ele>
        <time>2021-03-30T11:20:04.000Z</time>
      </trkpt>
      <trkpt lat="49.84724" lon="4.7889">
        <ele>336</ele>
        <time>2021-03-30T11:20:05.000Z</time>
      </trkpt>
      <trkpt lat="49.84725" lon="4.78893">
        <ele>336</ele>
        <time>2021-03-30T11:20:06.000Z</time>
      </trkpt>
      <trkpt lat="49.84726" lon="4.78897">
        <ele>336</ele>
        <time>2021-03-30T11:20:07.000Z</time>
      </trkpt>
      <trkpt lat="49.84727" lon="4.78901">
        <ele>336</ele>
        <time>2021-03-30T11:20:08.000Z</time>
      </trkpt>
      <trkpt lat="49.84728" lon="4.78906">
        <ele>337</ele>
        <time>2021-03-30T11:20:09.000Z</time>
      </trkpt>
      <trkpt lat="49.84729" lon="4.78911">
        <ele>337</ele>
        <time>2021-03-30T11:20:10.000Z</time>
      </trkpt>
      <trkpt lat="49.84731" lon="4.78916">
        <ele>337</ele>
        <time>2021-03-30T11:20:11.000Z</time>
      </trkpt>
      <trkpt lat="49.84731" lon="4.78921">
        <ele>337</ele>
        <time>2021-03-30T11:20:12.000Z</time>
      </trkpt>
      <trkpt lat="49.84732" lon="4.78926">
        <ele>337</ele>
        <time>2021-03-30T11:20:13.000Z</time>
      </trkpt>
      <trkpt lat="49.84732" lon="4.78932">
        <ele>337</ele>
        <time>2021-03-30T11:20:14.000Z</time>
      </trkpt>
      <trkpt lat="49.84733" lon="4.78938">
        <ele>337</ele>
        <time>2021-03-30T11:20:15.000Z</time>
      </trkpt>
      <trkpt lat="49.84733" lon="4.78944">
        <ele>337</ele>
        <time>2021-03-30T11:20:16.000Z</time>
      </trkpt>
      <trkpt lat="49.84734" lon="4.7895">
        <ele>337</ele>
        <time>2021-03-30T11:20:17.000Z</time>
      </trkpt>
      <trkpt lat="49.84735" lon="4.78955">
        <ele>337</ele>
        <time>2021-03-30T11:20:18.000Z</time>
      </trkpt>
      <trkpt lat="49.84735" lon="4.78961">
        <ele>337</ele>
        <time>2021-03-30T11:20:19.000Z</time>
      </trkpt>
      <trkpt lat="49.84735" lon="4.78966">
        <ele>337</ele>
        <time>2021-03-30T11:20:20.000Z</time>
      </trkpt>
      <trkpt lat="49.84736" lon="4.78972">
        <ele>337</ele>
        <time>2021-03-30T11:20:21.000Z</time>
      </trkpt>
      <trkpt lat="49.84737" lon="4.78977">
        <ele>337</ele>
        <time>2021-03-30T11:20:22.000Z</time>
      </trkpt>
      <trkpt lat="49.84738" lon="4.78982">
        <ele>337</ele>
        <time>2021-03-30T11:20:23.000Z</time>
      </trkpt>
      <trkpt lat="49.84739" lon="4.78986">
        <ele>337</ele>
        <time>2021-03-30T11:20:24.000Z</time>
      </trkpt>
      <trkpt lat="49.84739" lon="4.7899">
        <ele>337</ele>
        <time>2021-03-30T11:20:25.000Z</time>
      </trkpt>
      <trkpt lat="49.84739" lon="4.78994">
        <ele>337</ele>
        <time>2021-03-30T11:20:26.000Z</time>
      </trkpt>
      <trkpt lat="49.84738" lon="4.78998">
        <ele>337</ele>
        <time>2021-03-30T11:20:27.000Z</time>
      </trkpt>
      <trkpt lat="49.84737" lon="4.79001">
        <ele>337</ele>
        <time>2021-03-30T11:20:28.000Z</time>
      </trkpt>
      <trkpt lat="49.84736" lon="4.79005">
        <ele>337</ele>
        <time>2021-03-30T11:20:29.000Z</time>
      </trkpt>
      <trkpt lat="49.84735" lon="4.79008">
        <ele>337</ele>
        <time>2021-03-30T11:20:30.000Z</time>
      </trkpt>
      <trkpt lat="49.84734" lon="4.79012">
        <ele>337</ele>
        <time>2021-03-30T11:20:31.000Z</time>
      </trkpt>
      <trkpt lat="49.84733" lon="4.79015">
        <ele>337</ele>
        <time>2021-03-30T11:20:32.000Z</time>
      </trkpt>
      <trkpt lat="49.84732" lon="4.79018">
        <ele>337</ele>
        <time>2021-03-30T11:20:33.000Z</time>
      </trkpt>
      <trkpt lat="49.84732" lon="4.79021">
        <ele>338</ele>
        <time>2021-03-30T11:20:34.000Z</time>
      </trkpt>
      <trkpt lat="49.84731" lon="4.79024">
        <ele>338</ele>
        <time>2021-03-30T11:20:35.000Z</time>
      </trkpt>
      <trkpt lat="49.84731" lon="4.79027">
        <ele>338</ele>
        <time>2021-03-30T11:20:36.000Z</time>
      </trkpt>
      <trkpt lat="49.8473" lon="4.7903">
        <ele>338</ele>
        <time>2021-03-30T11:20:37.000Z</time>
      </trkpt>
      <trkpt lat="49.84729" lon="4.79033">
        <ele>338</ele>
        <time>2021-03-30T11:20:38.000Z</time>
      </trkpt>
      <trkpt lat="49.84728" lon="4.79037">
        <ele>338</ele>
        <time>2021-03-30T11:20:39.000Z</time>
      </trkpt>
      <trkpt lat="49.84727" lon="4.79041">
        <ele>338</ele>
        <time>2021-03-30T11:20:40.000Z</time>
      </trkpt>
      <trkpt lat="49.84726" lon="4.79045">
        <ele>338</ele>
        <time>2021-03-30T11:20:41.000Z</time>
      </trkpt>
      <trkpt lat="49.84724" lon="4.79048">
        <ele>338</ele>
        <time>2021-03-30T11:20:42.000Z</time>
      </trkpt>
      <trkpt lat="49.84723" lon="4.79052">
        <ele>338</ele>
        <time>2021-03-30T11:20:43.000Z</time>
      </trkpt>
      <trkpt lat="49.84722" lon="4.79056">
        <ele>338</ele>
        <time>2021-03-30T11:20:44.000Z</time>
      </trkpt>
      <trkpt lat="49.84721" lon="4.7906">
        <ele>338</ele>
        <time>2021-03-30T11:20:45.000Z</time>
      </trkpt>
      <trkpt lat="49.8472" lon="4.79063">
        <ele>338</ele>
        <time>2021-03-30T11:20:46.000Z</time>
      </trkpt>
      <trkpt lat="49.84719" lon="4.79066">
        <ele>338</ele>
        <time>2021-03-30T11:20:47.000Z</time>
      </trkpt>
      <trkpt lat="49.84719" lon="4.7907">
        <ele>338</ele>
        <time>2021-03-30T11:20:48.000Z</time>
      </trkpt>
      <trkpt lat="49.84719" lon="4.79074">
        <ele>339</ele>
        <time>2021-03-30T11:20:49.000Z</time>
      </trkpt>
      <trkpt lat="49.84718" lon="4.79077">
        <ele>339</ele>
        <time>2021-03-30T11:20:50.000Z</time>
      </trkpt>
      <trkpt lat="49.84718" lon="4.7908">
        <ele>339</ele>
        <time>2021-03-30T11:20:51.000Z</time>
      </trkpt>
      <trkpt lat="49.84718" lon="4.79084">
        <ele>339</ele>
        <time>2021-03-30T11:20:52.000Z</time>
      </trkpt>
      <trkpt lat="49.84717" lon="4.79089">
        <ele>339</ele>
        <time>2021-03-30T11:20:53.000Z</time>
      </trkpt>
      <trkpt lat="49.84717" lon="4.79093">
        <ele>340</ele>
        <time>2021-03-30T11:20:54.000Z</time>
      </trkpt>
      <trkpt lat="49.84716" lon="4.79097">
        <ele>340</ele>
        <time>2021-03-30T11:20:55.000Z</time>
      </trkpt>
      <trkpt lat="49.84716" lon="4.79101">
        <ele>340</ele>
        <time>2021-03-30T11:20:56.000Z</time>
      </trkpt>
      <trkpt lat="49.84715" lon="4.79104">
        <ele>340</ele>
        <time>2021-03-30T11:20:57.000Z</time>
      </trkpt>
      <trkpt lat="49.84715" lon="4.79108">
        <ele>340</ele>
        <time>2021-03-30T11:20:58.000Z</time>
      </trkpt>
      <trkpt lat="49.84716" lon="4.79112">
        <ele>340</ele>
        <time>2021-03-30T11:20:59.000Z</time>
      </trkpt>
      <trkpt lat="49.84717" lon="4.79117">
        <ele>341</ele>
        <time>2021-03-30T11:21:00.000Z</time>
      </trkpt>
      <trkpt lat="49.84718" lon="4.79121">
        <ele>341</ele>
        <time>2021-03-30T11:21:01.000Z</time>
      </trkpt>
      <trkpt lat="49.84719" lon="4.79125">
        <ele>341</ele>
        <time>2021-03-30T11:21:02.000Z</time>
      </trkpt>
      <trkpt lat="49.84721" lon="4.79128">
        <ele>341</ele>
        <time>2021-03-30T11:21:03.000Z</time>
      </trkpt>
      <trkpt lat="49.84722" lon="4.79131">
        <ele>341</ele>
        <time>2021-03-30T11:21:04.000Z</time>
      </trkpt>
      <trkpt lat="49.84723" lon="4.79133">
        <ele>342</ele>
        <time>2021-03-30T11:21:05.000Z</time>
      </trkpt>
      <trkpt lat="49.84725" lon="4.79135">
        <ele>342</ele>
        <time>2021-03-30T11:21:06.000Z</time>
      </trkpt>
      <trkpt lat="49.84726" lon="4.79138">
        <ele>342</ele>
        <time>2021-03-30T11:21:07.000Z</time>
      </trkpt>
      <trkpt lat="49.84728" lon="4.7914">
        <ele>342</ele>
        <time>2021-03-30T11:21:08.000Z</time>
      </trkpt>
      <trkpt lat="49.8473" lon="4.79142">
        <ele>342</ele>
        <time>2021-03-30T11:21:09.000Z</time>
      </trkpt>
      <trkpt lat="49.84732" lon="4.79145">
        <ele>342</ele>
        <time>2021-03-30T11:21:10.000Z</time>
      </trkpt>
      <trkpt lat="49.84734" lon="4.79147">
        <ele>342</ele>
        <time>2021-03-30T11:21:11.000Z</time>
      </trkpt>
      <trkpt lat="49.84738" lon="4.79149">
        <ele>342</ele>
        <time>2021-03-30T11:21:12.000Z</time>
      </trkpt>
      <trkpt lat="49.84742" lon="4.79151">
        <ele>342</ele>
        <time>2021-03-30T11:21:13.000Z</time>
      </trkpt>
      <trkpt lat="49.84746" lon="4.79153">
        <ele>342</ele>
        <time>2021-03-30T11:21:14.000Z</time>
      </trkpt>
      <trkpt lat="49.8475" lon="4.79154">
        <ele>342</ele>
        <time>2021-03-30T11:21:15.000Z</time>
      </trkpt>
      <trkpt lat="49.84755" lon="4.79156">
        <ele>342</ele>
        <time>2021-03-30T11:21:16.000Z</time>
      </trkpt>
      <trkpt lat="49.8476" lon="4.79156">
        <ele>343</ele>
        <time>2021-03-30T11:21:17.000Z</time>
      </trkpt>
      <trkpt lat="49.84766" lon="4.79157">
        <ele>343</ele>
        <time>2021-03-30T11:21:18.000Z</time>
      </trkpt>
      <trkpt lat="49.84772" lon="4.79157">
        <ele>343</ele>
        <time>2021-03-30T11:21:19.000Z</time>
      </trkpt>
      <trkpt lat="49.84778" lon="4.79157">
        <ele>343</ele>
        <time>2021-03-30T11:21:20.000Z</time>
      </trkpt>
      <trkpt lat="49.84783" lon="4.79156">
        <ele>343</ele>
        <time>2021-03-30T11:21:21.000Z</time>
      </trkpt>
      <trkpt lat="49.84789" lon="4.79153">
        <ele>343</ele>
        <time>2021-03-30T11:21:22.000Z</time>
      </trkpt>
      <trkpt lat="49.84793" lon="4.79149">
        <ele>343</ele>
        <time>2021-03-30T11:21:23.000Z</time>
      </trkpt>
      <trkpt lat="49.84798" lon="4.79145">
        <ele>343</ele>
        <time>2021-03-30T11:21:24.000Z</time>
      </trkpt>
      <trkpt lat="49.84802" lon="4.7914">
        <ele>343</ele>
        <time>2021-03-30T11:21:25.000Z</time>
      </trkpt>
      <trkpt lat="49.84806" lon="4.79136">
        <ele>343</ele>
        <time>2021-03-30T11:21:26.000Z</time>
      </trkpt>
      <trkpt lat="49.8481" lon="4.7913">
        <ele>343</ele>
        <time>2021-03-30T11:21:27.000Z</time>
      </trkpt>
      <trkpt lat="49.84814" lon="4.79125">
        <ele>343</ele>
        <time>2021-03-30T11:21:28.000Z</time>
      </trkpt>
      <trkpt lat="49.84818" lon="4.7912">
        <ele>343</ele>
        <time>2021-03-30T11:21:29.000Z</time>
      </trkpt>
      <trkpt lat="49.84822" lon="4.79116">
        <ele>343</ele>
        <time>2021-03-30T11:21:30.000Z</time>
      </trkpt>
      <trkpt lat="49.84826" lon="4.79112">
        <ele>343</ele>
        <time>2021-03-30T11:21:31.000Z</time>
      </trkpt>
      <trkpt lat="49.8483" lon="4.79109">
        <ele>343</ele>
        <time>2021-03-30T11:21:32.000Z</time>
      </trkpt>
      <trkpt lat="49.84833" lon="4.79106">
        <ele>343</ele>
        <time>2021-03-30T11:21:33.000Z</time>
      </trkpt>
      <trkpt lat="49.84835" lon="4.79103">
        <ele>343</ele>
        <time>2021-03-30T11:21:34.000Z</time>
      </trkpt>
      <trkpt lat="49.84838" lon="4.791">
        <ele>344</ele>
        <time>2021-03-30T11:21:35.000Z</time>
      </trkpt>
      <trkpt lat="49.8484" lon="4.79097">
        <ele>344</ele>
        <time>2021-03-30T11:21:36.000Z</time>
      </trkpt>
      <trkpt lat="49.84842" lon="4.79094">
        <ele>344</ele>
        <time>2021-03-30T11:21:37.000Z</time>
      </trkpt>
      <trkpt lat="49.84845" lon="4.79091">
        <ele>344</ele>
        <time>2021-03-30T11:21:38.000Z</time>
      </trkpt>
      <trkpt lat="49.84847" lon="4.79088">
        <ele>344</ele>
        <time>2021-03-30T11:21:39.000Z</time>
      </trkpt>
      <trkpt lat="49.84849" lon="4.79086">
        <ele>344</ele>
        <time>2021-03-30T11:21:40.000Z</time>
      </trkpt>
      <trkpt lat="49.84851" lon="4.79083">
        <ele>344</ele>
        <time>2021-03-30T11:21:41.000Z</time>
      </trkpt>
      <trkpt lat="49.84853" lon="4.7908">
        <ele>344</ele>
        <time>2021-03-30T11:21:42.000Z</time>
      </trkpt>
      <trkpt lat="49.84855" lon="4.79078">
        <ele>344</ele>
        <time>2021-03-30T11:21:43.000Z</time>
      </trkpt>
      <trkpt lat="49.84857" lon="4.79074">
        <ele>344</ele>
        <time>2021-03-30T11:21:44.000Z</time>
      </trkpt>
      <trkpt lat="49.84859" lon="4.79072">
        <ele>344</ele>
        <time>2021-03-30T11:21:45.000Z</time>
      </trkpt>
      <trkpt lat="49.84861" lon="4.7907">
        <ele>344</ele>
        <time>2021-03-30T11:21:46.000Z</time>
      </trkpt>
      <trkpt lat="49.84863" lon="4.79067">
        <ele>344</ele>
        <time>2021-03-30T11:21:47.000Z</time>
      </trkpt>
      <trkpt lat="49.84865" lon="4.79065">
        <ele>344</ele>
        <time>2021-03-30T11:21:48.000Z</time>
      </trkpt>
      <trkpt lat="49.84867" lon="4.79063">
        <ele>344</ele>
        <time>2021-03-30T11:21:49.000Z</time>
      </trkpt>
      <trkpt lat="49.84869" lon="4.7906">
        <ele>344</ele>
        <time>2021-03-30T11:21:50.000Z</time>
      </trkpt>
      <trkpt lat="49.84871" lon="4.79059">
        <ele>344</ele>
        <time>2021-03-30T11:21:51.000Z</time>
      </trkpt>
      <trkpt lat="49.84873" lon="4.79057">
        <ele>345</ele>
        <time>2021-03-30T11:21:52.000Z</time>
      </trkpt>
      <trkpt lat="49.84875" lon="4.79054">
        <ele>345</ele>
        <time>2021-03-30T11:21:53.000Z</time>
      </trkpt>
      <trkpt lat="49.84877" lon="4.79052">
        <ele>345</ele>
        <time>2021-03-30T11:21:54.000Z</time>
      </trkpt>
      <trkpt lat="49.84879" lon="4.7905">
        <ele>345</ele>
        <time>2021-03-30T11:21:55.000Z</time>
      </trkpt>
      <trkpt lat="49.84881" lon="4.79048">
        <ele>345</ele>
        <time>2021-03-30T11:21:56.000Z</time>
      </trkpt>
      <trkpt lat="49.84883" lon="4.79045">
        <ele>345</ele>
        <time>2021-03-30T11:21:57.000Z</time>
      </trkpt>
      <trkpt lat="49.84885" lon="4.79042">
        <ele>345</ele>
        <time>2021-03-30T11:21:58.000Z</time>
      </trkpt>
      <trkpt lat="49.84888" lon="4.79039">
        <ele>345</ele>
        <time>2021-03-30T11:21:59.000Z</time>
      </trkpt>
      <trkpt lat="49.84891" lon="4.79036">
        <ele>345</ele>
        <time>2021-03-30T11:22:00.000Z</time>
      </trkpt>
      <trkpt lat="49.84894" lon="4.79034">
        <ele>345</ele>
        <time>2021-03-30T11:22:01.000Z</time>
      </trkpt>
      <trkpt lat="49.84897" lon="4.79032">
        <ele>345</ele>
        <time>2021-03-30T11:22:02.000Z</time>
      </trkpt>
      <trkpt lat="49.849" lon="4.79029">
        <ele>345</ele>
        <time>2021-03-30T11:22:03.000Z</time>
      </trkpt>
      <trkpt lat="49.84903" lon="4.79026">
        <ele>345</ele>
        <time>2021-03-30T11:22:04.000Z</time>
      </trkpt>
      <trkpt lat="49.84905" lon="4.79022">
        <ele>345</ele>
        <time>2021-03-30T11:22:05.000Z</time>
      </trkpt>
      <trkpt lat="49.84908" lon="4.79018">
        <ele>345</ele>
        <time>2021-03-30T11:22:06.000Z</time>
      </trkpt>
      <trkpt lat="49.8491" lon="4.79015">
        <ele>345</ele>
        <time>2021-03-30T11:22:07.000Z</time>
      </trkpt>
      <trkpt lat="49.84912" lon="4.79011">
        <ele>345</ele>
        <time>2021-03-30T11:22:08.000Z</time>
      </trkpt>
      <trkpt lat="49.84915" lon="4.79008">
        <ele>345</ele>
        <time>2021-03-30T11:22:09.000Z</time>
      </trkpt>
      <trkpt lat="49.84918" lon="4.79005">
        <ele>346</ele>
        <time>2021-03-30T11:22:10.000Z</time>
      </trkpt>
      <trkpt lat="49.84921" lon="4.79001">
        <ele>346</ele>
        <time>2021-03-30T11:22:11.000Z</time>
      </trkpt>
      <trkpt lat="49.84924" lon="4.78999">
        <ele>346</ele>
        <time>2021-03-30T11:22:12.000Z</time>
      </trkpt>
      <trkpt lat="49.84928" lon="4.78995">
        <ele>346</ele>
        <time>2021-03-30T11:22:13.000Z</time>
      </trkpt>
      <trkpt lat="49.84931" lon="4.7899">
        <ele>346</ele>
        <time>2021-03-30T11:22:14.000Z</time>
      </trkpt>
      <trkpt lat="49.84933" lon="4.78985">
        <ele>346</ele>
        <time>2021-03-30T11:22:15.000Z</time>
      </trkpt>
      <trkpt lat="49.84936" lon="4.7898">
        <ele>346</ele>
        <time>2021-03-30T11:22:16.000Z</time>
      </trkpt>
      <trkpt lat="49.84939" lon="4.78974">
        <ele>347</ele>
        <time>2021-03-30T11:22:17.000Z</time>
      </trkpt>
      <trkpt lat="49.84941" lon="4.78968">
        <ele>347</ele>
        <time>2021-03-30T11:22:18.000Z</time>
      </trkpt>
      <trkpt lat="49.84943" lon="4.78962">
        <ele>347</ele>
        <time>2021-03-30T11:22:19.000Z</time>
      </trkpt>
      <trkpt lat="49.84945" lon="4.78956">
        <ele>347</ele>
        <time>2021-03-30T11:22:20.000Z</time>
      </trkpt>
      <trkpt lat="49.84948" lon="4.7895">
        <ele>347</ele>
        <time>2021-03-30T11:22:21.000Z</time>
      </trkpt>
      <trkpt lat="49.84951" lon="4.78942">
        <ele>347</ele>
        <time>2021-03-30T11:22:22.000Z</time>
      </trkpt>
      <trkpt lat="49.84953" lon="4.78934">
        <ele>347</ele>
        <time>2021-03-30T11:22:23.000Z</time>
      </trkpt>
      <trkpt lat="49.84956" lon="4.78927">
        <ele>347</ele>
        <time>2021-03-30T11:22:24.000Z</time>
      </trkpt>
      <trkpt lat="49.8496" lon="4.7892">
        <ele>347</ele>
        <time>2021-03-30T11:22:25.000Z</time>
      </trkpt>
      <trkpt lat="49.84964" lon="4.78913">
        <ele>347</ele>
        <time>2021-03-30T11:22:26.000Z</time>
      </trkpt>
      <trkpt lat="49.84969" lon="4.78907">
        <ele>347</ele>
        <time>2021-03-30T11:22:27.000Z</time>
      </trkpt>
      <trkpt lat="49.84974" lon="4.78902">
        <ele>347</ele>
        <time>2021-03-30T11:22:28.000Z</time>
      </trkpt>
      <trkpt lat="49.8498" lon="4.78896">
        <ele>347</ele>
        <time>2021-03-30T11:22:29.000Z</time>
      </trkpt>
      <trkpt lat="49.84986" lon="4.7889">
        <ele>346</ele>
        <time>2021-03-30T11:22:30.000Z</time>
      </trkpt>
      <trkpt lat="49.84992" lon="4.78884">
        <ele>346</ele>
        <time>2021-03-30T11:22:31.000Z</time>
      </trkpt>
      <trkpt lat="49.84997" lon="4.78878">
        <ele>346</ele>
        <time>2021-03-30T11:22:32.000Z</time>
      </trkpt>
      <trkpt lat="49.85002" lon="4.78873">
        <ele>346</ele>
        <time>2021-03-30T11:22:33.000Z</time>
      </trkpt>
      <trkpt lat="49.85007" lon="4.78866">
        <ele>346</ele>
        <time>2021-03-30T11:22:34.000Z</time>
      </trkpt>
      <trkpt lat="49.85011" lon="4.7886">
        <ele>346</ele>
        <time>2021-03-30T11:22:35.000Z</time>
      </trkpt>
      <trkpt lat="49.85015" lon="4.78854">
        <ele>345</ele>
        <time>2021-03-30T11:22:36.000Z</time>
      </trkpt>
      <trkpt lat="49.85018" lon="4.7885">
        <ele>345</ele>
        <time>2021-03-30T11:22:37.000Z</time>
      </trkpt>
      <trkpt lat="49.85022" lon="4.78845">
        <ele>345</ele>
        <time>2021-03-30T11:22:38.000Z</time>
      </trkpt>
      <trkpt lat="49.85026" lon="4.7884">
        <ele>345</ele>
        <time>2021-03-30T11:22:39.000Z</time>
      </trkpt>
      <trkpt lat="49.8503" lon="4.78836">
        <ele>344</ele>
        <time>2021-03-30T11:22:40.000Z</time>
      </trkpt>
      <trkpt lat="49.85033" lon="4.78831">
        <ele>344</ele>
        <time>2021-03-30T11:22:41.000Z</time>
      </trkpt>
      <trkpt lat="49.85037" lon="4.78826">
        <ele>344</ele>
        <time>2021-03-30T11:22:42.000Z</time>
      </trkpt>
      <trkpt lat="49.8504" lon="4.78819">
        <ele>344</ele>
        <time>2021-03-30T11:22:43.000Z</time>
      </trkpt>
      <trkpt lat="49.85044" lon="4.78813">
        <ele>343</ele>
        <time>2021-03-30T11:22:44.000Z</time>
      </trkpt>
      <trkpt lat="49.85047" lon="4.78806">
        <ele>343</ele>
        <time>2021-03-30T11:22:45.000Z</time>
      </trkpt>
      <trkpt lat="49.8505" lon="4.78799">
        <ele>343</ele>
        <time>2021-03-30T11:22:46.000Z</time>
      </trkpt>
      <trkpt lat="49.85053" lon="4.78792">
        <ele>343</ele>
        <time>2021-03-30T11:22:47.000Z</time>
      </trkpt>
      <trkpt lat="49.85056" lon="4.78785">
        <ele>343</ele>
        <time>2021-03-30T11:22:48.000Z</time>
      </trkpt>
      <trkpt lat="49.85059" lon="4.78777">
        <ele>343</ele>
        <time>2021-03-30T11:22:49.000Z</time>
      </trkpt>
      <trkpt lat="49.85063" lon="4.78771">
        <ele>342</ele>
        <time>2021-03-30T11:22:50.000Z</time>
      </trkpt>
      <trkpt lat="49.85067" lon="4.78764">
        <ele>342</ele>
        <time>2021-03-30T11:22:51.000Z</time>
      </trkpt>
      <trkpt lat="49.85071" lon="4.78758">
        <ele>342</ele>
        <time>2021-03-30T11:22:52.000Z</time>
      </trkpt>
      <trkpt lat="49.85075" lon="4.78751">
        <ele>342</ele>
        <time>2021-03-30T11:22:53.000Z</time>
      </trkpt>
      <trkpt lat="49.85078" lon="4.78745">
        <ele>342</ele>
        <time>2021-03-30T11:22:54.000Z</time>
      </trkpt>
      <trkpt lat="49.85081" lon="4.78739">
        <ele>342</ele>
        <time>2021-03-30T11:22:55.000Z</time>
      </trkpt>
      <trkpt lat="49.85085" lon="4.78734">
        <ele>342</ele>
        <time>2021-03-30T11:22:56.000Z</time>
      </trkpt>
      <trkpt lat="49.85089" lon="4.78729">
        <ele>342</ele>
        <time>2021-03-30T11:22:57.000Z</time>
      </trkpt>
      <trkpt lat="49.85093" lon="4.78724">
        <ele>342</ele>
        <time>2021-03-30T11:22:58.000Z</time>
      </trkpt>
      <trkpt lat="49.85097" lon="4.78719">
        <ele>341</ele>
        <time>2021-03-30T11:22:59.000Z</time>
      </trkpt>
      <trkpt lat="49.85101" lon="4.78714">
        <ele>341</ele>
        <time>2021-03-30T11:23:00.000Z</time>
      </trkpt>
      <trkpt lat="49.85105" lon="4.78709">
        <ele>341</ele>
        <time>2021-03-30T11:23:01.000Z</time>
      </trkpt>
      <trkpt lat="49.85109" lon="4.78704">
        <ele>341</ele>
        <time>2021-03-30T11:23:02.000Z</time>
      </trkpt>
      <trkpt lat="49.85113" lon="4.78698">
        <ele>340</ele>
        <time>2021-03-30T11:23:03.000Z</time>
      </trkpt>
      <trkpt lat="49.85117" lon="4.78692">
        <ele>340</ele>
        <time>2021-03-30T11:23:04.000Z</time>
      </trkpt>
      <trkpt lat="49.85121" lon="4.78687">
        <ele>340</ele>
        <time>2021-03-30T11:23:05.000Z</time>
      </trkpt>
      <trkpt lat="49.85125" lon="4.78682">
        <ele>340</ele>
        <time>2021-03-30T11:23:06.000Z</time>
      </trkpt>
      <trkpt lat="49.85129" lon="4.78677">
        <ele>340</ele>
        <time>2021-03-30T11:23:07.000Z</time>
      </trkpt>
      <trkpt lat="49.85133" lon="4.78672">
        <ele>339</ele>
        <time>2021-03-30T11:23:08.000Z</time>
      </trkpt>
      <trkpt lat="49.85137" lon="4.78666">
        <ele>339</ele>
        <time>2021-03-30T11:23:09.000Z</time>
      </trkpt>
      <trkpt lat="49.8514" lon="4.78661">
        <ele>339</ele>
        <time>2021-03-30T11:23:10.000Z</time>
      </trkpt>
      <trkpt lat="49.85144" lon="4.78656">
        <ele>339</ele>
        <time>2021-03-30T11:23:11.000Z</time>
      </trkpt>
      <trkpt lat="49.85148" lon="4.78651">
        <ele>339</ele>
        <time>2021-03-30T11:23:12.000Z</time>
      </trkpt>
      <trkpt lat="49.85152" lon="4.78647">
        <ele>338</ele>
        <time>2021-03-30T11:23:13.000Z</time>
      </trkpt>
      <trkpt lat="49.85155" lon="4.78643">
        <ele>338</ele>
        <time>2021-03-30T11:23:14.000Z</time>
      </trkpt>
      <trkpt lat="49.85159" lon="4.78637">
        <ele>338</ele>
        <time>2021-03-30T11:23:15.000Z</time>
      </trkpt>
      <trkpt lat="49.85162" lon="4.78632">
        <ele>338</ele>
        <time>2021-03-30T11:23:16.000Z</time>
      </trkpt>
      <trkpt lat="49.85166" lon="4.78628">
        <ele>338</ele>
        <time>2021-03-30T11:23:17.000Z</time>
      </trkpt>
      <trkpt lat="49.85168" lon="4.78624">
        <ele>338</ele>
        <time>2021-03-30T11:23:18.000Z</time>
      </trkpt>
      <trkpt lat="49.85172" lon="4.78619">
        <ele>338</ele>
        <time>2021-03-30T11:23:19.000Z</time>
      </trkpt>
      <trkpt lat="49.85175" lon="4.78613">
        <ele>338</ele>
        <time>2021-03-30T11:23:20.000Z</time>
      </trkpt>
      <trkpt lat="49.85179" lon="4.78607">
        <ele>338</ele>
        <time>2021-03-30T11:23:21.000Z</time>
      </trkpt>
      <trkpt lat="49.85182" lon="4.78603">
        <ele>338</ele>
        <time>2021-03-30T11:23:22.000Z</time>
      </trkpt>
      <trkpt lat="49.85186" lon="4.78598">
        <ele>337</ele>
        <time>2021-03-30T11:23:23.000Z</time>
      </trkpt>
      <trkpt lat="49.85189" lon="4.78592">
        <ele>337</ele>
        <time>2021-03-30T11:23:24.000Z</time>
      </trkpt>
      <trkpt lat="49.85192" lon="4.78586">
        <ele>337</ele>
        <time>2021-03-30T11:23:25.000Z</time>
      </trkpt>
      <trkpt lat="49.85196" lon="4.7858">
        <ele>337</ele>
        <time>2021-03-30T11:23:26.000Z</time>
      </trkpt>
      <trkpt lat="49.852" lon="4.78575">
        <ele>337</ele>
        <time>2021-03-30T11:23:27.000Z</time>
      </trkpt>
      <trkpt lat="49.85203" lon="4.7857">
        <ele>337</ele>
        <time>2021-03-30T11:23:28.000Z</time>
      </trkpt>
      <trkpt lat="49.85208" lon="4.78564">
        <ele>337</ele>
        <time>2021-03-30T11:23:29.000Z</time>
      </trkpt>
      <trkpt lat="49.85212" lon="4.7856">
        <ele>337</ele>
        <time>2021-03-30T11:23:30.000Z</time>
      </trkpt>
      <trkpt lat="49.85216" lon="4.78555">
        <ele>337</ele>
        <time>2021-03-30T11:23:31.000Z</time>
      </trkpt>
      <trkpt lat="49.85221" lon="4.78549">
        <ele>337</ele>
        <time>2021-03-30T11:23:32.000Z</time>
      </trkpt>
      <trkpt lat="49.85225" lon="4.78543">
        <ele>337</ele>
        <time>2021-03-30T11:23:33.000Z</time>
      </trkpt>
      <trkpt lat="49.8523" lon="4.78537">
        <ele>337</ele>
        <time>2021-03-30T11:23:34.000Z</time>
      </trkpt>
      <trkpt lat="49.85234" lon="4.78532">
        <ele>337</ele>
        <time>2021-03-30T11:23:35.000Z</time>
      </trkpt>
      <trkpt lat="49.85238" lon="4.78526">
        <ele>337</ele>
        <time>2021-03-30T11:23:36.000Z</time>
      </trkpt>
      <trkpt lat="49.85242" lon="4.78521">
        <ele>336</ele>
        <time>2021-03-30T11:23:37.000Z</time>
      </trkpt>
      <trkpt lat="49.85245" lon="4.78516">
        <ele>337</ele>
        <time>2021-03-30T11:23:38.000Z</time>
      </trkpt>
      <trkpt lat="49.85249" lon="4.78511">
        <ele>336</ele>
        <time>2021-03-30T11:23:39.000Z</time>
      </trkpt>
      <trkpt lat="49.85252" lon="4.78508">
        <ele>336</ele>
        <time>2021-03-30T11:23:40.000Z</time>
      </trkpt>
      <trkpt lat="49.85255" lon="4.78504">
        <ele>336</ele>
        <time>2021-03-30T11:23:41.000Z</time>
      </trkpt>
      <trkpt lat="49.85258" lon="4.78498">
        <ele>336</ele>
        <time>2021-03-30T11:23:42.000Z</time>
      </trkpt>
      <trkpt lat="49.85261" lon="4.78494">
        <ele>336</ele>
        <time>2021-03-30T11:23:43.000Z</time>
      </trkpt>
      <trkpt lat="49.85264" lon="4.78489">
        <ele>336</ele>
        <time>2021-03-30T11:23:44.000Z</time>
      </trkpt>
      <trkpt lat="49.85267" lon="4.78484">
        <ele>336</ele>
        <time>2021-03-30T11:23:45.000Z</time>
      </trkpt>
      <trkpt lat="49.8527" lon="4.78478">
        <ele>336</ele>
        <time>2021-03-30T11:23:46.000Z</time>
      </trkpt>
      <trkpt lat="49.85273" lon="4.78471">
        <ele>336</ele>
        <time>2021-03-30T11:23:47.000Z</time>
      </trkpt>
      <trkpt lat="49.85276" lon="4.78465">
        <ele>335</ele>
        <time>2021-03-30T11:23:48.000Z</time>
      </trkpt>
      <trkpt lat="49.85279" lon="4.78458">
        <ele>335</ele>
        <time>2021-03-30T11:23:49.000Z</time>
      </trkpt>
      <trkpt lat="49.85282" lon="4.78452">
        <ele>335</ele>
        <time>2021-03-30T11:23:50.000Z</time>
      </trkpt>
      <trkpt lat="49.85284" lon="4.78446">
        <ele>335</ele>
        <time>2021-03-30T11:23:51.000Z</time>
      </trkpt>
      <trkpt lat="49.85288" lon="4.78439">
        <ele>334</ele>
        <time>2021-03-30T11:23:52.000Z</time>
      </trkpt>
      <trkpt lat="49.85292" lon="4.7843">
        <ele>334</ele>
        <time>2021-03-30T11:23:53.000Z</time>
      </trkpt>
      <trkpt lat="49.85296" lon="4.78422">
        <ele>333</ele>
        <time>2021-03-30T11:23:54.000Z</time>
      </trkpt>
      <trkpt lat="49.853" lon="4.78413">
        <ele>333</ele>
        <time>2021-03-30T11:23:55.000Z</time>
      </trkpt>
      <trkpt lat="49.85305" lon="4.78404">
        <ele>332</ele>
        <time>2021-03-30T11:23:56.000Z</time>
      </trkpt>
      <trkpt lat="49.8531" lon="4.78396">
        <ele>332</ele>
        <time>2021-03-30T11:23:57.000Z</time>
      </trkpt>
      <trkpt lat="49.85316" lon="4.78388">
        <ele>332</ele>
        <time>2021-03-30T11:23:58.000Z</time>
      </trkpt>
      <trkpt lat="49.85321" lon="4.7838">
        <ele>331</ele>
        <time>2021-03-30T11:23:59.000Z</time>
      </trkpt>
      <trkpt lat="49.85325" lon="4.78374">
        <ele>330</ele>
        <time>2021-03-30T11:24:00.000Z</time>
      </trkpt>
      <trkpt lat="49.8533" lon="4.78367">
        <ele>330</ele>
        <time>2021-03-30T11:24:01.000Z</time>
      </trkpt>
      <trkpt lat="49.85335" lon="4.7836">
        <ele>330</ele>
        <time>2021-03-30T11:24:02.000Z</time>
      </trkpt>
      <trkpt lat="49.85339" lon="4.78353">
        <ele>329</ele>
        <time>2021-03-30T11:24:03.000Z</time>
      </trkpt>
      <trkpt lat="49.85343" lon="4.78346">
        <ele>329</ele>
        <time>2021-03-30T11:24:04.000Z</time>
      </trkpt>
      <trkpt lat="49.85347" lon="4.78339">
        <ele>328</ele>
        <time>2021-03-30T11:24:05.000Z</time>
      </trkpt>
      <trkpt lat="49.85351" lon="4.78332">
        <ele>328</ele>
        <time>2021-03-30T11:24:06.000Z</time>
      </trkpt>
      <trkpt lat="49.85356" lon="4.78324">
        <ele>327</ele>
        <time>2021-03-30T11:24:07.000Z</time>
      </trkpt>
      <trkpt lat="49.85361" lon="4.78316">
        <ele>327</ele>
        <time>2021-03-30T11:24:08.000Z</time>
      </trkpt>
      <trkpt lat="49.85366" lon="4.78309">
        <ele>326</ele>
        <time>2021-03-30T11:24:09.000Z</time>
      </trkpt>
      <trkpt lat="49.85371" lon="4.78301">
        <ele>326</ele>
        <time>2021-03-30T11:24:10.000Z</time>
      </trkpt>
      <trkpt lat="49.85377" lon="4.78294">
        <ele>325</ele>
        <time>2021-03-30T11:24:11.000Z</time>
      </trkpt>
      <trkpt lat="49.85382" lon="4.78287">
        <ele>325</ele>
        <time>2021-03-30T11:24:12.000Z</time>
      </trkpt>
      <trkpt lat="49.85388" lon="4.7828">
        <ele>324</ele>
        <time>2021-03-30T11:24:13.000Z</time>
      </trkpt>
      <trkpt lat="49.85394" lon="4.78273">
        <ele>323</ele>
        <time>2021-03-30T11:24:14.000Z</time>
      </trkpt>
      <trkpt lat="49.854" lon="4.78266">
        <ele>323</ele>
        <time>2021-03-30T11:24:15.000Z</time>
      </trkpt>
      <trkpt lat="49.85406" lon="4.78259">
        <ele>322</ele>
        <time>2021-03-30T11:24:16.000Z</time>
      </trkpt>
      <trkpt lat="49.85413" lon="4.78252">
        <ele>322</ele>
        <time>2021-03-30T11:24:17.000Z</time>
      </trkpt>
      <trkpt lat="49.8542" lon="4.78244">
        <ele>321</ele>
        <time>2021-03-30T11:24:18.000Z</time>
      </trkpt>
      <trkpt lat="49.85426" lon="4.78237">
        <ele>320</ele>
        <time>2021-03-30T11:24:19.000Z</time>
      </trkpt>
      <trkpt lat="49.85432" lon="4.7823">
        <ele>320</ele>
        <time>2021-03-30T11:24:20.000Z</time>
      </trkpt>
      <trkpt lat="49.85437" lon="4.78223">
        <ele>319</ele>
        <time>2021-03-30T11:24:21.000Z</time>
      </trkpt>
      <trkpt lat="49.85442" lon="4.78215">
        <ele>318</ele>
        <time>2021-03-30T11:24:22.000Z</time>
      </trkpt>
      <trkpt lat="49.85448" lon="4.78207">
        <ele>318</ele>
        <time>2021-03-30T11:24:23.000Z</time>
      </trkpt>
      <trkpt lat="49.85453" lon="4.782">
        <ele>317</ele>
        <time>2021-03-30T11:24:24.000Z</time>
      </trkpt>
      <trkpt lat="49.85458" lon="4.78192">
        <ele>316</ele>
        <time>2021-03-30T11:24:25.000Z</time>
      </trkpt>
      <trkpt lat="49.85462" lon="4.78184">
        <ele>316</ele>
        <time>2021-03-30T11:24:26.000Z</time>
      </trkpt>
      <trkpt lat="49.85466" lon="4.78176">
        <ele>315</ele>
        <time>2021-03-30T11:24:27.000Z</time>
      </trkpt>
      <trkpt lat="49.85469" lon="4.78168">
        <ele>314</ele>
        <time>2021-03-30T11:24:28.000Z</time>
      </trkpt>
      <trkpt lat="49.85473" lon="4.78159">
        <ele>314</ele>
        <time>2021-03-30T11:24:29.000Z</time>
      </trkpt>
      <trkpt lat="49.85477" lon="4.78151">
        <ele>313</ele>
        <time>2021-03-30T11:24:30.000Z</time>
      </trkpt>
      <trkpt lat="49.85482" lon="4.78143">
        <ele>313</ele>
        <time>2021-03-30T11:24:31.000Z</time>
      </trkpt>
      <trkpt lat="49.85486" lon="4.78135">
        <ele>313</ele>
        <time>2021-03-30T11:24:32.000Z</time>
      </trkpt>
      <trkpt lat="49.85489" lon="4.78127">
        <ele>312</ele>
        <time>2021-03-30T11:24:33.000Z</time>
      </trkpt>
      <trkpt lat="49.85492" lon="4.78118">
        <ele>312</ele>
        <time>2021-03-30T11:24:34.000Z</time>
      </trkpt>
      <trkpt lat="49.85496" lon="4.78109">
        <ele>312</ele>
        <time>2021-03-30T11:24:35.000Z</time>
      </trkpt>
      <trkpt lat="49.855" lon="4.78101">
        <ele>312</ele>
        <time>2021-03-30T11:24:36.000Z</time>
      </trkpt>
      <trkpt lat="49.85504" lon="4.78093">
        <ele>311</ele>
        <time>2021-03-30T11:24:37.000Z</time>
      </trkpt>
      <trkpt lat="49.85508" lon="4.78086">
        <ele>311</ele>
        <time>2021-03-30T11:24:38.000Z</time>
      </trkpt>
      <trkpt lat="49.85511" lon="4.78078">
        <ele>311</ele>
        <time>2021-03-30T11:24:39.000Z</time>
      </trkpt>
      <trkpt lat="49.85514" lon="4.78071">
        <ele>311</ele>
        <time>2021-03-30T11:24:40.000Z</time>
      </trkpt>
      <trkpt lat="49.85517" lon="4.78062">
        <ele>311</ele>
        <time>2021-03-30T11:24:41.000Z</time>
      </trkpt>
      <trkpt lat="49.8552" lon="4.78055">
        <ele>311</ele>
        <time>2021-03-30T11:24:42.000Z</time>
      </trkpt>
      <trkpt lat="49.85522" lon="4.78046">
        <ele>310</ele>
        <time>2021-03-30T11:24:43.000Z</time>
      </trkpt>
      <trkpt lat="49.85525" lon="4.78038">
        <ele>310</ele>
        <time>2021-03-30T11:24:44.000Z</time>
      </trkpt>
      <trkpt lat="49.85527" lon="4.78031">
        <ele>310</ele>
        <time>2021-03-30T11:24:45.000Z</time>
      </trkpt>
      <trkpt lat="49.8553" lon="4.78022">
        <ele>310</ele>
        <time>2021-03-30T11:24:46.000Z</time>
      </trkpt>
      <trkpt lat="49.85531" lon="4.78014">
        <ele>310</ele>
        <time>2021-03-30T11:24:47.000Z</time>
      </trkpt>
      <trkpt lat="49.85533" lon="4.78006">
        <ele>310</ele>
        <time>2021-03-30T11:24:48.000Z</time>
      </trkpt>
      <trkpt lat="49.85535" lon="4.77998">
        <ele>310</ele>
        <time>2021-03-30T11:24:49.000Z</time>
      </trkpt>
      <trkpt lat="49.85538" lon="4.77991">
        <ele>310</ele>
        <time>2021-03-30T11:24:50.000Z</time>
      </trkpt>
      <trkpt lat="49.8554" lon="4.77985">
        <ele>310</ele>
        <time>2021-03-30T11:24:51.000Z</time>
      </trkpt>
      <trkpt lat="49.85543" lon="4.7798">
        <ele>310</ele>
        <time>2021-03-30T11:24:52.000Z</time>
      </trkpt>
      <trkpt lat="49.85546" lon="4.77974">
        <ele>310</ele>
        <time>2021-03-30T11:24:53.000Z</time>
      </trkpt>
      <trkpt lat="49.85548" lon="4.77968">
        <ele>310</ele>
        <time>2021-03-30T11:24:54.000Z</time>
      </trkpt>
      <trkpt lat="49.8555" lon="4.77961">
        <ele>310</ele>
        <time>2021-03-30T11:24:55.000Z</time>
      </trkpt>
      <trkpt lat="49.85552" lon="4.77953">
        <ele>310</ele>
        <time>2021-03-30T11:24:56.000Z</time>
      </trkpt>
      <trkpt lat="49.85554" lon="4.77946">
        <ele>310</ele>
        <time>2021-03-30T11:24:57.000Z</time>
      </trkpt>
      <trkpt lat="49.85556" lon="4.77938">
        <ele>310</ele>
        <time>2021-03-30T11:24:58.000Z</time>
      </trkpt>
      <trkpt lat="49.85558" lon="4.7793">
        <ele>310</ele>
        <time>2021-03-30T11:24:59.000Z</time>
      </trkpt>
      <trkpt lat="49.8556" lon="4.77922">
        <ele>310</ele>
        <time>2021-03-30T11:25:00.000Z</time>
      </trkpt>
      <trkpt lat="49.85561" lon="4.77915">
        <ele>309</ele>
        <time>2021-03-30T11:25:01.000Z</time>
      </trkpt>
      <trkpt lat="49.85561" lon="4.77909">
        <ele>309</ele>
        <time>2021-03-30T11:25:02.000Z</time>
      </trkpt>
      <trkpt lat="49.85563" lon="4.77903">
        <ele>309</ele>
        <time>2021-03-30T11:25:03.000Z</time>
      </trkpt>
      <trkpt lat="49.85565" lon="4.77897">
        <ele>309</ele>
        <time>2021-03-30T11:25:04.000Z</time>
      </trkpt>
      <trkpt lat="49.85567" lon="4.77891">
        <ele>309</ele>
        <time>2021-03-30T11:25:05.000Z</time>
      </trkpt>
      <trkpt lat="49.85569" lon="4.77886">
        <ele>309</ele>
        <time>2021-03-30T11:25:06.000Z</time>
      </trkpt>
      <trkpt lat="49.8557" lon="4.77881">
        <ele>309</ele>
        <time>2021-03-30T11:25:07.000Z</time>
      </trkpt>
      <trkpt lat="49.8557" lon="4.77876">
        <ele>309</ele>
        <time>2021-03-30T11:25:08.000Z</time>
      </trkpt>
      <trkpt lat="49.85571" lon="4.77873">
        <ele>309</ele>
        <time>2021-03-30T11:25:09.000Z</time>
      </trkpt>
      <trkpt lat="49.85573" lon="4.77871">
        <ele>309</ele>
        <time>2021-03-30T11:25:10.000Z</time>
      </trkpt>
      <trkpt lat="49.85574" lon="4.77869">
        <ele>309</ele>
        <time>2021-03-30T11:25:11.000Z</time>
      </trkpt>
      <trkpt lat="49.85575" lon="4.77865">
        <ele>309</ele>
        <time>2021-03-30T11:25:12.000Z</time>
      </trkpt>
      <trkpt lat="49.85574" lon="4.77861">
        <ele>309</ele>
        <time>2021-03-30T11:25:13.000Z</time>
      </trkpt>
      <trkpt lat="49.85574" lon="4.77856">
        <ele>309</ele>
        <time>2021-03-30T11:25:14.000Z</time>
      </trkpt>
      <trkpt lat="49.85575" lon="4.77852">
        <ele>309</ele>
        <time>2021-03-30T11:25:15.000Z</time>
      </trkpt>
      <trkpt lat="49.85576" lon="4.77849">
        <ele>309</ele>
        <time>2021-03-30T11:25:16.000Z</time>
      </trkpt>
      <trkpt lat="49.85578" lon="4.77846">
        <ele>309</ele>
        <time>2021-03-30T11:25:17.000Z</time>
      </trkpt>
      <trkpt lat="49.85581" lon="4.77845">
        <ele>309</ele>
        <time>2021-03-30T11:25:18.000Z</time>
      </trkpt>
      <trkpt lat="49.85583" lon="4.77845">
        <ele>309</ele>
        <time>2021-03-30T11:25:19.000Z</time>
      </trkpt>
      <trkpt lat="49.85586" lon="4.77845">
        <ele>309</ele>
        <time>2021-03-30T11:25:20.000Z</time>
      </trkpt>
      <trkpt lat="49.85588" lon="4.77845">
        <ele>309</ele>
        <time>2021-03-30T11:25:21.000Z</time>
      </trkpt>
      <trkpt lat="49.85591" lon="4.77844">
        <ele>309</ele>
        <time>2021-03-30T11:25:22.000Z</time>
      </trkpt>
      <trkpt lat="49.85594" lon="4.77842">
        <ele>309</ele>
        <time>2021-03-30T11:25:23.000Z</time>
      </trkpt>
      <trkpt lat="49.85597" lon="4.77838">
        <ele>308</ele>
        <time>2021-03-30T11:25:24.000Z</time>
      </trkpt>
      <trkpt lat="49.85601" lon="4.77834">
        <ele>308</ele>
        <time>2021-03-30T11:25:25.000Z</time>
      </trkpt>
      <trkpt lat="49.85605" lon="4.77831">
        <ele>308</ele>
        <time>2021-03-30T11:25:26.000Z</time>
      </trkpt>
      <trkpt lat="49.85609" lon="4.77828">
        <ele>308</ele>
        <time>2021-03-30T11:25:27.000Z</time>
      </trkpt>
      <trkpt lat="49.85612" lon="4.77826">
        <ele>308</ele>
        <time>2021-03-30T11:25:28.000Z</time>
      </trkpt>
      <trkpt lat="49.85614" lon="4.77824">
        <ele>308</ele>
        <time>2021-03-30T11:25:29.000Z</time>
      </trkpt>
      <trkpt lat="49.85616" lon="4.77823">
        <ele>308</ele>
        <time>2021-03-30T11:25:30.000Z</time>
      </trkpt>
      <trkpt lat="49.85619" lon="4.77821">
        <ele>308</ele>
        <time>2021-03-30T11:25:31.000Z</time>
      </trkpt>
      <trkpt lat="49.85621" lon="4.77819">
        <ele>308</ele>
        <time>2021-03-30T11:25:32.000Z</time>
      </trkpt>
      <trkpt lat="49.85624" lon="4.77816">
        <ele>308</ele>
        <time>2021-03-30T11:25:33.000Z</time>
      </trkpt>
      <trkpt lat="49.85626" lon="4.77814">
        <ele>308</ele>
        <time>2021-03-30T11:25:34.000Z</time>
      </trkpt>
      <trkpt lat="49.85628" lon="4.77812">
        <ele>308</ele>
        <time>2021-03-30T11:25:35.000Z</time>
      </trkpt>
      <trkpt lat="49.8563" lon="4.7781">
        <ele>308</ele>
        <time>2021-03-30T11:25:36.000Z</time>
      </trkpt>
      <trkpt lat="49.85632" lon="4.77808">
        <ele>308</ele>
        <time>2021-03-30T11:25:37.000Z</time>
      </trkpt>
      <trkpt lat="49.85633" lon="4.77808">
        <ele>308</ele>
        <time>2021-03-30T11:25:38.000Z</time>
      </trkpt>
      <trkpt lat="49.85633" lon="4.77807">
        <ele>308</ele>
        <time>2021-03-30T11:25:39.000Z</time>
      </trkpt>
      <trkpt lat="49.85634" lon="4.77807">
        <ele>308</ele>
        <time>2021-03-30T11:25:40.000Z</time>
      </trkpt>
      <trkpt lat="49.85636" lon="4.77805">
        <ele>308</ele>
        <time>2021-03-30T11:25:41.000Z</time>
      </trkpt>
      <trkpt lat="49.85636" lon="4.77805">
        <ele>308</ele>
        <time>2021-03-30T11:25:42.000Z</time>
      </trkpt>
      <trkpt lat="49.85637" lon="4.77804">
        <ele>308</ele>
        <time>2021-03-30T11:25:43.000Z</time>
      </trkpt>
      <trkpt lat="49.85638" lon="4.77804">
        <ele>308</ele>
        <time>2021-03-30T11:25:44.000Z</time>
      </trkpt>
      <trkpt lat="49.85638" lon="4.77803">
        <ele>308</ele>
        <time>2021-03-30T11:25:45.000Z</time>
      </trkpt>
      <trkpt lat="49.85639" lon="4.77803">
        <ele>308</ele>
        <time>2021-03-30T11:25:46.000Z</time>
      </trkpt>
      <trkpt lat="49.85639" lon="4.77802">
        <ele>308</ele>
        <time>2021-03-30T11:25:47.000Z</time>
      </trkpt>
      <trkpt lat="49.85639" lon="4.77802">
        <ele>308</ele>
        <time>2021-03-30T11:25:48.000Z</time>
      </trkpt>
      <trkpt lat="49.8564" lon="4.77802">
        <ele>309</ele>
        <time>2021-03-30T11:25:49.000Z</time>
      </trkpt>
      <trkpt lat="49.8564" lon="4.77801">
        <ele>309</ele>
        <time>2021-03-30T11:25:50.000Z</time>
      </trkpt>
      <trkpt lat="49.8564" lon="4.77801">
        <ele>309</ele>
        <time>2021-03-30T11:25:51.000Z</time>
      </trkpt>
      <trkpt lat="49.85641" lon="4.77801">
        <ele>309</ele>
        <time>2021-03-30T11:25:52.000Z</time>
      </trkpt>
      <trkpt lat="49.85641" lon="4.778">
        <ele>309</ele>
        <time>2021-03-30T11:25:53.000Z</time>
      </trkpt>
      <trkpt lat="49.85641" lon="4.778">
        <ele>309</ele>
        <time>2021-03-30T11:25:54.000Z</time>
      </trkpt>
      <trkpt lat="49.85641" lon="4.778">
        <ele>309</ele>
        <time>2021-03-30T11:25:55.000Z</time>
      </trkpt>
      <trkpt lat="49.85642" lon="4.778">
        <ele>309</ele>
        <time>2021-03-30T11:25:56.000Z</time>
      </trkpt>
      <trkpt lat="49.85642" lon="4.778">
        <ele>309</ele>
        <time>2021-03-30T11:25:57.000Z</time>
      </trkpt>
      <trkpt lat="49.85642" lon="4.77799">
        <ele>309</ele>
        <time>2021-03-30T11:25:58.000Z</time>
      </trkpt>
      <trkpt lat="49.85642" lon="4.77799">
        <ele>309</ele>
        <time>2021-03-30T11:25:59.000Z</time>
      </trkpt>
      <trkpt lat="49.85642" lon="4.77799">
        <ele>309</ele>
        <time>2021-03-30T11:26:00.000Z</time>
      </trkpt>
      <trkpt lat="49.85642" lon="4.77799">
        <ele>309</ele>
        <time>2021-03-30T11:26:01.000Z</time>
      </trkpt>
      <trkpt lat="49.85643" lon="4.77799">
        <ele>309</ele>
        <time>2021-03-30T11:26:02.000Z</time>
      </trkpt>
      <trkpt lat="49.85643" lon="4.77799">
        <ele>309</ele>
        <time>2021-03-30T11:26:03.000Z</time>
      </trkpt>
      <trkpt lat="49.85643" lon="4.77799">
        <ele>309</ele>
        <time>2021-03-30T11:26:04.000Z</time>
      </trkpt>
      <trkpt lat="49.85643" lon="4.77798">
        <ele>309</ele>
        <time>2021-03-30T11:26:05.000Z</time>
      </trkpt>
      <trkpt lat="49.85643" lon="4.77798">
        <ele>309</ele>
        <time>2021-03-30T11:26:06.000Z</time>
      </trkpt>
      <trkpt lat="49.85643" lon="4.77798">
        <ele>309</ele>
        <time>2021-03-30T11:26:07.000Z</time>
      </trkpt>
      <trkpt lat="49.85643" lon="4.77798">
        <ele>309</ele>
        <time>2021-03-30T11:26:08.000Z</time>
      </trkpt>
      <trkpt lat="49.85643" lon="4.77798">
        <ele>309</ele>
        <time>2021-03-30T11:26:09.000Z</time>
      </trkpt>
      <trkpt lat="49.85643" lon="4.77798">
        <ele>309</ele>
        <time>2021-03-30T11:26:10.000Z</time>
      </trkpt>
      <trkpt lat="49.85643" lon="4.77797">
        <ele>309</ele>
        <time>2021-03-30T11:26:11.000Z</time>
      </trkpt>
      <trkpt lat="49.85644" lon="4.77797">
        <ele>309</ele>
        <time>2021-03-30T11:26:12.000Z</time>
      </trkpt>
      <trkpt lat="49.85645" lon="4.77797">
        <ele>309</ele>
        <time>2021-03-30T11:26:13.000Z</time>
      </trkpt>
      <trkpt lat="49.85645" lon="4.77796">
        <ele>309</ele>
        <time>2021-03-30T11:26:14.000Z</time>
      </trkpt>
      <trkpt lat="49.85646" lon="4.77795">
        <ele>309</ele>
        <time>2021-03-30T11:26:15.000Z</time>
      </trkpt>
      <trkpt lat="49.85648" lon="4.77793">
        <ele>309</ele>
        <time>2021-03-30T11:26:16.000Z</time>
      </trkpt>
      <trkpt lat="49.85651" lon="4.77793">
        <ele>309</ele>
        <time>2021-03-30T11:26:17.000Z</time>
      </trkpt>
      <trkpt lat="49.85654" lon="4.77792">
        <ele>309</ele>
        <time>2021-03-30T11:26:18.000Z</time>
      </trkpt>
      <trkpt lat="49.85658" lon="4.77792">
        <ele>309</ele>
        <time>2021-03-30T11:26:19.000Z</time>
      </trkpt>
      <trkpt lat="49.85661" lon="4.77791">
        <ele>309</ele>
        <time>2021-03-30T11:26:20.000Z</time>
      </trkpt>
      <trkpt lat="49.85664" lon="4.77789">
        <ele>309</ele>
        <time>2021-03-30T11:26:21.000Z</time>
      </trkpt>
      <trkpt lat="49.85667" lon="4.77786">
        <ele>309</ele>
        <time>2021-03-30T11:26:22.000Z</time>
      </trkpt>
      <trkpt lat="49.85672" lon="4.77782">
        <ele>309</ele>
        <time>2021-03-30T11:26:23.000Z</time>
      </trkpt>
      <trkpt lat="49.85677" lon="4.77779">
        <ele>309</ele>
        <time>2021-03-30T11:26:24.000Z</time>
      </trkpt>
      <trkpt lat="49.85683" lon="4.77777">
        <ele>309</ele>
        <time>2021-03-30T11:26:25.000Z</time>
      </trkpt>
      <trkpt lat="49.85689" lon="4.77773">
        <ele>309</ele>
        <time>2021-03-30T11:26:26.000Z</time>
      </trkpt>
      <trkpt lat="49.85696" lon="4.7777">
        <ele>309</ele>
        <time>2021-03-30T11:26:27.000Z</time>
      </trkpt>
      <trkpt lat="49.85703" lon="4.77766">
        <ele>309</ele>
        <time>2021-03-30T11:26:28.000Z</time>
      </trkpt>
      <trkpt lat="49.8571" lon="4.77762">
        <ele>309</ele>
        <time>2021-03-30T11:26:29.000Z</time>
      </trkpt>
      <trkpt lat="49.85717" lon="4.77758">
        <ele>309</ele>
        <time>2021-03-30T11:26:30.000Z</time>
      </trkpt>
      <trkpt lat="49.85724" lon="4.77754">
        <ele>309</ele>
        <time>2021-03-30T11:26:31.000Z</time>
      </trkpt>
      <trkpt lat="49.8573" lon="4.77751">
        <ele>309</ele>
        <time>2021-03-30T11:26:32.000Z</time>
      </trkpt>
      <trkpt lat="49.85737" lon="4.77747">
        <ele>309</ele>
        <time>2021-03-30T11:26:33.000Z</time>
      </trkpt>
      <trkpt lat="49.85745" lon="4.77744">
        <ele>309</ele>
        <time>2021-03-30T11:26:34.000Z</time>
      </trkpt>
      <trkpt lat="49.85753" lon="4.77743">
        <ele>309</ele>
        <time>2021-03-30T11:26:35.000Z</time>
      </trkpt>
      <trkpt lat="49.8576" lon="4.77745">
        <ele>308</ele>
        <time>2021-03-30T11:26:36.000Z</time>
      </trkpt>
      <trkpt lat="49.85765" lon="4.7775">
        <ele>308</ele>
        <time>2021-03-30T11:26:37.000Z</time>
      </trkpt>
      <trkpt lat="49.85769" lon="4.77757">
        <ele>307</ele>
        <time>2021-03-30T11:26:38.000Z</time>
      </trkpt>
      <trkpt lat="49.85771" lon="4.77764">
        <ele>307</ele>
        <time>2021-03-30T11:26:39.000Z</time>
      </trkpt>
      <trkpt lat="49.85772" lon="4.77772">
        <ele>306</ele>
        <time>2021-03-30T11:26:40.000Z</time>
      </trkpt>
      <trkpt lat="49.85774" lon="4.77778">
        <ele>306</ele>
        <time>2021-03-30T11:26:41.000Z</time>
      </trkpt>
      <trkpt lat="49.85776" lon="4.77783">
        <ele>305</ele>
        <time>2021-03-30T11:26:42.000Z</time>
      </trkpt>
      <trkpt lat="49.85778" lon="4.77788">
        <ele>305</ele>
        <time>2021-03-30T11:26:43.000Z</time>
      </trkpt>
      <trkpt lat="49.85779" lon="4.77793">
        <ele>304</ele>
        <time>2021-03-30T11:26:44.000Z</time>
      </trkpt>
      <trkpt lat="49.8578" lon="4.77799">
        <ele>304</ele>
        <time>2021-03-30T11:26:45.000Z</time>
      </trkpt>
      <trkpt lat="49.85782" lon="4.77805">
        <ele>304</ele>
        <time>2021-03-30T11:26:46.000Z</time>
      </trkpt>
      <trkpt lat="49.85783" lon="4.77811">
        <ele>303</ele>
        <time>2021-03-30T11:26:47.000Z</time>
      </trkpt>
      <trkpt lat="49.85785" lon="4.77817">
        <ele>303</ele>
        <time>2021-03-30T11:26:48.000Z</time>
      </trkpt>
      <trkpt lat="49.85788" lon="4.77824">
        <ele>303</ele>
        <time>2021-03-30T11:26:49.000Z</time>
      </trkpt>
      <trkpt lat="49.85791" lon="4.77833">
        <ele>302</ele>
        <time>2021-03-30T11:26:50.000Z</time>
      </trkpt>
      <trkpt lat="49.85794" lon="4.77841">
        <ele>302</ele>
        <time>2021-03-30T11:26:51.000Z</time>
      </trkpt>
      <trkpt lat="49.85796" lon="4.77848">
        <ele>301</ele>
        <time>2021-03-30T11:26:52.000Z</time>
      </trkpt>
      <trkpt lat="49.85798" lon="4.77855">
        <ele>300</ele>
        <time>2021-03-30T11:26:53.000Z</time>
      </trkpt>
      <trkpt lat="49.85799" lon="4.77861">
        <ele>300</ele>
        <time>2021-03-30T11:26:54.000Z</time>
      </trkpt>
      <trkpt lat="49.85802" lon="4.77868">
        <ele>299</ele>
        <time>2021-03-30T11:26:55.000Z</time>
      </trkpt>
      <trkpt lat="49.85805" lon="4.77875">
        <ele>299</ele>
        <time>2021-03-30T11:26:56.000Z</time>
      </trkpt>
      <trkpt lat="49.85806" lon="4.7788">
        <ele>298</ele>
        <time>2021-03-30T11:26:57.000Z</time>
      </trkpt>
      <trkpt lat="49.85807" lon="4.77885">
        <ele>298</ele>
        <time>2021-03-30T11:26:58.000Z</time>
      </trkpt>
      <trkpt lat="49.85808" lon="4.7789">
        <ele>297</ele>
        <time>2021-03-30T11:26:59.000Z</time>
      </trkpt>
      <trkpt lat="49.85809" lon="4.77895">
        <ele>297</ele>
        <time>2021-03-30T11:27:00.000Z</time>
      </trkpt>
      <trkpt lat="49.8581" lon="4.779">
        <ele>297</ele>
        <time>2021-03-30T11:27:01.000Z</time>
      </trkpt>
      <trkpt lat="49.85811" lon="4.77904">
        <ele>296</ele>
        <time>2021-03-30T11:27:02.000Z</time>
      </trkpt>
      <trkpt lat="49.85811" lon="4.77906">
        <ele>296</ele>
        <time>2021-03-30T11:27:03.000Z</time>
      </trkpt>
      <trkpt lat="49.85812" lon="4.77908">
        <ele>295</ele>
        <time>2021-03-30T11:27:04.000Z</time>
      </trkpt>
      <trkpt lat="49.85813" lon="4.7791">
        <ele>295</ele>
        <time>2021-03-30T11:27:05.000Z</time>
      </trkpt>
      <trkpt lat="49.85814" lon="4.77913">
        <ele>294</ele>
        <time>2021-03-30T11:27:06.000Z</time>
      </trkpt>
      <trkpt lat="49.85815" lon="4.77917">
        <ele>294</ele>
        <time>2021-03-30T11:27:07.000Z</time>
      </trkpt>
      <trkpt lat="49.85815" lon="4.77921">
        <ele>293</ele>
        <time>2021-03-30T11:27:08.000Z</time>
      </trkpt>
      <trkpt lat="49.85814" lon="4.77925">
        <ele>293</ele>
        <time>2021-03-30T11:27:09.000Z</time>
      </trkpt>
      <trkpt lat="49.85814" lon="4.77927">
        <ele>292</ele>
        <time>2021-03-30T11:27:10.000Z</time>
      </trkpt>
      <trkpt lat="49.85813" lon="4.77928">
        <ele>292</ele>
        <time>2021-03-30T11:27:11.000Z</time>
      </trkpt>
      <trkpt lat="49.85814" lon="4.77928">
        <ele>291</ele>
        <time>2021-03-30T11:27:12.000Z</time>
      </trkpt>
      <trkpt lat="49.85814" lon="4.77929">
        <ele>291</ele>
        <time>2021-03-30T11:27:13.000Z</time>
      </trkpt>
      <trkpt lat="49.85813" lon="4.7793">
        <ele>291</ele>
        <time>2021-03-30T11:27:14.000Z</time>
      </trkpt>
      <trkpt lat="49.85814" lon="4.77931">
        <ele>290</ele>
        <time>2021-03-30T11:27:15.000Z</time>
      </trkpt>
      <trkpt lat="49.85814" lon="4.77932">
        <ele>290</ele>
        <time>2021-03-30T11:27:16.000Z</time>
      </trkpt>
      <trkpt lat="49.85813" lon="4.77933">
        <ele>289</ele>
        <time>2021-03-30T11:27:17.000Z</time>
      </trkpt>
      <trkpt lat="49.85813" lon="4.77934">
        <ele>289</ele>
        <time>2021-03-30T11:27:18.000Z</time>
      </trkpt>
      <trkpt lat="49.85813" lon="4.77934">
        <ele>289</ele>
        <time>2021-03-30T11:27:19.000Z</time>
      </trkpt>
      <trkpt lat="49.85813" lon="4.77935">
        <ele>288</ele>
        <time>2021-03-30T11:27:20.000Z</time>
      </trkpt>
      <trkpt lat="49.85813" lon="4.77936">
        <ele>288</ele>
        <time>2021-03-30T11:27:21.000Z</time>
      </trkpt>
      <trkpt lat="49.85813" lon="4.77936">
        <ele>288</ele>
        <time>2021-03-30T11:27:22.000Z</time>
      </trkpt>
      <trkpt lat="49.85812" lon="4.77936">
        <ele>288</ele>
        <time>2021-03-30T11:27:23.000Z</time>
      </trkpt>
      <trkpt lat="49.85812" lon="4.77937">
        <ele>287</ele>
        <time>2021-03-30T11:27:24.000Z</time>
      </trkpt>
      <trkpt lat="49.85812" lon="4.77937">
        <ele>287</ele>
        <time>2021-03-30T11:27:25.000Z</time>
      </trkpt>
      <trkpt lat="49.85812" lon="4.77938">
        <ele>287</ele>
        <time>2021-03-30T11:27:26.000Z</time>
      </trkpt>
      <trkpt lat="49.85812" lon="4.77939">
        <ele>287</ele>
        <time>2021-03-30T11:27:27.000Z</time>
      </trkpt>
      <trkpt lat="49.85811" lon="4.77942">
        <ele>287</ele>
        <time>2021-03-30T11:27:28.000Z</time>
      </trkpt>
      <trkpt lat="49.85811" lon="4.77945">
        <ele>286</ele>
        <time>2021-03-30T11:27:29.000Z</time>
      </trkpt>
      <trkpt lat="49.85811" lon="4.77948">
        <ele>286</ele>
        <time>2021-03-30T11:27:30.000Z</time>
      </trkpt>
      <trkpt lat="49.85809" lon="4.77953">
        <ele>286</ele>
        <time>2021-03-30T11:27:31.000Z</time>
      </trkpt>
      <trkpt lat="49.85807" lon="4.77957">
        <ele>285</ele>
        <time>2021-03-30T11:27:32.000Z</time>
      </trkpt>
      <trkpt lat="49.85805" lon="4.77962">
        <ele>285</ele>
        <time>2021-03-30T11:27:33.000Z</time>
      </trkpt>
      <trkpt lat="49.85803" lon="4.77964">
        <ele>285</ele>
        <time>2021-03-30T11:27:34.000Z</time>
      </trkpt>
      <trkpt lat="49.85803" lon="4.77966">
        <ele>284</ele>
        <time>2021-03-30T11:27:35.000Z</time>
      </trkpt>
      <trkpt lat="49.85802" lon="4.77968">
        <ele>284</ele>
        <time>2021-03-30T11:27:36.000Z</time>
      </trkpt>
      <trkpt lat="49.85803" lon="4.7797">
        <ele>283</ele>
        <time>2021-03-30T11:27:37.000Z</time>
      </trkpt>
      <trkpt lat="49.85804" lon="4.77971">
        <ele>283</ele>
        <time>2021-03-30T11:27:38.000Z</time>
      </trkpt>
      <trkpt lat="49.85806" lon="4.77973">
        <ele>282</ele>
        <time>2021-03-30T11:27:39.000Z</time>
      </trkpt>
      <trkpt lat="49.85809" lon="4.77975">
        <ele>282</ele>
        <time>2021-03-30T11:27:40.000Z</time>
      </trkpt>
      <trkpt lat="49.85812" lon="4.77975">
        <ele>281</ele>
        <time>2021-03-30T11:27:41.000Z</time>
      </trkpt>
      <trkpt lat="49.85814" lon="4.77975">
        <ele>281</ele>
        <time>2021-03-30T11:27:42.000Z</time>
      </trkpt>
      <trkpt lat="49.85816" lon="4.77974">
        <ele>280</ele>
        <time>2021-03-30T11:27:43.000Z</time>
      </trkpt>
      <trkpt lat="49.85817" lon="4.77976">
        <ele>280</ele>
        <time>2021-03-30T11:27:44.000Z</time>
      </trkpt>
      <trkpt lat="49.85817" lon="4.77978">
        <ele>280</ele>
        <time>2021-03-30T11:27:45.000Z</time>
      </trkpt>
      <trkpt lat="49.85817" lon="4.7798">
        <ele>279</ele>
        <time>2021-03-30T11:27:46.000Z</time>
      </trkpt>
      <trkpt lat="49.85816" lon="4.77983">
        <ele>279</ele>
        <time>2021-03-30T11:27:47.000Z</time>
      </trkpt>
      <trkpt lat="49.85814" lon="4.77986">
        <ele>279</ele>
        <time>2021-03-30T11:27:48.000Z</time>
      </trkpt>
      <trkpt lat="49.85812" lon="4.7799">
        <ele>279</ele>
        <time>2021-03-30T11:27:49.000Z</time>
      </trkpt>
      <trkpt lat="49.85811" lon="4.77994">
        <ele>279</ele>
        <time>2021-03-30T11:27:50.000Z</time>
      </trkpt>
      <trkpt lat="49.8581" lon="4.77998">
        <ele>279</ele>
        <time>2021-03-30T11:27:51.000Z</time>
      </trkpt>
      <trkpt lat="49.85808" lon="4.78002">
        <ele>278</ele>
        <time>2021-03-30T11:27:52.000Z</time>
      </trkpt>
      <trkpt lat="49.85806" lon="4.78004">
        <ele>278</ele>
        <time>2021-03-30T11:27:53.000Z</time>
      </trkpt>
      <trkpt lat="49.85804" lon="4.78007">
        <ele>277</ele>
        <time>2021-03-30T11:27:54.000Z</time>
      </trkpt>
      <trkpt lat="49.85803" lon="4.78011">
        <ele>277</ele>
        <time>2021-03-30T11:27:55.000Z</time>
      </trkpt>
      <trkpt lat="49.85802" lon="4.78016">
        <ele>276</ele>
        <time>2021-03-30T11:27:56.000Z</time>
      </trkpt>
      <trkpt lat="49.85801" lon="4.78021">
        <ele>276</ele>
        <time>2021-03-30T11:27:57.000Z</time>
      </trkpt>
      <trkpt lat="49.85799" lon="4.78027">
        <ele>275</ele>
        <time>2021-03-30T11:27:58.000Z</time>
      </trkpt>
      <trkpt lat="49.85797" lon="4.78032">
        <ele>275</ele>
        <time>2021-03-30T11:27:59.000Z</time>
      </trkpt>
      <trkpt lat="49.85795" lon="4.78036">
        <ele>274</ele>
        <time>2021-03-30T11:28:00.000Z</time>
      </trkpt>
      <trkpt lat="49.85793" lon="4.78041">
        <ele>274</ele>
        <time>2021-03-30T11:28:01.000Z</time>
      </trkpt>
      <trkpt lat="49.8579" lon="4.78046">
        <ele>273</ele>
        <time>2021-03-30T11:28:02.000Z</time>
      </trkpt>
      <trkpt lat="49.85787" lon="4.78052">
        <ele>272</ele>
        <time>2021-03-30T11:28:03.000Z</time>
      </trkpt>
      <trkpt lat="49.85784" lon="4.78057">
        <ele>271</ele>
        <time>2021-03-30T11:28:04.000Z</time>
      </trkpt>
      <trkpt lat="49.8578" lon="4.78062">
        <ele>271</ele>
        <time>2021-03-30T11:28:05.000Z</time>
      </trkpt>
      <trkpt lat="49.85777" lon="4.78064">
        <ele>270</ele>
        <time>2021-03-30T11:28:06.000Z</time>
      </trkpt>
      <trkpt lat="49.85774" lon="4.78068">
        <ele>269</ele>
        <time>2021-03-30T11:28:07.000Z</time>
      </trkpt>
      <trkpt lat="49.85772" lon="4.78073">
        <ele>269</ele>
        <time>2021-03-30T11:28:08.000Z</time>
      </trkpt>
      <trkpt lat="49.8577" lon="4.78076">
        <ele>268</ele>
        <time>2021-03-30T11:28:09.000Z</time>
      </trkpt>
      <trkpt lat="49.85767" lon="4.78078">
        <ele>267</ele>
        <time>2021-03-30T11:28:10.000Z</time>
      </trkpt>
      <trkpt lat="49.85765" lon="4.7808">
        <ele>267</ele>
        <time>2021-03-30T11:28:11.000Z</time>
      </trkpt>
      <trkpt lat="49.85763" lon="4.78083">
        <ele>266</ele>
        <time>2021-03-30T11:28:12.000Z</time>
      </trkpt>
      <trkpt lat="49.85762" lon="4.78086">
        <ele>265</ele>
        <time>2021-03-30T11:28:13.000Z</time>
      </trkpt>
      <trkpt lat="49.85761" lon="4.7809">
        <ele>265</ele>
        <time>2021-03-30T11:28:14.000Z</time>
      </trkpt>
      <trkpt lat="49.8576" lon="4.78094">
        <ele>264</ele>
        <time>2021-03-30T11:28:15.000Z</time>
      </trkpt>
      <trkpt lat="49.85757" lon="4.78097">
        <ele>263</ele>
        <time>2021-03-30T11:28:16.000Z</time>
      </trkpt>
      <trkpt lat="49.85756" lon="4.781">
        <ele>263</ele>
        <time>2021-03-30T11:28:17.000Z</time>
      </trkpt>
      <trkpt lat="49.85755" lon="4.78101">
        <ele>262</ele>
        <time>2021-03-30T11:28:18.000Z</time>
      </trkpt>
      <trkpt lat="49.85754" lon="4.78102">
        <ele>261</ele>
        <time>2021-03-30T11:28:19.000Z</time>
      </trkpt>
      <trkpt lat="49.85754" lon="4.78104">
        <ele>261</ele>
        <time>2021-03-30T11:28:20.000Z</time>
      </trkpt>
      <trkpt lat="49.85753" lon="4.78107">
        <ele>260</ele>
        <time>2021-03-30T11:28:21.000Z</time>
      </trkpt>
      <trkpt lat="49.85752" lon="4.7811">
        <ele>260</ele>
        <time>2021-03-30T11:28:22.000Z</time>
      </trkpt>
      <trkpt lat="49.85751" lon="4.78112">
        <ele>260</ele>
        <time>2021-03-30T11:28:23.000Z</time>
      </trkpt>
      <trkpt lat="49.8575" lon="4.78116">
        <ele>259</ele>
        <time>2021-03-30T11:28:24.000Z</time>
      </trkpt>
      <trkpt lat="49.85749" lon="4.78119">
        <ele>259</ele>
        <time>2021-03-30T11:28:25.000Z</time>
      </trkpt>
      <trkpt lat="49.85749" lon="4.78122">
        <ele>258</ele>
        <time>2021-03-30T11:28:26.000Z</time>
      </trkpt>
      <trkpt lat="49.85749" lon="4.78124">
        <ele>258</ele>
        <time>2021-03-30T11:28:27.000Z</time>
      </trkpt>
      <trkpt lat="49.85749" lon="4.78125">
        <ele>257</ele>
        <time>2021-03-30T11:28:28.000Z</time>
      </trkpt>
      <trkpt lat="49.85749" lon="4.78126">
        <ele>256</ele>
        <time>2021-03-30T11:28:29.000Z</time>
      </trkpt>
      <trkpt lat="49.85749" lon="4.78127">
        <ele>256</ele>
        <time>2021-03-30T11:28:30.000Z</time>
      </trkpt>
      <trkpt lat="49.8575" lon="4.78127">
        <ele>255</ele>
        <time>2021-03-30T11:28:31.000Z</time>
      </trkpt>
      <trkpt lat="49.85751" lon="4.78128">
        <ele>255</ele>
        <time>2021-03-30T11:28:32.000Z</time>
      </trkpt>
      <trkpt lat="49.85751" lon="4.78128">
        <ele>254</ele>
        <time>2021-03-30T11:28:33.000Z</time>
      </trkpt>
      <trkpt lat="49.85752" lon="4.78129">
        <ele>254</ele>
        <time>2021-03-30T11:28:34.000Z</time>
      </trkpt>
      <trkpt lat="49.85753" lon="4.7813">
        <ele>253</ele>
        <time>2021-03-30T11:28:35.000Z</time>
      </trkpt>
      <trkpt lat="49.85753" lon="4.78133">
        <ele>253</ele>
        <time>2021-03-30T11:28:36.000Z</time>
      </trkpt>
      <trkpt lat="49.85754" lon="4.78133">
        <ele>253</ele>
        <time>2021-03-30T11:28:37.000Z</time>
      </trkpt>
      <trkpt lat="49.85754" lon="4.78133">
        <ele>252</ele>
        <time>2021-03-30T11:28:38.000Z</time>
      </trkpt>
      <trkpt lat="49.85755" lon="4.78135">
        <ele>252</ele>
        <time>2021-03-30T11:28:39.000Z</time>
      </trkpt>
      <trkpt lat="49.85755" lon="4.78137">
        <ele>252</ele>
        <time>2021-03-30T11:28:40.000Z</time>
      </trkpt>
      <trkpt lat="49.85755" lon="4.7814">
        <ele>251</ele>
        <time>2021-03-30T11:28:41.000Z</time>
      </trkpt>
      <trkpt lat="49.85754" lon="4.78144">
        <ele>251</ele>
        <time>2021-03-30T11:28:42.000Z</time>
      </trkpt>
      <trkpt lat="49.85752" lon="4.78148">
        <ele>250</ele>
        <time>2021-03-30T11:28:43.000Z</time>
      </trkpt>
      <trkpt lat="49.8575" lon="4.78152">
        <ele>250</ele>
        <time>2021-03-30T11:28:44.000Z</time>
      </trkpt>
      <trkpt lat="49.85749" lon="4.78157">
        <ele>249</ele>
        <time>2021-03-30T11:28:45.000Z</time>
      </trkpt>
      <trkpt lat="49.85748" lon="4.78163">
        <ele>249</ele>
        <time>2021-03-30T11:28:46.000Z</time>
      </trkpt>
      <trkpt lat="49.85748" lon="4.78169">
        <ele>248</ele>
        <time>2021-03-30T11:28:47.000Z</time>
      </trkpt>
      <trkpt lat="49.85749" lon="4.78174">
        <ele>248</ele>
        <time>2021-03-30T11:28:48.000Z</time>
      </trkpt>
      <trkpt lat="49.85751" lon="4.78178">
        <ele>247</ele>
        <time>2021-03-30T11:28:49.000Z</time>
      </trkpt>
      <trkpt lat="49.85754" lon="4.78179">
        <ele>246</ele>
        <time>2021-03-30T11:28:50.000Z</time>
      </trkpt>
      <trkpt lat="49.85756" lon="4.78181">
        <ele>245</ele>
        <time>2021-03-30T11:28:51.000Z</time>
      </trkpt>
      <trkpt lat="49.85758" lon="4.78183">
        <ele>244</ele>
        <time>2021-03-30T11:28:52.000Z</time>
      </trkpt>
      <trkpt lat="49.8576" lon="4.78183">
        <ele>243</ele>
        <time>2021-03-30T11:28:53.000Z</time>
      </trkpt>
      <trkpt lat="49.85763" lon="4.78183">
        <ele>243</ele>
        <time>2021-03-30T11:28:54.000Z</time>
      </trkpt>
      <trkpt lat="49.85767" lon="4.78184">
        <ele>242</ele>
        <time>2021-03-30T11:28:55.000Z</time>
      </trkpt>
      <trkpt lat="49.85771" lon="4.78186">
        <ele>241</ele>
        <time>2021-03-30T11:28:56.000Z</time>
      </trkpt>
      <trkpt lat="49.85775" lon="4.78187">
        <ele>241</ele>
        <time>2021-03-30T11:28:57.000Z</time>
      </trkpt>
      <trkpt lat="49.85779" lon="4.7819">
        <ele>240</ele>
        <time>2021-03-30T11:28:58.000Z</time>
      </trkpt>
      <trkpt lat="49.85783" lon="4.78194">
        <ele>239</ele>
        <time>2021-03-30T11:28:59.000Z</time>
      </trkpt>
      <trkpt lat="49.85786" lon="4.78199">
        <ele>239</ele>
        <time>2021-03-30T11:29:00.000Z</time>
      </trkpt>
      <trkpt lat="49.85788" lon="4.78203">
        <ele>238</ele>
        <time>2021-03-30T11:29:01.000Z</time>
      </trkpt>
      <trkpt lat="49.8579" lon="4.78207">
        <ele>237</ele>
        <time>2021-03-30T11:29:02.000Z</time>
      </trkpt>
      <trkpt lat="49.85793" lon="4.78211">
        <ele>237</ele>
        <time>2021-03-30T11:29:03.000Z</time>
      </trkpt>
      <trkpt lat="49.85795" lon="4.78216">
        <ele>236</ele>
        <time>2021-03-30T11:29:04.000Z</time>
      </trkpt>
      <trkpt lat="49.85799" lon="4.78222">
        <ele>236</ele>
        <time>2021-03-30T11:29:05.000Z</time>
      </trkpt>
      <trkpt lat="49.85803" lon="4.78229">
        <ele>235</ele>
        <time>2021-03-30T11:29:06.000Z</time>
      </trkpt>
      <trkpt lat="49.85808" lon="4.78235">
        <ele>234</ele>
        <time>2021-03-30T11:29:07.000Z</time>
      </trkpt>
      <trkpt lat="49.85812" lon="4.78241">
        <ele>233</ele>
        <time>2021-03-30T11:29:08.000Z</time>
      </trkpt>
      <trkpt lat="49.85816" lon="4.78247">
        <ele>232</ele>
        <time>2021-03-30T11:29:09.000Z</time>
      </trkpt>
      <trkpt lat="49.8582" lon="4.78252">
        <ele>231</ele>
        <time>2021-03-30T11:29:10.000Z</time>
      </trkpt>
      <trkpt lat="49.85824" lon="4.78257">
        <ele>230</ele>
        <time>2021-03-30T11:29:11.000Z</time>
      </trkpt>
      <trkpt lat="49.85827" lon="4.78261">
        <ele>229</ele>
        <time>2021-03-30T11:29:12.000Z</time>
      </trkpt>
      <trkpt lat="49.85831" lon="4.78263">
        <ele>228</ele>
        <time>2021-03-30T11:29:13.000Z</time>
      </trkpt>
      <trkpt lat="49.85834" lon="4.78264">
        <ele>227</ele>
        <time>2021-03-30T11:29:14.000Z</time>
      </trkpt>
      <trkpt lat="49.85837" lon="4.78267">
        <ele>226</ele>
        <time>2021-03-30T11:29:15.000Z</time>
      </trkpt>
      <trkpt lat="49.8584" lon="4.78269">
        <ele>225</ele>
        <time>2021-03-30T11:29:16.000Z</time>
      </trkpt>
      <trkpt lat="49.85842" lon="4.78273">
        <ele>224</ele>
        <time>2021-03-30T11:29:17.000Z</time>
      </trkpt>
      <trkpt lat="49.85845" lon="4.78278">
        <ele>223</ele>
        <time>2021-03-30T11:29:18.000Z</time>
      </trkpt>
      <trkpt lat="49.85848" lon="4.78282">
        <ele>222</ele>
        <time>2021-03-30T11:29:19.000Z</time>
      </trkpt>
      <trkpt lat="49.8585" lon="4.78285">
        <ele>221</ele>
        <time>2021-03-30T11:29:20.000Z</time>
      </trkpt>
      <trkpt lat="49.85852" lon="4.78287">
        <ele>220</ele>
        <time>2021-03-30T11:29:21.000Z</time>
      </trkpt>
      <trkpt lat="49.85854" lon="4.78289">
        <ele>219</ele>
        <time>2021-03-30T11:29:22.000Z</time>
      </trkpt>
      <trkpt lat="49.85855" lon="4.7829">
        <ele>218</ele>
        <time>2021-03-30T11:29:23.000Z</time>
      </trkpt>
      <trkpt lat="49.85858" lon="4.78293">
        <ele>217</ele>
        <time>2021-03-30T11:29:24.000Z</time>
      </trkpt>
      <trkpt lat="49.85862" lon="4.78295">
        <ele>216</ele>
        <time>2021-03-30T11:29:25.000Z</time>
      </trkpt>
      <trkpt lat="49.85866" lon="4.78297">
        <ele>215</ele>
        <time>2021-03-30T11:29:26.000Z</time>
      </trkpt>
      <trkpt lat="49.85869" lon="4.78301">
        <ele>214</ele>
        <time>2021-03-30T11:29:27.000Z</time>
      </trkpt>
      <trkpt lat="49.85871" lon="4.78305">
        <ele>213</ele>
        <time>2021-03-30T11:29:28.000Z</time>
      </trkpt>
      <trkpt lat="49.85874" lon="4.78309">
        <ele>213</ele>
        <time>2021-03-30T11:29:29.000Z</time>
      </trkpt>
      <trkpt lat="49.85876" lon="4.78313">
        <ele>212</ele>
        <time>2021-03-30T11:29:30.000Z</time>
      </trkpt>
      <trkpt lat="49.85879" lon="4.78317">
        <ele>211</ele>
        <time>2021-03-30T11:29:31.000Z</time>
      </trkpt>
      <trkpt lat="49.85881" lon="4.78321">
        <ele>210</ele>
        <time>2021-03-30T11:29:32.000Z</time>
      </trkpt>
      <trkpt lat="49.85883" lon="4.78328">
        <ele>209</ele>
        <time>2021-03-30T11:29:33.000Z</time>
      </trkpt>
      <trkpt lat="49.85887" lon="4.78335">
        <ele>208</ele>
        <time>2021-03-30T11:29:34.000Z</time>
      </trkpt>
      <trkpt lat="49.85892" lon="4.78343">
        <ele>207</ele>
        <time>2021-03-30T11:29:35.000Z</time>
      </trkpt>
      <trkpt lat="49.85897" lon="4.7835">
        <ele>206</ele>
        <time>2021-03-30T11:29:36.000Z</time>
      </trkpt>
      <trkpt lat="49.85902" lon="4.78357">
        <ele>205</ele>
        <time>2021-03-30T11:29:37.000Z</time>
      </trkpt>
      <trkpt lat="49.85907" lon="4.78362">
        <ele>203</ele>
        <time>2021-03-30T11:29:38.000Z</time>
      </trkpt>
      <trkpt lat="49.85912" lon="4.78367">
        <ele>201</ele>
        <time>2021-03-30T11:29:39.000Z</time>
      </trkpt>
      <trkpt lat="49.85917" lon="4.78371">
        <ele>199</ele>
        <time>2021-03-30T11:29:40.000Z</time>
      </trkpt>
      <trkpt lat="49.85921" lon="4.78377">
        <ele>197</ele>
        <time>2021-03-30T11:29:41.000Z</time>
      </trkpt>
      <trkpt lat="49.85926" lon="4.78385">
        <ele>195</ele>
        <time>2021-03-30T11:29:42.000Z</time>
      </trkpt>
      <trkpt lat="49.8593" lon="4.78393">
        <ele>192</ele>
        <time>2021-03-30T11:29:43.000Z</time>
      </trkpt>
      <trkpt lat="49.85934" lon="4.78401">
        <ele>190</ele>
        <time>2021-03-30T11:29:44.000Z</time>
      </trkpt>
      <trkpt lat="49.85938" lon="4.78408">
        <ele>187</ele>
        <time>2021-03-30T11:29:45.000Z</time>
      </trkpt>
      <trkpt lat="49.85942" lon="4.78415">
        <ele>185</ele>
        <time>2021-03-30T11:29:46.000Z</time>
      </trkpt>
      <trkpt lat="49.85945" lon="4.78421">
        <ele>183</ele>
        <time>2021-03-30T11:29:47.000Z</time>
      </trkpt>
      <trkpt lat="49.85948" lon="4.78424">
        <ele>181</ele>
        <time>2021-03-30T11:29:48.000Z</time>
      </trkpt>
      <trkpt lat="49.85951" lon="4.78425">
        <ele>179</ele>
        <time>2021-03-30T11:29:49.000Z</time>
      </trkpt>
      <trkpt lat="49.85954" lon="4.78424">
        <ele>178</ele>
        <time>2021-03-30T11:29:50.000Z</time>
      </trkpt>
      <trkpt lat="49.85958" lon="4.78421">
        <ele>176</ele>
        <time>2021-03-30T11:29:51.000Z</time>
      </trkpt>
      <trkpt lat="49.85961" lon="4.78417">
        <ele>175</ele>
        <time>2021-03-30T11:29:52.000Z</time>
      </trkpt>
      <trkpt lat="49.85965" lon="4.78413">
        <ele>174</ele>
        <time>2021-03-30T11:29:53.000Z</time>
      </trkpt>
      <trkpt lat="49.85968" lon="4.78408">
        <ele>173</ele>
        <time>2021-03-30T11:29:54.000Z</time>
      </trkpt>
      <trkpt lat="49.85971" lon="4.78403">
        <ele>172</ele>
        <time>2021-03-30T11:29:55.000Z</time>
      </trkpt>
      <trkpt lat="49.85974" lon="4.78398">
        <ele>171</ele>
        <time>2021-03-30T11:29:56.000Z</time>
      </trkpt>
      <trkpt lat="49.85978" lon="4.78393">
        <ele>170</ele>
        <time>2021-03-30T11:29:57.000Z</time>
      </trkpt>
      <trkpt lat="49.85982" lon="4.78388">
        <ele>169</ele>
        <time>2021-03-30T11:29:58.000Z</time>
      </trkpt>
      <trkpt lat="49.85987" lon="4.78382">
        <ele>168</ele>
        <time>2021-03-30T11:29:59.000Z</time>
      </trkpt>
      <trkpt lat="49.85992" lon="4.78376">
        <ele>168</ele>
        <time>2021-03-30T11:30:00.000Z</time>
      </trkpt>
      <trkpt lat="49.85998" lon="4.78371">
        <ele>167</ele>
        <time>2021-03-30T11:30:01.000Z</time>
      </trkpt>
      <trkpt lat="49.86005" lon="4.78365">
        <ele>166</ele>
        <time>2021-03-30T11:30:02.000Z</time>
      </trkpt>
      <trkpt lat="49.86013" lon="4.7836">
        <ele>165</ele>
        <time>2021-03-30T11:30:03.000Z</time>
      </trkpt>
      <trkpt lat="49.8602" lon="4.78354">
        <ele>164</ele>
        <time>2021-03-30T11:30:04.000Z</time>
      </trkpt>
      <trkpt lat="49.86027" lon="4.78348">
        <ele>163</ele>
        <time>2021-03-30T11:30:05.000Z</time>
      </trkpt>
      <trkpt lat="49.86034" lon="4.78341">
        <ele>163</ele>
        <time>2021-03-30T11:30:06.000Z</time>
      </trkpt>
      <trkpt lat="49.86041" lon="4.78335">
        <ele>162</ele>
        <time>2021-03-30T11:30:07.000Z</time>
      </trkpt>
      <trkpt lat="49.86048" lon="4.78328">
        <ele>161</ele>
        <time>2021-03-30T11:30:08.000Z</time>
      </trkpt>
      <trkpt lat="49.86054" lon="4.78322">
        <ele>161</ele>
        <time>2021-03-30T11:30:09.000Z</time>
      </trkpt>
      <trkpt lat="49.8606" lon="4.78316">
        <ele>160</ele>
        <time>2021-03-30T11:30:10.000Z</time>
      </trkpt>
      <trkpt lat="49.86066" lon="4.78309">
        <ele>160</ele>
        <time>2021-03-30T11:30:11.000Z</time>
      </trkpt>
      <trkpt lat="49.86073" lon="4.78303">
        <ele>159</ele>
        <time>2021-03-30T11:30:12.000Z</time>
      </trkpt>
      <trkpt lat="49.86078" lon="4.78297">
        <ele>159</ele>
        <time>2021-03-30T11:30:13.000Z</time>
      </trkpt>
      <trkpt lat="49.86084" lon="4.7829">
        <ele>159</ele>
        <time>2021-03-30T11:30:14.000Z</time>
      </trkpt>
      <trkpt lat="49.86088" lon="4.78285">
        <ele>159</ele>
        <time>2021-03-30T11:30:15.000Z</time>
      </trkpt>
      <trkpt lat="49.86092" lon="4.78279">
        <ele>158</ele>
        <time>2021-03-30T11:30:16.000Z</time>
      </trkpt>
      <trkpt lat="49.86096" lon="4.78274">
        <ele>158</ele>
        <time>2021-03-30T11:30:17.000Z</time>
      </trkpt>
      <trkpt lat="49.861" lon="4.7827">
        <ele>158</ele>
        <time>2021-03-30T11:30:18.000Z</time>
      </trkpt>
      <trkpt lat="49.86104" lon="4.78266">
        <ele>158</ele>
        <time>2021-03-30T11:30:19.000Z</time>
      </trkpt>
      <trkpt lat="49.86108" lon="4.78263">
        <ele>158</ele>
        <time>2021-03-30T11:30:20.000Z</time>
      </trkpt>
      <trkpt lat="49.86111" lon="4.7826">
        <ele>158</ele>
        <time>2021-03-30T11:30:21.000Z</time>
      </trkpt>
      <trkpt lat="49.86115" lon="4.78258">
        <ele>158</ele>
        <time>2021-03-30T11:30:22.000Z</time>
      </trkpt>
      <trkpt lat="49.86118" lon="4.78256">
        <ele>158</ele>
        <time>2021-03-30T11:30:23.000Z</time>
      </trkpt>
      <trkpt lat="49.86121" lon="4.78254">
        <ele>158</ele>
        <time>2021-03-30T11:30:24.000Z</time>
      </trkpt>
      <trkpt lat="49.86124" lon="4.78252">
        <ele>158</ele>
        <time>2021-03-30T11:30:25.000Z</time>
      </trkpt>
      <trkpt lat="49.86126" lon="4.78249">
        <ele>158</ele>
        <time>2021-03-30T11:30:26.000Z</time>
      </trkpt>
      <trkpt lat="49.86129" lon="4.78247">
        <ele>158</ele>
        <time>2021-03-30T11:30:27.000Z</time>
      </trkpt>
      <trkpt lat="49.86132" lon="4.78246">
        <ele>158</ele>
        <time>2021-03-30T11:30:28.000Z</time>
      </trkpt>
      <trkpt lat="49.86135" lon="4.78245">
        <ele>158</ele>
        <time>2021-03-30T11:30:29.000Z</time>
      </trkpt>
      <trkpt lat="49.86138" lon="4.78243">
        <ele>158</ele>
        <time>2021-03-30T11:30:30.000Z</time>
      </trkpt>
      <trkpt lat="49.86141" lon="4.78241">
        <ele>158</ele>
        <time>2021-03-30T11:30:31.000Z</time>
      </trkpt>
      <trkpt lat="49.86144" lon="4.7824">
        <ele>158</ele>
        <time>2021-03-30T11:30:32.000Z</time>
      </trkpt>
      <trkpt lat="49.86148" lon="4.78238">
        <ele>158</ele>
        <time>2021-03-30T11:30:33.000Z</time>
      </trkpt>
      <trkpt lat="49.86152" lon="4.78236">
        <ele>157</ele>
        <time>2021-03-30T11:30:34.000Z</time>
      </trkpt>
      <trkpt lat="49.86158" lon="4.78234">
        <ele>157</ele>
        <time>2021-03-30T11:30:35.000Z</time>
      </trkpt>
      <trkpt lat="49.86164" lon="4.78233">
        <ele>157</ele>
        <time>2021-03-30T11:30:36.000Z</time>
      </trkpt>
      <trkpt lat="49.8617" lon="4.78232">
        <ele>157</ele>
        <time>2021-03-30T11:30:37.000Z</time>
      </trkpt>
      <trkpt lat="49.86177" lon="4.78231">
        <ele>157</ele>
        <time>2021-03-30T11:30:38.000Z</time>
      </trkpt>
      <trkpt lat="49.86184" lon="4.7823">
        <ele>157</ele>
        <time>2021-03-30T11:30:39.000Z</time>
      </trkpt>
      <trkpt lat="49.86191" lon="4.78229">
        <ele>157</ele>
        <time>2021-03-30T11:30:40.000Z</time>
      </trkpt>
      <trkpt lat="49.86197" lon="4.78228">
        <ele>157</ele>
        <time>2021-03-30T11:30:41.000Z</time>
      </trkpt>
      <trkpt lat="49.86203" lon="4.78228">
        <ele>157</ele>
        <time>2021-03-30T11:30:42.000Z</time>
      </trkpt>
      <trkpt lat="49.86209" lon="4.78228">
        <ele>158</ele>
        <time>2021-03-30T11:30:43.000Z</time>
      </trkpt>
      <trkpt lat="49.86215" lon="4.78227">
        <ele>158</ele>
        <time>2021-03-30T11:30:44.000Z</time>
      </trkpt>
      <trkpt lat="49.86222" lon="4.78227">
        <ele>158</ele>
        <time>2021-03-30T11:30:45.000Z</time>
      </trkpt>
      <trkpt lat="49.86229" lon="4.78227">
        <ele>158</ele>
        <time>2021-03-30T11:30:46.000Z</time>
      </trkpt>
      <trkpt lat="49.86235" lon="4.78225">
        <ele>158</ele>
        <time>2021-03-30T11:30:47.000Z</time>
      </trkpt>
      <trkpt lat="49.86241" lon="4.78222">
        <ele>159</ele>
        <time>2021-03-30T11:30:48.000Z</time>
      </trkpt>
      <trkpt lat="49.86247" lon="4.78219">
        <ele>159</ele>
        <time>2021-03-30T11:30:49.000Z</time>
      </trkpt>
      <trkpt lat="49.86252" lon="4.78217">
        <ele>159</ele>
        <time>2021-03-30T11:30:50.000Z</time>
      </trkpt>
      <trkpt lat="49.86257" lon="4.78216">
        <ele>159</ele>
        <time>2021-03-30T11:30:51.000Z</time>
      </trkpt>
      <trkpt lat="49.86262" lon="4.78213">
        <ele>159</ele>
        <time>2021-03-30T11:30:52.000Z</time>
      </trkpt>
      <trkpt lat="49.86268" lon="4.7821">
        <ele>159</ele>
        <time>2021-03-30T11:30:53.000Z</time>
      </trkpt>
      <trkpt lat="49.86273" lon="4.78207">
        <ele>160</ele>
        <time>2021-03-30T11:30:54.000Z</time>
      </trkpt>
      <trkpt lat="49.8628" lon="4.78203">
        <ele>160</ele>
        <time>2021-03-30T11:30:55.000Z</time>
      </trkpt>
      <trkpt lat="49.86285" lon="4.78201">
        <ele>160</ele>
        <time>2021-03-30T11:30:56.000Z</time>
      </trkpt>
      <trkpt lat="49.86291" lon="4.78198">
        <ele>160</ele>
        <time>2021-03-30T11:30:57.000Z</time>
      </trkpt>
      <trkpt lat="49.86296" lon="4.78195">
        <ele>160</ele>
        <time>2021-03-30T11:30:58.000Z</time>
      </trkpt>
      <trkpt lat="49.86301" lon="4.78193">
        <ele>160</ele>
        <time>2021-03-30T11:30:59.000Z</time>
      </trkpt>
      <trkpt lat="49.86305" lon="4.78192">
        <ele>160</ele>
        <time>2021-03-30T11:31:00.000Z</time>
      </trkpt>
      <trkpt lat="49.8631" lon="4.78189">
        <ele>160</ele>
        <time>2021-03-30T11:31:01.000Z</time>
      </trkpt>
      <trkpt lat="49.86316" lon="4.78186">
        <ele>160</ele>
        <time>2021-03-30T11:31:02.000Z</time>
      </trkpt>
      <trkpt lat="49.86321" lon="4.78183">
        <ele>160</ele>
        <time>2021-03-30T11:31:03.000Z</time>
      </trkpt>
      <trkpt lat="49.86328" lon="4.78181">
        <ele>160</ele>
        <time>2021-03-30T11:31:04.000Z</time>
      </trkpt>
      <trkpt lat="49.86334" lon="4.78178">
        <ele>160</ele>
        <time>2021-03-30T11:31:05.000Z</time>
      </trkpt>
      <trkpt lat="49.86339" lon="4.78176">
        <ele>159</ele>
        <time>2021-03-30T11:31:06.000Z</time>
      </trkpt>
      <trkpt lat="49.86345" lon="4.78174">
        <ele>159</ele>
        <time>2021-03-30T11:31:07.000Z</time>
      </trkpt>
      <trkpt lat="49.86349" lon="4.78173">
        <ele>159</ele>
        <time>2021-03-30T11:31:08.000Z</time>
      </trkpt>
      <trkpt lat="49.86355" lon="4.78171">
        <ele>159</ele>
        <time>2021-03-30T11:31:09.000Z</time>
      </trkpt>
      <trkpt lat="49.8636" lon="4.78168">
        <ele>159</ele>
        <time>2021-03-30T11:31:10.000Z</time>
      </trkpt>
      <trkpt lat="49.86365" lon="4.78165">
        <ele>159</ele>
        <time>2021-03-30T11:31:11.000Z</time>
      </trkpt>
      <trkpt lat="49.8637" lon="4.78163">
        <ele>159</ele>
        <time>2021-03-30T11:31:12.000Z</time>
      </trkpt>
      <trkpt lat="49.86374" lon="4.78161">
        <ele>159</ele>
        <time>2021-03-30T11:31:13.000Z</time>
      </trkpt>
      <trkpt lat="49.86379" lon="4.78159">
        <ele>159</ele>
        <time>2021-03-30T11:31:14.000Z</time>
      </trkpt>
      <trkpt lat="49.86384" lon="4.78156">
        <ele>159</ele>
        <time>2021-03-30T11:31:15.000Z</time>
      </trkpt>
      <trkpt lat="49.86389" lon="4.78154">
        <ele>158</ele>
        <time>2021-03-30T11:31:16.000Z</time>
      </trkpt>
      <trkpt lat="49.86395" lon="4.78152">
        <ele>158</ele>
        <time>2021-03-30T11:31:17.000Z</time>
      </trkpt>
      <trkpt lat="49.864" lon="4.78149">
        <ele>158</ele>
        <time>2021-03-30T11:31:18.000Z</time>
      </trkpt>
      <trkpt lat="49.86405" lon="4.78146">
        <ele>158</ele>
        <time>2021-03-30T11:31:19.000Z</time>
      </trkpt>
      <trkpt lat="49.86411" lon="4.78144">
        <ele>158</ele>
        <time>2021-03-30T11:31:20.000Z</time>
      </trkpt>
      <trkpt lat="49.86417" lon="4.78143">
        <ele>158</ele>
        <time>2021-03-30T11:31:21.000Z</time>
      </trkpt>
      <trkpt lat="49.86423" lon="4.7814">
        <ele>158</ele>
        <time>2021-03-30T11:31:22.000Z</time>
      </trkpt>
      <trkpt lat="49.86428" lon="4.78138">
        <ele>158</ele>
        <time>2021-03-30T11:31:23.000Z</time>
      </trkpt>
      <trkpt lat="49.86434" lon="4.78136">
        <ele>158</ele>
        <time>2021-03-30T11:31:24.000Z</time>
      </trkpt>
      <trkpt lat="49.8644" lon="4.78133">
        <ele>157</ele>
        <time>2021-03-30T11:31:25.000Z</time>
      </trkpt>
      <trkpt lat="49.86444" lon="4.78131">
        <ele>157</ele>
        <time>2021-03-30T11:31:26.000Z</time>
      </trkpt>
      <trkpt lat="49.8645" lon="4.78129">
        <ele>157</ele>
        <time>2021-03-30T11:31:27.000Z</time>
      </trkpt>
      <trkpt lat="49.86455" lon="4.78127">
        <ele>157</ele>
        <time>2021-03-30T11:31:28.000Z</time>
      </trkpt>
      <trkpt lat="49.86459" lon="4.78126">
        <ele>157</ele>
        <time>2021-03-30T11:31:29.000Z</time>
      </trkpt>
      <trkpt lat="49.86464" lon="4.78124">
        <ele>157</ele>
        <time>2021-03-30T11:31:30.000Z</time>
      </trkpt>
      <trkpt lat="49.86469" lon="4.78123">
        <ele>157</ele>
        <time>2021-03-30T11:31:31.000Z</time>
      </trkpt>
      <trkpt lat="49.86474" lon="4.78121">
        <ele>157</ele>
        <time>2021-03-30T11:31:32.000Z</time>
      </trkpt>
      <trkpt lat="49.8648" lon="4.78118">
        <ele>157</ele>
        <time>2021-03-30T11:31:33.000Z</time>
      </trkpt>
      <trkpt lat="49.86486" lon="4.78116">
        <ele>157</ele>
        <time>2021-03-30T11:31:34.000Z</time>
      </trkpt>
      <trkpt lat="49.86492" lon="4.78114">
        <ele>156</ele>
        <time>2021-03-30T11:31:35.000Z</time>
      </trkpt>
      <trkpt lat="49.86498" lon="4.78112">
        <ele>156</ele>
        <time>2021-03-30T11:31:36.000Z</time>
      </trkpt>
      <trkpt lat="49.86503" lon="4.7811">
        <ele>156</ele>
        <time>2021-03-30T11:31:37.000Z</time>
      </trkpt>
      <trkpt lat="49.86508" lon="4.78109">
        <ele>156</ele>
        <time>2021-03-30T11:31:38.000Z</time>
      </trkpt>
      <trkpt lat="49.86513" lon="4.78108">
        <ele>156</ele>
        <time>2021-03-30T11:31:39.000Z</time>
      </trkpt>
      <trkpt lat="49.86517" lon="4.78106">
        <ele>156</ele>
        <time>2021-03-30T11:31:40.000Z</time>
      </trkpt>
      <trkpt lat="49.86521" lon="4.78104">
        <ele>156</ele>
        <time>2021-03-30T11:31:41.000Z</time>
      </trkpt>
      <trkpt lat="49.86527" lon="4.78103">
        <ele>156</ele>
        <time>2021-03-30T11:31:42.000Z</time>
      </trkpt>
      <trkpt lat="49.86532" lon="4.78102">
        <ele>156</ele>
        <time>2021-03-30T11:31:43.000Z</time>
      </trkpt>
      <trkpt lat="49.86538" lon="4.78101">
        <ele>156</ele>
        <time>2021-03-30T11:31:44.000Z</time>
      </trkpt>
      <trkpt lat="49.86544" lon="4.78099">
        <ele>156</ele>
        <time>2021-03-30T11:31:45.000Z</time>
      </trkpt>
      <trkpt lat="49.86549" lon="4.78098">
        <ele>156</ele>
        <time>2021-03-30T11:31:46.000Z</time>
      </trkpt>
      <trkpt lat="49.86554" lon="4.78097">
        <ele>155</ele>
        <time>2021-03-30T11:31:47.000Z</time>
      </trkpt>
      <trkpt lat="49.8656" lon="4.78095">
        <ele>155</ele>
        <time>2021-03-30T11:31:48.000Z</time>
      </trkpt>
      <trkpt lat="49.86565" lon="4.78095">
        <ele>155</ele>
        <time>2021-03-30T11:31:49.000Z</time>
      </trkpt>
      <trkpt lat="49.86569" lon="4.78094">
        <ele>155</ele>
        <time>2021-03-30T11:31:50.000Z</time>
      </trkpt>
      <trkpt lat="49.86573" lon="4.78093">
        <ele>155</ele>
        <time>2021-03-30T11:31:51.000Z</time>
      </trkpt>
      <trkpt lat="49.86577" lon="4.78092">
        <ele>154</ele>
        <time>2021-03-30T11:31:52.000Z</time>
      </trkpt>
      <trkpt lat="49.86581" lon="4.78091">
        <ele>154</ele>
        <time>2021-03-30T11:31:53.000Z</time>
      </trkpt>
      <trkpt lat="49.86586" lon="4.7809">
        <ele>154</ele>
        <time>2021-03-30T11:31:54.000Z</time>
      </trkpt>
      <trkpt lat="49.86591" lon="4.78089">
        <ele>154</ele>
        <time>2021-03-30T11:31:55.000Z</time>
      </trkpt>
      <trkpt lat="49.86596" lon="4.78089">
        <ele>154</ele>
        <time>2021-03-30T11:31:56.000Z</time>
      </trkpt>
      <trkpt lat="49.866" lon="4.78089">
        <ele>154</ele>
        <time>2021-03-30T11:31:57.000Z</time>
      </trkpt>
      <trkpt lat="49.86604" lon="4.78089">
        <ele>153</ele>
        <time>2021-03-30T11:31:58.000Z</time>
      </trkpt>
      <trkpt lat="49.86609" lon="4.7809">
        <ele>153</ele>
        <time>2021-03-30T11:31:59.000Z</time>
      </trkpt>
      <trkpt lat="49.86614" lon="4.78091">
        <ele>153</ele>
        <time>2021-03-30T11:32:00.000Z</time>
      </trkpt>
      <trkpt lat="49.86618" lon="4.78092">
        <ele>154</ele>
        <time>2021-03-30T11:32:01.000Z</time>
      </trkpt>
      <trkpt lat="49.86622" lon="4.78093">
        <ele>154</ele>
        <time>2021-03-30T11:32:02.000Z</time>
      </trkpt>
      <trkpt lat="49.86627" lon="4.78094">
        <ele>154</ele>
        <time>2021-03-30T11:32:03.000Z</time>
      </trkpt>
      <trkpt lat="49.86632" lon="4.78095">
        <ele>154</ele>
        <time>2021-03-30T11:32:04.000Z</time>
      </trkpt>
      <trkpt lat="49.86637" lon="4.78097">
        <ele>153</ele>
        <time>2021-03-30T11:32:05.000Z</time>
      </trkpt>
      <trkpt lat="49.86642" lon="4.78099">
        <ele>153</ele>
        <time>2021-03-30T11:32:06.000Z</time>
      </trkpt>
      <trkpt lat="49.86647" lon="4.78101">
        <ele>153</ele>
        <time>2021-03-30T11:32:07.000Z</time>
      </trkpt>
      <trkpt lat="49.86652" lon="4.78102">
        <ele>153</ele>
        <time>2021-03-30T11:32:08.000Z</time>
      </trkpt>
      <trkpt lat="49.86657" lon="4.78102">
        <ele>153</ele>
        <time>2021-03-30T11:32:09.000Z</time>
      </trkpt>
      <trkpt lat="49.86662" lon="4.78103">
        <ele>153</ele>
        <time>2021-03-30T11:32:10.000Z</time>
      </trkpt>
      <trkpt lat="49.86668" lon="4.78104">
        <ele>153</ele>
        <time>2021-03-30T11:32:11.000Z</time>
      </trkpt>
      <trkpt lat="49.86673" lon="4.78104">
        <ele>153</ele>
        <time>2021-03-30T11:32:12.000Z</time>
      </trkpt>
      <trkpt lat="49.86679" lon="4.78105">
        <ele>153</ele>
        <time>2021-03-30T11:32:13.000Z</time>
      </trkpt>
      <trkpt lat="49.86684" lon="4.78105">
        <ele>153</ele>
        <time>2021-03-30T11:32:14.000Z</time>
      </trkpt>
      <trkpt lat="49.86688" lon="4.78106">
        <ele>153</ele>
        <time>2021-03-30T11:32:15.000Z</time>
      </trkpt>
      <trkpt lat="49.86693" lon="4.78106">
        <ele>153</ele>
        <time>2021-03-30T11:32:16.000Z</time>
      </trkpt>
      <trkpt lat="49.86697" lon="4.78106">
        <ele>153</ele>
        <time>2021-03-30T11:32:17.000Z</time>
      </trkpt>
      <trkpt lat="49.86701" lon="4.78106">
        <ele>153</ele>
        <time>2021-03-30T11:32:18.000Z</time>
      </trkpt>
      <trkpt lat="49.86706" lon="4.78107">
        <ele>153</ele>
        <time>2021-03-30T11:32:19.000Z</time>
      </trkpt>
      <trkpt lat="49.86711" lon="4.78108">
        <ele>152</ele>
        <time>2021-03-30T11:32:20.000Z</time>
      </trkpt>
      <trkpt lat="49.86717" lon="4.7811">
        <ele>152</ele>
        <time>2021-03-30T11:32:21.000Z</time>
      </trkpt>
      <trkpt lat="49.86723" lon="4.78111">
        <ele>152</ele>
        <time>2021-03-30T11:32:22.000Z</time>
      </trkpt>
      <trkpt lat="49.86728" lon="4.78111">
        <ele>152</ele>
        <time>2021-03-30T11:32:23.000Z</time>
      </trkpt>
      <trkpt lat="49.86734" lon="4.78111">
        <ele>152</ele>
        <time>2021-03-30T11:32:24.000Z</time>
      </trkpt>
      <trkpt lat="49.86739" lon="4.78111">
        <ele>152</ele>
        <time>2021-03-30T11:32:25.000Z</time>
      </trkpt>
      <trkpt lat="49.86744" lon="4.7811">
        <ele>152</ele>
        <time>2021-03-30T11:32:26.000Z</time>
      </trkpt>
      <trkpt lat="49.86749" lon="4.78108">
        <ele>152</ele>
        <time>2021-03-30T11:32:27.000Z</time>
      </trkpt>
      <trkpt lat="49.86752" lon="4.78107">
        <ele>152</ele>
        <time>2021-03-30T11:32:28.000Z</time>
      </trkpt>
      <trkpt lat="49.86755" lon="4.78106">
        <ele>152</ele>
        <time>2021-03-30T11:32:29.000Z</time>
      </trkpt>
      <trkpt lat="49.86758" lon="4.78105">
        <ele>152</ele>
        <time>2021-03-30T11:32:30.000Z</time>
      </trkpt>
      <trkpt lat="49.86761" lon="4.78104">
        <ele>152</ele>
        <time>2021-03-30T11:32:31.000Z</time>
      </trkpt>
      <trkpt lat="49.86764" lon="4.78104">
        <ele>151</ele>
        <time>2021-03-30T11:32:32.000Z</time>
      </trkpt>
      <trkpt lat="49.86766" lon="4.78104">
        <ele>151</ele>
        <time>2021-03-30T11:32:33.000Z</time>
      </trkpt>
      <trkpt lat="49.86769" lon="4.78103">
        <ele>151</ele>
        <time>2021-03-30T11:32:34.000Z</time>
      </trkpt>
      <trkpt lat="49.86772" lon="4.78103">
        <ele>151</ele>
        <time>2021-03-30T11:32:35.000Z</time>
      </trkpt>
      <trkpt lat="49.86774" lon="4.78102">
        <ele>151</ele>
        <time>2021-03-30T11:32:36.000Z</time>
      </trkpt>
      <trkpt lat="49.86776" lon="4.78102">
        <ele>151</ele>
        <time>2021-03-30T11:32:37.000Z</time>
      </trkpt>
      <trkpt lat="49.86778" lon="4.78101">
        <ele>152</ele>
        <time>2021-03-30T11:32:38.000Z</time>
      </trkpt>
      <trkpt lat="49.8678" lon="4.78101">
        <ele>152</ele>
        <time>2021-03-30T11:32:39.000Z</time>
      </trkpt>
      <trkpt lat="49.86783" lon="4.781">
        <ele>152</ele>
        <time>2021-03-30T11:32:40.000Z</time>
      </trkpt>
      <trkpt lat="49.86786" lon="4.78099">
        <ele>152</ele>
        <time>2021-03-30T11:32:41.000Z</time>
      </trkpt>
      <trkpt lat="49.86788" lon="4.78098">
        <ele>152</ele>
        <time>2021-03-30T11:32:42.000Z</time>
      </trkpt>
      <trkpt lat="49.8679" lon="4.78098">
        <ele>152</ele>
        <time>2021-03-30T11:32:43.000Z</time>
      </trkpt>
      <trkpt lat="49.86793" lon="4.78097">
        <ele>152</ele>
        <time>2021-03-30T11:32:44.000Z</time>
      </trkpt>
      <trkpt lat="49.86796" lon="4.78097">
        <ele>153</ele>
        <time>2021-03-30T11:32:45.000Z</time>
      </trkpt>
      <trkpt lat="49.86798" lon="4.78096">
        <ele>153</ele>
        <time>2021-03-30T11:32:46.000Z</time>
      </trkpt>
      <trkpt lat="49.868" lon="4.78096">
        <ele>153</ele>
        <time>2021-03-30T11:32:47.000Z</time>
      </trkpt>
      <trkpt lat="49.86801" lon="4.78096">
        <ele>154</ele>
        <time>2021-03-30T11:32:48.000Z</time>
      </trkpt>
      <trkpt lat="49.86803" lon="4.78096">
        <ele>154</ele>
        <time>2021-03-30T11:32:49.000Z</time>
      </trkpt>
      <trkpt lat="49.86805" lon="4.78096">
        <ele>155</ele>
        <time>2021-03-30T11:32:50.000Z</time>
      </trkpt>
      <trkpt lat="49.86807" lon="4.78096">
        <ele>155</ele>
        <time>2021-03-30T11:32:51.000Z</time>
      </trkpt>
      <trkpt lat="49.86808" lon="4.78096">
        <ele>155</ele>
        <time>2021-03-30T11:32:52.000Z</time>
      </trkpt>
      <trkpt lat="49.86811" lon="4.78096">
        <ele>156</ele>
        <time>2021-03-30T11:32:53.000Z</time>
      </trkpt>
      <trkpt lat="49.86813" lon="4.78095">
        <ele>156</ele>
        <time>2021-03-30T11:32:54.000Z</time>
      </trkpt>
      <trkpt lat="49.86815" lon="4.78095">
        <ele>156</ele>
        <time>2021-03-30T11:32:55.000Z</time>
      </trkpt>
      <trkpt lat="49.86818" lon="4.78094">
        <ele>156</ele>
        <time>2021-03-30T11:32:56.000Z</time>
      </trkpt>
      <trkpt lat="49.86821" lon="4.78094">
        <ele>156</ele>
        <time>2021-03-30T11:32:57.000Z</time>
      </trkpt>
      <trkpt lat="49.86823" lon="4.78094">
        <ele>157</ele>
        <time>2021-03-30T11:32:58.000Z</time>
      </trkpt>
      <trkpt lat="49.86825" lon="4.78094">
        <ele>157</ele>
        <time>2021-03-30T11:32:59.000Z</time>
      </trkpt>
      <trkpt lat="49.86828" lon="4.78093">
        <ele>157</ele>
        <time>2021-03-30T11:33:00.000Z</time>
      </trkpt>
      <trkpt lat="49.8683" lon="4.78093">
        <ele>158</ele>
        <time>2021-03-30T11:33:01.000Z</time>
      </trkpt>
      <trkpt lat="49.86832" lon="4.78092">
        <ele>158</ele>
        <time>2021-03-30T11:33:02.000Z</time>
      </trkpt>
      <trkpt lat="49.86835" lon="4.78092">
        <ele>158</ele>
        <time>2021-03-30T11:33:03.000Z</time>
      </trkpt>
      <trkpt lat="49.86837" lon="4.78091">
        <ele>159</ele>
        <time>2021-03-30T11:33:04.000Z</time>
      </trkpt>
      <trkpt lat="49.86839" lon="4.78091">
        <ele>159</ele>
        <time>2021-03-30T11:33:05.000Z</time>
      </trkpt>
      <trkpt lat="49.86841" lon="4.7809">
        <ele>159</ele>
        <time>2021-03-30T11:33:06.000Z</time>
      </trkpt>
      <trkpt lat="49.86843" lon="4.7809">
        <ele>159</ele>
        <time>2021-03-30T11:33:07.000Z</time>
      </trkpt>
      <trkpt lat="49.86845" lon="4.7809">
        <ele>159</ele>
        <time>2021-03-30T11:33:08.000Z</time>
      </trkpt>
      <trkpt lat="49.86848" lon="4.7809">
        <ele>159</ele>
        <time>2021-03-30T11:33:09.000Z</time>
      </trkpt>
      <trkpt lat="49.86851" lon="4.78089">
        <ele>159</ele>
        <time>2021-03-30T11:33:10.000Z</time>
      </trkpt>
      <trkpt lat="49.86853" lon="4.78089">
        <ele>160</ele>
        <time>2021-03-30T11:33:11.000Z</time>
      </trkpt>
      <trkpt lat="49.86855" lon="4.78089">
        <ele>160</ele>
        <time>2021-03-30T11:33:12.000Z</time>
      </trkpt>
      <trkpt lat="49.86858" lon="4.78089">
        <ele>160</ele>
        <time>2021-03-30T11:33:13.000Z</time>
      </trkpt>
      <trkpt lat="49.86862" lon="4.78089">
        <ele>160</ele>
        <time>2021-03-30T11:33:14.000Z</time>
      </trkpt>
      <trkpt lat="49.86865" lon="4.78089">
        <ele>160</ele>
        <time>2021-03-30T11:33:15.000Z</time>
      </trkpt>
      <trkpt lat="49.86868" lon="4.78088">
        <ele>160</ele>
        <time>2021-03-30T11:33:16.000Z</time>
      </trkpt>
      <trkpt lat="49.86872" lon="4.78087">
        <ele>160</ele>
        <time>2021-03-30T11:33:17.000Z</time>
      </trkpt>
      <trkpt lat="49.86876" lon="4.78086">
        <ele>160</ele>
        <time>2021-03-30T11:33:18.000Z</time>
      </trkpt>
      <trkpt lat="49.86878" lon="4.78085">
        <ele>160</ele>
        <time>2021-03-30T11:33:19.000Z</time>
      </trkpt>
      <trkpt lat="49.86881" lon="4.78084">
        <ele>160</ele>
        <time>2021-03-30T11:33:20.000Z</time>
      </trkpt>
      <trkpt lat="49.86883" lon="4.78083">
        <ele>160</ele>
        <time>2021-03-30T11:33:21.000Z</time>
      </trkpt>
      <trkpt lat="49.86886" lon="4.78082">
        <ele>160</ele>
        <time>2021-03-30T11:33:22.000Z</time>
      </trkpt>
      <trkpt lat="49.8689" lon="4.78082">
        <ele>160</ele>
        <time>2021-03-30T11:33:23.000Z</time>
      </trkpt>
      <trkpt lat="49.86894" lon="4.78081">
        <ele>160</ele>
        <time>2021-03-30T11:33:24.000Z</time>
      </trkpt>
      <trkpt lat="49.86897" lon="4.78081">
        <ele>161</ele>
        <time>2021-03-30T11:33:25.000Z</time>
      </trkpt>
      <trkpt lat="49.86902" lon="4.7808">
        <ele>161</ele>
        <time>2021-03-30T11:33:26.000Z</time>
      </trkpt>
      <trkpt lat="49.86906" lon="4.78079">
        <ele>161</ele>
        <time>2021-03-30T11:33:27.000Z</time>
      </trkpt>
      <trkpt lat="49.8691" lon="4.78078">
        <ele>161</ele>
        <time>2021-03-30T11:33:28.000Z</time>
      </trkpt>
      <trkpt lat="49.86914" lon="4.78078">
        <ele>161</ele>
        <time>2021-03-30T11:33:29.000Z</time>
      </trkpt>
      <trkpt lat="49.86918" lon="4.78077">
        <ele>161</ele>
        <time>2021-03-30T11:33:30.000Z</time>
      </trkpt>
      <trkpt lat="49.86922" lon="4.78075">
        <ele>161</ele>
        <time>2021-03-30T11:33:31.000Z</time>
      </trkpt>
      <trkpt lat="49.86926" lon="4.78075">
        <ele>161</ele>
        <time>2021-03-30T11:33:32.000Z</time>
      </trkpt>
      <trkpt lat="49.86929" lon="4.78074">
        <ele>161</ele>
        <time>2021-03-30T11:33:33.000Z</time>
      </trkpt>
      <trkpt lat="49.86932" lon="4.78073">
        <ele>161</ele>
        <time>2021-03-30T11:33:34.000Z</time>
      </trkpt>
      <trkpt lat="49.86934" lon="4.78073">
        <ele>161</ele>
        <time>2021-03-30T11:33:35.000Z</time>
      </trkpt>
      <trkpt lat="49.86937" lon="4.78073">
        <ele>161</ele>
        <time>2021-03-30T11:33:36.000Z</time>
      </trkpt>
      <trkpt lat="49.86939" lon="4.78072">
        <ele>161</ele>
        <time>2021-03-30T11:33:37.000Z</time>
      </trkpt>
      <trkpt lat="49.86942" lon="4.78072">
        <ele>161</ele>
        <time>2021-03-30T11:33:38.000Z</time>
      </trkpt>
      <trkpt lat="49.86945" lon="4.78071">
        <ele>160</ele>
        <time>2021-03-30T11:33:39.000Z</time>
      </trkpt>
      <trkpt lat="49.86949" lon="4.7807">
        <ele>160</ele>
        <time>2021-03-30T11:33:40.000Z</time>
      </trkpt>
      <trkpt lat="49.86952" lon="4.78069">
        <ele>160</ele>
        <time>2021-03-30T11:33:41.000Z</time>
      </trkpt>
      <trkpt lat="49.86955" lon="4.78069">
        <ele>160</ele>
        <time>2021-03-30T11:33:42.000Z</time>
      </trkpt>
      <trkpt lat="49.86958" lon="4.78069">
        <ele>160</ele>
        <time>2021-03-30T11:33:43.000Z</time>
      </trkpt>
      <trkpt lat="49.86961" lon="4.78068">
        <ele>160</ele>
        <time>2021-03-30T11:33:44.000Z</time>
      </trkpt>
      <trkpt lat="49.86963" lon="4.78068">
        <ele>160</ele>
        <time>2021-03-30T11:33:45.000Z</time>
      </trkpt>
      <trkpt lat="49.86966" lon="4.78067">
        <ele>160</ele>
        <time>2021-03-30T11:33:46.000Z</time>
      </trkpt>
      <trkpt lat="49.86968" lon="4.78067">
        <ele>160</ele>
        <time>2021-03-30T11:33:47.000Z</time>
      </trkpt>
      <trkpt lat="49.8697" lon="4.78067">
        <ele>160</ele>
        <time>2021-03-30T11:33:48.000Z</time>
      </trkpt>
      <trkpt lat="49.86972" lon="4.78068">
        <ele>160</ele>
        <time>2021-03-30T11:33:49.000Z</time>
      </trkpt>
      <trkpt lat="49.86974" lon="4.78068">
        <ele>160</ele>
        <time>2021-03-30T11:33:50.000Z</time>
      </trkpt>
      <trkpt lat="49.86976" lon="4.78068">
        <ele>160</ele>
        <time>2021-03-30T11:33:51.000Z</time>
      </trkpt>
      <trkpt lat="49.86979" lon="4.78068">
        <ele>160</ele>
        <time>2021-03-30T11:33:52.000Z</time>
      </trkpt>
      <trkpt lat="49.86982" lon="4.78068">
        <ele>160</ele>
        <time>2021-03-30T11:33:53.000Z</time>
      </trkpt>
      <trkpt lat="49.86984" lon="4.78068">
        <ele>161</ele>
        <time>2021-03-30T11:33:54.000Z</time>
      </trkpt>
      <trkpt lat="49.86987" lon="4.78068">
        <ele>161</ele>
        <time>2021-03-30T11:33:55.000Z</time>
      </trkpt>
      <trkpt lat="49.8699" lon="4.78069">
        <ele>161</ele>
        <time>2021-03-30T11:33:56.000Z</time>
      </trkpt>
      <trkpt lat="49.86994" lon="4.78069">
        <ele>161</ele>
        <time>2021-03-30T11:33:57.000Z</time>
      </trkpt>
      <trkpt lat="49.86997" lon="4.78069">
        <ele>161</ele>
        <time>2021-03-30T11:33:58.000Z</time>
      </trkpt>
      <trkpt lat="49.87" lon="4.78069">
        <ele>161</ele>
        <time>2021-03-30T11:33:59.000Z</time>
      </trkpt>
      <trkpt lat="49.87003" lon="4.7807">
        <ele>162</ele>
        <time>2021-03-30T11:34:00.000Z</time>
      </trkpt>
      <trkpt lat="49.87006" lon="4.78071">
        <ele>162</ele>
        <time>2021-03-30T11:34:01.000Z</time>
      </trkpt>
      <trkpt lat="49.87011" lon="4.78072">
        <ele>162</ele>
        <time>2021-03-30T11:34:02.000Z</time>
      </trkpt>
      <trkpt lat="49.87015" lon="4.78073">
        <ele>162</ele>
        <time>2021-03-30T11:34:03.000Z</time>
      </trkpt>
      <trkpt lat="49.8702" lon="4.78074">
        <ele>162</ele>
        <time>2021-03-30T11:34:04.000Z</time>
      </trkpt>
      <trkpt lat="49.87025" lon="4.78075">
        <ele>163</ele>
        <time>2021-03-30T11:34:05.000Z</time>
      </trkpt>
      <trkpt lat="49.8703" lon="4.78076">
        <ele>163</ele>
        <time>2021-03-30T11:34:06.000Z</time>
      </trkpt>
      <trkpt lat="49.87035" lon="4.78076">
        <ele>163</ele>
        <time>2021-03-30T11:34:07.000Z</time>
      </trkpt>
      <trkpt lat="49.8704" lon="4.78077">
        <ele>163</ele>
        <time>2021-03-30T11:34:08.000Z</time>
      </trkpt>
      <trkpt lat="49.87044" lon="4.78077">
        <ele>163</ele>
        <time>2021-03-30T11:34:09.000Z</time>
      </trkpt>
      <trkpt lat="49.87049" lon="4.78079">
        <ele>163</ele>
        <time>2021-03-30T11:34:10.000Z</time>
      </trkpt>
      <trkpt lat="49.87053" lon="4.78081">
        <ele>163</ele>
        <time>2021-03-30T11:34:11.000Z</time>
      </trkpt>
      <trkpt lat="49.87057" lon="4.78083">
        <ele>163</ele>
        <time>2021-03-30T11:34:12.000Z</time>
      </trkpt>
      <trkpt lat="49.87061" lon="4.78085">
        <ele>163</ele>
        <time>2021-03-30T11:34:13.000Z</time>
      </trkpt>
      <trkpt lat="49.87066" lon="4.78086">
        <ele>163</ele>
        <time>2021-03-30T11:34:14.000Z</time>
      </trkpt>
      <trkpt lat="49.87071" lon="4.78088">
        <ele>163</ele>
        <time>2021-03-30T11:34:15.000Z</time>
      </trkpt>
      <trkpt lat="49.87075" lon="4.78089">
        <ele>163</ele>
        <time>2021-03-30T11:34:16.000Z</time>
      </trkpt>
      <trkpt lat="49.8708" lon="4.7809">
        <ele>163</ele>
        <time>2021-03-30T11:34:17.000Z</time>
      </trkpt>
      <trkpt lat="49.87085" lon="4.7809">
        <ele>163</ele>
        <time>2021-03-30T11:34:18.000Z</time>
      </trkpt>
      <trkpt lat="49.8709" lon="4.7809">
        <ele>163</ele>
        <time>2021-03-30T11:34:19.000Z</time>
      </trkpt>
      <trkpt lat="49.87095" lon="4.78091">
        <ele>163</ele>
        <time>2021-03-30T11:34:20.000Z</time>
      </trkpt>
      <trkpt lat="49.871" lon="4.78092">
        <ele>163</ele>
        <time>2021-03-30T11:34:21.000Z</time>
      </trkpt>
      <trkpt lat="49.87106" lon="4.78093">
        <ele>162</ele>
        <time>2021-03-30T11:34:22.000Z</time>
      </trkpt>
      <trkpt lat="49.87111" lon="4.78096">
        <ele>162</ele>
        <time>2021-03-30T11:34:23.000Z</time>
      </trkpt>
      <trkpt lat="49.87116" lon="4.78099">
        <ele>162</ele>
        <time>2021-03-30T11:34:24.000Z</time>
      </trkpt>
      <trkpt lat="49.87121" lon="4.78103">
        <ele>162</ele>
        <time>2021-03-30T11:34:25.000Z</time>
      </trkpt>
      <trkpt lat="49.87127" lon="4.78107">
        <ele>162</ele>
        <time>2021-03-30T11:34:26.000Z</time>
      </trkpt>
      <trkpt lat="49.87134" lon="4.78112">
        <ele>162</ele>
        <time>2021-03-30T11:34:27.000Z</time>
      </trkpt>
      <trkpt lat="49.8714" lon="4.78115">
        <ele>162</ele>
        <time>2021-03-30T11:34:28.000Z</time>
      </trkpt>
      <trkpt lat="49.87146" lon="4.78118">
        <ele>162</ele>
        <time>2021-03-30T11:34:29.000Z</time>
      </trkpt>
      <trkpt lat="49.87153" lon="4.7812">
        <ele>161</ele>
        <time>2021-03-30T11:34:30.000Z</time>
      </trkpt>
      <trkpt lat="49.87159" lon="4.7812">
        <ele>161</ele>
        <time>2021-03-30T11:34:31.000Z</time>
      </trkpt>
      <trkpt lat="49.87165" lon="4.78119">
        <ele>160</ele>
        <time>2021-03-30T11:34:32.000Z</time>
      </trkpt>
      <trkpt lat="49.87171" lon="4.78121">
        <ele>160</ele>
        <time>2021-03-30T11:34:33.000Z</time>
      </trkpt>
      <trkpt lat="49.87176" lon="4.78125">
        <ele>160</ele>
        <time>2021-03-30T11:34:34.000Z</time>
      </trkpt>
      <trkpt lat="49.87181" lon="4.7813">
        <ele>159</ele>
        <time>2021-03-30T11:34:35.000Z</time>
      </trkpt>
      <trkpt lat="49.87184" lon="4.78135">
        <ele>159</ele>
        <time>2021-03-30T11:34:36.000Z</time>
      </trkpt>
      <trkpt lat="49.87187" lon="4.7814">
        <ele>159</ele>
        <time>2021-03-30T11:34:37.000Z</time>
      </trkpt>
      <trkpt lat="49.87189" lon="4.78143">
        <ele>159</ele>
        <time>2021-03-30T11:34:38.000Z</time>
      </trkpt>
      <trkpt lat="49.87191" lon="4.78147">
        <ele>158</ele>
        <time>2021-03-30T11:34:39.000Z</time>
      </trkpt>
      <trkpt lat="49.87193" lon="4.7815">
        <ele>158</ele>
        <time>2021-03-30T11:34:40.000Z</time>
      </trkpt>
      <trkpt lat="49.87195" lon="4.78153">
        <ele>158</ele>
        <time>2021-03-30T11:34:41.000Z</time>
      </trkpt>
      <trkpt lat="49.87196" lon="4.78155">
        <ele>158</ele>
        <time>2021-03-30T11:34:42.000Z</time>
      </trkpt>
      <trkpt lat="49.87198" lon="4.78158">
        <ele>158</ele>
        <time>2021-03-30T11:34:43.000Z</time>
      </trkpt>
      <trkpt lat="49.87199" lon="4.7816">
        <ele>157</ele>
        <time>2021-03-30T11:34:44.000Z</time>
      </trkpt>
      <trkpt lat="49.87201" lon="4.78163">
        <ele>157</ele>
        <time>2021-03-30T11:34:45.000Z</time>
      </trkpt>
      <trkpt lat="49.87203" lon="4.78165">
        <ele>157</ele>
        <time>2021-03-30T11:34:46.000Z</time>
      </trkpt>
      <trkpt lat="49.87206" lon="4.78168">
        <ele>157</ele>
        <time>2021-03-30T11:34:47.000Z</time>
      </trkpt>
      <trkpt lat="49.87208" lon="4.78171">
        <ele>157</ele>
        <time>2021-03-30T11:34:48.000Z</time>
      </trkpt>
      <trkpt lat="49.8721" lon="4.78174">
        <ele>157</ele>
        <time>2021-03-30T11:34:49.000Z</time>
      </trkpt>
      <trkpt lat="49.87212" lon="4.78177">
        <ele>157</ele>
        <time>2021-03-30T11:34:50.000Z</time>
      </trkpt>
      <trkpt lat="49.87215" lon="4.78178">
        <ele>157</ele>
        <time>2021-03-30T11:34:51.000Z</time>
      </trkpt>
      <trkpt lat="49.87217" lon="4.78178">
        <ele>157</ele>
        <time>2021-03-30T11:34:52.000Z</time>
      </trkpt>
      <trkpt lat="49.8722" lon="4.78176">
        <ele>157</ele>
        <time>2021-03-30T11:34:53.000Z</time>
      </trkpt>
      <trkpt lat="49.87222" lon="4.78173">
        <ele>157</ele>
        <time>2021-03-30T11:34:54.000Z</time>
      </trkpt>
      <trkpt lat="49.87223" lon="4.7817">
        <ele>157</ele>
        <time>2021-03-30T11:34:55.000Z</time>
      </trkpt>
      <trkpt lat="49.87225" lon="4.78168">
        <ele>157</ele>
        <time>2021-03-30T11:34:56.000Z</time>
      </trkpt>
      <trkpt lat="49.87227" lon="4.78165">
        <ele>157</ele>
        <time>2021-03-30T11:34:57.000Z</time>
      </trkpt>
      <trkpt lat="49.87229" lon="4.78162">
        <ele>157</ele>
        <time>2021-03-30T11:34:58.000Z</time>
      </trkpt>
      <trkpt lat="49.87231" lon="4.7816">
        <ele>157</ele>
        <time>2021-03-30T11:34:59.000Z</time>
      </trkpt>
      <trkpt lat="49.87232" lon="4.78157">
        <ele>157</ele>
        <time>2021-03-30T11:35:00.000Z</time>
      </trkpt>
      <trkpt lat="49.87234" lon="4.78154">
        <ele>157</ele>
        <time>2021-03-30T11:35:01.000Z</time>
      </trkpt>
      <trkpt lat="49.87236" lon="4.78152">
        <ele>157</ele>
        <time>2021-03-30T11:35:02.000Z</time>
      </trkpt>
      <trkpt lat="49.87237" lon="4.78149">
        <ele>158</ele>
        <time>2021-03-30T11:35:03.000Z</time>
      </trkpt>
      <trkpt lat="49.87239" lon="4.78147">
        <ele>158</ele>
        <time>2021-03-30T11:35:04.000Z</time>
      </trkpt>
      <trkpt lat="49.8724" lon="4.78145">
        <ele>158</ele>
        <time>2021-03-30T11:35:05.000Z</time>
      </trkpt>
      <trkpt lat="49.87241" lon="4.78143">
        <ele>158</ele>
        <time>2021-03-30T11:35:06.000Z</time>
      </trkpt>
      <trkpt lat="49.87241" lon="4.78142">
        <ele>158</ele>
        <time>2021-03-30T11:35:07.000Z</time>
      </trkpt>
      <trkpt lat="49.87242" lon="4.7814">
        <ele>158</ele>
        <time>2021-03-30T11:35:08.000Z</time>
      </trkpt>
      <trkpt lat="49.87243" lon="4.78138">
        <ele>158</ele>
        <time>2021-03-30T11:35:09.000Z</time>
      </trkpt>
      <trkpt lat="49.87244" lon="4.78136">
        <ele>158</ele>
        <time>2021-03-30T11:35:10.000Z</time>
      </trkpt>
      <trkpt lat="49.87245" lon="4.78134">
        <ele>158</ele>
        <time>2021-03-30T11:35:11.000Z</time>
      </trkpt>
      <trkpt lat="49.87247" lon="4.78133">
        <ele>159</ele>
        <time>2021-03-30T11:35:12.000Z</time>
      </trkpt>
      <trkpt lat="49.87248" lon="4.78131">
        <ele>159</ele>
        <time>2021-03-30T11:35:13.000Z</time>
      </trkpt>
      <trkpt lat="49.87249" lon="4.78129">
        <ele>159</ele>
        <time>2021-03-30T11:35:14.000Z</time>
      </trkpt>
      <trkpt lat="49.8725" lon="4.78126">
        <ele>159</ele>
        <time>2021-03-30T11:35:15.000Z</time>
      </trkpt>
      <trkpt lat="49.87251" lon="4.78124">
        <ele>160</ele>
        <time>2021-03-30T11:35:16.000Z</time>
      </trkpt>
      <trkpt lat="49.87253" lon="4.78123">
        <ele>160</ele>
        <time>2021-03-30T11:35:17.000Z</time>
      </trkpt>
      <trkpt lat="49.87254" lon="4.78121">
        <ele>160</ele>
        <time>2021-03-30T11:35:18.000Z</time>
      </trkpt>
      <trkpt lat="49.87256" lon="4.78119">
        <ele>160</ele>
        <time>2021-03-30T11:35:19.000Z</time>
      </trkpt>
      <trkpt lat="49.87257" lon="4.78118">
        <ele>161</ele>
        <time>2021-03-30T11:35:20.000Z</time>
      </trkpt>
      <trkpt lat="49.87259" lon="4.78116">
        <ele>161</ele>
        <time>2021-03-30T11:35:21.000Z</time>
      </trkpt>
      <trkpt lat="49.8726" lon="4.78114">
        <ele>161</ele>
        <time>2021-03-30T11:35:22.000Z</time>
      </trkpt>
      <trkpt lat="49.87262" lon="4.78112">
        <ele>162</ele>
        <time>2021-03-30T11:35:23.000Z</time>
      </trkpt>
      <trkpt lat="49.87264" lon="4.7811">
        <ele>162</ele>
        <time>2021-03-30T11:35:24.000Z</time>
      </trkpt>
      <trkpt lat="49.87265" lon="4.78108">
        <ele>162</ele>
        <time>2021-03-30T11:35:25.000Z</time>
      </trkpt>
      <trkpt lat="49.87266" lon="4.78107">
        <ele>162</ele>
        <time>2021-03-30T11:35:26.000Z</time>
      </trkpt>
      <trkpt lat="49.87267" lon="4.78105">
        <ele>163</ele>
        <time>2021-03-30T11:35:27.000Z</time>
      </trkpt>
      <trkpt lat="49.87268" lon="4.78104">
        <ele>163</ele>
        <time>2021-03-30T11:35:28.000Z</time>
      </trkpt>
      <trkpt lat="49.87269" lon="4.78103">
        <ele>163</ele>
        <time>2021-03-30T11:35:29.000Z</time>
      </trkpt>
      <trkpt lat="49.8727" lon="4.78101">
        <ele>164</ele>
        <time>2021-03-30T11:35:30.000Z</time>
      </trkpt>
      <trkpt lat="49.87271" lon="4.781">
        <ele>164</ele>
        <time>2021-03-30T11:35:31.000Z</time>
      </trkpt>
      <trkpt lat="49.87272" lon="4.78098">
        <ele>164</ele>
        <time>2021-03-30T11:35:32.000Z</time>
      </trkpt>
      <trkpt lat="49.87274" lon="4.78097">
        <ele>165</ele>
        <time>2021-03-30T11:35:33.000Z</time>
      </trkpt>
      <trkpt lat="49.87275" lon="4.78096">
        <ele>165</ele>
        <time>2021-03-30T11:35:34.000Z</time>
      </trkpt>
      <trkpt lat="49.87276" lon="4.78095">
        <ele>165</ele>
        <time>2021-03-30T11:35:35.000Z</time>
      </trkpt>
      <trkpt lat="49.87277" lon="4.78093">
        <ele>165</ele>
        <time>2021-03-30T11:35:36.000Z</time>
      </trkpt>
      <trkpt lat="49.87278" lon="4.78092">
        <ele>166</ele>
        <time>2021-03-30T11:35:37.000Z</time>
      </trkpt>
      <trkpt lat="49.87279" lon="4.7809">
        <ele>166</ele>
        <time>2021-03-30T11:35:38.000Z</time>
      </trkpt>
      <trkpt lat="49.8728" lon="4.78088">
        <ele>166</ele>
        <time>2021-03-30T11:35:39.000Z</time>
      </trkpt>
      <trkpt lat="49.87282" lon="4.78086">
        <ele>167</ele>
        <time>2021-03-30T11:35:40.000Z</time>
      </trkpt>
      <trkpt lat="49.87283" lon="4.78084">
        <ele>167</ele>
        <time>2021-03-30T11:35:41.000Z</time>
      </trkpt>
      <trkpt lat="49.87283" lon="4.78081">
        <ele>167</ele>
        <time>2021-03-30T11:35:42.000Z</time>
      </trkpt>
      <trkpt lat="49.87282" lon="4.78079">
        <ele>167</ele>
        <time>2021-03-30T11:35:43.000Z</time>
      </trkpt>
      <trkpt lat="49.87282" lon="4.78076">
        <ele>168</ele>
        <time>2021-03-30T11:35:44.000Z</time>
      </trkpt>
      <trkpt lat="49.87281" lon="4.78073">
        <ele>168</ele>
        <time>2021-03-30T11:35:45.000Z</time>
      </trkpt>
      <trkpt lat="49.8728" lon="4.7807">
        <ele>168</ele>
        <time>2021-03-30T11:35:46.000Z</time>
      </trkpt>
      <trkpt lat="49.8728" lon="4.78067">
        <ele>169</ele>
        <time>2021-03-30T11:35:47.000Z</time>
      </trkpt>
      <trkpt lat="49.87279" lon="4.78064">
        <ele>169</ele>
        <time>2021-03-30T11:35:48.000Z</time>
      </trkpt>
      <trkpt lat="49.87279" lon="4.7806">
        <ele>169</ele>
        <time>2021-03-30T11:35:49.000Z</time>
      </trkpt>
      <trkpt lat="49.87279" lon="4.78057">
        <ele>170</ele>
        <time>2021-03-30T11:35:50.000Z</time>
      </trkpt>
      <trkpt lat="49.87281" lon="4.78055">
        <ele>170</ele>
        <time>2021-03-30T11:35:51.000Z</time>
      </trkpt>
      <trkpt lat="49.87283" lon="4.78054">
        <ele>171</ele>
        <time>2021-03-30T11:35:52.000Z</time>
      </trkpt>
      <trkpt lat="49.87284" lon="4.78055">
        <ele>171</ele>
        <time>2021-03-30T11:35:53.000Z</time>
      </trkpt>
      <trkpt lat="49.87286" lon="4.78057">
        <ele>171</ele>
        <time>2021-03-30T11:35:54.000Z</time>
      </trkpt>
      <trkpt lat="49.87287" lon="4.7806">
        <ele>172</ele>
        <time>2021-03-30T11:35:55.000Z</time>
      </trkpt>
      <trkpt lat="49.87289" lon="4.78064">
        <ele>172</ele>
        <time>2021-03-30T11:35:56.000Z</time>
      </trkpt>
      <trkpt lat="49.87291" lon="4.78068">
        <ele>172</ele>
        <time>2021-03-30T11:35:57.000Z</time>
      </trkpt>
      <trkpt lat="49.87293" lon="4.78072">
        <ele>172</ele>
        <time>2021-03-30T11:35:58.000Z</time>
      </trkpt>
      <trkpt lat="49.87296" lon="4.78075">
        <ele>172</ele>
        <time>2021-03-30T11:35:59.000Z</time>
      </trkpt>
      <trkpt lat="49.87299" lon="4.78078">
        <ele>172</ele>
        <time>2021-03-30T11:36:00.000Z</time>
      </trkpt>
      <trkpt lat="49.87301" lon="4.78081">
        <ele>172</ele>
        <time>2021-03-30T11:36:01.000Z</time>
      </trkpt>
      <trkpt lat="49.87303" lon="4.78084">
        <ele>172</ele>
        <time>2021-03-30T11:36:02.000Z</time>
      </trkpt>
      <trkpt lat="49.87305" lon="4.78087">
        <ele>173</ele>
        <time>2021-03-30T11:36:03.000Z</time>
      </trkpt>
      <trkpt lat="49.87307" lon="4.78089">
        <ele>173</ele>
        <time>2021-03-30T11:36:04.000Z</time>
      </trkpt>
      <trkpt lat="49.87309" lon="4.78091">
        <ele>173</ele>
        <time>2021-03-30T11:36:05.000Z</time>
      </trkpt>
      <trkpt lat="49.87312" lon="4.78092">
        <ele>173</ele>
        <time>2021-03-30T11:36:06.000Z</time>
      </trkpt>
      <trkpt lat="49.87314" lon="4.78093">
        <ele>174</ele>
        <time>2021-03-30T11:36:07.000Z</time>
      </trkpt>
      <trkpt lat="49.87317" lon="4.78094">
        <ele>174</ele>
        <time>2021-03-30T11:36:08.000Z</time>
      </trkpt>
      <trkpt lat="49.8732" lon="4.78094">
        <ele>174</ele>
        <time>2021-03-30T11:36:09.000Z</time>
      </trkpt>
      <trkpt lat="49.87322" lon="4.78094">
        <ele>174</ele>
        <time>2021-03-30T11:36:10.000Z</time>
      </trkpt>
      <trkpt lat="49.87324" lon="4.78093">
        <ele>175</ele>
        <time>2021-03-30T11:36:11.000Z</time>
      </trkpt>
      <trkpt lat="49.87327" lon="4.78092">
        <ele>175</ele>
        <time>2021-03-30T11:36:12.000Z</time>
      </trkpt>
      <trkpt lat="49.87329" lon="4.78092">
        <ele>175</ele>
        <time>2021-03-30T11:36:13.000Z</time>
      </trkpt>
      <trkpt lat="49.87331" lon="4.78091">
        <ele>176</ele>
        <time>2021-03-30T11:36:14.000Z</time>
      </trkpt>
      <trkpt lat="49.87333" lon="4.78091">
        <ele>176</ele>
        <time>2021-03-30T11:36:15.000Z</time>
      </trkpt>
      <trkpt lat="49.87335" lon="4.7809">
        <ele>176</ele>
        <time>2021-03-30T11:36:16.000Z</time>
      </trkpt>
      <trkpt lat="49.87337" lon="4.7809">
        <ele>177</ele>
        <time>2021-03-30T11:36:17.000Z</time>
      </trkpt>
      <trkpt lat="49.8734" lon="4.7809">
        <ele>177</ele>
        <time>2021-03-30T11:36:18.000Z</time>
      </trkpt>
      <trkpt lat="49.87342" lon="4.7809">
        <ele>177</ele>
        <time>2021-03-30T11:36:19.000Z</time>
      </trkpt>
      <trkpt lat="49.87345" lon="4.7809">
        <ele>178</ele>
        <time>2021-03-30T11:36:20.000Z</time>
      </trkpt>
      <trkpt lat="49.87347" lon="4.7809">
        <ele>178</ele>
        <time>2021-03-30T11:36:21.000Z</time>
      </trkpt>
      <trkpt lat="49.87349" lon="4.7809">
        <ele>178</ele>
        <time>2021-03-30T11:36:22.000Z</time>
      </trkpt>
      <trkpt lat="49.87351" lon="4.7809">
        <ele>178</ele>
        <time>2021-03-30T11:36:23.000Z</time>
      </trkpt>
      <trkpt lat="49.87353" lon="4.78091">
        <ele>179</ele>
        <time>2021-03-30T11:36:24.000Z</time>
      </trkpt>
      <trkpt lat="49.87356" lon="4.78091">
        <ele>179</ele>
        <time>2021-03-30T11:36:25.000Z</time>
      </trkpt>
      <trkpt lat="49.87358" lon="4.78091">
        <ele>179</ele>
        <time>2021-03-30T11:36:26.000Z</time>
      </trkpt>
      <trkpt lat="49.8736" lon="4.78091">
        <ele>179</ele>
        <time>2021-03-30T11:36:27.000Z</time>
      </trkpt>
      <trkpt lat="49.87362" lon="4.78091">
        <ele>180</ele>
        <time>2021-03-30T11:36:28.000Z</time>
      </trkpt>
      <trkpt lat="49.87364" lon="4.78091">
        <ele>180</ele>
        <time>2021-03-30T11:36:29.000Z</time>
      </trkpt>
      <trkpt lat="49.87367" lon="4.78091">
        <ele>180</ele>
        <time>2021-03-30T11:36:30.000Z</time>
      </trkpt>
      <trkpt lat="49.8737" lon="4.7809">
        <ele>180</ele>
        <time>2021-03-30T11:36:31.000Z</time>
      </trkpt>
      <trkpt lat="49.87372" lon="4.7809">
        <ele>180</ele>
        <time>2021-03-30T11:36:32.000Z</time>
      </trkpt>
      <trkpt lat="49.87374" lon="4.7809">
        <ele>181</ele>
        <time>2021-03-30T11:36:33.000Z</time>
      </trkpt>
      <trkpt lat="49.87375" lon="4.7809">
        <ele>181</ele>
        <time>2021-03-30T11:36:34.000Z</time>
      </trkpt>
      <trkpt lat="49.87377" lon="4.78089">
        <ele>181</ele>
        <time>2021-03-30T11:36:35.000Z</time>
      </trkpt>
      <trkpt lat="49.87379" lon="4.78088">
        <ele>181</ele>
        <time>2021-03-30T11:36:36.000Z</time>
      </trkpt>
      <trkpt lat="49.87382" lon="4.78088">
        <ele>182</ele>
        <time>2021-03-30T11:36:37.000Z</time>
      </trkpt>
      <trkpt lat="49.87384" lon="4.78088">
        <ele>182</ele>
        <time>2021-03-30T11:36:38.000Z</time>
      </trkpt>
      <trkpt lat="49.87386" lon="4.78088">
        <ele>182</ele>
        <time>2021-03-30T11:36:39.000Z</time>
      </trkpt>
      <trkpt lat="49.87388" lon="4.78087">
        <ele>183</ele>
        <time>2021-03-30T11:36:40.000Z</time>
      </trkpt>
      <trkpt lat="49.87391" lon="4.78087">
        <ele>183</ele>
        <time>2021-03-30T11:36:41.000Z</time>
      </trkpt>
      <trkpt lat="49.87393" lon="4.78086">
        <ele>183</ele>
        <time>2021-03-30T11:36:42.000Z</time>
      </trkpt>
      <trkpt lat="49.87395" lon="4.78086">
        <ele>183</ele>
        <time>2021-03-30T11:36:43.000Z</time>
      </trkpt>
      <trkpt lat="49.87397" lon="4.78085">
        <ele>183</ele>
        <time>2021-03-30T11:36:44.000Z</time>
      </trkpt>
      <trkpt lat="49.874" lon="4.78085">
        <ele>184</ele>
        <time>2021-03-30T11:36:45.000Z</time>
      </trkpt>
      <trkpt lat="49.87402" lon="4.78085">
        <ele>184</ele>
        <time>2021-03-30T11:36:46.000Z</time>
      </trkpt>
      <trkpt lat="49.87403" lon="4.78085">
        <ele>184</ele>
        <time>2021-03-30T11:36:47.000Z</time>
      </trkpt>
      <trkpt lat="49.87405" lon="4.78084">
        <ele>185</ele>
        <time>2021-03-30T11:36:48.000Z</time>
      </trkpt>
      <trkpt lat="49.87407" lon="4.78084">
        <ele>185</ele>
        <time>2021-03-30T11:36:49.000Z</time>
      </trkpt>
      <trkpt lat="49.87409" lon="4.78083">
        <ele>186</ele>
        <time>2021-03-30T11:36:50.000Z</time>
      </trkpt>
      <trkpt lat="49.8741" lon="4.78082">
        <ele>186</ele>
        <time>2021-03-30T11:36:51.000Z</time>
      </trkpt>
      <trkpt lat="49.87412" lon="4.78082">
        <ele>187</ele>
        <time>2021-03-30T11:36:52.000Z</time>
      </trkpt>
      <trkpt lat="49.87413" lon="4.78081">
        <ele>187</ele>
        <time>2021-03-30T11:36:53.000Z</time>
      </trkpt>
      <trkpt lat="49.87415" lon="4.7808">
        <ele>187</ele>
        <time>2021-03-30T11:36:54.000Z</time>
      </trkpt>
      <trkpt lat="49.87416" lon="4.78079">
        <ele>188</ele>
        <time>2021-03-30T11:36:55.000Z</time>
      </trkpt>
      <trkpt lat="49.87418" lon="4.78079">
        <ele>188</ele>
        <time>2021-03-30T11:36:56.000Z</time>
      </trkpt>
      <trkpt lat="49.8742" lon="4.78078">
        <ele>188</ele>
        <time>2021-03-30T11:36:57.000Z</time>
      </trkpt>
      <trkpt lat="49.87422" lon="4.78077">
        <ele>189</ele>
        <time>2021-03-30T11:36:58.000Z</time>
      </trkpt>
      <trkpt lat="49.87424" lon="4.78076">
        <ele>189</ele>
        <time>2021-03-30T11:36:59.000Z</time>
      </trkpt>
      <trkpt lat="49.87426" lon="4.78076">
        <ele>189</ele>
        <time>2021-03-30T11:37:00.000Z</time>
      </trkpt>
      <trkpt lat="49.87428" lon="4.78075">
        <ele>190</ele>
        <time>2021-03-30T11:37:01.000Z</time>
      </trkpt>
      <trkpt lat="49.8743" lon="4.78075">
        <ele>190</ele>
        <time>2021-03-30T11:37:02.000Z</time>
      </trkpt>
      <trkpt lat="49.87432" lon="4.78074">
        <ele>190</ele>
        <time>2021-03-30T11:37:03.000Z</time>
      </trkpt>
      <trkpt lat="49.87434" lon="4.78074">
        <ele>190</ele>
        <time>2021-03-30T11:37:04.000Z</time>
      </trkpt>
      <trkpt lat="49.87436" lon="4.78073">
        <ele>190</ele>
        <time>2021-03-30T11:37:05.000Z</time>
      </trkpt>
      <trkpt lat="49.87439" lon="4.78072">
        <ele>190</ele>
        <time>2021-03-30T11:37:06.000Z</time>
      </trkpt>
      <trkpt lat="49.87441" lon="4.78071">
        <ele>191</ele>
        <time>2021-03-30T11:37:07.000Z</time>
      </trkpt>
      <trkpt lat="49.87443" lon="4.7807">
        <ele>191</ele>
        <time>2021-03-30T11:37:08.000Z</time>
      </trkpt>
      <trkpt lat="49.87444" lon="4.7807">
        <ele>191</ele>
        <time>2021-03-30T11:37:09.000Z</time>
      </trkpt>
      <trkpt lat="49.87446" lon="4.78069">
        <ele>191</ele>
        <time>2021-03-30T11:37:10.000Z</time>
      </trkpt>
      <trkpt lat="49.87447" lon="4.78069">
        <ele>192</ele>
        <time>2021-03-30T11:37:11.000Z</time>
      </trkpt>
      <trkpt lat="49.87449" lon="4.78068">
        <ele>192</ele>
        <time>2021-03-30T11:37:12.000Z</time>
      </trkpt>
      <trkpt lat="49.87451" lon="4.78068">
        <ele>192</ele>
        <time>2021-03-30T11:37:13.000Z</time>
      </trkpt>
      <trkpt lat="49.87454" lon="4.78068">
        <ele>193</ele>
        <time>2021-03-30T11:37:14.000Z</time>
      </trkpt>
      <trkpt lat="49.87457" lon="4.78068">
        <ele>193</ele>
        <time>2021-03-30T11:37:15.000Z</time>
      </trkpt>
      <trkpt lat="49.87459" lon="4.78068">
        <ele>193</ele>
        <time>2021-03-30T11:37:16.000Z</time>
      </trkpt>
      <trkpt lat="49.87461" lon="4.78068">
        <ele>194</ele>
        <time>2021-03-30T11:37:17.000Z</time>
      </trkpt>
      <trkpt lat="49.87463" lon="4.78067">
        <ele>194</ele>
        <time>2021-03-30T11:37:18.000Z</time>
      </trkpt>
      <trkpt lat="49.87464" lon="4.78066">
        <ele>194</ele>
        <time>2021-03-30T11:37:19.000Z</time>
      </trkpt>
      <trkpt lat="49.87466" lon="4.78066">
        <ele>195</ele>
        <time>2021-03-30T11:37:20.000Z</time>
      </trkpt>
      <trkpt lat="49.87467" lon="4.78065">
        <ele>195</ele>
        <time>2021-03-30T11:37:21.000Z</time>
      </trkpt>
      <trkpt lat="49.87469" lon="4.78065">
        <ele>195</ele>
        <time>2021-03-30T11:37:22.000Z</time>
      </trkpt>
      <trkpt lat="49.8747" lon="4.78063">
        <ele>196</ele>
        <time>2021-03-30T11:37:23.000Z</time>
      </trkpt>
      <trkpt lat="49.8747" lon="4.78062">
        <ele>196</ele>
        <time>2021-03-30T11:37:24.000Z</time>
      </trkpt>
      <trkpt lat="49.87471" lon="4.78061">
        <ele>197</ele>
        <time>2021-03-30T11:37:25.000Z</time>
      </trkpt>
      <trkpt lat="49.8747" lon="4.78059">
        <ele>197</ele>
        <time>2021-03-30T11:37:26.000Z</time>
      </trkpt>
      <trkpt lat="49.87469" lon="4.78058">
        <ele>197</ele>
        <time>2021-03-30T11:37:27.000Z</time>
      </trkpt>
      <trkpt lat="49.87468" lon="4.78057">
        <ele>198</ele>
        <time>2021-03-30T11:37:28.000Z</time>
      </trkpt>
      <trkpt lat="49.87466" lon="4.78056">
        <ele>198</ele>
        <time>2021-03-30T11:37:29.000Z</time>
      </trkpt>
      <trkpt lat="49.87464" lon="4.78055">
        <ele>198</ele>
        <time>2021-03-30T11:37:30.000Z</time>
      </trkpt>
      <trkpt lat="49.87462" lon="4.78054">
        <ele>199</ele>
        <time>2021-03-30T11:37:31.000Z</time>
      </trkpt>
      <trkpt lat="49.87461" lon="4.78052">
        <ele>199</ele>
        <time>2021-03-30T11:37:32.000Z</time>
      </trkpt>
      <trkpt lat="49.87459" lon="4.78051">
        <ele>199</ele>
        <time>2021-03-30T11:37:33.000Z</time>
      </trkpt>
      <trkpt lat="49.87457" lon="4.7805">
        <ele>199</ele>
        <time>2021-03-30T11:37:34.000Z</time>
      </trkpt>
      <trkpt lat="49.87456" lon="4.78048">
        <ele>199</ele>
        <time>2021-03-30T11:37:35.000Z</time>
      </trkpt>
      <trkpt lat="49.87455" lon="4.78047">
        <ele>199</ele>
        <time>2021-03-30T11:37:36.000Z</time>
      </trkpt>
      <trkpt lat="49.87453" lon="4.78045">
        <ele>200</ele>
        <time>2021-03-30T11:37:37.000Z</time>
      </trkpt>
      <trkpt lat="49.87452" lon="4.78043">
        <ele>200</ele>
        <time>2021-03-30T11:37:38.000Z</time>
      </trkpt>
      <trkpt lat="49.8745" lon="4.78041">
        <ele>200</ele>
        <time>2021-03-30T11:37:39.000Z</time>
      </trkpt>
      <trkpt lat="49.87449" lon="4.7804">
        <ele>200</ele>
        <time>2021-03-30T11:37:40.000Z</time>
      </trkpt>
      <trkpt lat="49.87448" lon="4.78039">
        <ele>200</ele>
        <time>2021-03-30T11:37:41.000Z</time>
      </trkpt>
      <trkpt lat="49.87447" lon="4.78037">
        <ele>200</ele>
        <time>2021-03-30T11:37:42.000Z</time>
      </trkpt>
      <trkpt lat="49.87446" lon="4.78035">
        <ele>200</ele>
        <time>2021-03-30T11:37:43.000Z</time>
      </trkpt>
      <trkpt lat="49.87444" lon="4.78034">
        <ele>200</ele>
        <time>2021-03-30T11:37:44.000Z</time>
      </trkpt>
      <trkpt lat="49.87443" lon="4.78031">
        <ele>200</ele>
        <time>2021-03-30T11:37:45.000Z</time>
      </trkpt>
      <trkpt lat="49.87441" lon="4.78029">
        <ele>200</ele>
        <time>2021-03-30T11:37:46.000Z</time>
      </trkpt>
      <trkpt lat="49.87439" lon="4.78027">
        <ele>200</ele>
        <time>2021-03-30T11:37:47.000Z</time>
      </trkpt>
      <trkpt lat="49.87438" lon="4.78025">
        <ele>200</ele>
        <time>2021-03-30T11:37:48.000Z</time>
      </trkpt>
      <trkpt lat="49.87436" lon="4.78024">
        <ele>200</ele>
        <time>2021-03-30T11:37:49.000Z</time>
      </trkpt>
      <trkpt lat="49.87434" lon="4.78021">
        <ele>200</ele>
        <time>2021-03-30T11:37:50.000Z</time>
      </trkpt>
      <trkpt lat="49.87433" lon="4.78019">
        <ele>200</ele>
        <time>2021-03-30T11:37:51.000Z</time>
      </trkpt>
      <trkpt lat="49.87431" lon="4.78017">
        <ele>199</ele>
        <time>2021-03-30T11:37:52.000Z</time>
      </trkpt>
      <trkpt lat="49.8743" lon="4.78015">
        <ele>199</ele>
        <time>2021-03-30T11:37:53.000Z</time>
      </trkpt>
      <trkpt lat="49.87428" lon="4.78013">
        <ele>199</ele>
        <time>2021-03-30T11:37:54.000Z</time>
      </trkpt>
      <trkpt lat="49.87427" lon="4.78011">
        <ele>199</ele>
        <time>2021-03-30T11:37:55.000Z</time>
      </trkpt>
      <trkpt lat="49.87426" lon="4.7801">
        <ele>199</ele>
        <time>2021-03-30T11:37:56.000Z</time>
      </trkpt>
      <trkpt lat="49.87425" lon="4.78008">
        <ele>199</ele>
        <time>2021-03-30T11:37:57.000Z</time>
      </trkpt>
      <trkpt lat="49.87424" lon="4.78006">
        <ele>199</ele>
        <time>2021-03-30T11:37:58.000Z</time>
      </trkpt>
      <trkpt lat="49.87423" lon="4.78003">
        <ele>199</ele>
        <time>2021-03-30T11:37:59.000Z</time>
      </trkpt>
      <trkpt lat="49.87423" lon="4.78001">
        <ele>199</ele>
        <time>2021-03-30T11:38:00.000Z</time>
      </trkpt>
      <trkpt lat="49.87421" lon="4.77998">
        <ele>199</ele>
        <time>2021-03-30T11:38:01.000Z</time>
      </trkpt>
      <trkpt lat="49.8742" lon="4.77995">
        <ele>200</ele>
        <time>2021-03-30T11:38:02.000Z</time>
      </trkpt>
      <trkpt lat="49.87419" lon="4.77992">
        <ele>200</ele>
        <time>2021-03-30T11:38:03.000Z</time>
      </trkpt>
      <trkpt lat="49.87417" lon="4.77989">
        <ele>200</ele>
        <time>2021-03-30T11:38:04.000Z</time>
      </trkpt>
      <trkpt lat="49.87416" lon="4.77987">
        <ele>200</ele>
        <time>2021-03-30T11:38:05.000Z</time>
      </trkpt>
      <trkpt lat="49.87415" lon="4.77984">
        <ele>200</ele>
        <time>2021-03-30T11:38:06.000Z</time>
      </trkpt>
      <trkpt lat="49.87414" lon="4.77982">
        <ele>200</ele>
        <time>2021-03-30T11:38:07.000Z</time>
      </trkpt>
      <trkpt lat="49.87412" lon="4.77979">
        <ele>201</ele>
        <time>2021-03-30T11:38:08.000Z</time>
      </trkpt>
      <trkpt lat="49.87411" lon="4.77976">
        <ele>201</ele>
        <time>2021-03-30T11:38:09.000Z</time>
      </trkpt>
      <trkpt lat="49.8741" lon="4.77973">
        <ele>201</ele>
        <time>2021-03-30T11:38:10.000Z</time>
      </trkpt>
      <trkpt lat="49.87408" lon="4.77971">
        <ele>202</ele>
        <time>2021-03-30T11:38:11.000Z</time>
      </trkpt>
      <trkpt lat="49.87407" lon="4.77968">
        <ele>202</ele>
        <time>2021-03-30T11:38:12.000Z</time>
      </trkpt>
      <trkpt lat="49.87405" lon="4.77965">
        <ele>202</ele>
        <time>2021-03-30T11:38:13.000Z</time>
      </trkpt>
      <trkpt lat="49.87404" lon="4.77962">
        <ele>203</ele>
        <time>2021-03-30T11:38:14.000Z</time>
      </trkpt>
      <trkpt lat="49.87402" lon="4.7796">
        <ele>203</ele>
        <time>2021-03-30T11:38:15.000Z</time>
      </trkpt>
      <trkpt lat="49.874" lon="4.77957">
        <ele>203</ele>
        <time>2021-03-30T11:38:16.000Z</time>
      </trkpt>
      <trkpt lat="49.87399" lon="4.77954">
        <ele>204</ele>
        <time>2021-03-30T11:38:17.000Z</time>
      </trkpt>
      <trkpt lat="49.87397" lon="4.77951">
        <ele>204</ele>
        <time>2021-03-30T11:38:18.000Z</time>
      </trkpt>
      <trkpt lat="49.87396" lon="4.77949">
        <ele>204</ele>
        <time>2021-03-30T11:38:19.000Z</time>
      </trkpt>
      <trkpt lat="49.87394" lon="4.77946">
        <ele>204</ele>
        <time>2021-03-30T11:38:20.000Z</time>
      </trkpt>
      <trkpt lat="49.87393" lon="4.77943">
        <ele>205</ele>
        <time>2021-03-30T11:38:21.000Z</time>
      </trkpt>
      <trkpt lat="49.87392" lon="4.7794">
        <ele>205</ele>
        <time>2021-03-30T11:38:22.000Z</time>
      </trkpt>
      <trkpt lat="49.87391" lon="4.77937">
        <ele>205</ele>
        <time>2021-03-30T11:38:23.000Z</time>
      </trkpt>
      <trkpt lat="49.87391" lon="4.77933">
        <ele>205</ele>
        <time>2021-03-30T11:38:24.000Z</time>
      </trkpt>
      <trkpt lat="49.8739" lon="4.7793">
        <ele>205</ele>
        <time>2021-03-30T11:38:25.000Z</time>
      </trkpt>
      <trkpt lat="49.87389" lon="4.77927">
        <ele>205</ele>
        <time>2021-03-30T11:38:26.000Z</time>
      </trkpt>
      <trkpt lat="49.87388" lon="4.77924">
        <ele>205</ele>
        <time>2021-03-30T11:38:27.000Z</time>
      </trkpt>
      <trkpt lat="49.87386" lon="4.77921">
        <ele>205</ele>
        <time>2021-03-30T11:38:28.000Z</time>
      </trkpt>
      <trkpt lat="49.87385" lon="4.77918">
        <ele>205</ele>
        <time>2021-03-30T11:38:29.000Z</time>
      </trkpt>
      <trkpt lat="49.87384" lon="4.77916">
        <ele>205</ele>
        <time>2021-03-30T11:38:30.000Z</time>
      </trkpt>
      <trkpt lat="49.87382" lon="4.77913">
        <ele>205</ele>
        <time>2021-03-30T11:38:31.000Z</time>
      </trkpt>
      <trkpt lat="49.87381" lon="4.7791">
        <ele>206</ele>
        <time>2021-03-30T11:38:32.000Z</time>
      </trkpt>
      <trkpt lat="49.8738" lon="4.77909">
        <ele>206</ele>
        <time>2021-03-30T11:38:33.000Z</time>
      </trkpt>
      <trkpt lat="49.87378" lon="4.77907">
        <ele>206</ele>
        <time>2021-03-30T11:38:34.000Z</time>
      </trkpt>
      <trkpt lat="49.87377" lon="4.77905">
        <ele>206</ele>
        <time>2021-03-30T11:38:35.000Z</time>
      </trkpt>
      <trkpt lat="49.87375" lon="4.77902">
        <ele>206</ele>
        <time>2021-03-30T11:38:36.000Z</time>
      </trkpt>
      <trkpt lat="49.87374" lon="4.779">
        <ele>206</ele>
        <time>2021-03-30T11:38:37.000Z</time>
      </trkpt>
      <trkpt lat="49.87373" lon="4.77898">
        <ele>206</ele>
        <time>2021-03-30T11:38:38.000Z</time>
      </trkpt>
      <trkpt lat="49.87372" lon="4.77896">
        <ele>207</ele>
        <time>2021-03-30T11:38:39.000Z</time>
      </trkpt>
      <trkpt lat="49.8737" lon="4.77893">
        <ele>207</ele>
        <time>2021-03-30T11:38:40.000Z</time>
      </trkpt>
      <trkpt lat="49.87369" lon="4.77891">
        <ele>207</ele>
        <time>2021-03-30T11:38:41.000Z</time>
      </trkpt>
      <trkpt lat="49.87368" lon="4.77889">
        <ele>208</ele>
        <time>2021-03-30T11:38:42.000Z</time>
      </trkpt>
      <trkpt lat="49.87366" lon="4.77887">
        <ele>208</ele>
        <time>2021-03-30T11:38:43.000Z</time>
      </trkpt>
      <trkpt lat="49.87365" lon="4.77884">
        <ele>208</ele>
        <time>2021-03-30T11:38:44.000Z</time>
      </trkpt>
      <trkpt lat="49.87363" lon="4.77882">
        <ele>208</ele>
        <time>2021-03-30T11:38:45.000Z</time>
      </trkpt>
      <trkpt lat="49.87363" lon="4.77879">
        <ele>209</ele>
        <time>2021-03-30T11:38:46.000Z</time>
      </trkpt>
      <trkpt lat="49.87362" lon="4.77878">
        <ele>209</ele>
        <time>2021-03-30T11:38:47.000Z</time>
      </trkpt>
      <trkpt lat="49.87361" lon="4.77876">
        <ele>209</ele>
        <time>2021-03-30T11:38:48.000Z</time>
      </trkpt>
      <trkpt lat="49.8736" lon="4.77874">
        <ele>209</ele>
        <time>2021-03-30T11:38:49.000Z</time>
      </trkpt>
      <trkpt lat="49.87358" lon="4.77872">
        <ele>210</ele>
        <time>2021-03-30T11:38:50.000Z</time>
      </trkpt>
      <trkpt lat="49.87357" lon="4.7787">
        <ele>210</ele>
        <time>2021-03-30T11:38:51.000Z</time>
      </trkpt>
      <trkpt lat="49.87355" lon="4.77868">
        <ele>210</ele>
        <time>2021-03-30T11:38:52.000Z</time>
      </trkpt>
      <trkpt lat="49.87353" lon="4.77866">
        <ele>210</ele>
        <time>2021-03-30T11:38:53.000Z</time>
      </trkpt>
      <trkpt lat="49.87351" lon="4.77864">
        <ele>211</ele>
        <time>2021-03-30T11:38:54.000Z</time>
      </trkpt>
      <trkpt lat="49.8735" lon="4.77861">
        <ele>211</ele>
        <time>2021-03-30T11:38:55.000Z</time>
      </trkpt>
      <trkpt lat="49.87348" lon="4.77859">
        <ele>211</ele>
        <time>2021-03-30T11:38:56.000Z</time>
      </trkpt>
      <trkpt lat="49.87346" lon="4.77857">
        <ele>211</ele>
        <time>2021-03-30T11:38:57.000Z</time>
      </trkpt>
      <trkpt lat="49.87345" lon="4.77854">
        <ele>211</ele>
        <time>2021-03-30T11:38:58.000Z</time>
      </trkpt>
      <trkpt lat="49.87343" lon="4.77852">
        <ele>211</ele>
        <time>2021-03-30T11:38:59.000Z</time>
      </trkpt>
      <trkpt lat="49.87342" lon="4.7785">
        <ele>211</ele>
        <time>2021-03-30T11:39:00.000Z</time>
      </trkpt>
      <trkpt lat="49.8734" lon="4.77847">
        <ele>211</ele>
        <time>2021-03-30T11:39:01.000Z</time>
      </trkpt>
      <trkpt lat="49.87339" lon="4.77844">
        <ele>211</ele>
        <time>2021-03-30T11:39:02.000Z</time>
      </trkpt>
      <trkpt lat="49.87337" lon="4.77842">
        <ele>211</ele>
        <time>2021-03-30T11:39:03.000Z</time>
      </trkpt>
      <trkpt lat="49.87336" lon="4.7784">
        <ele>212</ele>
        <time>2021-03-30T11:39:04.000Z</time>
      </trkpt>
      <trkpt lat="49.87334" lon="4.77838">
        <ele>212</ele>
        <time>2021-03-30T11:39:05.000Z</time>
      </trkpt>
      <trkpt lat="49.87333" lon="4.77835">
        <ele>212</ele>
        <time>2021-03-30T11:39:06.000Z</time>
      </trkpt>
      <trkpt lat="49.87332" lon="4.77832">
        <ele>212</ele>
        <time>2021-03-30T11:39:07.000Z</time>
      </trkpt>
      <trkpt lat="49.8733" lon="4.7783">
        <ele>212</ele>
        <time>2021-03-30T11:39:08.000Z</time>
      </trkpt>
      <trkpt lat="49.87329" lon="4.77828">
        <ele>212</ele>
        <time>2021-03-30T11:39:09.000Z</time>
      </trkpt>
      <trkpt lat="49.87327" lon="4.77826">
        <ele>212</ele>
        <time>2021-03-30T11:39:10.000Z</time>
      </trkpt>
      <trkpt lat="49.87326" lon="4.77824">
        <ele>212</ele>
        <time>2021-03-30T11:39:11.000Z</time>
      </trkpt>
      <trkpt lat="49.87324" lon="4.77823">
        <ele>212</ele>
        <time>2021-03-30T11:39:12.000Z</time>
      </trkpt>
      <trkpt lat="49.87323" lon="4.7782">
        <ele>212</ele>
        <time>2021-03-30T11:39:13.000Z</time>
      </trkpt>
      <trkpt lat="49.87322" lon="4.77818">
        <ele>213</ele>
        <time>2021-03-30T11:39:14.000Z</time>
      </trkpt>
      <trkpt lat="49.87321" lon="4.77816">
        <ele>213</ele>
        <time>2021-03-30T11:39:15.000Z</time>
      </trkpt>
      <trkpt lat="49.87319" lon="4.77813">
        <ele>213</ele>
        <time>2021-03-30T11:39:16.000Z</time>
      </trkpt>
      <trkpt lat="49.87318" lon="4.77811">
        <ele>213</ele>
        <time>2021-03-30T11:39:17.000Z</time>
      </trkpt>
      <trkpt lat="49.87316" lon="4.77809">
        <ele>213</ele>
        <time>2021-03-30T11:39:18.000Z</time>
      </trkpt>
      <trkpt lat="49.87314" lon="4.77806">
        <ele>213</ele>
        <time>2021-03-30T11:39:19.000Z</time>
      </trkpt>
      <trkpt lat="49.87313" lon="4.77804">
        <ele>214</ele>
        <time>2021-03-30T11:39:20.000Z</time>
      </trkpt>
      <trkpt lat="49.87312" lon="4.77801">
        <ele>214</ele>
        <time>2021-03-30T11:39:21.000Z</time>
      </trkpt>
      <trkpt lat="49.87311" lon="4.778">
        <ele>214</ele>
        <time>2021-03-30T11:39:22.000Z</time>
      </trkpt>
      <trkpt lat="49.87309" lon="4.77798">
        <ele>214</ele>
        <time>2021-03-30T11:39:23.000Z</time>
      </trkpt>
      <trkpt lat="49.87308" lon="4.77796">
        <ele>214</ele>
        <time>2021-03-30T11:39:24.000Z</time>
      </trkpt>
      <trkpt lat="49.87308" lon="4.77793">
        <ele>215</ele>
        <time>2021-03-30T11:39:25.000Z</time>
      </trkpt>
      <trkpt lat="49.87307" lon="4.77791">
        <ele>215</ele>
        <time>2021-03-30T11:39:26.000Z</time>
      </trkpt>
      <trkpt lat="49.87307" lon="4.77788">
        <ele>216</ele>
        <time>2021-03-30T11:39:27.000Z</time>
      </trkpt>
      <trkpt lat="49.87306" lon="4.77786">
        <ele>216</ele>
        <time>2021-03-30T11:39:28.000Z</time>
      </trkpt>
      <trkpt lat="49.87304" lon="4.77783">
        <ele>217</ele>
        <time>2021-03-30T11:39:29.000Z</time>
      </trkpt>
      <trkpt lat="49.87303" lon="4.77781">
        <ele>217</ele>
        <time>2021-03-30T11:39:30.000Z</time>
      </trkpt>
      <trkpt lat="49.87301" lon="4.77779">
        <ele>217</ele>
        <time>2021-03-30T11:39:31.000Z</time>
      </trkpt>
      <trkpt lat="49.873" lon="4.77777">
        <ele>218</ele>
        <time>2021-03-30T11:39:32.000Z</time>
      </trkpt>
      <trkpt lat="49.87298" lon="4.77775">
        <ele>218</ele>
        <time>2021-03-30T11:39:33.000Z</time>
      </trkpt>
      <trkpt lat="49.87297" lon="4.77772">
        <ele>218</ele>
        <time>2021-03-30T11:39:34.000Z</time>
      </trkpt>
      <trkpt lat="49.87295" lon="4.7777">
        <ele>218</ele>
        <time>2021-03-30T11:39:35.000Z</time>
      </trkpt>
      <trkpt lat="49.87294" lon="4.77768">
        <ele>219</ele>
        <time>2021-03-30T11:39:36.000Z</time>
      </trkpt>
      <trkpt lat="49.87292" lon="4.77765">
        <ele>219</ele>
        <time>2021-03-30T11:39:37.000Z</time>
      </trkpt>
      <trkpt lat="49.8729" lon="4.77763">
        <ele>219</ele>
        <time>2021-03-30T11:39:38.000Z</time>
      </trkpt>
      <trkpt lat="49.87289" lon="4.77761">
        <ele>219</ele>
        <time>2021-03-30T11:39:39.000Z</time>
      </trkpt>
      <trkpt lat="49.87287" lon="4.77758">
        <ele>219</ele>
        <time>2021-03-30T11:39:40.000Z</time>
      </trkpt>
      <trkpt lat="49.87285" lon="4.77757">
        <ele>220</ele>
        <time>2021-03-30T11:39:41.000Z</time>
      </trkpt>
      <trkpt lat="49.87283" lon="4.77754">
        <ele>220</ele>
        <time>2021-03-30T11:39:42.000Z</time>
      </trkpt>
      <trkpt lat="49.87282" lon="4.77752">
        <ele>220</ele>
        <time>2021-03-30T11:39:43.000Z</time>
      </trkpt>
      <trkpt lat="49.8728" lon="4.7775">
        <ele>220</ele>
        <time>2021-03-30T11:39:44.000Z</time>
      </trkpt>
      <trkpt lat="49.87278" lon="4.77748">
        <ele>220</ele>
        <time>2021-03-30T11:39:45.000Z</time>
      </trkpt>
      <trkpt lat="49.87276" lon="4.77746">
        <ele>220</ele>
        <time>2021-03-30T11:39:46.000Z</time>
      </trkpt>
      <trkpt lat="49.87274" lon="4.77743">
        <ele>220</ele>
        <time>2021-03-30T11:39:47.000Z</time>
      </trkpt>
      <trkpt lat="49.87273" lon="4.77741">
        <ele>220</ele>
        <time>2021-03-30T11:39:48.000Z</time>
      </trkpt>
      <trkpt lat="49.87271" lon="4.77739">
        <ele>220</ele>
        <time>2021-03-30T11:39:49.000Z</time>
      </trkpt>
      <trkpt lat="49.8727" lon="4.77736">
        <ele>220</ele>
        <time>2021-03-30T11:39:50.000Z</time>
      </trkpt>
      <trkpt lat="49.87268" lon="4.77734">
        <ele>220</ele>
        <time>2021-03-30T11:39:51.000Z</time>
      </trkpt>
      <trkpt lat="49.87266" lon="4.77732">
        <ele>221</ele>
        <time>2021-03-30T11:39:52.000Z</time>
      </trkpt>
      <trkpt lat="49.87264" lon="4.77729">
        <ele>221</ele>
        <time>2021-03-30T11:39:53.000Z</time>
      </trkpt>
      <trkpt lat="49.87262" lon="4.77727">
        <ele>221</ele>
        <time>2021-03-30T11:39:54.000Z</time>
      </trkpt>
      <trkpt lat="49.87261" lon="4.77725">
        <ele>221</ele>
        <time>2021-03-30T11:39:55.000Z</time>
      </trkpt>
      <trkpt lat="49.87259" lon="4.77723">
        <ele>221</ele>
        <time>2021-03-30T11:39:56.000Z</time>
      </trkpt>
      <trkpt lat="49.87257" lon="4.77722">
        <ele>221</ele>
        <time>2021-03-30T11:39:57.000Z</time>
      </trkpt>
      <trkpt lat="49.87255" lon="4.7772">
        <ele>221</ele>
        <time>2021-03-30T11:39:58.000Z</time>
      </trkpt>
      <trkpt lat="49.87253" lon="4.77719">
        <ele>221</ele>
        <time>2021-03-30T11:39:59.000Z</time>
      </trkpt>
      <trkpt lat="49.87251" lon="4.77718">
        <ele>221</ele>
        <time>2021-03-30T11:40:00.000Z</time>
      </trkpt>
      <trkpt lat="49.87249" lon="4.77716">
        <ele>221</ele>
        <time>2021-03-30T11:40:01.000Z</time>
      </trkpt>
      <trkpt lat="49.87248" lon="4.77715">
        <ele>221</ele>
        <time>2021-03-30T11:40:02.000Z</time>
      </trkpt>
      <trkpt lat="49.87246" lon="4.77713">
        <ele>221</ele>
        <time>2021-03-30T11:40:03.000Z</time>
      </trkpt>
      <trkpt lat="49.87245" lon="4.77712">
        <ele>222</ele>
        <time>2021-03-30T11:40:04.000Z</time>
      </trkpt>
      <trkpt lat="49.87243" lon="4.77711">
        <ele>222</ele>
        <time>2021-03-30T11:40:05.000Z</time>
      </trkpt>
      <trkpt lat="49.87241" lon="4.77709">
        <ele>222</ele>
        <time>2021-03-30T11:40:06.000Z</time>
      </trkpt>
      <trkpt lat="49.87239" lon="4.77708">
        <ele>222</ele>
        <time>2021-03-30T11:40:07.000Z</time>
      </trkpt>
      <trkpt lat="49.87237" lon="4.77706">
        <ele>222</ele>
        <time>2021-03-30T11:40:08.000Z</time>
      </trkpt>
      <trkpt lat="49.87235" lon="4.77705">
        <ele>223</ele>
        <time>2021-03-30T11:40:09.000Z</time>
      </trkpt>
      <trkpt lat="49.87233" lon="4.77703">
        <ele>223</ele>
        <time>2021-03-30T11:40:10.000Z</time>
      </trkpt>
      <trkpt lat="49.87232" lon="4.77701">
        <ele>223</ele>
        <time>2021-03-30T11:40:11.000Z</time>
      </trkpt>
      <trkpt lat="49.87229" lon="4.777">
        <ele>223</ele>
        <time>2021-03-30T11:40:12.000Z</time>
      </trkpt>
      <trkpt lat="49.87227" lon="4.77698">
        <ele>223</ele>
        <time>2021-03-30T11:40:13.000Z</time>
      </trkpt>
      <trkpt lat="49.87225" lon="4.77696">
        <ele>223</ele>
        <time>2021-03-30T11:40:14.000Z</time>
      </trkpt>
      <trkpt lat="49.87223" lon="4.77694">
        <ele>223</ele>
        <time>2021-03-30T11:40:15.000Z</time>
      </trkpt>
      <trkpt lat="49.87221" lon="4.77693">
        <ele>223</ele>
        <time>2021-03-30T11:40:16.000Z</time>
      </trkpt>
      <trkpt lat="49.87219" lon="4.77691">
        <ele>224</ele>
        <time>2021-03-30T11:40:17.000Z</time>
      </trkpt>
      <trkpt lat="49.87218" lon="4.7769">
        <ele>224</ele>
        <time>2021-03-30T11:40:18.000Z</time>
      </trkpt>
      <trkpt lat="49.87216" lon="4.77688">
        <ele>224</ele>
        <time>2021-03-30T11:40:19.000Z</time>
      </trkpt>
      <trkpt lat="49.87214" lon="4.77686">
        <ele>224</ele>
        <time>2021-03-30T11:40:20.000Z</time>
      </trkpt>
      <trkpt lat="49.87212" lon="4.77684">
        <ele>224</ele>
        <time>2021-03-30T11:40:21.000Z</time>
      </trkpt>
      <trkpt lat="49.87211" lon="4.77681">
        <ele>224</ele>
        <time>2021-03-30T11:40:22.000Z</time>
      </trkpt>
      <trkpt lat="49.8721" lon="4.77679">
        <ele>225</ele>
        <time>2021-03-30T11:40:23.000Z</time>
      </trkpt>
      <trkpt lat="49.87209" lon="4.77676">
        <ele>225</ele>
        <time>2021-03-30T11:40:24.000Z</time>
      </trkpt>
      <trkpt lat="49.87209" lon="4.77674">
        <ele>225</ele>
        <time>2021-03-30T11:40:25.000Z</time>
      </trkpt>
      <trkpt lat="49.8721" lon="4.77671">
        <ele>226</ele>
        <time>2021-03-30T11:40:26.000Z</time>
      </trkpt>
      <trkpt lat="49.87211" lon="4.77669">
        <ele>226</ele>
        <time>2021-03-30T11:40:27.000Z</time>
      </trkpt>
      <trkpt lat="49.87212" lon="4.77667">
        <ele>226</ele>
        <time>2021-03-30T11:40:28.000Z</time>
      </trkpt>
      <trkpt lat="49.87214" lon="4.77666">
        <ele>227</ele>
        <time>2021-03-30T11:40:29.000Z</time>
      </trkpt>
      <trkpt lat="49.87216" lon="4.77665">
        <ele>227</ele>
        <time>2021-03-30T11:40:30.000Z</time>
      </trkpt>
      <trkpt lat="49.87217" lon="4.77665">
        <ele>227</ele>
        <time>2021-03-30T11:40:31.000Z</time>
      </trkpt>
      <trkpt lat="49.87219" lon="4.77665">
        <ele>227</ele>
        <time>2021-03-30T11:40:32.000Z</time>
      </trkpt>
      <trkpt lat="49.8722" lon="4.77664">
        <ele>228</ele>
        <time>2021-03-30T11:40:33.000Z</time>
      </trkpt>
      <trkpt lat="49.87221" lon="4.77664">
        <ele>228</ele>
        <time>2021-03-30T11:40:34.000Z</time>
      </trkpt>
      <trkpt lat="49.87221" lon="4.77664">
        <ele>228</ele>
        <time>2021-03-30T11:40:35.000Z</time>
      </trkpt>
      <trkpt lat="49.87223" lon="4.77664">
        <ele>228</ele>
        <time>2021-03-30T11:40:36.000Z</time>
      </trkpt>
      <trkpt lat="49.87225" lon="4.77664">
        <ele>229</ele>
        <time>2021-03-30T11:40:37.000Z</time>
      </trkpt>
      <trkpt lat="49.87227" lon="4.77663">
        <ele>229</ele>
        <time>2021-03-30T11:40:38.000Z</time>
      </trkpt>
      <trkpt lat="49.87229" lon="4.77663">
        <ele>229</ele>
        <time>2021-03-30T11:40:39.000Z</time>
      </trkpt>
      <trkpt lat="49.87231" lon="4.77662">
        <ele>230</ele>
        <time>2021-03-30T11:40:40.000Z</time>
      </trkpt>
      <trkpt lat="49.87233" lon="4.77661">
        <ele>230</ele>
        <time>2021-03-30T11:40:41.000Z</time>
      </trkpt>
      <trkpt lat="49.87234" lon="4.7766">
        <ele>230</ele>
        <time>2021-03-30T11:40:42.000Z</time>
      </trkpt>
      <trkpt lat="49.87236" lon="4.77659">
        <ele>231</ele>
        <time>2021-03-30T11:40:43.000Z</time>
      </trkpt>
      <trkpt lat="49.87238" lon="4.77658">
        <ele>231</ele>
        <time>2021-03-30T11:40:44.000Z</time>
      </trkpt>
      <trkpt lat="49.8724" lon="4.77657">
        <ele>231</ele>
        <time>2021-03-30T11:40:45.000Z</time>
      </trkpt>
      <trkpt lat="49.87242" lon="4.77657">
        <ele>232</ele>
        <time>2021-03-30T11:40:46.000Z</time>
      </trkpt>
      <trkpt lat="49.87244" lon="4.77656">
        <ele>232</ele>
        <time>2021-03-30T11:40:47.000Z</time>
      </trkpt>
      <trkpt lat="49.87246" lon="4.77655">
        <ele>233</ele>
        <time>2021-03-30T11:40:48.000Z</time>
      </trkpt>
      <trkpt lat="49.87248" lon="4.77654">
        <ele>233</ele>
        <time>2021-03-30T11:40:49.000Z</time>
      </trkpt>
      <trkpt lat="49.8725" lon="4.77653">
        <ele>234</ele>
        <time>2021-03-30T11:40:50.000Z</time>
      </trkpt>
      <trkpt lat="49.87253" lon="4.77652">
        <ele>234</ele>
        <time>2021-03-30T11:40:51.000Z</time>
      </trkpt>
      <trkpt lat="49.87255" lon="4.77652">
        <ele>235</ele>
        <time>2021-03-30T11:40:52.000Z</time>
      </trkpt>
      <trkpt lat="49.87258" lon="4.77651">
        <ele>235</ele>
        <time>2021-03-30T11:40:53.000Z</time>
      </trkpt>
      <trkpt lat="49.8726" lon="4.77649">
        <ele>236</ele>
        <time>2021-03-30T11:40:54.000Z</time>
      </trkpt>
      <trkpt lat="49.87262" lon="4.77648">
        <ele>236</ele>
        <time>2021-03-30T11:40:55.000Z</time>
      </trkpt>
      <trkpt lat="49.87264" lon="4.77647">
        <ele>236</ele>
        <time>2021-03-30T11:40:56.000Z</time>
      </trkpt>
      <trkpt lat="49.87267" lon="4.77647">
        <ele>237</ele>
        <time>2021-03-30T11:40:57.000Z</time>
      </trkpt>
      <trkpt lat="49.87269" lon="4.77646">
        <ele>237</ele>
        <time>2021-03-30T11:40:58.000Z</time>
      </trkpt>
      <trkpt lat="49.8727" lon="4.77646">
        <ele>238</ele>
        <time>2021-03-30T11:40:59.000Z</time>
      </trkpt>
      <trkpt lat="49.87272" lon="4.77646">
        <ele>238</ele>
        <time>2021-03-30T11:41:00.000Z</time>
      </trkpt>
      <trkpt lat="49.87274" lon="4.77646">
        <ele>238</ele>
        <time>2021-03-30T11:41:01.000Z</time>
      </trkpt>
      <trkpt lat="49.87276" lon="4.77645">
        <ele>239</ele>
        <time>2021-03-30T11:41:02.000Z</time>
      </trkpt>
      <trkpt lat="49.87277" lon="4.77645">
        <ele>239</ele>
        <time>2021-03-30T11:41:03.000Z</time>
      </trkpt>
      <trkpt lat="49.87279" lon="4.77644">
        <ele>240</ele>
        <time>2021-03-30T11:41:04.000Z</time>
      </trkpt>
      <trkpt lat="49.87281" lon="4.77644">
        <ele>240</ele>
        <time>2021-03-30T11:41:05.000Z</time>
      </trkpt>
      <trkpt lat="49.87282" lon="4.77643">
        <ele>240</ele>
        <time>2021-03-30T11:41:06.000Z</time>
      </trkpt>
      <trkpt lat="49.87285" lon="4.77642">
        <ele>241</ele>
        <time>2021-03-30T11:41:07.000Z</time>
      </trkpt>
      <trkpt lat="49.87287" lon="4.77642">
        <ele>241</ele>
        <time>2021-03-30T11:41:08.000Z</time>
      </trkpt>
      <trkpt lat="49.87289" lon="4.77642">
        <ele>241</ele>
        <time>2021-03-30T11:41:09.000Z</time>
      </trkpt>
      <trkpt lat="49.87291" lon="4.77642">
        <ele>242</ele>
        <time>2021-03-30T11:41:10.000Z</time>
      </trkpt>
      <trkpt lat="49.87293" lon="4.77642">
        <ele>242</ele>
        <time>2021-03-30T11:41:11.000Z</time>
      </trkpt>
      <trkpt lat="49.87294" lon="4.77643">
        <ele>242</ele>
        <time>2021-03-30T11:41:12.000Z</time>
      </trkpt>
      <trkpt lat="49.87297" lon="4.77643">
        <ele>243</ele>
        <time>2021-03-30T11:41:13.000Z</time>
      </trkpt>
      <trkpt lat="49.87299" lon="4.77644">
        <ele>243</ele>
        <time>2021-03-30T11:41:14.000Z</time>
      </trkpt>
      <trkpt lat="49.87301" lon="4.77645">
        <ele>243</ele>
        <time>2021-03-30T11:41:15.000Z</time>
      </trkpt>
      <trkpt lat="49.87303" lon="4.77645">
        <ele>243</ele>
        <time>2021-03-30T11:41:16.000Z</time>
      </trkpt>
      <trkpt lat="49.87304" lon="4.77646">
        <ele>244</ele>
        <time>2021-03-30T11:41:17.000Z</time>
      </trkpt>
      <trkpt lat="49.87306" lon="4.77647">
        <ele>244</ele>
        <time>2021-03-30T11:41:18.000Z</time>
      </trkpt>
      <trkpt lat="49.87308" lon="4.77648">
        <ele>245</ele>
        <time>2021-03-30T11:41:19.000Z</time>
      </trkpt>
      <trkpt lat="49.8731" lon="4.77649">
        <ele>245</ele>
        <time>2021-03-30T11:41:20.000Z</time>
      </trkpt>
      <trkpt lat="49.87312" lon="4.7765">
        <ele>245</ele>
        <time>2021-03-30T11:41:21.000Z</time>
      </trkpt>
      <trkpt lat="49.87313" lon="4.77651">
        <ele>246</ele>
        <time>2021-03-30T11:41:22.000Z</time>
      </trkpt>
      <trkpt lat="49.87315" lon="4.77652">
        <ele>246</ele>
        <time>2021-03-30T11:41:23.000Z</time>
      </trkpt>
      <trkpt lat="49.87317" lon="4.77653">
        <ele>246</ele>
        <time>2021-03-30T11:41:24.000Z</time>
      </trkpt>
      <trkpt lat="49.87319" lon="4.77655">
        <ele>247</ele>
        <time>2021-03-30T11:41:25.000Z</time>
      </trkpt>
      <trkpt lat="49.87321" lon="4.77655">
        <ele>247</ele>
        <time>2021-03-30T11:41:26.000Z</time>
      </trkpt>
      <trkpt lat="49.87324" lon="4.77656">
        <ele>247</ele>
        <time>2021-03-30T11:41:27.000Z</time>
      </trkpt>
      <trkpt lat="49.87326" lon="4.77657">
        <ele>247</ele>
        <time>2021-03-30T11:41:28.000Z</time>
      </trkpt>
      <trkpt lat="49.87328" lon="4.77658">
        <ele>248</ele>
        <time>2021-03-30T11:41:29.000Z</time>
      </trkpt>
      <trkpt lat="49.8733" lon="4.77659">
        <ele>248</ele>
        <time>2021-03-30T11:41:30.000Z</time>
      </trkpt>
      <trkpt lat="49.87333" lon="4.7766">
        <ele>248</ele>
        <time>2021-03-30T11:41:31.000Z</time>
      </trkpt>
      <trkpt lat="49.87335" lon="4.77661">
        <ele>248</ele>
        <time>2021-03-30T11:41:32.000Z</time>
      </trkpt>
      <trkpt lat="49.87337" lon="4.77661">
        <ele>248</ele>
        <time>2021-03-30T11:41:33.000Z</time>
      </trkpt>
      <trkpt lat="49.87339" lon="4.77662">
        <ele>248</ele>
        <time>2021-03-30T11:41:34.000Z</time>
      </trkpt>
      <trkpt lat="49.87341" lon="4.77664">
        <ele>248</ele>
        <time>2021-03-30T11:41:35.000Z</time>
      </trkpt>
      <trkpt lat="49.87342" lon="4.77665">
        <ele>248</ele>
        <time>2021-03-30T11:41:36.000Z</time>
      </trkpt>
      <trkpt lat="49.87344" lon="4.77667">
        <ele>248</ele>
        <time>2021-03-30T11:41:37.000Z</time>
      </trkpt>
      <trkpt lat="49.87345" lon="4.77669">
        <ele>248</ele>
        <time>2021-03-30T11:41:38.000Z</time>
      </trkpt>
      <trkpt lat="49.87346" lon="4.7767">
        <ele>248</ele>
        <time>2021-03-30T11:41:39.000Z</time>
      </trkpt>
      <trkpt lat="49.87347" lon="4.77671">
        <ele>249</ele>
        <time>2021-03-30T11:41:40.000Z</time>
      </trkpt>
      <trkpt lat="49.87348" lon="4.77673">
        <ele>249</ele>
        <time>2021-03-30T11:41:41.000Z</time>
      </trkpt>
      <trkpt lat="49.87349" lon="4.77673">
        <ele>249</ele>
        <time>2021-03-30T11:41:42.000Z</time>
      </trkpt>
      <trkpt lat="49.87351" lon="4.77674">
        <ele>249</ele>
        <time>2021-03-30T11:41:43.000Z</time>
      </trkpt>
      <trkpt lat="49.87353" lon="4.77676">
        <ele>249</ele>
        <time>2021-03-30T11:41:44.000Z</time>
      </trkpt>
      <trkpt lat="49.87355" lon="4.77678">
        <ele>249</ele>
        <time>2021-03-30T11:41:45.000Z</time>
      </trkpt>
      <trkpt lat="49.87357" lon="4.77679">
        <ele>249</ele>
        <time>2021-03-30T11:41:46.000Z</time>
      </trkpt>
      <trkpt lat="49.87359" lon="4.7768">
        <ele>249</ele>
        <time>2021-03-30T11:41:47.000Z</time>
      </trkpt>
      <trkpt lat="49.87361" lon="4.77682">
        <ele>249</ele>
        <time>2021-03-30T11:41:48.000Z</time>
      </trkpt>
      <trkpt lat="49.87362" lon="4.77684">
        <ele>249</ele>
        <time>2021-03-30T11:41:49.000Z</time>
      </trkpt>
      <trkpt lat="49.87364" lon="4.77685">
        <ele>249</ele>
        <time>2021-03-30T11:41:50.000Z</time>
      </trkpt>
      <trkpt lat="49.87366" lon="4.77686">
        <ele>249</ele>
        <time>2021-03-30T11:41:51.000Z</time>
      </trkpt>
      <trkpt lat="49.87368" lon="4.77686">
        <ele>249</ele>
        <time>2021-03-30T11:41:52.000Z</time>
      </trkpt>
      <trkpt lat="49.87369" lon="4.77685">
        <ele>249</ele>
        <time>2021-03-30T11:41:53.000Z</time>
      </trkpt>
      <trkpt lat="49.8737" lon="4.77683">
        <ele>250</ele>
        <time>2021-03-30T11:41:54.000Z</time>
      </trkpt>
      <trkpt lat="49.87371" lon="4.77681">
        <ele>250</ele>
        <time>2021-03-30T11:41:55.000Z</time>
      </trkpt>
      <trkpt lat="49.87371" lon="4.7768">
        <ele>250</ele>
        <time>2021-03-30T11:41:56.000Z</time>
      </trkpt>
      <trkpt lat="49.8737" lon="4.77679">
        <ele>250</ele>
        <time>2021-03-30T11:41:57.000Z</time>
      </trkpt>
      <trkpt lat="49.87369" lon="4.77677">
        <ele>251</ele>
        <time>2021-03-30T11:41:58.000Z</time>
      </trkpt>
      <trkpt lat="49.87367" lon="4.77675">
        <ele>251</ele>
        <time>2021-03-30T11:41:59.000Z</time>
      </trkpt>
      <trkpt lat="49.87366" lon="4.77673">
        <ele>251</ele>
        <time>2021-03-30T11:42:00.000Z</time>
      </trkpt>
      <trkpt lat="49.87365" lon="4.77671">
        <ele>251</ele>
        <time>2021-03-30T11:42:01.000Z</time>
      </trkpt>
      <trkpt lat="49.87364" lon="4.77669">
        <ele>251</ele>
        <time>2021-03-30T11:42:02.000Z</time>
      </trkpt>
      <trkpt lat="49.87363" lon="4.77667">
        <ele>252</ele>
        <time>2021-03-30T11:42:03.000Z</time>
      </trkpt>
      <trkpt lat="49.87361" lon="4.77665">
        <ele>252</ele>
        <time>2021-03-30T11:42:04.000Z</time>
      </trkpt>
      <trkpt lat="49.8736" lon="4.77663">
        <ele>252</ele>
        <time>2021-03-30T11:42:05.000Z</time>
      </trkpt>
      <trkpt lat="49.87359" lon="4.7766">
        <ele>252</ele>
        <time>2021-03-30T11:42:06.000Z</time>
      </trkpt>
      <trkpt lat="49.87358" lon="4.77658">
        <ele>253</ele>
        <time>2021-03-30T11:42:07.000Z</time>
      </trkpt>
      <trkpt lat="49.87357" lon="4.77655">
        <ele>253</ele>
        <time>2021-03-30T11:42:08.000Z</time>
      </trkpt>
      <trkpt lat="49.87355" lon="4.77652">
        <ele>253</ele>
        <time>2021-03-30T11:42:09.000Z</time>
      </trkpt>
      <trkpt lat="49.87354" lon="4.77649">
        <ele>253</ele>
        <time>2021-03-30T11:42:10.000Z</time>
      </trkpt>
      <trkpt lat="49.87353" lon="4.77646">
        <ele>253</ele>
        <time>2021-03-30T11:42:11.000Z</time>
      </trkpt>
      <trkpt lat="49.87352" lon="4.77642">
        <ele>253</ele>
        <time>2021-03-30T11:42:12.000Z</time>
      </trkpt>
      <trkpt lat="49.87351" lon="4.77639">
        <ele>253</ele>
        <time>2021-03-30T11:42:13.000Z</time>
      </trkpt>
      <trkpt lat="49.8735" lon="4.77635">
        <ele>254</ele>
        <time>2021-03-30T11:42:14.000Z</time>
      </trkpt>
      <trkpt lat="49.87348" lon="4.77632">
        <ele>254</ele>
        <time>2021-03-30T11:42:15.000Z</time>
      </trkpt>
      <trkpt lat="49.87347" lon="4.77628">
        <ele>254</ele>
        <time>2021-03-30T11:42:16.000Z</time>
      </trkpt>
      <trkpt lat="49.87346" lon="4.77625">
        <ele>254</ele>
        <time>2021-03-30T11:42:17.000Z</time>
      </trkpt>
      <trkpt lat="49.87345" lon="4.77622">
        <ele>255</ele>
        <time>2021-03-30T11:42:18.000Z</time>
      </trkpt>
      <trkpt lat="49.87343" lon="4.77619">
        <ele>255</ele>
        <time>2021-03-30T11:42:19.000Z</time>
      </trkpt>
      <trkpt lat="49.87342" lon="4.77616">
        <ele>255</ele>
        <time>2021-03-30T11:42:20.000Z</time>
      </trkpt>
      <trkpt lat="49.87341" lon="4.77613">
        <ele>256</ele>
        <time>2021-03-30T11:42:21.000Z</time>
      </trkpt>
      <trkpt lat="49.8734" lon="4.7761">
        <ele>256</ele>
        <time>2021-03-30T11:42:22.000Z</time>
      </trkpt>
      <trkpt lat="49.87339" lon="4.77607">
        <ele>256</ele>
        <time>2021-03-30T11:42:23.000Z</time>
      </trkpt>
      <trkpt lat="49.87338" lon="4.77604">
        <ele>256</ele>
        <time>2021-03-30T11:42:24.000Z</time>
      </trkpt>
      <trkpt lat="49.87337" lon="4.77601">
        <ele>257</ele>
        <time>2021-03-30T11:42:25.000Z</time>
      </trkpt>
      <trkpt lat="49.87336" lon="4.77598">
        <ele>257</ele>
        <time>2021-03-30T11:42:26.000Z</time>
      </trkpt>
      <trkpt lat="49.87335" lon="4.77596">
        <ele>257</ele>
        <time>2021-03-30T11:42:27.000Z</time>
      </trkpt>
      <trkpt lat="49.87334" lon="4.77593">
        <ele>258</ele>
        <time>2021-03-30T11:42:28.000Z</time>
      </trkpt>
      <trkpt lat="49.87332" lon="4.7759">
        <ele>258</ele>
        <time>2021-03-30T11:42:29.000Z</time>
      </trkpt>
      <trkpt lat="49.87331" lon="4.77587">
        <ele>258</ele>
        <time>2021-03-30T11:42:30.000Z</time>
      </trkpt>
      <trkpt lat="49.87329" lon="4.77584">
        <ele>259</ele>
        <time>2021-03-30T11:42:31.000Z</time>
      </trkpt>
      <trkpt lat="49.87328" lon="4.77581">
        <ele>259</ele>
        <time>2021-03-30T11:42:32.000Z</time>
      </trkpt>
      <trkpt lat="49.87326" lon="4.77578">
        <ele>259</ele>
        <time>2021-03-30T11:42:33.000Z</time>
      </trkpt>
      <trkpt lat="49.87325" lon="4.77575">
        <ele>259</ele>
        <time>2021-03-30T11:42:34.000Z</time>
      </trkpt>
      <trkpt lat="49.87325" lon="4.77571">
        <ele>259</ele>
        <time>2021-03-30T11:42:35.000Z</time>
      </trkpt>
      <trkpt lat="49.87324" lon="4.77568">
        <ele>259</ele>
        <time>2021-03-30T11:42:36.000Z</time>
      </trkpt>
      <trkpt lat="49.87322" lon="4.77565">
        <ele>260</ele>
        <time>2021-03-30T11:42:37.000Z</time>
      </trkpt>
      <trkpt lat="49.87321" lon="4.77562">
        <ele>260</ele>
        <time>2021-03-30T11:42:38.000Z</time>
      </trkpt>
      <trkpt lat="49.8732" lon="4.77559">
        <ele>260</ele>
        <time>2021-03-30T11:42:39.000Z</time>
      </trkpt>
      <trkpt lat="49.87319" lon="4.77555">
        <ele>260</ele>
        <time>2021-03-30T11:42:40.000Z</time>
      </trkpt>
      <trkpt lat="49.87318" lon="4.77552">
        <ele>260</ele>
        <time>2021-03-30T11:42:41.000Z</time>
      </trkpt>
      <trkpt lat="49.87317" lon="4.77549">
        <ele>260</ele>
        <time>2021-03-30T11:42:42.000Z</time>
      </trkpt>
      <trkpt lat="49.87316" lon="4.77546">
        <ele>260</ele>
        <time>2021-03-30T11:42:43.000Z</time>
      </trkpt>
      <trkpt lat="49.87315" lon="4.77543">
        <ele>260</ele>
        <time>2021-03-30T11:42:44.000Z</time>
      </trkpt>
      <trkpt lat="49.87315" lon="4.7754">
        <ele>261</ele>
        <time>2021-03-30T11:42:45.000Z</time>
      </trkpt>
      <trkpt lat="49.87314" lon="4.77537">
        <ele>261</ele>
        <time>2021-03-30T11:42:46.000Z</time>
      </trkpt>
      <trkpt lat="49.87312" lon="4.77535">
        <ele>261</ele>
        <time>2021-03-30T11:42:47.000Z</time>
      </trkpt>
      <trkpt lat="49.87312" lon="4.77532">
        <ele>262</ele>
        <time>2021-03-30T11:42:48.000Z</time>
      </trkpt>
      <trkpt lat="49.8731" lon="4.77529">
        <ele>262</ele>
        <time>2021-03-30T11:42:49.000Z</time>
      </trkpt>
      <trkpt lat="49.87309" lon="4.77526">
        <ele>263</ele>
        <time>2021-03-30T11:42:50.000Z</time>
      </trkpt>
      <trkpt lat="49.87308" lon="4.77523">
        <ele>263</ele>
        <time>2021-03-30T11:42:51.000Z</time>
      </trkpt>
      <trkpt lat="49.87306" lon="4.7752">
        <ele>264</ele>
        <time>2021-03-30T11:42:52.000Z</time>
      </trkpt>
      <trkpt lat="49.87304" lon="4.77517">
        <ele>264</ele>
        <time>2021-03-30T11:42:53.000Z</time>
      </trkpt>
      <trkpt lat="49.87303" lon="4.77514">
        <ele>264</ele>
        <time>2021-03-30T11:42:54.000Z</time>
      </trkpt>
      <trkpt lat="49.87301" lon="4.77511">
        <ele>265</ele>
        <time>2021-03-30T11:42:55.000Z</time>
      </trkpt>
      <trkpt lat="49.873" lon="4.77509">
        <ele>265</ele>
        <time>2021-03-30T11:42:56.000Z</time>
      </trkpt>
      <trkpt lat="49.87299" lon="4.77507">
        <ele>266</ele>
        <time>2021-03-30T11:42:57.000Z</time>
      </trkpt>
      <trkpt lat="49.87298" lon="4.77504">
        <ele>266</ele>
        <time>2021-03-30T11:42:58.000Z</time>
      </trkpt>
      <trkpt lat="49.87297" lon="4.77502">
        <ele>267</ele>
        <time>2021-03-30T11:42:59.000Z</time>
      </trkpt>
      <trkpt lat="49.87296" lon="4.775">
        <ele>267</ele>
        <time>2021-03-30T11:43:00.000Z</time>
      </trkpt>
      <trkpt lat="49.87295" lon="4.77498">
        <ele>268</ele>
        <time>2021-03-30T11:43:01.000Z</time>
      </trkpt>
      <trkpt lat="49.87294" lon="4.77495">
        <ele>268</ele>
        <time>2021-03-30T11:43:02.000Z</time>
      </trkpt>
      <trkpt lat="49.87292" lon="4.77493">
        <ele>269</ele>
        <time>2021-03-30T11:43:03.000Z</time>
      </trkpt>
      <trkpt lat="49.87291" lon="4.77491">
        <ele>269</ele>
        <time>2021-03-30T11:43:04.000Z</time>
      </trkpt>
      <trkpt lat="49.8729" lon="4.77488">
        <ele>269</ele>
        <time>2021-03-30T11:43:05.000Z</time>
      </trkpt>
      <trkpt lat="49.87289" lon="4.77486">
        <ele>270</ele>
        <time>2021-03-30T11:43:06.000Z</time>
      </trkpt>
      <trkpt lat="49.87288" lon="4.77484">
        <ele>270</ele>
        <time>2021-03-30T11:43:07.000Z</time>
      </trkpt>
      <trkpt lat="49.87287" lon="4.77482">
        <ele>270</ele>
        <time>2021-03-30T11:43:08.000Z</time>
      </trkpt>
      <trkpt lat="49.87286" lon="4.77479">
        <ele>270</ele>
        <time>2021-03-30T11:43:09.000Z</time>
      </trkpt>
      <trkpt lat="49.87285" lon="4.77477">
        <ele>270</ele>
        <time>2021-03-30T11:43:10.000Z</time>
      </trkpt>
      <trkpt lat="49.87284" lon="4.77474">
        <ele>270</ele>
        <time>2021-03-30T11:43:11.000Z</time>
      </trkpt>
      <trkpt lat="49.87283" lon="4.77472">
        <ele>270</ele>
        <time>2021-03-30T11:43:12.000Z</time>
      </trkpt>
      <trkpt lat="49.87281" lon="4.77469">
        <ele>270</ele>
        <time>2021-03-30T11:43:13.000Z</time>
      </trkpt>
      <trkpt lat="49.8728" lon="4.77467">
        <ele>271</ele>
        <time>2021-03-30T11:43:14.000Z</time>
      </trkpt>
      <trkpt lat="49.87279" lon="4.77464">
        <ele>271</ele>
        <time>2021-03-30T11:43:15.000Z</time>
      </trkpt>
      <trkpt lat="49.87278" lon="4.77461">
        <ele>271</ele>
        <time>2021-03-30T11:43:16.000Z</time>
      </trkpt>
      <trkpt lat="49.87277" lon="4.77458">
        <ele>271</ele>
        <time>2021-03-30T11:43:17.000Z</time>
      </trkpt>
      <trkpt lat="49.87277" lon="4.77455">
        <ele>270</ele>
        <time>2021-03-30T11:43:18.000Z</time>
      </trkpt>
      <trkpt lat="49.87276" lon="4.77452">
        <ele>270</ele>
        <time>2021-03-30T11:43:19.000Z</time>
      </trkpt>
      <trkpt lat="49.87275" lon="4.77449">
        <ele>270</ele>
        <time>2021-03-30T11:43:20.000Z</time>
      </trkpt>
      <trkpt lat="49.87274" lon="4.77445">
        <ele>270</ele>
        <time>2021-03-30T11:43:21.000Z</time>
      </trkpt>
      <trkpt lat="49.87274" lon="4.77442">
        <ele>270</ele>
        <time>2021-03-30T11:43:22.000Z</time>
      </trkpt>
      <trkpt lat="49.87274" lon="4.77439">
        <ele>270</ele>
        <time>2021-03-30T11:43:23.000Z</time>
      </trkpt>
      <trkpt lat="49.87273" lon="4.77435">
        <ele>270</ele>
        <time>2021-03-30T11:43:24.000Z</time>
      </trkpt>
      <trkpt lat="49.87273" lon="4.77432">
        <ele>270</ele>
        <time>2021-03-30T11:43:25.000Z</time>
      </trkpt>
      <trkpt lat="49.87272" lon="4.77429">
        <ele>270</ele>
        <time>2021-03-30T11:43:26.000Z</time>
      </trkpt>
      <trkpt lat="49.87271" lon="4.77426">
        <ele>270</ele>
        <time>2021-03-30T11:43:27.000Z</time>
      </trkpt>
      <trkpt lat="49.8727" lon="4.77424">
        <ele>270</ele>
        <time>2021-03-30T11:43:28.000Z</time>
      </trkpt>
      <trkpt lat="49.87269" lon="4.77422">
        <ele>270</ele>
        <time>2021-03-30T11:43:29.000Z</time>
      </trkpt>
      <trkpt lat="49.87268" lon="4.7742">
        <ele>270</ele>
        <time>2021-03-30T11:43:30.000Z</time>
      </trkpt>
      <trkpt lat="49.87267" lon="4.77418">
        <ele>271</ele>
        <time>2021-03-30T11:43:31.000Z</time>
      </trkpt>
      <trkpt lat="49.87267" lon="4.77415">
        <ele>271</ele>
        <time>2021-03-30T11:43:32.000Z</time>
      </trkpt>
      <trkpt lat="49.87266" lon="4.77413">
        <ele>271</ele>
        <time>2021-03-30T11:43:33.000Z</time>
      </trkpt>
      <trkpt lat="49.87265" lon="4.77411">
        <ele>271</ele>
        <time>2021-03-30T11:43:34.000Z</time>
      </trkpt>
      <trkpt lat="49.87264" lon="4.77409">
        <ele>272</ele>
        <time>2021-03-30T11:43:35.000Z</time>
      </trkpt>
      <trkpt lat="49.87263" lon="4.77407">
        <ele>272</ele>
        <time>2021-03-30T11:43:36.000Z</time>
      </trkpt>
      <trkpt lat="49.87261" lon="4.77405">
        <ele>272</ele>
        <time>2021-03-30T11:43:37.000Z</time>
      </trkpt>
      <trkpt lat="49.8726" lon="4.77404">
        <ele>272</ele>
        <time>2021-03-30T11:43:38.000Z</time>
      </trkpt>
      <trkpt lat="49.87258" lon="4.77402">
        <ele>272</ele>
        <time>2021-03-30T11:43:39.000Z</time>
      </trkpt>
      <trkpt lat="49.87256" lon="4.77401">
        <ele>273</ele>
        <time>2021-03-30T11:43:40.000Z</time>
      </trkpt>
      <trkpt lat="49.87255" lon="4.774">
        <ele>273</ele>
        <time>2021-03-30T11:43:41.000Z</time>
      </trkpt>
      <trkpt lat="49.87253" lon="4.77399">
        <ele>273</ele>
        <time>2021-03-30T11:43:42.000Z</time>
      </trkpt>
      <trkpt lat="49.87252" lon="4.77398">
        <ele>273</ele>
        <time>2021-03-30T11:43:43.000Z</time>
      </trkpt>
      <trkpt lat="49.87251" lon="4.77397">
        <ele>273</ele>
        <time>2021-03-30T11:43:44.000Z</time>
      </trkpt>
      <trkpt lat="49.8725" lon="4.77396">
        <ele>273</ele>
        <time>2021-03-30T11:43:45.000Z</time>
      </trkpt>
      <trkpt lat="49.87249" lon="4.77394">
        <ele>273</ele>
        <time>2021-03-30T11:43:46.000Z</time>
      </trkpt>
      <trkpt lat="49.87247" lon="4.77393">
        <ele>273</ele>
        <time>2021-03-30T11:43:47.000Z</time>
      </trkpt>
      <trkpt lat="49.87246" lon="4.77391">
        <ele>274</ele>
        <time>2021-03-30T11:43:48.000Z</time>
      </trkpt>
      <trkpt lat="49.87245" lon="4.7739">
        <ele>274</ele>
        <time>2021-03-30T11:43:49.000Z</time>
      </trkpt>
      <trkpt lat="49.87243" lon="4.77388">
        <ele>274</ele>
        <time>2021-03-30T11:43:50.000Z</time>
      </trkpt>
      <trkpt lat="49.87242" lon="4.77387">
        <ele>274</ele>
        <time>2021-03-30T11:43:51.000Z</time>
      </trkpt>
      <trkpt lat="49.87241" lon="4.77385">
        <ele>274</ele>
        <time>2021-03-30T11:43:52.000Z</time>
      </trkpt>
      <trkpt lat="49.8724" lon="4.77383">
        <ele>274</ele>
        <time>2021-03-30T11:43:53.000Z</time>
      </trkpt>
      <trkpt lat="49.87239" lon="4.77381">
        <ele>274</ele>
        <time>2021-03-30T11:43:54.000Z</time>
      </trkpt>
      <trkpt lat="49.87238" lon="4.77379">
        <ele>274</ele>
        <time>2021-03-30T11:43:55.000Z</time>
      </trkpt>
      <trkpt lat="49.87237" lon="4.77377">
        <ele>274</ele>
        <time>2021-03-30T11:43:56.000Z</time>
      </trkpt>
      <trkpt lat="49.87235" lon="4.77375">
        <ele>274</ele>
        <time>2021-03-30T11:43:57.000Z</time>
      </trkpt>
      <trkpt lat="49.87234" lon="4.77374">
        <ele>274</ele>
        <time>2021-03-30T11:43:58.000Z</time>
      </trkpt>
      <trkpt lat="49.87233" lon="4.77372">
        <ele>274</ele>
        <time>2021-03-30T11:43:59.000Z</time>
      </trkpt>
      <trkpt lat="49.87231" lon="4.77372">
        <ele>275</ele>
        <time>2021-03-30T11:44:00.000Z</time>
      </trkpt>
      <trkpt lat="49.8723" lon="4.77371">
        <ele>275</ele>
        <time>2021-03-30T11:44:01.000Z</time>
      </trkpt>
      <trkpt lat="49.87228" lon="4.77369">
        <ele>274</ele>
        <time>2021-03-30T11:44:02.000Z</time>
      </trkpt>
      <trkpt lat="49.87227" lon="4.77367">
        <ele>274</ele>
        <time>2021-03-30T11:44:03.000Z</time>
      </trkpt>
      <trkpt lat="49.87226" lon="4.77365">
        <ele>274</ele>
        <time>2021-03-30T11:44:04.000Z</time>
      </trkpt>
      <trkpt lat="49.87224" lon="4.77363">
        <ele>274</ele>
        <time>2021-03-30T11:44:05.000Z</time>
      </trkpt>
      <trkpt lat="49.87222" lon="4.77362">
        <ele>274</ele>
        <time>2021-03-30T11:44:06.000Z</time>
      </trkpt>
      <trkpt lat="49.87221" lon="4.7736">
        <ele>274</ele>
        <time>2021-03-30T11:44:07.000Z</time>
      </trkpt>
      <trkpt lat="49.8722" lon="4.77359">
        <ele>274</ele>
        <time>2021-03-30T11:44:08.000Z</time>
      </trkpt>
      <trkpt lat="49.87218" lon="4.77358">
        <ele>275</ele>
        <time>2021-03-30T11:44:09.000Z</time>
      </trkpt>
      <trkpt lat="49.87217" lon="4.77356">
        <ele>275</ele>
        <time>2021-03-30T11:44:10.000Z</time>
      </trkpt>
      <trkpt lat="49.87216" lon="4.77354">
        <ele>275</ele>
        <time>2021-03-30T11:44:11.000Z</time>
      </trkpt>
      <trkpt lat="49.87215" lon="4.77352">
        <ele>275</ele>
        <time>2021-03-30T11:44:12.000Z</time>
      </trkpt>
      <trkpt lat="49.87214" lon="4.7735">
        <ele>275</ele>
        <time>2021-03-30T11:44:13.000Z</time>
      </trkpt>
      <trkpt lat="49.87212" lon="4.77348">
        <ele>275</ele>
        <time>2021-03-30T11:44:14.000Z</time>
      </trkpt>
      <trkpt lat="49.87211" lon="4.77346">
        <ele>275</ele>
        <time>2021-03-30T11:44:15.000Z</time>
      </trkpt>
      <trkpt lat="49.8721" lon="4.77344">
        <ele>275</ele>
        <time>2021-03-30T11:44:16.000Z</time>
      </trkpt>
      <trkpt lat="49.87208" lon="4.77342">
        <ele>275</ele>
        <time>2021-03-30T11:44:17.000Z</time>
      </trkpt>
      <trkpt lat="49.87207" lon="4.7734">
        <ele>275</ele>
        <time>2021-03-30T11:44:18.000Z</time>
      </trkpt>
      <trkpt lat="49.87206" lon="4.77337">
        <ele>276</ele>
        <time>2021-03-30T11:44:19.000Z</time>
      </trkpt>
      <trkpt lat="49.87205" lon="4.77335">
        <ele>276</ele>
        <time>2021-03-30T11:44:20.000Z</time>
      </trkpt>
      <trkpt lat="49.87203" lon="4.77332">
        <ele>276</ele>
        <time>2021-03-30T11:44:21.000Z</time>
      </trkpt>
      <trkpt lat="49.87202" lon="4.77329">
        <ele>276</ele>
        <time>2021-03-30T11:44:22.000Z</time>
      </trkpt>
      <trkpt lat="49.87201" lon="4.77326">
        <ele>276</ele>
        <time>2021-03-30T11:44:23.000Z</time>
      </trkpt>
      <trkpt lat="49.872" lon="4.77323">
        <ele>276</ele>
        <time>2021-03-30T11:44:24.000Z</time>
      </trkpt>
      <trkpt lat="49.87199" lon="4.7732">
        <ele>277</ele>
        <time>2021-03-30T11:44:25.000Z</time>
      </trkpt>
      <trkpt lat="49.87198" lon="4.77318">
        <ele>277</ele>
        <time>2021-03-30T11:44:26.000Z</time>
      </trkpt>
      <trkpt lat="49.87197" lon="4.77315">
        <ele>277</ele>
        <time>2021-03-30T11:44:27.000Z</time>
      </trkpt>
      <trkpt lat="49.87196" lon="4.77313">
        <ele>277</ele>
        <time>2021-03-30T11:44:28.000Z</time>
      </trkpt>
      <trkpt lat="49.87195" lon="4.77311">
        <ele>278</ele>
        <time>2021-03-30T11:44:29.000Z</time>
      </trkpt>
      <trkpt lat="49.87194" lon="4.77308">
        <ele>278</ele>
        <time>2021-03-30T11:44:30.000Z</time>
      </trkpt>
      <trkpt lat="49.87194" lon="4.77306">
        <ele>278</ele>
        <time>2021-03-30T11:44:31.000Z</time>
      </trkpt>
      <trkpt lat="49.87193" lon="4.77303">
        <ele>279</ele>
        <time>2021-03-30T11:44:32.000Z</time>
      </trkpt>
      <trkpt lat="49.87192" lon="4.773">
        <ele>279</ele>
        <time>2021-03-30T11:44:33.000Z</time>
      </trkpt>
      <trkpt lat="49.87191" lon="4.77297">
        <ele>279</ele>
        <time>2021-03-30T11:44:34.000Z</time>
      </trkpt>
      <trkpt lat="49.8719" lon="4.77294">
        <ele>280</ele>
        <time>2021-03-30T11:44:35.000Z</time>
      </trkpt>
      <trkpt lat="49.87189" lon="4.77292">
        <ele>280</ele>
        <time>2021-03-30T11:44:36.000Z</time>
      </trkpt>
      <trkpt lat="49.87188" lon="4.7729">
        <ele>280</ele>
        <time>2021-03-30T11:44:37.000Z</time>
      </trkpt>
      <trkpt lat="49.87187" lon="4.77287">
        <ele>281</ele>
        <time>2021-03-30T11:44:38.000Z</time>
      </trkpt>
      <trkpt lat="49.87186" lon="4.77284">
        <ele>281</ele>
        <time>2021-03-30T11:44:39.000Z</time>
      </trkpt>
      <trkpt lat="49.87185" lon="4.7728">
        <ele>281</ele>
        <time>2021-03-30T11:44:40.000Z</time>
      </trkpt>
      <trkpt lat="49.87184" lon="4.77277">
        <ele>282</ele>
        <time>2021-03-30T11:44:41.000Z</time>
      </trkpt>
      <trkpt lat="49.87183" lon="4.77274">
        <ele>282</ele>
        <time>2021-03-30T11:44:42.000Z</time>
      </trkpt>
      <trkpt lat="49.87182" lon="4.7727">
        <ele>282</ele>
        <time>2021-03-30T11:44:43.000Z</time>
      </trkpt>
      <trkpt lat="49.87181" lon="4.77267">
        <ele>282</ele>
        <time>2021-03-30T11:44:44.000Z</time>
      </trkpt>
      <trkpt lat="49.8718" lon="4.77264">
        <ele>283</ele>
        <time>2021-03-30T11:44:45.000Z</time>
      </trkpt>
      <trkpt lat="49.87179" lon="4.77261">
        <ele>283</ele>
        <time>2021-03-30T11:44:46.000Z</time>
      </trkpt>
      <trkpt lat="49.87178" lon="4.77258">
        <ele>283</ele>
        <time>2021-03-30T11:44:47.000Z</time>
      </trkpt>
      <trkpt lat="49.87177" lon="4.77255">
        <ele>284</ele>
        <time>2021-03-30T11:44:48.000Z</time>
      </trkpt>
      <trkpt lat="49.87177" lon="4.77252">
        <ele>284</ele>
        <time>2021-03-30T11:44:49.000Z</time>
      </trkpt>
      <trkpt lat="49.87176" lon="4.77249">
        <ele>284</ele>
        <time>2021-03-30T11:44:50.000Z</time>
      </trkpt>
      <trkpt lat="49.87175" lon="4.77246">
        <ele>284</ele>
        <time>2021-03-30T11:44:51.000Z</time>
      </trkpt>
      <trkpt lat="49.87175" lon="4.77244">
        <ele>285</ele>
        <time>2021-03-30T11:44:52.000Z</time>
      </trkpt>
      <trkpt lat="49.87174" lon="4.77241">
        <ele>285</ele>
        <time>2021-03-30T11:44:53.000Z</time>
      </trkpt>
      <trkpt lat="49.87174" lon="4.77238">
        <ele>285</ele>
        <time>2021-03-30T11:44:54.000Z</time>
      </trkpt>
      <trkpt lat="49.87173" lon="4.77235">
        <ele>286</ele>
        <time>2021-03-30T11:44:55.000Z</time>
      </trkpt>
      <trkpt lat="49.87173" lon="4.77232">
        <ele>286</ele>
        <time>2021-03-30T11:44:56.000Z</time>
      </trkpt>
      <trkpt lat="49.87172" lon="4.77229">
        <ele>286</ele>
        <time>2021-03-30T11:44:57.000Z</time>
      </trkpt>
      <trkpt lat="49.87171" lon="4.77226">
        <ele>286</ele>
        <time>2021-03-30T11:44:58.000Z</time>
      </trkpt>
      <trkpt lat="49.8717" lon="4.77223">
        <ele>287</ele>
        <time>2021-03-30T11:44:59.000Z</time>
      </trkpt>
      <trkpt lat="49.87169" lon="4.77221">
        <ele>287</ele>
        <time>2021-03-30T11:45:00.000Z</time>
      </trkpt>
      <trkpt lat="49.87169" lon="4.77218">
        <ele>287</ele>
        <time>2021-03-30T11:45:01.000Z</time>
      </trkpt>
      <trkpt lat="49.87168" lon="4.77217">
        <ele>288</ele>
        <time>2021-03-30T11:45:02.000Z</time>
      </trkpt>
      <trkpt lat="49.87167" lon="4.77214">
        <ele>288</ele>
        <time>2021-03-30T11:45:03.000Z</time>
      </trkpt>
      <trkpt lat="49.87166" lon="4.77212">
        <ele>288</ele>
        <time>2021-03-30T11:45:04.000Z</time>
      </trkpt>
      <trkpt lat="49.87165" lon="4.77209">
        <ele>288</ele>
        <time>2021-03-30T11:45:05.000Z</time>
      </trkpt>
      <trkpt lat="49.87164" lon="4.77206">
        <ele>288</ele>
        <time>2021-03-30T11:45:06.000Z</time>
      </trkpt>
      <trkpt lat="49.87163" lon="4.77203">
        <ele>289</ele>
        <time>2021-03-30T11:45:07.000Z</time>
      </trkpt>
      <trkpt lat="49.87162" lon="4.77201">
        <ele>289</ele>
        <time>2021-03-30T11:45:08.000Z</time>
      </trkpt>
      <trkpt lat="49.87161" lon="4.77197">
        <ele>289</ele>
        <time>2021-03-30T11:45:09.000Z</time>
      </trkpt>
      <trkpt lat="49.8716" lon="4.77194">
        <ele>289</ele>
        <time>2021-03-30T11:45:10.000Z</time>
      </trkpt>
      <trkpt lat="49.8716" lon="4.77191">
        <ele>289</ele>
        <time>2021-03-30T11:45:11.000Z</time>
      </trkpt>
      <trkpt lat="49.87159" lon="4.77188">
        <ele>289</ele>
        <time>2021-03-30T11:45:12.000Z</time>
      </trkpt>
      <trkpt lat="49.87159" lon="4.77185">
        <ele>289</ele>
        <time>2021-03-30T11:45:13.000Z</time>
      </trkpt>
      <trkpt lat="49.87158" lon="4.77182">
        <ele>289</ele>
        <time>2021-03-30T11:45:14.000Z</time>
      </trkpt>
      <trkpt lat="49.87158" lon="4.77179">
        <ele>289</ele>
        <time>2021-03-30T11:45:15.000Z</time>
      </trkpt>
      <trkpt lat="49.87158" lon="4.77175">
        <ele>289</ele>
        <time>2021-03-30T11:45:16.000Z</time>
      </trkpt>
      <trkpt lat="49.87157" lon="4.77172">
        <ele>289</ele>
        <time>2021-03-30T11:45:17.000Z</time>
      </trkpt>
      <trkpt lat="49.87157" lon="4.77169">
        <ele>289</ele>
        <time>2021-03-30T11:45:18.000Z</time>
      </trkpt>
      <trkpt lat="49.87157" lon="4.77165">
        <ele>289</ele>
        <time>2021-03-30T11:45:19.000Z</time>
      </trkpt>
      <trkpt lat="49.87156" lon="4.77162">
        <ele>289</ele>
        <time>2021-03-30T11:45:20.000Z</time>
      </trkpt>
      <trkpt lat="49.87156" lon="4.77159">
        <ele>290</ele>
        <time>2021-03-30T11:45:21.000Z</time>
      </trkpt>
      <trkpt lat="49.87155" lon="4.77156">
        <ele>290</ele>
        <time>2021-03-30T11:45:22.000Z</time>
      </trkpt>
      <trkpt lat="49.87155" lon="4.77153">
        <ele>290</ele>
        <time>2021-03-30T11:45:23.000Z</time>
      </trkpt>
      <trkpt lat="49.87154" lon="4.7715">
        <ele>290</ele>
        <time>2021-03-30T11:45:24.000Z</time>
      </trkpt>
      <trkpt lat="49.87154" lon="4.77147">
        <ele>290</ele>
        <time>2021-03-30T11:45:25.000Z</time>
      </trkpt>
      <trkpt lat="49.87154" lon="4.77144">
        <ele>290</ele>
        <time>2021-03-30T11:45:26.000Z</time>
      </trkpt>
      <trkpt lat="49.87154" lon="4.77141">
        <ele>290</ele>
        <time>2021-03-30T11:45:27.000Z</time>
      </trkpt>
      <trkpt lat="49.87153" lon="4.77138">
        <ele>291</ele>
        <time>2021-03-30T11:45:28.000Z</time>
      </trkpt>
      <trkpt lat="49.87153" lon="4.77135">
        <ele>291</ele>
        <time>2021-03-30T11:45:29.000Z</time>
      </trkpt>
      <trkpt lat="49.87153" lon="4.77131">
        <ele>291</ele>
        <time>2021-03-30T11:45:30.000Z</time>
      </trkpt>
      <trkpt lat="49.87152" lon="4.77128">
        <ele>291</ele>
        <time>2021-03-30T11:45:31.000Z</time>
      </trkpt>
      <trkpt lat="49.87151" lon="4.77125">
        <ele>291</ele>
        <time>2021-03-30T11:45:32.000Z</time>
      </trkpt>
      <trkpt lat="49.87151" lon="4.77122">
        <ele>291</ele>
        <time>2021-03-30T11:45:33.000Z</time>
      </trkpt>
      <trkpt lat="49.8715" lon="4.77119">
        <ele>292</ele>
        <time>2021-03-30T11:45:34.000Z</time>
      </trkpt>
      <trkpt lat="49.87149" lon="4.77116">
        <ele>292</ele>
        <time>2021-03-30T11:45:35.000Z</time>
      </trkpt>
      <trkpt lat="49.87148" lon="4.77113">
        <ele>292</ele>
        <time>2021-03-30T11:45:36.000Z</time>
      </trkpt>
      <trkpt lat="49.87147" lon="4.7711">
        <ele>292</ele>
        <time>2021-03-30T11:45:37.000Z</time>
      </trkpt>
      <trkpt lat="49.87147" lon="4.77107">
        <ele>292</ele>
        <time>2021-03-30T11:45:38.000Z</time>
      </trkpt>
      <trkpt lat="49.87146" lon="4.77104">
        <ele>292</ele>
        <time>2021-03-30T11:45:39.000Z</time>
      </trkpt>
      <trkpt lat="49.87146" lon="4.77102">
        <ele>293</ele>
        <time>2021-03-30T11:45:40.000Z</time>
      </trkpt>
      <trkpt lat="49.87145" lon="4.77099">
        <ele>293</ele>
        <time>2021-03-30T11:45:41.000Z</time>
      </trkpt>
      <trkpt lat="49.87144" lon="4.77096">
        <ele>293</ele>
        <time>2021-03-30T11:45:42.000Z</time>
      </trkpt>
      <trkpt lat="49.87143" lon="4.77094">
        <ele>293</ele>
        <time>2021-03-30T11:45:43.000Z</time>
      </trkpt>
      <trkpt lat="49.87143" lon="4.77091">
        <ele>293</ele>
        <time>2021-03-30T11:45:44.000Z</time>
      </trkpt>
      <trkpt lat="49.87142" lon="4.77088">
        <ele>294</ele>
        <time>2021-03-30T11:45:45.000Z</time>
      </trkpt>
      <trkpt lat="49.87142" lon="4.77086">
        <ele>294</ele>
        <time>2021-03-30T11:45:46.000Z</time>
      </trkpt>
      <trkpt lat="49.87143" lon="4.77083">
        <ele>294</ele>
        <time>2021-03-30T11:45:47.000Z</time>
      </trkpt>
      <trkpt lat="49.87144" lon="4.77081">
        <ele>294</ele>
        <time>2021-03-30T11:45:48.000Z</time>
      </trkpt>
      <trkpt lat="49.87146" lon="4.7708">
        <ele>294</ele>
        <time>2021-03-30T11:45:49.000Z</time>
      </trkpt>
      <trkpt lat="49.87147" lon="4.77079">
        <ele>294</ele>
        <time>2021-03-30T11:45:50.000Z</time>
      </trkpt>
      <trkpt lat="49.87148" lon="4.77079">
        <ele>294</ele>
        <time>2021-03-30T11:45:51.000Z</time>
      </trkpt>
      <trkpt lat="49.8715" lon="4.77078">
        <ele>294</ele>
        <time>2021-03-30T11:45:52.000Z</time>
      </trkpt>
      <trkpt lat="49.87152" lon="4.77078">
        <ele>294</ele>
        <time>2021-03-30T11:45:53.000Z</time>
      </trkpt>
      <trkpt lat="49.87153" lon="4.77077">
        <ele>295</ele>
        <time>2021-03-30T11:45:54.000Z</time>
      </trkpt>
      <trkpt lat="49.87155" lon="4.77077">
        <ele>295</ele>
        <time>2021-03-30T11:45:55.000Z</time>
      </trkpt>
      <trkpt lat="49.87157" lon="4.77077">
        <ele>295</ele>
        <time>2021-03-30T11:45:56.000Z</time>
      </trkpt>
      <trkpt lat="49.87159" lon="4.77076">
        <ele>295</ele>
        <time>2021-03-30T11:45:57.000Z</time>
      </trkpt>
      <trkpt lat="49.87161" lon="4.77076">
        <ele>295</ele>
        <time>2021-03-30T11:45:58.000Z</time>
      </trkpt>
      <trkpt lat="49.87163" lon="4.77076">
        <ele>295</ele>
        <time>2021-03-30T11:45:59.000Z</time>
      </trkpt>
      <trkpt lat="49.87165" lon="4.77075">
        <ele>295</ele>
        <time>2021-03-30T11:46:00.000Z</time>
      </trkpt>
      <trkpt lat="49.87167" lon="4.77075">
        <ele>295</ele>
        <time>2021-03-30T11:46:01.000Z</time>
      </trkpt>
      <trkpt lat="49.87169" lon="4.77075">
        <ele>295</ele>
        <time>2021-03-30T11:46:02.000Z</time>
      </trkpt>
      <trkpt lat="49.8717" lon="4.77075">
        <ele>296</ele>
        <time>2021-03-30T11:46:03.000Z</time>
      </trkpt>
      <trkpt lat="49.87172" lon="4.77075">
        <ele>296</ele>
        <time>2021-03-30T11:46:04.000Z</time>
      </trkpt>
      <trkpt lat="49.87175" lon="4.77074">
        <ele>296</ele>
        <time>2021-03-30T11:46:05.000Z</time>
      </trkpt>
      <trkpt lat="49.87177" lon="4.77074">
        <ele>296</ele>
        <time>2021-03-30T11:46:06.000Z</time>
      </trkpt>
      <trkpt lat="49.87179" lon="4.77074">
        <ele>296</ele>
        <time>2021-03-30T11:46:07.000Z</time>
      </trkpt>
      <trkpt lat="49.87181" lon="4.77074">
        <ele>297</ele>
        <time>2021-03-30T11:46:08.000Z</time>
      </trkpt>
      <trkpt lat="49.87182" lon="4.77074">
        <ele>297</ele>
        <time>2021-03-30T11:46:09.000Z</time>
      </trkpt>
      <trkpt lat="49.87184" lon="4.77074">
        <ele>297</ele>
        <time>2021-03-30T11:46:10.000Z</time>
      </trkpt>
      <trkpt lat="49.87186" lon="4.77075">
        <ele>297</ele>
        <time>2021-03-30T11:46:11.000Z</time>
      </trkpt>
      <trkpt lat="49.87188" lon="4.77075">
        <ele>297</ele>
        <time>2021-03-30T11:46:12.000Z</time>
      </trkpt>
      <trkpt lat="49.8719" lon="4.77074">
        <ele>297</ele>
        <time>2021-03-30T11:46:13.000Z</time>
      </trkpt>
      <trkpt lat="49.87192" lon="4.77073">
        <ele>298</ele>
        <time>2021-03-30T11:46:14.000Z</time>
      </trkpt>
      <trkpt lat="49.87194" lon="4.77073">
        <ele>298</ele>
        <time>2021-03-30T11:46:15.000Z</time>
      </trkpt>
      <trkpt lat="49.87196" lon="4.77072">
        <ele>298</ele>
        <time>2021-03-30T11:46:16.000Z</time>
      </trkpt>
      <trkpt lat="49.87197" lon="4.77071">
        <ele>298</ele>
        <time>2021-03-30T11:46:17.000Z</time>
      </trkpt>
      <trkpt lat="49.87199" lon="4.77071">
        <ele>298</ele>
        <time>2021-03-30T11:46:18.000Z</time>
      </trkpt>
      <trkpt lat="49.87201" lon="4.7707">
        <ele>298</ele>
        <time>2021-03-30T11:46:19.000Z</time>
      </trkpt>
      <trkpt lat="49.87203" lon="4.7707">
        <ele>299</ele>
        <time>2021-03-30T11:46:20.000Z</time>
      </trkpt>
      <trkpt lat="49.87205" lon="4.77069">
        <ele>299</ele>
        <time>2021-03-30T11:46:21.000Z</time>
      </trkpt>
      <trkpt lat="49.87207" lon="4.77069">
        <ele>299</ele>
        <time>2021-03-30T11:46:22.000Z</time>
      </trkpt>
      <trkpt lat="49.87209" lon="4.77069">
        <ele>300</ele>
        <time>2021-03-30T11:46:23.000Z</time>
      </trkpt>
      <trkpt lat="49.87211" lon="4.77068">
        <ele>300</ele>
        <time>2021-03-30T11:46:24.000Z</time>
      </trkpt>
      <trkpt lat="49.87213" lon="4.77068">
        <ele>300</ele>
        <time>2021-03-30T11:46:25.000Z</time>
      </trkpt>
      <trkpt lat="49.87215" lon="4.77068">
        <ele>300</ele>
        <time>2021-03-30T11:46:26.000Z</time>
      </trkpt>
      <trkpt lat="49.87216" lon="4.77069">
        <ele>301</ele>
        <time>2021-03-30T11:46:27.000Z</time>
      </trkpt>
      <trkpt lat="49.87218" lon="4.77069">
        <ele>301</ele>
        <time>2021-03-30T11:46:28.000Z</time>
      </trkpt>
      <trkpt lat="49.8722" lon="4.77069">
        <ele>301</ele>
        <time>2021-03-30T11:46:29.000Z</time>
      </trkpt>
      <trkpt lat="49.87222" lon="4.7707">
        <ele>301</ele>
        <time>2021-03-30T11:46:30.000Z</time>
      </trkpt>
      <trkpt lat="49.87224" lon="4.7707">
        <ele>302</ele>
        <time>2021-03-30T11:46:31.000Z</time>
      </trkpt>
      <trkpt lat="49.87226" lon="4.77071">
        <ele>302</ele>
        <time>2021-03-30T11:46:32.000Z</time>
      </trkpt>
      <trkpt lat="49.87228" lon="4.77072">
        <ele>302</ele>
        <time>2021-03-30T11:46:33.000Z</time>
      </trkpt>
      <trkpt lat="49.8723" lon="4.77073">
        <ele>302</ele>
        <time>2021-03-30T11:46:34.000Z</time>
      </trkpt>
      <trkpt lat="49.87232" lon="4.77074">
        <ele>303</ele>
        <time>2021-03-30T11:46:35.000Z</time>
      </trkpt>
      <trkpt lat="49.87234" lon="4.77075">
        <ele>303</ele>
        <time>2021-03-30T11:46:36.000Z</time>
      </trkpt>
      <trkpt lat="49.87236" lon="4.77075">
        <ele>303</ele>
        <time>2021-03-30T11:46:37.000Z</time>
      </trkpt>
      <trkpt lat="49.87239" lon="4.77076">
        <ele>303</ele>
        <time>2021-03-30T11:46:38.000Z</time>
      </trkpt>
      <trkpt lat="49.87241" lon="4.77076">
        <ele>303</ele>
        <time>2021-03-30T11:46:39.000Z</time>
      </trkpt>
      <trkpt lat="49.87243" lon="4.77077">
        <ele>303</ele>
        <time>2021-03-30T11:46:40.000Z</time>
      </trkpt>
      <trkpt lat="49.87245" lon="4.77077">
        <ele>303</ele>
        <time>2021-03-30T11:46:41.000Z</time>
      </trkpt>
      <trkpt lat="49.87247" lon="4.77078">
        <ele>304</ele>
        <time>2021-03-30T11:46:42.000Z</time>
      </trkpt>
      <trkpt lat="49.87248" lon="4.77079">
        <ele>304</ele>
        <time>2021-03-30T11:46:43.000Z</time>
      </trkpt>
      <trkpt lat="49.8725" lon="4.77079">
        <ele>304</ele>
        <time>2021-03-30T11:46:44.000Z</time>
      </trkpt>
      <trkpt lat="49.87252" lon="4.7708">
        <ele>304</ele>
        <time>2021-03-30T11:46:45.000Z</time>
      </trkpt>
      <trkpt lat="49.87254" lon="4.7708">
        <ele>305</ele>
        <time>2021-03-30T11:46:46.000Z</time>
      </trkpt>
      <trkpt lat="49.87256" lon="4.77081">
        <ele>305</ele>
        <time>2021-03-30T11:46:47.000Z</time>
      </trkpt>
      <trkpt lat="49.87258" lon="4.77081">
        <ele>305</ele>
        <time>2021-03-30T11:46:48.000Z</time>
      </trkpt>
      <trkpt lat="49.8726" lon="4.77082">
        <ele>305</ele>
        <time>2021-03-30T11:46:49.000Z</time>
      </trkpt>
      <trkpt lat="49.87261" lon="4.77082">
        <ele>306</ele>
        <time>2021-03-30T11:46:50.000Z</time>
      </trkpt>
      <trkpt lat="49.87263" lon="4.77083">
        <ele>306</ele>
        <time>2021-03-30T11:46:51.000Z</time>
      </trkpt>
      <trkpt lat="49.87264" lon="4.77083">
        <ele>306</ele>
        <time>2021-03-30T11:46:52.000Z</time>
      </trkpt>
      <trkpt lat="49.87266" lon="4.77084">
        <ele>306</ele>
        <time>2021-03-30T11:46:53.000Z</time>
      </trkpt>
      <trkpt lat="49.87268" lon="4.77084">
        <ele>306</ele>
        <time>2021-03-30T11:46:54.000Z</time>
      </trkpt>
      <trkpt lat="49.8727" lon="4.77085">
        <ele>306</ele>
        <time>2021-03-30T11:46:55.000Z</time>
      </trkpt>
      <trkpt lat="49.87272" lon="4.77086">
        <ele>306</ele>
        <time>2021-03-30T11:46:56.000Z</time>
      </trkpt>
      <trkpt lat="49.87274" lon="4.77086">
        <ele>307</ele>
        <time>2021-03-30T11:46:57.000Z</time>
      </trkpt>
      <trkpt lat="49.87276" lon="4.77087">
        <ele>307</ele>
        <time>2021-03-30T11:46:58.000Z</time>
      </trkpt>
      <trkpt lat="49.87278" lon="4.77087">
        <ele>307</ele>
        <time>2021-03-30T11:46:59.000Z</time>
      </trkpt>
      <trkpt lat="49.8728" lon="4.77088">
        <ele>307</ele>
        <time>2021-03-30T11:47:00.000Z</time>
      </trkpt>
      <trkpt lat="49.87283" lon="4.77088">
        <ele>307</ele>
        <time>2021-03-30T11:47:01.000Z</time>
      </trkpt>
      <trkpt lat="49.87284" lon="4.77089">
        <ele>308</ele>
        <time>2021-03-30T11:47:02.000Z</time>
      </trkpt>
      <trkpt lat="49.87286" lon="4.77089">
        <ele>308</ele>
        <time>2021-03-30T11:47:03.000Z</time>
      </trkpt>
      <trkpt lat="49.87288" lon="4.7709">
        <ele>308</ele>
        <time>2021-03-30T11:47:04.000Z</time>
      </trkpt>
      <trkpt lat="49.8729" lon="4.77091">
        <ele>309</ele>
        <time>2021-03-30T11:47:05.000Z</time>
      </trkpt>
      <trkpt lat="49.87292" lon="4.77092">
        <ele>309</ele>
        <time>2021-03-30T11:47:06.000Z</time>
      </trkpt>
      <trkpt lat="49.87294" lon="4.77093">
        <ele>309</ele>
        <time>2021-03-30T11:47:07.000Z</time>
      </trkpt>
      <trkpt lat="49.87297" lon="4.77094">
        <ele>309</ele>
        <time>2021-03-30T11:47:08.000Z</time>
      </trkpt>
      <trkpt lat="49.87298" lon="4.77095">
        <ele>309</ele>
        <time>2021-03-30T11:47:09.000Z</time>
      </trkpt>
      <trkpt lat="49.873" lon="4.77096">
        <ele>310</ele>
        <time>2021-03-30T11:47:10.000Z</time>
      </trkpt>
      <trkpt lat="49.87302" lon="4.77097">
        <ele>310</ele>
        <time>2021-03-30T11:47:11.000Z</time>
      </trkpt>
      <trkpt lat="49.87304" lon="4.77098">
        <ele>310</ele>
        <time>2021-03-30T11:47:12.000Z</time>
      </trkpt>
      <trkpt lat="49.87306" lon="4.77099">
        <ele>310</ele>
        <time>2021-03-30T11:47:13.000Z</time>
      </trkpt>
      <trkpt lat="49.87308" lon="4.771">
        <ele>310</ele>
        <time>2021-03-30T11:47:14.000Z</time>
      </trkpt>
      <trkpt lat="49.8731" lon="4.77101">
        <ele>311</ele>
        <time>2021-03-30T11:47:15.000Z</time>
      </trkpt>
      <trkpt lat="49.87311" lon="4.77102">
        <ele>311</ele>
        <time>2021-03-30T11:47:16.000Z</time>
      </trkpt>
      <trkpt lat="49.87313" lon="4.77103">
        <ele>311</ele>
        <time>2021-03-30T11:47:17.000Z</time>
      </trkpt>
      <trkpt lat="49.87315" lon="4.77104">
        <ele>311</ele>
        <time>2021-03-30T11:47:18.000Z</time>
      </trkpt>
      <trkpt lat="49.87317" lon="4.77105">
        <ele>312</ele>
        <time>2021-03-30T11:47:19.000Z</time>
      </trkpt>
      <trkpt lat="49.8732" lon="4.77106">
        <ele>312</ele>
        <time>2021-03-30T11:47:20.000Z</time>
      </trkpt>
      <trkpt lat="49.87322" lon="4.77107">
        <ele>312</ele>
        <time>2021-03-30T11:47:21.000Z</time>
      </trkpt>
      <trkpt lat="49.87324" lon="4.77107">
        <ele>313</ele>
        <time>2021-03-30T11:47:22.000Z</time>
      </trkpt>
      <trkpt lat="49.87326" lon="4.77108">
        <ele>313</ele>
        <time>2021-03-30T11:47:23.000Z</time>
      </trkpt>
      <trkpt lat="49.87328" lon="4.77109">
        <ele>313</ele>
        <time>2021-03-30T11:47:24.000Z</time>
      </trkpt>
      <trkpt lat="49.87329" lon="4.7711">
        <ele>313</ele>
        <time>2021-03-30T11:47:25.000Z</time>
      </trkpt>
      <trkpt lat="49.87331" lon="4.77112">
        <ele>313</ele>
        <time>2021-03-30T11:47:26.000Z</time>
      </trkpt>
      <trkpt lat="49.87333" lon="4.77113">
        <ele>314</ele>
        <time>2021-03-30T11:47:27.000Z</time>
      </trkpt>
      <trkpt lat="49.87335" lon="4.77115">
        <ele>314</ele>
        <time>2021-03-30T11:47:28.000Z</time>
      </trkpt>
      <trkpt lat="49.87337" lon="4.77117">
        <ele>314</ele>
        <time>2021-03-30T11:47:29.000Z</time>
      </trkpt>
      <trkpt lat="49.87338" lon="4.77119">
        <ele>314</ele>
        <time>2021-03-30T11:47:30.000Z</time>
      </trkpt>
      <trkpt lat="49.8734" lon="4.77121">
        <ele>314</ele>
        <time>2021-03-30T11:47:31.000Z</time>
      </trkpt>
      <trkpt lat="49.87341" lon="4.77123">
        <ele>314</ele>
        <time>2021-03-30T11:47:32.000Z</time>
      </trkpt>
      <trkpt lat="49.87342" lon="4.77125">
        <ele>314</ele>
        <time>2021-03-30T11:47:33.000Z</time>
      </trkpt>
      <trkpt lat="49.87344" lon="4.77127">
        <ele>314</ele>
        <time>2021-03-30T11:47:34.000Z</time>
      </trkpt>
      <trkpt lat="49.87346" lon="4.77129">
        <ele>314</ele>
        <time>2021-03-30T11:47:35.000Z</time>
      </trkpt>
      <trkpt lat="49.87347" lon="4.77131">
        <ele>314</ele>
        <time>2021-03-30T11:47:36.000Z</time>
      </trkpt>
      <trkpt lat="49.87349" lon="4.77133">
        <ele>314</ele>
        <time>2021-03-30T11:47:37.000Z</time>
      </trkpt>
      <trkpt lat="49.8735" lon="4.77134">
        <ele>314</ele>
        <time>2021-03-30T11:47:38.000Z</time>
      </trkpt>
      <trkpt lat="49.87352" lon="4.77136">
        <ele>314</ele>
        <time>2021-03-30T11:47:39.000Z</time>
      </trkpt>
      <trkpt lat="49.87354" lon="4.77138">
        <ele>314</ele>
        <time>2021-03-30T11:47:40.000Z</time>
      </trkpt>
      <trkpt lat="49.87355" lon="4.7714">
        <ele>314</ele>
        <time>2021-03-30T11:47:41.000Z</time>
      </trkpt>
      <trkpt lat="49.87356" lon="4.77142">
        <ele>314</ele>
        <time>2021-03-30T11:47:42.000Z</time>
      </trkpt>
      <trkpt lat="49.87357" lon="4.77144">
        <ele>314</ele>
        <time>2021-03-30T11:47:43.000Z</time>
      </trkpt>
      <trkpt lat="49.87358" lon="4.77146">
        <ele>314</ele>
        <time>2021-03-30T11:47:44.000Z</time>
      </trkpt>
      <trkpt lat="49.87359" lon="4.77149">
        <ele>314</ele>
        <time>2021-03-30T11:47:45.000Z</time>
      </trkpt>
      <trkpt lat="49.8736" lon="4.77152">
        <ele>314</ele>
        <time>2021-03-30T11:47:46.000Z</time>
      </trkpt>
      <trkpt lat="49.87361" lon="4.77153">
        <ele>314</ele>
        <time>2021-03-30T11:47:47.000Z</time>
      </trkpt>
      <trkpt lat="49.87362" lon="4.77155">
        <ele>315</ele>
        <time>2021-03-30T11:47:48.000Z</time>
      </trkpt>
      <trkpt lat="49.87363" lon="4.77157">
        <ele>315</ele>
        <time>2021-03-30T11:47:49.000Z</time>
      </trkpt>
      <trkpt lat="49.87365" lon="4.77159">
        <ele>315</ele>
        <time>2021-03-30T11:47:50.000Z</time>
      </trkpt>
      <trkpt lat="49.87366" lon="4.77161">
        <ele>315</ele>
        <time>2021-03-30T11:47:51.000Z</time>
      </trkpt>
      <trkpt lat="49.87368" lon="4.77162">
        <ele>315</ele>
        <time>2021-03-30T11:47:52.000Z</time>
      </trkpt>
      <trkpt lat="49.8737" lon="4.77164">
        <ele>316</ele>
        <time>2021-03-30T11:47:53.000Z</time>
      </trkpt>
      <trkpt lat="49.87371" lon="4.77166">
        <ele>316</ele>
        <time>2021-03-30T11:47:54.000Z</time>
      </trkpt>
      <trkpt lat="49.87373" lon="4.77168">
        <ele>316</ele>
        <time>2021-03-30T11:47:55.000Z</time>
      </trkpt>
      <trkpt lat="49.87374" lon="4.7717">
        <ele>316</ele>
        <time>2021-03-30T11:47:56.000Z</time>
      </trkpt>
      <trkpt lat="49.87376" lon="4.77172">
        <ele>317</ele>
        <time>2021-03-30T11:47:57.000Z</time>
      </trkpt>
      <trkpt lat="49.87378" lon="4.77174">
        <ele>317</ele>
        <time>2021-03-30T11:47:58.000Z</time>
      </trkpt>
      <trkpt lat="49.8738" lon="4.77177">
        <ele>317</ele>
        <time>2021-03-30T11:47:59.000Z</time>
      </trkpt>
      <trkpt lat="49.87382" lon="4.77179">
        <ele>317</ele>
        <time>2021-03-30T11:48:00.000Z</time>
      </trkpt>
      <trkpt lat="49.87383" lon="4.77181">
        <ele>317</ele>
        <time>2021-03-30T11:48:01.000Z</time>
      </trkpt>
      <trkpt lat="49.87385" lon="4.77183">
        <ele>317</ele>
        <time>2021-03-30T11:48:02.000Z</time>
      </trkpt>
      <trkpt lat="49.87387" lon="4.77185">
        <ele>318</ele>
        <time>2021-03-30T11:48:03.000Z</time>
      </trkpt>
      <trkpt lat="49.87388" lon="4.77187">
        <ele>318</ele>
        <time>2021-03-30T11:48:04.000Z</time>
      </trkpt>
      <trkpt lat="49.87389" lon="4.77188">
        <ele>318</ele>
        <time>2021-03-30T11:48:05.000Z</time>
      </trkpt>
      <trkpt lat="49.87391" lon="4.7719">
        <ele>318</ele>
        <time>2021-03-30T11:48:06.000Z</time>
      </trkpt>
      <trkpt lat="49.87393" lon="4.77191">
        <ele>319</ele>
        <time>2021-03-30T11:48:07.000Z</time>
      </trkpt>
      <trkpt lat="49.87395" lon="4.77193">
        <ele>319</ele>
        <time>2021-03-30T11:48:08.000Z</time>
      </trkpt>
      <trkpt lat="49.87397" lon="4.77194">
        <ele>319</ele>
        <time>2021-03-30T11:48:09.000Z</time>
      </trkpt>
      <trkpt lat="49.87399" lon="4.77196">
        <ele>319</ele>
        <time>2021-03-30T11:48:10.000Z</time>
      </trkpt>
      <trkpt lat="49.87401" lon="4.77198">
        <ele>320</ele>
        <time>2021-03-30T11:48:11.000Z</time>
      </trkpt>
      <trkpt lat="49.87403" lon="4.77199">
        <ele>320</ele>
        <time>2021-03-30T11:48:12.000Z</time>
      </trkpt>
      <trkpt lat="49.87405" lon="4.77201">
        <ele>320</ele>
        <time>2021-03-30T11:48:13.000Z</time>
      </trkpt>
      <trkpt lat="49.87407" lon="4.77202">
        <ele>321</ele>
        <time>2021-03-30T11:48:14.000Z</time>
      </trkpt>
      <trkpt lat="49.87409" lon="4.77204">
        <ele>321</ele>
        <time>2021-03-30T11:48:15.000Z</time>
      </trkpt>
      <trkpt lat="49.87411" lon="4.77206">
        <ele>321</ele>
        <time>2021-03-30T11:48:16.000Z</time>
      </trkpt>
      <trkpt lat="49.87413" lon="4.77208">
        <ele>322</ele>
        <time>2021-03-30T11:48:17.000Z</time>
      </trkpt>
      <trkpt lat="49.87415" lon="4.77209">
        <ele>322</ele>
        <time>2021-03-30T11:48:18.000Z</time>
      </trkpt>
      <trkpt lat="49.87417" lon="4.77211">
        <ele>322</ele>
        <time>2021-03-30T11:48:19.000Z</time>
      </trkpt>
      <trkpt lat="49.8742" lon="4.77213">
        <ele>323</ele>
        <time>2021-03-30T11:48:20.000Z</time>
      </trkpt>
      <trkpt lat="49.87422" lon="4.77214">
        <ele>323</ele>
        <time>2021-03-30T11:48:21.000Z</time>
      </trkpt>
      <trkpt lat="49.87423" lon="4.77216">
        <ele>324</ele>
        <time>2021-03-30T11:48:22.000Z</time>
      </trkpt>
      <trkpt lat="49.87425" lon="4.77218">
        <ele>324</ele>
        <time>2021-03-30T11:48:23.000Z</time>
      </trkpt>
      <trkpt lat="49.87426" lon="4.7722">
        <ele>325</ele>
        <time>2021-03-30T11:48:24.000Z</time>
      </trkpt>
      <trkpt lat="49.87428" lon="4.77221">
        <ele>325</ele>
        <time>2021-03-30T11:48:25.000Z</time>
      </trkpt>
      <trkpt lat="49.87429" lon="4.77223">
        <ele>326</ele>
        <time>2021-03-30T11:48:26.000Z</time>
      </trkpt>
      <trkpt lat="49.8743" lon="4.77225">
        <ele>326</ele>
        <time>2021-03-30T11:48:27.000Z</time>
      </trkpt>
      <trkpt lat="49.87431" lon="4.77227">
        <ele>327</ele>
        <time>2021-03-30T11:48:28.000Z</time>
      </trkpt>
      <trkpt lat="49.87432" lon="4.77228">
        <ele>327</ele>
        <time>2021-03-30T11:48:29.000Z</time>
      </trkpt>
      <trkpt lat="49.87433" lon="4.7723">
        <ele>327</ele>
        <time>2021-03-30T11:48:30.000Z</time>
      </trkpt>
      <trkpt lat="49.87434" lon="4.77232">
        <ele>328</ele>
        <time>2021-03-30T11:48:31.000Z</time>
      </trkpt>
      <trkpt lat="49.87436" lon="4.77234">
        <ele>329</ele>
        <time>2021-03-30T11:48:32.000Z</time>
      </trkpt>
      <trkpt lat="49.87437" lon="4.77236">
        <ele>329</ele>
        <time>2021-03-30T11:48:33.000Z</time>
      </trkpt>
      <trkpt lat="49.87438" lon="4.77238">
        <ele>329</ele>
        <time>2021-03-30T11:48:34.000Z</time>
      </trkpt>
      <trkpt lat="49.87439" lon="4.77241">
        <ele>330</ele>
        <time>2021-03-30T11:48:35.000Z</time>
      </trkpt>
      <trkpt lat="49.8744" lon="4.77243">
        <ele>330</ele>
        <time>2021-03-30T11:48:36.000Z</time>
      </trkpt>
      <trkpt lat="49.87441" lon="4.77245">
        <ele>330</ele>
        <time>2021-03-30T11:48:37.000Z</time>
      </trkpt>
      <trkpt lat="49.87442" lon="4.77248">
        <ele>331</ele>
        <time>2021-03-30T11:48:38.000Z</time>
      </trkpt>
      <trkpt lat="49.87443" lon="4.7725">
        <ele>331</ele>
        <time>2021-03-30T11:48:39.000Z</time>
      </trkpt>
      <trkpt lat="49.87444" lon="4.77253">
        <ele>331</ele>
        <time>2021-03-30T11:48:40.000Z</time>
      </trkpt>
      <trkpt lat="49.87446" lon="4.77255">
        <ele>332</ele>
        <time>2021-03-30T11:48:41.000Z</time>
      </trkpt>
      <trkpt lat="49.87448" lon="4.77257">
        <ele>332</ele>
        <time>2021-03-30T11:48:42.000Z</time>
      </trkpt>
      <trkpt lat="49.87449" lon="4.77259">
        <ele>332</ele>
        <time>2021-03-30T11:48:43.000Z</time>
      </trkpt>
      <trkpt lat="49.87451" lon="4.77261">
        <ele>332</ele>
        <time>2021-03-30T11:48:44.000Z</time>
      </trkpt>
      <trkpt lat="49.87453" lon="4.77263">
        <ele>332</ele>
        <time>2021-03-30T11:48:45.000Z</time>
      </trkpt>
      <trkpt lat="49.87454" lon="4.77265">
        <ele>333</ele>
        <time>2021-03-30T11:48:46.000Z</time>
      </trkpt>
      <trkpt lat="49.87455" lon="4.77267">
        <ele>333</ele>
        <time>2021-03-30T11:48:47.000Z</time>
      </trkpt>
      <trkpt lat="49.87457" lon="4.77268">
        <ele>333</ele>
        <time>2021-03-30T11:48:48.000Z</time>
      </trkpt>
      <trkpt lat="49.87458" lon="4.7727">
        <ele>333</ele>
        <time>2021-03-30T11:48:49.000Z</time>
      </trkpt>
      <trkpt lat="49.8746" lon="4.77272">
        <ele>333</ele>
        <time>2021-03-30T11:48:50.000Z</time>
      </trkpt>
      <trkpt lat="49.87461" lon="4.77275">
        <ele>333</ele>
        <time>2021-03-30T11:48:51.000Z</time>
      </trkpt>
      <trkpt lat="49.87463" lon="4.77277">
        <ele>333</ele>
        <time>2021-03-30T11:48:52.000Z</time>
      </trkpt>
      <trkpt lat="49.87464" lon="4.77279">
        <ele>333</ele>
        <time>2021-03-30T11:48:53.000Z</time>
      </trkpt>
      <trkpt lat="49.87465" lon="4.77282">
        <ele>333</ele>
        <time>2021-03-30T11:48:54.000Z</time>
      </trkpt>
      <trkpt lat="49.87466" lon="4.77284">
        <ele>333</ele>
        <time>2021-03-30T11:48:55.000Z</time>
      </trkpt>
      <trkpt lat="49.87467" lon="4.77286">
        <ele>333</ele>
        <time>2021-03-30T11:48:56.000Z</time>
      </trkpt>
      <trkpt lat="49.87469" lon="4.77288">
        <ele>333</ele>
        <time>2021-03-30T11:48:57.000Z</time>
      </trkpt>
      <trkpt lat="49.8747" lon="4.7729">
        <ele>333</ele>
        <time>2021-03-30T11:48:58.000Z</time>
      </trkpt>
      <trkpt lat="49.87472" lon="4.77292">
        <ele>333</ele>
        <time>2021-03-30T11:48:59.000Z</time>
      </trkpt>
      <trkpt lat="49.87474" lon="4.77294">
        <ele>333</ele>
        <time>2021-03-30T11:49:00.000Z</time>
      </trkpt>
      <trkpt lat="49.87475" lon="4.77297">
        <ele>333</ele>
        <time>2021-03-30T11:49:01.000Z</time>
      </trkpt>
      <trkpt lat="49.87477" lon="4.773">
        <ele>333</ele>
        <time>2021-03-30T11:49:02.000Z</time>
      </trkpt>
      <trkpt lat="49.87479" lon="4.77302">
        <ele>334</ele>
        <time>2021-03-30T11:49:03.000Z</time>
      </trkpt>
      <trkpt lat="49.8748" lon="4.77305">
        <ele>334</ele>
        <time>2021-03-30T11:49:04.000Z</time>
      </trkpt>
      <trkpt lat="49.87482" lon="4.77308">
        <ele>334</ele>
        <time>2021-03-30T11:49:05.000Z</time>
      </trkpt>
      <trkpt lat="49.87484" lon="4.77311">
        <ele>334</ele>
        <time>2021-03-30T11:49:06.000Z</time>
      </trkpt>
      <trkpt lat="49.87486" lon="4.77313">
        <ele>334</ele>
        <time>2021-03-30T11:49:07.000Z</time>
      </trkpt>
      <trkpt lat="49.87487" lon="4.77316">
        <ele>335</ele>
        <time>2021-03-30T11:49:08.000Z</time>
      </trkpt>
      <trkpt lat="49.87488" lon="4.77318">
        <ele>335</ele>
        <time>2021-03-30T11:49:09.000Z</time>
      </trkpt>
      <trkpt lat="49.8749" lon="4.7732">
        <ele>335</ele>
        <time>2021-03-30T11:49:10.000Z</time>
      </trkpt>
      <trkpt lat="49.87491" lon="4.77322">
        <ele>335</ele>
        <time>2021-03-30T11:49:11.000Z</time>
      </trkpt>
      <trkpt lat="49.87492" lon="4.77325">
        <ele>336</ele>
        <time>2021-03-30T11:49:12.000Z</time>
      </trkpt>
      <trkpt lat="49.87493" lon="4.77327">
        <ele>336</ele>
        <time>2021-03-30T11:49:13.000Z</time>
      </trkpt>
      <trkpt lat="49.87494" lon="4.77329">
        <ele>336</ele>
        <time>2021-03-30T11:49:14.000Z</time>
      </trkpt>
      <trkpt lat="49.87496" lon="4.77331">
        <ele>336</ele>
        <time>2021-03-30T11:49:15.000Z</time>
      </trkpt>
      <trkpt lat="49.87497" lon="4.77333">
        <ele>336</ele>
        <time>2021-03-30T11:49:16.000Z</time>
      </trkpt>
      <trkpt lat="49.87498" lon="4.77335">
        <ele>336</ele>
        <time>2021-03-30T11:49:17.000Z</time>
      </trkpt>
      <trkpt lat="49.875" lon="4.77338">
        <ele>337</ele>
        <time>2021-03-30T11:49:18.000Z</time>
      </trkpt>
      <trkpt lat="49.87501" lon="4.7734">
        <ele>337</ele>
        <time>2021-03-30T11:49:19.000Z</time>
      </trkpt>
      <trkpt lat="49.87503" lon="4.77342">
        <ele>337</ele>
        <time>2021-03-30T11:49:20.000Z</time>
      </trkpt>
      <trkpt lat="49.87504" lon="4.77344">
        <ele>337</ele>
        <time>2021-03-30T11:49:21.000Z</time>
      </trkpt>
      <trkpt lat="49.87505" lon="4.77346">
        <ele>337</ele>
        <time>2021-03-30T11:49:22.000Z</time>
      </trkpt>
      <trkpt lat="49.87507" lon="4.77348">
        <ele>337</ele>
        <time>2021-03-30T11:49:23.000Z</time>
      </trkpt>
      <trkpt lat="49.87508" lon="4.7735">
        <ele>337</ele>
        <time>2021-03-30T11:49:24.000Z</time>
      </trkpt>
      <trkpt lat="49.8751" lon="4.77351">
        <ele>338</ele>
        <time>2021-03-30T11:49:25.000Z</time>
      </trkpt>
      <trkpt lat="49.87511" lon="4.77353">
        <ele>338</ele>
        <time>2021-03-30T11:49:26.000Z</time>
      </trkpt>
      <trkpt lat="49.87512" lon="4.77354">
        <ele>338</ele>
        <time>2021-03-30T11:49:27.000Z</time>
      </trkpt>
      <trkpt lat="49.87514" lon="4.77356">
        <ele>338</ele>
        <time>2021-03-30T11:49:28.000Z</time>
      </trkpt>
      <trkpt lat="49.87515" lon="4.77357">
        <ele>338</ele>
        <time>2021-03-30T11:49:29.000Z</time>
      </trkpt>
      <trkpt lat="49.87517" lon="4.77359">
        <ele>338</ele>
        <time>2021-03-30T11:49:30.000Z</time>
      </trkpt>
      <trkpt lat="49.87518" lon="4.7736">
        <ele>339</ele>
        <time>2021-03-30T11:49:31.000Z</time>
      </trkpt>
      <trkpt lat="49.8752" lon="4.77362">
        <ele>339</ele>
        <time>2021-03-30T11:49:32.000Z</time>
      </trkpt>
      <trkpt lat="49.87521" lon="4.77363">
        <ele>339</ele>
        <time>2021-03-30T11:49:33.000Z</time>
      </trkpt>
      <trkpt lat="49.87523" lon="4.77365">
        <ele>339</ele>
        <time>2021-03-30T11:49:34.000Z</time>
      </trkpt>
      <trkpt lat="49.87525" lon="4.77367">
        <ele>339</ele>
        <time>2021-03-30T11:49:35.000Z</time>
      </trkpt>
      <trkpt lat="49.87526" lon="4.77368">
        <ele>340</ele>
        <time>2021-03-30T11:49:36.000Z</time>
      </trkpt>
      <trkpt lat="49.87527" lon="4.7737">
        <ele>340</ele>
        <time>2021-03-30T11:49:37.000Z</time>
      </trkpt>
      <trkpt lat="49.87528" lon="4.77372">
        <ele>340</ele>
        <time>2021-03-30T11:49:38.000Z</time>
      </trkpt>
      <trkpt lat="49.87529" lon="4.77374">
        <ele>340</ele>
        <time>2021-03-30T11:49:39.000Z</time>
      </trkpt>
      <trkpt lat="49.87531" lon="4.77376">
        <ele>340</ele>
        <time>2021-03-30T11:49:40.000Z</time>
      </trkpt>
      <trkpt lat="49.87532" lon="4.77378">
        <ele>341</ele>
        <time>2021-03-30T11:49:41.000Z</time>
      </trkpt>
      <trkpt lat="49.87534" lon="4.77379">
        <ele>341</ele>
        <time>2021-03-30T11:49:42.000Z</time>
      </trkpt>
      <trkpt lat="49.87534" lon="4.77381">
        <ele>341</ele>
        <time>2021-03-30T11:49:43.000Z</time>
      </trkpt>
      <trkpt lat="49.87536" lon="4.77383">
        <ele>341</ele>
        <time>2021-03-30T11:49:44.000Z</time>
      </trkpt>
      <trkpt lat="49.87537" lon="4.77385">
        <ele>342</ele>
        <time>2021-03-30T11:49:45.000Z</time>
      </trkpt>
      <trkpt lat="49.87539" lon="4.77387">
        <ele>342</ele>
        <time>2021-03-30T11:49:46.000Z</time>
      </trkpt>
      <trkpt lat="49.87541" lon="4.77388">
        <ele>342</ele>
        <time>2021-03-30T11:49:47.000Z</time>
      </trkpt>
      <trkpt lat="49.87543" lon="4.77391">
        <ele>342</ele>
        <time>2021-03-30T11:49:48.000Z</time>
      </trkpt>
      <trkpt lat="49.87544" lon="4.77392">
        <ele>342</ele>
        <time>2021-03-30T11:49:49.000Z</time>
      </trkpt>
      <trkpt lat="49.87546" lon="4.77394">
        <ele>342</ele>
        <time>2021-03-30T11:49:50.000Z</time>
      </trkpt>
      <trkpt lat="49.87548" lon="4.77396">
        <ele>342</ele>
        <time>2021-03-30T11:49:51.000Z</time>
      </trkpt>
      <trkpt lat="49.87551" lon="4.77398">
        <ele>342</ele>
        <time>2021-03-30T11:49:52.000Z</time>
      </trkpt>
      <trkpt lat="49.87553" lon="4.774">
        <ele>342</ele>
        <time>2021-03-30T11:49:53.000Z</time>
      </trkpt>
      <trkpt lat="49.87555" lon="4.77402">
        <ele>343</ele>
        <time>2021-03-30T11:49:54.000Z</time>
      </trkpt>
      <trkpt lat="49.87557" lon="4.77404">
        <ele>343</ele>
        <time>2021-03-30T11:49:55.000Z</time>
      </trkpt>
      <trkpt lat="49.8756" lon="4.77405">
        <ele>343</ele>
        <time>2021-03-30T11:49:56.000Z</time>
      </trkpt>
      <trkpt lat="49.87562" lon="4.77406">
        <ele>343</ele>
        <time>2021-03-30T11:49:57.000Z</time>
      </trkpt>
      <trkpt lat="49.87564" lon="4.77408">
        <ele>343</ele>
        <time>2021-03-30T11:49:58.000Z</time>
      </trkpt>
      <trkpt lat="49.87567" lon="4.77409">
        <ele>343</ele>
        <time>2021-03-30T11:49:59.000Z</time>
      </trkpt>
      <trkpt lat="49.87569" lon="4.77411">
        <ele>343</ele>
        <time>2021-03-30T11:50:00.000Z</time>
      </trkpt>
      <trkpt lat="49.87572" lon="4.77413">
        <ele>344</ele>
        <time>2021-03-30T11:50:01.000Z</time>
      </trkpt>
      <trkpt lat="49.87574" lon="4.77415">
        <ele>344</ele>
        <time>2021-03-30T11:50:02.000Z</time>
      </trkpt>
      <trkpt lat="49.87576" lon="4.77417">
        <ele>344</ele>
        <time>2021-03-30T11:50:03.000Z</time>
      </trkpt>
      <trkpt lat="49.87578" lon="4.7742">
        <ele>344</ele>
        <time>2021-03-30T11:50:04.000Z</time>
      </trkpt>
      <trkpt lat="49.87581" lon="4.77422">
        <ele>345</ele>
        <time>2021-03-30T11:50:05.000Z</time>
      </trkpt>
      <trkpt lat="49.87582" lon="4.77424">
        <ele>345</ele>
        <time>2021-03-30T11:50:06.000Z</time>
      </trkpt>
      <trkpt lat="49.87584" lon="4.77427">
        <ele>345</ele>
        <time>2021-03-30T11:50:07.000Z</time>
      </trkpt>
      <trkpt lat="49.87585" lon="4.77431">
        <ele>345</ele>
        <time>2021-03-30T11:50:08.000Z</time>
      </trkpt>
      <trkpt lat="49.87587" lon="4.77434">
        <ele>346</ele>
        <time>2021-03-30T11:50:09.000Z</time>
      </trkpt>
      <trkpt lat="49.87589" lon="4.77436">
        <ele>346</ele>
        <time>2021-03-30T11:50:10.000Z</time>
      </trkpt>
      <trkpt lat="49.87591" lon="4.77438">
        <ele>346</ele>
        <time>2021-03-30T11:50:11.000Z</time>
      </trkpt>
      <trkpt lat="49.87593" lon="4.77438">
        <ele>347</ele>
        <time>2021-03-30T11:50:12.000Z</time>
      </trkpt>
      <trkpt lat="49.87595" lon="4.77438">
        <ele>347</ele>
        <time>2021-03-30T11:50:13.000Z</time>
      </trkpt>
      <trkpt lat="49.87597" lon="4.77437">
        <ele>348</ele>
        <time>2021-03-30T11:50:14.000Z</time>
      </trkpt>
      <trkpt lat="49.87598" lon="4.77437">
        <ele>348</ele>
        <time>2021-03-30T11:50:15.000Z</time>
      </trkpt>
      <trkpt lat="49.87599" lon="4.77436">
        <ele>348</ele>
        <time>2021-03-30T11:50:16.000Z</time>
      </trkpt>
      <trkpt lat="49.87599" lon="4.77436">
        <ele>348</ele>
        <time>2021-03-30T11:50:17.000Z</time>
      </trkpt>
      <trkpt lat="49.87599" lon="4.77434">
        <ele>348</ele>
        <time>2021-03-30T11:50:18.000Z</time>
      </trkpt>
      <trkpt lat="49.87599" lon="4.77433">
        <ele>349</ele>
        <time>2021-03-30T11:50:19.000Z</time>
      </trkpt>
      <trkpt lat="49.876" lon="4.77431">
        <ele>349</ele>
        <time>2021-03-30T11:50:20.000Z</time>
      </trkpt>
      <trkpt lat="49.87601" lon="4.7743">
        <ele>349</ele>
        <time>2021-03-30T11:50:21.000Z</time>
      </trkpt>
      <trkpt lat="49.87601" lon="4.77427">
        <ele>349</ele>
        <time>2021-03-30T11:50:22.000Z</time>
      </trkpt>
      <trkpt lat="49.87602" lon="4.77425">
        <ele>350</ele>
        <time>2021-03-30T11:50:23.000Z</time>
      </trkpt>
      <trkpt lat="49.87602" lon="4.77423">
        <ele>350</ele>
        <time>2021-03-30T11:50:24.000Z</time>
      </trkpt>
      <trkpt lat="49.87603" lon="4.7742">
        <ele>350</ele>
        <time>2021-03-30T11:50:25.000Z</time>
      </trkpt>
      <trkpt lat="49.87604" lon="4.77417">
        <ele>350</ele>
        <time>2021-03-30T11:50:26.000Z</time>
      </trkpt>
      <trkpt lat="49.87605" lon="4.77414">
        <ele>351</ele>
        <time>2021-03-30T11:50:27.000Z</time>
      </trkpt>
      <trkpt lat="49.87605" lon="4.77412">
        <ele>351</ele>
        <time>2021-03-30T11:50:28.000Z</time>
      </trkpt>
      <trkpt lat="49.87605" lon="4.7741">
        <ele>351</ele>
        <time>2021-03-30T11:50:29.000Z</time>
      </trkpt>
      <trkpt lat="49.87604" lon="4.77408">
        <ele>351</ele>
        <time>2021-03-30T11:50:30.000Z</time>
      </trkpt>
      <trkpt lat="49.87604" lon="4.77405">
        <ele>351</ele>
        <time>2021-03-30T11:50:31.000Z</time>
      </trkpt>
      <trkpt lat="49.87604" lon="4.77403">
        <ele>352</ele>
        <time>2021-03-30T11:50:32.000Z</time>
      </trkpt>
      <trkpt lat="49.87604" lon="4.77401">
        <ele>352</ele>
        <time>2021-03-30T11:50:33.000Z</time>
      </trkpt>
      <trkpt lat="49.87605" lon="4.77398">
        <ele>352</ele>
        <time>2021-03-30T11:50:34.000Z</time>
      </trkpt>
      <trkpt lat="49.87605" lon="4.77396">
        <ele>353</ele>
        <time>2021-03-30T11:50:35.000Z</time>
      </trkpt>
      <trkpt lat="49.87605" lon="4.77394">
        <ele>353</ele>
        <time>2021-03-30T11:50:36.000Z</time>
      </trkpt>
      <trkpt lat="49.87605" lon="4.77392">
        <ele>354</ele>
        <time>2021-03-30T11:50:37.000Z</time>
      </trkpt>
      <trkpt lat="49.87606" lon="4.77389">
        <ele>354</ele>
        <time>2021-03-30T11:50:38.000Z</time>
      </trkpt>
      <trkpt lat="49.87607" lon="4.77387">
        <ele>355</ele>
        <time>2021-03-30T11:50:39.000Z</time>
      </trkpt>
      <trkpt lat="49.87607" lon="4.77384">
        <ele>355</ele>
        <time>2021-03-30T11:50:40.000Z</time>
      </trkpt>
      <trkpt lat="49.87608" lon="4.77382">
        <ele>356</ele>
        <time>2021-03-30T11:50:41.000Z</time>
      </trkpt>
      <trkpt lat="49.87608" lon="4.7738">
        <ele>357</ele>
        <time>2021-03-30T11:50:42.000Z</time>
      </trkpt>
      <trkpt lat="49.87608" lon="4.77377">
        <ele>357</ele>
        <time>2021-03-30T11:50:43.000Z</time>
      </trkpt>
      <trkpt lat="49.87608" lon="4.77375">
        <ele>358</ele>
        <time>2021-03-30T11:50:44.000Z</time>
      </trkpt>
      <trkpt lat="49.87609" lon="4.77373">
        <ele>358</ele>
        <time>2021-03-30T11:50:45.000Z</time>
      </trkpt>
      <trkpt lat="49.87609" lon="4.7737">
        <ele>359</ele>
        <time>2021-03-30T11:50:46.000Z</time>
      </trkpt>
      <trkpt lat="49.87609" lon="4.77368">
        <ele>359</ele>
        <time>2021-03-30T11:50:47.000Z</time>
      </trkpt>
      <trkpt lat="49.8761" lon="4.77365">
        <ele>360</ele>
        <time>2021-03-30T11:50:48.000Z</time>
      </trkpt>
      <trkpt lat="49.8761" lon="4.77363">
        <ele>360</ele>
        <time>2021-03-30T11:50:49.000Z</time>
      </trkpt>
      <trkpt lat="49.87611" lon="4.7736">
        <ele>361</ele>
        <time>2021-03-30T11:50:50.000Z</time>
      </trkpt>
      <trkpt lat="49.87611" lon="4.77357">
        <ele>361</ele>
        <time>2021-03-30T11:50:51.000Z</time>
      </trkpt>
      <trkpt lat="49.87612" lon="4.77355">
        <ele>361</ele>
        <time>2021-03-30T11:50:52.000Z</time>
      </trkpt>
      <trkpt lat="49.87613" lon="4.77351">
        <ele>362</ele>
        <time>2021-03-30T11:50:53.000Z</time>
      </trkpt>
      <trkpt lat="49.87614" lon="4.77347">
        <ele>362</ele>
        <time>2021-03-30T11:50:54.000Z</time>
      </trkpt>
      <trkpt lat="49.87614" lon="4.77344">
        <ele>362</ele>
        <time>2021-03-30T11:50:55.000Z</time>
      </trkpt>
      <trkpt lat="49.87615" lon="4.77341">
        <ele>363</ele>
        <time>2021-03-30T11:50:56.000Z</time>
      </trkpt>
      <trkpt lat="49.87615" lon="4.77338">
        <ele>363</ele>
        <time>2021-03-30T11:50:57.000Z</time>
      </trkpt>
      <trkpt lat="49.87616" lon="4.77336">
        <ele>363</ele>
        <time>2021-03-30T11:50:58.000Z</time>
      </trkpt>
      <trkpt lat="49.87616" lon="4.77333">
        <ele>363</ele>
        <time>2021-03-30T11:50:59.000Z</time>
      </trkpt>
      <trkpt lat="49.87616" lon="4.7733">
        <ele>363</ele>
        <time>2021-03-30T11:51:00.000Z</time>
      </trkpt>
      <trkpt lat="49.87617" lon="4.77327">
        <ele>363</ele>
        <time>2021-03-30T11:51:01.000Z</time>
      </trkpt>
      <trkpt lat="49.87617" lon="4.77324">
        <ele>364</ele>
        <time>2021-03-30T11:51:02.000Z</time>
      </trkpt>
      <trkpt lat="49.87618" lon="4.77321">
        <ele>364</ele>
        <time>2021-03-30T11:51:03.000Z</time>
      </trkpt>
      <trkpt lat="49.87618" lon="4.77318">
        <ele>364</ele>
        <time>2021-03-30T11:51:04.000Z</time>
      </trkpt>
      <trkpt lat="49.87619" lon="4.77316">
        <ele>364</ele>
        <time>2021-03-30T11:51:05.000Z</time>
      </trkpt>
      <trkpt lat="49.87619" lon="4.77313">
        <ele>364</ele>
        <time>2021-03-30T11:51:06.000Z</time>
      </trkpt>
      <trkpt lat="49.8762" lon="4.7731">
        <ele>364</ele>
        <time>2021-03-30T11:51:07.000Z</time>
      </trkpt>
      <trkpt lat="49.8762" lon="4.77306">
        <ele>364</ele>
        <time>2021-03-30T11:51:08.000Z</time>
      </trkpt>
      <trkpt lat="49.87621" lon="4.77303">
        <ele>364</ele>
        <time>2021-03-30T11:51:09.000Z</time>
      </trkpt>
      <trkpt lat="49.87622" lon="4.773">
        <ele>364</ele>
        <time>2021-03-30T11:51:10.000Z</time>
      </trkpt>
      <trkpt lat="49.87622" lon="4.77297">
        <ele>365</ele>
        <time>2021-03-30T11:51:11.000Z</time>
      </trkpt>
      <trkpt lat="49.87623" lon="4.77295">
        <ele>365</ele>
        <time>2021-03-30T11:51:12.000Z</time>
      </trkpt>
      <trkpt lat="49.87623" lon="4.77291">
        <ele>365</ele>
        <time>2021-03-30T11:51:13.000Z</time>
      </trkpt>
      <trkpt lat="49.87624" lon="4.77288">
        <ele>365</ele>
        <time>2021-03-30T11:51:14.000Z</time>
      </trkpt>
      <trkpt lat="49.87625" lon="4.77285">
        <ele>365</ele>
        <time>2021-03-30T11:51:15.000Z</time>
      </trkpt>
      <trkpt lat="49.87625" lon="4.77282">
        <ele>365</ele>
        <time>2021-03-30T11:51:16.000Z</time>
      </trkpt>
      <trkpt lat="49.87626" lon="4.77279">
        <ele>365</ele>
        <time>2021-03-30T11:51:17.000Z</time>
      </trkpt>
      <trkpt lat="49.87627" lon="4.77274">
        <ele>366</ele>
        <time>2021-03-30T11:51:18.000Z</time>
      </trkpt>
      <trkpt lat="49.87627" lon="4.7727">
        <ele>366</ele>
        <time>2021-03-30T11:51:19.000Z</time>
      </trkpt>
      <trkpt lat="49.87628" lon="4.77266">
        <ele>366</ele>
        <time>2021-03-30T11:51:20.000Z</time>
      </trkpt>
      <trkpt lat="49.87628" lon="4.77262">
        <ele>366</ele>
        <time>2021-03-30T11:51:21.000Z</time>
      </trkpt>
      <trkpt lat="49.87629" lon="4.77258">
        <ele>366</ele>
        <time>2021-03-30T11:51:22.000Z</time>
      </trkpt>
      <trkpt lat="49.87629" lon="4.77254">
        <ele>366</ele>
        <time>2021-03-30T11:51:23.000Z</time>
      </trkpt>
      <trkpt lat="49.87629" lon="4.7725">
        <ele>366</ele>
        <time>2021-03-30T11:51:24.000Z</time>
      </trkpt>
      <trkpt lat="49.8763" lon="4.77246">
        <ele>366</ele>
        <time>2021-03-30T11:51:25.000Z</time>
      </trkpt>
      <trkpt lat="49.8763" lon="4.77243">
        <ele>366</ele>
        <time>2021-03-30T11:51:26.000Z</time>
      </trkpt>
      <trkpt lat="49.8763" lon="4.7724">
        <ele>367</ele>
        <time>2021-03-30T11:51:27.000Z</time>
      </trkpt>
      <trkpt lat="49.87631" lon="4.77237">
        <ele>367</ele>
        <time>2021-03-30T11:51:28.000Z</time>
      </trkpt>
      <trkpt lat="49.87631" lon="4.77234">
        <ele>367</ele>
        <time>2021-03-30T11:51:29.000Z</time>
      </trkpt>
      <trkpt lat="49.87632" lon="4.7723">
        <ele>367</ele>
        <time>2021-03-30T11:51:30.000Z</time>
      </trkpt>
      <trkpt lat="49.87633" lon="4.77225">
        <ele>367</ele>
        <time>2021-03-30T11:51:31.000Z</time>
      </trkpt>
      <trkpt lat="49.87634" lon="4.7722">
        <ele>366</ele>
        <time>2021-03-30T11:51:32.000Z</time>
      </trkpt>
      <trkpt lat="49.87634" lon="4.77216">
        <ele>366</ele>
        <time>2021-03-30T11:51:33.000Z</time>
      </trkpt>
      <trkpt lat="49.87635" lon="4.77212">
        <ele>366</ele>
        <time>2021-03-30T11:51:34.000Z</time>
      </trkpt>
      <trkpt lat="49.87635" lon="4.77206">
        <ele>366</ele>
        <time>2021-03-30T11:51:35.000Z</time>
      </trkpt>
      <trkpt lat="49.87636" lon="4.772">
        <ele>366</ele>
        <time>2021-03-30T11:51:36.000Z</time>
      </trkpt>
      <trkpt lat="49.87636" lon="4.77195">
        <ele>366</ele>
        <time>2021-03-30T11:51:37.000Z</time>
      </trkpt>
      <trkpt lat="49.87637" lon="4.77189">
        <ele>366</ele>
        <time>2021-03-30T11:51:38.000Z</time>
      </trkpt>
      <trkpt lat="49.87638" lon="4.77184">
        <ele>366</ele>
        <time>2021-03-30T11:51:39.000Z</time>
      </trkpt>
      <trkpt lat="49.87639" lon="4.77178">
        <ele>366</ele>
        <time>2021-03-30T11:51:40.000Z</time>
      </trkpt>
      <trkpt lat="49.87641" lon="4.77173">
        <ele>366</ele>
        <time>2021-03-30T11:51:41.000Z</time>
      </trkpt>
      <trkpt lat="49.87642" lon="4.77168">
        <ele>366</ele>
        <time>2021-03-30T11:51:42.000Z</time>
      </trkpt>
      <trkpt lat="49.87642" lon="4.77162">
        <ele>366</ele>
        <time>2021-03-30T11:51:43.000Z</time>
      </trkpt>
      <trkpt lat="49.87642" lon="4.77157">
        <ele>366</ele>
        <time>2021-03-30T11:51:44.000Z</time>
      </trkpt>
      <trkpt lat="49.87642" lon="4.77151">
        <ele>365</ele>
        <time>2021-03-30T11:51:45.000Z</time>
      </trkpt>
      <trkpt lat="49.87641" lon="4.77147">
        <ele>365</ele>
        <time>2021-03-30T11:51:46.000Z</time>
      </trkpt>
      <trkpt lat="49.87641" lon="4.77146">
        <ele>365</ele>
        <time>2021-03-30T11:51:47.000Z</time>
      </trkpt>
      <trkpt lat="49.87642" lon="4.77145">
        <ele>365</ele>
        <time>2021-03-30T11:51:48.000Z</time>
      </trkpt>
      <trkpt lat="49.87642" lon="4.77144">
        <ele>365</ele>
        <time>2021-03-30T11:51:49.000Z</time>
      </trkpt>
      <trkpt lat="49.87642" lon="4.77142">
        <ele>365</ele>
        <time>2021-03-30T11:51:50.000Z</time>
      </trkpt>
      <trkpt lat="49.87641" lon="4.77139">
        <ele>365</ele>
        <time>2021-03-30T11:51:51.000Z</time>
      </trkpt>
      <trkpt lat="49.8764" lon="4.77137">
        <ele>365</ele>
        <time>2021-03-30T11:51:52.000Z</time>
      </trkpt>
      <trkpt lat="49.87638" lon="4.77134">
        <ele>365</ele>
        <time>2021-03-30T11:51:53.000Z</time>
      </trkpt>
      <trkpt lat="49.87636" lon="4.77131">
        <ele>365</ele>
        <time>2021-03-30T11:51:54.000Z</time>
      </trkpt>
      <trkpt lat="49.87634" lon="4.77127">
        <ele>365</ele>
        <time>2021-03-30T11:51:55.000Z</time>
      </trkpt>
      <trkpt lat="49.87633" lon="4.77124">
        <ele>364</ele>
        <time>2021-03-30T11:51:56.000Z</time>
      </trkpt>
      <trkpt lat="49.87631" lon="4.77121">
        <ele>364</ele>
        <time>2021-03-30T11:51:57.000Z</time>
      </trkpt>
      <trkpt lat="49.87629" lon="4.77118">
        <ele>364</ele>
        <time>2021-03-30T11:51:58.000Z</time>
      </trkpt>
      <trkpt lat="49.87628" lon="4.77115">
        <ele>364</ele>
        <time>2021-03-30T11:51:59.000Z</time>
      </trkpt>
      <trkpt lat="49.87627" lon="4.77111">
        <ele>364</ele>
        <time>2021-03-30T11:52:00.000Z</time>
      </trkpt>
      <trkpt lat="49.87626" lon="4.77108">
        <ele>363</ele>
        <time>2021-03-30T11:52:01.000Z</time>
      </trkpt>
      <trkpt lat="49.87626" lon="4.77105">
        <ele>363</ele>
        <time>2021-03-30T11:52:02.000Z</time>
      </trkpt>
      <trkpt lat="49.87626" lon="4.77102">
        <ele>363</ele>
        <time>2021-03-30T11:52:03.000Z</time>
      </trkpt>
      <trkpt lat="49.87626" lon="4.771">
        <ele>363</ele>
        <time>2021-03-30T11:52:04.000Z</time>
      </trkpt>
      <trkpt lat="49.87626" lon="4.77099">
        <ele>363</ele>
        <time>2021-03-30T11:52:05.000Z</time>
      </trkpt>
      <trkpt lat="49.87626" lon="4.77099">
        <ele>363</ele>
        <time>2021-03-30T11:52:06.000Z</time>
      </trkpt>
      <trkpt lat="49.87627" lon="4.77099">
        <ele>363</ele>
        <time>2021-03-30T11:52:07.000Z</time>
      </trkpt>
      <trkpt lat="49.87627" lon="4.771">
        <ele>362</ele>
        <time>2021-03-30T11:52:08.000Z</time>
      </trkpt>
      <trkpt lat="49.87627" lon="4.77101">
        <ele>362</ele>
        <time>2021-03-30T11:52:09.000Z</time>
      </trkpt>
      <trkpt lat="49.87627" lon="4.77103">
        <ele>362</ele>
        <time>2021-03-30T11:52:10.000Z</time>
      </trkpt>
      <trkpt lat="49.87627" lon="4.77104">
        <ele>362</ele>
        <time>2021-03-30T11:52:11.000Z</time>
      </trkpt>
      <trkpt lat="49.87627" lon="4.77106">
        <ele>362</ele>
        <time>2021-03-30T11:52:12.000Z</time>
      </trkpt>
      <trkpt lat="49.87628" lon="4.77107">
        <ele>362</ele>
        <time>2021-03-30T11:52:13.000Z</time>
      </trkpt>
      <trkpt lat="49.8763" lon="4.77108">
        <ele>362</ele>
        <time>2021-03-30T11:52:14.000Z</time>
      </trkpt>
      <trkpt lat="49.87631" lon="4.77109">
        <ele>362</ele>
        <time>2021-03-30T11:52:15.000Z</time>
      </trkpt>
      <trkpt lat="49.87633" lon="4.7711">
        <ele>362</ele>
        <time>2021-03-30T11:52:16.000Z</time>
      </trkpt>
      <trkpt lat="49.87634" lon="4.77111">
        <ele>361</ele>
        <time>2021-03-30T11:52:17.000Z</time>
      </trkpt>
      <trkpt lat="49.87637" lon="4.77114">
        <ele>361</ele>
        <time>2021-03-30T11:52:18.000Z</time>
      </trkpt>
      <trkpt lat="49.87639" lon="4.77116">
        <ele>361</ele>
        <time>2021-03-30T11:52:19.000Z</time>
      </trkpt>
      <trkpt lat="49.87641" lon="4.77119">
        <ele>361</ele>
        <time>2021-03-30T11:52:20.000Z</time>
      </trkpt>
      <trkpt lat="49.87642" lon="4.77122">
        <ele>361</ele>
        <time>2021-03-30T11:52:21.000Z</time>
      </trkpt>
      <trkpt lat="49.87644" lon="4.77124">
        <ele>361</ele>
        <time>2021-03-30T11:52:22.000Z</time>
      </trkpt>
      <trkpt lat="49.87645" lon="4.77125">
        <ele>361</ele>
        <time>2021-03-30T11:52:23.000Z</time>
      </trkpt>
      <trkpt lat="49.87646" lon="4.77125">
        <ele>360</ele>
        <time>2021-03-30T11:52:24.000Z</time>
      </trkpt>
      <trkpt lat="49.87647" lon="4.77124">
        <ele>360</ele>
        <time>2021-03-30T11:52:25.000Z</time>
      </trkpt>
      <trkpt lat="49.87648" lon="4.77122">
        <ele>360</ele>
        <time>2021-03-30T11:52:26.000Z</time>
      </trkpt>
      <trkpt lat="49.8765" lon="4.7712">
        <ele>360</ele>
        <time>2021-03-30T11:52:27.000Z</time>
      </trkpt>
      <trkpt lat="49.87651" lon="4.77117">
        <ele>360</ele>
        <time>2021-03-30T11:52:28.000Z</time>
      </trkpt>
      <trkpt lat="49.87652" lon="4.77115">
        <ele>360</ele>
        <time>2021-03-30T11:52:29.000Z</time>
      </trkpt>
      <trkpt lat="49.87652" lon="4.77112">
        <ele>360</ele>
        <time>2021-03-30T11:52:30.000Z</time>
      </trkpt>
      <trkpt lat="49.87653" lon="4.77111">
        <ele>360</ele>
        <time>2021-03-30T11:52:31.000Z</time>
      </trkpt>
      <trkpt lat="49.87654" lon="4.77109">
        <ele>360</ele>
        <time>2021-03-30T11:52:32.000Z</time>
      </trkpt>
      <trkpt lat="49.87654" lon="4.77109">
        <ele>360</ele>
        <time>2021-03-30T11:52:33.000Z</time>
      </trkpt>
      <trkpt lat="49.87654" lon="4.77108">
        <ele>360</ele>
        <time>2021-03-30T11:52:34.000Z</time>
      </trkpt>
      <trkpt lat="49.87654" lon="4.77108">
        <ele>359</ele>
        <time>2021-03-30T11:52:35.000Z</time>
      </trkpt>
      <trkpt lat="49.87654" lon="4.77108">
        <ele>359</ele>
        <time>2021-03-30T11:52:36.000Z</time>
      </trkpt>
      <trkpt lat="49.87655" lon="4.77107">
        <ele>359</ele>
        <time>2021-03-30T11:52:37.000Z</time>
      </trkpt>
      <trkpt lat="49.87655" lon="4.77107">
        <ele>359</ele>
        <time>2021-03-30T11:52:38.000Z</time>
      </trkpt>
      <trkpt lat="49.87655" lon="4.77107">
        <ele>359</ele>
        <time>2021-03-30T11:52:39.000Z</time>
      </trkpt>
      <trkpt lat="49.87655" lon="4.77107">
        <ele>359</ele>
        <time>2021-03-30T11:52:40.000Z</time>
      </trkpt>
      <trkpt lat="49.87656" lon="4.77106">
        <ele>359</ele>
        <time>2021-03-30T11:52:41.000Z</time>
      </trkpt>
      <trkpt lat="49.87656" lon="4.77105">
        <ele>359</ele>
        <time>2021-03-30T11:52:42.000Z</time>
      </trkpt>
      <trkpt lat="49.87657" lon="4.77104">
        <ele>359</ele>
        <time>2021-03-30T11:52:43.000Z</time>
      </trkpt>
      <trkpt lat="49.87658" lon="4.77103">
        <ele>358</ele>
        <time>2021-03-30T11:52:44.000Z</time>
      </trkpt>
      <trkpt lat="49.87659" lon="4.77103">
        <ele>358</ele>
        <time>2021-03-30T11:52:45.000Z</time>
      </trkpt>
      <trkpt lat="49.87661" lon="4.77102">
        <ele>358</ele>
        <time>2021-03-30T11:52:46.000Z</time>
      </trkpt>
      <trkpt lat="49.87662" lon="4.77101">
        <ele>358</ele>
        <time>2021-03-30T11:52:47.000Z</time>
      </trkpt>
      <trkpt lat="49.87664" lon="4.77101">
        <ele>358</ele>
        <time>2021-03-30T11:52:48.000Z</time>
      </trkpt>
      <trkpt lat="49.87666" lon="4.77099">
        <ele>357</ele>
        <time>2021-03-30T11:52:49.000Z</time>
      </trkpt>
      <trkpt lat="49.87668" lon="4.77097">
        <ele>357</ele>
        <time>2021-03-30T11:52:50.000Z</time>
      </trkpt>
      <trkpt lat="49.8767" lon="4.77096">
        <ele>357</ele>
        <time>2021-03-30T11:52:51.000Z</time>
      </trkpt>
      <trkpt lat="49.87672" lon="4.77094">
        <ele>357</ele>
        <time>2021-03-30T11:52:52.000Z</time>
      </trkpt>
      <trkpt lat="49.87674" lon="4.77093">
        <ele>356</ele>
        <time>2021-03-30T11:52:53.000Z</time>
      </trkpt>
      <trkpt lat="49.87675" lon="4.77092">
        <ele>356</ele>
        <time>2021-03-30T11:52:54.000Z</time>
      </trkpt>
      <trkpt lat="49.87675" lon="4.77092">
        <ele>356</ele>
        <time>2021-03-30T11:52:55.000Z</time>
      </trkpt>
      <trkpt lat="49.87675" lon="4.77091">
        <ele>355</ele>
        <time>2021-03-30T11:52:56.000Z</time>
      </trkpt>
      <trkpt lat="49.87676" lon="4.77091">
        <ele>355</ele>
        <time>2021-03-30T11:52:57.000Z</time>
      </trkpt>
      <trkpt lat="49.87676" lon="4.77091">
        <ele>355</ele>
        <time>2021-03-30T11:52:58.000Z</time>
      </trkpt>
      <trkpt lat="49.87676" lon="4.77091">
        <ele>355</ele>
        <time>2021-03-30T11:52:59.000Z</time>
      </trkpt>
      <trkpt lat="49.87677" lon="4.77091">
        <ele>355</ele>
        <time>2021-03-30T11:53:00.000Z</time>
      </trkpt>
      <trkpt lat="49.87677" lon="4.77091">
        <ele>354</ele>
        <time>2021-03-30T11:53:01.000Z</time>
      </trkpt>
      <trkpt lat="49.87678" lon="4.77092">
        <ele>354</ele>
        <time>2021-03-30T11:53:02.000Z</time>
      </trkpt>
      <trkpt lat="49.87678" lon="4.77092">
        <ele>354</ele>
        <time>2021-03-30T11:53:03.000Z</time>
      </trkpt>
      <trkpt lat="49.87679" lon="4.77093">
        <ele>354</ele>
        <time>2021-03-30T11:53:04.000Z</time>
      </trkpt>
      <trkpt lat="49.8768" lon="4.77094">
        <ele>353</ele>
        <time>2021-03-30T11:53:05.000Z</time>
      </trkpt>
      <trkpt lat="49.87681" lon="4.77094">
        <ele>353</ele>
        <time>2021-03-30T11:53:06.000Z</time>
      </trkpt>
      <trkpt lat="49.87682" lon="4.77093">
        <ele>353</ele>
        <time>2021-03-30T11:53:07.000Z</time>
      </trkpt>
      <trkpt lat="49.87683" lon="4.77094">
        <ele>352</ele>
        <time>2021-03-30T11:53:08.000Z</time>
      </trkpt>
      <trkpt lat="49.87685" lon="4.77094">
        <ele>352</ele>
        <time>2021-03-30T11:53:09.000Z</time>
      </trkpt>
      <trkpt lat="49.87688" lon="4.77095">
        <ele>352</ele>
        <time>2021-03-30T11:53:10.000Z</time>
      </trkpt>
      <trkpt lat="49.87691" lon="4.77096">
        <ele>352</ele>
        <time>2021-03-30T11:53:11.000Z</time>
      </trkpt>
      <trkpt lat="49.87693" lon="4.77096">
        <ele>351</ele>
        <time>2021-03-30T11:53:12.000Z</time>
      </trkpt>
      <trkpt lat="49.87695" lon="4.77096">
        <ele>351</ele>
        <time>2021-03-30T11:53:13.000Z</time>
      </trkpt>
      <trkpt lat="49.87696" lon="4.77097">
        <ele>351</ele>
        <time>2021-03-30T11:53:14.000Z</time>
      </trkpt>
      <trkpt lat="49.87697" lon="4.77097">
        <ele>350</ele>
        <time>2021-03-30T11:53:15.000Z</time>
      </trkpt>
      <trkpt lat="49.87698" lon="4.77097">
        <ele>350</ele>
        <time>2021-03-30T11:53:16.000Z</time>
      </trkpt>
      <trkpt lat="49.87699" lon="4.77097">
        <ele>350</ele>
        <time>2021-03-30T11:53:17.000Z</time>
      </trkpt>
      <trkpt lat="49.877" lon="4.77097">
        <ele>350</ele>
        <time>2021-03-30T11:53:18.000Z</time>
      </trkpt>
      <trkpt lat="49.87701" lon="4.77097">
        <ele>349</ele>
        <time>2021-03-30T11:53:19.000Z</time>
      </trkpt>
      <trkpt lat="49.87703" lon="4.77097">
        <ele>349</ele>
        <time>2021-03-30T11:53:20.000Z</time>
      </trkpt>
      <trkpt lat="49.87704" lon="4.77097">
        <ele>349</ele>
        <time>2021-03-30T11:53:21.000Z</time>
      </trkpt>
      <trkpt lat="49.87706" lon="4.77097">
        <ele>349</ele>
        <time>2021-03-30T11:53:22.000Z</time>
      </trkpt>
      <trkpt lat="49.87707" lon="4.77097">
        <ele>348</ele>
        <time>2021-03-30T11:53:23.000Z</time>
      </trkpt>
      <trkpt lat="49.87709" lon="4.77096">
        <ele>348</ele>
        <time>2021-03-30T11:53:24.000Z</time>
      </trkpt>
      <trkpt lat="49.87711" lon="4.77095">
        <ele>348</ele>
        <time>2021-03-30T11:53:25.000Z</time>
      </trkpt>
      <trkpt lat="49.87712" lon="4.77094">
        <ele>347</ele>
        <time>2021-03-30T11:53:26.000Z</time>
      </trkpt>
      <trkpt lat="49.87714" lon="4.77093">
        <ele>347</ele>
        <time>2021-03-30T11:53:27.000Z</time>
      </trkpt>
      <trkpt lat="49.87715" lon="4.77092">
        <ele>346</ele>
        <time>2021-03-30T11:53:28.000Z</time>
      </trkpt>
      <trkpt lat="49.87717" lon="4.7709">
        <ele>346</ele>
        <time>2021-03-30T11:53:29.000Z</time>
      </trkpt>
      <trkpt lat="49.87718" lon="4.7709">
        <ele>346</ele>
        <time>2021-03-30T11:53:30.000Z</time>
      </trkpt>
      <trkpt lat="49.87719" lon="4.77088">
        <ele>346</ele>
        <time>2021-03-30T11:53:31.000Z</time>
      </trkpt>
      <trkpt lat="49.87721" lon="4.77087">
        <ele>345</ele>
        <time>2021-03-30T11:53:32.000Z</time>
      </trkpt>
      <trkpt lat="49.87723" lon="4.77086">
        <ele>345</ele>
        <time>2021-03-30T11:53:33.000Z</time>
      </trkpt>
      <trkpt lat="49.87725" lon="4.77085">
        <ele>345</ele>
        <time>2021-03-30T11:53:34.000Z</time>
      </trkpt>
      <trkpt lat="49.87728" lon="4.77083">
        <ele>344</ele>
        <time>2021-03-30T11:53:35.000Z</time>
      </trkpt>
      <trkpt lat="49.87731" lon="4.77081">
        <ele>344</ele>
        <time>2021-03-30T11:53:36.000Z</time>
      </trkpt>
      <trkpt lat="49.87734" lon="4.77079">
        <ele>343</ele>
        <time>2021-03-30T11:53:37.000Z</time>
      </trkpt>
      <trkpt lat="49.87736" lon="4.77076">
        <ele>343</ele>
        <time>2021-03-30T11:53:38.000Z</time>
      </trkpt>
      <trkpt lat="49.87738" lon="4.77073">
        <ele>343</ele>
        <time>2021-03-30T11:53:39.000Z</time>
      </trkpt>
      <trkpt lat="49.8774" lon="4.7707">
        <ele>342</ele>
        <time>2021-03-30T11:53:40.000Z</time>
      </trkpt>
      <trkpt lat="49.87743" lon="4.77067">
        <ele>342</ele>
        <time>2021-03-30T11:53:41.000Z</time>
      </trkpt>
      <trkpt lat="49.87746" lon="4.77064">
        <ele>341</ele>
        <time>2021-03-30T11:53:42.000Z</time>
      </trkpt>
      <trkpt lat="49.87748" lon="4.77062">
        <ele>341</ele>
        <time>2021-03-30T11:53:43.000Z</time>
      </trkpt>
      <trkpt lat="49.8775" lon="4.7706">
        <ele>340</ele>
        <time>2021-03-30T11:53:44.000Z</time>
      </trkpt>
      <trkpt lat="49.87752" lon="4.77058">
        <ele>339</ele>
        <time>2021-03-30T11:53:45.000Z</time>
      </trkpt>
      <trkpt lat="49.87754" lon="4.77056">
        <ele>339</ele>
        <time>2021-03-30T11:53:46.000Z</time>
      </trkpt>
      <trkpt lat="49.87757" lon="4.77054">
        <ele>338</ele>
        <time>2021-03-30T11:53:47.000Z</time>
      </trkpt>
      <trkpt lat="49.87759" lon="4.77053">
        <ele>337</ele>
        <time>2021-03-30T11:53:48.000Z</time>
      </trkpt>
      <trkpt lat="49.87761" lon="4.77053">
        <ele>337</ele>
        <time>2021-03-30T11:53:49.000Z</time>
      </trkpt>
      <trkpt lat="49.87763" lon="4.77053">
        <ele>336</ele>
        <time>2021-03-30T11:53:50.000Z</time>
      </trkpt>
      <trkpt lat="49.87764" lon="4.77052">
        <ele>335</ele>
        <time>2021-03-30T11:53:51.000Z</time>
      </trkpt>
      <trkpt lat="49.87766" lon="4.77051">
        <ele>334</ele>
        <time>2021-03-30T11:53:52.000Z</time>
      </trkpt>
      <trkpt lat="49.87768" lon="4.77049">
        <ele>334</ele>
        <time>2021-03-30T11:53:53.000Z</time>
      </trkpt>
      <trkpt lat="49.8777" lon="4.77048">
        <ele>333</ele>
        <time>2021-03-30T11:53:54.000Z</time>
      </trkpt>
      <trkpt lat="49.87772" lon="4.77047">
        <ele>332</ele>
        <time>2021-03-30T11:53:55.000Z</time>
      </trkpt>
      <trkpt lat="49.87773" lon="4.77046">
        <ele>331</ele>
        <time>2021-03-30T11:53:56.000Z</time>
      </trkpt>
      <trkpt lat="49.87775" lon="4.77045">
        <ele>331</ele>
        <time>2021-03-30T11:53:57.000Z</time>
      </trkpt>
      <trkpt lat="49.87776" lon="4.77044">
        <ele>330</ele>
        <time>2021-03-30T11:53:58.000Z</time>
      </trkpt>
      <trkpt lat="49.87778" lon="4.77042">
        <ele>329</ele>
        <time>2021-03-30T11:53:59.000Z</time>
      </trkpt>
      <trkpt lat="49.8778" lon="4.7704">
        <ele>329</ele>
        <time>2021-03-30T11:54:00.000Z</time>
      </trkpt>
      <trkpt lat="49.87782" lon="4.77038">
        <ele>328</ele>
        <time>2021-03-30T11:54:01.000Z</time>
      </trkpt>
      <trkpt lat="49.87783" lon="4.77035">
        <ele>327</ele>
        <time>2021-03-30T11:54:02.000Z</time>
      </trkpt>
      <trkpt lat="49.87784" lon="4.77034">
        <ele>327</ele>
        <time>2021-03-30T11:54:03.000Z</time>
      </trkpt>
      <trkpt lat="49.87786" lon="4.77032">
        <ele>326</ele>
        <time>2021-03-30T11:54:04.000Z</time>
      </trkpt>
      <trkpt lat="49.87787" lon="4.7703">
        <ele>325</ele>
        <time>2021-03-30T11:54:05.000Z</time>
      </trkpt>
      <trkpt lat="49.87788" lon="4.77028">
        <ele>325</ele>
        <time>2021-03-30T11:54:06.000Z</time>
      </trkpt>
      <trkpt lat="49.87789" lon="4.77026">
        <ele>324</ele>
        <time>2021-03-30T11:54:07.000Z</time>
      </trkpt>
      <trkpt lat="49.87789" lon="4.77024">
        <ele>324</ele>
        <time>2021-03-30T11:54:08.000Z</time>
      </trkpt>
      <trkpt lat="49.87789" lon="4.77022">
        <ele>323</ele>
        <time>2021-03-30T11:54:09.000Z</time>
      </trkpt>
      <trkpt lat="49.8779" lon="4.77019">
        <ele>323</ele>
        <time>2021-03-30T11:54:10.000Z</time>
      </trkpt>
      <trkpt lat="49.8779" lon="4.77016">
        <ele>322</ele>
        <time>2021-03-30T11:54:11.000Z</time>
      </trkpt>
      <trkpt lat="49.8779" lon="4.77014">
        <ele>322</ele>
        <time>2021-03-30T11:54:12.000Z</time>
      </trkpt>
      <trkpt lat="49.8779" lon="4.77013">
        <ele>322</ele>
        <time>2021-03-30T11:54:13.000Z</time>
      </trkpt>
      <trkpt lat="49.87791" lon="4.77012">
        <ele>321</ele>
        <time>2021-03-30T11:54:14.000Z</time>
      </trkpt>
      <trkpt lat="49.87791" lon="4.77012">
        <ele>321</ele>
        <time>2021-03-30T11:54:15.000Z</time>
      </trkpt>
      <trkpt lat="49.87791" lon="4.77012">
        <ele>321</ele>
        <time>2021-03-30T11:54:16.000Z</time>
      </trkpt>
      <trkpt lat="49.87792" lon="4.77011">
        <ele>321</ele>
        <time>2021-03-30T11:54:17.000Z</time>
      </trkpt>
      <trkpt lat="49.87792" lon="4.77011">
        <ele>321</ele>
        <time>2021-03-30T11:54:18.000Z</time>
      </trkpt>
      <trkpt lat="49.87792" lon="4.77011">
        <ele>321</ele>
        <time>2021-03-30T11:54:19.000Z</time>
      </trkpt>
      <trkpt lat="49.87792" lon="4.7701">
        <ele>321</ele>
        <time>2021-03-30T11:54:20.000Z</time>
      </trkpt>
      <trkpt lat="49.87793" lon="4.7701">
        <ele>320</ele>
        <time>2021-03-30T11:54:21.000Z</time>
      </trkpt>
      <trkpt lat="49.87793" lon="4.7701">
        <ele>320</ele>
        <time>2021-03-30T11:54:22.000Z</time>
      </trkpt>
      <trkpt lat="49.87794" lon="4.7701">
        <ele>320</ele>
        <time>2021-03-30T11:54:23.000Z</time>
      </trkpt>
      <trkpt lat="49.87794" lon="4.7701">
        <ele>320</ele>
        <time>2021-03-30T11:54:24.000Z</time>
      </trkpt>
      <trkpt lat="49.87794" lon="4.77009">
        <ele>320</ele>
        <time>2021-03-30T11:54:25.000Z</time>
      </trkpt>
      <trkpt lat="49.87794" lon="4.77009">
        <ele>320</ele>
        <time>2021-03-30T11:54:26.000Z</time>
      </trkpt>
      <trkpt lat="49.87795" lon="4.77009">
        <ele>320</ele>
        <time>2021-03-30T11:54:27.000Z</time>
      </trkpt>
      <trkpt lat="49.87795" lon="4.77009">
        <ele>320</ele>
        <time>2021-03-30T11:54:28.000Z</time>
      </trkpt>
      <trkpt lat="49.87795" lon="4.77008">
        <ele>320</ele>
        <time>2021-03-30T11:54:29.000Z</time>
      </trkpt>
      <trkpt lat="49.87795" lon="4.77008">
        <ele>320</ele>
        <time>2021-03-30T11:54:30.000Z</time>
      </trkpt>
      <trkpt lat="49.87795" lon="4.77008">
        <ele>320</ele>
        <time>2021-03-30T11:54:31.000Z</time>
      </trkpt>
      <trkpt lat="49.87795" lon="4.77008">
        <ele>319</ele>
        <time>2021-03-30T11:54:32.000Z</time>
      </trkpt>
      <trkpt lat="49.87796" lon="4.77007">
        <ele>319</ele>
        <time>2021-03-30T11:54:33.000Z</time>
      </trkpt>
      <trkpt lat="49.87796" lon="4.77007">
        <ele>319</ele>
        <time>2021-03-30T11:54:34.000Z</time>
      </trkpt>
      <trkpt lat="49.87796" lon="4.77007">
        <ele>319</ele>
        <time>2021-03-30T11:54:35.000Z</time>
      </trkpt>
      <trkpt lat="49.87796" lon="4.77006">
        <ele>319</ele>
        <time>2021-03-30T11:54:36.000Z</time>
      </trkpt>
      <trkpt lat="49.87796" lon="4.77006">
        <ele>319</ele>
        <time>2021-03-30T11:54:37.000Z</time>
      </trkpt>
      <trkpt lat="49.87796" lon="4.77006">
        <ele>319</ele>
        <time>2021-03-30T11:54:38.000Z</time>
      </trkpt>
      <trkpt lat="49.87796" lon="4.77006">
        <ele>319</ele>
        <time>2021-03-30T11:54:39.000Z</time>
      </trkpt>
      <trkpt lat="49.87796" lon="4.77005">
        <ele>319</ele>
        <time>2021-03-30T11:54:40.000Z</time>
      </trkpt>
      <trkpt lat="49.87796" lon="4.77005">
        <ele>319</ele>
        <time>2021-03-30T11:54:41.000Z</time>
      </trkpt>
      <trkpt lat="49.87796" lon="4.77005">
        <ele>319</ele>
        <time>2021-03-30T11:54:42.000Z</time>
      </trkpt>
      <trkpt lat="49.87796" lon="4.77005">
        <ele>319</ele>
        <time>2021-03-30T11:54:43.000Z</time>
      </trkpt>
      <trkpt lat="49.87796" lon="4.77005">
        <ele>319</ele>
        <time>2021-03-30T11:54:44.000Z</time>
      </trkpt>
      <trkpt lat="49.87796" lon="4.77005">
        <ele>319</ele>
        <time>2021-03-30T11:54:45.000Z</time>
      </trkpt>
      <trkpt lat="49.87796" lon="4.77005">
        <ele>319</ele>
        <time>2021-03-30T11:54:46.000Z</time>
      </trkpt>
      <trkpt lat="49.87796" lon="4.77004">
        <ele>319</ele>
        <time>2021-03-30T11:54:47.000Z</time>
      </trkpt>
      <trkpt lat="49.87796" lon="4.77004">
        <ele>319</ele>
        <time>2021-03-30T11:54:48.000Z</time>
      </trkpt>
      <trkpt lat="49.87796" lon="4.77004">
        <ele>319</ele>
        <time>2021-03-30T11:54:49.000Z</time>
      </trkpt>
      <trkpt lat="49.87796" lon="4.77004">
        <ele>319</ele>
        <time>2021-03-30T11:54:50.000Z</time>
      </trkpt>
      <trkpt lat="49.87796" lon="4.77004">
        <ele>319</ele>
        <time>2021-03-30T11:54:51.000Z</time>
      </trkpt>
      <trkpt lat="49.87796" lon="4.77004">
        <ele>319</ele>
        <time>2021-03-30T11:54:52.000Z</time>
      </trkpt>
      <trkpt lat="49.87796" lon="4.77004">
        <ele>319</ele>
        <time>2021-03-30T11:54:53.000Z</time>
      </trkpt>
      <trkpt lat="49.87796" lon="4.77004">
        <ele>319</ele>
        <time>2021-03-30T11:54:54.000Z</time>
      </trkpt>
      <trkpt lat="49.87796" lon="4.77004">
        <ele>319</ele>
        <time>2021-03-30T11:54:55.000Z</time>
      </trkpt>
      <trkpt lat="49.87796" lon="4.77004">
        <ele>319</ele>
        <time>2021-03-30T11:54:56.000Z</time>
      </trkpt>
      <trkpt lat="49.87796" lon="4.77003">
        <ele>319</ele>
        <time>2021-03-30T11:54:57.000Z</time>
      </trkpt>
      <trkpt lat="49.87796" lon="4.77003">
        <ele>319</ele>
        <time>2021-03-30T11:54:58.000Z</time>
      </trkpt>
      <trkpt lat="49.87796" lon="4.77003">
        <ele>319</ele>
        <time>2021-03-30T11:54:59.000Z</time>
      </trkpt>
      <trkpt lat="49.87796" lon="4.77003">
        <ele>319</ele>
        <time>2021-03-30T11:55:00.000Z</time>
      </trkpt>
      <trkpt lat="49.87796" lon="4.77003">
        <ele>319</ele>
        <time>2021-03-30T11:55:01.000Z</time>
      </trkpt>
      <trkpt lat="49.87796" lon="4.77003">
        <ele>319</ele>
        <time>2021-03-30T11:55:02.000Z</time>
      </trkpt>
      <trkpt lat="49.87796" lon="4.77003">
        <ele>319</ele>
        <time>2021-03-30T11:55:03.000Z</time>
      </trkpt>
      <trkpt lat="49.87796" lon="4.77003">
        <ele>319</ele>
        <time>2021-03-30T11:55:04.000Z</time>
      </trkpt>
      <trkpt lat="49.87796" lon="4.77003">
        <ele>319</ele>
        <time>2021-03-30T11:55:05.000Z</time>
      </trkpt>
      <trkpt lat="49.87796" lon="4.77003">
        <ele>319</ele>
        <time>2021-03-30T11:55:06.000Z</time>
      </trkpt>
      <trkpt lat="49.87796" lon="4.77003">
        <ele>319</ele>
        <time>2021-03-30T11:55:07.000Z</time>
      </trkpt>
      <trkpt lat="49.87795" lon="4.77002">
        <ele>319</ele>
        <time>2021-03-30T11:55:08.000Z</time>
      </trkpt>
      <trkpt lat="49.87795" lon="4.77001">
        <ele>319</ele>
        <time>2021-03-30T11:55:09.000Z</time>
      </trkpt>
      <trkpt lat="49.87795" lon="4.77">
        <ele>319</ele>
        <time>2021-03-30T11:55:10.000Z</time>
      </trkpt>
      <trkpt lat="49.87794" lon="4.76997">
        <ele>319</ele>
        <time>2021-03-30T11:55:11.000Z</time>
      </trkpt>
      <trkpt lat="49.87793" lon="4.76994">
        <ele>318</ele>
        <time>2021-03-30T11:55:12.000Z</time>
      </trkpt>
      <trkpt lat="49.87792" lon="4.7699">
        <ele>318</ele>
        <time>2021-03-30T11:55:13.000Z</time>
      </trkpt>
      <trkpt lat="49.87791" lon="4.76986">
        <ele>318</ele>
        <time>2021-03-30T11:55:14.000Z</time>
      </trkpt>
      <trkpt lat="49.87791" lon="4.76982">
        <ele>318</ele>
        <time>2021-03-30T11:55:15.000Z</time>
      </trkpt>
      <trkpt lat="49.8779" lon="4.76978">
        <ele>318</ele>
        <time>2021-03-30T11:55:16.000Z</time>
      </trkpt>
      <trkpt lat="49.87789" lon="4.76975">
        <ele>318</ele>
        <time>2021-03-30T11:55:17.000Z</time>
      </trkpt>
      <trkpt lat="49.87789" lon="4.76971">
        <ele>318</ele>
        <time>2021-03-30T11:55:18.000Z</time>
      </trkpt>
      <trkpt lat="49.87788" lon="4.76968">
        <ele>318</ele>
        <time>2021-03-30T11:55:19.000Z</time>
      </trkpt>
      <trkpt lat="49.87788" lon="4.76964">
        <ele>318</ele>
        <time>2021-03-30T11:55:20.000Z</time>
      </trkpt>
      <trkpt lat="49.87788" lon="4.76959">
        <ele>318</ele>
        <time>2021-03-30T11:55:21.000Z</time>
      </trkpt>
      <trkpt lat="49.87788" lon="4.76954">
        <ele>318</ele>
        <time>2021-03-30T11:55:22.000Z</time>
      </trkpt>
      <trkpt lat="49.87787" lon="4.7695">
        <ele>318</ele>
        <time>2021-03-30T11:55:23.000Z</time>
      </trkpt>
      <trkpt lat="49.87787" lon="4.76944">
        <ele>318</ele>
        <time>2021-03-30T11:55:24.000Z</time>
      </trkpt>
      <trkpt lat="49.87788" lon="4.76939">
        <ele>318</ele>
        <time>2021-03-30T11:55:25.000Z</time>
      </trkpt>
      <trkpt lat="49.87789" lon="4.76934">
        <ele>318</ele>
        <time>2021-03-30T11:55:26.000Z</time>
      </trkpt>
      <trkpt lat="49.8779" lon="4.76929">
        <ele>317</ele>
        <time>2021-03-30T11:55:27.000Z</time>
      </trkpt>
      <trkpt lat="49.8779" lon="4.76923">
        <ele>317</ele>
        <time>2021-03-30T11:55:28.000Z</time>
      </trkpt>
      <trkpt lat="49.8779" lon="4.76916">
        <ele>317</ele>
        <time>2021-03-30T11:55:29.000Z</time>
      </trkpt>
      <trkpt lat="49.87791" lon="4.76909">
        <ele>317</ele>
        <time>2021-03-30T11:55:30.000Z</time>
      </trkpt>
      <trkpt lat="49.87792" lon="4.76902">
        <ele>317</ele>
        <time>2021-03-30T11:55:31.000Z</time>
      </trkpt>
      <trkpt lat="49.87794" lon="4.76895">
        <ele>316</ele>
        <time>2021-03-30T11:55:32.000Z</time>
      </trkpt>
      <trkpt lat="49.87795" lon="4.76889">
        <ele>316</ele>
        <time>2021-03-30T11:55:33.000Z</time>
      </trkpt>
      <trkpt lat="49.87796" lon="4.76883">
        <ele>316</ele>
        <time>2021-03-30T11:55:34.000Z</time>
      </trkpt>
      <trkpt lat="49.87797" lon="4.76876">
        <ele>316</ele>
        <time>2021-03-30T11:55:35.000Z</time>
      </trkpt>
      <trkpt lat="49.87798" lon="4.76871">
        <ele>316</ele>
        <time>2021-03-30T11:55:36.000Z</time>
      </trkpt>
      <trkpt lat="49.87798" lon="4.76865">
        <ele>316</ele>
        <time>2021-03-30T11:55:37.000Z</time>
      </trkpt>
      <trkpt lat="49.87799" lon="4.76859">
        <ele>316</ele>
        <time>2021-03-30T11:55:38.000Z</time>
      </trkpt>
      <trkpt lat="49.878" lon="4.76854">
        <ele>316</ele>
        <time>2021-03-30T11:55:39.000Z</time>
      </trkpt>
      <trkpt lat="49.87801" lon="4.76849">
        <ele>316</ele>
        <time>2021-03-30T11:55:40.000Z</time>
      </trkpt>
      <trkpt lat="49.87801" lon="4.76845">
        <ele>316</ele>
        <time>2021-03-30T11:55:41.000Z</time>
      </trkpt>
      <trkpt lat="49.87802" lon="4.76841">
        <ele>316</ele>
        <time>2021-03-30T11:55:42.000Z</time>
      </trkpt>
      <trkpt lat="49.87803" lon="4.76837">
        <ele>316</ele>
        <time>2021-03-30T11:55:43.000Z</time>
      </trkpt>
      <trkpt lat="49.87805" lon="4.76833">
        <ele>316</ele>
        <time>2021-03-30T11:55:44.000Z</time>
      </trkpt>
      <trkpt lat="49.87807" lon="4.76829">
        <ele>316</ele>
        <time>2021-03-30T11:55:45.000Z</time>
      </trkpt>
      <trkpt lat="49.87808" lon="4.76826">
        <ele>316</ele>
        <time>2021-03-30T11:55:46.000Z</time>
      </trkpt>
      <trkpt lat="49.87808" lon="4.76823">
        <ele>316</ele>
        <time>2021-03-30T11:55:47.000Z</time>
      </trkpt>
      <trkpt lat="49.87808" lon="4.7682">
        <ele>316</ele>
        <time>2021-03-30T11:55:48.000Z</time>
      </trkpt>
      <trkpt lat="49.87808" lon="4.76816">
        <ele>316</ele>
        <time>2021-03-30T11:55:49.000Z</time>
      </trkpt>
      <trkpt lat="49.87808" lon="4.76813">
        <ele>316</ele>
        <time>2021-03-30T11:55:50.000Z</time>
      </trkpt>
      <trkpt lat="49.87808" lon="4.76809">
        <ele>316</ele>
        <time>2021-03-30T11:55:51.000Z</time>
      </trkpt>
      <trkpt lat="49.87808" lon="4.76805">
        <ele>316</ele>
        <time>2021-03-30T11:55:52.000Z</time>
      </trkpt>
      <trkpt lat="49.87808" lon="4.76802">
        <ele>316</ele>
        <time>2021-03-30T11:55:53.000Z</time>
      </trkpt>
      <trkpt lat="49.87807" lon="4.76798">
        <ele>315</ele>
        <time>2021-03-30T11:55:54.000Z</time>
      </trkpt>
      <trkpt lat="49.87807" lon="4.76795">
        <ele>315</ele>
        <time>2021-03-30T11:55:55.000Z</time>
      </trkpt>
      <trkpt lat="49.87806" lon="4.76791">
        <ele>315</ele>
        <time>2021-03-30T11:55:56.000Z</time>
      </trkpt>
      <trkpt lat="49.87807" lon="4.76787">
        <ele>315</ele>
        <time>2021-03-30T11:55:57.000Z</time>
      </trkpt>
      <trkpt lat="49.87807" lon="4.76783">
        <ele>316</ele>
        <time>2021-03-30T11:55:58.000Z</time>
      </trkpt>
      <trkpt lat="49.87807" lon="4.7678">
        <ele>316</ele>
        <time>2021-03-30T11:55:59.000Z</time>
      </trkpt>
      <trkpt lat="49.87807" lon="4.76776">
        <ele>316</ele>
        <time>2021-03-30T11:56:00.000Z</time>
      </trkpt>
      <trkpt lat="49.87806" lon="4.76772">
        <ele>316</ele>
        <time>2021-03-30T11:56:01.000Z</time>
      </trkpt>
      <trkpt lat="49.87806" lon="4.76769">
        <ele>316</ele>
        <time>2021-03-30T11:56:02.000Z</time>
      </trkpt>
      <trkpt lat="49.87807" lon="4.76765">
        <ele>316</ele>
        <time>2021-03-30T11:56:03.000Z</time>
      </trkpt>
      <trkpt lat="49.87807" lon="4.76762">
        <ele>316</ele>
        <time>2021-03-30T11:56:04.000Z</time>
      </trkpt>
      <trkpt lat="49.87807" lon="4.76759">
        <ele>317</ele>
        <time>2021-03-30T11:56:05.000Z</time>
      </trkpt>
      <trkpt lat="49.87807" lon="4.76755">
        <ele>317</ele>
        <time>2021-03-30T11:56:06.000Z</time>
      </trkpt>
      <trkpt lat="49.87807" lon="4.76752">
        <ele>317</ele>
        <time>2021-03-30T11:56:07.000Z</time>
      </trkpt>
      <trkpt lat="49.87807" lon="4.76749">
        <ele>317</ele>
        <time>2021-03-30T11:56:08.000Z</time>
      </trkpt>
      <trkpt lat="49.87807" lon="4.76746">
        <ele>318</ele>
        <time>2021-03-30T11:56:09.000Z</time>
      </trkpt>
      <trkpt lat="49.87808" lon="4.76743">
        <ele>318</ele>
        <time>2021-03-30T11:56:10.000Z</time>
      </trkpt>
      <trkpt lat="49.87809" lon="4.7674">
        <ele>318</ele>
        <time>2021-03-30T11:56:11.000Z</time>
      </trkpt>
      <trkpt lat="49.87809" lon="4.76737">
        <ele>319</ele>
        <time>2021-03-30T11:56:12.000Z</time>
      </trkpt>
      <trkpt lat="49.87809" lon="4.76735">
        <ele>319</ele>
        <time>2021-03-30T11:56:13.000Z</time>
      </trkpt>
      <trkpt lat="49.87809" lon="4.76732">
        <ele>320</ele>
        <time>2021-03-30T11:56:14.000Z</time>
      </trkpt>
      <trkpt lat="49.8781" lon="4.7673">
        <ele>320</ele>
        <time>2021-03-30T11:56:15.000Z</time>
      </trkpt>
      <trkpt lat="49.8781" lon="4.76728">
        <ele>320</ele>
        <time>2021-03-30T11:56:16.000Z</time>
      </trkpt>
      <trkpt lat="49.87811" lon="4.76725">
        <ele>321</ele>
        <time>2021-03-30T11:56:17.000Z</time>
      </trkpt>
      <trkpt lat="49.87812" lon="4.76722">
        <ele>321</ele>
        <time>2021-03-30T11:56:18.000Z</time>
      </trkpt>
      <trkpt lat="49.87812" lon="4.76719">
        <ele>322</ele>
        <time>2021-03-30T11:56:19.000Z</time>
      </trkpt>
      <trkpt lat="49.87812" lon="4.76716">
        <ele>322</ele>
        <time>2021-03-30T11:56:20.000Z</time>
      </trkpt>
      <trkpt lat="49.87812" lon="4.76713">
        <ele>323</ele>
        <time>2021-03-30T11:56:21.000Z</time>
      </trkpt>
      <trkpt lat="49.87812" lon="4.7671">
        <ele>323</ele>
        <time>2021-03-30T11:56:22.000Z</time>
      </trkpt>
      <trkpt lat="49.87812" lon="4.76707">
        <ele>324</ele>
        <time>2021-03-30T11:56:23.000Z</time>
      </trkpt>
      <trkpt lat="49.87812" lon="4.76704">
        <ele>324</ele>
        <time>2021-03-30T11:56:24.000Z</time>
      </trkpt>
      <trkpt lat="49.87812" lon="4.76701">
        <ele>324</ele>
        <time>2021-03-30T11:56:25.000Z</time>
      </trkpt>
      <trkpt lat="49.87811" lon="4.76697">
        <ele>325</ele>
        <time>2021-03-30T11:56:26.000Z</time>
      </trkpt>
      <trkpt lat="49.87811" lon="4.76694">
        <ele>325</ele>
        <time>2021-03-30T11:56:27.000Z</time>
      </trkpt>
      <trkpt lat="49.87811" lon="4.76691">
        <ele>325</ele>
        <time>2021-03-30T11:56:28.000Z</time>
      </trkpt>
      <trkpt lat="49.87812" lon="4.76687">
        <ele>326</ele>
        <time>2021-03-30T11:56:29.000Z</time>
      </trkpt>
      <trkpt lat="49.87812" lon="4.76684">
        <ele>326</ele>
        <time>2021-03-30T11:56:30.000Z</time>
      </trkpt>
      <trkpt lat="49.87812" lon="4.76681">
        <ele>326</ele>
        <time>2021-03-30T11:56:31.000Z</time>
      </trkpt>
      <trkpt lat="49.87812" lon="4.76679">
        <ele>327</ele>
        <time>2021-03-30T11:56:32.000Z</time>
      </trkpt>
      <trkpt lat="49.87813" lon="4.76676">
        <ele>327</ele>
        <time>2021-03-30T11:56:33.000Z</time>
      </trkpt>
      <trkpt lat="49.87813" lon="4.76673">
        <ele>327</ele>
        <time>2021-03-30T11:56:34.000Z</time>
      </trkpt>
      <trkpt lat="49.87813" lon="4.7667">
        <ele>328</ele>
        <time>2021-03-30T11:56:35.000Z</time>
      </trkpt>
      <trkpt lat="49.87814" lon="4.76667">
        <ele>328</ele>
        <time>2021-03-30T11:56:36.000Z</time>
      </trkpt>
      <trkpt lat="49.87815" lon="4.76664">
        <ele>328</ele>
        <time>2021-03-30T11:56:37.000Z</time>
      </trkpt>
      <trkpt lat="49.87816" lon="4.76661">
        <ele>328</ele>
        <time>2021-03-30T11:56:38.000Z</time>
      </trkpt>
      <trkpt lat="49.87816" lon="4.76658">
        <ele>329</ele>
        <time>2021-03-30T11:56:39.000Z</time>
      </trkpt>
      <trkpt lat="49.87816" lon="4.76655">
        <ele>329</ele>
        <time>2021-03-30T11:56:40.000Z</time>
      </trkpt>
      <trkpt lat="49.87816" lon="4.76653">
        <ele>329</ele>
        <time>2021-03-30T11:56:41.000Z</time>
      </trkpt>
      <trkpt lat="49.87816" lon="4.7665">
        <ele>329</ele>
        <time>2021-03-30T11:56:42.000Z</time>
      </trkpt>
      <trkpt lat="49.87816" lon="4.76647">
        <ele>330</ele>
        <time>2021-03-30T11:56:43.000Z</time>
      </trkpt>
      <trkpt lat="49.87816" lon="4.76645">
        <ele>330</ele>
        <time>2021-03-30T11:56:44.000Z</time>
      </trkpt>
      <trkpt lat="49.87816" lon="4.76642">
        <ele>330</ele>
        <time>2021-03-30T11:56:45.000Z</time>
      </trkpt>
      <trkpt lat="49.87816" lon="4.76639">
        <ele>330</ele>
        <time>2021-03-30T11:56:46.000Z</time>
      </trkpt>
      <trkpt lat="49.87816" lon="4.76636">
        <ele>330</ele>
        <time>2021-03-30T11:56:47.000Z</time>
      </trkpt>
      <trkpt lat="49.87815" lon="4.76634">
        <ele>330</ele>
        <time>2021-03-30T11:56:48.000Z</time>
      </trkpt>
      <trkpt lat="49.87815" lon="4.76631">
        <ele>330</ele>
        <time>2021-03-30T11:56:49.000Z</time>
      </trkpt>
      <trkpt lat="49.87814" lon="4.76627">
        <ele>330</ele>
        <time>2021-03-30T11:56:50.000Z</time>
      </trkpt>
      <trkpt lat="49.87814" lon="4.76624">
        <ele>330</ele>
        <time>2021-03-30T11:56:51.000Z</time>
      </trkpt>
      <trkpt lat="49.87813" lon="4.76621">
        <ele>330</ele>
        <time>2021-03-30T11:56:52.000Z</time>
      </trkpt>
      <trkpt lat="49.87813" lon="4.76617">
        <ele>330</ele>
        <time>2021-03-30T11:56:53.000Z</time>
      </trkpt>
      <trkpt lat="49.87812" lon="4.76614">
        <ele>330</ele>
        <time>2021-03-30T11:56:54.000Z</time>
      </trkpt>
      <trkpt lat="49.87812" lon="4.76611">
        <ele>330</ele>
        <time>2021-03-30T11:56:55.000Z</time>
      </trkpt>
      <trkpt lat="49.87811" lon="4.76607">
        <ele>330</ele>
        <time>2021-03-30T11:56:56.000Z</time>
      </trkpt>
      <trkpt lat="49.87811" lon="4.76603">
        <ele>330</ele>
        <time>2021-03-30T11:56:57.000Z</time>
      </trkpt>
      <trkpt lat="49.8781" lon="4.766">
        <ele>330</ele>
        <time>2021-03-30T11:56:58.000Z</time>
      </trkpt>
      <trkpt lat="49.87809" lon="4.76596">
        <ele>330</ele>
        <time>2021-03-30T11:56:59.000Z</time>
      </trkpt>
      <trkpt lat="49.87809" lon="4.76593">
        <ele>329</ele>
        <time>2021-03-30T11:57:00.000Z</time>
      </trkpt>
      <trkpt lat="49.87808" lon="4.7659">
        <ele>329</ele>
        <time>2021-03-30T11:57:01.000Z</time>
      </trkpt>
      <trkpt lat="49.87808" lon="4.76586">
        <ele>329</ele>
        <time>2021-03-30T11:57:02.000Z</time>
      </trkpt>
      <trkpt lat="49.87807" lon="4.76583">
        <ele>329</ele>
        <time>2021-03-30T11:57:03.000Z</time>
      </trkpt>
      <trkpt lat="49.87806" lon="4.7658">
        <ele>329</ele>
        <time>2021-03-30T11:57:04.000Z</time>
      </trkpt>
      <trkpt lat="49.87806" lon="4.76577">
        <ele>329</ele>
        <time>2021-03-30T11:57:05.000Z</time>
      </trkpt>
      <trkpt lat="49.87805" lon="4.76574">
        <ele>328</ele>
        <time>2021-03-30T11:57:06.000Z</time>
      </trkpt>
      <trkpt lat="49.87804" lon="4.7657">
        <ele>328</ele>
        <time>2021-03-30T11:57:07.000Z</time>
      </trkpt>
      <trkpt lat="49.87803" lon="4.76567">
        <ele>328</ele>
        <time>2021-03-30T11:57:08.000Z</time>
      </trkpt>
      <trkpt lat="49.87802" lon="4.76564">
        <ele>328</ele>
        <time>2021-03-30T11:57:09.000Z</time>
      </trkpt>
      <trkpt lat="49.87801" lon="4.76561">
        <ele>328</ele>
        <time>2021-03-30T11:57:10.000Z</time>
      </trkpt>
      <trkpt lat="49.87801" lon="4.76558">
        <ele>328</ele>
        <time>2021-03-30T11:57:11.000Z</time>
      </trkpt>
      <trkpt lat="49.878" lon="4.76554">
        <ele>328</ele>
        <time>2021-03-30T11:57:12.000Z</time>
      </trkpt>
      <trkpt lat="49.878" lon="4.76551">
        <ele>328</ele>
        <time>2021-03-30T11:57:13.000Z</time>
      </trkpt>
      <trkpt lat="49.878" lon="4.76548">
        <ele>328</ele>
        <time>2021-03-30T11:57:14.000Z</time>
      </trkpt>
      <trkpt lat="49.878" lon="4.76545">
        <ele>328</ele>
        <time>2021-03-30T11:57:15.000Z</time>
      </trkpt>
      <trkpt lat="49.878" lon="4.76542">
        <ele>329</ele>
        <time>2021-03-30T11:57:16.000Z</time>
      </trkpt>
      <trkpt lat="49.878" lon="4.7654">
        <ele>329</ele>
        <time>2021-03-30T11:57:17.000Z</time>
      </trkpt>
      <trkpt lat="49.87801" lon="4.76538">
        <ele>329</ele>
        <time>2021-03-30T11:57:18.000Z</time>
      </trkpt>
      <trkpt lat="49.87801" lon="4.76536">
        <ele>329</ele>
        <time>2021-03-30T11:57:19.000Z</time>
      </trkpt>
      <trkpt lat="49.87801" lon="4.76534">
        <ele>329</ele>
        <time>2021-03-30T11:57:20.000Z</time>
      </trkpt>
      <trkpt lat="49.87801" lon="4.7653">
        <ele>329</ele>
        <time>2021-03-30T11:57:21.000Z</time>
      </trkpt>
      <trkpt lat="49.878" lon="4.76527">
        <ele>329</ele>
        <time>2021-03-30T11:57:22.000Z</time>
      </trkpt>
      <trkpt lat="49.878" lon="4.76523">
        <ele>329</ele>
        <time>2021-03-30T11:57:23.000Z</time>
      </trkpt>
      <trkpt lat="49.878" lon="4.7652">
        <ele>330</ele>
        <time>2021-03-30T11:57:24.000Z</time>
      </trkpt>
      <trkpt lat="49.87801" lon="4.76516">
        <ele>330</ele>
        <time>2021-03-30T11:57:25.000Z</time>
      </trkpt>
      <trkpt lat="49.87801" lon="4.7651">
        <ele>330</ele>
        <time>2021-03-30T11:57:26.000Z</time>
      </trkpt>
      <trkpt lat="49.87801" lon="4.76505">
        <ele>330</ele>
        <time>2021-03-30T11:57:27.000Z</time>
      </trkpt>
      <trkpt lat="49.87801" lon="4.76498">
        <ele>330</ele>
        <time>2021-03-30T11:57:28.000Z</time>
      </trkpt>
      <trkpt lat="49.87802" lon="4.76491">
        <ele>330</ele>
        <time>2021-03-30T11:57:29.000Z</time>
      </trkpt>
      <trkpt lat="49.87803" lon="4.76483">
        <ele>330</ele>
        <time>2021-03-30T11:57:30.000Z</time>
      </trkpt>
      <trkpt lat="49.87804" lon="4.76475">
        <ele>330</ele>
        <time>2021-03-30T11:57:31.000Z</time>
      </trkpt>
      <trkpt lat="49.87806" lon="4.76467">
        <ele>330</ele>
        <time>2021-03-30T11:57:32.000Z</time>
      </trkpt>
      <trkpt lat="49.87807" lon="4.76458">
        <ele>330</ele>
        <time>2021-03-30T11:57:33.000Z</time>
      </trkpt>
      <trkpt lat="49.87809" lon="4.76448">
        <ele>330</ele>
        <time>2021-03-30T11:57:34.000Z</time>
      </trkpt>
      <trkpt lat="49.87811" lon="4.76439">
        <ele>330</ele>
        <time>2021-03-30T11:57:35.000Z</time>
      </trkpt>
      <trkpt lat="49.87814" lon="4.7643">
        <ele>330</ele>
        <time>2021-03-30T11:57:36.000Z</time>
      </trkpt>
      <trkpt lat="49.87816" lon="4.76421">
        <ele>330</ele>
        <time>2021-03-30T11:57:37.000Z</time>
      </trkpt>
      <trkpt lat="49.87817" lon="4.76413">
        <ele>329</ele>
        <time>2021-03-30T11:57:38.000Z</time>
      </trkpt>
      <trkpt lat="49.87819" lon="4.76405">
        <ele>329</ele>
        <time>2021-03-30T11:57:39.000Z</time>
      </trkpt>
      <trkpt lat="49.87821" lon="4.76396">
        <ele>329</ele>
        <time>2021-03-30T11:57:40.000Z</time>
      </trkpt>
      <trkpt lat="49.87823" lon="4.76388">
        <ele>329</ele>
        <time>2021-03-30T11:57:41.000Z</time>
      </trkpt>
      <trkpt lat="49.87824" lon="4.76378">
        <ele>328</ele>
        <time>2021-03-30T11:57:42.000Z</time>
      </trkpt>
      <trkpt lat="49.87825" lon="4.76367">
        <ele>328</ele>
        <time>2021-03-30T11:57:43.000Z</time>
      </trkpt>
      <trkpt lat="49.87825" lon="4.76357">
        <ele>328</ele>
        <time>2021-03-30T11:57:44.000Z</time>
      </trkpt>
      <trkpt lat="49.87825" lon="4.76346">
        <ele>327</ele>
        <time>2021-03-30T11:57:45.000Z</time>
      </trkpt>
      <trkpt lat="49.87825" lon="4.76335">
        <ele>327</ele>
        <time>2021-03-30T11:57:46.000Z</time>
      </trkpt>
      <trkpt lat="49.87825" lon="4.76324">
        <ele>327</ele>
        <time>2021-03-30T11:57:47.000Z</time>
      </trkpt>
      <trkpt lat="49.87824" lon="4.76313">
        <ele>326</ele>
        <time>2021-03-30T11:57:48.000Z</time>
      </trkpt>
      <trkpt lat="49.87824" lon="4.76303">
        <ele>326</ele>
        <time>2021-03-30T11:57:49.000Z</time>
      </trkpt>
      <trkpt lat="49.87824" lon="4.76293">
        <ele>326</ele>
        <time>2021-03-30T11:57:50.000Z</time>
      </trkpt>
      <trkpt lat="49.87824" lon="4.76284">
        <ele>325</ele>
        <time>2021-03-30T11:57:51.000Z</time>
      </trkpt>
      <trkpt lat="49.87823" lon="4.76274">
        <ele>325</ele>
        <time>2021-03-30T11:57:52.000Z</time>
      </trkpt>
      <trkpt lat="49.87823" lon="4.76265">
        <ele>324</ele>
        <time>2021-03-30T11:57:53.000Z</time>
      </trkpt>
      <trkpt lat="49.87822" lon="4.76255">
        <ele>324</ele>
        <time>2021-03-30T11:57:54.000Z</time>
      </trkpt>
      <trkpt lat="49.87821" lon="4.76246">
        <ele>323</ele>
        <time>2021-03-30T11:57:55.000Z</time>
      </trkpt>
      <trkpt lat="49.8782" lon="4.76237">
        <ele>323</ele>
        <time>2021-03-30T11:57:56.000Z</time>
      </trkpt>
      <trkpt lat="49.87818" lon="4.76228">
        <ele>322</ele>
        <time>2021-03-30T11:57:57.000Z</time>
      </trkpt>
      <trkpt lat="49.87815" lon="4.76219">
        <ele>322</ele>
        <time>2021-03-30T11:57:58.000Z</time>
      </trkpt>
      <trkpt lat="49.87812" lon="4.76212">
        <ele>321</ele>
        <time>2021-03-30T11:57:59.000Z</time>
      </trkpt>
      <trkpt lat="49.87809" lon="4.76204">
        <ele>320</ele>
        <time>2021-03-30T11:58:00.000Z</time>
      </trkpt>
      <trkpt lat="49.87806" lon="4.76197">
        <ele>320</ele>
        <time>2021-03-30T11:58:01.000Z</time>
      </trkpt>
      <trkpt lat="49.87803" lon="4.7619">
        <ele>319</ele>
        <time>2021-03-30T11:58:02.000Z</time>
      </trkpt>
      <trkpt lat="49.87799" lon="4.76184">
        <ele>319</ele>
        <time>2021-03-30T11:58:03.000Z</time>
      </trkpt>
      <trkpt lat="49.87796" lon="4.76177">
        <ele>318</ele>
        <time>2021-03-30T11:58:04.000Z</time>
      </trkpt>
      <trkpt lat="49.87792" lon="4.76171">
        <ele>317</ele>
        <time>2021-03-30T11:58:05.000Z</time>
      </trkpt>
      <trkpt lat="49.87789" lon="4.76166">
        <ele>317</ele>
        <time>2021-03-30T11:58:06.000Z</time>
      </trkpt>
      <trkpt lat="49.87787" lon="4.7616">
        <ele>316</ele>
        <time>2021-03-30T11:58:07.000Z</time>
      </trkpt>
      <trkpt lat="49.87785" lon="4.76154">
        <ele>316</ele>
        <time>2021-03-30T11:58:08.000Z</time>
      </trkpt>
      <trkpt lat="49.87783" lon="4.76148">
        <ele>316</ele>
        <time>2021-03-30T11:58:09.000Z</time>
      </trkpt>
      <trkpt lat="49.87781" lon="4.76142">
        <ele>315</ele>
        <time>2021-03-30T11:58:10.000Z</time>
      </trkpt>
      <trkpt lat="49.8778" lon="4.76135">
        <ele>315</ele>
        <time>2021-03-30T11:58:11.000Z</time>
      </trkpt>
      <trkpt lat="49.87778" lon="4.76128">
        <ele>314</ele>
        <time>2021-03-30T11:58:12.000Z</time>
      </trkpt>
      <trkpt lat="49.87777" lon="4.7612">
        <ele>314</ele>
        <time>2021-03-30T11:58:13.000Z</time>
      </trkpt>
      <trkpt lat="49.87776" lon="4.76112">
        <ele>314</ele>
        <time>2021-03-30T11:58:14.000Z</time>
      </trkpt>
      <trkpt lat="49.87774" lon="4.76105">
        <ele>314</ele>
        <time>2021-03-30T11:58:15.000Z</time>
      </trkpt>
      <trkpt lat="49.87772" lon="4.76096">
        <ele>313</ele>
        <time>2021-03-30T11:58:16.000Z</time>
      </trkpt>
      <trkpt lat="49.87771" lon="4.76087">
        <ele>313</ele>
        <time>2021-03-30T11:58:17.000Z</time>
      </trkpt>
      <trkpt lat="49.87769" lon="4.76077">
        <ele>312</ele>
        <time>2021-03-30T11:58:18.000Z</time>
      </trkpt>
      <trkpt lat="49.87767" lon="4.76068">
        <ele>312</ele>
        <time>2021-03-30T11:58:19.000Z</time>
      </trkpt>
      <trkpt lat="49.87767" lon="4.76059">
        <ele>312</ele>
        <time>2021-03-30T11:58:20.000Z</time>
      </trkpt>
      <trkpt lat="49.87766" lon="4.76049">
        <ele>311</ele>
        <time>2021-03-30T11:58:21.000Z</time>
      </trkpt>
      <trkpt lat="49.87764" lon="4.76041">
        <ele>311</ele>
        <time>2021-03-30T11:58:22.000Z</time>
      </trkpt>
      <trkpt lat="49.87763" lon="4.76033">
        <ele>310</ele>
        <time>2021-03-30T11:58:23.000Z</time>
      </trkpt>
      <trkpt lat="49.87763" lon="4.76026">
        <ele>310</ele>
        <time>2021-03-30T11:58:24.000Z</time>
      </trkpt>
      <trkpt lat="49.87762" lon="4.76019">
        <ele>310</ele>
        <time>2021-03-30T11:58:25.000Z</time>
      </trkpt>
      <trkpt lat="49.87761" lon="4.76013">
        <ele>309</ele>
        <time>2021-03-30T11:58:26.000Z</time>
      </trkpt>
      <trkpt lat="49.8776" lon="4.76007">
        <ele>309</ele>
        <time>2021-03-30T11:58:27.000Z</time>
      </trkpt>
      <trkpt lat="49.87759" lon="4.76001">
        <ele>309</ele>
        <time>2021-03-30T11:58:28.000Z</time>
      </trkpt>
      <trkpt lat="49.87758" lon="4.75995">
        <ele>308</ele>
        <time>2021-03-30T11:58:29.000Z</time>
      </trkpt>
      <trkpt lat="49.87758" lon="4.75989">
        <ele>308</ele>
        <time>2021-03-30T11:58:30.000Z</time>
      </trkpt>
      <trkpt lat="49.87757" lon="4.75984">
        <ele>308</ele>
        <time>2021-03-30T11:58:31.000Z</time>
      </trkpt>
      <trkpt lat="49.87757" lon="4.75979">
        <ele>308</ele>
        <time>2021-03-30T11:58:32.000Z</time>
      </trkpt>
      <trkpt lat="49.87756" lon="4.75973">
        <ele>308</ele>
        <time>2021-03-30T11:58:33.000Z</time>
      </trkpt>
      <trkpt lat="49.87755" lon="4.75968">
        <ele>308</ele>
        <time>2021-03-30T11:58:34.000Z</time>
      </trkpt>
      <trkpt lat="49.87754" lon="4.75962">
        <ele>308</ele>
        <time>2021-03-30T11:58:35.000Z</time>
      </trkpt>
      <trkpt lat="49.87754" lon="4.75957">
        <ele>308</ele>
        <time>2021-03-30T11:58:36.000Z</time>
      </trkpt>
      <trkpt lat="49.87753" lon="4.75951">
        <ele>307</ele>
        <time>2021-03-30T11:58:37.000Z</time>
      </trkpt>
      <trkpt lat="49.87753" lon="4.75945">
        <ele>307</ele>
        <time>2021-03-30T11:58:38.000Z</time>
      </trkpt>
      <trkpt lat="49.87752" lon="4.75939">
        <ele>307</ele>
        <time>2021-03-30T11:58:39.000Z</time>
      </trkpt>
      <trkpt lat="49.87751" lon="4.75933">
        <ele>307</ele>
        <time>2021-03-30T11:58:40.000Z</time>
      </trkpt>
      <trkpt lat="49.8775" lon="4.75926">
        <ele>307</ele>
        <time>2021-03-30T11:58:41.000Z</time>
      </trkpt>
      <trkpt lat="49.87749" lon="4.75919">
        <ele>307</ele>
        <time>2021-03-30T11:58:42.000Z</time>
      </trkpt>
      <trkpt lat="49.87749" lon="4.75913">
        <ele>307</ele>
        <time>2021-03-30T11:58:43.000Z</time>
      </trkpt>
      <trkpt lat="49.87748" lon="4.75907">
        <ele>307</ele>
        <time>2021-03-30T11:58:44.000Z</time>
      </trkpt>
      <trkpt lat="49.87747" lon="4.75902">
        <ele>307</ele>
        <time>2021-03-30T11:58:45.000Z</time>
      </trkpt>
      <trkpt lat="49.87747" lon="4.75896">
        <ele>307</ele>
        <time>2021-03-30T11:58:46.000Z</time>
      </trkpt>
      <trkpt lat="49.87747" lon="4.75891">
        <ele>307</ele>
        <time>2021-03-30T11:58:47.000Z</time>
      </trkpt>
      <trkpt lat="49.87746" lon="4.75886">
        <ele>307</ele>
        <time>2021-03-30T11:58:48.000Z</time>
      </trkpt>
      <trkpt lat="49.87746" lon="4.7588">
        <ele>307</ele>
        <time>2021-03-30T11:58:49.000Z</time>
      </trkpt>
      <trkpt lat="49.87745" lon="4.75875">
        <ele>306</ele>
        <time>2021-03-30T11:58:50.000Z</time>
      </trkpt>
      <trkpt lat="49.87744" lon="4.75869">
        <ele>306</ele>
        <time>2021-03-30T11:58:51.000Z</time>
      </trkpt>
      <trkpt lat="49.87743" lon="4.75864">
        <ele>306</ele>
        <time>2021-03-30T11:58:52.000Z</time>
      </trkpt>
      <trkpt lat="49.87743" lon="4.75858">
        <ele>306</ele>
        <time>2021-03-30T11:58:53.000Z</time>
      </trkpt>
      <trkpt lat="49.87742" lon="4.75853">
        <ele>306</ele>
        <time>2021-03-30T11:58:54.000Z</time>
      </trkpt>
      <trkpt lat="49.87741" lon="4.75848">
        <ele>307</ele>
        <time>2021-03-30T11:58:55.000Z</time>
      </trkpt>
      <trkpt lat="49.8774" lon="4.75843">
        <ele>307</ele>
        <time>2021-03-30T11:58:56.000Z</time>
      </trkpt>
      <trkpt lat="49.87739" lon="4.75839">
        <ele>307</ele>
        <time>2021-03-30T11:58:57.000Z</time>
      </trkpt>
      <trkpt lat="49.87739" lon="4.75835">
        <ele>307</ele>
        <time>2021-03-30T11:58:58.000Z</time>
      </trkpt>
      <trkpt lat="49.87739" lon="4.7583">
        <ele>307</ele>
        <time>2021-03-30T11:58:59.000Z</time>
      </trkpt>
      <trkpt lat="49.87738" lon="4.75826">
        <ele>307</ele>
        <time>2021-03-30T11:59:00.000Z</time>
      </trkpt>
      <trkpt lat="49.87737" lon="4.75821">
        <ele>307</ele>
        <time>2021-03-30T11:59:01.000Z</time>
      </trkpt>
      <trkpt lat="49.87737" lon="4.75816">
        <ele>307</ele>
        <time>2021-03-30T11:59:02.000Z</time>
      </trkpt>
      <trkpt lat="49.87736" lon="4.75812">
        <ele>307</ele>
        <time>2021-03-30T11:59:03.000Z</time>
      </trkpt>
      <trkpt lat="49.87735" lon="4.75807">
        <ele>308</ele>
        <time>2021-03-30T11:59:04.000Z</time>
      </trkpt>
      <trkpt lat="49.87735" lon="4.75802">
        <ele>308</ele>
        <time>2021-03-30T11:59:05.000Z</time>
      </trkpt>
      <trkpt lat="49.87734" lon="4.75798">
        <ele>308</ele>
        <time>2021-03-30T11:59:06.000Z</time>
      </trkpt>
      <trkpt lat="49.87733" lon="4.75793">
        <ele>308</ele>
        <time>2021-03-30T11:59:07.000Z</time>
      </trkpt>
      <trkpt lat="49.87732" lon="4.75788">
        <ele>308</ele>
        <time>2021-03-30T11:59:08.000Z</time>
      </trkpt>
      <trkpt lat="49.87732" lon="4.75784">
        <ele>308</ele>
        <time>2021-03-30T11:59:09.000Z</time>
      </trkpt>
      <trkpt lat="49.87731" lon="4.75779">
        <ele>309</ele>
        <time>2021-03-30T11:59:10.000Z</time>
      </trkpt>
      <trkpt lat="49.8773" lon="4.75775">
        <ele>309</ele>
        <time>2021-03-30T11:59:11.000Z</time>
      </trkpt>
      <trkpt lat="49.87729" lon="4.7577">
        <ele>309</ele>
        <time>2021-03-30T11:59:12.000Z</time>
      </trkpt>
      <trkpt lat="49.87729" lon="4.75766">
        <ele>309</ele>
        <time>2021-03-30T11:59:13.000Z</time>
      </trkpt>
      <trkpt lat="49.87728" lon="4.75762">
        <ele>309</ele>
        <time>2021-03-30T11:59:14.000Z</time>
      </trkpt>
      <trkpt lat="49.87727" lon="4.75758">
        <ele>309</ele>
        <time>2021-03-30T11:59:15.000Z</time>
      </trkpt>
      <trkpt lat="49.87726" lon="4.75755">
        <ele>309</ele>
        <time>2021-03-30T11:59:16.000Z</time>
      </trkpt>
      <trkpt lat="49.87726" lon="4.75751">
        <ele>309</ele>
        <time>2021-03-30T11:59:17.000Z</time>
      </trkpt>
      <trkpt lat="49.87725" lon="4.75746">
        <ele>309</ele>
        <time>2021-03-30T11:59:18.000Z</time>
      </trkpt>
      <trkpt lat="49.87724" lon="4.75742">
        <ele>310</ele>
        <time>2021-03-30T11:59:19.000Z</time>
      </trkpt>
      <trkpt lat="49.87724" lon="4.75738">
        <ele>310</ele>
        <time>2021-03-30T11:59:20.000Z</time>
      </trkpt>
      <trkpt lat="49.87723" lon="4.75734">
        <ele>310</ele>
        <time>2021-03-30T11:59:21.000Z</time>
      </trkpt>
      <trkpt lat="49.87723" lon="4.7573">
        <ele>310</ele>
        <time>2021-03-30T11:59:22.000Z</time>
      </trkpt>
      <trkpt lat="49.87722" lon="4.75725">
        <ele>310</ele>
        <time>2021-03-30T11:59:23.000Z</time>
      </trkpt>
      <trkpt lat="49.87721" lon="4.75721">
        <ele>310</ele>
        <time>2021-03-30T11:59:24.000Z</time>
      </trkpt>
      <trkpt lat="49.8772" lon="4.75717">
        <ele>310</ele>
        <time>2021-03-30T11:59:25.000Z</time>
      </trkpt>
      <trkpt lat="49.87719" lon="4.75713">
        <ele>310</ele>
        <time>2021-03-30T11:59:26.000Z</time>
      </trkpt>
      <trkpt lat="49.87718" lon="4.75708">
        <ele>310</ele>
        <time>2021-03-30T11:59:27.000Z</time>
      </trkpt>
      <trkpt lat="49.87717" lon="4.75704">
        <ele>311</ele>
        <time>2021-03-30T11:59:28.000Z</time>
      </trkpt>
      <trkpt lat="49.87717" lon="4.75699">
        <ele>311</ele>
        <time>2021-03-30T11:59:29.000Z</time>
      </trkpt>
      <trkpt lat="49.87716" lon="4.75695">
        <ele>311</ele>
        <time>2021-03-30T11:59:30.000Z</time>
      </trkpt>
      <trkpt lat="49.87715" lon="4.7569">
        <ele>311</ele>
        <time>2021-03-30T11:59:31.000Z</time>
      </trkpt>
      <trkpt lat="49.87714" lon="4.75686">
        <ele>311</ele>
        <time>2021-03-30T11:59:32.000Z</time>
      </trkpt>
      <trkpt lat="49.87713" lon="4.75682">
        <ele>311</ele>
        <time>2021-03-30T11:59:33.000Z</time>
      </trkpt>
      <trkpt lat="49.87712" lon="4.75677">
        <ele>311</ele>
        <time>2021-03-30T11:59:34.000Z</time>
      </trkpt>
      <trkpt lat="49.87711" lon="4.75673">
        <ele>312</ele>
        <time>2021-03-30T11:59:35.000Z</time>
      </trkpt>
      <trkpt lat="49.8771" lon="4.75668">
        <ele>312</ele>
        <time>2021-03-30T11:59:36.000Z</time>
      </trkpt>
      <trkpt lat="49.87709" lon="4.75664">
        <ele>312</ele>
        <time>2021-03-30T11:59:37.000Z</time>
      </trkpt>
      <trkpt lat="49.87709" lon="4.75659">
        <ele>312</ele>
        <time>2021-03-30T11:59:38.000Z</time>
      </trkpt>
      <trkpt lat="49.87708" lon="4.75655">
        <ele>312</ele>
        <time>2021-03-30T11:59:39.000Z</time>
      </trkpt>
      <trkpt lat="49.87707" lon="4.7565">
        <ele>312</ele>
        <time>2021-03-30T11:59:40.000Z</time>
      </trkpt>
      <trkpt lat="49.87706" lon="4.75645">
        <ele>312</ele>
        <time>2021-03-30T11:59:41.000Z</time>
      </trkpt>
      <trkpt lat="49.87705" lon="4.7564">
        <ele>312</ele>
        <time>2021-03-30T11:59:42.000Z</time>
      </trkpt>
      <trkpt lat="49.87704" lon="4.75635">
        <ele>312</ele>
        <time>2021-03-30T11:59:43.000Z</time>
      </trkpt>
      <trkpt lat="49.87704" lon="4.7563">
        <ele>312</ele>
        <time>2021-03-30T11:59:44.000Z</time>
      </trkpt>
      <trkpt lat="49.87702" lon="4.75626">
        <ele>313</ele>
        <time>2021-03-30T11:59:45.000Z</time>
      </trkpt>
      <trkpt lat="49.87702" lon="4.75621">
        <ele>313</ele>
        <time>2021-03-30T11:59:46.000Z</time>
      </trkpt>
      <trkpt lat="49.87701" lon="4.75616">
        <ele>313</ele>
        <time>2021-03-30T11:59:47.000Z</time>
      </trkpt>
      <trkpt lat="49.877" lon="4.75611">
        <ele>313</ele>
        <time>2021-03-30T11:59:48.000Z</time>
      </trkpt>
      <trkpt lat="49.87699" lon="4.75606">
        <ele>313</ele>
        <time>2021-03-30T11:59:49.000Z</time>
      </trkpt>
      <trkpt lat="49.87698" lon="4.75601">
        <ele>313</ele>
        <time>2021-03-30T11:59:50.000Z</time>
      </trkpt>
      <trkpt lat="49.87697" lon="4.75597">
        <ele>313</ele>
        <time>2021-03-30T11:59:51.000Z</time>
      </trkpt>
      <trkpt lat="49.87696" lon="4.75592">
        <ele>313</ele>
        <time>2021-03-30T11:59:52.000Z</time>
      </trkpt>
      <trkpt lat="49.87695" lon="4.75588">
        <ele>313</ele>
        <time>2021-03-30T11:59:53.000Z</time>
      </trkpt>
      <trkpt lat="49.87693" lon="4.75583">
        <ele>313</ele>
        <time>2021-03-30T11:59:54.000Z</time>
      </trkpt>
      <trkpt lat="49.87692" lon="4.75579">
        <ele>313</ele>
        <time>2021-03-30T11:59:55.000Z</time>
      </trkpt>
      <trkpt lat="49.8769" lon="4.75574">
        <ele>313</ele>
        <time>2021-03-30T11:59:56.000Z</time>
      </trkpt>
      <trkpt lat="49.87689" lon="4.7557">
        <ele>313</ele>
        <time>2021-03-30T11:59:57.000Z</time>
      </trkpt>
      <trkpt lat="49.87687" lon="4.75566">
        <ele>313</ele>
        <time>2021-03-30T11:59:58.000Z</time>
      </trkpt>
      <trkpt lat="49.87685" lon="4.75562">
        <ele>313</ele>
        <time>2021-03-30T11:59:59.000Z</time>
      </trkpt>
      <trkpt lat="49.87683" lon="4.75558">
        <ele>313</ele>
        <time>2021-03-30T12:00:00.000Z</time>
      </trkpt>
      <trkpt lat="49.87681" lon="4.75554">
        <ele>313</ele>
        <time>2021-03-30T12:00:01.000Z</time>
      </trkpt>
      <trkpt lat="49.87678" lon="4.75551">
        <ele>313</ele>
        <time>2021-03-30T12:00:02.000Z</time>
      </trkpt>
      <trkpt lat="49.87676" lon="4.75547">
        <ele>313</ele>
        <time>2021-03-30T12:00:03.000Z</time>
      </trkpt>
      <trkpt lat="49.87673" lon="4.75544">
        <ele>313</ele>
        <time>2021-03-30T12:00:04.000Z</time>
      </trkpt>
      <trkpt lat="49.8767" lon="4.75541">
        <ele>313</ele>
        <time>2021-03-30T12:00:05.000Z</time>
      </trkpt>
      <trkpt lat="49.87668" lon="4.75538">
        <ele>313</ele>
        <time>2021-03-30T12:00:06.000Z</time>
      </trkpt>
      <trkpt lat="49.87665" lon="4.75535">
        <ele>313</ele>
        <time>2021-03-30T12:00:07.000Z</time>
      </trkpt>
      <trkpt lat="49.87662" lon="4.75533">
        <ele>313</ele>
        <time>2021-03-30T12:00:08.000Z</time>
      </trkpt>
      <trkpt lat="49.87659" lon="4.75531">
        <ele>314</ele>
        <time>2021-03-30T12:00:09.000Z</time>
      </trkpt>
      <trkpt lat="49.87657" lon="4.75528">
        <ele>314</ele>
        <time>2021-03-30T12:00:10.000Z</time>
      </trkpt>
      <trkpt lat="49.87656" lon="4.75526">
        <ele>313</ele>
        <time>2021-03-30T12:00:11.000Z</time>
      </trkpt>
      <trkpt lat="49.87654" lon="4.75524">
        <ele>313</ele>
        <time>2021-03-30T12:00:12.000Z</time>
      </trkpt>
      <trkpt lat="49.87653" lon="4.75524">
        <ele>313</ele>
        <time>2021-03-30T12:00:13.000Z</time>
      </trkpt>
      <trkpt lat="49.87653" lon="4.75524">
        <ele>313</ele>
        <time>2021-03-30T12:00:14.000Z</time>
      </trkpt>
      <trkpt lat="49.87653" lon="4.75524">
        <ele>313</ele>
        <time>2021-03-30T12:00:15.000Z</time>
      </trkpt>
      <trkpt lat="49.87653" lon="4.75524">
        <ele>314</ele>
        <time>2021-03-30T12:00:16.000Z</time>
      </trkpt>
      <trkpt lat="49.87653" lon="4.75524">
        <ele>314</ele>
        <time>2021-03-30T12:00:17.000Z</time>
      </trkpt>
      <trkpt lat="49.87653" lon="4.75524">
        <ele>314</ele>
        <time>2021-03-30T12:00:18.000Z</time>
      </trkpt>
      <trkpt lat="49.87653" lon="4.75524">
        <ele>314</ele>
        <time>2021-03-30T12:00:19.000Z</time>
      </trkpt>
      <trkpt lat="49.87653" lon="4.75524">
        <ele>314</ele>
        <time>2021-03-30T12:00:20.000Z</time>
      </trkpt>
      <trkpt lat="49.87653" lon="4.75524">
        <ele>314</ele>
        <time>2021-03-30T12:00:21.000Z</time>
      </trkpt>
      <trkpt lat="49.87653" lon="4.75524">
        <ele>314</ele>
        <time>2021-03-30T12:00:22.000Z</time>
      </trkpt>
      <trkpt lat="49.87653" lon="4.75524">
        <ele>314</ele>
        <time>2021-03-30T12:00:23.000Z</time>
      </trkpt>
      <trkpt lat="49.87653" lon="4.75524">
        <ele>314</ele>
        <time>2021-03-30T12:00:24.000Z</time>
      </trkpt>
      <trkpt lat="49.87653" lon="4.75524">
        <ele>314</ele>
        <time>2021-03-30T12:00:25.000Z</time>
      </trkpt>
      <trkpt lat="49.87653" lon="4.75524">
        <ele>314</ele>
        <time>2021-03-30T12:00:26.000Z</time>
      </trkpt>
      <trkpt lat="49.87653" lon="4.75524">
        <ele>314</ele>
        <time>2021-03-30T12:00:27.000Z</time>
      </trkpt>
      <trkpt lat="49.87653" lon="4.75524">
        <ele>314</ele>
        <time>2021-03-30T12:00:28.000Z</time>
      </trkpt>
      <trkpt lat="49.87653" lon="4.75524">
        <ele>314</ele>
        <time>2021-03-30T12:00:29.000Z</time>
      </trkpt>
      <trkpt lat="49.87653" lon="4.75524">
        <ele>314</ele>
        <time>2021-03-30T12:00:30.000Z</time>
      </trkpt>
      <trkpt lat="49.87653" lon="4.75524">
        <ele>314</ele>
        <time>2021-03-30T12:00:31.000Z</time>
      </trkpt>
      <trkpt lat="49.87653" lon="4.75524">
        <ele>313</ele>
        <time>2021-03-30T12:00:32.000Z</time>
      </trkpt>
      <trkpt lat="49.87653" lon="4.75524">
        <ele>313</ele>
        <time>2021-03-30T12:00:33.000Z</time>
      </trkpt>
      <trkpt lat="49.87653" lon="4.75524">
        <ele>313</ele>
        <time>2021-03-30T12:00:34.000Z</time>
      </trkpt>
      <trkpt lat="49.87653" lon="4.75524">
        <ele>313</ele>
        <time>2021-03-30T12:00:35.000Z</time>
      </trkpt>
      <trkpt lat="49.87653" lon="4.75524">
        <ele>313</ele>
        <time>2021-03-30T12:00:36.000Z</time>
      </trkpt>
      <trkpt lat="49.87653" lon="4.75524">
        <ele>313</ele>
        <time>2021-03-30T12:00:37.000Z</time>
      </trkpt>
      <trkpt lat="49.87653" lon="4.75524">
        <ele>313</ele>
        <time>2021-03-30T12:00:38.000Z</time>
      </trkpt>
      <trkpt lat="49.87653" lon="4.75524">
        <ele>313</ele>
        <time>2021-03-30T12:00:39.000Z</time>
      </trkpt>
      <trkpt lat="49.87653" lon="4.75524">
        <ele>313</ele>
        <time>2021-03-30T12:00:40.000Z</time>
      </trkpt>
      <trkpt lat="49.87653" lon="4.75524">
        <ele>313</ele>
        <time>2021-03-30T12:00:41.000Z</time>
      </trkpt>
      <trkpt lat="49.87653" lon="4.75523">
        <ele>313</ele>
        <time>2021-03-30T12:00:42.000Z</time>
      </trkpt>
      <trkpt lat="49.87653" lon="4.75523">
        <ele>313</ele>
        <time>2021-03-30T12:00:43.000Z</time>
      </trkpt>
      <trkpt lat="49.87653" lon="4.75523">
        <ele>313</ele>
        <time>2021-03-30T12:00:44.000Z</time>
      </trkpt>
      <trkpt lat="49.87653" lon="4.75523">
        <ele>313</ele>
        <time>2021-03-30T12:00:45.000Z</time>
      </trkpt>
      <trkpt lat="49.87653" lon="4.75523">
        <ele>313</ele>
        <time>2021-03-30T12:00:46.000Z</time>
      </trkpt>
      <trkpt lat="49.87653" lon="4.75523">
        <ele>313</ele>
        <time>2021-03-30T12:00:47.000Z</time>
      </trkpt>
      <trkpt lat="49.87653" lon="4.75524">
        <ele>313</ele>
        <time>2021-03-30T12:00:48.000Z</time>
      </trkpt>
      <trkpt lat="49.87653" lon="4.75524">
        <ele>313</ele>
        <time>2021-03-30T12:00:49.000Z</time>
      </trkpt>
      <trkpt lat="49.87653" lon="4.75524">
        <ele>313</ele>
        <time>2021-03-30T12:00:50.000Z</time>
      </trkpt>
      <trkpt lat="49.87653" lon="4.75523">
        <ele>313</ele>
        <time>2021-03-30T12:00:51.000Z</time>
      </trkpt>
      <trkpt lat="49.87652" lon="4.75521">
        <ele>313</ele>
        <time>2021-03-30T12:00:52.000Z</time>
      </trkpt>
      <trkpt lat="49.8765" lon="4.75521">
        <ele>313</ele>
        <time>2021-03-30T12:00:53.000Z</time>
      </trkpt>
      <trkpt lat="49.87648" lon="4.75519">
        <ele>313</ele>
        <time>2021-03-30T12:00:54.000Z</time>
      </trkpt>
      <trkpt lat="49.87647" lon="4.75517">
        <ele>313</ele>
        <time>2021-03-30T12:00:55.000Z</time>
      </trkpt>
      <trkpt lat="49.87645" lon="4.75516">
        <ele>313</ele>
        <time>2021-03-30T12:00:56.000Z</time>
      </trkpt>
      <trkpt lat="49.87642" lon="4.75515">
        <ele>313</ele>
        <time>2021-03-30T12:00:57.000Z</time>
      </trkpt>
      <trkpt lat="49.8764" lon="4.75513">
        <ele>313</ele>
        <time>2021-03-30T12:00:58.000Z</time>
      </trkpt>
      <trkpt lat="49.87638" lon="4.75511">
        <ele>313</ele>
        <time>2021-03-30T12:00:59.000Z</time>
      </trkpt>
      <trkpt lat="49.87635" lon="4.75509">
        <ele>313</ele>
        <time>2021-03-30T12:01:00.000Z</time>
      </trkpt>
      <trkpt lat="49.87633" lon="4.75507">
        <ele>313</ele>
        <time>2021-03-30T12:01:01.000Z</time>
      </trkpt>
      <trkpt lat="49.87631" lon="4.75504">
        <ele>313</ele>
        <time>2021-03-30T12:01:02.000Z</time>
      </trkpt>
      <trkpt lat="49.87629" lon="4.75502">
        <ele>313</ele>
        <time>2021-03-30T12:01:03.000Z</time>
      </trkpt>
      <trkpt lat="49.87626" lon="4.75499">
        <ele>313</ele>
        <time>2021-03-30T12:01:04.000Z</time>
      </trkpt>
      <trkpt lat="49.87624" lon="4.75497">
        <ele>313</ele>
        <time>2021-03-30T12:01:05.000Z</time>
      </trkpt>
      <trkpt lat="49.87621" lon="4.75494">
        <ele>313</ele>
        <time>2021-03-30T12:01:06.000Z</time>
      </trkpt>
      <trkpt lat="49.87618" lon="4.7549">
        <ele>313</ele>
        <time>2021-03-30T12:01:07.000Z</time>
      </trkpt>
      <trkpt lat="49.87614" lon="4.75486">
        <ele>312</ele>
        <time>2021-03-30T12:01:08.000Z</time>
      </trkpt>
      <trkpt lat="49.87611" lon="4.75484">
        <ele>312</ele>
        <time>2021-03-30T12:01:09.000Z</time>
      </trkpt>
      <trkpt lat="49.87607" lon="4.75483">
        <ele>312</ele>
        <time>2021-03-30T12:01:10.000Z</time>
      </trkpt>
      <trkpt lat="49.87603" lon="4.75483">
        <ele>312</ele>
        <time>2021-03-30T12:01:11.000Z</time>
      </trkpt>
      <trkpt lat="49.876" lon="4.75482">
        <ele>312</ele>
        <time>2021-03-30T12:01:12.000Z</time>
      </trkpt>
      <trkpt lat="49.87597" lon="4.75481">
        <ele>312</ele>
        <time>2021-03-30T12:01:13.000Z</time>
      </trkpt>
      <trkpt lat="49.87595" lon="4.75479">
        <ele>312</ele>
        <time>2021-03-30T12:01:14.000Z</time>
      </trkpt>
      <trkpt lat="49.87593" lon="4.75477">
        <ele>312</ele>
        <time>2021-03-30T12:01:15.000Z</time>
      </trkpt>
      <trkpt lat="49.87591" lon="4.75476">
        <ele>312</ele>
        <time>2021-03-30T12:01:16.000Z</time>
      </trkpt>
      <trkpt lat="49.87588" lon="4.75474">
        <ele>312</ele>
        <time>2021-03-30T12:01:17.000Z</time>
      </trkpt>
      <trkpt lat="49.87585" lon="4.75472">
        <ele>312</ele>
        <time>2021-03-30T12:01:18.000Z</time>
      </trkpt>
      <trkpt lat="49.87582" lon="4.75471">
        <ele>312</ele>
        <time>2021-03-30T12:01:19.000Z</time>
      </trkpt>
      <trkpt lat="49.87579" lon="4.75469">
        <ele>312</ele>
        <time>2021-03-30T12:01:20.000Z</time>
      </trkpt>
      <trkpt lat="49.87576" lon="4.75468">
        <ele>312</ele>
        <time>2021-03-30T12:01:21.000Z</time>
      </trkpt>
      <trkpt lat="49.87574" lon="4.75466">
        <ele>313</ele>
        <time>2021-03-30T12:01:22.000Z</time>
      </trkpt>
      <trkpt lat="49.87571" lon="4.75465">
        <ele>313</ele>
        <time>2021-03-30T12:01:23.000Z</time>
      </trkpt>
      <trkpt lat="49.87568" lon="4.75463">
        <ele>313</ele>
        <time>2021-03-30T12:01:24.000Z</time>
      </trkpt>
      <trkpt lat="49.87565" lon="4.75462">
        <ele>313</ele>
        <time>2021-03-30T12:01:25.000Z</time>
      </trkpt>
      <trkpt lat="49.87562" lon="4.75461">
        <ele>313</ele>
        <time>2021-03-30T12:01:26.000Z</time>
      </trkpt>
      <trkpt lat="49.87559" lon="4.75459">
        <ele>313</ele>
        <time>2021-03-30T12:01:27.000Z</time>
      </trkpt>
      <trkpt lat="49.87556" lon="4.75457">
        <ele>313</ele>
        <time>2021-03-30T12:01:28.000Z</time>
      </trkpt>
      <trkpt lat="49.87553" lon="4.75456">
        <ele>314</ele>
        <time>2021-03-30T12:01:29.000Z</time>
      </trkpt>
      <trkpt lat="49.8755" lon="4.75454">
        <ele>314</ele>
        <time>2021-03-30T12:01:30.000Z</time>
      </trkpt>
      <trkpt lat="49.87547" lon="4.75453">
        <ele>314</ele>
        <time>2021-03-30T12:01:31.000Z</time>
      </trkpt>
      <trkpt lat="49.87545" lon="4.75452">
        <ele>314</ele>
        <time>2021-03-30T12:01:32.000Z</time>
      </trkpt>
      <trkpt lat="49.87543" lon="4.75451">
        <ele>314</ele>
        <time>2021-03-30T12:01:33.000Z</time>
      </trkpt>
      <trkpt lat="49.87541" lon="4.7545">
        <ele>314</ele>
        <time>2021-03-30T12:01:34.000Z</time>
      </trkpt>
      <trkpt lat="49.87539" lon="4.75449">
        <ele>315</ele>
        <time>2021-03-30T12:01:35.000Z</time>
      </trkpt>
      <trkpt lat="49.87538" lon="4.75448">
        <ele>315</ele>
        <time>2021-03-30T12:01:36.000Z</time>
      </trkpt>
      <trkpt lat="49.87537" lon="4.75448">
        <ele>315</ele>
        <time>2021-03-30T12:01:37.000Z</time>
      </trkpt>
      <trkpt lat="49.87537" lon="4.75448">
        <ele>315</ele>
        <time>2021-03-30T12:01:38.000Z</time>
      </trkpt>
      <trkpt lat="49.87537" lon="4.75448">
        <ele>315</ele>
        <time>2021-03-30T12:01:39.000Z</time>
      </trkpt>
      <trkpt lat="49.87537" lon="4.75448">
        <ele>315</ele>
        <time>2021-03-30T12:01:40.000Z</time>
      </trkpt>
      <trkpt lat="49.87536" lon="4.75448">
        <ele>316</ele>
        <time>2021-03-30T12:01:41.000Z</time>
      </trkpt>
      <trkpt lat="49.87536" lon="4.75449">
        <ele>316</ele>
        <time>2021-03-30T12:01:42.000Z</time>
      </trkpt>
      <trkpt lat="49.87536" lon="4.75449">
        <ele>316</ele>
        <time>2021-03-30T12:01:43.000Z</time>
      </trkpt>
      <trkpt lat="49.87536" lon="4.75449">
        <ele>316</ele>
        <time>2021-03-30T12:01:44.000Z</time>
      </trkpt>
      <trkpt lat="49.87536" lon="4.75449">
        <ele>316</ele>
        <time>2021-03-30T12:01:45.000Z</time>
      </trkpt>
      <trkpt lat="49.87535" lon="4.7545">
        <ele>317</ele>
        <time>2021-03-30T12:01:46.000Z</time>
      </trkpt>
      <trkpt lat="49.87535" lon="4.7545">
        <ele>317</ele>
        <time>2021-03-30T12:01:47.000Z</time>
      </trkpt>
      <trkpt lat="49.87535" lon="4.7545">
        <ele>317</ele>
        <time>2021-03-30T12:01:48.000Z</time>
      </trkpt>
      <trkpt lat="49.87535" lon="4.75451">
        <ele>317</ele>
        <time>2021-03-30T12:01:49.000Z</time>
      </trkpt>
      <trkpt lat="49.87534" lon="4.75451">
        <ele>317</ele>
        <time>2021-03-30T12:01:50.000Z</time>
      </trkpt>
      <trkpt lat="49.87534" lon="4.75452">
        <ele>317</ele>
        <time>2021-03-30T12:01:51.000Z</time>
      </trkpt>
      <trkpt lat="49.87534" lon="4.75452">
        <ele>317</ele>
        <time>2021-03-30T12:01:52.000Z</time>
      </trkpt>
      <trkpt lat="49.87534" lon="4.75452">
        <ele>318</ele>
        <time>2021-03-30T12:01:53.000Z</time>
      </trkpt>
      <trkpt lat="49.87534" lon="4.75453">
        <ele>318</ele>
        <time>2021-03-30T12:01:54.000Z</time>
      </trkpt>
      <trkpt lat="49.87534" lon="4.75453">
        <ele>318</ele>
        <time>2021-03-30T12:01:55.000Z</time>
      </trkpt>
      <trkpt lat="49.87533" lon="4.75453">
        <ele>318</ele>
        <time>2021-03-30T12:01:56.000Z</time>
      </trkpt>
      <trkpt lat="49.87533" lon="4.75453">
        <ele>318</ele>
        <time>2021-03-30T12:01:57.000Z</time>
      </trkpt>
      <trkpt lat="49.87533" lon="4.75453">
        <ele>318</ele>
        <time>2021-03-30T12:01:58.000Z</time>
      </trkpt>
      <trkpt lat="49.87533" lon="4.75454">
        <ele>318</ele>
        <time>2021-03-30T12:01:59.000Z</time>
      </trkpt>
      <trkpt lat="49.87533" lon="4.75454">
        <ele>318</ele>
        <time>2021-03-30T12:02:00.000Z</time>
      </trkpt>
      <trkpt lat="49.87533" lon="4.75454">
        <ele>318</ele>
        <time>2021-03-30T12:02:01.000Z</time>
      </trkpt>
      <trkpt lat="49.87533" lon="4.75454">
        <ele>318</ele>
        <time>2021-03-30T12:02:02.000Z</time>
      </trkpt>
      <trkpt lat="49.87533" lon="4.75454">
        <ele>318</ele>
        <time>2021-03-30T12:02:03.000Z</time>
      </trkpt>
      <trkpt lat="49.87533" lon="4.75454">
        <ele>318</ele>
        <time>2021-03-30T12:02:04.000Z</time>
      </trkpt>
      <trkpt lat="49.87533" lon="4.75454">
        <ele>318</ele>
        <time>2021-03-30T12:02:05.000Z</time>
      </trkpt>
      <trkpt lat="49.87533" lon="4.75455">
        <ele>318</ele>
        <time>2021-03-30T12:02:06.000Z</time>
      </trkpt>
      <trkpt lat="49.87533" lon="4.75455">
        <ele>318</ele>
        <time>2021-03-30T12:02:07.000Z</time>
      </trkpt>
      <trkpt lat="49.87532" lon="4.75455">
        <ele>318</ele>
        <time>2021-03-30T12:02:08.000Z</time>
      </trkpt>
      <trkpt lat="49.87532" lon="4.75455">
        <ele>318</ele>
        <time>2021-03-30T12:02:09.000Z</time>
      </trkpt>
      <trkpt lat="49.87532" lon="4.75455">
        <ele>318</ele>
        <time>2021-03-30T12:02:10.000Z</time>
      </trkpt>
      <trkpt lat="49.87532" lon="4.75455">
        <ele>318</ele>
        <time>2021-03-30T12:02:11.000Z</time>
      </trkpt>
      <trkpt lat="49.87532" lon="4.75455">
        <ele>318</ele>
        <time>2021-03-30T12:02:12.000Z</time>
      </trkpt>
      <trkpt lat="49.87532" lon="4.75455">
        <ele>318</ele>
        <time>2021-03-30T12:02:13.000Z</time>
      </trkpt>
      <trkpt lat="49.87532" lon="4.75455">
        <ele>318</ele>
        <time>2021-03-30T12:02:14.000Z</time>
      </trkpt>
      <trkpt lat="49.87532" lon="4.75455">
        <ele>318</ele>
        <time>2021-03-30T12:02:15.000Z</time>
      </trkpt>
      <trkpt lat="49.87532" lon="4.75456">
        <ele>318</ele>
        <time>2021-03-30T12:02:16.000Z</time>
      </trkpt>
      <trkpt lat="49.87532" lon="4.75456">
        <ele>318</ele>
        <time>2021-03-30T12:02:17.000Z</time>
      </trkpt>
      <trkpt lat="49.87532" lon="4.75456">
        <ele>319</ele>
        <time>2021-03-30T12:02:18.000Z</time>
      </trkpt>
      <trkpt lat="49.87532" lon="4.75456">
        <ele>319</ele>
        <time>2021-03-30T12:02:19.000Z</time>
      </trkpt>
      <trkpt lat="49.87531" lon="4.75455">
        <ele>319</ele>
        <time>2021-03-30T12:02:20.000Z</time>
      </trkpt>
      <trkpt lat="49.87531" lon="4.75454">
        <ele>319</ele>
        <time>2021-03-30T12:02:21.000Z</time>
      </trkpt>
      <trkpt lat="49.8753" lon="4.75453">
        <ele>318</ele>
        <time>2021-03-30T12:02:22.000Z</time>
      </trkpt>
      <trkpt lat="49.87529" lon="4.75452">
        <ele>318</ele>
        <time>2021-03-30T12:02:23.000Z</time>
      </trkpt>
      <trkpt lat="49.87527" lon="4.7545">
        <ele>318</ele>
        <time>2021-03-30T12:02:24.000Z</time>
      </trkpt>
      <trkpt lat="49.87525" lon="4.75448">
        <ele>318</ele>
        <time>2021-03-30T12:02:25.000Z</time>
      </trkpt>
      <trkpt lat="49.87524" lon="4.75446">
        <ele>319</ele>
        <time>2021-03-30T12:02:26.000Z</time>
      </trkpt>
      <trkpt lat="49.87522" lon="4.75444">
        <ele>319</ele>
        <time>2021-03-30T12:02:27.000Z</time>
      </trkpt>
      <trkpt lat="49.87521" lon="4.75442">
        <ele>319</ele>
        <time>2021-03-30T12:02:28.000Z</time>
      </trkpt>
      <trkpt lat="49.8752" lon="4.7544">
        <ele>319</ele>
        <time>2021-03-30T12:02:29.000Z</time>
      </trkpt>
      <trkpt lat="49.87519" lon="4.75438">
        <ele>319</ele>
        <time>2021-03-30T12:02:30.000Z</time>
      </trkpt>
      <trkpt lat="49.87517" lon="4.75437">
        <ele>319</ele>
        <time>2021-03-30T12:02:31.000Z</time>
      </trkpt>
      <trkpt lat="49.87515" lon="4.75434">
        <ele>319</ele>
        <time>2021-03-30T12:02:32.000Z</time>
      </trkpt>
      <trkpt lat="49.87513" lon="4.75432">
        <ele>319</ele>
        <time>2021-03-30T12:02:33.000Z</time>
      </trkpt>
      <trkpt lat="49.87511" lon="4.7543">
        <ele>319</ele>
        <time>2021-03-30T12:02:34.000Z</time>
      </trkpt>
      <trkpt lat="49.87509" lon="4.75429">
        <ele>319</ele>
        <time>2021-03-30T12:02:35.000Z</time>
      </trkpt>
      <trkpt lat="49.87508" lon="4.75428">
        <ele>319</ele>
        <time>2021-03-30T12:02:36.000Z</time>
      </trkpt>
      <trkpt lat="49.87506" lon="4.75428">
        <ele>319</ele>
        <time>2021-03-30T12:02:37.000Z</time>
      </trkpt>
      <trkpt lat="49.87504" lon="4.75428">
        <ele>319</ele>
        <time>2021-03-30T12:02:38.000Z</time>
      </trkpt>
      <trkpt lat="49.87503" lon="4.75428">
        <ele>319</ele>
        <time>2021-03-30T12:02:39.000Z</time>
      </trkpt>
      <trkpt lat="49.87501" lon="4.75429">
        <ele>319</ele>
        <time>2021-03-30T12:02:40.000Z</time>
      </trkpt>
      <trkpt lat="49.87499" lon="4.75429">
        <ele>319</ele>
        <time>2021-03-30T12:02:41.000Z</time>
      </trkpt>
      <trkpt lat="49.87498" lon="4.75429">
        <ele>319</ele>
        <time>2021-03-30T12:02:42.000Z</time>
      </trkpt>
      <trkpt lat="49.87497" lon="4.75429">
        <ele>319</ele>
        <time>2021-03-30T12:02:43.000Z</time>
      </trkpt>
      <trkpt lat="49.87495" lon="4.75429">
        <ele>320</ele>
        <time>2021-03-30T12:02:44.000Z</time>
      </trkpt>
      <trkpt lat="49.87493" lon="4.75429">
        <ele>320</ele>
        <time>2021-03-30T12:02:45.000Z</time>
      </trkpt>
      <trkpt lat="49.87491" lon="4.75429">
        <ele>320</ele>
        <time>2021-03-30T12:02:46.000Z</time>
      </trkpt>
      <trkpt lat="49.87489" lon="4.75429">
        <ele>320</ele>
        <time>2021-03-30T12:02:47.000Z</time>
      </trkpt>
      <trkpt lat="49.87487" lon="4.75429">
        <ele>321</ele>
        <time>2021-03-30T12:02:48.000Z</time>
      </trkpt>
      <trkpt lat="49.87485" lon="4.75429">
        <ele>321</ele>
        <time>2021-03-30T12:02:49.000Z</time>
      </trkpt>
      <trkpt lat="49.87484" lon="4.75429">
        <ele>321</ele>
        <time>2021-03-30T12:02:50.000Z</time>
      </trkpt>
      <trkpt lat="49.87482" lon="4.75429">
        <ele>322</ele>
        <time>2021-03-30T12:02:51.000Z</time>
      </trkpt>
      <trkpt lat="49.8748" lon="4.75428">
        <ele>322</ele>
        <time>2021-03-30T12:02:52.000Z</time>
      </trkpt>
      <trkpt lat="49.87479" lon="4.75428">
        <ele>322</ele>
        <time>2021-03-30T12:02:53.000Z</time>
      </trkpt>
      <trkpt lat="49.87477" lon="4.75427">
        <ele>323</ele>
        <time>2021-03-30T12:02:54.000Z</time>
      </trkpt>
      <trkpt lat="49.87476" lon="4.75426">
        <ele>323</ele>
        <time>2021-03-30T12:02:55.000Z</time>
      </trkpt>
      <trkpt lat="49.87474" lon="4.75426">
        <ele>323</ele>
        <time>2021-03-30T12:02:56.000Z</time>
      </trkpt>
      <trkpt lat="49.87473" lon="4.75425">
        <ele>324</ele>
        <time>2021-03-30T12:02:57.000Z</time>
      </trkpt>
      <trkpt lat="49.87472" lon="4.75424">
        <ele>324</ele>
        <time>2021-03-30T12:02:58.000Z</time>
      </trkpt>
      <trkpt lat="49.8747" lon="4.75423">
        <ele>324</ele>
        <time>2021-03-30T12:02:59.000Z</time>
      </trkpt>
      <trkpt lat="49.8747" lon="4.75422">
        <ele>325</ele>
        <time>2021-03-30T12:03:00.000Z</time>
      </trkpt>
      <trkpt lat="49.87469" lon="4.75421">
        <ele>325</ele>
        <time>2021-03-30T12:03:01.000Z</time>
      </trkpt>
      <trkpt lat="49.87468" lon="4.7542">
        <ele>326</ele>
        <time>2021-03-30T12:03:02.000Z</time>
      </trkpt>
      <trkpt lat="49.87466" lon="4.75419">
        <ele>326</ele>
        <time>2021-03-30T12:03:03.000Z</time>
      </trkpt>
      <trkpt lat="49.87465" lon="4.75418">
        <ele>327</ele>
        <time>2021-03-30T12:03:04.000Z</time>
      </trkpt>
      <trkpt lat="49.87465" lon="4.75417">
        <ele>327</ele>
        <time>2021-03-30T12:03:05.000Z</time>
      </trkpt>
      <trkpt lat="49.87464" lon="4.75416">
        <ele>328</ele>
        <time>2021-03-30T12:03:06.000Z</time>
      </trkpt>
      <trkpt lat="49.87463" lon="4.75414">
        <ele>328</ele>
        <time>2021-03-30T12:03:07.000Z</time>
      </trkpt>
      <trkpt lat="49.87462" lon="4.75413">
        <ele>329</ele>
        <time>2021-03-30T12:03:08.000Z</time>
      </trkpt>
      <trkpt lat="49.87461" lon="4.75412">
        <ele>329</ele>
        <time>2021-03-30T12:03:09.000Z</time>
      </trkpt>
      <trkpt lat="49.8746" lon="4.75412">
        <ele>329</ele>
        <time>2021-03-30T12:03:10.000Z</time>
      </trkpt>
      <trkpt lat="49.87459" lon="4.75411">
        <ele>329</ele>
        <time>2021-03-30T12:03:11.000Z</time>
      </trkpt>
      <trkpt lat="49.87458" lon="4.7541">
        <ele>330</ele>
        <time>2021-03-30T12:03:12.000Z</time>
      </trkpt>
      <trkpt lat="49.87457" lon="4.75409">
        <ele>330</ele>
        <time>2021-03-30T12:03:13.000Z</time>
      </trkpt>
      <trkpt lat="49.87456" lon="4.75408">
        <ele>330</ele>
        <time>2021-03-30T12:03:14.000Z</time>
      </trkpt>
      <trkpt lat="49.87455" lon="4.75408">
        <ele>331</ele>
        <time>2021-03-30T12:03:15.000Z</time>
      </trkpt>
      <trkpt lat="49.87454" lon="4.75408">
        <ele>331</ele>
        <time>2021-03-30T12:03:16.000Z</time>
      </trkpt>
      <trkpt lat="49.87452" lon="4.75408">
        <ele>332</ele>
        <time>2021-03-30T12:03:17.000Z</time>
      </trkpt>
      <trkpt lat="49.87452" lon="4.75408">
        <ele>332</ele>
        <time>2021-03-30T12:03:18.000Z</time>
      </trkpt>
      <trkpt lat="49.87451" lon="4.75408">
        <ele>332</ele>
        <time>2021-03-30T12:03:19.000Z</time>
      </trkpt>
      <trkpt lat="49.87449" lon="4.75408">
        <ele>333</ele>
        <time>2021-03-30T12:03:20.000Z</time>
      </trkpt>
      <trkpt lat="49.87448" lon="4.75408">
        <ele>333</ele>
        <time>2021-03-30T12:03:21.000Z</time>
      </trkpt>
      <trkpt lat="49.87447" lon="4.75408">
        <ele>333</ele>
        <time>2021-03-30T12:03:22.000Z</time>
      </trkpt>
      <trkpt lat="49.87446" lon="4.75408">
        <ele>334</ele>
        <time>2021-03-30T12:03:23.000Z</time>
      </trkpt>
      <trkpt lat="49.87445" lon="4.75409">
        <ele>334</ele>
        <time>2021-03-30T12:03:24.000Z</time>
      </trkpt>
      <trkpt lat="49.87445" lon="4.7541">
        <ele>335</ele>
        <time>2021-03-30T12:03:25.000Z</time>
      </trkpt>
      <trkpt lat="49.87444" lon="4.75411">
        <ele>335</ele>
        <time>2021-03-30T12:03:26.000Z</time>
      </trkpt>
      <trkpt lat="49.87443" lon="4.75412">
        <ele>335</ele>
        <time>2021-03-30T12:03:27.000Z</time>
      </trkpt>
      <trkpt lat="49.87442" lon="4.75413">
        <ele>336</ele>
        <time>2021-03-30T12:03:28.000Z</time>
      </trkpt>
      <trkpt lat="49.87441" lon="4.75413">
        <ele>336</ele>
        <time>2021-03-30T12:03:29.000Z</time>
      </trkpt>
      <trkpt lat="49.8744" lon="4.75414">
        <ele>336</ele>
        <time>2021-03-30T12:03:30.000Z</time>
      </trkpt>
      <trkpt lat="49.87439" lon="4.75415">
        <ele>336</ele>
        <time>2021-03-30T12:03:31.000Z</time>
      </trkpt>
      <trkpt lat="49.87439" lon="4.75416">
        <ele>337</ele>
        <time>2021-03-30T12:03:32.000Z</time>
      </trkpt>
      <trkpt lat="49.87438" lon="4.75417">
        <ele>337</ele>
        <time>2021-03-30T12:03:33.000Z</time>
      </trkpt>
      <trkpt lat="49.87437" lon="4.75418">
        <ele>337</ele>
        <time>2021-03-30T12:03:34.000Z</time>
      </trkpt>
      <trkpt lat="49.87436" lon="4.75419">
        <ele>337</ele>
        <time>2021-03-30T12:03:35.000Z</time>
      </trkpt>
      <trkpt lat="49.87435" lon="4.7542">
        <ele>337</ele>
        <time>2021-03-30T12:03:36.000Z</time>
      </trkpt>
      <trkpt lat="49.87434" lon="4.75421">
        <ele>338</ele>
        <time>2021-03-30T12:03:37.000Z</time>
      </trkpt>
      <trkpt lat="49.87433" lon="4.75422">
        <ele>338</ele>
        <time>2021-03-30T12:03:38.000Z</time>
      </trkpt>
      <trkpt lat="49.87432" lon="4.75423">
        <ele>338</ele>
        <time>2021-03-30T12:03:39.000Z</time>
      </trkpt>
      <trkpt lat="49.87431" lon="4.75424">
        <ele>338</ele>
        <time>2021-03-30T12:03:40.000Z</time>
      </trkpt>
      <trkpt lat="49.87431" lon="4.75425">
        <ele>338</ele>
        <time>2021-03-30T12:03:41.000Z</time>
      </trkpt>
      <trkpt lat="49.8743" lon="4.75426">
        <ele>339</ele>
        <time>2021-03-30T12:03:42.000Z</time>
      </trkpt>
      <trkpt lat="49.8743" lon="4.75428">
        <ele>339</ele>
        <time>2021-03-30T12:03:43.000Z</time>
      </trkpt>
      <trkpt lat="49.87429" lon="4.75428">
        <ele>339</ele>
        <time>2021-03-30T12:03:44.000Z</time>
      </trkpt>
      <trkpt lat="49.87428" lon="4.7543">
        <ele>339</ele>
        <time>2021-03-30T12:03:45.000Z</time>
      </trkpt>
      <trkpt lat="49.87427" lon="4.75432">
        <ele>340</ele>
        <time>2021-03-30T12:03:46.000Z</time>
      </trkpt>
      <trkpt lat="49.87426" lon="4.75433">
        <ele>340</ele>
        <time>2021-03-30T12:03:47.000Z</time>
      </trkpt>
      <trkpt lat="49.87425" lon="4.75434">
        <ele>340</ele>
        <time>2021-03-30T12:03:48.000Z</time>
      </trkpt>
      <trkpt lat="49.87424" lon="4.75436">
        <ele>340</ele>
        <time>2021-03-30T12:03:49.000Z</time>
      </trkpt>
      <trkpt lat="49.87423" lon="4.75437">
        <ele>341</ele>
        <time>2021-03-30T12:03:50.000Z</time>
      </trkpt>
      <trkpt lat="49.87422" lon="4.75439">
        <ele>341</ele>
        <time>2021-03-30T12:03:51.000Z</time>
      </trkpt>
      <trkpt lat="49.87421" lon="4.7544">
        <ele>341</ele>
        <time>2021-03-30T12:03:52.000Z</time>
      </trkpt>
      <trkpt lat="49.87421" lon="4.75441">
        <ele>342</ele>
        <time>2021-03-30T12:03:53.000Z</time>
      </trkpt>
      <trkpt lat="49.8742" lon="4.75442">
        <ele>342</ele>
        <time>2021-03-30T12:03:54.000Z</time>
      </trkpt>
      <trkpt lat="49.87418" lon="4.75443">
        <ele>342</ele>
        <time>2021-03-30T12:03:55.000Z</time>
      </trkpt>
      <trkpt lat="49.87417" lon="4.75443">
        <ele>342</ele>
        <time>2021-03-30T12:03:56.000Z</time>
      </trkpt>
      <trkpt lat="49.87416" lon="4.75443">
        <ele>342</ele>
        <time>2021-03-30T12:03:57.000Z</time>
      </trkpt>
      <trkpt lat="49.87415" lon="4.75444">
        <ele>343</ele>
        <time>2021-03-30T12:03:58.000Z</time>
      </trkpt>
      <trkpt lat="49.87414" lon="4.75445">
        <ele>343</ele>
        <time>2021-03-30T12:03:59.000Z</time>
      </trkpt>
      <trkpt lat="49.87412" lon="4.75446">
        <ele>343</ele>
        <time>2021-03-30T12:04:00.000Z</time>
      </trkpt>
      <trkpt lat="49.87411" lon="4.75447">
        <ele>343</ele>
        <time>2021-03-30T12:04:01.000Z</time>
      </trkpt>
      <trkpt lat="49.8741" lon="4.75448">
        <ele>344</ele>
        <time>2021-03-30T12:04:02.000Z</time>
      </trkpt>
      <trkpt lat="49.87409" lon="4.75449">
        <ele>344</ele>
        <time>2021-03-30T12:04:03.000Z</time>
      </trkpt>
      <trkpt lat="49.87407" lon="4.7545">
        <ele>344</ele>
        <time>2021-03-30T12:04:04.000Z</time>
      </trkpt>
      <trkpt lat="49.87406" lon="4.75451">
        <ele>345</ele>
        <time>2021-03-30T12:04:05.000Z</time>
      </trkpt>
      <trkpt lat="49.87405" lon="4.75452">
        <ele>345</ele>
        <time>2021-03-30T12:04:06.000Z</time>
      </trkpt>
      <trkpt lat="49.87404" lon="4.75453">
        <ele>345</ele>
        <time>2021-03-30T12:04:07.000Z</time>
      </trkpt>
      <trkpt lat="49.87403" lon="4.75454">
        <ele>345</ele>
        <time>2021-03-30T12:04:08.000Z</time>
      </trkpt>
      <trkpt lat="49.87401" lon="4.75455">
        <ele>346</ele>
        <time>2021-03-30T12:04:09.000Z</time>
      </trkpt>
      <trkpt lat="49.87399" lon="4.75456">
        <ele>346</ele>
        <time>2021-03-30T12:04:10.000Z</time>
      </trkpt>
      <trkpt lat="49.87398" lon="4.75457">
        <ele>346</ele>
        <time>2021-03-30T12:04:11.000Z</time>
      </trkpt>
      <trkpt lat="49.87396" lon="4.75458">
        <ele>347</ele>
        <time>2021-03-30T12:04:12.000Z</time>
      </trkpt>
      <trkpt lat="49.87394" lon="4.75459">
        <ele>347</ele>
        <time>2021-03-30T12:04:13.000Z</time>
      </trkpt>
      <trkpt lat="49.87392" lon="4.7546">
        <ele>347</ele>
        <time>2021-03-30T12:04:14.000Z</time>
      </trkpt>
      <trkpt lat="49.8739" lon="4.75461">
        <ele>347</ele>
        <time>2021-03-30T12:04:15.000Z</time>
      </trkpt>
      <trkpt lat="49.87388" lon="4.75462">
        <ele>348</ele>
        <time>2021-03-30T12:04:16.000Z</time>
      </trkpt>
      <trkpt lat="49.87386" lon="4.75464">
        <ele>348</ele>
        <time>2021-03-30T12:04:17.000Z</time>
      </trkpt>
      <trkpt lat="49.87384" lon="4.75466">
        <ele>348</ele>
        <time>2021-03-30T12:04:18.000Z</time>
      </trkpt>
      <trkpt lat="49.87382" lon="4.75467">
        <ele>349</ele>
        <time>2021-03-30T12:04:19.000Z</time>
      </trkpt>
      <trkpt lat="49.8738" lon="4.75468">
        <ele>349</ele>
        <time>2021-03-30T12:04:20.000Z</time>
      </trkpt>
      <trkpt lat="49.87377" lon="4.75469">
        <ele>349</ele>
        <time>2021-03-30T12:04:21.000Z</time>
      </trkpt>
      <trkpt lat="49.87375" lon="4.7547">
        <ele>349</ele>
        <time>2021-03-30T12:04:22.000Z</time>
      </trkpt>
      <trkpt lat="49.87372" lon="4.7547">
        <ele>350</ele>
        <time>2021-03-30T12:04:23.000Z</time>
      </trkpt>
      <trkpt lat="49.87369" lon="4.75471">
        <ele>350</ele>
        <time>2021-03-30T12:04:24.000Z</time>
      </trkpt>
      <trkpt lat="49.87366" lon="4.75471">
        <ele>350</ele>
        <time>2021-03-30T12:04:25.000Z</time>
      </trkpt>
      <trkpt lat="49.87364" lon="4.75471">
        <ele>350</ele>
        <time>2021-03-30T12:04:26.000Z</time>
      </trkpt>
      <trkpt lat="49.87361" lon="4.75471">
        <ele>351</ele>
        <time>2021-03-30T12:04:27.000Z</time>
      </trkpt>
      <trkpt lat="49.87358" lon="4.75471">
        <ele>351</ele>
        <time>2021-03-30T12:04:28.000Z</time>
      </trkpt>
      <trkpt lat="49.87355" lon="4.75471">
        <ele>351</ele>
        <time>2021-03-30T12:04:29.000Z</time>
      </trkpt>
      <trkpt lat="49.87353" lon="4.75471">
        <ele>351</ele>
        <time>2021-03-30T12:04:30.000Z</time>
      </trkpt>
      <trkpt lat="49.8735" lon="4.75471">
        <ele>351</ele>
        <time>2021-03-30T12:04:31.000Z</time>
      </trkpt>
      <trkpt lat="49.87347" lon="4.75471">
        <ele>351</ele>
        <time>2021-03-30T12:04:32.000Z</time>
      </trkpt>
      <trkpt lat="49.87344" lon="4.75472">
        <ele>352</ele>
        <time>2021-03-30T12:04:33.000Z</time>
      </trkpt>
      <trkpt lat="49.8734" lon="4.75473">
        <ele>352</ele>
        <time>2021-03-30T12:04:34.000Z</time>
      </trkpt>
      <trkpt lat="49.87336" lon="4.75474">
        <ele>352</ele>
        <time>2021-03-30T12:04:35.000Z</time>
      </trkpt>
      <trkpt lat="49.87333" lon="4.75475">
        <ele>352</ele>
        <time>2021-03-30T12:04:36.000Z</time>
      </trkpt>
      <trkpt lat="49.8733" lon="4.75476">
        <ele>352</ele>
        <time>2021-03-30T12:04:37.000Z</time>
      </trkpt>
      <trkpt lat="49.87327" lon="4.75476">
        <ele>353</ele>
        <time>2021-03-30T12:04:38.000Z</time>
      </trkpt>
      <trkpt lat="49.87323" lon="4.75477">
        <ele>353</ele>
        <time>2021-03-30T12:04:39.000Z</time>
      </trkpt>
      <trkpt lat="49.87319" lon="4.75477">
        <ele>353</ele>
        <time>2021-03-30T12:04:40.000Z</time>
      </trkpt>
      <trkpt lat="49.87316" lon="4.75476">
        <ele>353</ele>
        <time>2021-03-30T12:04:41.000Z</time>
      </trkpt>
      <trkpt lat="49.87312" lon="4.75475">
        <ele>353</ele>
        <time>2021-03-30T12:04:42.000Z</time>
      </trkpt>
      <trkpt lat="49.87307" lon="4.75475">
        <ele>353</ele>
        <time>2021-03-30T12:04:43.000Z</time>
      </trkpt>
      <trkpt lat="49.87301" lon="4.75474">
        <ele>353</ele>
        <time>2021-03-30T12:04:44.000Z</time>
      </trkpt>
      <trkpt lat="49.87295" lon="4.75474">
        <ele>353</ele>
        <time>2021-03-30T12:04:45.000Z</time>
      </trkpt>
      <trkpt lat="49.87289" lon="4.75475">
        <ele>354</ele>
        <time>2021-03-30T12:04:46.000Z</time>
      </trkpt>
      <trkpt lat="49.87284" lon="4.75476">
        <ele>354</ele>
        <time>2021-03-30T12:04:47.000Z</time>
      </trkpt>
      <trkpt lat="49.8728" lon="4.75478">
        <ele>354</ele>
        <time>2021-03-30T12:04:48.000Z</time>
      </trkpt>
      <trkpt lat="49.87276" lon="4.7548">
        <ele>354</ele>
        <time>2021-03-30T12:04:49.000Z</time>
      </trkpt>
      <trkpt lat="49.87273" lon="4.75481">
        <ele>354</ele>
        <time>2021-03-30T12:04:50.000Z</time>
      </trkpt>
      <trkpt lat="49.87269" lon="4.75483">
        <ele>354</ele>
        <time>2021-03-30T12:04:51.000Z</time>
      </trkpt>
      <trkpt lat="49.87264" lon="4.75485">
        <ele>355</ele>
        <time>2021-03-30T12:04:52.000Z</time>
      </trkpt>
      <trkpt lat="49.8726" lon="4.75486">
        <ele>355</ele>
        <time>2021-03-30T12:04:53.000Z</time>
      </trkpt>
      <trkpt lat="49.87256" lon="4.75488">
        <ele>355</ele>
        <time>2021-03-30T12:04:54.000Z</time>
      </trkpt>
      <trkpt lat="49.87253" lon="4.7549">
        <ele>355</ele>
        <time>2021-03-30T12:04:55.000Z</time>
      </trkpt>
      <trkpt lat="49.8725" lon="4.75491">
        <ele>355</ele>
        <time>2021-03-30T12:04:56.000Z</time>
      </trkpt>
      <trkpt lat="49.87247" lon="4.75492">
        <ele>355</ele>
        <time>2021-03-30T12:04:57.000Z</time>
      </trkpt>
      <trkpt lat="49.87245" lon="4.75493">
        <ele>356</ele>
        <time>2021-03-30T12:04:58.000Z</time>
      </trkpt>
      <trkpt lat="49.87243" lon="4.75493">
        <ele>356</ele>
        <time>2021-03-30T12:04:59.000Z</time>
      </trkpt>
      <trkpt lat="49.87241" lon="4.75493">
        <ele>356</ele>
        <time>2021-03-30T12:05:00.000Z</time>
      </trkpt>
      <trkpt lat="49.87239" lon="4.75493">
        <ele>356</ele>
        <time>2021-03-30T12:05:01.000Z</time>
      </trkpt>
      <trkpt lat="49.87236" lon="4.75493">
        <ele>356</ele>
        <time>2021-03-30T12:05:02.000Z</time>
      </trkpt>
      <trkpt lat="49.87234" lon="4.75493">
        <ele>356</ele>
        <time>2021-03-30T12:05:03.000Z</time>
      </trkpt>
      <trkpt lat="49.87232" lon="4.75493">
        <ele>356</ele>
        <time>2021-03-30T12:05:04.000Z</time>
      </trkpt>
      <trkpt lat="49.87229" lon="4.75493">
        <ele>356</ele>
        <time>2021-03-30T12:05:05.000Z</time>
      </trkpt>
      <trkpt lat="49.87226" lon="4.75493">
        <ele>356</ele>
        <time>2021-03-30T12:05:06.000Z</time>
      </trkpt>
      <trkpt lat="49.87224" lon="4.75494">
        <ele>356</ele>
        <time>2021-03-30T12:05:07.000Z</time>
      </trkpt>
      <trkpt lat="49.87222" lon="4.75494">
        <ele>356</ele>
        <time>2021-03-30T12:05:08.000Z</time>
      </trkpt>
      <trkpt lat="49.87219" lon="4.75494">
        <ele>356</ele>
        <time>2021-03-30T12:05:09.000Z</time>
      </trkpt>
      <trkpt lat="49.87216" lon="4.75493">
        <ele>356</ele>
        <time>2021-03-30T12:05:10.000Z</time>
      </trkpt>
      <trkpt lat="49.87213" lon="4.75494">
        <ele>356</ele>
        <time>2021-03-30T12:05:11.000Z</time>
      </trkpt>
      <trkpt lat="49.87209" lon="4.75494">
        <ele>356</ele>
        <time>2021-03-30T12:05:12.000Z</time>
      </trkpt>
      <trkpt lat="49.87206" lon="4.75494">
        <ele>356</ele>
        <time>2021-03-30T12:05:13.000Z</time>
      </trkpt>
      <trkpt lat="49.87203" lon="4.75495">
        <ele>356</ele>
        <time>2021-03-30T12:05:14.000Z</time>
      </trkpt>
      <trkpt lat="49.87199" lon="4.75496">
        <ele>357</ele>
        <time>2021-03-30T12:05:15.000Z</time>
      </trkpt>
      <trkpt lat="49.87197" lon="4.75498">
        <ele>357</ele>
        <time>2021-03-30T12:05:16.000Z</time>
      </trkpt>
      <trkpt lat="49.87195" lon="4.75501">
        <ele>357</ele>
        <time>2021-03-30T12:05:17.000Z</time>
      </trkpt>
      <trkpt lat="49.87193" lon="4.75503">
        <ele>357</ele>
        <time>2021-03-30T12:05:18.000Z</time>
      </trkpt>
      <trkpt lat="49.87192" lon="4.75505">
        <ele>357</ele>
        <time>2021-03-30T12:05:19.000Z</time>
      </trkpt>
      <trkpt lat="49.8719" lon="4.75507">
        <ele>357</ele>
        <time>2021-03-30T12:05:20.000Z</time>
      </trkpt>
      <trkpt lat="49.87189" lon="4.75509">
        <ele>357</ele>
        <time>2021-03-30T12:05:21.000Z</time>
      </trkpt>
      <trkpt lat="49.87188" lon="4.75511">
        <ele>357</ele>
        <time>2021-03-30T12:05:22.000Z</time>
      </trkpt>
      <trkpt lat="49.87187" lon="4.75513">
        <ele>358</ele>
        <time>2021-03-30T12:05:23.000Z</time>
      </trkpt>
      <trkpt lat="49.87185" lon="4.75515">
        <ele>358</ele>
        <time>2021-03-30T12:05:24.000Z</time>
      </trkpt>
      <trkpt lat="49.87184" lon="4.75517">
        <ele>358</ele>
        <time>2021-03-30T12:05:25.000Z</time>
      </trkpt>
      <trkpt lat="49.87182" lon="4.75519">
        <ele>358</ele>
        <time>2021-03-30T12:05:26.000Z</time>
      </trkpt>
      <trkpt lat="49.87181" lon="4.7552">
        <ele>358</ele>
        <time>2021-03-30T12:05:27.000Z</time>
      </trkpt>
      <trkpt lat="49.87178" lon="4.75521">
        <ele>358</ele>
        <time>2021-03-30T12:05:28.000Z</time>
      </trkpt>
      <trkpt lat="49.87175" lon="4.75523">
        <ele>359</ele>
        <time>2021-03-30T12:05:29.000Z</time>
      </trkpt>
      <trkpt lat="49.87173" lon="4.75524">
        <ele>359</ele>
        <time>2021-03-30T12:05:30.000Z</time>
      </trkpt>
      <trkpt lat="49.87171" lon="4.75524">
        <ele>359</ele>
        <time>2021-03-30T12:05:31.000Z</time>
      </trkpt>
      <trkpt lat="49.87169" lon="4.75525">
        <ele>360</ele>
        <time>2021-03-30T12:05:32.000Z</time>
      </trkpt>
      <trkpt lat="49.87166" lon="4.75525">
        <ele>360</ele>
        <time>2021-03-30T12:05:33.000Z</time>
      </trkpt>
      <trkpt lat="49.87164" lon="4.75526">
        <ele>360</ele>
        <time>2021-03-30T12:05:34.000Z</time>
      </trkpt>
      <trkpt lat="49.87161" lon="4.75527">
        <ele>360</ele>
        <time>2021-03-30T12:05:35.000Z</time>
      </trkpt>
      <trkpt lat="49.87158" lon="4.75527">
        <ele>361</ele>
        <time>2021-03-30T12:05:36.000Z</time>
      </trkpt>
      <trkpt lat="49.87155" lon="4.75528">
        <ele>361</ele>
        <time>2021-03-30T12:05:37.000Z</time>
      </trkpt>
      <trkpt lat="49.87153" lon="4.75529">
        <ele>361</ele>
        <time>2021-03-30T12:05:38.000Z</time>
      </trkpt>
      <trkpt lat="49.8715" lon="4.7553">
        <ele>362</ele>
        <time>2021-03-30T12:05:39.000Z</time>
      </trkpt>
      <trkpt lat="49.87147" lon="4.75531">
        <ele>362</ele>
        <time>2021-03-30T12:05:40.000Z</time>
      </trkpt>
      <trkpt lat="49.87145" lon="4.75532">
        <ele>362</ele>
        <time>2021-03-30T12:05:41.000Z</time>
      </trkpt>
      <trkpt lat="49.87143" lon="4.75534">
        <ele>362</ele>
        <time>2021-03-30T12:05:42.000Z</time>
      </trkpt>
      <trkpt lat="49.8714" lon="4.75536">
        <ele>363</ele>
        <time>2021-03-30T12:05:43.000Z</time>
      </trkpt>
      <trkpt lat="49.87138" lon="4.75538">
        <ele>363</ele>
        <time>2021-03-30T12:05:44.000Z</time>
      </trkpt>
      <trkpt lat="49.87136" lon="4.7554">
        <ele>363</ele>
        <time>2021-03-30T12:05:45.000Z</time>
      </trkpt>
      <trkpt lat="49.87134" lon="4.75542">
        <ele>363</ele>
        <time>2021-03-30T12:05:46.000Z</time>
      </trkpt>
      <trkpt lat="49.87132" lon="4.75543">
        <ele>363</ele>
        <time>2021-03-30T12:05:47.000Z</time>
      </trkpt>
      <trkpt lat="49.87131" lon="4.75545">
        <ele>363</ele>
        <time>2021-03-30T12:05:48.000Z</time>
      </trkpt>
      <trkpt lat="49.87128" lon="4.75546">
        <ele>363</ele>
        <time>2021-03-30T12:05:49.000Z</time>
      </trkpt>
      <trkpt lat="49.87126" lon="4.75547">
        <ele>364</ele>
        <time>2021-03-30T12:05:50.000Z</time>
      </trkpt>
      <trkpt lat="49.87124" lon="4.75548">
        <ele>364</ele>
        <time>2021-03-30T12:05:51.000Z</time>
      </trkpt>
      <trkpt lat="49.87122" lon="4.75549">
        <ele>364</ele>
        <time>2021-03-30T12:05:52.000Z</time>
      </trkpt>
      <trkpt lat="49.87121" lon="4.7555">
        <ele>364</ele>
        <time>2021-03-30T12:05:53.000Z</time>
      </trkpt>
      <trkpt lat="49.8712" lon="4.75551">
        <ele>364</ele>
        <time>2021-03-30T12:05:54.000Z</time>
      </trkpt>
      <trkpt lat="49.87119" lon="4.75553">
        <ele>364</ele>
        <time>2021-03-30T12:05:55.000Z</time>
      </trkpt>
      <trkpt lat="49.87119" lon="4.75555">
        <ele>364</ele>
        <time>2021-03-30T12:05:56.000Z</time>
      </trkpt>
      <trkpt lat="49.87119" lon="4.75557">
        <ele>364</ele>
        <time>2021-03-30T12:05:57.000Z</time>
      </trkpt>
      <trkpt lat="49.87119" lon="4.75558">
        <ele>365</ele>
        <time>2021-03-30T12:05:58.000Z</time>
      </trkpt>
      <trkpt lat="49.87118" lon="4.7556">
        <ele>365</ele>
        <time>2021-03-30T12:05:59.000Z</time>
      </trkpt>
      <trkpt lat="49.87119" lon="4.75561">
        <ele>365</ele>
        <time>2021-03-30T12:06:00.000Z</time>
      </trkpt>
      <trkpt lat="49.87119" lon="4.75564">
        <ele>365</ele>
        <time>2021-03-30T12:06:01.000Z</time>
      </trkpt>
      <trkpt lat="49.87119" lon="4.75566">
        <ele>365</ele>
        <time>2021-03-30T12:06:02.000Z</time>
      </trkpt>
      <trkpt lat="49.87119" lon="4.75569">
        <ele>366</ele>
        <time>2021-03-30T12:06:03.000Z</time>
      </trkpt>
      <trkpt lat="49.87119" lon="4.75572">
        <ele>366</ele>
        <time>2021-03-30T12:06:04.000Z</time>
      </trkpt>
      <trkpt lat="49.87119" lon="4.75575">
        <ele>366</ele>
        <time>2021-03-30T12:06:05.000Z</time>
      </trkpt>
      <trkpt lat="49.87118" lon="4.75577">
        <ele>366</ele>
        <time>2021-03-30T12:06:06.000Z</time>
      </trkpt>
      <trkpt lat="49.87118" lon="4.75579">
        <ele>367</ele>
        <time>2021-03-30T12:06:07.000Z</time>
      </trkpt>
      <trkpt lat="49.87118" lon="4.7558">
        <ele>367</ele>
        <time>2021-03-30T12:06:08.000Z</time>
      </trkpt>
      <trkpt lat="49.87118" lon="4.7558">
        <ele>367</ele>
        <time>2021-03-30T12:06:09.000Z</time>
      </trkpt>
      <trkpt lat="49.87118" lon="4.75581">
        <ele>367</ele>
        <time>2021-03-30T12:06:10.000Z</time>
      </trkpt>
      <trkpt lat="49.87118" lon="4.75581">
        <ele>367</ele>
        <time>2021-03-30T12:06:11.000Z</time>
      </trkpt>
      <trkpt lat="49.87118" lon="4.75582">
        <ele>367</ele>
        <time>2021-03-30T12:06:12.000Z</time>
      </trkpt>
      <trkpt lat="49.87118" lon="4.75582">
        <ele>367</ele>
        <time>2021-03-30T12:06:13.000Z</time>
      </trkpt>
      <trkpt lat="49.87118" lon="4.75583">
        <ele>368</ele>
        <time>2021-03-30T12:06:14.000Z</time>
      </trkpt>
      <trkpt lat="49.87118" lon="4.75583">
        <ele>368</ele>
        <time>2021-03-30T12:06:15.000Z</time>
      </trkpt>
      <trkpt lat="49.87118" lon="4.75584">
        <ele>368</ele>
        <time>2021-03-30T12:06:16.000Z</time>
      </trkpt>
      <trkpt lat="49.87119" lon="4.75584">
        <ele>368</ele>
        <time>2021-03-30T12:06:17.000Z</time>
      </trkpt>
      <trkpt lat="49.87119" lon="4.75585">
        <ele>368</ele>
        <time>2021-03-30T12:06:18.000Z</time>
      </trkpt>
      <trkpt lat="49.87119" lon="4.75585">
        <ele>368</ele>
        <time>2021-03-30T12:06:19.000Z</time>
      </trkpt>
      <trkpt lat="49.87119" lon="4.75586">
        <ele>368</ele>
        <time>2021-03-30T12:06:20.000Z</time>
      </trkpt>
      <trkpt lat="49.87119" lon="4.75586">
        <ele>368</ele>
        <time>2021-03-30T12:06:21.000Z</time>
      </trkpt>
      <trkpt lat="49.87119" lon="4.75587">
        <ele>369</ele>
        <time>2021-03-30T12:06:22.000Z</time>
      </trkpt>
      <trkpt lat="49.87119" lon="4.75587">
        <ele>369</ele>
        <time>2021-03-30T12:06:23.000Z</time>
      </trkpt>
      <trkpt lat="49.87119" lon="4.75588">
        <ele>369</ele>
        <time>2021-03-30T12:06:24.000Z</time>
      </trkpt>
      <trkpt lat="49.87119" lon="4.75588">
        <ele>369</ele>
        <time>2021-03-30T12:06:25.000Z</time>
      </trkpt>
      <trkpt lat="49.87119" lon="4.75589">
        <ele>369</ele>
        <time>2021-03-30T12:06:26.000Z</time>
      </trkpt>
      <trkpt lat="49.87119" lon="4.75589">
        <ele>369</ele>
        <time>2021-03-30T12:06:27.000Z</time>
      </trkpt>
      <trkpt lat="49.87119" lon="4.75589">
        <ele>369</ele>
        <time>2021-03-30T12:06:28.000Z</time>
      </trkpt>
      <trkpt lat="49.87119" lon="4.7559">
        <ele>369</ele>
        <time>2021-03-30T12:06:29.000Z</time>
      </trkpt>
      <trkpt lat="49.87119" lon="4.7559">
        <ele>369</ele>
        <time>2021-03-30T12:06:30.000Z</time>
      </trkpt>
      <trkpt lat="49.87119" lon="4.7559">
        <ele>369</ele>
        <time>2021-03-30T12:06:31.000Z</time>
      </trkpt>
      <trkpt lat="49.87119" lon="4.75591">
        <ele>370</ele>
        <time>2021-03-30T12:06:32.000Z</time>
      </trkpt>
      <trkpt lat="49.87119" lon="4.75591">
        <ele>370</ele>
        <time>2021-03-30T12:06:33.000Z</time>
      </trkpt>
      <trkpt lat="49.87119" lon="4.75591">
        <ele>370</ele>
        <time>2021-03-30T12:06:34.000Z</time>
      </trkpt>
      <trkpt lat="49.87119" lon="4.75591">
        <ele>370</ele>
        <time>2021-03-30T12:06:35.000Z</time>
      </trkpt>
      <trkpt lat="49.87119" lon="4.75592">
        <ele>370</ele>
        <time>2021-03-30T12:06:36.000Z</time>
      </trkpt>
      <trkpt lat="49.87119" lon="4.75592">
        <ele>370</ele>
        <time>2021-03-30T12:06:37.000Z</time>
      </trkpt>
      <trkpt lat="49.87119" lon="4.75592">
        <ele>370</ele>
        <time>2021-03-30T12:06:38.000Z</time>
      </trkpt>
      <trkpt lat="49.87119" lon="4.75592">
        <ele>370</ele>
        <time>2021-03-30T12:06:39.000Z</time>
      </trkpt>
      <trkpt lat="49.87119" lon="4.75593">
        <ele>370</ele>
        <time>2021-03-30T12:06:40.000Z</time>
      </trkpt>
      <trkpt lat="49.87119" lon="4.75593">
        <ele>371</ele>
        <time>2021-03-30T12:06:41.000Z</time>
      </trkpt>
      <trkpt lat="49.87119" lon="4.75593">
        <ele>371</ele>
        <time>2021-03-30T12:06:42.000Z</time>
      </trkpt>
      <trkpt lat="49.87119" lon="4.75593">
        <ele>371</ele>
        <time>2021-03-30T12:06:43.000Z</time>
      </trkpt>
      <trkpt lat="49.87119" lon="4.75593">
        <ele>371</ele>
        <time>2021-03-30T12:06:44.000Z</time>
      </trkpt>
      <trkpt lat="49.87119" lon="4.75594">
        <ele>371</ele>
        <time>2021-03-30T12:06:45.000Z</time>
      </trkpt>
      <trkpt lat="49.87119" lon="4.75594">
        <ele>371</ele>
        <time>2021-03-30T12:06:46.000Z</time>
      </trkpt>
      <trkpt lat="49.87119" lon="4.75594">
        <ele>371</ele>
        <time>2021-03-30T12:06:47.000Z</time>
      </trkpt>
      <trkpt lat="49.87119" lon="4.75594">
        <ele>371</ele>
        <time>2021-03-30T12:06:48.000Z</time>
      </trkpt>
      <trkpt lat="49.87119" lon="4.75594">
        <ele>372</ele>
        <time>2021-03-30T12:06:49.000Z</time>
      </trkpt>
      <trkpt lat="49.87119" lon="4.75595">
        <ele>372</ele>
        <time>2021-03-30T12:06:50.000Z</time>
      </trkpt>
      <trkpt lat="49.87119" lon="4.75595">
        <ele>372</ele>
        <time>2021-03-30T12:06:51.000Z</time>
      </trkpt>
      <trkpt lat="49.87119" lon="4.75595">
        <ele>372</ele>
        <time>2021-03-30T12:06:52.000Z</time>
      </trkpt>
      <trkpt lat="49.87119" lon="4.75595">
        <ele>372</ele>
        <time>2021-03-30T12:06:53.000Z</time>
      </trkpt>
      <trkpt lat="49.87119" lon="4.75594">
        <ele>372</ele>
        <time>2021-03-30T12:06:54.000Z</time>
      </trkpt>
      <trkpt lat="49.87119" lon="4.75594">
        <ele>372</ele>
        <time>2021-03-30T12:06:55.000Z</time>
      </trkpt>
      <trkpt lat="49.87119" lon="4.75594">
        <ele>372</ele>
        <time>2021-03-30T12:06:56.000Z</time>
      </trkpt>
      <trkpt lat="49.87119" lon="4.75594">
        <ele>372</ele>
        <time>2021-03-30T12:06:57.000Z</time>
      </trkpt>
      <trkpt lat="49.87119" lon="4.75594">
        <ele>372</ele>
        <time>2021-03-30T12:06:58.000Z</time>
      </trkpt>
      <trkpt lat="49.87119" lon="4.75594">
        <ele>372</ele>
        <time>2021-03-30T12:06:59.000Z</time>
      </trkpt>
      <trkpt lat="49.87119" lon="4.75594">
        <ele>372</ele>
        <time>2021-03-30T12:07:00.000Z</time>
      </trkpt>
      <trkpt lat="49.87119" lon="4.75594">
        <ele>372</ele>
        <time>2021-03-30T12:07:01.000Z</time>
      </trkpt>
      <trkpt lat="49.8712" lon="4.75594">
        <ele>372</ele>
        <time>2021-03-30T12:07:02.000Z</time>
      </trkpt>
      <trkpt lat="49.8712" lon="4.75594">
        <ele>372</ele>
        <time>2021-03-30T12:07:03.000Z</time>
      </trkpt>
      <trkpt lat="49.8712" lon="4.75594">
        <ele>372</ele>
        <time>2021-03-30T12:07:04.000Z</time>
      </trkpt>
      <trkpt lat="49.8712" lon="4.75595">
        <ele>372</ele>
        <time>2021-03-30T12:07:05.000Z</time>
      </trkpt>
      <trkpt lat="49.8712" lon="4.75595">
        <ele>372</ele>
        <time>2021-03-30T12:07:06.000Z</time>
      </trkpt>
      <trkpt lat="49.8712" lon="4.75594">
        <ele>372</ele>
        <time>2021-03-30T12:07:07.000Z</time>
      </trkpt>
      <trkpt lat="49.8712" lon="4.75594">
        <ele>372</ele>
        <time>2021-03-30T12:07:08.000Z</time>
      </trkpt>
      <trkpt lat="49.87121" lon="4.75594">
        <ele>372</ele>
        <time>2021-03-30T12:07:09.000Z</time>
      </trkpt>
      <trkpt lat="49.87121" lon="4.75594">
        <ele>372</ele>
        <time>2021-03-30T12:07:10.000Z</time>
      </trkpt>
      <trkpt lat="49.87121" lon="4.75593">
        <ele>372</ele>
        <time>2021-03-30T12:07:11.000Z</time>
      </trkpt>
      <trkpt lat="49.87121" lon="4.75593">
        <ele>372</ele>
        <time>2021-03-30T12:07:12.000Z</time>
      </trkpt>
      <trkpt lat="49.87121" lon="4.75593">
        <ele>372</ele>
        <time>2021-03-30T12:07:13.000Z</time>
      </trkpt>
      <trkpt lat="49.87121" lon="4.75593">
        <ele>372</ele>
        <time>2021-03-30T12:07:14.000Z</time>
      </trkpt>
      <trkpt lat="49.87121" lon="4.75593">
        <ele>372</ele>
        <time>2021-03-30T12:07:15.000Z</time>
      </trkpt>
      <trkpt lat="49.87122" lon="4.75593">
        <ele>372</ele>
        <time>2021-03-30T12:07:16.000Z</time>
      </trkpt>
      <trkpt lat="49.87122" lon="4.75593">
        <ele>372</ele>
        <time>2021-03-30T12:07:17.000Z</time>
      </trkpt>
      <trkpt lat="49.87122" lon="4.75593">
        <ele>372</ele>
        <time>2021-03-30T12:07:18.000Z</time>
      </trkpt>
      <trkpt lat="49.87122" lon="4.75593">
        <ele>372</ele>
        <time>2021-03-30T12:07:19.000Z</time>
      </trkpt>
      <trkpt lat="49.87122" lon="4.75592">
        <ele>372</ele>
        <time>2021-03-30T12:07:20.000Z</time>
      </trkpt>
      <trkpt lat="49.87122" lon="4.75592">
        <ele>372</ele>
        <time>2021-03-30T12:07:21.000Z</time>
      </trkpt>
      <trkpt lat="49.87122" lon="4.75592">
        <ele>372</ele>
        <time>2021-03-30T12:07:22.000Z</time>
      </trkpt>
      <trkpt lat="49.87122" lon="4.75592">
        <ele>371</ele>
        <time>2021-03-30T12:07:23.000Z</time>
      </trkpt>
      <trkpt lat="49.87123" lon="4.75592">
        <ele>371</ele>
        <time>2021-03-30T12:07:24.000Z</time>
      </trkpt>
      <trkpt lat="49.87123" lon="4.75592">
        <ele>371</ele>
        <time>2021-03-30T12:07:25.000Z</time>
      </trkpt>
      <trkpt lat="49.87123" lon="4.75592">
        <ele>371</ele>
        <time>2021-03-30T12:07:26.000Z</time>
      </trkpt>
      <trkpt lat="49.87123" lon="4.75591">
        <ele>371</ele>
        <time>2021-03-30T12:07:27.000Z</time>
      </trkpt>
      <trkpt lat="49.87123" lon="4.75591">
        <ele>371</ele>
        <time>2021-03-30T12:07:28.000Z</time>
      </trkpt>
      <trkpt lat="49.87122" lon="4.75592">
        <ele>371</ele>
        <time>2021-03-30T12:07:29.000Z</time>
      </trkpt>
      <trkpt lat="49.87122" lon="4.75592">
        <ele>371</ele>
        <time>2021-03-30T12:07:30.000Z</time>
      </trkpt>
      <trkpt lat="49.87122" lon="4.75592">
        <ele>372</ele>
        <time>2021-03-30T12:07:31.000Z</time>
      </trkpt>
      <trkpt lat="49.87122" lon="4.75591">
        <ele>372</ele>
        <time>2021-03-30T12:07:32.000Z</time>
      </trkpt>
      <trkpt lat="49.87121" lon="4.7559">
        <ele>371</ele>
        <time>2021-03-30T12:07:33.000Z</time>
      </trkpt>
      <trkpt lat="49.87122" lon="4.75587">
        <ele>371</ele>
        <time>2021-03-30T12:07:34.000Z</time>
      </trkpt>
      <trkpt lat="49.87122" lon="4.75585">
        <ele>371</ele>
        <time>2021-03-30T12:07:35.000Z</time>
      </trkpt>
      <trkpt lat="49.87123" lon="4.75582">
        <ele>371</ele>
        <time>2021-03-30T12:07:36.000Z</time>
      </trkpt>
      <trkpt lat="49.87123" lon="4.75578">
        <ele>371</ele>
        <time>2021-03-30T12:07:37.000Z</time>
      </trkpt>
      <trkpt lat="49.87123" lon="4.75574">
        <ele>370</ele>
        <time>2021-03-30T12:07:38.000Z</time>
      </trkpt>
      <trkpt lat="49.87123" lon="4.75571">
        <ele>370</ele>
        <time>2021-03-30T12:07:39.000Z</time>
      </trkpt>
      <trkpt lat="49.87123" lon="4.75566">
        <ele>370</ele>
        <time>2021-03-30T12:07:40.000Z</time>
      </trkpt>
      <trkpt lat="49.87123" lon="4.75562">
        <ele>370</ele>
        <time>2021-03-30T12:07:41.000Z</time>
      </trkpt>
      <trkpt lat="49.87122" lon="4.75558">
        <ele>370</ele>
        <time>2021-03-30T12:07:42.000Z</time>
      </trkpt>
      <trkpt lat="49.87121" lon="4.75554">
        <ele>370</ele>
        <time>2021-03-30T12:07:43.000Z</time>
      </trkpt>
      <trkpt lat="49.8712" lon="4.75551">
        <ele>369</ele>
        <time>2021-03-30T12:07:44.000Z</time>
      </trkpt>
      <trkpt lat="49.87119" lon="4.75548">
        <ele>369</ele>
        <time>2021-03-30T12:07:45.000Z</time>
      </trkpt>
      <trkpt lat="49.87117" lon="4.75544">
        <ele>369</ele>
        <time>2021-03-30T12:07:46.000Z</time>
      </trkpt>
      <trkpt lat="49.87115" lon="4.75541">
        <ele>369</ele>
        <time>2021-03-30T12:07:47.000Z</time>
      </trkpt>
      <trkpt lat="49.87113" lon="4.75538">
        <ele>369</ele>
        <time>2021-03-30T12:07:48.000Z</time>
      </trkpt>
      <trkpt lat="49.87112" lon="4.75535">
        <ele>369</ele>
        <time>2021-03-30T12:07:49.000Z</time>
      </trkpt>
      <trkpt lat="49.8711" lon="4.75534">
        <ele>369</ele>
        <time>2021-03-30T12:07:50.000Z</time>
      </trkpt>
      <trkpt lat="49.8711" lon="4.75534">
        <ele>369</ele>
        <time>2021-03-30T12:07:51.000Z</time>
      </trkpt>
      <trkpt lat="49.87109" lon="4.75533">
        <ele>369</ele>
        <time>2021-03-30T12:07:52.000Z</time>
      </trkpt>
      <trkpt lat="49.87109" lon="4.75532">
        <ele>369</ele>
        <time>2021-03-30T12:07:53.000Z</time>
      </trkpt>
      <trkpt lat="49.87108" lon="4.75532">
        <ele>368</ele>
        <time>2021-03-30T12:07:54.000Z</time>
      </trkpt>
      <trkpt lat="49.87108" lon="4.75531">
        <ele>368</ele>
        <time>2021-03-30T12:07:55.000Z</time>
      </trkpt>
      <trkpt lat="49.87108" lon="4.75531">
        <ele>368</ele>
        <time>2021-03-30T12:07:56.000Z</time>
      </trkpt>
      <trkpt lat="49.87107" lon="4.7553">
        <ele>368</ele>
        <time>2021-03-30T12:07:57.000Z</time>
      </trkpt>
      <trkpt lat="49.87107" lon="4.7553">
        <ele>368</ele>
        <time>2021-03-30T12:07:58.000Z</time>
      </trkpt>
      <trkpt lat="49.87107" lon="4.7553">
        <ele>368</ele>
        <time>2021-03-30T12:07:59.000Z</time>
      </trkpt>
      <trkpt lat="49.87107" lon="4.75531">
        <ele>368</ele>
        <time>2021-03-30T12:08:00.000Z</time>
      </trkpt>
      <trkpt lat="49.87108" lon="4.75532">
        <ele>368</ele>
        <time>2021-03-30T12:08:01.000Z</time>
      </trkpt>
      <trkpt lat="49.87109" lon="4.75533">
        <ele>368</ele>
        <time>2021-03-30T12:08:02.000Z</time>
      </trkpt>
      <trkpt lat="49.8711" lon="4.75534">
        <ele>368</ele>
        <time>2021-03-30T12:08:03.000Z</time>
      </trkpt>
      <trkpt lat="49.87111" lon="4.75534">
        <ele>368</ele>
        <time>2021-03-30T12:08:04.000Z</time>
      </trkpt>
      <trkpt lat="49.87112" lon="4.75536">
        <ele>368</ele>
        <time>2021-03-30T12:08:05.000Z</time>
      </trkpt>
      <trkpt lat="49.87113" lon="4.75538">
        <ele>368</ele>
        <time>2021-03-30T12:08:06.000Z</time>
      </trkpt>
      <trkpt lat="49.87114" lon="4.75541">
        <ele>368</ele>
        <time>2021-03-30T12:08:07.000Z</time>
      </trkpt>
      <trkpt lat="49.87114" lon="4.75543">
        <ele>368</ele>
        <time>2021-03-30T12:08:08.000Z</time>
      </trkpt>
      <trkpt lat="49.87115" lon="4.75545">
        <ele>368</ele>
        <time>2021-03-30T12:08:09.000Z</time>
      </trkpt>
      <trkpt lat="49.87115" lon="4.75547">
        <ele>367</ele>
        <time>2021-03-30T12:08:10.000Z</time>
      </trkpt>
      <trkpt lat="49.87115" lon="4.75549">
        <ele>367</ele>
        <time>2021-03-30T12:08:11.000Z</time>
      </trkpt>
      <trkpt lat="49.87115" lon="4.75552">
        <ele>367</ele>
        <time>2021-03-30T12:08:12.000Z</time>
      </trkpt>
      <trkpt lat="49.87115" lon="4.75554">
        <ele>367</ele>
        <time>2021-03-30T12:08:13.000Z</time>
      </trkpt>
      <trkpt lat="49.87114" lon="4.75557">
        <ele>367</ele>
        <time>2021-03-30T12:08:14.000Z</time>
      </trkpt>
      <trkpt lat="49.87114" lon="4.75559">
        <ele>367</ele>
        <time>2021-03-30T12:08:15.000Z</time>
      </trkpt>
      <trkpt lat="49.87114" lon="4.75561">
        <ele>367</ele>
        <time>2021-03-30T12:08:16.000Z</time>
      </trkpt>
      <trkpt lat="49.87114" lon="4.75564">
        <ele>367</ele>
        <time>2021-03-30T12:08:17.000Z</time>
      </trkpt>
      <trkpt lat="49.87114" lon="4.75567">
        <ele>367</ele>
        <time>2021-03-30T12:08:18.000Z</time>
      </trkpt>
      <trkpt lat="49.87114" lon="4.7557">
        <ele>367</ele>
        <time>2021-03-30T12:08:19.000Z</time>
      </trkpt>
      <trkpt lat="49.87114" lon="4.75573">
        <ele>367</ele>
        <time>2021-03-30T12:08:20.000Z</time>
      </trkpt>
      <trkpt lat="49.87114" lon="4.75576">
        <ele>367</ele>
        <time>2021-03-30T12:08:21.000Z</time>
      </trkpt>
      <trkpt lat="49.87113" lon="4.75578">
        <ele>367</ele>
        <time>2021-03-30T12:08:22.000Z</time>
      </trkpt>
      <trkpt lat="49.87113" lon="4.7558">
        <ele>367</ele>
        <time>2021-03-30T12:08:23.000Z</time>
      </trkpt>
      <trkpt lat="49.87111" lon="4.75582">
        <ele>367</ele>
        <time>2021-03-30T12:08:24.000Z</time>
      </trkpt>
      <trkpt lat="49.87109" lon="4.75584">
        <ele>367</ele>
        <time>2021-03-30T12:08:25.000Z</time>
      </trkpt>
      <trkpt lat="49.87106" lon="4.75587">
        <ele>367</ele>
        <time>2021-03-30T12:08:26.000Z</time>
      </trkpt>
      <trkpt lat="49.87104" lon="4.75589">
        <ele>367</ele>
        <time>2021-03-30T12:08:27.000Z</time>
      </trkpt>
      <trkpt lat="49.87103" lon="4.75591">
        <ele>367</ele>
        <time>2021-03-30T12:08:28.000Z</time>
      </trkpt>
      <trkpt lat="49.87101" lon="4.75593">
        <ele>367</ele>
        <time>2021-03-30T12:08:29.000Z</time>
      </trkpt>
      <trkpt lat="49.871" lon="4.75595">
        <ele>367</ele>
        <time>2021-03-30T12:08:30.000Z</time>
      </trkpt>
      <trkpt lat="49.871" lon="4.75596">
        <ele>367</ele>
        <time>2021-03-30T12:08:31.000Z</time>
      </trkpt>
      <trkpt lat="49.87099" lon="4.75596">
        <ele>367</ele>
        <time>2021-03-30T12:08:32.000Z</time>
      </trkpt>
      <trkpt lat="49.87099" lon="4.75597">
        <ele>367</ele>
        <time>2021-03-30T12:08:33.000Z</time>
      </trkpt>
      <trkpt lat="49.87099" lon="4.75598">
        <ele>367</ele>
        <time>2021-03-30T12:08:34.000Z</time>
      </trkpt>
      <trkpt lat="49.87098" lon="4.75598">
        <ele>367</ele>
        <time>2021-03-30T12:08:35.000Z</time>
      </trkpt>
      <trkpt lat="49.87098" lon="4.75599">
        <ele>367</ele>
        <time>2021-03-30T12:08:36.000Z</time>
      </trkpt>
      <trkpt lat="49.87098" lon="4.756">
        <ele>367</ele>
        <time>2021-03-30T12:08:37.000Z</time>
      </trkpt>
      <trkpt lat="49.87097" lon="4.756">
        <ele>367</ele>
        <time>2021-03-30T12:08:38.000Z</time>
      </trkpt>
      <trkpt lat="49.87097" lon="4.75601">
        <ele>367</ele>
        <time>2021-03-30T12:08:39.000Z</time>
      </trkpt>
      <trkpt lat="49.87097" lon="4.75601">
        <ele>367</ele>
        <time>2021-03-30T12:08:40.000Z</time>
      </trkpt>
      <trkpt lat="49.87096" lon="4.75601">
        <ele>367</ele>
        <time>2021-03-30T12:08:41.000Z</time>
      </trkpt>
      <trkpt lat="49.87096" lon="4.75602">
        <ele>367</ele>
        <time>2021-03-30T12:08:42.000Z</time>
      </trkpt>
      <trkpt lat="49.87096" lon="4.75602">
        <ele>367</ele>
        <time>2021-03-30T12:08:43.000Z</time>
      </trkpt>
      <trkpt lat="49.87096" lon="4.75603">
        <ele>368</ele>
        <time>2021-03-30T12:08:44.000Z</time>
      </trkpt>
      <trkpt lat="49.87095" lon="4.75603">
        <ele>368</ele>
        <time>2021-03-30T12:08:45.000Z</time>
      </trkpt>
      <trkpt lat="49.87095" lon="4.75603">
        <ele>368</ele>
        <time>2021-03-30T12:08:46.000Z</time>
      </trkpt>
      <trkpt lat="49.87095" lon="4.75603">
        <ele>368</ele>
        <time>2021-03-30T12:08:47.000Z</time>
      </trkpt>
      <trkpt lat="49.87095" lon="4.75604">
        <ele>368</ele>
        <time>2021-03-30T12:08:48.000Z</time>
      </trkpt>
      <trkpt lat="49.87095" lon="4.75604">
        <ele>368</ele>
        <time>2021-03-30T12:08:49.000Z</time>
      </trkpt>
      <trkpt lat="49.87095" lon="4.75604">
        <ele>368</ele>
        <time>2021-03-30T12:08:50.000Z</time>
      </trkpt>
      <trkpt lat="49.87095" lon="4.75604">
        <ele>368</ele>
        <time>2021-03-30T12:08:51.000Z</time>
      </trkpt>
      <trkpt lat="49.87094" lon="4.75604">
        <ele>368</ele>
        <time>2021-03-30T12:08:52.000Z</time>
      </trkpt>
      <trkpt lat="49.87094" lon="4.75605">
        <ele>368</ele>
        <time>2021-03-30T12:08:53.000Z</time>
      </trkpt>
      <trkpt lat="49.87094" lon="4.75605">
        <ele>368</ele>
        <time>2021-03-30T12:08:54.000Z</time>
      </trkpt>
      <trkpt lat="49.87094" lon="4.75605">
        <ele>368</ele>
        <time>2021-03-30T12:08:55.000Z</time>
      </trkpt>
      <trkpt lat="49.87094" lon="4.75605">
        <ele>368</ele>
        <time>2021-03-30T12:08:56.000Z</time>
      </trkpt>
      <trkpt lat="49.87094" lon="4.75605">
        <ele>368</ele>
        <time>2021-03-30T12:08:57.000Z</time>
      </trkpt>
      <trkpt lat="49.87094" lon="4.75605">
        <ele>368</ele>
        <time>2021-03-30T12:08:58.000Z</time>
      </trkpt>
      <trkpt lat="49.87094" lon="4.75605">
        <ele>369</ele>
        <time>2021-03-30T12:08:59.000Z</time>
      </trkpt>
      <trkpt lat="49.87094" lon="4.75605">
        <ele>369</ele>
        <time>2021-03-30T12:09:00.000Z</time>
      </trkpt>
      <trkpt lat="49.87095" lon="4.75605">
        <ele>369</ele>
        <time>2021-03-30T12:09:01.000Z</time>
      </trkpt>
      <trkpt lat="49.87095" lon="4.75605">
        <ele>369</ele>
        <time>2021-03-30T12:09:02.000Z</time>
      </trkpt>
      <trkpt lat="49.87094" lon="4.75605">
        <ele>370</ele>
        <time>2021-03-30T12:09:03.000Z</time>
      </trkpt>
      <trkpt lat="49.87094" lon="4.75605">
        <ele>370</ele>
        <time>2021-03-30T12:09:04.000Z</time>
      </trkpt>
      <trkpt lat="49.87094" lon="4.75605">
        <ele>370</ele>
        <time>2021-03-30T12:09:05.000Z</time>
      </trkpt>
      <trkpt lat="49.87094" lon="4.75605">
        <ele>370</ele>
        <time>2021-03-30T12:09:06.000Z</time>
      </trkpt>
      <trkpt lat="49.87094" lon="4.75605">
        <ele>370</ele>
        <time>2021-03-30T12:09:07.000Z</time>
      </trkpt>
      <trkpt lat="49.87094" lon="4.75605">
        <ele>370</ele>
        <time>2021-03-30T12:09:08.000Z</time>
      </trkpt>
      <trkpt lat="49.87094" lon="4.75605">
        <ele>370</ele>
        <time>2021-03-30T12:09:09.000Z</time>
      </trkpt>
      <trkpt lat="49.87094" lon="4.75605">
        <ele>370</ele>
        <time>2021-03-30T12:09:10.000Z</time>
      </trkpt>
      <trkpt lat="49.87094" lon="4.75605">
        <ele>371</ele>
        <time>2021-03-30T12:09:11.000Z</time>
      </trkpt>
      <trkpt lat="49.87094" lon="4.75605">
        <ele>371</ele>
        <time>2021-03-30T12:09:12.000Z</time>
      </trkpt>
      <trkpt lat="49.87094" lon="4.75605">
        <ele>371</ele>
        <time>2021-03-30T12:09:13.000Z</time>
      </trkpt>
      <trkpt lat="49.87094" lon="4.75605">
        <ele>371</ele>
        <time>2021-03-30T12:09:14.000Z</time>
      </trkpt>
      <trkpt lat="49.87094" lon="4.75605">
        <ele>371</ele>
        <time>2021-03-30T12:09:15.000Z</time>
      </trkpt>
      <trkpt lat="49.87095" lon="4.75606">
        <ele>371</ele>
        <time>2021-03-30T12:09:16.000Z</time>
      </trkpt>
      <trkpt lat="49.87095" lon="4.75606">
        <ele>371</ele>
        <time>2021-03-30T12:09:17.000Z</time>
      </trkpt>
      <trkpt lat="49.87095" lon="4.75606">
        <ele>371</ele>
        <time>2021-03-30T12:09:18.000Z</time>
      </trkpt>
      <trkpt lat="49.87095" lon="4.75606">
        <ele>371</ele>
        <time>2021-03-30T12:09:19.000Z</time>
      </trkpt>
      <trkpt lat="49.87095" lon="4.75606">
        <ele>371</ele>
        <time>2021-03-30T12:09:20.000Z</time>
      </trkpt>
      <trkpt lat="49.87095" lon="4.75606">
        <ele>371</ele>
        <time>2021-03-30T12:09:21.000Z</time>
      </trkpt>
      <trkpt lat="49.87095" lon="4.75606">
        <ele>371</ele>
        <time>2021-03-30T12:09:22.000Z</time>
      </trkpt>
      <trkpt lat="49.87096" lon="4.75605">
        <ele>372</ele>
        <time>2021-03-30T12:09:23.000Z</time>
      </trkpt>
      <trkpt lat="49.87097" lon="4.75603">
        <ele>372</ele>
        <time>2021-03-30T12:09:24.000Z</time>
      </trkpt>
      <trkpt lat="49.87098" lon="4.75601">
        <ele>372</ele>
        <time>2021-03-30T12:09:25.000Z</time>
      </trkpt>
      <trkpt lat="49.871" lon="4.756">
        <ele>372</ele>
        <time>2021-03-30T12:09:26.000Z</time>
      </trkpt>
      <trkpt lat="49.87103" lon="4.75598">
        <ele>372</ele>
        <time>2021-03-30T12:09:27.000Z</time>
      </trkpt>
      <trkpt lat="49.87104" lon="4.75597">
        <ele>371</ele>
        <time>2021-03-30T12:09:28.000Z</time>
      </trkpt>
      <trkpt lat="49.87107" lon="4.75596">
        <ele>371</ele>
        <time>2021-03-30T12:09:29.000Z</time>
      </trkpt>
      <trkpt lat="49.87109" lon="4.75596">
        <ele>371</ele>
        <time>2021-03-30T12:09:30.000Z</time>
      </trkpt>
      <trkpt lat="49.87111" lon="4.75597">
        <ele>371</ele>
        <time>2021-03-30T12:09:31.000Z</time>
      </trkpt>
      <trkpt lat="49.87113" lon="4.756">
        <ele>371</ele>
        <time>2021-03-30T12:09:32.000Z</time>
      </trkpt>
      <trkpt lat="49.87114" lon="4.75602">
        <ele>371</ele>
        <time>2021-03-30T12:09:33.000Z</time>
      </trkpt>
      <trkpt lat="49.87116" lon="4.75605">
        <ele>371</ele>
        <time>2021-03-30T12:09:34.000Z</time>
      </trkpt>
      <trkpt lat="49.87117" lon="4.75608">
        <ele>371</ele>
        <time>2021-03-30T12:09:35.000Z</time>
      </trkpt>
      <trkpt lat="49.87119" lon="4.7561">
        <ele>370</ele>
        <time>2021-03-30T12:09:36.000Z</time>
      </trkpt>
      <trkpt lat="49.87121" lon="4.75612">
        <ele>370</ele>
        <time>2021-03-30T12:09:37.000Z</time>
      </trkpt>
      <trkpt lat="49.87124" lon="4.75614">
        <ele>370</ele>
        <time>2021-03-30T12:09:38.000Z</time>
      </trkpt>
      <trkpt lat="49.87126" lon="4.75616">
        <ele>370</ele>
        <time>2021-03-30T12:09:39.000Z</time>
      </trkpt>
      <trkpt lat="49.87128" lon="4.75618">
        <ele>370</ele>
        <time>2021-03-30T12:09:40.000Z</time>
      </trkpt>
      <trkpt lat="49.8713" lon="4.75621">
        <ele>369</ele>
        <time>2021-03-30T12:09:41.000Z</time>
      </trkpt>
      <trkpt lat="49.87132" lon="4.75624">
        <ele>369</ele>
        <time>2021-03-30T12:09:42.000Z</time>
      </trkpt>
      <trkpt lat="49.87134" lon="4.75628">
        <ele>369</ele>
        <time>2021-03-30T12:09:43.000Z</time>
      </trkpt>
      <trkpt lat="49.87136" lon="4.75631">
        <ele>369</ele>
        <time>2021-03-30T12:09:44.000Z</time>
      </trkpt>
      <trkpt lat="49.87137" lon="4.75634">
        <ele>369</ele>
        <time>2021-03-30T12:09:45.000Z</time>
      </trkpt>
      <trkpt lat="49.87138" lon="4.75637">
        <ele>369</ele>
        <time>2021-03-30T12:09:46.000Z</time>
      </trkpt>
      <trkpt lat="49.87139" lon="4.75639">
        <ele>369</ele>
        <time>2021-03-30T12:09:47.000Z</time>
      </trkpt>
      <trkpt lat="49.87141" lon="4.75643">
        <ele>369</ele>
        <time>2021-03-30T12:09:48.000Z</time>
      </trkpt>
      <trkpt lat="49.87142" lon="4.75646">
        <ele>369</ele>
        <time>2021-03-30T12:09:49.000Z</time>
      </trkpt>
      <trkpt lat="49.87145" lon="4.75648">
        <ele>369</ele>
        <time>2021-03-30T12:09:50.000Z</time>
      </trkpt>
      <trkpt lat="49.87146" lon="4.75651">
        <ele>369</ele>
        <time>2021-03-30T12:09:51.000Z</time>
      </trkpt>
      <trkpt lat="49.87147" lon="4.75653">
        <ele>368</ele>
        <time>2021-03-30T12:09:52.000Z</time>
      </trkpt>
      <trkpt lat="49.87149" lon="4.75655">
        <ele>368</ele>
        <time>2021-03-30T12:09:53.000Z</time>
      </trkpt>
      <trkpt lat="49.8715" lon="4.75658">
        <ele>368</ele>
        <time>2021-03-30T12:09:54.000Z</time>
      </trkpt>
      <trkpt lat="49.87152" lon="4.75661">
        <ele>368</ele>
        <time>2021-03-30T12:09:55.000Z</time>
      </trkpt>
      <trkpt lat="49.87154" lon="4.75664">
        <ele>368</ele>
        <time>2021-03-30T12:09:56.000Z</time>
      </trkpt>
      <trkpt lat="49.87155" lon="4.75667">
        <ele>368</ele>
        <time>2021-03-30T12:09:57.000Z</time>
      </trkpt>
      <trkpt lat="49.87157" lon="4.7567">
        <ele>368</ele>
        <time>2021-03-30T12:09:58.000Z</time>
      </trkpt>
      <trkpt lat="49.87159" lon="4.75673">
        <ele>368</ele>
        <time>2021-03-30T12:09:59.000Z</time>
      </trkpt>
      <trkpt lat="49.87161" lon="4.75676">
        <ele>368</ele>
        <time>2021-03-30T12:10:00.000Z</time>
      </trkpt>
      <trkpt lat="49.87162" lon="4.75679">
        <ele>368</ele>
        <time>2021-03-30T12:10:01.000Z</time>
      </trkpt>
      <trkpt lat="49.87163" lon="4.75683">
        <ele>368</ele>
        <time>2021-03-30T12:10:02.000Z</time>
      </trkpt>
      <trkpt lat="49.87165" lon="4.75687">
        <ele>368</ele>
        <time>2021-03-30T12:10:03.000Z</time>
      </trkpt>
      <trkpt lat="49.87166" lon="4.7569">
        <ele>368</ele>
        <time>2021-03-30T12:10:04.000Z</time>
      </trkpt>
      <trkpt lat="49.87167" lon="4.75694">
        <ele>368</ele>
        <time>2021-03-30T12:10:05.000Z</time>
      </trkpt>
      <trkpt lat="49.87169" lon="4.75697">
        <ele>368</ele>
        <time>2021-03-30T12:10:06.000Z</time>
      </trkpt>
      <trkpt lat="49.8717" lon="4.757">
        <ele>368</ele>
        <time>2021-03-30T12:10:07.000Z</time>
      </trkpt>
      <trkpt lat="49.87172" lon="4.75703">
        <ele>368</ele>
        <time>2021-03-30T12:10:08.000Z</time>
      </trkpt>
      <trkpt lat="49.87173" lon="4.75706">
        <ele>369</ele>
        <time>2021-03-30T12:10:09.000Z</time>
      </trkpt>
      <trkpt lat="49.87174" lon="4.75708">
        <ele>369</ele>
        <time>2021-03-30T12:10:10.000Z</time>
      </trkpt>
      <trkpt lat="49.87175" lon="4.75711">
        <ele>369</ele>
        <time>2021-03-30T12:10:11.000Z</time>
      </trkpt>
      <trkpt lat="49.87177" lon="4.75713">
        <ele>369</ele>
        <time>2021-03-30T12:10:12.000Z</time>
      </trkpt>
      <trkpt lat="49.87178" lon="4.75716">
        <ele>369</ele>
        <time>2021-03-30T12:10:13.000Z</time>
      </trkpt>
      <trkpt lat="49.87179" lon="4.75718">
        <ele>369</ele>
        <time>2021-03-30T12:10:14.000Z</time>
      </trkpt>
      <trkpt lat="49.87181" lon="4.75721">
        <ele>369</ele>
        <time>2021-03-30T12:10:15.000Z</time>
      </trkpt>
      <trkpt lat="49.87182" lon="4.75723">
        <ele>369</ele>
        <time>2021-03-30T12:10:16.000Z</time>
      </trkpt>
      <trkpt lat="49.87183" lon="4.75724">
        <ele>369</ele>
        <time>2021-03-30T12:10:17.000Z</time>
      </trkpt>
      <trkpt lat="49.87184" lon="4.75726">
        <ele>369</ele>
        <time>2021-03-30T12:10:18.000Z</time>
      </trkpt>
      <trkpt lat="49.87184" lon="4.75727">
        <ele>369</ele>
        <time>2021-03-30T12:10:19.000Z</time>
      </trkpt>
      <trkpt lat="49.87184" lon="4.75727">
        <ele>369</ele>
        <time>2021-03-30T12:10:20.000Z</time>
      </trkpt>
      <trkpt lat="49.87185" lon="4.75728">
        <ele>369</ele>
        <time>2021-03-30T12:10:21.000Z</time>
      </trkpt>
      <trkpt lat="49.87185" lon="4.75728">
        <ele>369</ele>
        <time>2021-03-30T12:10:22.000Z</time>
      </trkpt>
      <trkpt lat="49.87185" lon="4.75728">
        <ele>369</ele>
        <time>2021-03-30T12:10:23.000Z</time>
      </trkpt>
      <trkpt lat="49.87185" lon="4.75729">
        <ele>369</ele>
        <time>2021-03-30T12:10:24.000Z</time>
      </trkpt>
      <trkpt lat="49.87185" lon="4.75729">
        <ele>370</ele>
        <time>2021-03-30T12:10:25.000Z</time>
      </trkpt>
      <trkpt lat="49.87185" lon="4.75729">
        <ele>370</ele>
        <time>2021-03-30T12:10:26.000Z</time>
      </trkpt>
      <trkpt lat="49.87185" lon="4.75729">
        <ele>370</ele>
        <time>2021-03-30T12:10:27.000Z</time>
      </trkpt>
      <trkpt lat="49.87186" lon="4.7573">
        <ele>370</ele>
        <time>2021-03-30T12:10:28.000Z</time>
      </trkpt>
      <trkpt lat="49.87186" lon="4.7573">
        <ele>370</ele>
        <time>2021-03-30T12:10:29.000Z</time>
      </trkpt>
      <trkpt lat="49.87186" lon="4.7573">
        <ele>370</ele>
        <time>2021-03-30T12:10:30.000Z</time>
      </trkpt>
      <trkpt lat="49.87186" lon="4.75731">
        <ele>370</ele>
        <time>2021-03-30T12:10:31.000Z</time>
      </trkpt>
      <trkpt lat="49.87186" lon="4.75731">
        <ele>370</ele>
        <time>2021-03-30T12:10:32.000Z</time>
      </trkpt>
      <trkpt lat="49.87186" lon="4.75731">
        <ele>370</ele>
        <time>2021-03-30T12:10:33.000Z</time>
      </trkpt>
      <trkpt lat="49.87186" lon="4.75731">
        <ele>370</ele>
        <time>2021-03-30T12:10:34.000Z</time>
      </trkpt>
      <trkpt lat="49.87186" lon="4.75731">
        <ele>371</ele>
        <time>2021-03-30T12:10:35.000Z</time>
      </trkpt>
      <trkpt lat="49.87186" lon="4.75732">
        <ele>371</ele>
        <time>2021-03-30T12:10:36.000Z</time>
      </trkpt>
      <trkpt lat="49.87186" lon="4.75732">
        <ele>371</ele>
        <time>2021-03-30T12:10:37.000Z</time>
      </trkpt>
      <trkpt lat="49.87186" lon="4.75732">
        <ele>371</ele>
        <time>2021-03-30T12:10:38.000Z</time>
      </trkpt>
      <trkpt lat="49.87186" lon="4.75732">
        <ele>371</ele>
        <time>2021-03-30T12:10:39.000Z</time>
      </trkpt>
      <trkpt lat="49.87186" lon="4.75732">
        <ele>371</ele>
        <time>2021-03-30T12:10:40.000Z</time>
      </trkpt>
      <trkpt lat="49.87186" lon="4.75732">
        <ele>371</ele>
        <time>2021-03-30T12:10:41.000Z</time>
      </trkpt>
      <trkpt lat="49.87186" lon="4.75732">
        <ele>371</ele>
        <time>2021-03-30T12:10:42.000Z</time>
      </trkpt>
      <trkpt lat="49.87186" lon="4.75733">
        <ele>371</ele>
        <time>2021-03-30T12:10:43.000Z</time>
      </trkpt>
      <trkpt lat="49.87187" lon="4.75733">
        <ele>371</ele>
        <time>2021-03-30T12:10:44.000Z</time>
      </trkpt>
      <trkpt lat="49.87187" lon="4.75733">
        <ele>371</ele>
        <time>2021-03-30T12:10:45.000Z</time>
      </trkpt>
      <trkpt lat="49.87187" lon="4.75733">
        <ele>371</ele>
        <time>2021-03-30T12:10:46.000Z</time>
      </trkpt>
      <trkpt lat="49.87187" lon="4.75733">
        <ele>371</ele>
        <time>2021-03-30T12:10:47.000Z</time>
      </trkpt>
      <trkpt lat="49.87187" lon="4.75733">
        <ele>371</ele>
        <time>2021-03-30T12:10:48.000Z</time>
      </trkpt>
      <trkpt lat="49.87187" lon="4.75733">
        <ele>371</ele>
        <time>2021-03-30T12:10:49.000Z</time>
      </trkpt>
      <trkpt lat="49.87187" lon="4.75733">
        <ele>371</ele>
        <time>2021-03-30T12:10:50.000Z</time>
      </trkpt>
      <trkpt lat="49.87187" lon="4.75733">
        <ele>371</ele>
        <time>2021-03-30T12:10:51.000Z</time>
      </trkpt>
      <trkpt lat="49.87187" lon="4.75733">
        <ele>371</ele>
        <time>2021-03-30T12:10:52.000Z</time>
      </trkpt>
      <trkpt lat="49.87187" lon="4.75733">
        <ele>371</ele>
        <time>2021-03-30T12:10:53.000Z</time>
      </trkpt>
      <trkpt lat="49.87187" lon="4.75733">
        <ele>371</ele>
        <time>2021-03-30T12:10:54.000Z</time>
      </trkpt>
      <trkpt lat="49.87187" lon="4.75733">
        <ele>371</ele>
        <time>2021-03-30T12:10:55.000Z</time>
      </trkpt>
      <trkpt lat="49.87187" lon="4.75734">
        <ele>371</ele>
        <time>2021-03-30T12:10:56.000Z</time>
      </trkpt>
      <trkpt lat="49.87187" lon="4.75734">
        <ele>371</ele>
        <time>2021-03-30T12:10:57.000Z</time>
      </trkpt>
      <trkpt lat="49.87187" lon="4.75734">
        <ele>371</ele>
        <time>2021-03-30T12:10:58.000Z</time>
      </trkpt>
      <trkpt lat="49.87187" lon="4.75734">
        <ele>371</ele>
        <time>2021-03-30T12:10:59.000Z</time>
      </trkpt>
      <trkpt lat="49.87187" lon="4.75734">
        <ele>371</ele>
        <time>2021-03-30T12:11:00.000Z</time>
      </trkpt>
      <trkpt lat="49.87187" lon="4.75733">
        <ele>371</ele>
        <time>2021-03-30T12:11:01.000Z</time>
      </trkpt>
      <trkpt lat="49.87187" lon="4.75734">
        <ele>371</ele>
        <time>2021-03-30T12:11:02.000Z</time>
      </trkpt>
      <trkpt lat="49.87186" lon="4.75734">
        <ele>371</ele>
        <time>2021-03-30T12:11:03.000Z</time>
      </trkpt>
      <trkpt lat="49.87186" lon="4.75734">
        <ele>371</ele>
        <time>2021-03-30T12:11:04.000Z</time>
      </trkpt>
      <trkpt lat="49.87185" lon="4.75732">
        <ele>371</ele>
        <time>2021-03-30T12:11:05.000Z</time>
      </trkpt>
      <trkpt lat="49.87184" lon="4.7573">
        <ele>371</ele>
        <time>2021-03-30T12:11:06.000Z</time>
      </trkpt>
      <trkpt lat="49.87182" lon="4.75727">
        <ele>371</ele>
        <time>2021-03-30T12:11:07.000Z</time>
      </trkpt>
      <trkpt lat="49.8718" lon="4.75723">
        <ele>370</ele>
        <time>2021-03-30T12:11:08.000Z</time>
      </trkpt>
      <trkpt lat="49.87178" lon="4.75719">
        <ele>370</ele>
        <time>2021-03-30T12:11:09.000Z</time>
      </trkpt>
      <trkpt lat="49.87176" lon="4.75714">
        <ele>370</ele>
        <time>2021-03-30T12:11:10.000Z</time>
      </trkpt>
      <trkpt lat="49.87174" lon="4.75707">
        <ele>370</ele>
        <time>2021-03-30T12:11:11.000Z</time>
      </trkpt>
      <trkpt lat="49.87171" lon="4.757">
        <ele>370</ele>
        <time>2021-03-30T12:11:12.000Z</time>
      </trkpt>
      <trkpt lat="49.87169" lon="4.75692">
        <ele>370</ele>
        <time>2021-03-30T12:11:13.000Z</time>
      </trkpt>
      <trkpt lat="49.87167" lon="4.75683">
        <ele>370</ele>
        <time>2021-03-30T12:11:14.000Z</time>
      </trkpt>
      <trkpt lat="49.87166" lon="4.75674">
        <ele>369</ele>
        <time>2021-03-30T12:11:15.000Z</time>
      </trkpt>
      <trkpt lat="49.87163" lon="4.75666">
        <ele>369</ele>
        <time>2021-03-30T12:11:16.000Z</time>
      </trkpt>
      <trkpt lat="49.87159" lon="4.75659">
        <ele>369</ele>
        <time>2021-03-30T12:11:17.000Z</time>
      </trkpt>
      <trkpt lat="49.87155" lon="4.75651">
        <ele>369</ele>
        <time>2021-03-30T12:11:18.000Z</time>
      </trkpt>
      <trkpt lat="49.87151" lon="4.75644">
        <ele>368</ele>
        <time>2021-03-30T12:11:19.000Z</time>
      </trkpt>
      <trkpt lat="49.87146" lon="4.75636">
        <ele>368</ele>
        <time>2021-03-30T12:11:20.000Z</time>
      </trkpt>
      <trkpt lat="49.87142" lon="4.75628">
        <ele>368</ele>
        <time>2021-03-30T12:11:21.000Z</time>
      </trkpt>
      <trkpt lat="49.87137" lon="4.75619">
        <ele>368</ele>
        <time>2021-03-30T12:11:22.000Z</time>
      </trkpt>
      <trkpt lat="49.87133" lon="4.75612">
        <ele>367</ele>
        <time>2021-03-30T12:11:23.000Z</time>
      </trkpt>
      <trkpt lat="49.87128" lon="4.75605">
        <ele>367</ele>
        <time>2021-03-30T12:11:24.000Z</time>
      </trkpt>
      <trkpt lat="49.87124" lon="4.75598">
        <ele>367</ele>
        <time>2021-03-30T12:11:25.000Z</time>
      </trkpt>
      <trkpt lat="49.87121" lon="4.75592">
        <ele>367</ele>
        <time>2021-03-30T12:11:26.000Z</time>
      </trkpt>
      <trkpt lat="49.87119" lon="4.75587">
        <ele>366</ele>
        <time>2021-03-30T12:11:27.000Z</time>
      </trkpt>
      <trkpt lat="49.87118" lon="4.75582">
        <ele>366</ele>
        <time>2021-03-30T12:11:28.000Z</time>
      </trkpt>
      <trkpt lat="49.87118" lon="4.75577">
        <ele>366</ele>
        <time>2021-03-30T12:11:29.000Z</time>
      </trkpt>
      <trkpt lat="49.87118" lon="4.75572">
        <ele>366</ele>
        <time>2021-03-30T12:11:30.000Z</time>
      </trkpt>
      <trkpt lat="49.87118" lon="4.75567">
        <ele>366</ele>
        <time>2021-03-30T12:11:31.000Z</time>
      </trkpt>
      <trkpt lat="49.87117" lon="4.75561">
        <ele>366</ele>
        <time>2021-03-30T12:11:32.000Z</time>
      </trkpt>
      <trkpt lat="49.87116" lon="4.75555">
        <ele>365</ele>
        <time>2021-03-30T12:11:33.000Z</time>
      </trkpt>
      <trkpt lat="49.87114" lon="4.7555">
        <ele>365</ele>
        <time>2021-03-30T12:11:34.000Z</time>
      </trkpt>
      <trkpt lat="49.87112" lon="4.75545">
        <ele>365</ele>
        <time>2021-03-30T12:11:35.000Z</time>
      </trkpt>
      <trkpt lat="49.8711" lon="4.7554">
        <ele>365</ele>
        <time>2021-03-30T12:11:36.000Z</time>
      </trkpt>
      <trkpt lat="49.87107" lon="4.75536">
        <ele>365</ele>
        <time>2021-03-30T12:11:37.000Z</time>
      </trkpt>
      <trkpt lat="49.87103" lon="4.75532">
        <ele>365</ele>
        <time>2021-03-30T12:11:38.000Z</time>
      </trkpt>
      <trkpt lat="49.871" lon="4.75529">
        <ele>364</ele>
        <time>2021-03-30T12:11:39.000Z</time>
      </trkpt>
      <trkpt lat="49.87096" lon="4.75525">
        <ele>364</ele>
        <time>2021-03-30T12:11:40.000Z</time>
      </trkpt>
      <trkpt lat="49.87092" lon="4.75523">
        <ele>364</ele>
        <time>2021-03-30T12:11:41.000Z</time>
      </trkpt>
      <trkpt lat="49.87088" lon="4.7552">
        <ele>364</ele>
        <time>2021-03-30T12:11:42.000Z</time>
      </trkpt>
      <trkpt lat="49.87084" lon="4.75516">
        <ele>364</ele>
        <time>2021-03-30T12:11:43.000Z</time>
      </trkpt>
      <trkpt lat="49.87081" lon="4.75511">
        <ele>364</ele>
        <time>2021-03-30T12:11:44.000Z</time>
      </trkpt>
      <trkpt lat="49.87077" lon="4.75508">
        <ele>364</ele>
        <time>2021-03-30T12:11:45.000Z</time>
      </trkpt>
      <trkpt lat="49.87074" lon="4.75504">
        <ele>364</ele>
        <time>2021-03-30T12:11:46.000Z</time>
      </trkpt>
      <trkpt lat="49.87071" lon="4.75502">
        <ele>364</ele>
        <time>2021-03-30T12:11:47.000Z</time>
      </trkpt>
      <trkpt lat="49.87067" lon="4.75501">
        <ele>363</ele>
        <time>2021-03-30T12:11:48.000Z</time>
      </trkpt>
      <trkpt lat="49.87064" lon="4.75497">
        <ele>363</ele>
        <time>2021-03-30T12:11:49.000Z</time>
      </trkpt>
      <trkpt lat="49.87062" lon="4.75493">
        <ele>363</ele>
        <time>2021-03-30T12:11:50.000Z</time>
      </trkpt>
      <trkpt lat="49.87059" lon="4.75489">
        <ele>362</ele>
        <time>2021-03-30T12:11:51.000Z</time>
      </trkpt>
      <trkpt lat="49.87055" lon="4.75484">
        <ele>362</ele>
        <time>2021-03-30T12:11:52.000Z</time>
      </trkpt>
      <trkpt lat="49.87052" lon="4.75479">
        <ele>362</ele>
        <time>2021-03-30T12:11:53.000Z</time>
      </trkpt>
      <trkpt lat="49.87048" lon="4.75474">
        <ele>361</ele>
        <time>2021-03-30T12:11:54.000Z</time>
      </trkpt>
      <trkpt lat="49.87044" lon="4.75468">
        <ele>361</ele>
        <time>2021-03-30T12:11:55.000Z</time>
      </trkpt>
      <trkpt lat="49.8704" lon="4.75462">
        <ele>361</ele>
        <time>2021-03-30T12:11:56.000Z</time>
      </trkpt>
      <trkpt lat="49.87036" lon="4.75456">
        <ele>360</ele>
        <time>2021-03-30T12:11:57.000Z</time>
      </trkpt>
      <trkpt lat="49.87032" lon="4.7545">
        <ele>360</ele>
        <time>2021-03-30T12:11:58.000Z</time>
      </trkpt>
      <trkpt lat="49.87028" lon="4.75443">
        <ele>360</ele>
        <time>2021-03-30T12:11:59.000Z</time>
      </trkpt>
      <trkpt lat="49.87024" lon="4.75437">
        <ele>359</ele>
        <time>2021-03-30T12:12:00.000Z</time>
      </trkpt>
      <trkpt lat="49.8702" lon="4.75431">
        <ele>359</ele>
        <time>2021-03-30T12:12:01.000Z</time>
      </trkpt>
      <trkpt lat="49.87016" lon="4.75425">
        <ele>358</ele>
        <time>2021-03-30T12:12:02.000Z</time>
      </trkpt>
      <trkpt lat="49.87012" lon="4.7542">
        <ele>358</ele>
        <time>2021-03-30T12:12:03.000Z</time>
      </trkpt>
      <trkpt lat="49.87009" lon="4.75414">
        <ele>358</ele>
        <time>2021-03-30T12:12:04.000Z</time>
      </trkpt>
      <trkpt lat="49.87005" lon="4.75408">
        <ele>357</ele>
        <time>2021-03-30T12:12:05.000Z</time>
      </trkpt>
      <trkpt lat="49.87001" lon="4.75403">
        <ele>357</ele>
        <time>2021-03-30T12:12:06.000Z</time>
      </trkpt>
      <trkpt lat="49.86997" lon="4.75398">
        <ele>357</ele>
        <time>2021-03-30T12:12:07.000Z</time>
      </trkpt>
      <trkpt lat="49.86993" lon="4.75394">
        <ele>357</ele>
        <time>2021-03-30T12:12:08.000Z</time>
      </trkpt>
      <trkpt lat="49.8699" lon="4.75391">
        <ele>356</ele>
        <time>2021-03-30T12:12:09.000Z</time>
      </trkpt>
      <trkpt lat="49.86988" lon="4.75386">
        <ele>356</ele>
        <time>2021-03-30T12:12:10.000Z</time>
      </trkpt>
      <trkpt lat="49.86986" lon="4.7538">
        <ele>356</ele>
        <time>2021-03-30T12:12:11.000Z</time>
      </trkpt>
      <trkpt lat="49.86983" lon="4.75375">
        <ele>356</ele>
        <time>2021-03-30T12:12:12.000Z</time>
      </trkpt>
      <trkpt lat="49.86981" lon="4.75369">
        <ele>356</ele>
        <time>2021-03-30T12:12:13.000Z</time>
      </trkpt>
      <trkpt lat="49.86977" lon="4.75364">
        <ele>356</ele>
        <time>2021-03-30T12:12:14.000Z</time>
      </trkpt>
      <trkpt lat="49.86973" lon="4.7536">
        <ele>356</ele>
        <time>2021-03-30T12:12:15.000Z</time>
      </trkpt>
      <trkpt lat="49.86969" lon="4.75355">
        <ele>356</ele>
        <time>2021-03-30T12:12:16.000Z</time>
      </trkpt>
      <trkpt lat="49.86964" lon="4.75352">
        <ele>356</ele>
        <time>2021-03-30T12:12:17.000Z</time>
      </trkpt>
      <trkpt lat="49.86959" lon="4.75348">
        <ele>355</ele>
        <time>2021-03-30T12:12:18.000Z</time>
      </trkpt>
      <trkpt lat="49.86954" lon="4.75343">
        <ele>355</ele>
        <time>2021-03-30T12:12:19.000Z</time>
      </trkpt>
      <trkpt lat="49.86949" lon="4.75339">
        <ele>355</ele>
        <time>2021-03-30T12:12:20.000Z</time>
      </trkpt>
      <trkpt lat="49.86943" lon="4.75335">
        <ele>355</ele>
        <time>2021-03-30T12:12:21.000Z</time>
      </trkpt>
      <trkpt lat="49.86938" lon="4.75331">
        <ele>355</ele>
        <time>2021-03-30T12:12:22.000Z</time>
      </trkpt>
      <trkpt lat="49.86933" lon="4.75327">
        <ele>355</ele>
        <time>2021-03-30T12:12:23.000Z</time>
      </trkpt>
      <trkpt lat="49.86928" lon="4.75323">
        <ele>355</ele>
        <time>2021-03-30T12:12:24.000Z</time>
      </trkpt>
      <trkpt lat="49.86924" lon="4.7532">
        <ele>355</ele>
        <time>2021-03-30T12:12:25.000Z</time>
      </trkpt>
      <trkpt lat="49.86919" lon="4.75314">
        <ele>355</ele>
        <time>2021-03-30T12:12:26.000Z</time>
      </trkpt>
      <trkpt lat="49.86916" lon="4.7531">
        <ele>355</ele>
        <time>2021-03-30T12:12:27.000Z</time>
      </trkpt>
      <trkpt lat="49.86913" lon="4.75304">
        <ele>355</ele>
        <time>2021-03-30T12:12:28.000Z</time>
      </trkpt>
      <trkpt lat="49.86909" lon="4.75296">
        <ele>354</ele>
        <time>2021-03-30T12:12:29.000Z</time>
      </trkpt>
      <trkpt lat="49.86906" lon="4.75287">
        <ele>354</ele>
        <time>2021-03-30T12:12:30.000Z</time>
      </trkpt>
      <trkpt lat="49.86902" lon="4.75277">
        <ele>353</ele>
        <time>2021-03-30T12:12:31.000Z</time>
      </trkpt>
      <trkpt lat="49.86899" lon="4.75268">
        <ele>353</ele>
        <time>2021-03-30T12:12:32.000Z</time>
      </trkpt>
      <trkpt lat="49.86896" lon="4.75259">
        <ele>352</ele>
        <time>2021-03-30T12:12:33.000Z</time>
      </trkpt>
      <trkpt lat="49.86893" lon="4.75252">
        <ele>352</ele>
        <time>2021-03-30T12:12:34.000Z</time>
      </trkpt>
      <trkpt lat="49.86891" lon="4.75247">
        <ele>351</ele>
        <time>2021-03-30T12:12:35.000Z</time>
      </trkpt>
      <trkpt lat="49.86889" lon="4.75244">
        <ele>351</ele>
        <time>2021-03-30T12:12:36.000Z</time>
      </trkpt>
      <trkpt lat="49.86887" lon="4.75243">
        <ele>350</ele>
        <time>2021-03-30T12:12:37.000Z</time>
      </trkpt>
      <trkpt lat="49.86884" lon="4.75243">
        <ele>350</ele>
        <time>2021-03-30T12:12:38.000Z</time>
      </trkpt>
      <trkpt lat="49.86883" lon="4.75244">
        <ele>349</ele>
        <time>2021-03-30T12:12:39.000Z</time>
      </trkpt>
      <trkpt lat="49.86881" lon="4.75247">
        <ele>349</ele>
        <time>2021-03-30T12:12:40.000Z</time>
      </trkpt>
      <trkpt lat="49.86879" lon="4.75251">
        <ele>349</ele>
        <time>2021-03-30T12:12:41.000Z</time>
      </trkpt>
      <trkpt lat="49.86878" lon="4.75256">
        <ele>348</ele>
        <time>2021-03-30T12:12:42.000Z</time>
      </trkpt>
      <trkpt lat="49.86877" lon="4.75261">
        <ele>348</ele>
        <time>2021-03-30T12:12:43.000Z</time>
      </trkpt>
      <trkpt lat="49.86877" lon="4.75267">
        <ele>348</ele>
        <time>2021-03-30T12:12:44.000Z</time>
      </trkpt>
      <trkpt lat="49.86877" lon="4.75274">
        <ele>347</ele>
        <time>2021-03-30T12:12:45.000Z</time>
      </trkpt>
      <trkpt lat="49.86877" lon="4.75281">
        <ele>347</ele>
        <time>2021-03-30T12:12:46.000Z</time>
      </trkpt>
      <trkpt lat="49.86877" lon="4.7529">
        <ele>346</ele>
        <time>2021-03-30T12:12:47.000Z</time>
      </trkpt>
      <trkpt lat="49.86877" lon="4.753">
        <ele>346</ele>
        <time>2021-03-30T12:12:48.000Z</time>
      </trkpt>
      <trkpt lat="49.86877" lon="4.75311">
        <ele>346</ele>
        <time>2021-03-30T12:12:49.000Z</time>
      </trkpt>
      <trkpt lat="49.86878" lon="4.75321">
        <ele>345</ele>
        <time>2021-03-30T12:12:50.000Z</time>
      </trkpt>
      <trkpt lat="49.86879" lon="4.7533">
        <ele>345</ele>
        <time>2021-03-30T12:12:51.000Z</time>
      </trkpt>
      <trkpt lat="49.8688" lon="4.75339">
        <ele>344</ele>
        <time>2021-03-30T12:12:52.000Z</time>
      </trkpt>
      <trkpt lat="49.86882" lon="4.75347">
        <ele>344</ele>
        <time>2021-03-30T12:12:53.000Z</time>
      </trkpt>
      <trkpt lat="49.86883" lon="4.75353">
        <ele>343</ele>
        <time>2021-03-30T12:12:54.000Z</time>
      </trkpt>
      <trkpt lat="49.86884" lon="4.75361">
        <ele>343</ele>
        <time>2021-03-30T12:12:55.000Z</time>
      </trkpt>
      <trkpt lat="49.86884" lon="4.75369">
        <ele>342</ele>
        <time>2021-03-30T12:12:56.000Z</time>
      </trkpt>
      <trkpt lat="49.86884" lon="4.75377">
        <ele>342</ele>
        <time>2021-03-30T12:12:57.000Z</time>
      </trkpt>
      <trkpt lat="49.86884" lon="4.75385">
        <ele>342</ele>
        <time>2021-03-30T12:12:58.000Z</time>
      </trkpt>
      <trkpt lat="49.86883" lon="4.75394">
        <ele>341</ele>
        <time>2021-03-30T12:12:59.000Z</time>
      </trkpt>
      <trkpt lat="49.86882" lon="4.75403">
        <ele>341</ele>
        <time>2021-03-30T12:13:00.000Z</time>
      </trkpt>
      <trkpt lat="49.86882" lon="4.75414">
        <ele>341</ele>
        <time>2021-03-30T12:13:01.000Z</time>
      </trkpt>
      <trkpt lat="49.86882" lon="4.75426">
        <ele>341</ele>
        <time>2021-03-30T12:13:02.000Z</time>
      </trkpt>
      <trkpt lat="49.86882" lon="4.75437">
        <ele>340</ele>
        <time>2021-03-30T12:13:03.000Z</time>
      </trkpt>
      <trkpt lat="49.86881" lon="4.75448">
        <ele>340</ele>
        <time>2021-03-30T12:13:04.000Z</time>
      </trkpt>
      <trkpt lat="49.8688" lon="4.75458">
        <ele>340</ele>
        <time>2021-03-30T12:13:05.000Z</time>
      </trkpt>
      <trkpt lat="49.86879" lon="4.75469">
        <ele>339</ele>
        <time>2021-03-30T12:13:06.000Z</time>
      </trkpt>
      <trkpt lat="49.86878" lon="4.75479">
        <ele>339</ele>
        <time>2021-03-30T12:13:07.000Z</time>
      </trkpt>
      <trkpt lat="49.86877" lon="4.7549">
        <ele>338</ele>
        <time>2021-03-30T12:13:08.000Z</time>
      </trkpt>
      <trkpt lat="49.86876" lon="4.75501">
        <ele>338</ele>
        <time>2021-03-30T12:13:09.000Z</time>
      </trkpt>
      <trkpt lat="49.86874" lon="4.75509">
        <ele>337</ele>
        <time>2021-03-30T12:13:10.000Z</time>
      </trkpt>
      <trkpt lat="49.86874" lon="4.75515">
        <ele>337</ele>
        <time>2021-03-30T12:13:11.000Z</time>
      </trkpt>
      <trkpt lat="49.86873" lon="4.75521">
        <ele>336</ele>
        <time>2021-03-30T12:13:12.000Z</time>
      </trkpt>
      <trkpt lat="49.86873" lon="4.75526">
        <ele>336</ele>
        <time>2021-03-30T12:13:13.000Z</time>
      </trkpt>
      <trkpt lat="49.86872" lon="4.75532">
        <ele>335</ele>
        <time>2021-03-30T12:13:14.000Z</time>
      </trkpt>
      <trkpt lat="49.86872" lon="4.75538">
        <ele>335</ele>
        <time>2021-03-30T12:13:15.000Z</time>
      </trkpt>
      <trkpt lat="49.86872" lon="4.75545">
        <ele>334</ele>
        <time>2021-03-30T12:13:16.000Z</time>
      </trkpt>
      <trkpt lat="49.86872" lon="4.75551">
        <ele>334</ele>
        <time>2021-03-30T12:13:17.000Z</time>
      </trkpt>
      <trkpt lat="49.86871" lon="4.75558">
        <ele>333</ele>
        <time>2021-03-30T12:13:18.000Z</time>
      </trkpt>
      <trkpt lat="49.86871" lon="4.75565">
        <ele>333</ele>
        <time>2021-03-30T12:13:19.000Z</time>
      </trkpt>
      <trkpt lat="49.86871" lon="4.75571">
        <ele>333</ele>
        <time>2021-03-30T12:13:20.000Z</time>
      </trkpt>
      <trkpt lat="49.86871" lon="4.75577">
        <ele>332</ele>
        <time>2021-03-30T12:13:21.000Z</time>
      </trkpt>
      <trkpt lat="49.8687" lon="4.75582">
        <ele>332</ele>
        <time>2021-03-30T12:13:22.000Z</time>
      </trkpt>
      <trkpt lat="49.86871" lon="4.75588">
        <ele>331</ele>
        <time>2021-03-30T12:13:23.000Z</time>
      </trkpt>
      <trkpt lat="49.86871" lon="4.75594">
        <ele>331</ele>
        <time>2021-03-30T12:13:24.000Z</time>
      </trkpt>
      <trkpt lat="49.8687" lon="4.756">
        <ele>331</ele>
        <time>2021-03-30T12:13:25.000Z</time>
      </trkpt>
      <trkpt lat="49.86869" lon="4.75606">
        <ele>330</ele>
        <time>2021-03-30T12:13:26.000Z</time>
      </trkpt>
      <trkpt lat="49.86868" lon="4.75613">
        <ele>330</ele>
        <time>2021-03-30T12:13:27.000Z</time>
      </trkpt>
      <trkpt lat="49.86866" lon="4.75621">
        <ele>329</ele>
        <time>2021-03-30T12:13:28.000Z</time>
      </trkpt>
      <trkpt lat="49.86864" lon="4.75629">
        <ele>329</ele>
        <time>2021-03-30T12:13:29.000Z</time>
      </trkpt>
      <trkpt lat="49.86864" lon="4.75637">
        <ele>329</ele>
        <time>2021-03-30T12:13:30.000Z</time>
      </trkpt>
      <trkpt lat="49.86863" lon="4.75646">
        <ele>328</ele>
        <time>2021-03-30T12:13:31.000Z</time>
      </trkpt>
      <trkpt lat="49.86863" lon="4.75655">
        <ele>328</ele>
        <time>2021-03-30T12:13:32.000Z</time>
      </trkpt>
      <trkpt lat="49.86862" lon="4.75663">
        <ele>328</ele>
        <time>2021-03-30T12:13:33.000Z</time>
      </trkpt>
      <trkpt lat="49.86862" lon="4.75672">
        <ele>327</ele>
        <time>2021-03-30T12:13:34.000Z</time>
      </trkpt>
      <trkpt lat="49.86862" lon="4.7568">
        <ele>327</ele>
        <time>2021-03-30T12:13:35.000Z</time>
      </trkpt>
      <trkpt lat="49.86861" lon="4.75689">
        <ele>327</ele>
        <time>2021-03-30T12:13:36.000Z</time>
      </trkpt>
      <trkpt lat="49.8686" lon="4.75696">
        <ele>327</ele>
        <time>2021-03-30T12:13:37.000Z</time>
      </trkpt>
      <trkpt lat="49.8686" lon="4.75702">
        <ele>327</ele>
        <time>2021-03-30T12:13:38.000Z</time>
      </trkpt>
      <trkpt lat="49.86859" lon="4.75708">
        <ele>326</ele>
        <time>2021-03-30T12:13:39.000Z</time>
      </trkpt>
      <trkpt lat="49.86858" lon="4.75712">
        <ele>326</ele>
        <time>2021-03-30T12:13:40.000Z</time>
      </trkpt>
      <trkpt lat="49.86858" lon="4.75717">
        <ele>326</ele>
        <time>2021-03-30T12:13:41.000Z</time>
      </trkpt>
      <trkpt lat="49.86859" lon="4.75723">
        <ele>325</ele>
        <time>2021-03-30T12:13:42.000Z</time>
      </trkpt>
      <trkpt lat="49.86859" lon="4.75729">
        <ele>325</ele>
        <time>2021-03-30T12:13:43.000Z</time>
      </trkpt>
      <trkpt lat="49.8686" lon="4.75736">
        <ele>325</ele>
        <time>2021-03-30T12:13:44.000Z</time>
      </trkpt>
      <trkpt lat="49.86861" lon="4.75742">
        <ele>324</ele>
        <time>2021-03-30T12:13:45.000Z</time>
      </trkpt>
      <trkpt lat="49.86863" lon="4.75748">
        <ele>324</ele>
        <time>2021-03-30T12:13:46.000Z</time>
      </trkpt>
      <trkpt lat="49.86864" lon="4.75753">
        <ele>323</ele>
        <time>2021-03-30T12:13:47.000Z</time>
      </trkpt>
      <trkpt lat="49.86866" lon="4.75756">
        <ele>323</ele>
        <time>2021-03-30T12:13:48.000Z</time>
      </trkpt>
      <trkpt lat="49.86868" lon="4.7576">
        <ele>322</ele>
        <time>2021-03-30T12:13:49.000Z</time>
      </trkpt>
      <trkpt lat="49.8687" lon="4.75762">
        <ele>322</ele>
        <time>2021-03-30T12:13:50.000Z</time>
      </trkpt>
      <trkpt lat="49.86872" lon="4.75765">
        <ele>321</ele>
        <time>2021-03-30T12:13:51.000Z</time>
      </trkpt>
      <trkpt lat="49.86873" lon="4.75768">
        <ele>321</ele>
        <time>2021-03-30T12:13:52.000Z</time>
      </trkpt>
      <trkpt lat="49.86874" lon="4.7577">
        <ele>320</ele>
        <time>2021-03-30T12:13:53.000Z</time>
      </trkpt>
      <trkpt lat="49.86875" lon="4.75773">
        <ele>320</ele>
        <time>2021-03-30T12:13:54.000Z</time>
      </trkpt>
      <trkpt lat="49.86876" lon="4.75775">
        <ele>320</ele>
        <time>2021-03-30T12:13:55.000Z</time>
      </trkpt>
      <trkpt lat="49.86878" lon="4.75777">
        <ele>319</ele>
        <time>2021-03-30T12:13:56.000Z</time>
      </trkpt>
      <trkpt lat="49.8688" lon="4.75779">
        <ele>319</ele>
        <time>2021-03-30T12:13:57.000Z</time>
      </trkpt>
      <trkpt lat="49.86881" lon="4.75782">
        <ele>319</ele>
        <time>2021-03-30T12:13:58.000Z</time>
      </trkpt>
      <trkpt lat="49.86882" lon="4.75784">
        <ele>319</ele>
        <time>2021-03-30T12:13:59.000Z</time>
      </trkpt>
      <trkpt lat="49.86883" lon="4.75786">
        <ele>318</ele>
        <time>2021-03-30T12:14:00.000Z</time>
      </trkpt>
      <trkpt lat="49.86884" lon="4.75789">
        <ele>318</ele>
        <time>2021-03-30T12:14:01.000Z</time>
      </trkpt>
      <trkpt lat="49.86885" lon="4.75791">
        <ele>318</ele>
        <time>2021-03-30T12:14:02.000Z</time>
      </trkpt>
      <trkpt lat="49.86886" lon="4.75793">
        <ele>318</ele>
        <time>2021-03-30T12:14:03.000Z</time>
      </trkpt>
      <trkpt lat="49.86887" lon="4.75796">
        <ele>318</ele>
        <time>2021-03-30T12:14:04.000Z</time>
      </trkpt>
      <trkpt lat="49.86888" lon="4.75798">
        <ele>318</ele>
        <time>2021-03-30T12:14:05.000Z</time>
      </trkpt>
      <trkpt lat="49.86889" lon="4.758">
        <ele>318</ele>
        <time>2021-03-30T12:14:06.000Z</time>
      </trkpt>
      <trkpt lat="49.86891" lon="4.75802">
        <ele>318</ele>
        <time>2021-03-30T12:14:07.000Z</time>
      </trkpt>
      <trkpt lat="49.86892" lon="4.75805">
        <ele>318</ele>
        <time>2021-03-30T12:14:08.000Z</time>
      </trkpt>
      <trkpt lat="49.86894" lon="4.75807">
        <ele>318</ele>
        <time>2021-03-30T12:14:09.000Z</time>
      </trkpt>
      <trkpt lat="49.86895" lon="4.75809">
        <ele>318</ele>
        <time>2021-03-30T12:14:10.000Z</time>
      </trkpt>
      <trkpt lat="49.86896" lon="4.75812">
        <ele>318</ele>
        <time>2021-03-30T12:14:11.000Z</time>
      </trkpt>
      <trkpt lat="49.86897" lon="4.75815">
        <ele>318</ele>
        <time>2021-03-30T12:14:12.000Z</time>
      </trkpt>
      <trkpt lat="49.86898" lon="4.75817">
        <ele>318</ele>
        <time>2021-03-30T12:14:13.000Z</time>
      </trkpt>
      <trkpt lat="49.86899" lon="4.75819">
        <ele>318</ele>
        <time>2021-03-30T12:14:14.000Z</time>
      </trkpt>
      <trkpt lat="49.86901" lon="4.75822">
        <ele>319</ele>
        <time>2021-03-30T12:14:15.000Z</time>
      </trkpt>
      <trkpt lat="49.86902" lon="4.75824">
        <ele>319</ele>
        <time>2021-03-30T12:14:16.000Z</time>
      </trkpt>
      <trkpt lat="49.86903" lon="4.75827">
        <ele>319</ele>
        <time>2021-03-30T12:14:17.000Z</time>
      </trkpt>
      <trkpt lat="49.86904" lon="4.75829">
        <ele>319</ele>
        <time>2021-03-30T12:14:18.000Z</time>
      </trkpt>
      <trkpt lat="49.86906" lon="4.75832">
        <ele>319</ele>
        <time>2021-03-30T12:14:19.000Z</time>
      </trkpt>
      <trkpt lat="49.86907" lon="4.75834">
        <ele>319</ele>
        <time>2021-03-30T12:14:20.000Z</time>
      </trkpt>
      <trkpt lat="49.86908" lon="4.75837">
        <ele>319</ele>
        <time>2021-03-30T12:14:21.000Z</time>
      </trkpt>
      <trkpt lat="49.86909" lon="4.75839">
        <ele>319</ele>
        <time>2021-03-30T12:14:22.000Z</time>
      </trkpt>
      <trkpt lat="49.8691" lon="4.75841">
        <ele>319</ele>
        <time>2021-03-30T12:14:23.000Z</time>
      </trkpt>
      <trkpt lat="49.86911" lon="4.75843">
        <ele>319</ele>
        <time>2021-03-30T12:14:24.000Z</time>
      </trkpt>
      <trkpt lat="49.86912" lon="4.75845">
        <ele>319</ele>
        <time>2021-03-30T12:14:25.000Z</time>
      </trkpt>
      <trkpt lat="49.86913" lon="4.75848">
        <ele>320</ele>
        <time>2021-03-30T12:14:26.000Z</time>
      </trkpt>
      <trkpt lat="49.86915" lon="4.7585">
        <ele>320</ele>
        <time>2021-03-30T12:14:27.000Z</time>
      </trkpt>
      <trkpt lat="49.86916" lon="4.75853">
        <ele>320</ele>
        <time>2021-03-30T12:14:28.000Z</time>
      </trkpt>
      <trkpt lat="49.86917" lon="4.75857">
        <ele>320</ele>
        <time>2021-03-30T12:14:29.000Z</time>
      </trkpt>
      <trkpt lat="49.86918" lon="4.75859">
        <ele>320</ele>
        <time>2021-03-30T12:14:30.000Z</time>
      </trkpt>
      <trkpt lat="49.8692" lon="4.75862">
        <ele>320</ele>
        <time>2021-03-30T12:14:31.000Z</time>
      </trkpt>
      <trkpt lat="49.86921" lon="4.75865">
        <ele>321</ele>
        <time>2021-03-30T12:14:32.000Z</time>
      </trkpt>
      <trkpt lat="49.86922" lon="4.75868">
        <ele>321</ele>
        <time>2021-03-30T12:14:33.000Z</time>
      </trkpt>
      <trkpt lat="49.86923" lon="4.75871">
        <ele>321</ele>
        <time>2021-03-30T12:14:34.000Z</time>
      </trkpt>
      <trkpt lat="49.86924" lon="4.75873">
        <ele>321</ele>
        <time>2021-03-30T12:14:35.000Z</time>
      </trkpt>
      <trkpt lat="49.86925" lon="4.75877">
        <ele>321</ele>
        <time>2021-03-30T12:14:36.000Z</time>
      </trkpt>
      <trkpt lat="49.86926" lon="4.75879">
        <ele>321</ele>
        <time>2021-03-30T12:14:37.000Z</time>
      </trkpt>
      <trkpt lat="49.86927" lon="4.75882">
        <ele>322</ele>
        <time>2021-03-30T12:14:38.000Z</time>
      </trkpt>
      <trkpt lat="49.86928" lon="4.75886">
        <ele>322</ele>
        <time>2021-03-30T12:14:39.000Z</time>
      </trkpt>
      <trkpt lat="49.86929" lon="4.75889">
        <ele>322</ele>
        <time>2021-03-30T12:14:40.000Z</time>
      </trkpt>
      <trkpt lat="49.8693" lon="4.75893">
        <ele>322</ele>
        <time>2021-03-30T12:14:41.000Z</time>
      </trkpt>
      <trkpt lat="49.86931" lon="4.75896">
        <ele>322</ele>
        <time>2021-03-30T12:14:42.000Z</time>
      </trkpt>
      <trkpt lat="49.86932" lon="4.759">
        <ele>322</ele>
        <time>2021-03-30T12:14:43.000Z</time>
      </trkpt>
      <trkpt lat="49.86933" lon="4.75903">
        <ele>322</ele>
        <time>2021-03-30T12:14:44.000Z</time>
      </trkpt>
      <trkpt lat="49.86935" lon="4.75907">
        <ele>323</ele>
        <time>2021-03-30T12:14:45.000Z</time>
      </trkpt>
      <trkpt lat="49.86936" lon="4.7591">
        <ele>323</ele>
        <time>2021-03-30T12:14:46.000Z</time>
      </trkpt>
      <trkpt lat="49.86937" lon="4.75913">
        <ele>323</ele>
        <time>2021-03-30T12:14:47.000Z</time>
      </trkpt>
      <trkpt lat="49.86938" lon="4.75916">
        <ele>323</ele>
        <time>2021-03-30T12:14:48.000Z</time>
      </trkpt>
      <trkpt lat="49.86939" lon="4.75918">
        <ele>323</ele>
        <time>2021-03-30T12:14:49.000Z</time>
      </trkpt>
      <trkpt lat="49.86939" lon="4.7592">
        <ele>323</ele>
        <time>2021-03-30T12:14:50.000Z</time>
      </trkpt>
      <trkpt lat="49.8694" lon="4.75923">
        <ele>323</ele>
        <time>2021-03-30T12:14:51.000Z</time>
      </trkpt>
      <trkpt lat="49.8694" lon="4.75925">
        <ele>324</ele>
        <time>2021-03-30T12:14:52.000Z</time>
      </trkpt>
      <trkpt lat="49.86941" lon="4.75928">
        <ele>324</ele>
        <time>2021-03-30T12:14:53.000Z</time>
      </trkpt>
      <trkpt lat="49.86941" lon="4.75931">
        <ele>324</ele>
        <time>2021-03-30T12:14:54.000Z</time>
      </trkpt>
      <trkpt lat="49.86942" lon="4.75934">
        <ele>324</ele>
        <time>2021-03-30T12:14:55.000Z</time>
      </trkpt>
      <trkpt lat="49.86943" lon="4.75937">
        <ele>324</ele>
        <time>2021-03-30T12:14:56.000Z</time>
      </trkpt>
      <trkpt lat="49.86944" lon="4.7594">
        <ele>324</ele>
        <time>2021-03-30T12:14:57.000Z</time>
      </trkpt>
      <trkpt lat="49.86945" lon="4.75944">
        <ele>325</ele>
        <time>2021-03-30T12:14:58.000Z</time>
      </trkpt>
      <trkpt lat="49.86945" lon="4.75948">
        <ele>325</ele>
        <time>2021-03-30T12:14:59.000Z</time>
      </trkpt>
      <trkpt lat="49.86945" lon="4.75952">
        <ele>325</ele>
        <time>2021-03-30T12:15:00.000Z</time>
      </trkpt>
      <trkpt lat="49.86946" lon="4.75955">
        <ele>325</ele>
        <time>2021-03-30T12:15:01.000Z</time>
      </trkpt>
      <trkpt lat="49.86946" lon="4.75957">
        <ele>326</ele>
        <time>2021-03-30T12:15:02.000Z</time>
      </trkpt>
      <trkpt lat="49.86946" lon="4.75958">
        <ele>326</ele>
        <time>2021-03-30T12:15:03.000Z</time>
      </trkpt>
      <trkpt lat="49.86946" lon="4.75959">
        <ele>326</ele>
        <time>2021-03-30T12:15:04.000Z</time>
      </trkpt>
      <trkpt lat="49.86946" lon="4.75959">
        <ele>326</ele>
        <time>2021-03-30T12:15:05.000Z</time>
      </trkpt>
      <trkpt lat="49.86946" lon="4.7596">
        <ele>326</ele>
        <time>2021-03-30T12:15:06.000Z</time>
      </trkpt>
      <trkpt lat="49.86946" lon="4.75962">
        <ele>326</ele>
        <time>2021-03-30T12:15:07.000Z</time>
      </trkpt>
      <trkpt lat="49.86946" lon="4.75962">
        <ele>326</ele>
        <time>2021-03-30T12:15:08.000Z</time>
      </trkpt>
      <trkpt lat="49.86946" lon="4.75964">
        <ele>326</ele>
        <time>2021-03-30T12:15:09.000Z</time>
      </trkpt>
      <trkpt lat="49.86946" lon="4.75965">
        <ele>326</ele>
        <time>2021-03-30T12:15:10.000Z</time>
      </trkpt>
      <trkpt lat="49.86947" lon="4.75967">
        <ele>327</ele>
        <time>2021-03-30T12:15:11.000Z</time>
      </trkpt>
      <trkpt lat="49.86948" lon="4.75969">
        <ele>327</ele>
        <time>2021-03-30T12:15:12.000Z</time>
      </trkpt>
      <trkpt lat="49.86949" lon="4.7597">
        <ele>327</ele>
        <time>2021-03-30T12:15:13.000Z</time>
      </trkpt>
      <trkpt lat="49.8695" lon="4.75972">
        <ele>327</ele>
        <time>2021-03-30T12:15:14.000Z</time>
      </trkpt>
      <trkpt lat="49.8695" lon="4.75973">
        <ele>328</ele>
        <time>2021-03-30T12:15:15.000Z</time>
      </trkpt>
      <trkpt lat="49.86951" lon="4.75975">
        <ele>328</ele>
        <time>2021-03-30T12:15:16.000Z</time>
      </trkpt>
      <trkpt lat="49.86951" lon="4.75976">
        <ele>328</ele>
        <time>2021-03-30T12:15:17.000Z</time>
      </trkpt>
      <trkpt lat="49.86952" lon="4.75978">
        <ele>328</ele>
        <time>2021-03-30T12:15:18.000Z</time>
      </trkpt>
      <trkpt lat="49.86952" lon="4.7598">
        <ele>328</ele>
        <time>2021-03-30T12:15:19.000Z</time>
      </trkpt>
      <trkpt lat="49.86953" lon="4.75981">
        <ele>328</ele>
        <time>2021-03-30T12:15:20.000Z</time>
      </trkpt>
      <trkpt lat="49.86954" lon="4.75982">
        <ele>329</ele>
        <time>2021-03-30T12:15:21.000Z</time>
      </trkpt>
      <trkpt lat="49.86955" lon="4.75982">
        <ele>329</ele>
        <time>2021-03-30T12:15:22.000Z</time>
      </trkpt>
      <trkpt lat="49.86955" lon="4.75982">
        <ele>329</ele>
        <time>2021-03-30T12:15:23.000Z</time>
      </trkpt>
      <trkpt lat="49.86956" lon="4.75983">
        <ele>329</ele>
        <time>2021-03-30T12:15:24.000Z</time>
      </trkpt>
      <trkpt lat="49.86956" lon="4.75983">
        <ele>329</ele>
        <time>2021-03-30T12:15:25.000Z</time>
      </trkpt>
      <trkpt lat="49.86957" lon="4.75983">
        <ele>330</ele>
        <time>2021-03-30T12:15:26.000Z</time>
      </trkpt>
      <trkpt lat="49.86957" lon="4.75984">
        <ele>330</ele>
        <time>2021-03-30T12:15:27.000Z</time>
      </trkpt>
      <trkpt lat="49.86957" lon="4.75985">
        <ele>330</ele>
        <time>2021-03-30T12:15:28.000Z</time>
      </trkpt>
      <trkpt lat="49.86957" lon="4.75986">
        <ele>330</ele>
        <time>2021-03-30T12:15:29.000Z</time>
      </trkpt>
      <trkpt lat="49.86957" lon="4.75986">
        <ele>330</ele>
        <time>2021-03-30T12:15:30.000Z</time>
      </trkpt>
      <trkpt lat="49.86957" lon="4.75986">
        <ele>330</ele>
        <time>2021-03-30T12:15:31.000Z</time>
      </trkpt>
      <trkpt lat="49.86957" lon="4.75987">
        <ele>330</ele>
        <time>2021-03-30T12:15:32.000Z</time>
      </trkpt>
      <trkpt lat="49.86957" lon="4.75987">
        <ele>330</ele>
        <time>2021-03-30T12:15:33.000Z</time>
      </trkpt>
      <trkpt lat="49.86956" lon="4.75987">
        <ele>330</ele>
        <time>2021-03-30T12:15:34.000Z</time>
      </trkpt>
      <trkpt lat="49.86956" lon="4.75987">
        <ele>330</ele>
        <time>2021-03-30T12:15:35.000Z</time>
      </trkpt>
      <trkpt lat="49.86955" lon="4.75986">
        <ele>330</ele>
        <time>2021-03-30T12:15:36.000Z</time>
      </trkpt>
      <trkpt lat="49.86955" lon="4.75986">
        <ele>330</ele>
        <time>2021-03-30T12:15:37.000Z</time>
      </trkpt>
      <trkpt lat="49.86955" lon="4.75985">
        <ele>330</ele>
        <time>2021-03-30T12:15:38.000Z</time>
      </trkpt>
      <trkpt lat="49.86954" lon="4.75984">
        <ele>330</ele>
        <time>2021-03-30T12:15:39.000Z</time>
      </trkpt>
      <trkpt lat="49.86954" lon="4.75984">
        <ele>330</ele>
        <time>2021-03-30T12:15:40.000Z</time>
      </trkpt>
      <trkpt lat="49.86953" lon="4.75983">
        <ele>329</ele>
        <time>2021-03-30T12:15:41.000Z</time>
      </trkpt>
      <trkpt lat="49.86952" lon="4.75982">
        <ele>329</ele>
        <time>2021-03-30T12:15:42.000Z</time>
      </trkpt>
      <trkpt lat="49.86952" lon="4.75981">
        <ele>329</ele>
        <time>2021-03-30T12:15:43.000Z</time>
      </trkpt>
      <trkpt lat="49.86951" lon="4.75979">
        <ele>328</ele>
        <time>2021-03-30T12:15:44.000Z</time>
      </trkpt>
      <trkpt lat="49.86951" lon="4.75976">
        <ele>328</ele>
        <time>2021-03-30T12:15:45.000Z</time>
      </trkpt>
      <trkpt lat="49.8695" lon="4.75975">
        <ele>328</ele>
        <time>2021-03-30T12:15:46.000Z</time>
      </trkpt>
      <trkpt lat="49.86949" lon="4.75974">
        <ele>327</ele>
        <time>2021-03-30T12:15:47.000Z</time>
      </trkpt>
      <trkpt lat="49.86948" lon="4.75972">
        <ele>327</ele>
        <time>2021-03-30T12:15:48.000Z</time>
      </trkpt>
      <trkpt lat="49.86947" lon="4.7597">
        <ele>327</ele>
        <time>2021-03-30T12:15:49.000Z</time>
      </trkpt>
      <trkpt lat="49.86947" lon="4.75968">
        <ele>327</ele>
        <time>2021-03-30T12:15:50.000Z</time>
      </trkpt>
      <trkpt lat="49.86946" lon="4.75967">
        <ele>327</ele>
        <time>2021-03-30T12:15:51.000Z</time>
      </trkpt>
      <trkpt lat="49.86945" lon="4.75966">
        <ele>327</ele>
        <time>2021-03-30T12:15:52.000Z</time>
      </trkpt>
      <trkpt lat="49.86945" lon="4.75966">
        <ele>327</ele>
        <time>2021-03-30T12:15:53.000Z</time>
      </trkpt>
      <trkpt lat="49.86945" lon="4.75966">
        <ele>327</ele>
        <time>2021-03-30T12:15:54.000Z</time>
      </trkpt>
      <trkpt lat="49.86945" lon="4.75966">
        <ele>327</ele>
        <time>2021-03-30T12:15:55.000Z</time>
      </trkpt>
      <trkpt lat="49.86944" lon="4.75967">
        <ele>327</ele>
        <time>2021-03-30T12:15:56.000Z</time>
      </trkpt>
      <trkpt lat="49.86943" lon="4.75967">
        <ele>327</ele>
        <time>2021-03-30T12:15:57.000Z</time>
      </trkpt>
      <trkpt lat="49.86943" lon="4.75967">
        <ele>326</ele>
        <time>2021-03-30T12:15:58.000Z</time>
      </trkpt>
      <trkpt lat="49.86942" lon="4.75968">
        <ele>326</ele>
        <time>2021-03-30T12:15:59.000Z</time>
      </trkpt>
      <trkpt lat="49.86942" lon="4.75969">
        <ele>326</ele>
        <time>2021-03-30T12:16:00.000Z</time>
      </trkpt>
      <trkpt lat="49.86941" lon="4.7597">
        <ele>326</ele>
        <time>2021-03-30T12:16:01.000Z</time>
      </trkpt>
      <trkpt lat="49.8694" lon="4.75972">
        <ele>326</ele>
        <time>2021-03-30T12:16:02.000Z</time>
      </trkpt>
      <trkpt lat="49.8694" lon="4.75973">
        <ele>326</ele>
        <time>2021-03-30T12:16:03.000Z</time>
      </trkpt>
      <trkpt lat="49.8694" lon="4.75974">
        <ele>326</ele>
        <time>2021-03-30T12:16:04.000Z</time>
      </trkpt>
      <trkpt lat="49.86939" lon="4.75976">
        <ele>326</ele>
        <time>2021-03-30T12:16:05.000Z</time>
      </trkpt>
      <trkpt lat="49.86939" lon="4.75977">
        <ele>326</ele>
        <time>2021-03-30T12:16:06.000Z</time>
      </trkpt>
      <trkpt lat="49.8694" lon="4.75978">
        <ele>326</ele>
        <time>2021-03-30T12:16:07.000Z</time>
      </trkpt>
      <trkpt lat="49.86939" lon="4.75979">
        <ele>326</ele>
        <time>2021-03-30T12:16:08.000Z</time>
      </trkpt>
      <trkpt lat="49.86939" lon="4.7598">
        <ele>326</ele>
        <time>2021-03-30T12:16:09.000Z</time>
      </trkpt>
      <trkpt lat="49.86939" lon="4.75982">
        <ele>326</ele>
        <time>2021-03-30T12:16:10.000Z</time>
      </trkpt>
      <trkpt lat="49.86939" lon="4.75983">
        <ele>326</ele>
        <time>2021-03-30T12:16:11.000Z</time>
      </trkpt>
      <trkpt lat="49.86939" lon="4.75985">
        <ele>326</ele>
        <time>2021-03-30T12:16:12.000Z</time>
      </trkpt>
      <trkpt lat="49.86937" lon="4.75988">
        <ele>326</ele>
        <time>2021-03-30T12:16:13.000Z</time>
      </trkpt>
      <trkpt lat="49.86937" lon="4.75991">
        <ele>326</ele>
        <time>2021-03-30T12:16:14.000Z</time>
      </trkpt>
      <trkpt lat="49.86937" lon="4.75994">
        <ele>326</ele>
        <time>2021-03-30T12:16:15.000Z</time>
      </trkpt>
      <trkpt lat="49.86937" lon="4.75997">
        <ele>326</ele>
        <time>2021-03-30T12:16:16.000Z</time>
      </trkpt>
      <trkpt lat="49.86937" lon="4.75999">
        <ele>326</ele>
        <time>2021-03-30T12:16:17.000Z</time>
      </trkpt>
      <trkpt lat="49.86938" lon="4.76">
        <ele>326</ele>
        <time>2021-03-30T12:16:18.000Z</time>
      </trkpt>
      <trkpt lat="49.86938" lon="4.76">
        <ele>326</ele>
        <time>2021-03-30T12:16:19.000Z</time>
      </trkpt>
      <trkpt lat="49.86938" lon="4.76001">
        <ele>326</ele>
        <time>2021-03-30T12:16:20.000Z</time>
      </trkpt>
      <trkpt lat="49.86939" lon="4.76001">
        <ele>326</ele>
        <time>2021-03-30T12:16:21.000Z</time>
      </trkpt>
      <trkpt lat="49.86939" lon="4.76002">
        <ele>326</ele>
        <time>2021-03-30T12:16:22.000Z</time>
      </trkpt>
      <trkpt lat="49.86939" lon="4.76003">
        <ele>326</ele>
        <time>2021-03-30T12:16:23.000Z</time>
      </trkpt>
      <trkpt lat="49.8694" lon="4.76004">
        <ele>326</ele>
        <time>2021-03-30T12:16:24.000Z</time>
      </trkpt>
      <trkpt lat="49.8694" lon="4.76005">
        <ele>326</ele>
        <time>2021-03-30T12:16:25.000Z</time>
      </trkpt>
      <trkpt lat="49.8694" lon="4.76006">
        <ele>326</ele>
        <time>2021-03-30T12:16:26.000Z</time>
      </trkpt>
      <trkpt lat="49.8694" lon="4.76006">
        <ele>326</ele>
        <time>2021-03-30T12:16:27.000Z</time>
      </trkpt>
      <trkpt lat="49.8694" lon="4.76006">
        <ele>326</ele>
        <time>2021-03-30T12:16:28.000Z</time>
      </trkpt>
      <trkpt lat="49.8694" lon="4.76009">
        <ele>326</ele>
        <time>2021-03-30T12:16:29.000Z</time>
      </trkpt>
      <trkpt lat="49.86941" lon="4.76013">
        <ele>326</ele>
        <time>2021-03-30T12:16:30.000Z</time>
      </trkpt>
      <trkpt lat="49.86941" lon="4.76018">
        <ele>326</ele>
        <time>2021-03-30T12:16:31.000Z</time>
      </trkpt>
      <trkpt lat="49.86942" lon="4.76024">
        <ele>326</ele>
        <time>2021-03-30T12:16:32.000Z</time>
      </trkpt>
      <trkpt lat="49.86943" lon="4.76029">
        <ele>326</ele>
        <time>2021-03-30T12:16:33.000Z</time>
      </trkpt>
      <trkpt lat="49.86944" lon="4.76034">
        <ele>326</ele>
        <time>2021-03-30T12:16:34.000Z</time>
      </trkpt>
      <trkpt lat="49.86945" lon="4.76038">
        <ele>326</ele>
        <time>2021-03-30T12:16:35.000Z</time>
      </trkpt>
      <trkpt lat="49.86946" lon="4.76043">
        <ele>326</ele>
        <time>2021-03-30T12:16:36.000Z</time>
      </trkpt>
      <trkpt lat="49.86948" lon="4.76048">
        <ele>326</ele>
        <time>2021-03-30T12:16:37.000Z</time>
      </trkpt>
      <trkpt lat="49.86949" lon="4.76052">
        <ele>325</ele>
        <time>2021-03-30T12:16:38.000Z</time>
      </trkpt>
      <trkpt lat="49.86951" lon="4.76056">
        <ele>325</ele>
        <time>2021-03-30T12:16:39.000Z</time>
      </trkpt>
      <trkpt lat="49.86951" lon="4.7606">
        <ele>325</ele>
        <time>2021-03-30T12:16:40.000Z</time>
      </trkpt>
      <trkpt lat="49.86952" lon="4.76065">
        <ele>325</ele>
        <time>2021-03-30T12:16:41.000Z</time>
      </trkpt>
      <trkpt lat="49.86953" lon="4.7607">
        <ele>325</ele>
        <time>2021-03-30T12:16:42.000Z</time>
      </trkpt>
      <trkpt lat="49.86954" lon="4.76075">
        <ele>325</ele>
        <time>2021-03-30T12:16:43.000Z</time>
      </trkpt>
      <trkpt lat="49.86954" lon="4.76081">
        <ele>325</ele>
        <time>2021-03-30T12:16:44.000Z</time>
      </trkpt>
      <trkpt lat="49.86954" lon="4.76087">
        <ele>325</ele>
        <time>2021-03-30T12:16:45.000Z</time>
      </trkpt>
      <trkpt lat="49.86954" lon="4.76095">
        <ele>324</ele>
        <time>2021-03-30T12:16:46.000Z</time>
      </trkpt>
      <trkpt lat="49.86954" lon="4.76103">
        <ele>324</ele>
        <time>2021-03-30T12:16:47.000Z</time>
      </trkpt>
      <trkpt lat="49.86954" lon="4.76111">
        <ele>324</ele>
        <time>2021-03-30T12:16:48.000Z</time>
      </trkpt>
      <trkpt lat="49.86953" lon="4.76119">
        <ele>324</ele>
        <time>2021-03-30T12:16:49.000Z</time>
      </trkpt>
      <trkpt lat="49.86953" lon="4.76126">
        <ele>323</ele>
        <time>2021-03-30T12:16:50.000Z</time>
      </trkpt>
      <trkpt lat="49.86953" lon="4.76132">
        <ele>323</ele>
        <time>2021-03-30T12:16:51.000Z</time>
      </trkpt>
      <trkpt lat="49.86952" lon="4.76137">
        <ele>323</ele>
        <time>2021-03-30T12:16:52.000Z</time>
      </trkpt>
      <trkpt lat="49.86953" lon="4.76144">
        <ele>323</ele>
        <time>2021-03-30T12:16:53.000Z</time>
      </trkpt>
      <trkpt lat="49.86953" lon="4.7615">
        <ele>322</ele>
        <time>2021-03-30T12:16:54.000Z</time>
      </trkpt>
      <trkpt lat="49.86952" lon="4.76157">
        <ele>322</ele>
        <time>2021-03-30T12:16:55.000Z</time>
      </trkpt>
      <trkpt lat="49.86953" lon="4.76163">
        <ele>322</ele>
        <time>2021-03-30T12:16:56.000Z</time>
      </trkpt>
      <trkpt lat="49.86953" lon="4.7617">
        <ele>322</ele>
        <time>2021-03-30T12:16:57.000Z</time>
      </trkpt>
      <trkpt lat="49.86953" lon="4.76176">
        <ele>322</ele>
        <time>2021-03-30T12:16:58.000Z</time>
      </trkpt>
      <trkpt lat="49.86954" lon="4.76181">
        <ele>321</ele>
        <time>2021-03-30T12:16:59.000Z</time>
      </trkpt>
      <trkpt lat="49.86954" lon="4.76186">
        <ele>321</ele>
        <time>2021-03-30T12:17:00.000Z</time>
      </trkpt>
      <trkpt lat="49.86954" lon="4.76192">
        <ele>321</ele>
        <time>2021-03-30T12:17:01.000Z</time>
      </trkpt>
      <trkpt lat="49.86954" lon="4.76198">
        <ele>320</ele>
        <time>2021-03-30T12:17:02.000Z</time>
      </trkpt>
      <trkpt lat="49.86955" lon="4.76204">
        <ele>320</ele>
        <time>2021-03-30T12:17:03.000Z</time>
      </trkpt>
      <trkpt lat="49.86956" lon="4.76211">
        <ele>320</ele>
        <time>2021-03-30T12:17:04.000Z</time>
      </trkpt>
      <trkpt lat="49.86956" lon="4.76219">
        <ele>319</ele>
        <time>2021-03-30T12:17:05.000Z</time>
      </trkpt>
      <trkpt lat="49.86956" lon="4.76227">
        <ele>319</ele>
        <time>2021-03-30T12:17:06.000Z</time>
      </trkpt>
      <trkpt lat="49.86956" lon="4.76234">
        <ele>318</ele>
        <time>2021-03-30T12:17:07.000Z</time>
      </trkpt>
      <trkpt lat="49.86955" lon="4.76239">
        <ele>318</ele>
        <time>2021-03-30T12:17:08.000Z</time>
      </trkpt>
      <trkpt lat="49.86955" lon="4.76242">
        <ele>318</ele>
        <time>2021-03-30T12:17:09.000Z</time>
      </trkpt>
      <trkpt lat="49.86954" lon="4.76244">
        <ele>317</ele>
        <time>2021-03-30T12:17:10.000Z</time>
      </trkpt>
      <trkpt lat="49.86954" lon="4.76247">
        <ele>317</ele>
        <time>2021-03-30T12:17:11.000Z</time>
      </trkpt>
      <trkpt lat="49.86953" lon="4.76249">
        <ele>317</ele>
        <time>2021-03-30T12:17:12.000Z</time>
      </trkpt>
      <trkpt lat="49.86953" lon="4.76252">
        <ele>317</ele>
        <time>2021-03-30T12:17:13.000Z</time>
      </trkpt>
      <trkpt lat="49.86952" lon="4.76253">
        <ele>316</ele>
        <time>2021-03-30T12:17:14.000Z</time>
      </trkpt>
      <trkpt lat="49.86951" lon="4.76255">
        <ele>316</ele>
        <time>2021-03-30T12:17:15.000Z</time>
      </trkpt>
      <trkpt lat="49.8695" lon="4.76256">
        <ele>316</ele>
        <time>2021-03-30T12:17:16.000Z</time>
      </trkpt>
      <trkpt lat="49.8695" lon="4.76257">
        <ele>315</ele>
        <time>2021-03-30T12:17:17.000Z</time>
      </trkpt>
      <trkpt lat="49.8695" lon="4.76259">
        <ele>315</ele>
        <time>2021-03-30T12:17:18.000Z</time>
      </trkpt>
      <trkpt lat="49.8695" lon="4.76263">
        <ele>315</ele>
        <time>2021-03-30T12:17:19.000Z</time>
      </trkpt>
      <trkpt lat="49.8695" lon="4.76268">
        <ele>315</ele>
        <time>2021-03-30T12:17:20.000Z</time>
      </trkpt>
      <trkpt lat="49.86951" lon="4.76272">
        <ele>315</ele>
        <time>2021-03-30T12:17:21.000Z</time>
      </trkpt>
      <trkpt lat="49.86952" lon="4.76276">
        <ele>314</ele>
        <time>2021-03-30T12:17:22.000Z</time>
      </trkpt>
      <trkpt lat="49.86954" lon="4.7628">
        <ele>314</ele>
        <time>2021-03-30T12:17:23.000Z</time>
      </trkpt>
      <trkpt lat="49.86956" lon="4.76283">
        <ele>314</ele>
        <time>2021-03-30T12:17:24.000Z</time>
      </trkpt>
      <trkpt lat="49.86958" lon="4.76287">
        <ele>314</ele>
        <time>2021-03-30T12:17:25.000Z</time>
      </trkpt>
      <trkpt lat="49.86959" lon="4.7629">
        <ele>313</ele>
        <time>2021-03-30T12:17:26.000Z</time>
      </trkpt>
      <trkpt lat="49.8696" lon="4.76292">
        <ele>313</ele>
        <time>2021-03-30T12:17:27.000Z</time>
      </trkpt>
      <trkpt lat="49.86962" lon="4.76295">
        <ele>313</ele>
        <time>2021-03-30T12:17:28.000Z</time>
      </trkpt>
      <trkpt lat="49.86964" lon="4.76297">
        <ele>313</ele>
        <time>2021-03-30T12:17:29.000Z</time>
      </trkpt>
      <trkpt lat="49.86966" lon="4.76298">
        <ele>312</ele>
        <time>2021-03-30T12:17:30.000Z</time>
      </trkpt>
      <trkpt lat="49.86968" lon="4.763">
        <ele>312</ele>
        <time>2021-03-30T12:17:31.000Z</time>
      </trkpt>
      <trkpt lat="49.8697" lon="4.76303">
        <ele>312</ele>
        <time>2021-03-30T12:17:32.000Z</time>
      </trkpt>
      <trkpt lat="49.86971" lon="4.76308">
        <ele>312</ele>
        <time>2021-03-30T12:17:33.000Z</time>
      </trkpt>
      <trkpt lat="49.86971" lon="4.76312">
        <ele>312</ele>
        <time>2021-03-30T12:17:34.000Z</time>
      </trkpt>
      <trkpt lat="49.86971" lon="4.76318">
        <ele>311</ele>
        <time>2021-03-30T12:17:35.000Z</time>
      </trkpt>
      <trkpt lat="49.8697" lon="4.76324">
        <ele>311</ele>
        <time>2021-03-30T12:17:36.000Z</time>
      </trkpt>
      <trkpt lat="49.86969" lon="4.76331">
        <ele>311</ele>
        <time>2021-03-30T12:17:37.000Z</time>
      </trkpt>
      <trkpt lat="49.86967" lon="4.76339">
        <ele>311</ele>
        <time>2021-03-30T12:17:38.000Z</time>
      </trkpt>
      <trkpt lat="49.86965" lon="4.76348">
        <ele>310</ele>
        <time>2021-03-30T12:17:39.000Z</time>
      </trkpt>
      <trkpt lat="49.86964" lon="4.76358">
        <ele>310</ele>
        <time>2021-03-30T12:17:40.000Z</time>
      </trkpt>
      <trkpt lat="49.86964" lon="4.76368">
        <ele>310</ele>
        <time>2021-03-30T12:17:41.000Z</time>
      </trkpt>
      <trkpt lat="49.86963" lon="4.76378">
        <ele>309</ele>
        <time>2021-03-30T12:17:42.000Z</time>
      </trkpt>
      <trkpt lat="49.86963" lon="4.76387">
        <ele>309</ele>
        <time>2021-03-30T12:17:43.000Z</time>
      </trkpt>
      <trkpt lat="49.86963" lon="4.76394">
        <ele>308</ele>
        <time>2021-03-30T12:17:44.000Z</time>
      </trkpt>
      <trkpt lat="49.86963" lon="4.76401">
        <ele>308</ele>
        <time>2021-03-30T12:17:45.000Z</time>
      </trkpt>
      <trkpt lat="49.86964" lon="4.7641">
        <ele>307</ele>
        <time>2021-03-30T12:17:46.000Z</time>
      </trkpt>
      <trkpt lat="49.86964" lon="4.76419">
        <ele>306</ele>
        <time>2021-03-30T12:17:47.000Z</time>
      </trkpt>
      <trkpt lat="49.86965" lon="4.76429">
        <ele>306</ele>
        <time>2021-03-30T12:17:48.000Z</time>
      </trkpt>
      <trkpt lat="49.86965" lon="4.76439">
        <ele>305</ele>
        <time>2021-03-30T12:17:49.000Z</time>
      </trkpt>
      <trkpt lat="49.86965" lon="4.7645">
        <ele>305</ele>
        <time>2021-03-30T12:17:50.000Z</time>
      </trkpt>
      <trkpt lat="49.86965" lon="4.76461">
        <ele>304</ele>
        <time>2021-03-30T12:17:51.000Z</time>
      </trkpt>
      <trkpt lat="49.86965" lon="4.76471">
        <ele>304</ele>
        <time>2021-03-30T12:17:52.000Z</time>
      </trkpt>
      <trkpt lat="49.86966" lon="4.76481">
        <ele>303</ele>
        <time>2021-03-30T12:17:53.000Z</time>
      </trkpt>
      <trkpt lat="49.86967" lon="4.76492">
        <ele>302</ele>
        <time>2021-03-30T12:17:54.000Z</time>
      </trkpt>
      <trkpt lat="49.86968" lon="4.76502">
        <ele>302</ele>
        <time>2021-03-30T12:17:55.000Z</time>
      </trkpt>
      <trkpt lat="49.86968" lon="4.76512">
        <ele>301</ele>
        <time>2021-03-30T12:17:56.000Z</time>
      </trkpt>
      <trkpt lat="49.86969" lon="4.76521">
        <ele>301</ele>
        <time>2021-03-30T12:17:57.000Z</time>
      </trkpt>
      <trkpt lat="49.86969" lon="4.76529">
        <ele>300</ele>
        <time>2021-03-30T12:17:58.000Z</time>
      </trkpt>
      <trkpt lat="49.86969" lon="4.76536">
        <ele>300</ele>
        <time>2021-03-30T12:17:59.000Z</time>
      </trkpt>
      <trkpt lat="49.8697" lon="4.76542">
        <ele>299</ele>
        <time>2021-03-30T12:18:00.000Z</time>
      </trkpt>
      <trkpt lat="49.86969" lon="4.76549">
        <ele>299</ele>
        <time>2021-03-30T12:18:01.000Z</time>
      </trkpt>
      <trkpt lat="49.86969" lon="4.76555">
        <ele>299</ele>
        <time>2021-03-30T12:18:02.000Z</time>
      </trkpt>
      <trkpt lat="49.86967" lon="4.76562">
        <ele>298</ele>
        <time>2021-03-30T12:18:03.000Z</time>
      </trkpt>
      <trkpt lat="49.86965" lon="4.76568">
        <ele>298</ele>
        <time>2021-03-30T12:18:04.000Z</time>
      </trkpt>
      <trkpt lat="49.86963" lon="4.76574">
        <ele>298</ele>
        <time>2021-03-30T12:18:05.000Z</time>
      </trkpt>
      <trkpt lat="49.8696" lon="4.76579">
        <ele>297</ele>
        <time>2021-03-30T12:18:06.000Z</time>
      </trkpt>
      <trkpt lat="49.86957" lon="4.76584">
        <ele>297</ele>
        <time>2021-03-30T12:18:07.000Z</time>
      </trkpt>
      <trkpt lat="49.86954" lon="4.7659">
        <ele>296</ele>
        <time>2021-03-30T12:18:08.000Z</time>
      </trkpt>
      <trkpt lat="49.8695" lon="4.76596">
        <ele>296</ele>
        <time>2021-03-30T12:18:09.000Z</time>
      </trkpt>
      <trkpt lat="49.86947" lon="4.76602">
        <ele>296</ele>
        <time>2021-03-30T12:18:10.000Z</time>
      </trkpt>
      <trkpt lat="49.86943" lon="4.76607">
        <ele>295</ele>
        <time>2021-03-30T12:18:11.000Z</time>
      </trkpt>
      <trkpt lat="49.86941" lon="4.76611">
        <ele>295</ele>
        <time>2021-03-30T12:18:12.000Z</time>
      </trkpt>
      <trkpt lat="49.86938" lon="4.76615">
        <ele>294</ele>
        <time>2021-03-30T12:18:13.000Z</time>
      </trkpt>
      <trkpt lat="49.86935" lon="4.76619">
        <ele>294</ele>
        <time>2021-03-30T12:18:14.000Z</time>
      </trkpt>
      <trkpt lat="49.86933" lon="4.76621">
        <ele>294</ele>
        <time>2021-03-30T12:18:15.000Z</time>
      </trkpt>
      <trkpt lat="49.86931" lon="4.76623">
        <ele>293</ele>
        <time>2021-03-30T12:18:16.000Z</time>
      </trkpt>
      <trkpt lat="49.8693" lon="4.76624">
        <ele>293</ele>
        <time>2021-03-30T12:18:17.000Z</time>
      </trkpt>
      <trkpt lat="49.86929" lon="4.76626">
        <ele>293</ele>
        <time>2021-03-30T12:18:18.000Z</time>
      </trkpt>
      <trkpt lat="49.86927" lon="4.76627">
        <ele>293</ele>
        <time>2021-03-30T12:18:19.000Z</time>
      </trkpt>
      <trkpt lat="49.86926" lon="4.76627">
        <ele>292</ele>
        <time>2021-03-30T12:18:20.000Z</time>
      </trkpt>
      <trkpt lat="49.86925" lon="4.76627">
        <ele>292</ele>
        <time>2021-03-30T12:18:21.000Z</time>
      </trkpt>
      <trkpt lat="49.86925" lon="4.76627">
        <ele>292</ele>
        <time>2021-03-30T12:18:22.000Z</time>
      </trkpt>
      <trkpt lat="49.86924" lon="4.76628">
        <ele>292</ele>
        <time>2021-03-30T12:18:23.000Z</time>
      </trkpt>
      <trkpt lat="49.86924" lon="4.76627">
        <ele>291</ele>
        <time>2021-03-30T12:18:24.000Z</time>
      </trkpt>
      <trkpt lat="49.86924" lon="4.76627">
        <ele>291</ele>
        <time>2021-03-30T12:18:25.000Z</time>
      </trkpt>
      <trkpt lat="49.86924" lon="4.76626">
        <ele>291</ele>
        <time>2021-03-30T12:18:26.000Z</time>
      </trkpt>
      <trkpt lat="49.86924" lon="4.76626">
        <ele>291</ele>
        <time>2021-03-30T12:18:27.000Z</time>
      </trkpt>
      <trkpt lat="49.86924" lon="4.76625">
        <ele>290</ele>
        <time>2021-03-30T12:18:28.000Z</time>
      </trkpt>
      <trkpt lat="49.86924" lon="4.76625">
        <ele>290</ele>
        <time>2021-03-30T12:18:29.000Z</time>
      </trkpt>
      <trkpt lat="49.86923" lon="4.76624">
        <ele>289</ele>
        <time>2021-03-30T12:18:30.000Z</time>
      </trkpt>
      <trkpt lat="49.86923" lon="4.76622">
        <ele>289</ele>
        <time>2021-03-30T12:18:31.000Z</time>
      </trkpt>
      <trkpt lat="49.86922" lon="4.7662">
        <ele>288</ele>
        <time>2021-03-30T12:18:32.000Z</time>
      </trkpt>
      <trkpt lat="49.86921" lon="4.76618">
        <ele>288</ele>
        <time>2021-03-30T12:18:33.000Z</time>
      </trkpt>
      <trkpt lat="49.8692" lon="4.76615">
        <ele>287</ele>
        <time>2021-03-30T12:18:34.000Z</time>
      </trkpt>
      <trkpt lat="49.86919" lon="4.76613">
        <ele>287</ele>
        <time>2021-03-30T12:18:35.000Z</time>
      </trkpt>
      <trkpt lat="49.86916" lon="4.7661">
        <ele>286</ele>
        <time>2021-03-30T12:18:36.000Z</time>
      </trkpt>
      <trkpt lat="49.86915" lon="4.76606">
        <ele>286</ele>
        <time>2021-03-30T12:18:37.000Z</time>
      </trkpt>
      <trkpt lat="49.86913" lon="4.76603">
        <ele>285</ele>
        <time>2021-03-30T12:18:38.000Z</time>
      </trkpt>
      <trkpt lat="49.8691" lon="4.766">
        <ele>285</ele>
        <time>2021-03-30T12:18:39.000Z</time>
      </trkpt>
      <trkpt lat="49.86908" lon="4.76597">
        <ele>284</ele>
        <time>2021-03-30T12:18:40.000Z</time>
      </trkpt>
      <trkpt lat="49.86904" lon="4.76593">
        <ele>283</ele>
        <time>2021-03-30T12:18:41.000Z</time>
      </trkpt>
      <trkpt lat="49.86901" lon="4.76589">
        <ele>283</ele>
        <time>2021-03-30T12:18:42.000Z</time>
      </trkpt>
      <trkpt lat="49.86899" lon="4.76586">
        <ele>282</ele>
        <time>2021-03-30T12:18:43.000Z</time>
      </trkpt>
      <trkpt lat="49.86897" lon="4.76582">
        <ele>282</ele>
        <time>2021-03-30T12:18:44.000Z</time>
      </trkpt>
      <trkpt lat="49.86895" lon="4.76581">
        <ele>281</ele>
        <time>2021-03-30T12:18:45.000Z</time>
      </trkpt>
      <trkpt lat="49.86894" lon="4.76581">
        <ele>281</ele>
        <time>2021-03-30T12:18:46.000Z</time>
      </trkpt>
      <trkpt lat="49.86893" lon="4.76582">
        <ele>280</ele>
        <time>2021-03-30T12:18:47.000Z</time>
      </trkpt>
      <trkpt lat="49.86892" lon="4.76584">
        <ele>280</ele>
        <time>2021-03-30T12:18:48.000Z</time>
      </trkpt>
      <trkpt lat="49.86892" lon="4.76585">
        <ele>279</ele>
        <time>2021-03-30T12:18:49.000Z</time>
      </trkpt>
      <trkpt lat="49.86892" lon="4.76587">
        <ele>279</ele>
        <time>2021-03-30T12:18:50.000Z</time>
      </trkpt>
      <trkpt lat="49.86892" lon="4.76589">
        <ele>279</ele>
        <time>2021-03-30T12:18:51.000Z</time>
      </trkpt>
      <trkpt lat="49.86893" lon="4.76591">
        <ele>278</ele>
        <time>2021-03-30T12:18:52.000Z</time>
      </trkpt>
      <trkpt lat="49.86893" lon="4.76594">
        <ele>278</ele>
        <time>2021-03-30T12:18:53.000Z</time>
      </trkpt>
      <trkpt lat="49.86894" lon="4.76596">
        <ele>278</ele>
        <time>2021-03-30T12:18:54.000Z</time>
      </trkpt>
      <trkpt lat="49.86895" lon="4.766">
        <ele>278</ele>
        <time>2021-03-30T12:18:55.000Z</time>
      </trkpt>
      <trkpt lat="49.86895" lon="4.76603">
        <ele>277</ele>
        <time>2021-03-30T12:18:56.000Z</time>
      </trkpt>
      <trkpt lat="49.86896" lon="4.76606">
        <ele>277</ele>
        <time>2021-03-30T12:18:57.000Z</time>
      </trkpt>
      <trkpt lat="49.86896" lon="4.76609">
        <ele>277</ele>
        <time>2021-03-30T12:18:58.000Z</time>
      </trkpt>
      <trkpt lat="49.86897" lon="4.76612">
        <ele>277</ele>
        <time>2021-03-30T12:18:59.000Z</time>
      </trkpt>
      <trkpt lat="49.86899" lon="4.76616">
        <ele>276</ele>
        <time>2021-03-30T12:19:00.000Z</time>
      </trkpt>
      <trkpt lat="49.86899" lon="4.76619">
        <ele>276</ele>
        <time>2021-03-30T12:19:01.000Z</time>
      </trkpt>
      <trkpt lat="49.869" lon="4.76622">
        <ele>276</ele>
        <time>2021-03-30T12:19:02.000Z</time>
      </trkpt>
      <trkpt lat="49.86901" lon="4.76626">
        <ele>276</ele>
        <time>2021-03-30T12:19:03.000Z</time>
      </trkpt>
      <trkpt lat="49.86902" lon="4.76629">
        <ele>276</ele>
        <time>2021-03-30T12:19:04.000Z</time>
      </trkpt>
      <trkpt lat="49.86903" lon="4.76632">
        <ele>276</ele>
        <time>2021-03-30T12:19:05.000Z</time>
      </trkpt>
      <trkpt lat="49.86903" lon="4.76636">
        <ele>276</ele>
        <time>2021-03-30T12:19:06.000Z</time>
      </trkpt>
      <trkpt lat="49.86904" lon="4.7664">
        <ele>276</ele>
        <time>2021-03-30T12:19:07.000Z</time>
      </trkpt>
      <trkpt lat="49.86905" lon="4.76644">
        <ele>275</ele>
        <time>2021-03-30T12:19:08.000Z</time>
      </trkpt>
      <trkpt lat="49.86905" lon="4.76648">
        <ele>275</ele>
        <time>2021-03-30T12:19:09.000Z</time>
      </trkpt>
      <trkpt lat="49.86906" lon="4.76652">
        <ele>275</ele>
        <time>2021-03-30T12:19:10.000Z</time>
      </trkpt>
      <trkpt lat="49.86907" lon="4.76656">
        <ele>275</ele>
        <time>2021-03-30T12:19:11.000Z</time>
      </trkpt>
      <trkpt lat="49.86908" lon="4.76659">
        <ele>275</ele>
        <time>2021-03-30T12:19:12.000Z</time>
      </trkpt>
      <trkpt lat="49.8691" lon="4.76663">
        <ele>275</ele>
        <time>2021-03-30T12:19:13.000Z</time>
      </trkpt>
      <trkpt lat="49.86911" lon="4.76667">
        <ele>275</ele>
        <time>2021-03-30T12:19:14.000Z</time>
      </trkpt>
      <trkpt lat="49.86912" lon="4.76671">
        <ele>275</ele>
        <time>2021-03-30T12:19:15.000Z</time>
      </trkpt>
      <trkpt lat="49.86914" lon="4.76675">
        <ele>275</ele>
        <time>2021-03-30T12:19:16.000Z</time>
      </trkpt>
      <trkpt lat="49.86915" lon="4.76679">
        <ele>275</ele>
        <time>2021-03-30T12:19:17.000Z</time>
      </trkpt>
      <trkpt lat="49.86916" lon="4.76683">
        <ele>274</ele>
        <time>2021-03-30T12:19:18.000Z</time>
      </trkpt>
      <trkpt lat="49.86917" lon="4.76687">
        <ele>274</ele>
        <time>2021-03-30T12:19:19.000Z</time>
      </trkpt>
      <trkpt lat="49.86918" lon="4.76691">
        <ele>274</ele>
        <time>2021-03-30T12:19:20.000Z</time>
      </trkpt>
      <trkpt lat="49.86919" lon="4.76694">
        <ele>274</ele>
        <time>2021-03-30T12:19:21.000Z</time>
      </trkpt>
      <trkpt lat="49.8692" lon="4.76697">
        <ele>274</ele>
        <time>2021-03-30T12:19:22.000Z</time>
      </trkpt>
      <trkpt lat="49.86921" lon="4.76701">
        <ele>274</ele>
        <time>2021-03-30T12:19:23.000Z</time>
      </trkpt>
      <trkpt lat="49.86922" lon="4.76704">
        <ele>274</ele>
        <time>2021-03-30T12:19:24.000Z</time>
      </trkpt>
      <trkpt lat="49.86924" lon="4.76708">
        <ele>274</ele>
        <time>2021-03-30T12:19:25.000Z</time>
      </trkpt>
      <trkpt lat="49.86925" lon="4.76711">
        <ele>274</ele>
        <time>2021-03-30T12:19:26.000Z</time>
      </trkpt>
      <trkpt lat="49.86926" lon="4.76714">
        <ele>274</ele>
        <time>2021-03-30T12:19:27.000Z</time>
      </trkpt>
      <trkpt lat="49.86927" lon="4.76717">
        <ele>274</ele>
        <time>2021-03-30T12:19:28.000Z</time>
      </trkpt>
      <trkpt lat="49.86928" lon="4.7672">
        <ele>274</ele>
        <time>2021-03-30T12:19:29.000Z</time>
      </trkpt>
      <trkpt lat="49.86929" lon="4.76724">
        <ele>274</ele>
        <time>2021-03-30T12:19:30.000Z</time>
      </trkpt>
      <trkpt lat="49.8693" lon="4.76727">
        <ele>274</ele>
        <time>2021-03-30T12:19:31.000Z</time>
      </trkpt>
      <trkpt lat="49.86931" lon="4.76731">
        <ele>274</ele>
        <time>2021-03-30T12:19:32.000Z</time>
      </trkpt>
      <trkpt lat="49.86932" lon="4.76735">
        <ele>274</ele>
        <time>2021-03-30T12:19:33.000Z</time>
      </trkpt>
      <trkpt lat="49.86933" lon="4.76738">
        <ele>274</ele>
        <time>2021-03-30T12:19:34.000Z</time>
      </trkpt>
      <trkpt lat="49.86934" lon="4.76741">
        <ele>274</ele>
        <time>2021-03-30T12:19:35.000Z</time>
      </trkpt>
      <trkpt lat="49.86935" lon="4.76744">
        <ele>274</ele>
        <time>2021-03-30T12:19:36.000Z</time>
      </trkpt>
      <trkpt lat="49.86935" lon="4.76748">
        <ele>274</ele>
        <time>2021-03-30T12:19:37.000Z</time>
      </trkpt>
      <trkpt lat="49.86936" lon="4.76752">
        <ele>274</ele>
        <time>2021-03-30T12:19:38.000Z</time>
      </trkpt>
      <trkpt lat="49.86937" lon="4.76756">
        <ele>274</ele>
        <time>2021-03-30T12:19:39.000Z</time>
      </trkpt>
      <trkpt lat="49.86937" lon="4.76759">
        <ele>274</ele>
        <time>2021-03-30T12:19:40.000Z</time>
      </trkpt>
      <trkpt lat="49.86938" lon="4.76763">
        <ele>275</ele>
        <time>2021-03-30T12:19:41.000Z</time>
      </trkpt>
      <trkpt lat="49.86939" lon="4.76767">
        <ele>275</ele>
        <time>2021-03-30T12:19:42.000Z</time>
      </trkpt>
      <trkpt lat="49.8694" lon="4.7677">
        <ele>275</ele>
        <time>2021-03-30T12:19:43.000Z</time>
      </trkpt>
      <trkpt lat="49.86941" lon="4.76773">
        <ele>275</ele>
        <time>2021-03-30T12:19:44.000Z</time>
      </trkpt>
      <trkpt lat="49.86943" lon="4.76776">
        <ele>275</ele>
        <time>2021-03-30T12:19:45.000Z</time>
      </trkpt>
      <trkpt lat="49.86944" lon="4.7678">
        <ele>276</ele>
        <time>2021-03-30T12:19:46.000Z</time>
      </trkpt>
      <trkpt lat="49.86945" lon="4.76783">
        <ele>276</ele>
        <time>2021-03-30T12:19:47.000Z</time>
      </trkpt>
      <trkpt lat="49.86946" lon="4.76787">
        <ele>276</ele>
        <time>2021-03-30T12:19:48.000Z</time>
      </trkpt>
      <trkpt lat="49.86947" lon="4.76791">
        <ele>276</ele>
        <time>2021-03-30T12:19:49.000Z</time>
      </trkpt>
      <trkpt lat="49.86948" lon="4.76793">
        <ele>276</ele>
        <time>2021-03-30T12:19:50.000Z</time>
      </trkpt>
      <trkpt lat="49.86949" lon="4.76796">
        <ele>277</ele>
        <time>2021-03-30T12:19:51.000Z</time>
      </trkpt>
      <trkpt lat="49.86949" lon="4.76799">
        <ele>277</ele>
        <time>2021-03-30T12:19:52.000Z</time>
      </trkpt>
      <trkpt lat="49.8695" lon="4.76802">
        <ele>277</ele>
        <time>2021-03-30T12:19:53.000Z</time>
      </trkpt>
      <trkpt lat="49.8695" lon="4.76806">
        <ele>277</ele>
        <time>2021-03-30T12:19:54.000Z</time>
      </trkpt>
      <trkpt lat="49.86951" lon="4.76811">
        <ele>277</ele>
        <time>2021-03-30T12:19:55.000Z</time>
      </trkpt>
      <trkpt lat="49.86952" lon="4.76815">
        <ele>277</ele>
        <time>2021-03-30T12:19:56.000Z</time>
      </trkpt>
      <trkpt lat="49.86952" lon="4.76819">
        <ele>278</ele>
        <time>2021-03-30T12:19:57.000Z</time>
      </trkpt>
      <trkpt lat="49.86954" lon="4.76823">
        <ele>278</ele>
        <time>2021-03-30T12:19:58.000Z</time>
      </trkpt>
      <trkpt lat="49.86955" lon="4.76826">
        <ele>278</ele>
        <time>2021-03-30T12:19:59.000Z</time>
      </trkpt>
      <trkpt lat="49.86955" lon="4.76829">
        <ele>278</ele>
        <time>2021-03-30T12:20:00.000Z</time>
      </trkpt>
      <trkpt lat="49.86956" lon="4.76832">
        <ele>278</ele>
        <time>2021-03-30T12:20:01.000Z</time>
      </trkpt>
      <trkpt lat="49.86957" lon="4.76835">
        <ele>279</ele>
        <time>2021-03-30T12:20:02.000Z</time>
      </trkpt>
      <trkpt lat="49.86957" lon="4.76837">
        <ele>279</ele>
        <time>2021-03-30T12:20:03.000Z</time>
      </trkpt>
      <trkpt lat="49.86958" lon="4.76839">
        <ele>279</ele>
        <time>2021-03-30T12:20:04.000Z</time>
      </trkpt>
      <trkpt lat="49.86958" lon="4.76842">
        <ele>280</ele>
        <time>2021-03-30T12:20:05.000Z</time>
      </trkpt>
      <trkpt lat="49.86958" lon="4.76844">
        <ele>280</ele>
        <time>2021-03-30T12:20:06.000Z</time>
      </trkpt>
      <trkpt lat="49.86959" lon="4.76846">
        <ele>280</ele>
        <time>2021-03-30T12:20:07.000Z</time>
      </trkpt>
      <trkpt lat="49.86959" lon="4.76849">
        <ele>281</ele>
        <time>2021-03-30T12:20:08.000Z</time>
      </trkpt>
      <trkpt lat="49.8696" lon="4.76851">
        <ele>281</ele>
        <time>2021-03-30T12:20:09.000Z</time>
      </trkpt>
      <trkpt lat="49.8696" lon="4.76852">
        <ele>281</ele>
        <time>2021-03-30T12:20:10.000Z</time>
      </trkpt>
      <trkpt lat="49.86961" lon="4.76854">
        <ele>281</ele>
        <time>2021-03-30T12:20:11.000Z</time>
      </trkpt>
      <trkpt lat="49.86962" lon="4.76856">
        <ele>282</ele>
        <time>2021-03-30T12:20:12.000Z</time>
      </trkpt>
      <trkpt lat="49.86962" lon="4.76858">
        <ele>282</ele>
        <time>2021-03-30T12:20:13.000Z</time>
      </trkpt>
      <trkpt lat="49.86962" lon="4.76861">
        <ele>282</ele>
        <time>2021-03-30T12:20:14.000Z</time>
      </trkpt>
      <trkpt lat="49.86963" lon="4.76863">
        <ele>282</ele>
        <time>2021-03-30T12:20:15.000Z</time>
      </trkpt>
      <trkpt lat="49.86963" lon="4.76866">
        <ele>283</ele>
        <time>2021-03-30T12:20:16.000Z</time>
      </trkpt>
      <trkpt lat="49.86964" lon="4.76868">
        <ele>283</ele>
        <time>2021-03-30T12:20:17.000Z</time>
      </trkpt>
      <trkpt lat="49.86964" lon="4.76871">
        <ele>283</ele>
        <time>2021-03-30T12:20:18.000Z</time>
      </trkpt>
      <trkpt lat="49.86965" lon="4.76873">
        <ele>283</ele>
        <time>2021-03-30T12:20:19.000Z</time>
      </trkpt>
      <trkpt lat="49.86966" lon="4.76875">
        <ele>283</ele>
        <time>2021-03-30T12:20:20.000Z</time>
      </trkpt>
      <trkpt lat="49.86967" lon="4.76877">
        <ele>284</ele>
        <time>2021-03-30T12:20:21.000Z</time>
      </trkpt>
      <trkpt lat="49.86968" lon="4.76879">
        <ele>284</ele>
        <time>2021-03-30T12:20:22.000Z</time>
      </trkpt>
      <trkpt lat="49.86968" lon="4.76881">
        <ele>284</ele>
        <time>2021-03-30T12:20:23.000Z</time>
      </trkpt>
      <trkpt lat="49.86969" lon="4.76883">
        <ele>284</ele>
        <time>2021-03-30T12:20:24.000Z</time>
      </trkpt>
      <trkpt lat="49.86969" lon="4.76885">
        <ele>284</ele>
        <time>2021-03-30T12:20:25.000Z</time>
      </trkpt>
      <trkpt lat="49.8697" lon="4.76888">
        <ele>285</ele>
        <time>2021-03-30T12:20:26.000Z</time>
      </trkpt>
      <trkpt lat="49.8697" lon="4.7689">
        <ele>285</ele>
        <time>2021-03-30T12:20:27.000Z</time>
      </trkpt>
      <trkpt lat="49.86971" lon="4.76891">
        <ele>286</ele>
        <time>2021-03-30T12:20:28.000Z</time>
      </trkpt>
      <trkpt lat="49.86971" lon="4.76894">
        <ele>286</ele>
        <time>2021-03-30T12:20:29.000Z</time>
      </trkpt>
      <trkpt lat="49.86971" lon="4.76896">
        <ele>286</ele>
        <time>2021-03-30T12:20:30.000Z</time>
      </trkpt>
      <trkpt lat="49.86972" lon="4.76898">
        <ele>286</ele>
        <time>2021-03-30T12:20:31.000Z</time>
      </trkpt>
      <trkpt lat="49.86973" lon="4.76901">
        <ele>287</ele>
        <time>2021-03-30T12:20:32.000Z</time>
      </trkpt>
      <trkpt lat="49.86973" lon="4.76903">
        <ele>287</ele>
        <time>2021-03-30T12:20:33.000Z</time>
      </trkpt>
      <trkpt lat="49.86973" lon="4.76905">
        <ele>287</ele>
        <time>2021-03-30T12:20:34.000Z</time>
      </trkpt>
      <trkpt lat="49.86974" lon="4.76907">
        <ele>287</ele>
        <time>2021-03-30T12:20:35.000Z</time>
      </trkpt>
      <trkpt lat="49.86974" lon="4.7691">
        <ele>287</ele>
        <time>2021-03-30T12:20:36.000Z</time>
      </trkpt>
      <trkpt lat="49.86974" lon="4.76912">
        <ele>288</ele>
        <time>2021-03-30T12:20:37.000Z</time>
      </trkpt>
      <trkpt lat="49.86975" lon="4.76914">
        <ele>288</ele>
        <time>2021-03-30T12:20:38.000Z</time>
      </trkpt>
      <trkpt lat="49.86975" lon="4.76917">
        <ele>288</ele>
        <time>2021-03-30T12:20:39.000Z</time>
      </trkpt>
      <trkpt lat="49.86975" lon="4.76919">
        <ele>288</ele>
        <time>2021-03-30T12:20:40.000Z</time>
      </trkpt>
      <trkpt lat="49.86976" lon="4.76921">
        <ele>289</ele>
        <time>2021-03-30T12:20:41.000Z</time>
      </trkpt>
      <trkpt lat="49.86976" lon="4.76924">
        <ele>289</ele>
        <time>2021-03-30T12:20:42.000Z</time>
      </trkpt>
      <trkpt lat="49.86976" lon="4.76927">
        <ele>289</ele>
        <time>2021-03-30T12:20:43.000Z</time>
      </trkpt>
      <trkpt lat="49.86977" lon="4.76929">
        <ele>289</ele>
        <time>2021-03-30T12:20:44.000Z</time>
      </trkpt>
      <trkpt lat="49.86977" lon="4.76931">
        <ele>290</ele>
        <time>2021-03-30T12:20:45.000Z</time>
      </trkpt>
      <trkpt lat="49.86978" lon="4.76934">
        <ele>290</ele>
        <time>2021-03-30T12:20:46.000Z</time>
      </trkpt>
      <trkpt lat="49.86978" lon="4.76936">
        <ele>290</ele>
        <time>2021-03-30T12:20:47.000Z</time>
      </trkpt>
      <trkpt lat="49.86979" lon="4.76939">
        <ele>290</ele>
        <time>2021-03-30T12:20:48.000Z</time>
      </trkpt>
      <trkpt lat="49.86979" lon="4.76942">
        <ele>291</ele>
        <time>2021-03-30T12:20:49.000Z</time>
      </trkpt>
      <trkpt lat="49.8698" lon="4.76944">
        <ele>291</ele>
        <time>2021-03-30T12:20:50.000Z</time>
      </trkpt>
      <trkpt lat="49.8698" lon="4.76947">
        <ele>291</ele>
        <time>2021-03-30T12:20:51.000Z</time>
      </trkpt>
      <trkpt lat="49.8698" lon="4.76951">
        <ele>292</ele>
        <time>2021-03-30T12:20:52.000Z</time>
      </trkpt>
      <trkpt lat="49.86981" lon="4.76954">
        <ele>292</ele>
        <time>2021-03-30T12:20:53.000Z</time>
      </trkpt>
      <trkpt lat="49.86982" lon="4.76957">
        <ele>292</ele>
        <time>2021-03-30T12:20:54.000Z</time>
      </trkpt>
      <trkpt lat="49.86983" lon="4.7696">
        <ele>293</ele>
        <time>2021-03-30T12:20:55.000Z</time>
      </trkpt>
      <trkpt lat="49.86984" lon="4.76963">
        <ele>293</ele>
        <time>2021-03-30T12:20:56.000Z</time>
      </trkpt>
      <trkpt lat="49.86985" lon="4.76967">
        <ele>293</ele>
        <time>2021-03-30T12:20:57.000Z</time>
      </trkpt>
      <trkpt lat="49.86985" lon="4.7697">
        <ele>293</ele>
        <time>2021-03-30T12:20:58.000Z</time>
      </trkpt>
      <trkpt lat="49.86986" lon="4.76973">
        <ele>293</ele>
        <time>2021-03-30T12:20:59.000Z</time>
      </trkpt>
      <trkpt lat="49.86987" lon="4.76976">
        <ele>293</ele>
        <time>2021-03-30T12:21:00.000Z</time>
      </trkpt>
      <trkpt lat="49.86988" lon="4.76979">
        <ele>294</ele>
        <time>2021-03-30T12:21:01.000Z</time>
      </trkpt>
      <trkpt lat="49.86989" lon="4.76982">
        <ele>294</ele>
        <time>2021-03-30T12:21:02.000Z</time>
      </trkpt>
      <trkpt lat="49.8699" lon="4.76985">
        <ele>294</ele>
        <time>2021-03-30T12:21:03.000Z</time>
      </trkpt>
      <trkpt lat="49.8699" lon="4.76988">
        <ele>294</ele>
        <time>2021-03-30T12:21:04.000Z</time>
      </trkpt>
      <trkpt lat="49.86991" lon="4.76992">
        <ele>294</ele>
        <time>2021-03-30T12:21:05.000Z</time>
      </trkpt>
      <trkpt lat="49.86992" lon="4.76996">
        <ele>295</ele>
        <time>2021-03-30T12:21:06.000Z</time>
      </trkpt>
      <trkpt lat="49.86992" lon="4.76999">
        <ele>295</ele>
        <time>2021-03-30T12:21:07.000Z</time>
      </trkpt>
      <trkpt lat="49.86993" lon="4.77002">
        <ele>295</ele>
        <time>2021-03-30T12:21:08.000Z</time>
      </trkpt>
      <trkpt lat="49.86994" lon="4.77005">
        <ele>295</ele>
        <time>2021-03-30T12:21:09.000Z</time>
      </trkpt>
      <trkpt lat="49.86995" lon="4.77009">
        <ele>295</ele>
        <time>2021-03-30T12:21:10.000Z</time>
      </trkpt>
      <trkpt lat="49.86995" lon="4.77012">
        <ele>295</ele>
        <time>2021-03-30T12:21:11.000Z</time>
      </trkpt>
      <trkpt lat="49.86996" lon="4.77016">
        <ele>296</ele>
        <time>2021-03-30T12:21:12.000Z</time>
      </trkpt>
      <trkpt lat="49.86997" lon="4.7702">
        <ele>296</ele>
        <time>2021-03-30T12:21:13.000Z</time>
      </trkpt>
      <trkpt lat="49.86998" lon="4.77023">
        <ele>296</ele>
        <time>2021-03-30T12:21:14.000Z</time>
      </trkpt>
      <trkpt lat="49.86999" lon="4.77026">
        <ele>296</ele>
        <time>2021-03-30T12:21:15.000Z</time>
      </trkpt>
      <trkpt lat="49.86999" lon="4.7703">
        <ele>296</ele>
        <time>2021-03-30T12:21:16.000Z</time>
      </trkpt>
      <trkpt lat="49.87" lon="4.77033">
        <ele>297</ele>
        <time>2021-03-30T12:21:17.000Z</time>
      </trkpt>
      <trkpt lat="49.87001" lon="4.77036">
        <ele>297</ele>
        <time>2021-03-30T12:21:18.000Z</time>
      </trkpt>
      <trkpt lat="49.87003" lon="4.77039">
        <ele>297</ele>
        <time>2021-03-30T12:21:19.000Z</time>
      </trkpt>
      <trkpt lat="49.87004" lon="4.77042">
        <ele>297</ele>
        <time>2021-03-30T12:21:20.000Z</time>
      </trkpt>
      <trkpt lat="49.87005" lon="4.77044">
        <ele>297</ele>
        <time>2021-03-30T12:21:21.000Z</time>
      </trkpt>
      <trkpt lat="49.87006" lon="4.77048">
        <ele>297</ele>
        <time>2021-03-30T12:21:22.000Z</time>
      </trkpt>
      <trkpt lat="49.87006" lon="4.77052">
        <ele>298</ele>
        <time>2021-03-30T12:21:23.000Z</time>
      </trkpt>
      <trkpt lat="49.87006" lon="4.77056">
        <ele>298</ele>
        <time>2021-03-30T12:21:24.000Z</time>
      </trkpt>
      <trkpt lat="49.87005" lon="4.77059">
        <ele>298</ele>
        <time>2021-03-30T12:21:25.000Z</time>
      </trkpt>
      <trkpt lat="49.87004" lon="4.77063">
        <ele>298</ele>
        <time>2021-03-30T12:21:26.000Z</time>
      </trkpt>
      <trkpt lat="49.87003" lon="4.77066">
        <ele>299</ele>
        <time>2021-03-30T12:21:27.000Z</time>
      </trkpt>
      <trkpt lat="49.87001" lon="4.7707">
        <ele>299</ele>
        <time>2021-03-30T12:21:28.000Z</time>
      </trkpt>
      <trkpt lat="49.87" lon="4.77074">
        <ele>299</ele>
        <time>2021-03-30T12:21:29.000Z</time>
      </trkpt>
      <trkpt lat="49.86999" lon="4.77079">
        <ele>300</ele>
        <time>2021-03-30T12:21:30.000Z</time>
      </trkpt>
      <trkpt lat="49.86997" lon="4.77083">
        <ele>300</ele>
        <time>2021-03-30T12:21:31.000Z</time>
      </trkpt>
      <trkpt lat="49.86995" lon="4.77088">
        <ele>300</ele>
        <time>2021-03-30T12:21:32.000Z</time>
      </trkpt>
      <trkpt lat="49.86994" lon="4.77093">
        <ele>301</ele>
        <time>2021-03-30T12:21:33.000Z</time>
      </trkpt>
      <trkpt lat="49.86992" lon="4.77096">
        <ele>301</ele>
        <time>2021-03-30T12:21:34.000Z</time>
      </trkpt>
      <trkpt lat="49.8699" lon="4.77101">
        <ele>301</ele>
        <time>2021-03-30T12:21:35.000Z</time>
      </trkpt>
      <trkpt lat="49.86989" lon="4.77106">
        <ele>301</ele>
        <time>2021-03-30T12:21:36.000Z</time>
      </trkpt>
      <trkpt lat="49.86987" lon="4.77111">
        <ele>302</ele>
        <time>2021-03-30T12:21:37.000Z</time>
      </trkpt>
      <trkpt lat="49.86984" lon="4.77116">
        <ele>302</ele>
        <time>2021-03-30T12:21:38.000Z</time>
      </trkpt>
      <trkpt lat="49.86982" lon="4.77121">
        <ele>302</ele>
        <time>2021-03-30T12:21:39.000Z</time>
      </trkpt>
      <trkpt lat="49.86979" lon="4.77126">
        <ele>302</ele>
        <time>2021-03-30T12:21:40.000Z</time>
      </trkpt>
      <trkpt lat="49.86976" lon="4.7713">
        <ele>302</ele>
        <time>2021-03-30T12:21:41.000Z</time>
      </trkpt>
      <trkpt lat="49.86974" lon="4.77134">
        <ele>302</ele>
        <time>2021-03-30T12:21:42.000Z</time>
      </trkpt>
      <trkpt lat="49.86971" lon="4.77138">
        <ele>303</ele>
        <time>2021-03-30T12:21:43.000Z</time>
      </trkpt>
      <trkpt lat="49.86968" lon="4.77143">
        <ele>303</ele>
        <time>2021-03-30T12:21:44.000Z</time>
      </trkpt>
      <trkpt lat="49.86966" lon="4.77148">
        <ele>303</ele>
        <time>2021-03-30T12:21:45.000Z</time>
      </trkpt>
      <trkpt lat="49.86963" lon="4.77153">
        <ele>303</ele>
        <time>2021-03-30T12:21:46.000Z</time>
      </trkpt>
      <trkpt lat="49.86961" lon="4.77158">
        <ele>303</ele>
        <time>2021-03-30T12:21:47.000Z</time>
      </trkpt>
      <trkpt lat="49.86958" lon="4.77163">
        <ele>303</ele>
        <time>2021-03-30T12:21:48.000Z</time>
      </trkpt>
      <trkpt lat="49.86956" lon="4.77168">
        <ele>303</ele>
        <time>2021-03-30T12:21:49.000Z</time>
      </trkpt>
      <trkpt lat="49.86954" lon="4.77171">
        <ele>303</ele>
        <time>2021-03-30T12:21:50.000Z</time>
      </trkpt>
      <trkpt lat="49.86952" lon="4.77175">
        <ele>303</ele>
        <time>2021-03-30T12:21:51.000Z</time>
      </trkpt>
      <trkpt lat="49.86951" lon="4.77179">
        <ele>304</ele>
        <time>2021-03-30T12:21:52.000Z</time>
      </trkpt>
      <trkpt lat="49.8695" lon="4.77183">
        <ele>304</ele>
        <time>2021-03-30T12:21:53.000Z</time>
      </trkpt>
      <trkpt lat="49.86949" lon="4.77186">
        <ele>304</ele>
        <time>2021-03-30T12:21:54.000Z</time>
      </trkpt>
      <trkpt lat="49.86947" lon="4.7719">
        <ele>305</ele>
        <time>2021-03-30T12:21:55.000Z</time>
      </trkpt>
      <trkpt lat="49.86946" lon="4.77194">
        <ele>305</ele>
        <time>2021-03-30T12:21:56.000Z</time>
      </trkpt>
      <trkpt lat="49.86945" lon="4.77198">
        <ele>305</ele>
        <time>2021-03-30T12:21:57.000Z</time>
      </trkpt>
      <trkpt lat="49.86944" lon="4.77203">
        <ele>305</ele>
        <time>2021-03-30T12:21:58.000Z</time>
      </trkpt>
      <trkpt lat="49.86943" lon="4.77207">
        <ele>305</ele>
        <time>2021-03-30T12:21:59.000Z</time>
      </trkpt>
      <trkpt lat="49.86942" lon="4.77211">
        <ele>306</ele>
        <time>2021-03-30T12:22:00.000Z</time>
      </trkpt>
      <trkpt lat="49.86941" lon="4.77215">
        <ele>306</ele>
        <time>2021-03-30T12:22:01.000Z</time>
      </trkpt>
      <trkpt lat="49.8694" lon="4.77219">
        <ele>306</ele>
        <time>2021-03-30T12:22:02.000Z</time>
      </trkpt>
      <trkpt lat="49.86939" lon="4.77223">
        <ele>306</ele>
        <time>2021-03-30T12:22:03.000Z</time>
      </trkpt>
      <trkpt lat="49.86939" lon="4.77228">
        <ele>307</ele>
        <time>2021-03-30T12:22:04.000Z</time>
      </trkpt>
      <trkpt lat="49.86938" lon="4.77232">
        <ele>307</ele>
        <time>2021-03-30T12:22:05.000Z</time>
      </trkpt>
      <trkpt lat="49.86937" lon="4.77236">
        <ele>307</ele>
        <time>2021-03-30T12:22:06.000Z</time>
      </trkpt>
      <trkpt lat="49.86936" lon="4.7724">
        <ele>308</ele>
        <time>2021-03-30T12:22:07.000Z</time>
      </trkpt>
      <trkpt lat="49.86935" lon="4.77243">
        <ele>308</ele>
        <time>2021-03-30T12:22:08.000Z</time>
      </trkpt>
      <trkpt lat="49.86934" lon="4.77248">
        <ele>308</ele>
        <time>2021-03-30T12:22:09.000Z</time>
      </trkpt>
      <trkpt lat="49.86933" lon="4.77252">
        <ele>309</ele>
        <time>2021-03-30T12:22:10.000Z</time>
      </trkpt>
      <trkpt lat="49.86932" lon="4.77256">
        <ele>309</ele>
        <time>2021-03-30T12:22:11.000Z</time>
      </trkpt>
      <trkpt lat="49.86931" lon="4.77259">
        <ele>310</ele>
        <time>2021-03-30T12:22:12.000Z</time>
      </trkpt>
      <trkpt lat="49.8693" lon="4.77263">
        <ele>310</ele>
        <time>2021-03-30T12:22:13.000Z</time>
      </trkpt>
      <trkpt lat="49.86929" lon="4.77267">
        <ele>310</ele>
        <time>2021-03-30T12:22:14.000Z</time>
      </trkpt>
      <trkpt lat="49.86928" lon="4.7727">
        <ele>311</ele>
        <time>2021-03-30T12:22:15.000Z</time>
      </trkpt>
      <trkpt lat="49.86926" lon="4.77274">
        <ele>311</ele>
        <time>2021-03-30T12:22:16.000Z</time>
      </trkpt>
      <trkpt lat="49.86925" lon="4.77277">
        <ele>312</ele>
        <time>2021-03-30T12:22:17.000Z</time>
      </trkpt>
      <trkpt lat="49.86924" lon="4.7728">
        <ele>312</ele>
        <time>2021-03-30T12:22:18.000Z</time>
      </trkpt>
      <trkpt lat="49.86922" lon="4.77282">
        <ele>312</ele>
        <time>2021-03-30T12:22:19.000Z</time>
      </trkpt>
      <trkpt lat="49.8692" lon="4.77285">
        <ele>313</ele>
        <time>2021-03-30T12:22:20.000Z</time>
      </trkpt>
      <trkpt lat="49.86918" lon="4.77288">
        <ele>313</ele>
        <time>2021-03-30T12:22:21.000Z</time>
      </trkpt>
      <trkpt lat="49.86916" lon="4.77291">
        <ele>314</ele>
        <time>2021-03-30T12:22:22.000Z</time>
      </trkpt>
      <trkpt lat="49.86915" lon="4.77293">
        <ele>314</ele>
        <time>2021-03-30T12:22:23.000Z</time>
      </trkpt>
      <trkpt lat="49.86913" lon="4.77293">
        <ele>314</ele>
        <time>2021-03-30T12:22:24.000Z</time>
      </trkpt>
      <trkpt lat="49.86912" lon="4.77295">
        <ele>314</ele>
        <time>2021-03-30T12:22:25.000Z</time>
      </trkpt>
      <trkpt lat="49.8691" lon="4.77298">
        <ele>315</ele>
        <time>2021-03-30T12:22:26.000Z</time>
      </trkpt>
      <trkpt lat="49.86909" lon="4.77301">
        <ele>315</ele>
        <time>2021-03-30T12:22:27.000Z</time>
      </trkpt>
      <trkpt lat="49.86908" lon="4.77305">
        <ele>315</ele>
        <time>2021-03-30T12:22:28.000Z</time>
      </trkpt>
      <trkpt lat="49.86906" lon="4.77309">
        <ele>316</ele>
        <time>2021-03-30T12:22:29.000Z</time>
      </trkpt>
      <trkpt lat="49.86905" lon="4.77313">
        <ele>316</ele>
        <time>2021-03-30T12:22:30.000Z</time>
      </trkpt>
      <trkpt lat="49.86904" lon="4.77318">
        <ele>316</ele>
        <time>2021-03-30T12:22:31.000Z</time>
      </trkpt>
      <trkpt lat="49.86903" lon="4.77322">
        <ele>316</ele>
        <time>2021-03-30T12:22:32.000Z</time>
      </trkpt>
      <trkpt lat="49.86903" lon="4.77327">
        <ele>317</ele>
        <time>2021-03-30T12:22:33.000Z</time>
      </trkpt>
      <trkpt lat="49.86903" lon="4.77333">
        <ele>317</ele>
        <time>2021-03-30T12:22:34.000Z</time>
      </trkpt>
      <trkpt lat="49.86903" lon="4.77338">
        <ele>317</ele>
        <time>2021-03-30T12:22:35.000Z</time>
      </trkpt>
      <trkpt lat="49.86903" lon="4.77343">
        <ele>317</ele>
        <time>2021-03-30T12:22:36.000Z</time>
      </trkpt>
      <trkpt lat="49.86903" lon="4.77348">
        <ele>318</ele>
        <time>2021-03-30T12:22:37.000Z</time>
      </trkpt>
      <trkpt lat="49.86902" lon="4.77353">
        <ele>318</ele>
        <time>2021-03-30T12:22:38.000Z</time>
      </trkpt>
      <trkpt lat="49.86902" lon="4.77358">
        <ele>318</ele>
        <time>2021-03-30T12:22:39.000Z</time>
      </trkpt>
      <trkpt lat="49.86902" lon="4.77362">
        <ele>318</ele>
        <time>2021-03-30T12:22:40.000Z</time>
      </trkpt>
      <trkpt lat="49.86901" lon="4.77367">
        <ele>318</ele>
        <time>2021-03-30T12:22:41.000Z</time>
      </trkpt>
      <trkpt lat="49.869" lon="4.77371">
        <ele>318</ele>
        <time>2021-03-30T12:22:42.000Z</time>
      </trkpt>
      <trkpt lat="49.869" lon="4.77376">
        <ele>318</ele>
        <time>2021-03-30T12:22:43.000Z</time>
      </trkpt>
      <trkpt lat="49.86899" lon="4.7738">
        <ele>318</ele>
        <time>2021-03-30T12:22:44.000Z</time>
      </trkpt>
      <trkpt lat="49.86899" lon="4.77385">
        <ele>319</ele>
        <time>2021-03-30T12:22:45.000Z</time>
      </trkpt>
      <trkpt lat="49.86899" lon="4.77388">
        <ele>319</ele>
        <time>2021-03-30T12:22:46.000Z</time>
      </trkpt>
      <trkpt lat="49.86899" lon="4.77392">
        <ele>319</ele>
        <time>2021-03-30T12:22:47.000Z</time>
      </trkpt>
      <trkpt lat="49.86899" lon="4.77396">
        <ele>319</ele>
        <time>2021-03-30T12:22:48.000Z</time>
      </trkpt>
      <trkpt lat="49.86899" lon="4.774">
        <ele>319</ele>
        <time>2021-03-30T12:22:49.000Z</time>
      </trkpt>
      <trkpt lat="49.86899" lon="4.77404">
        <ele>319</ele>
        <time>2021-03-30T12:22:50.000Z</time>
      </trkpt>
      <trkpt lat="49.869" lon="4.77408">
        <ele>319</ele>
        <time>2021-03-30T12:22:51.000Z</time>
      </trkpt>
      <trkpt lat="49.869" lon="4.77412">
        <ele>320</ele>
        <time>2021-03-30T12:22:52.000Z</time>
      </trkpt>
      <trkpt lat="49.869" lon="4.77417">
        <ele>320</ele>
        <time>2021-03-30T12:22:53.000Z</time>
      </trkpt>
      <trkpt lat="49.869" lon="4.77421">
        <ele>320</ele>
        <time>2021-03-30T12:22:54.000Z</time>
      </trkpt>
      <trkpt lat="49.86899" lon="4.77426">
        <ele>320</ele>
        <time>2021-03-30T12:22:55.000Z</time>
      </trkpt>
      <trkpt lat="49.869" lon="4.77429">
        <ele>320</ele>
        <time>2021-03-30T12:22:56.000Z</time>
      </trkpt>
      <trkpt lat="49.869" lon="4.77432">
        <ele>320</ele>
        <time>2021-03-30T12:22:57.000Z</time>
      </trkpt>
      <trkpt lat="49.869" lon="4.77434">
        <ele>320</ele>
        <time>2021-03-30T12:22:58.000Z</time>
      </trkpt>
      <trkpt lat="49.869" lon="4.77434">
        <ele>320</ele>
        <time>2021-03-30T12:22:59.000Z</time>
      </trkpt>
      <trkpt lat="49.869" lon="4.77434">
        <ele>320</ele>
        <time>2021-03-30T12:23:00.000Z</time>
      </trkpt>
      <trkpt lat="49.869" lon="4.77435">
        <ele>320</ele>
        <time>2021-03-30T12:23:01.000Z</time>
      </trkpt>
      <trkpt lat="49.869" lon="4.77435">
        <ele>320</ele>
        <time>2021-03-30T12:23:02.000Z</time>
      </trkpt>
      <trkpt lat="49.86899" lon="4.77436">
        <ele>320</ele>
        <time>2021-03-30T12:23:03.000Z</time>
      </trkpt>
      <trkpt lat="49.86899" lon="4.77436">
        <ele>320</ele>
        <time>2021-03-30T12:23:04.000Z</time>
      </trkpt>
      <trkpt lat="49.86899" lon="4.77436">
        <ele>320</ele>
        <time>2021-03-30T12:23:05.000Z</time>
      </trkpt>
      <trkpt lat="49.86899" lon="4.77437">
        <ele>320</ele>
        <time>2021-03-30T12:23:06.000Z</time>
      </trkpt>
      <trkpt lat="49.86899" lon="4.77437">
        <ele>320</ele>
        <time>2021-03-30T12:23:07.000Z</time>
      </trkpt>
      <trkpt lat="49.86899" lon="4.77437">
        <ele>320</ele>
        <time>2021-03-30T12:23:08.000Z</time>
      </trkpt>
      <trkpt lat="49.86899" lon="4.77437">
        <ele>320</ele>
        <time>2021-03-30T12:23:09.000Z</time>
      </trkpt>
      <trkpt lat="49.86898" lon="4.77437">
        <ele>319</ele>
        <time>2021-03-30T12:23:10.000Z</time>
      </trkpt>
      <trkpt lat="49.86898" lon="4.77438">
        <ele>319</ele>
        <time>2021-03-30T12:23:11.000Z</time>
      </trkpt>
      <trkpt lat="49.86898" lon="4.77438">
        <ele>319</ele>
        <time>2021-03-30T12:23:12.000Z</time>
      </trkpt>
      <trkpt lat="49.86898" lon="4.77438">
        <ele>319</ele>
        <time>2021-03-30T12:23:13.000Z</time>
      </trkpt>
      <trkpt lat="49.86898" lon="4.77438">
        <ele>319</ele>
        <time>2021-03-30T12:23:14.000Z</time>
      </trkpt>
      <trkpt lat="49.86898" lon="4.77438">
        <ele>319</ele>
        <time>2021-03-30T12:23:15.000Z</time>
      </trkpt>
      <trkpt lat="49.86898" lon="4.77438">
        <ele>319</ele>
        <time>2021-03-30T12:23:16.000Z</time>
      </trkpt>
      <trkpt lat="49.86898" lon="4.77438">
        <ele>319</ele>
        <time>2021-03-30T12:23:17.000Z</time>
      </trkpt>
      <trkpt lat="49.86898" lon="4.77438">
        <ele>319</ele>
        <time>2021-03-30T12:23:18.000Z</time>
      </trkpt>
      <trkpt lat="49.86898" lon="4.77439">
        <ele>319</ele>
        <time>2021-03-30T12:23:19.000Z</time>
      </trkpt>
      <trkpt lat="49.86898" lon="4.77439">
        <ele>319</ele>
        <time>2021-03-30T12:23:20.000Z</time>
      </trkpt>
      <trkpt lat="49.86898" lon="4.77439">
        <ele>319</ele>
        <time>2021-03-30T12:23:21.000Z</time>
      </trkpt>
      <trkpt lat="49.86898" lon="4.77439">
        <ele>319</ele>
        <time>2021-03-30T12:23:22.000Z</time>
      </trkpt>
      <trkpt lat="49.86898" lon="4.77439">
        <ele>319</ele>
        <time>2021-03-30T12:23:23.000Z</time>
      </trkpt>
      <trkpt lat="49.86898" lon="4.77439">
        <ele>319</ele>
        <time>2021-03-30T12:23:24.000Z</time>
      </trkpt>
      <trkpt lat="49.86898" lon="4.77439">
        <ele>319</ele>
        <time>2021-03-30T12:23:25.000Z</time>
      </trkpt>
      <trkpt lat="49.86898" lon="4.77439">
        <ele>319</ele>
        <time>2021-03-30T12:23:26.000Z</time>
      </trkpt>
      <trkpt lat="49.86898" lon="4.77439">
        <ele>319</ele>
        <time>2021-03-30T12:23:27.000Z</time>
      </trkpt>
      <trkpt lat="49.86898" lon="4.77439">
        <ele>319</ele>
        <time>2021-03-30T12:23:28.000Z</time>
      </trkpt>
      <trkpt lat="49.86898" lon="4.77439">
        <ele>319</ele>
        <time>2021-03-30T12:23:29.000Z</time>
      </trkpt>
      <trkpt lat="49.86898" lon="4.77439">
        <ele>319</ele>
        <time>2021-03-30T12:23:30.000Z</time>
      </trkpt>
      <trkpt lat="49.86898" lon="4.77439">
        <ele>319</ele>
        <time>2021-03-30T12:23:31.000Z</time>
      </trkpt>
      <trkpt lat="49.86898" lon="4.77439">
        <ele>319</ele>
        <time>2021-03-30T12:23:32.000Z</time>
      </trkpt>
      <trkpt lat="49.86898" lon="4.77439">
        <ele>319</ele>
        <time>2021-03-30T12:23:33.000Z</time>
      </trkpt>
      <trkpt lat="49.86898" lon="4.77439">
        <ele>319</ele>
        <time>2021-03-30T12:23:34.000Z</time>
      </trkpt>
      <trkpt lat="49.86898" lon="4.77439">
        <ele>319</ele>
        <time>2021-03-30T12:23:35.000Z</time>
      </trkpt>
      <trkpt lat="49.86898" lon="4.77439">
        <ele>319</ele>
        <time>2021-03-30T12:23:36.000Z</time>
      </trkpt>
      <trkpt lat="49.86898" lon="4.77439">
        <ele>319</ele>
        <time>2021-03-30T12:23:37.000Z</time>
      </trkpt>
      <trkpt lat="49.86898" lon="4.7744">
        <ele>319</ele>
        <time>2021-03-30T12:23:38.000Z</time>
      </trkpt>
      <trkpt lat="49.86898" lon="4.7744">
        <ele>319</ele>
        <time>2021-03-30T12:23:39.000Z</time>
      </trkpt>
      <trkpt lat="49.86898" lon="4.7744">
        <ele>319</ele>
        <time>2021-03-30T12:23:40.000Z</time>
      </trkpt>
      <trkpt lat="49.86898" lon="4.7744">
        <ele>319</ele>
        <time>2021-03-30T12:23:41.000Z</time>
      </trkpt>
      <trkpt lat="49.86898" lon="4.7744">
        <ele>319</ele>
        <time>2021-03-30T12:23:42.000Z</time>
      </trkpt>
      <trkpt lat="49.86898" lon="4.7744">
        <ele>319</ele>
        <time>2021-03-30T12:23:43.000Z</time>
      </trkpt>
      <trkpt lat="49.86898" lon="4.7744">
        <ele>319</ele>
        <time>2021-03-30T12:23:44.000Z</time>
      </trkpt>
      <trkpt lat="49.86898" lon="4.7744">
        <ele>319</ele>
        <time>2021-03-30T12:23:45.000Z</time>
      </trkpt>
      <trkpt lat="49.86898" lon="4.7744">
        <ele>319</ele>
        <time>2021-03-30T12:23:46.000Z</time>
      </trkpt>
      <trkpt lat="49.86898" lon="4.7744">
        <ele>319</ele>
        <time>2021-03-30T12:23:47.000Z</time>
      </trkpt>
      <trkpt lat="49.86898" lon="4.7744">
        <ele>319</ele>
        <time>2021-03-30T12:23:48.000Z</time>
      </trkpt>
      <trkpt lat="49.86898" lon="4.7744">
        <ele>319</ele>
        <time>2021-03-30T12:23:49.000Z</time>
      </trkpt>
      <trkpt lat="49.86898" lon="4.7744">
        <ele>319</ele>
        <time>2021-03-30T12:23:50.000Z</time>
      </trkpt>
      <trkpt lat="49.86898" lon="4.7744">
        <ele>319</ele>
        <time>2021-03-30T12:23:51.000Z</time>
      </trkpt>
      <trkpt lat="49.86898" lon="4.7744">
        <ele>319</ele>
        <time>2021-03-30T12:23:52.000Z</time>
      </trkpt>
      <trkpt lat="49.86898" lon="4.7744">
        <ele>319</ele>
        <time>2021-03-30T12:23:53.000Z</time>
      </trkpt>
      <trkpt lat="49.86898" lon="4.7744">
        <ele>319</ele>
        <time>2021-03-30T12:23:54.000Z</time>
      </trkpt>
      <trkpt lat="49.86898" lon="4.7744">
        <ele>319</ele>
        <time>2021-03-30T12:23:55.000Z</time>
      </trkpt>
      <trkpt lat="49.86898" lon="4.7744">
        <ele>319</ele>
        <time>2021-03-30T12:23:56.000Z</time>
      </trkpt>
      <trkpt lat="49.86898" lon="4.7744">
        <ele>319</ele>
        <time>2021-03-30T12:23:57.000Z</time>
      </trkpt>
      <trkpt lat="49.86898" lon="4.7744">
        <ele>319</ele>
        <time>2021-03-30T12:23:58.000Z</time>
      </trkpt>
      <trkpt lat="49.86898" lon="4.7744">
        <ele>319</ele>
        <time>2021-03-30T12:23:59.000Z</time>
      </trkpt>
      <trkpt lat="49.86898" lon="4.7744">
        <ele>319</ele>
        <time>2021-03-30T12:24:00.000Z</time>
      </trkpt>
      <trkpt lat="49.86897" lon="4.7744">
        <ele>319</ele>
        <time>2021-03-30T12:24:01.000Z</time>
      </trkpt>
      <trkpt lat="49.86898" lon="4.7744">
        <ele>318</ele>
        <time>2021-03-30T12:24:02.000Z</time>
      </trkpt>
      <trkpt lat="49.86898" lon="4.77439">
        <ele>318</ele>
        <time>2021-03-30T12:24:03.000Z</time>
      </trkpt>
      <trkpt lat="49.86898" lon="4.77439">
        <ele>317</ele>
        <time>2021-03-30T12:24:04.000Z</time>
      </trkpt>
      <trkpt lat="49.86897" lon="4.77439">
        <ele>317</ele>
        <time>2021-03-30T12:24:05.000Z</time>
      </trkpt>
      <trkpt lat="49.86897" lon="4.7744">
        <ele>316</ele>
        <time>2021-03-30T12:24:06.000Z</time>
      </trkpt>
      <trkpt lat="49.86897" lon="4.77439">
        <ele>315</ele>
        <time>2021-03-30T12:24:07.000Z</time>
      </trkpt>
      <trkpt lat="49.86897" lon="4.77439">
        <ele>315</ele>
        <time>2021-03-30T12:24:08.000Z</time>
      </trkpt>
      <trkpt lat="49.86897" lon="4.7744">
        <ele>315</ele>
        <time>2021-03-30T12:24:09.000Z</time>
      </trkpt>
      <trkpt lat="49.86897" lon="4.77439">
        <ele>314</ele>
        <time>2021-03-30T12:24:10.000Z</time>
      </trkpt>
      <trkpt lat="49.86897" lon="4.77439">
        <ele>314</ele>
        <time>2021-03-30T12:24:11.000Z</time>
      </trkpt>
      <trkpt lat="49.86897" lon="4.77439">
        <ele>314</ele>
        <time>2021-03-30T12:24:12.000Z</time>
      </trkpt>
      <trkpt lat="49.86897" lon="4.77439">
        <ele>313</ele>
        <time>2021-03-30T12:24:13.000Z</time>
      </trkpt>
      <trkpt lat="49.86897" lon="4.77439">
        <ele>313</ele>
        <time>2021-03-30T12:24:14.000Z</time>
      </trkpt>
      <trkpt lat="49.86897" lon="4.77439">
        <ele>313</ele>
        <time>2021-03-30T12:24:15.000Z</time>
      </trkpt>
      <trkpt lat="49.86897" lon="4.77439">
        <ele>313</ele>
        <time>2021-03-30T12:24:16.000Z</time>
      </trkpt>
      <trkpt lat="49.86897" lon="4.77439">
        <ele>313</ele>
        <time>2021-03-30T12:24:17.000Z</time>
      </trkpt>
      <trkpt lat="49.86897" lon="4.77439">
        <ele>312</ele>
        <time>2021-03-30T12:24:18.000Z</time>
      </trkpt>
      <trkpt lat="49.86897" lon="4.77439">
        <ele>312</ele>
        <time>2021-03-30T12:24:19.000Z</time>
      </trkpt>
      <trkpt lat="49.86897" lon="4.77439">
        <ele>312</ele>
        <time>2021-03-30T12:24:20.000Z</time>
      </trkpt>
      <trkpt lat="49.86897" lon="4.77439">
        <ele>312</ele>
        <time>2021-03-30T12:24:21.000Z</time>
      </trkpt>
      <trkpt lat="49.86897" lon="4.77439">
        <ele>312</ele>
        <time>2021-03-30T12:24:22.000Z</time>
      </trkpt>
      <trkpt lat="49.86897" lon="4.77439">
        <ele>312</ele>
        <time>2021-03-30T12:24:23.000Z</time>
      </trkpt>
      <trkpt lat="49.86897" lon="4.77439">
        <ele>312</ele>
        <time>2021-03-30T12:24:24.000Z</time>
      </trkpt>
      <trkpt lat="49.86897" lon="4.77439">
        <ele>311</ele>
        <time>2021-03-30T12:24:25.000Z</time>
      </trkpt>
      <trkpt lat="49.86897" lon="4.77439">
        <ele>311</ele>
        <time>2021-03-30T12:24:26.000Z</time>
      </trkpt>
      <trkpt lat="49.86897" lon="4.77439">
        <ele>311</ele>
        <time>2021-03-30T12:24:27.000Z</time>
      </trkpt>
      <trkpt lat="49.86897" lon="4.77439">
        <ele>311</ele>
        <time>2021-03-30T12:24:28.000Z</time>
      </trkpt>
      <trkpt lat="49.86897" lon="4.77439">
        <ele>311</ele>
        <time>2021-03-30T12:24:29.000Z</time>
      </trkpt>
      <trkpt lat="49.86897" lon="4.7744">
        <ele>311</ele>
        <time>2021-03-30T12:24:30.000Z</time>
      </trkpt>
      <trkpt lat="49.86897" lon="4.7744">
        <ele>311</ele>
        <time>2021-03-30T12:24:31.000Z</time>
      </trkpt>
      <trkpt lat="49.86897" lon="4.7744">
        <ele>311</ele>
        <time>2021-03-30T12:24:32.000Z</time>
      </trkpt>
      <trkpt lat="49.86897" lon="4.7744">
        <ele>311</ele>
        <time>2021-03-30T12:24:33.000Z</time>
      </trkpt>
      <trkpt lat="49.86897" lon="4.7744">
        <ele>311</ele>
        <time>2021-03-30T12:24:34.000Z</time>
      </trkpt>
      <trkpt lat="49.86897" lon="4.7744">
        <ele>311</ele>
        <time>2021-03-30T12:24:35.000Z</time>
      </trkpt>
      <trkpt lat="49.86897" lon="4.7744">
        <ele>310</ele>
        <time>2021-03-30T12:24:36.000Z</time>
      </trkpt>
      <trkpt lat="49.86897" lon="4.7744">
        <ele>310</ele>
        <time>2021-03-30T12:24:37.000Z</time>
      </trkpt>
      <trkpt lat="49.86897" lon="4.7744">
        <ele>310</ele>
        <time>2021-03-30T12:24:38.000Z</time>
      </trkpt>
      <trkpt lat="49.86897" lon="4.7744">
        <ele>310</ele>
        <time>2021-03-30T12:24:39.000Z</time>
      </trkpt>
      <trkpt lat="49.86897" lon="4.7744">
        <ele>310</ele>
        <time>2021-03-30T12:24:40.000Z</time>
      </trkpt>
      <trkpt lat="49.86897" lon="4.7744">
        <ele>310</ele>
        <time>2021-03-30T12:24:41.000Z</time>
      </trkpt>
      <trkpt lat="49.86897" lon="4.7744">
        <ele>310</ele>
        <time>2021-03-30T12:24:42.000Z</time>
      </trkpt>
      <trkpt lat="49.86897" lon="4.7744">
        <ele>310</ele>
        <time>2021-03-30T12:24:43.000Z</time>
      </trkpt>
      <trkpt lat="49.86897" lon="4.7744">
        <ele>310</ele>
        <time>2021-03-30T12:24:44.000Z</time>
      </trkpt>
      <trkpt lat="49.86897" lon="4.77441">
        <ele>310</ele>
        <time>2021-03-30T12:24:45.000Z</time>
      </trkpt>
      <trkpt lat="49.86897" lon="4.77441">
        <ele>309</ele>
        <time>2021-03-30T12:24:46.000Z</time>
      </trkpt>
      <trkpt lat="49.86897" lon="4.77441">
        <ele>309</ele>
        <time>2021-03-30T12:24:47.000Z</time>
      </trkpt>
      <trkpt lat="49.86897" lon="4.77441">
        <ele>309</ele>
        <time>2021-03-30T12:24:48.000Z</time>
      </trkpt>
      <trkpt lat="49.86897" lon="4.77441">
        <ele>309</ele>
        <time>2021-03-30T12:24:49.000Z</time>
      </trkpt>
      <trkpt lat="49.86897" lon="4.77441">
        <ele>309</ele>
        <time>2021-03-30T12:24:50.000Z</time>
      </trkpt>
      <trkpt lat="49.86897" lon="4.77441">
        <ele>309</ele>
        <time>2021-03-30T12:24:51.000Z</time>
      </trkpt>
      <trkpt lat="49.86897" lon="4.77441">
        <ele>309</ele>
        <time>2021-03-30T12:24:52.000Z</time>
      </trkpt>
      <trkpt lat="49.86897" lon="4.77441">
        <ele>308</ele>
        <time>2021-03-30T12:24:53.000Z</time>
      </trkpt>
      <trkpt lat="49.86897" lon="4.77441">
        <ele>308</ele>
        <time>2021-03-30T12:24:54.000Z</time>
      </trkpt>
      <trkpt lat="49.86897" lon="4.77441">
        <ele>308</ele>
        <time>2021-03-30T12:24:55.000Z</time>
      </trkpt>
      <trkpt lat="49.86897" lon="4.77441">
        <ele>308</ele>
        <time>2021-03-30T12:24:56.000Z</time>
      </trkpt>
      <trkpt lat="49.86897" lon="4.77441">
        <ele>308</ele>
        <time>2021-03-30T12:24:57.000Z</time>
      </trkpt>
      <trkpt lat="49.86897" lon="4.77441">
        <ele>308</ele>
        <time>2021-03-30T12:24:58.000Z</time>
      </trkpt>
      <trkpt lat="49.86897" lon="4.77441">
        <ele>308</ele>
        <time>2021-03-30T12:24:59.000Z</time>
      </trkpt>
      <trkpt lat="49.86897" lon="4.77441">
        <ele>308</ele>
        <time>2021-03-30T12:25:00.000Z</time>
      </trkpt>
      <trkpt lat="49.86897" lon="4.77441">
        <ele>308</ele>
        <time>2021-03-30T12:25:01.000Z</time>
      </trkpt>
      <trkpt lat="49.86897" lon="4.77441">
        <ele>308</ele>
        <time>2021-03-30T12:25:02.000Z</time>
      </trkpt>
      <trkpt lat="49.86897" lon="4.77441">
        <ele>308</ele>
        <time>2021-03-30T12:25:03.000Z</time>
      </trkpt>
      <trkpt lat="49.86897" lon="4.77441">
        <ele>308</ele>
        <time>2021-03-30T12:25:04.000Z</time>
      </trkpt>
      <trkpt lat="49.86897" lon="4.77441">
        <ele>308</ele>
        <time>2021-03-30T12:25:05.000Z</time>
      </trkpt>
      <trkpt lat="49.86897" lon="4.77441">
        <ele>308</ele>
        <time>2021-03-30T12:25:06.000Z</time>
      </trkpt>
      <trkpt lat="49.86897" lon="4.77441">
        <ele>308</ele>
        <time>2021-03-30T12:25:07.000Z</time>
      </trkpt>
      <trkpt lat="49.86897" lon="4.77441">
        <ele>307</ele>
        <time>2021-03-30T12:25:08.000Z</time>
      </trkpt>
      <trkpt lat="49.86897" lon="4.77441">
        <ele>307</ele>
        <time>2021-03-30T12:25:09.000Z</time>
      </trkpt>
      <trkpt lat="49.86897" lon="4.77442">
        <ele>307</ele>
        <time>2021-03-30T12:25:10.000Z</time>
      </trkpt>
      <trkpt lat="49.86897" lon="4.77442">
        <ele>307</ele>
        <time>2021-03-30T12:25:11.000Z</time>
      </trkpt>
      <trkpt lat="49.86897" lon="4.77442">
        <ele>307</ele>
        <time>2021-03-30T12:25:12.000Z</time>
      </trkpt>
      <trkpt lat="49.86897" lon="4.77442">
        <ele>307</ele>
        <time>2021-03-30T12:25:13.000Z</time>
      </trkpt>
      <trkpt lat="49.86897" lon="4.77442">
        <ele>307</ele>
        <time>2021-03-30T12:25:14.000Z</time>
      </trkpt>
      <trkpt lat="49.86897" lon="4.77442">
        <ele>307</ele>
        <time>2021-03-30T12:25:15.000Z</time>
      </trkpt>
      <trkpt lat="49.86897" lon="4.77441">
        <ele>307</ele>
        <time>2021-03-30T12:25:16.000Z</time>
      </trkpt>
      <trkpt lat="49.86897" lon="4.77441">
        <ele>307</ele>
        <time>2021-03-30T12:25:17.000Z</time>
      </trkpt>
      <trkpt lat="49.86897" lon="4.77442">
        <ele>307</ele>
        <time>2021-03-30T12:25:18.000Z</time>
      </trkpt>
      <trkpt lat="49.86897" lon="4.77442">
        <ele>307</ele>
        <time>2021-03-30T12:25:19.000Z</time>
      </trkpt>
      <trkpt lat="49.86897" lon="4.77444">
        <ele>307</ele>
        <time>2021-03-30T12:25:20.000Z</time>
      </trkpt>
      <trkpt lat="49.86898" lon="4.77446">
        <ele>307</ele>
        <time>2021-03-30T12:25:21.000Z</time>
      </trkpt>
      <trkpt lat="49.86898" lon="4.77449">
        <ele>307</ele>
        <time>2021-03-30T12:25:22.000Z</time>
      </trkpt>
      <trkpt lat="49.86899" lon="4.77453">
        <ele>307</ele>
        <time>2021-03-30T12:25:23.000Z</time>
      </trkpt>
      <trkpt lat="49.86899" lon="4.77458">
        <ele>307</ele>
        <time>2021-03-30T12:25:24.000Z</time>
      </trkpt>
      <trkpt lat="49.869" lon="4.77463">
        <ele>308</ele>
        <time>2021-03-30T12:25:25.000Z</time>
      </trkpt>
      <trkpt lat="49.86901" lon="4.77468">
        <ele>308</ele>
        <time>2021-03-30T12:25:26.000Z</time>
      </trkpt>
      <trkpt lat="49.86901" lon="4.77474">
        <ele>308</ele>
        <time>2021-03-30T12:25:27.000Z</time>
      </trkpt>
      <trkpt lat="49.86901" lon="4.77479">
        <ele>308</ele>
        <time>2021-03-30T12:25:28.000Z</time>
      </trkpt>
      <trkpt lat="49.86902" lon="4.77484">
        <ele>309</ele>
        <time>2021-03-30T12:25:29.000Z</time>
      </trkpt>
      <trkpt lat="49.86902" lon="4.77488">
        <ele>309</ele>
        <time>2021-03-30T12:25:30.000Z</time>
      </trkpt>
      <trkpt lat="49.86903" lon="4.77493">
        <ele>309</ele>
        <time>2021-03-30T12:25:31.000Z</time>
      </trkpt>
      <trkpt lat="49.86905" lon="4.77498">
        <ele>309</ele>
        <time>2021-03-30T12:25:32.000Z</time>
      </trkpt>
      <trkpt lat="49.86906" lon="4.77502">
        <ele>310</ele>
        <time>2021-03-30T12:25:33.000Z</time>
      </trkpt>
      <trkpt lat="49.86908" lon="4.77508">
        <ele>310</ele>
        <time>2021-03-30T12:25:34.000Z</time>
      </trkpt>
      <trkpt lat="49.86909" lon="4.77513">
        <ele>310</ele>
        <time>2021-03-30T12:25:35.000Z</time>
      </trkpt>
      <trkpt lat="49.8691" lon="4.77518">
        <ele>310</ele>
        <time>2021-03-30T12:25:36.000Z</time>
      </trkpt>
      <trkpt lat="49.86912" lon="4.77523">
        <ele>310</ele>
        <time>2021-03-30T12:25:37.000Z</time>
      </trkpt>
      <trkpt lat="49.86913" lon="4.77527">
        <ele>311</ele>
        <time>2021-03-30T12:25:38.000Z</time>
      </trkpt>
      <trkpt lat="49.86915" lon="4.77532">
        <ele>311</ele>
        <time>2021-03-30T12:25:39.000Z</time>
      </trkpt>
      <trkpt lat="49.86917" lon="4.77536">
        <ele>311</ele>
        <time>2021-03-30T12:25:40.000Z</time>
      </trkpt>
      <trkpt lat="49.86918" lon="4.77541">
        <ele>311</ele>
        <time>2021-03-30T12:25:41.000Z</time>
      </trkpt>
      <trkpt lat="49.8692" lon="4.77545">
        <ele>311</ele>
        <time>2021-03-30T12:25:42.000Z</time>
      </trkpt>
      <trkpt lat="49.86921" lon="4.77549">
        <ele>311</ele>
        <time>2021-03-30T12:25:43.000Z</time>
      </trkpt>
      <trkpt lat="49.86923" lon="4.77553">
        <ele>311</ele>
        <time>2021-03-30T12:25:44.000Z</time>
      </trkpt>
      <trkpt lat="49.86925" lon="4.77557">
        <ele>311</ele>
        <time>2021-03-30T12:25:45.000Z</time>
      </trkpt>
      <trkpt lat="49.86927" lon="4.77562">
        <ele>311</ele>
        <time>2021-03-30T12:25:46.000Z</time>
      </trkpt>
      <trkpt lat="49.86928" lon="4.77566">
        <ele>312</ele>
        <time>2021-03-30T12:25:47.000Z</time>
      </trkpt>
      <trkpt lat="49.8693" lon="4.7757">
        <ele>312</ele>
        <time>2021-03-30T12:25:48.000Z</time>
      </trkpt>
      <trkpt lat="49.86931" lon="4.77574">
        <ele>312</ele>
        <time>2021-03-30T12:25:49.000Z</time>
      </trkpt>
      <trkpt lat="49.86933" lon="4.77578">
        <ele>312</ele>
        <time>2021-03-30T12:25:50.000Z</time>
      </trkpt>
      <trkpt lat="49.86934" lon="4.77583">
        <ele>312</ele>
        <time>2021-03-30T12:25:51.000Z</time>
      </trkpt>
      <trkpt lat="49.86935" lon="4.77587">
        <ele>312</ele>
        <time>2021-03-30T12:25:52.000Z</time>
      </trkpt>
      <trkpt lat="49.86936" lon="4.7759">
        <ele>313</ele>
        <time>2021-03-30T12:25:53.000Z</time>
      </trkpt>
      <trkpt lat="49.86938" lon="4.77593">
        <ele>313</ele>
        <time>2021-03-30T12:25:54.000Z</time>
      </trkpt>
      <trkpt lat="49.86941" lon="4.77597">
        <ele>313</ele>
        <time>2021-03-30T12:25:55.000Z</time>
      </trkpt>
      <trkpt lat="49.86944" lon="4.776">
        <ele>313</ele>
        <time>2021-03-30T12:25:56.000Z</time>
      </trkpt>
      <trkpt lat="49.86947" lon="4.77605">
        <ele>313</ele>
        <time>2021-03-30T12:25:57.000Z</time>
      </trkpt>
      <trkpt lat="49.8695" lon="4.7761">
        <ele>313</ele>
        <time>2021-03-30T12:25:58.000Z</time>
      </trkpt>
      <trkpt lat="49.86952" lon="4.77614">
        <ele>313</ele>
        <time>2021-03-30T12:25:59.000Z</time>
      </trkpt>
      <trkpt lat="49.86954" lon="4.77619">
        <ele>313</ele>
        <time>2021-03-30T12:26:00.000Z</time>
      </trkpt>
      <trkpt lat="49.86956" lon="4.77623">
        <ele>314</ele>
        <time>2021-03-30T12:26:01.000Z</time>
      </trkpt>
      <trkpt lat="49.86959" lon="4.77626">
        <ele>314</ele>
        <time>2021-03-30T12:26:02.000Z</time>
      </trkpt>
      <trkpt lat="49.86962" lon="4.77631">
        <ele>314</ele>
        <time>2021-03-30T12:26:03.000Z</time>
      </trkpt>
      <trkpt lat="49.86965" lon="4.77635">
        <ele>314</ele>
        <time>2021-03-30T12:26:04.000Z</time>
      </trkpt>
      <trkpt lat="49.86967" lon="4.77641">
        <ele>314</ele>
        <time>2021-03-30T12:26:05.000Z</time>
      </trkpt>
      <trkpt lat="49.86969" lon="4.77646">
        <ele>315</ele>
        <time>2021-03-30T12:26:06.000Z</time>
      </trkpt>
      <trkpt lat="49.86972" lon="4.7765">
        <ele>315</ele>
        <time>2021-03-30T12:26:07.000Z</time>
      </trkpt>
      <trkpt lat="49.86975" lon="4.77656">
        <ele>315</ele>
        <time>2021-03-30T12:26:08.000Z</time>
      </trkpt>
      <trkpt lat="49.86977" lon="4.77661">
        <ele>315</ele>
        <time>2021-03-30T12:26:09.000Z</time>
      </trkpt>
      <trkpt lat="49.86979" lon="4.77666">
        <ele>315</ele>
        <time>2021-03-30T12:26:10.000Z</time>
      </trkpt>
      <trkpt lat="49.8698" lon="4.77672">
        <ele>315</ele>
        <time>2021-03-30T12:26:11.000Z</time>
      </trkpt>
      <trkpt lat="49.8698" lon="4.77677">
        <ele>316</ele>
        <time>2021-03-30T12:26:12.000Z</time>
      </trkpt>
      <trkpt lat="49.86978" lon="4.7768">
        <ele>316</ele>
        <time>2021-03-30T12:26:13.000Z</time>
      </trkpt>
      <trkpt lat="49.86976" lon="4.77682">
        <ele>316</ele>
        <time>2021-03-30T12:26:14.000Z</time>
      </trkpt>
      <trkpt lat="49.86974" lon="4.77682">
        <ele>316</ele>
        <time>2021-03-30T12:26:15.000Z</time>
      </trkpt>
      <trkpt lat="49.86972" lon="4.77682">
        <ele>316</ele>
        <time>2021-03-30T12:26:16.000Z</time>
      </trkpt>
      <trkpt lat="49.86969" lon="4.77681">
        <ele>316</ele>
        <time>2021-03-30T12:26:17.000Z</time>
      </trkpt>
      <trkpt lat="49.86967" lon="4.7768">
        <ele>317</ele>
        <time>2021-03-30T12:26:18.000Z</time>
      </trkpt>
      <trkpt lat="49.86964" lon="4.7768">
        <ele>317</ele>
        <time>2021-03-30T12:26:19.000Z</time>
      </trkpt>
      <trkpt lat="49.86961" lon="4.77679">
        <ele>317</ele>
        <time>2021-03-30T12:26:20.000Z</time>
      </trkpt>
      <trkpt lat="49.86958" lon="4.77677">
        <ele>317</ele>
        <time>2021-03-30T12:26:21.000Z</time>
      </trkpt>
      <trkpt lat="49.86956" lon="4.77674">
        <ele>317</ele>
        <time>2021-03-30T12:26:22.000Z</time>
      </trkpt>
      <trkpt lat="49.86953" lon="4.77671">
        <ele>317</ele>
        <time>2021-03-30T12:26:23.000Z</time>
      </trkpt>
      <trkpt lat="49.8695" lon="4.77669">
        <ele>317</ele>
        <time>2021-03-30T12:26:24.000Z</time>
      </trkpt>
      <trkpt lat="49.86947" lon="4.77668">
        <ele>317</ele>
        <time>2021-03-30T12:26:25.000Z</time>
      </trkpt>
      <trkpt lat="49.86944" lon="4.77668">
        <ele>317</ele>
        <time>2021-03-30T12:26:26.000Z</time>
      </trkpt>
      <trkpt lat="49.86941" lon="4.77669">
        <ele>318</ele>
        <time>2021-03-30T12:26:27.000Z</time>
      </trkpt>
      <trkpt lat="49.86937" lon="4.7767">
        <ele>318</ele>
        <time>2021-03-30T12:26:28.000Z</time>
      </trkpt>
      <trkpt lat="49.86934" lon="4.77669">
        <ele>318</ele>
        <time>2021-03-30T12:26:29.000Z</time>
      </trkpt>
      <trkpt lat="49.86931" lon="4.7767">
        <ele>318</ele>
        <time>2021-03-30T12:26:30.000Z</time>
      </trkpt>
      <trkpt lat="49.86928" lon="4.7767">
        <ele>318</ele>
        <time>2021-03-30T12:26:31.000Z</time>
      </trkpt>
      <trkpt lat="49.86925" lon="4.7767">
        <ele>318</ele>
        <time>2021-03-30T12:26:32.000Z</time>
      </trkpt>
      <trkpt lat="49.86923" lon="4.77672">
        <ele>318</ele>
        <time>2021-03-30T12:26:33.000Z</time>
      </trkpt>
      <trkpt lat="49.86921" lon="4.77675">
        <ele>318</ele>
        <time>2021-03-30T12:26:34.000Z</time>
      </trkpt>
      <trkpt lat="49.86918" lon="4.77678">
        <ele>318</ele>
        <time>2021-03-30T12:26:35.000Z</time>
      </trkpt>
      <trkpt lat="49.86915" lon="4.77679">
        <ele>319</ele>
        <time>2021-03-30T12:26:36.000Z</time>
      </trkpt>
      <trkpt lat="49.86911" lon="4.77679">
        <ele>319</ele>
        <time>2021-03-30T12:26:37.000Z</time>
      </trkpt>
      <trkpt lat="49.86907" lon="4.7768">
        <ele>319</ele>
        <time>2021-03-30T12:26:38.000Z</time>
      </trkpt>
      <trkpt lat="49.86904" lon="4.7768">
        <ele>319</ele>
        <time>2021-03-30T12:26:39.000Z</time>
      </trkpt>
      <trkpt lat="49.86901" lon="4.7768">
        <ele>319</ele>
        <time>2021-03-30T12:26:40.000Z</time>
      </trkpt>
      <trkpt lat="49.86898" lon="4.7768">
        <ele>319</ele>
        <time>2021-03-30T12:26:41.000Z</time>
      </trkpt>
      <trkpt lat="49.86894" lon="4.7768">
        <ele>319</ele>
        <time>2021-03-30T12:26:42.000Z</time>
      </trkpt>
      <trkpt lat="49.86891" lon="4.7768">
        <ele>319</ele>
        <time>2021-03-30T12:26:43.000Z</time>
      </trkpt>
      <trkpt lat="49.86888" lon="4.77681">
        <ele>319</ele>
        <time>2021-03-30T12:26:44.000Z</time>
      </trkpt>
      <trkpt lat="49.86885" lon="4.77682">
        <ele>319</ele>
        <time>2021-03-30T12:26:45.000Z</time>
      </trkpt>
      <trkpt lat="49.86881" lon="4.77682">
        <ele>320</ele>
        <time>2021-03-30T12:26:46.000Z</time>
      </trkpt>
      <trkpt lat="49.86878" lon="4.77682">
        <ele>320</ele>
        <time>2021-03-30T12:26:47.000Z</time>
      </trkpt>
      <trkpt lat="49.86875" lon="4.77682">
        <ele>320</ele>
        <time>2021-03-30T12:26:48.000Z</time>
      </trkpt>
      <trkpt lat="49.86871" lon="4.77683">
        <ele>320</ele>
        <time>2021-03-30T12:26:49.000Z</time>
      </trkpt>
      <trkpt lat="49.86867" lon="4.77684">
        <ele>320</ele>
        <time>2021-03-30T12:26:50.000Z</time>
      </trkpt>
      <trkpt lat="49.86863" lon="4.77685">
        <ele>320</ele>
        <time>2021-03-30T12:26:51.000Z</time>
      </trkpt>
      <trkpt lat="49.86859" lon="4.77686">
        <ele>320</ele>
        <time>2021-03-30T12:26:52.000Z</time>
      </trkpt>
      <trkpt lat="49.86855" lon="4.77687">
        <ele>320</ele>
        <time>2021-03-30T12:26:53.000Z</time>
      </trkpt>
      <trkpt lat="49.8685" lon="4.77688">
        <ele>320</ele>
        <time>2021-03-30T12:26:54.000Z</time>
      </trkpt>
      <trkpt lat="49.86846" lon="4.77688">
        <ele>320</ele>
        <time>2021-03-30T12:26:55.000Z</time>
      </trkpt>
      <trkpt lat="49.86841" lon="4.77688">
        <ele>320</ele>
        <time>2021-03-30T12:26:56.000Z</time>
      </trkpt>
      <trkpt lat="49.86837" lon="4.77689">
        <ele>320</ele>
        <time>2021-03-30T12:26:57.000Z</time>
      </trkpt>
      <trkpt lat="49.86832" lon="4.77688">
        <ele>320</ele>
        <time>2021-03-30T12:26:58.000Z</time>
      </trkpt>
      <trkpt lat="49.86827" lon="4.77686">
        <ele>320</ele>
        <time>2021-03-30T12:26:59.000Z</time>
      </trkpt>
      <trkpt lat="49.86823" lon="4.77683">
        <ele>320</ele>
        <time>2021-03-30T12:27:00.000Z</time>
      </trkpt>
      <trkpt lat="49.86819" lon="4.7768">
        <ele>320</ele>
        <time>2021-03-30T12:27:01.000Z</time>
      </trkpt>
      <trkpt lat="49.86815" lon="4.77677">
        <ele>321</ele>
        <time>2021-03-30T12:27:02.000Z</time>
      </trkpt>
      <trkpt lat="49.86811" lon="4.77674">
        <ele>321</ele>
        <time>2021-03-30T12:27:03.000Z</time>
      </trkpt>
      <trkpt lat="49.86807" lon="4.77672">
        <ele>321</ele>
        <time>2021-03-30T12:27:04.000Z</time>
      </trkpt>
      <trkpt lat="49.86802" lon="4.7767">
        <ele>321</ele>
        <time>2021-03-30T12:27:05.000Z</time>
      </trkpt>
      <trkpt lat="49.86798" lon="4.77668">
        <ele>320</ele>
        <time>2021-03-30T12:27:06.000Z</time>
      </trkpt>
      <trkpt lat="49.86795" lon="4.77666">
        <ele>320</ele>
        <time>2021-03-30T12:27:07.000Z</time>
      </trkpt>
      <trkpt lat="49.86793" lon="4.77665">
        <ele>320</ele>
        <time>2021-03-30T12:27:08.000Z</time>
      </trkpt>
      <trkpt lat="49.86792" lon="4.77664">
        <ele>320</ele>
        <time>2021-03-30T12:27:09.000Z</time>
      </trkpt>
      <trkpt lat="49.86791" lon="4.77663">
        <ele>320</ele>
        <time>2021-03-30T12:27:10.000Z</time>
      </trkpt>
      <trkpt lat="49.86789" lon="4.77663">
        <ele>320</ele>
        <time>2021-03-30T12:27:11.000Z</time>
      </trkpt>
      <trkpt lat="49.86788" lon="4.77661">
        <ele>320</ele>
        <time>2021-03-30T12:27:12.000Z</time>
      </trkpt>
      <trkpt lat="49.86785" lon="4.77659">
        <ele>320</ele>
        <time>2021-03-30T12:27:13.000Z</time>
      </trkpt>
      <trkpt lat="49.86782" lon="4.77657">
        <ele>320</ele>
        <time>2021-03-30T12:27:14.000Z</time>
      </trkpt>
      <trkpt lat="49.86779" lon="4.77654">
        <ele>320</ele>
        <time>2021-03-30T12:27:15.000Z</time>
      </trkpt>
      <trkpt lat="49.86775" lon="4.7765">
        <ele>320</ele>
        <time>2021-03-30T12:27:16.000Z</time>
      </trkpt>
      <trkpt lat="49.86771" lon="4.77647">
        <ele>320</ele>
        <time>2021-03-30T12:27:17.000Z</time>
      </trkpt>
      <trkpt lat="49.86768" lon="4.77645">
        <ele>320</ele>
        <time>2021-03-30T12:27:18.000Z</time>
      </trkpt>
      <trkpt lat="49.86763" lon="4.77644">
        <ele>320</ele>
        <time>2021-03-30T12:27:19.000Z</time>
      </trkpt>
      <trkpt lat="49.86759" lon="4.77643">
        <ele>320</ele>
        <time>2021-03-30T12:27:20.000Z</time>
      </trkpt>
      <trkpt lat="49.86755" lon="4.77643">
        <ele>320</ele>
        <time>2021-03-30T12:27:21.000Z</time>
      </trkpt>
      <trkpt lat="49.8675" lon="4.77642">
        <ele>319</ele>
        <time>2021-03-30T12:27:22.000Z</time>
      </trkpt>
      <trkpt lat="49.86744" lon="4.7764">
        <ele>319</ele>
        <time>2021-03-30T12:27:23.000Z</time>
      </trkpt>
      <trkpt lat="49.86739" lon="4.77639">
        <ele>319</ele>
        <time>2021-03-30T12:27:24.000Z</time>
      </trkpt>
      <trkpt lat="49.86733" lon="4.77637">
        <ele>319</ele>
        <time>2021-03-30T12:27:25.000Z</time>
      </trkpt>
      <trkpt lat="49.86727" lon="4.77636">
        <ele>319</ele>
        <time>2021-03-30T12:27:26.000Z</time>
      </trkpt>
      <trkpt lat="49.86722" lon="4.77635">
        <ele>318</ele>
        <time>2021-03-30T12:27:27.000Z</time>
      </trkpt>
      <trkpt lat="49.86715" lon="4.77635">
        <ele>318</ele>
        <time>2021-03-30T12:27:28.000Z</time>
      </trkpt>
      <trkpt lat="49.8671" lon="4.77635">
        <ele>318</ele>
        <time>2021-03-30T12:27:29.000Z</time>
      </trkpt>
      <trkpt lat="49.86704" lon="4.77636">
        <ele>317</ele>
        <time>2021-03-30T12:27:30.000Z</time>
      </trkpt>
      <trkpt lat="49.86698" lon="4.77639">
        <ele>317</ele>
        <time>2021-03-30T12:27:31.000Z</time>
      </trkpt>
      <trkpt lat="49.86692" lon="4.77642">
        <ele>317</ele>
        <time>2021-03-30T12:27:32.000Z</time>
      </trkpt>
      <trkpt lat="49.86685" lon="4.77644">
        <ele>316</ele>
        <time>2021-03-30T12:27:33.000Z</time>
      </trkpt>
      <trkpt lat="49.86678" lon="4.77647">
        <ele>316</ele>
        <time>2021-03-30T12:27:34.000Z</time>
      </trkpt>
      <trkpt lat="49.86671" lon="4.7765">
        <ele>315</ele>
        <time>2021-03-30T12:27:35.000Z</time>
      </trkpt>
      <trkpt lat="49.86664" lon="4.77652">
        <ele>315</ele>
        <time>2021-03-30T12:27:36.000Z</time>
      </trkpt>
      <trkpt lat="49.86657" lon="4.77653">
        <ele>315</ele>
        <time>2021-03-30T12:27:37.000Z</time>
      </trkpt>
      <trkpt lat="49.8665" lon="4.77655">
        <ele>314</ele>
        <time>2021-03-30T12:27:38.000Z</time>
      </trkpt>
      <trkpt lat="49.86644" lon="4.77658">
        <ele>314</ele>
        <time>2021-03-30T12:27:39.000Z</time>
      </trkpt>
      <trkpt lat="49.86638" lon="4.7766">
        <ele>314</ele>
        <time>2021-03-30T12:27:40.000Z</time>
      </trkpt>
      <trkpt lat="49.86633" lon="4.77662">
        <ele>314</ele>
        <time>2021-03-30T12:27:41.000Z</time>
      </trkpt>
      <trkpt lat="49.86628" lon="4.77663">
        <ele>313</ele>
        <time>2021-03-30T12:27:42.000Z</time>
      </trkpt>
      <trkpt lat="49.86623" lon="4.77664">
        <ele>313</ele>
        <time>2021-03-30T12:27:43.000Z</time>
      </trkpt>
      <trkpt lat="49.86617" lon="4.77666">
        <ele>313</ele>
        <time>2021-03-30T12:27:44.000Z</time>
      </trkpt>
      <trkpt lat="49.86612" lon="4.77667">
        <ele>313</ele>
        <time>2021-03-30T12:27:45.000Z</time>
      </trkpt>
      <trkpt lat="49.86606" lon="4.77667">
        <ele>313</ele>
        <time>2021-03-30T12:27:46.000Z</time>
      </trkpt>
      <trkpt lat="49.866" lon="4.77667">
        <ele>312</ele>
        <time>2021-03-30T12:27:47.000Z</time>
      </trkpt>
      <trkpt lat="49.86596" lon="4.77666">
        <ele>312</ele>
        <time>2021-03-30T12:27:48.000Z</time>
      </trkpt>
      <trkpt lat="49.86592" lon="4.77667">
        <ele>312</ele>
        <time>2021-03-30T12:27:49.000Z</time>
      </trkpt>
      <trkpt lat="49.86589" lon="4.77668">
        <ele>312</ele>
        <time>2021-03-30T12:27:50.000Z</time>
      </trkpt>
      <trkpt lat="49.86585" lon="4.7767">
        <ele>312</ele>
        <time>2021-03-30T12:27:51.000Z</time>
      </trkpt>
      <trkpt lat="49.86582" lon="4.77673">
        <ele>312</ele>
        <time>2021-03-30T12:27:52.000Z</time>
      </trkpt>
      <trkpt lat="49.86579" lon="4.77675">
        <ele>312</ele>
        <time>2021-03-30T12:27:53.000Z</time>
      </trkpt>
      <trkpt lat="49.86577" lon="4.77677">
        <ele>312</ele>
        <time>2021-03-30T12:27:54.000Z</time>
      </trkpt>
      <trkpt lat="49.86574" lon="4.77679">
        <ele>312</ele>
        <time>2021-03-30T12:27:55.000Z</time>
      </trkpt>
      <trkpt lat="49.86572" lon="4.77681">
        <ele>312</ele>
        <time>2021-03-30T12:27:56.000Z</time>
      </trkpt>
      <trkpt lat="49.86569" lon="4.77682">
        <ele>312</ele>
        <time>2021-03-30T12:27:57.000Z</time>
      </trkpt>
      <trkpt lat="49.86567" lon="4.77683">
        <ele>312</ele>
        <time>2021-03-30T12:27:58.000Z</time>
      </trkpt>
      <trkpt lat="49.86564" lon="4.77682">
        <ele>312</ele>
        <time>2021-03-30T12:27:59.000Z</time>
      </trkpt>
      <trkpt lat="49.86562" lon="4.77681">
        <ele>312</ele>
        <time>2021-03-30T12:28:00.000Z</time>
      </trkpt>
      <trkpt lat="49.86559" lon="4.7768">
        <ele>312</ele>
        <time>2021-03-30T12:28:01.000Z</time>
      </trkpt>
      <trkpt lat="49.86556" lon="4.77681">
        <ele>312</ele>
        <time>2021-03-30T12:28:02.000Z</time>
      </trkpt>
      <trkpt lat="49.86553" lon="4.77683">
        <ele>312</ele>
        <time>2021-03-30T12:28:03.000Z</time>
      </trkpt>
      <trkpt lat="49.86549" lon="4.77686">
        <ele>312</ele>
        <time>2021-03-30T12:28:04.000Z</time>
      </trkpt>
      <trkpt lat="49.86545" lon="4.77689">
        <ele>311</ele>
        <time>2021-03-30T12:28:05.000Z</time>
      </trkpt>
      <trkpt lat="49.8654" lon="4.77691">
        <ele>311</ele>
        <time>2021-03-30T12:28:06.000Z</time>
      </trkpt>
      <trkpt lat="49.86534" lon="4.77694">
        <ele>310</ele>
        <time>2021-03-30T12:28:07.000Z</time>
      </trkpt>
      <trkpt lat="49.86527" lon="4.77697">
        <ele>310</ele>
        <time>2021-03-30T12:28:08.000Z</time>
      </trkpt>
      <trkpt lat="49.86521" lon="4.777">
        <ele>310</ele>
        <time>2021-03-30T12:28:09.000Z</time>
      </trkpt>
      <trkpt lat="49.86514" lon="4.77702">
        <ele>310</ele>
        <time>2021-03-30T12:28:10.000Z</time>
      </trkpt>
      <trkpt lat="49.86509" lon="4.77703">
        <ele>310</ele>
        <time>2021-03-30T12:28:11.000Z</time>
      </trkpt>
      <trkpt lat="49.86503" lon="4.77703">
        <ele>310</ele>
        <time>2021-03-30T12:28:12.000Z</time>
      </trkpt>
      <trkpt lat="49.86498" lon="4.77703">
        <ele>309</ele>
        <time>2021-03-30T12:28:13.000Z</time>
      </trkpt>
      <trkpt lat="49.86493" lon="4.77704">
        <ele>309</ele>
        <time>2021-03-30T12:28:14.000Z</time>
      </trkpt>
      <trkpt lat="49.86488" lon="4.77707">
        <ele>309</ele>
        <time>2021-03-30T12:28:15.000Z</time>
      </trkpt>
      <trkpt lat="49.86484" lon="4.77709">
        <ele>309</ele>
        <time>2021-03-30T12:28:16.000Z</time>
      </trkpt>
      <trkpt lat="49.86479" lon="4.7771">
        <ele>309</ele>
        <time>2021-03-30T12:28:17.000Z</time>
      </trkpt>
      <trkpt lat="49.86474" lon="4.77711">
        <ele>309</ele>
        <time>2021-03-30T12:28:18.000Z</time>
      </trkpt>
      <trkpt lat="49.86468" lon="4.77714">
        <ele>309</ele>
        <time>2021-03-30T12:28:19.000Z</time>
      </trkpt>
      <trkpt lat="49.86461" lon="4.77717">
        <ele>309</ele>
        <time>2021-03-30T12:28:20.000Z</time>
      </trkpt>
      <trkpt lat="49.86454" lon="4.77719">
        <ele>309</ele>
        <time>2021-03-30T12:28:21.000Z</time>
      </trkpt>
      <trkpt lat="49.86447" lon="4.7772">
        <ele>309</ele>
        <time>2021-03-30T12:28:22.000Z</time>
      </trkpt>
      <trkpt lat="49.8644" lon="4.77723">
        <ele>308</ele>
        <time>2021-03-30T12:28:23.000Z</time>
      </trkpt>
      <trkpt lat="49.86432" lon="4.77725">
        <ele>308</ele>
        <time>2021-03-30T12:28:24.000Z</time>
      </trkpt>
      <trkpt lat="49.86425" lon="4.77727">
        <ele>308</ele>
        <time>2021-03-30T12:28:25.000Z</time>
      </trkpt>
      <trkpt lat="49.86418" lon="4.77727">
        <ele>308</ele>
        <time>2021-03-30T12:28:26.000Z</time>
      </trkpt>
      <trkpt lat="49.86412" lon="4.77726">
        <ele>308</ele>
        <time>2021-03-30T12:28:27.000Z</time>
      </trkpt>
      <trkpt lat="49.86405" lon="4.77726">
        <ele>308</ele>
        <time>2021-03-30T12:28:28.000Z</time>
      </trkpt>
      <trkpt lat="49.86399" lon="4.77726">
        <ele>307</ele>
        <time>2021-03-30T12:28:29.000Z</time>
      </trkpt>
      <trkpt lat="49.86392" lon="4.77726">
        <ele>307</ele>
        <time>2021-03-30T12:28:30.000Z</time>
      </trkpt>
      <trkpt lat="49.86387" lon="4.77729">
        <ele>307</ele>
        <time>2021-03-30T12:28:31.000Z</time>
      </trkpt>
      <trkpt lat="49.86382" lon="4.77732">
        <ele>307</ele>
        <time>2021-03-30T12:28:32.000Z</time>
      </trkpt>
      <trkpt lat="49.86379" lon="4.77738">
        <ele>307</ele>
        <time>2021-03-30T12:28:33.000Z</time>
      </trkpt>
      <trkpt lat="49.86375" lon="4.77743">
        <ele>307</ele>
        <time>2021-03-30T12:28:34.000Z</time>
      </trkpt>
      <trkpt lat="49.86373" lon="4.77749">
        <ele>307</ele>
        <time>2021-03-30T12:28:35.000Z</time>
      </trkpt>
      <trkpt lat="49.8637" lon="4.77753">
        <ele>307</ele>
        <time>2021-03-30T12:28:36.000Z</time>
      </trkpt>
      <trkpt lat="49.86368" lon="4.77757">
        <ele>307</ele>
        <time>2021-03-30T12:28:37.000Z</time>
      </trkpt>
      <trkpt lat="49.86367" lon="4.77761">
        <ele>308</ele>
        <time>2021-03-30T12:28:38.000Z</time>
      </trkpt>
      <trkpt lat="49.86365" lon="4.77765">
        <ele>308</ele>
        <time>2021-03-30T12:28:39.000Z</time>
      </trkpt>
      <trkpt lat="49.86364" lon="4.77768">
        <ele>309</ele>
        <time>2021-03-30T12:28:40.000Z</time>
      </trkpt>
      <trkpt lat="49.86363" lon="4.77773">
        <ele>309</ele>
        <time>2021-03-30T12:28:41.000Z</time>
      </trkpt>
      <trkpt lat="49.86363" lon="4.77778">
        <ele>310</ele>
        <time>2021-03-30T12:28:42.000Z</time>
      </trkpt>
      <trkpt lat="49.86363" lon="4.77782">
        <ele>310</ele>
        <time>2021-03-30T12:28:43.000Z</time>
      </trkpt>
      <trkpt lat="49.86362" lon="4.77786">
        <ele>311</ele>
        <time>2021-03-30T12:28:44.000Z</time>
      </trkpt>
      <trkpt lat="49.86362" lon="4.7779">
        <ele>312</ele>
        <time>2021-03-30T12:28:45.000Z</time>
      </trkpt>
      <trkpt lat="49.86362" lon="4.77794">
        <ele>312</ele>
        <time>2021-03-30T12:28:46.000Z</time>
      </trkpt>
      <trkpt lat="49.86361" lon="4.77798">
        <ele>313</ele>
        <time>2021-03-30T12:28:47.000Z</time>
      </trkpt>
      <trkpt lat="49.8636" lon="4.77802">
        <ele>314</ele>
        <time>2021-03-30T12:28:48.000Z</time>
      </trkpt>
      <trkpt lat="49.86359" lon="4.77806">
        <ele>314</ele>
        <time>2021-03-30T12:28:49.000Z</time>
      </trkpt>
      <trkpt lat="49.86358" lon="4.7781">
        <ele>315</ele>
        <time>2021-03-30T12:28:50.000Z</time>
      </trkpt>
      <trkpt lat="49.86358" lon="4.77815">
        <ele>315</ele>
        <time>2021-03-30T12:28:51.000Z</time>
      </trkpt>
      <trkpt lat="49.86357" lon="4.77819">
        <ele>316</ele>
        <time>2021-03-30T12:28:52.000Z</time>
      </trkpt>
      <trkpt lat="49.86355" lon="4.77822">
        <ele>316</ele>
        <time>2021-03-30T12:28:53.000Z</time>
      </trkpt>
      <trkpt lat="49.86353" lon="4.77824">
        <ele>317</ele>
        <time>2021-03-30T12:28:54.000Z</time>
      </trkpt>
      <trkpt lat="49.8635" lon="4.77824">
        <ele>317</ele>
        <time>2021-03-30T12:28:55.000Z</time>
      </trkpt>
      <trkpt lat="49.86347" lon="4.77824">
        <ele>317</ele>
        <time>2021-03-30T12:28:56.000Z</time>
      </trkpt>
      <trkpt lat="49.86343" lon="4.77823">
        <ele>317</ele>
        <time>2021-03-30T12:28:57.000Z</time>
      </trkpt>
      <trkpt lat="49.8634" lon="4.77823">
        <ele>318</ele>
        <time>2021-03-30T12:28:58.000Z</time>
      </trkpt>
      <trkpt lat="49.86336" lon="4.77823">
        <ele>318</ele>
        <time>2021-03-30T12:28:59.000Z</time>
      </trkpt>
      <trkpt lat="49.86332" lon="4.77823">
        <ele>318</ele>
        <time>2021-03-30T12:29:00.000Z</time>
      </trkpt>
      <trkpt lat="49.86328" lon="4.77824">
        <ele>318</ele>
        <time>2021-03-30T12:29:01.000Z</time>
      </trkpt>
      <trkpt lat="49.86323" lon="4.77824">
        <ele>318</ele>
        <time>2021-03-30T12:29:02.000Z</time>
      </trkpt>
      <trkpt lat="49.86319" lon="4.77826">
        <ele>318</ele>
        <time>2021-03-30T12:29:03.000Z</time>
      </trkpt>
      <trkpt lat="49.86315" lon="4.77826">
        <ele>318</ele>
        <time>2021-03-30T12:29:04.000Z</time>
      </trkpt>
      <trkpt lat="49.86311" lon="4.77826">
        <ele>318</ele>
        <time>2021-03-30T12:29:05.000Z</time>
      </trkpt>
      <trkpt lat="49.86308" lon="4.77826">
        <ele>318</ele>
        <time>2021-03-30T12:29:06.000Z</time>
      </trkpt>
      <trkpt lat="49.86305" lon="4.77828">
        <ele>318</ele>
        <time>2021-03-30T12:29:07.000Z</time>
      </trkpt>
      <trkpt lat="49.86303" lon="4.77832">
        <ele>318</ele>
        <time>2021-03-30T12:29:08.000Z</time>
      </trkpt>
      <trkpt lat="49.863" lon="4.77836">
        <ele>318</ele>
        <time>2021-03-30T12:29:09.000Z</time>
      </trkpt>
      <trkpt lat="49.86298" lon="4.77839">
        <ele>318</ele>
        <time>2021-03-30T12:29:10.000Z</time>
      </trkpt>
      <trkpt lat="49.86297" lon="4.77842">
        <ele>318</ele>
        <time>2021-03-30T12:29:11.000Z</time>
      </trkpt>
      <trkpt lat="49.86295" lon="4.77844">
        <ele>318</ele>
        <time>2021-03-30T12:29:12.000Z</time>
      </trkpt>
      <trkpt lat="49.86294" lon="4.77846">
        <ele>318</ele>
        <time>2021-03-30T12:29:13.000Z</time>
      </trkpt>
      <trkpt lat="49.86293" lon="4.77848">
        <ele>318</ele>
        <time>2021-03-30T12:29:14.000Z</time>
      </trkpt>
      <trkpt lat="49.86291" lon="4.7785">
        <ele>318</ele>
        <time>2021-03-30T12:29:15.000Z</time>
      </trkpt>
      <trkpt lat="49.86288" lon="4.77852">
        <ele>318</ele>
        <time>2021-03-30T12:29:16.000Z</time>
      </trkpt>
      <trkpt lat="49.86285" lon="4.77853">
        <ele>318</ele>
        <time>2021-03-30T12:29:17.000Z</time>
      </trkpt>
      <trkpt lat="49.86281" lon="4.77854">
        <ele>318</ele>
        <time>2021-03-30T12:29:18.000Z</time>
      </trkpt>
      <trkpt lat="49.86277" lon="4.77855">
        <ele>318</ele>
        <time>2021-03-30T12:29:19.000Z</time>
      </trkpt>
      <trkpt lat="49.86274" lon="4.77854">
        <ele>318</ele>
        <time>2021-03-30T12:29:20.000Z</time>
      </trkpt>
      <trkpt lat="49.8627" lon="4.77852">
        <ele>318</ele>
        <time>2021-03-30T12:29:21.000Z</time>
      </trkpt>
      <trkpt lat="49.86267" lon="4.77849">
        <ele>318</ele>
        <time>2021-03-30T12:29:22.000Z</time>
      </trkpt>
      <trkpt lat="49.86263" lon="4.77844">
        <ele>318</ele>
        <time>2021-03-30T12:29:23.000Z</time>
      </trkpt>
      <trkpt lat="49.86262" lon="4.77838">
        <ele>318</ele>
        <time>2021-03-30T12:29:24.000Z</time>
      </trkpt>
      <trkpt lat="49.86262" lon="4.77832">
        <ele>318</ele>
        <time>2021-03-30T12:29:25.000Z</time>
      </trkpt>
      <trkpt lat="49.86263" lon="4.77825">
        <ele>319</ele>
        <time>2021-03-30T12:29:26.000Z</time>
      </trkpt>
      <trkpt lat="49.86265" lon="4.77819">
        <ele>319</ele>
        <time>2021-03-30T12:29:27.000Z</time>
      </trkpt>
      <trkpt lat="49.86265" lon="4.77813">
        <ele>319</ele>
        <time>2021-03-30T12:29:28.000Z</time>
      </trkpt>
      <trkpt lat="49.86266" lon="4.77808">
        <ele>319</ele>
        <time>2021-03-30T12:29:29.000Z</time>
      </trkpt>
      <trkpt lat="49.86267" lon="4.77801">
        <ele>319</ele>
        <time>2021-03-30T12:29:30.000Z</time>
      </trkpt>
      <trkpt lat="49.86268" lon="4.77794">
        <ele>319</ele>
        <time>2021-03-30T12:29:31.000Z</time>
      </trkpt>
      <trkpt lat="49.86269" lon="4.77787">
        <ele>319</ele>
        <time>2021-03-30T12:29:32.000Z</time>
      </trkpt>
      <trkpt lat="49.86269" lon="4.77779">
        <ele>319</ele>
        <time>2021-03-30T12:29:33.000Z</time>
      </trkpt>
      <trkpt lat="49.86271" lon="4.77772">
        <ele>320</ele>
        <time>2021-03-30T12:29:34.000Z</time>
      </trkpt>
      <trkpt lat="49.86272" lon="4.77765">
        <ele>320</ele>
        <time>2021-03-30T12:29:35.000Z</time>
      </trkpt>
      <trkpt lat="49.86274" lon="4.77758">
        <ele>320</ele>
        <time>2021-03-30T12:29:36.000Z</time>
      </trkpt>
      <trkpt lat="49.86275" lon="4.77751">
        <ele>320</ele>
        <time>2021-03-30T12:29:37.000Z</time>
      </trkpt>
      <trkpt lat="49.86275" lon="4.77743">
        <ele>321</ele>
        <time>2021-03-30T12:29:38.000Z</time>
      </trkpt>
      <trkpt lat="49.86274" lon="4.77736">
        <ele>321</ele>
        <time>2021-03-30T12:29:39.000Z</time>
      </trkpt>
      <trkpt lat="49.86271" lon="4.77731">
        <ele>321</ele>
        <time>2021-03-30T12:29:40.000Z</time>
      </trkpt>
      <trkpt lat="49.86268" lon="4.77727">
        <ele>321</ele>
        <time>2021-03-30T12:29:41.000Z</time>
      </trkpt>
      <trkpt lat="49.86264" lon="4.77724">
        <ele>320</ele>
        <time>2021-03-30T12:29:42.000Z</time>
      </trkpt>
      <trkpt lat="49.8626" lon="4.77722">
        <ele>320</ele>
        <time>2021-03-30T12:29:43.000Z</time>
      </trkpt>
      <trkpt lat="49.86257" lon="4.7772">
        <ele>320</ele>
        <time>2021-03-30T12:29:44.000Z</time>
      </trkpt>
      <trkpt lat="49.86253" lon="4.77718">
        <ele>320</ele>
        <time>2021-03-30T12:29:45.000Z</time>
      </trkpt>
      <trkpt lat="49.8625" lon="4.77716">
        <ele>320</ele>
        <time>2021-03-30T12:29:46.000Z</time>
      </trkpt>
      <trkpt lat="49.86247" lon="4.77714">
        <ele>320</ele>
        <time>2021-03-30T12:29:47.000Z</time>
      </trkpt>
      <trkpt lat="49.86243" lon="4.77712">
        <ele>320</ele>
        <time>2021-03-30T12:29:48.000Z</time>
      </trkpt>
      <trkpt lat="49.8624" lon="4.7771">
        <ele>320</ele>
        <time>2021-03-30T12:29:49.000Z</time>
      </trkpt>
      <trkpt lat="49.86236" lon="4.77709">
        <ele>321</ele>
        <time>2021-03-30T12:29:50.000Z</time>
      </trkpt>
      <trkpt lat="49.86233" lon="4.77707">
        <ele>321</ele>
        <time>2021-03-30T12:29:51.000Z</time>
      </trkpt>
      <trkpt lat="49.8623" lon="4.77705">
        <ele>321</ele>
        <time>2021-03-30T12:29:52.000Z</time>
      </trkpt>
      <trkpt lat="49.86226" lon="4.77704">
        <ele>321</ele>
        <time>2021-03-30T12:29:53.000Z</time>
      </trkpt>
      <trkpt lat="49.86223" lon="4.77702">
        <ele>321</ele>
        <time>2021-03-30T12:29:54.000Z</time>
      </trkpt>
      <trkpt lat="49.86219" lon="4.777">
        <ele>321</ele>
        <time>2021-03-30T12:29:55.000Z</time>
      </trkpt>
      <trkpt lat="49.86216" lon="4.77698">
        <ele>321</ele>
        <time>2021-03-30T12:29:56.000Z</time>
      </trkpt>
      <trkpt lat="49.86212" lon="4.77697">
        <ele>321</ele>
        <time>2021-03-30T12:29:57.000Z</time>
      </trkpt>
      <trkpt lat="49.86209" lon="4.77695">
        <ele>321</ele>
        <time>2021-03-30T12:29:58.000Z</time>
      </trkpt>
      <trkpt lat="49.86205" lon="4.77694">
        <ele>321</ele>
        <time>2021-03-30T12:29:59.000Z</time>
      </trkpt>
      <trkpt lat="49.86201" lon="4.77692">
        <ele>321</ele>
        <time>2021-03-30T12:30:00.000Z</time>
      </trkpt>
      <trkpt lat="49.86196" lon="4.77691">
        <ele>321</ele>
        <time>2021-03-30T12:30:01.000Z</time>
      </trkpt>
      <trkpt lat="49.8619" lon="4.77689">
        <ele>321</ele>
        <time>2021-03-30T12:30:02.000Z</time>
      </trkpt>
      <trkpt lat="49.86185" lon="4.77688">
        <ele>321</ele>
        <time>2021-03-30T12:30:03.000Z</time>
      </trkpt>
      <trkpt lat="49.86179" lon="4.77687">
        <ele>321</ele>
        <time>2021-03-30T12:30:04.000Z</time>
      </trkpt>
      <trkpt lat="49.86174" lon="4.77686">
        <ele>321</ele>
        <time>2021-03-30T12:30:05.000Z</time>
      </trkpt>
      <trkpt lat="49.86169" lon="4.77685">
        <ele>321</ele>
        <time>2021-03-30T12:30:06.000Z</time>
      </trkpt>
      <trkpt lat="49.86164" lon="4.77684">
        <ele>321</ele>
        <time>2021-03-30T12:30:07.000Z</time>
      </trkpt>
      <trkpt lat="49.86159" lon="4.77683">
        <ele>321</ele>
        <time>2021-03-30T12:30:08.000Z</time>
      </trkpt>
      <trkpt lat="49.86155" lon="4.77683">
        <ele>321</ele>
        <time>2021-03-30T12:30:09.000Z</time>
      </trkpt>
      <trkpt lat="49.86151" lon="4.77682">
        <ele>321</ele>
        <time>2021-03-30T12:30:10.000Z</time>
      </trkpt>
      <trkpt lat="49.86147" lon="4.77682">
        <ele>321</ele>
        <time>2021-03-30T12:30:11.000Z</time>
      </trkpt>
      <trkpt lat="49.86142" lon="4.77681">
        <ele>321</ele>
        <time>2021-03-30T12:30:12.000Z</time>
      </trkpt>
      <trkpt lat="49.86138" lon="4.77681">
        <ele>322</ele>
        <time>2021-03-30T12:30:13.000Z</time>
      </trkpt>
      <trkpt lat="49.86135" lon="4.77681">
        <ele>322</ele>
        <time>2021-03-30T12:30:14.000Z</time>
      </trkpt>
      <trkpt lat="49.86131" lon="4.77682">
        <ele>322</ele>
        <time>2021-03-30T12:30:15.000Z</time>
      </trkpt>
      <trkpt lat="49.86128" lon="4.77683">
        <ele>322</ele>
        <time>2021-03-30T12:30:16.000Z</time>
      </trkpt>
      <trkpt lat="49.86125" lon="4.77683">
        <ele>322</ele>
        <time>2021-03-30T12:30:17.000Z</time>
      </trkpt>
      <trkpt lat="49.86122" lon="4.77682">
        <ele>322</ele>
        <time>2021-03-30T12:30:18.000Z</time>
      </trkpt>
      <trkpt lat="49.86118" lon="4.77682">
        <ele>323</ele>
        <time>2021-03-30T12:30:19.000Z</time>
      </trkpt>
      <trkpt lat="49.86115" lon="4.77682">
        <ele>323</ele>
        <time>2021-03-30T12:30:20.000Z</time>
      </trkpt>
      <trkpt lat="49.86111" lon="4.77682">
        <ele>323</ele>
        <time>2021-03-30T12:30:21.000Z</time>
      </trkpt>
      <trkpt lat="49.86107" lon="4.77681">
        <ele>323</ele>
        <time>2021-03-30T12:30:22.000Z</time>
      </trkpt>
      <trkpt lat="49.86103" lon="4.77682">
        <ele>323</ele>
        <time>2021-03-30T12:30:23.000Z</time>
      </trkpt>
      <trkpt lat="49.86099" lon="4.77682">
        <ele>324</ele>
        <time>2021-03-30T12:30:24.000Z</time>
      </trkpt>
      <trkpt lat="49.86094" lon="4.77684">
        <ele>324</ele>
        <time>2021-03-30T12:30:25.000Z</time>
      </trkpt>
      <trkpt lat="49.8609" lon="4.77684">
        <ele>324</ele>
        <time>2021-03-30T12:30:26.000Z</time>
      </trkpt>
      <trkpt lat="49.86086" lon="4.77685">
        <ele>324</ele>
        <time>2021-03-30T12:30:27.000Z</time>
      </trkpt>
      <trkpt lat="49.86082" lon="4.77685">
        <ele>324</ele>
        <time>2021-03-30T12:30:28.000Z</time>
      </trkpt>
      <trkpt lat="49.86076" lon="4.77685">
        <ele>324</ele>
        <time>2021-03-30T12:30:29.000Z</time>
      </trkpt>
      <trkpt lat="49.86071" lon="4.77686">
        <ele>324</ele>
        <time>2021-03-30T12:30:30.000Z</time>
      </trkpt>
      <trkpt lat="49.86065" lon="4.77687">
        <ele>324</ele>
        <time>2021-03-30T12:30:31.000Z</time>
      </trkpt>
      <trkpt lat="49.86059" lon="4.77689">
        <ele>324</ele>
        <time>2021-03-30T12:30:32.000Z</time>
      </trkpt>
      <trkpt lat="49.86053" lon="4.7769">
        <ele>324</ele>
        <time>2021-03-30T12:30:33.000Z</time>
      </trkpt>
      <trkpt lat="49.86048" lon="4.77691">
        <ele>325</ele>
        <time>2021-03-30T12:30:34.000Z</time>
      </trkpt>
      <trkpt lat="49.86043" lon="4.77692">
        <ele>325</ele>
        <time>2021-03-30T12:30:35.000Z</time>
      </trkpt>
      <trkpt lat="49.86037" lon="4.77693">
        <ele>325</ele>
        <time>2021-03-30T12:30:36.000Z</time>
      </trkpt>
      <trkpt lat="49.86032" lon="4.77694">
        <ele>325</ele>
        <time>2021-03-30T12:30:37.000Z</time>
      </trkpt>
      <trkpt lat="49.86026" lon="4.77695">
        <ele>325</ele>
        <time>2021-03-30T12:30:38.000Z</time>
      </trkpt>
      <trkpt lat="49.86021" lon="4.77695">
        <ele>325</ele>
        <time>2021-03-30T12:30:39.000Z</time>
      </trkpt>
      <trkpt lat="49.86016" lon="4.77696">
        <ele>325</ele>
        <time>2021-03-30T12:30:40.000Z</time>
      </trkpt>
      <trkpt lat="49.86011" lon="4.77697">
        <ele>325</ele>
        <time>2021-03-30T12:30:41.000Z</time>
      </trkpt>
      <trkpt lat="49.86007" lon="4.77698">
        <ele>325</ele>
        <time>2021-03-30T12:30:42.000Z</time>
      </trkpt>
      <trkpt lat="49.86003" lon="4.77699">
        <ele>325</ele>
        <time>2021-03-30T12:30:43.000Z</time>
      </trkpt>
      <trkpt lat="49.85999" lon="4.777">
        <ele>325</ele>
        <time>2021-03-30T12:30:44.000Z</time>
      </trkpt>
      <trkpt lat="49.85995" lon="4.77701">
        <ele>325</ele>
        <time>2021-03-30T12:30:45.000Z</time>
      </trkpt>
      <trkpt lat="49.85992" lon="4.77701">
        <ele>325</ele>
        <time>2021-03-30T12:30:46.000Z</time>
      </trkpt>
      <trkpt lat="49.85989" lon="4.77701">
        <ele>325</ele>
        <time>2021-03-30T12:30:47.000Z</time>
      </trkpt>
      <trkpt lat="49.85985" lon="4.77702">
        <ele>325</ele>
        <time>2021-03-30T12:30:48.000Z</time>
      </trkpt>
      <trkpt lat="49.8598" lon="4.77703">
        <ele>326</ele>
        <time>2021-03-30T12:30:49.000Z</time>
      </trkpt>
      <trkpt lat="49.85976" lon="4.77705">
        <ele>326</ele>
        <time>2021-03-30T12:30:50.000Z</time>
      </trkpt>
      <trkpt lat="49.8597" lon="4.77707">
        <ele>326</ele>
        <time>2021-03-30T12:30:51.000Z</time>
      </trkpt>
      <trkpt lat="49.85964" lon="4.77708">
        <ele>325</ele>
        <time>2021-03-30T12:30:52.000Z</time>
      </trkpt>
      <trkpt lat="49.85956" lon="4.7771">
        <ele>325</ele>
        <time>2021-03-30T12:30:53.000Z</time>
      </trkpt>
      <trkpt lat="49.85948" lon="4.77712">
        <ele>325</ele>
        <time>2021-03-30T12:30:54.000Z</time>
      </trkpt>
      <trkpt lat="49.85941" lon="4.77715">
        <ele>325</ele>
        <time>2021-03-30T12:30:55.000Z</time>
      </trkpt>
      <trkpt lat="49.85934" lon="4.77719">
        <ele>325</ele>
        <time>2021-03-30T12:30:56.000Z</time>
      </trkpt>
      <trkpt lat="49.85927" lon="4.77722">
        <ele>324</ele>
        <time>2021-03-30T12:30:57.000Z</time>
      </trkpt>
      <trkpt lat="49.85921" lon="4.77726">
        <ele>324</ele>
        <time>2021-03-30T12:30:58.000Z</time>
      </trkpt>
      <trkpt lat="49.85914" lon="4.7773">
        <ele>324</ele>
        <time>2021-03-30T12:30:59.000Z</time>
      </trkpt>
      <trkpt lat="49.85907" lon="4.77734">
        <ele>324</ele>
        <time>2021-03-30T12:31:00.000Z</time>
      </trkpt>
      <trkpt lat="49.859" lon="4.77737">
        <ele>323</ele>
        <time>2021-03-30T12:31:01.000Z</time>
      </trkpt>
      <trkpt lat="49.85893" lon="4.7774">
        <ele>322</ele>
        <time>2021-03-30T12:31:02.000Z</time>
      </trkpt>
      <trkpt lat="49.85886" lon="4.77745">
        <ele>322</ele>
        <time>2021-03-30T12:31:03.000Z</time>
      </trkpt>
      <trkpt lat="49.85879" lon="4.77749">
        <ele>321</ele>
        <time>2021-03-30T12:31:04.000Z</time>
      </trkpt>
      <trkpt lat="49.85871" lon="4.77753">
        <ele>321</ele>
        <time>2021-03-30T12:31:05.000Z</time>
      </trkpt>
      <trkpt lat="49.85863" lon="4.77758">
        <ele>320</ele>
        <time>2021-03-30T12:31:06.000Z</time>
      </trkpt>
      <trkpt lat="49.85855" lon="4.77761">
        <ele>319</ele>
        <time>2021-03-30T12:31:07.000Z</time>
      </trkpt>
      <trkpt lat="49.85847" lon="4.77762">
        <ele>318</ele>
        <time>2021-03-30T12:31:08.000Z</time>
      </trkpt>
      <trkpt lat="49.85839" lon="4.77763">
        <ele>317</ele>
        <time>2021-03-30T12:31:09.000Z</time>
      </trkpt>
      <trkpt lat="49.8583" lon="4.77765">
        <ele>316</ele>
        <time>2021-03-30T12:31:10.000Z</time>
      </trkpt>
      <trkpt lat="49.85822" lon="4.77766">
        <ele>315</ele>
        <time>2021-03-30T12:31:11.000Z</time>
      </trkpt>
      <trkpt lat="49.85814" lon="4.77768">
        <ele>314</ele>
        <time>2021-03-30T12:31:12.000Z</time>
      </trkpt>
      <trkpt lat="49.85806" lon="4.7777">
        <ele>312</ele>
        <time>2021-03-30T12:31:13.000Z</time>
      </trkpt>
      <trkpt lat="49.858" lon="4.77771">
        <ele>311</ele>
        <time>2021-03-30T12:31:14.000Z</time>
      </trkpt>
      <trkpt lat="49.85793" lon="4.77773">
        <ele>310</ele>
        <time>2021-03-30T12:31:15.000Z</time>
      </trkpt>
      <trkpt lat="49.85787" lon="4.77774">
        <ele>309</ele>
        <time>2021-03-30T12:31:16.000Z</time>
      </trkpt>
      <trkpt lat="49.85782" lon="4.77774">
        <ele>308</ele>
        <time>2021-03-30T12:31:17.000Z</time>
      </trkpt>
      <trkpt lat="49.85776" lon="4.77775">
        <ele>307</ele>
        <time>2021-03-30T12:31:18.000Z</time>
      </trkpt>
      <trkpt lat="49.85772" lon="4.77774">
        <ele>306</ele>
        <time>2021-03-30T12:31:19.000Z</time>
      </trkpt>
      <trkpt lat="49.85769" lon="4.7777">
        <ele>306</ele>
        <time>2021-03-30T12:31:20.000Z</time>
      </trkpt>
      <trkpt lat="49.85767" lon="4.77764">
        <ele>305</ele>
        <time>2021-03-30T12:31:21.000Z</time>
      </trkpt>
      <trkpt lat="49.85764" lon="4.77759">
        <ele>304</ele>
        <time>2021-03-30T12:31:22.000Z</time>
      </trkpt>
      <trkpt lat="49.8576" lon="4.77755">
        <ele>304</ele>
        <time>2021-03-30T12:31:23.000Z</time>
      </trkpt>
      <trkpt lat="49.85755" lon="4.77753">
        <ele>304</ele>
        <time>2021-03-30T12:31:24.000Z</time>
      </trkpt>
      <trkpt lat="49.85751" lon="4.77754">
        <ele>303</ele>
        <time>2021-03-30T12:31:25.000Z</time>
      </trkpt>
      <trkpt lat="49.85747" lon="4.77754">
        <ele>303</ele>
        <time>2021-03-30T12:31:26.000Z</time>
      </trkpt>
      <trkpt lat="49.85743" lon="4.77755">
        <ele>303</ele>
        <time>2021-03-30T12:31:27.000Z</time>
      </trkpt>
      <trkpt lat="49.85739" lon="4.77756">
        <ele>302</ele>
        <time>2021-03-30T12:31:28.000Z</time>
      </trkpt>
      <trkpt lat="49.85735" lon="4.77757">
        <ele>302</ele>
        <time>2021-03-30T12:31:29.000Z</time>
      </trkpt>
      <trkpt lat="49.85732" lon="4.77759">
        <ele>302</ele>
        <time>2021-03-30T12:31:30.000Z</time>
      </trkpt>
      <trkpt lat="49.85728" lon="4.77761">
        <ele>302</ele>
        <time>2021-03-30T12:31:31.000Z</time>
      </trkpt>
      <trkpt lat="49.85724" lon="4.77763">
        <ele>302</ele>
        <time>2021-03-30T12:31:32.000Z</time>
      </trkpt>
      <trkpt lat="49.8572" lon="4.77764">
        <ele>301</ele>
        <time>2021-03-30T12:31:33.000Z</time>
      </trkpt>
      <trkpt lat="49.85716" lon="4.77765">
        <ele>301</ele>
        <time>2021-03-30T12:31:34.000Z</time>
      </trkpt>
      <trkpt lat="49.85712" lon="4.77766">
        <ele>301</ele>
        <time>2021-03-30T12:31:35.000Z</time>
      </trkpt>
      <trkpt lat="49.85708" lon="4.77768">
        <ele>301</ele>
        <time>2021-03-30T12:31:36.000Z</time>
      </trkpt>
      <trkpt lat="49.85703" lon="4.77769">
        <ele>301</ele>
        <time>2021-03-30T12:31:37.000Z</time>
      </trkpt>
      <trkpt lat="49.857" lon="4.77771">
        <ele>301</ele>
        <time>2021-03-30T12:31:38.000Z</time>
      </trkpt>
      <trkpt lat="49.85695" lon="4.77772">
        <ele>301</ele>
        <time>2021-03-30T12:31:39.000Z</time>
      </trkpt>
      <trkpt lat="49.85691" lon="4.77774">
        <ele>301</ele>
        <time>2021-03-30T12:31:40.000Z</time>
      </trkpt>
      <trkpt lat="49.85687" lon="4.77777">
        <ele>301</ele>
        <time>2021-03-30T12:31:41.000Z</time>
      </trkpt>
      <trkpt lat="49.85683" lon="4.77779">
        <ele>301</ele>
        <time>2021-03-30T12:31:42.000Z</time>
      </trkpt>
      <trkpt lat="49.85679" lon="4.77781">
        <ele>301</ele>
        <time>2021-03-30T12:31:43.000Z</time>
      </trkpt>
      <trkpt lat="49.85676" lon="4.77784">
        <ele>301</ele>
        <time>2021-03-30T12:31:44.000Z</time>
      </trkpt>
      <trkpt lat="49.85673" lon="4.77787">
        <ele>301</ele>
        <time>2021-03-30T12:31:45.000Z</time>
      </trkpt>
      <trkpt lat="49.85668" lon="4.7779">
        <ele>301</ele>
        <time>2021-03-30T12:31:46.000Z</time>
      </trkpt>
      <trkpt lat="49.85662" lon="4.77792">
        <ele>301</ele>
        <time>2021-03-30T12:31:47.000Z</time>
      </trkpt>
      <trkpt lat="49.85656" lon="4.77793">
        <ele>301</ele>
        <time>2021-03-30T12:31:48.000Z</time>
      </trkpt>
      <trkpt lat="49.85651" lon="4.77795">
        <ele>302</ele>
        <time>2021-03-30T12:31:49.000Z</time>
      </trkpt>
      <trkpt lat="49.85647" lon="4.77797">
        <ele>302</ele>
        <time>2021-03-30T12:31:50.000Z</time>
      </trkpt>
      <trkpt lat="49.85644" lon="4.778">
        <ele>302</ele>
        <time>2021-03-30T12:31:51.000Z</time>
      </trkpt>
      <trkpt lat="49.85641" lon="4.77803">
        <ele>302</ele>
        <time>2021-03-30T12:31:52.000Z</time>
      </trkpt>
      <trkpt lat="49.85638" lon="4.77806">
        <ele>302</ele>
        <time>2021-03-30T12:31:53.000Z</time>
      </trkpt>
      <trkpt lat="49.85635" lon="4.77809">
        <ele>302</ele>
        <time>2021-03-30T12:31:54.000Z</time>
      </trkpt>
      <trkpt lat="49.85632" lon="4.77811">
        <ele>302</ele>
        <time>2021-03-30T12:31:55.000Z</time>
      </trkpt>
      <trkpt lat="49.85629" lon="4.77814">
        <ele>302</ele>
        <time>2021-03-30T12:31:56.000Z</time>
      </trkpt>
      <trkpt lat="49.85625" lon="4.77816">
        <ele>303</ele>
        <time>2021-03-30T12:31:57.000Z</time>
      </trkpt>
      <trkpt lat="49.85623" lon="4.77818">
        <ele>303</ele>
        <time>2021-03-30T12:31:58.000Z</time>
      </trkpt>
      <trkpt lat="49.8562" lon="4.7782">
        <ele>303</ele>
        <time>2021-03-30T12:31:59.000Z</time>
      </trkpt>
      <trkpt lat="49.85617" lon="4.77823">
        <ele>303</ele>
        <time>2021-03-30T12:32:00.000Z</time>
      </trkpt>
      <trkpt lat="49.85614" lon="4.77826">
        <ele>304</ele>
        <time>2021-03-30T12:32:01.000Z</time>
      </trkpt>
      <trkpt lat="49.85611" lon="4.7783">
        <ele>304</ele>
        <time>2021-03-30T12:32:02.000Z</time>
      </trkpt>
      <trkpt lat="49.85607" lon="4.77834">
        <ele>304</ele>
        <time>2021-03-30T12:32:03.000Z</time>
      </trkpt>
      <trkpt lat="49.85604" lon="4.77836">
        <ele>304</ele>
        <time>2021-03-30T12:32:04.000Z</time>
      </trkpt>
      <trkpt lat="49.85599" lon="4.77837">
        <ele>304</ele>
        <time>2021-03-30T12:32:05.000Z</time>
      </trkpt>
      <trkpt lat="49.85595" lon="4.77838">
        <ele>304</ele>
        <time>2021-03-30T12:32:06.000Z</time>
      </trkpt>
      <trkpt lat="49.8559" lon="4.77839">
        <ele>304</ele>
        <time>2021-03-30T12:32:07.000Z</time>
      </trkpt>
      <trkpt lat="49.85586" lon="4.77842">
        <ele>305</ele>
        <time>2021-03-30T12:32:08.000Z</time>
      </trkpt>
      <trkpt lat="49.85583" lon="4.77844">
        <ele>305</ele>
        <time>2021-03-30T12:32:09.000Z</time>
      </trkpt>
      <trkpt lat="49.85582" lon="4.77846">
        <ele>305</ele>
        <time>2021-03-30T12:32:10.000Z</time>
      </trkpt>
      <trkpt lat="49.8558" lon="4.77849">
        <ele>305</ele>
        <time>2021-03-30T12:32:11.000Z</time>
      </trkpt>
      <trkpt lat="49.85579" lon="4.77853">
        <ele>305</ele>
        <time>2021-03-30T12:32:12.000Z</time>
      </trkpt>
      <trkpt lat="49.85577" lon="4.77857">
        <ele>305</ele>
        <time>2021-03-30T12:32:13.000Z</time>
      </trkpt>
      <trkpt lat="49.85577" lon="4.77862">
        <ele>305</ele>
        <time>2021-03-30T12:32:14.000Z</time>
      </trkpt>
      <trkpt lat="49.85576" lon="4.77868">
        <ele>305</ele>
        <time>2021-03-30T12:32:15.000Z</time>
      </trkpt>
      <trkpt lat="49.85576" lon="4.77875">
        <ele>306</ele>
        <time>2021-03-30T12:32:16.000Z</time>
      </trkpt>
      <trkpt lat="49.85576" lon="4.7788">
        <ele>306</ele>
        <time>2021-03-30T12:32:17.000Z</time>
      </trkpt>
      <trkpt lat="49.85576" lon="4.77885">
        <ele>306</ele>
        <time>2021-03-30T12:32:18.000Z</time>
      </trkpt>
      <trkpt lat="49.85574" lon="4.77891">
        <ele>306</ele>
        <time>2021-03-30T12:32:19.000Z</time>
      </trkpt>
      <trkpt lat="49.85573" lon="4.77897">
        <ele>306</ele>
        <time>2021-03-30T12:32:20.000Z</time>
      </trkpt>
      <trkpt lat="49.85571" lon="4.77904">
        <ele>307</ele>
        <time>2021-03-30T12:32:21.000Z</time>
      </trkpt>
      <trkpt lat="49.8557" lon="4.77911">
        <ele>307</ele>
        <time>2021-03-30T12:32:22.000Z</time>
      </trkpt>
      <trkpt lat="49.85568" lon="4.77918">
        <ele>307</ele>
        <time>2021-03-30T12:32:23.000Z</time>
      </trkpt>
      <trkpt lat="49.85567" lon="4.77925">
        <ele>307</ele>
        <time>2021-03-30T12:32:24.000Z</time>
      </trkpt>
      <trkpt lat="49.85566" lon="4.77931">
        <ele>307</ele>
        <time>2021-03-30T12:32:25.000Z</time>
      </trkpt>
      <trkpt lat="49.85565" lon="4.77938">
        <ele>307</ele>
        <time>2021-03-30T12:32:26.000Z</time>
      </trkpt>
      <trkpt lat="49.85563" lon="4.77944">
        <ele>307</ele>
        <time>2021-03-30T12:32:27.000Z</time>
      </trkpt>
      <trkpt lat="49.85562" lon="4.77951">
        <ele>307</ele>
        <time>2021-03-30T12:32:28.000Z</time>
      </trkpt>
      <trkpt lat="49.8556" lon="4.77957">
        <ele>307</ele>
        <time>2021-03-30T12:32:29.000Z</time>
      </trkpt>
      <trkpt lat="49.85558" lon="4.77964">
        <ele>307</ele>
        <time>2021-03-30T12:32:30.000Z</time>
      </trkpt>
      <trkpt lat="49.85556" lon="4.7797">
        <ele>308</ele>
        <time>2021-03-30T12:32:31.000Z</time>
      </trkpt>
      <trkpt lat="49.85553" lon="4.77976">
        <ele>308</ele>
        <time>2021-03-30T12:32:32.000Z</time>
      </trkpt>
      <trkpt lat="49.85551" lon="4.77982">
        <ele>308</ele>
        <time>2021-03-30T12:32:33.000Z</time>
      </trkpt>
      <trkpt lat="49.85548" lon="4.77988">
        <ele>308</ele>
        <time>2021-03-30T12:32:34.000Z</time>
      </trkpt>
      <trkpt lat="49.85545" lon="4.77994">
        <ele>308</ele>
        <time>2021-03-30T12:32:35.000Z</time>
      </trkpt>
      <trkpt lat="49.85543" lon="4.78002">
        <ele>308</ele>
        <time>2021-03-30T12:32:36.000Z</time>
      </trkpt>
      <trkpt lat="49.85541" lon="4.78008">
        <ele>308</ele>
        <time>2021-03-30T12:32:37.000Z</time>
      </trkpt>
      <trkpt lat="49.8554" lon="4.78016">
        <ele>308</ele>
        <time>2021-03-30T12:32:38.000Z</time>
      </trkpt>
      <trkpt lat="49.85537" lon="4.78023">
        <ele>308</ele>
        <time>2021-03-30T12:32:39.000Z</time>
      </trkpt>
      <trkpt lat="49.85536" lon="4.7803">
        <ele>308</ele>
        <time>2021-03-30T12:32:40.000Z</time>
      </trkpt>
      <trkpt lat="49.85534" lon="4.78037">
        <ele>308</ele>
        <time>2021-03-30T12:32:41.000Z</time>
      </trkpt>
      <trkpt lat="49.85532" lon="4.78044">
        <ele>308</ele>
        <time>2021-03-30T12:32:42.000Z</time>
      </trkpt>
      <trkpt lat="49.85531" lon="4.78051">
        <ele>308</ele>
        <time>2021-03-30T12:32:43.000Z</time>
      </trkpt>
      <trkpt lat="49.85529" lon="4.78057">
        <ele>308</ele>
        <time>2021-03-30T12:32:44.000Z</time>
      </trkpt>
      <trkpt lat="49.85526" lon="4.78064">
        <ele>307</ele>
        <time>2021-03-30T12:32:45.000Z</time>
      </trkpt>
      <trkpt lat="49.85523" lon="4.78071">
        <ele>307</ele>
        <time>2021-03-30T12:32:46.000Z</time>
      </trkpt>
      <trkpt lat="49.8552" lon="4.78077">
        <ele>307</ele>
        <time>2021-03-30T12:32:47.000Z</time>
      </trkpt>
      <trkpt lat="49.85517" lon="4.78083">
        <ele>307</ele>
        <time>2021-03-30T12:32:48.000Z</time>
      </trkpt>
      <trkpt lat="49.85513" lon="4.7809">
        <ele>307</ele>
        <time>2021-03-30T12:32:49.000Z</time>
      </trkpt>
      <trkpt lat="49.8551" lon="4.78096">
        <ele>307</ele>
        <time>2021-03-30T12:32:50.000Z</time>
      </trkpt>
      <trkpt lat="49.85507" lon="4.78103">
        <ele>307</ele>
        <time>2021-03-30T12:32:51.000Z</time>
      </trkpt>
      <trkpt lat="49.85504" lon="4.78109">
        <ele>307</ele>
        <time>2021-03-30T12:32:52.000Z</time>
      </trkpt>
      <trkpt lat="49.85501" lon="4.78116">
        <ele>307</ele>
        <time>2021-03-30T12:32:53.000Z</time>
      </trkpt>
      <trkpt lat="49.85498" lon="4.78124">
        <ele>307</ele>
        <time>2021-03-30T12:32:54.000Z</time>
      </trkpt>
      <trkpt lat="49.85495" lon="4.7813">
        <ele>307</ele>
        <time>2021-03-30T12:32:55.000Z</time>
      </trkpt>
      <trkpt lat="49.85493" lon="4.78136">
        <ele>307</ele>
        <time>2021-03-30T12:32:56.000Z</time>
      </trkpt>
      <trkpt lat="49.8549" lon="4.78142">
        <ele>306</ele>
        <time>2021-03-30T12:32:57.000Z</time>
      </trkpt>
      <trkpt lat="49.85487" lon="4.78148">
        <ele>306</ele>
        <time>2021-03-30T12:32:58.000Z</time>
      </trkpt>
      <trkpt lat="49.85484" lon="4.78153">
        <ele>307</ele>
        <time>2021-03-30T12:32:59.000Z</time>
      </trkpt>
      <trkpt lat="49.85483" lon="4.78157">
        <ele>307</ele>
        <time>2021-03-30T12:33:00.000Z</time>
      </trkpt>
      <trkpt lat="49.85481" lon="4.78163">
        <ele>307</ele>
        <time>2021-03-30T12:33:01.000Z</time>
      </trkpt>
      <trkpt lat="49.85479" lon="4.78168">
        <ele>307</ele>
        <time>2021-03-30T12:33:02.000Z</time>
      </trkpt>
      <trkpt lat="49.85476" lon="4.78173">
        <ele>307</ele>
        <time>2021-03-30T12:33:03.000Z</time>
      </trkpt>
      <trkpt lat="49.85474" lon="4.78178">
        <ele>307</ele>
        <time>2021-03-30T12:33:04.000Z</time>
      </trkpt>
      <trkpt lat="49.85471" lon="4.78183">
        <ele>307</ele>
        <time>2021-03-30T12:33:05.000Z</time>
      </trkpt>
      <trkpt lat="49.85468" lon="4.78187">
        <ele>307</ele>
        <time>2021-03-30T12:33:06.000Z</time>
      </trkpt>
      <trkpt lat="49.85466" lon="4.78192">
        <ele>307</ele>
        <time>2021-03-30T12:33:07.000Z</time>
      </trkpt>
      <trkpt lat="49.85463" lon="4.78196">
        <ele>307</ele>
        <time>2021-03-30T12:33:08.000Z</time>
      </trkpt>
      <trkpt lat="49.8546" lon="4.78199">
        <ele>307</ele>
        <time>2021-03-30T12:33:09.000Z</time>
      </trkpt>
      <trkpt lat="49.85457" lon="4.78204">
        <ele>307</ele>
        <time>2021-03-30T12:33:10.000Z</time>
      </trkpt>
      <trkpt lat="49.85454" lon="4.78208">
        <ele>307</ele>
        <time>2021-03-30T12:33:11.000Z</time>
      </trkpt>
      <trkpt lat="49.85451" lon="4.78211">
        <ele>307</ele>
        <time>2021-03-30T12:33:12.000Z</time>
      </trkpt>
      <trkpt lat="49.85448" lon="4.78215">
        <ele>307</ele>
        <time>2021-03-30T12:33:13.000Z</time>
      </trkpt>
      <trkpt lat="49.85446" lon="4.78219">
        <ele>307</ele>
        <time>2021-03-30T12:33:14.000Z</time>
      </trkpt>
      <trkpt lat="49.85443" lon="4.78222">
        <ele>307</ele>
        <time>2021-03-30T12:33:15.000Z</time>
      </trkpt>
      <trkpt lat="49.8544" lon="4.78226">
        <ele>307</ele>
        <time>2021-03-30T12:33:16.000Z</time>
      </trkpt>
      <trkpt lat="49.85437" lon="4.7823">
        <ele>308</ele>
        <time>2021-03-30T12:33:17.000Z</time>
      </trkpt>
      <trkpt lat="49.85434" lon="4.78234">
        <ele>308</ele>
        <time>2021-03-30T12:33:18.000Z</time>
      </trkpt>
      <trkpt lat="49.85431" lon="4.78238">
        <ele>308</ele>
        <time>2021-03-30T12:33:19.000Z</time>
      </trkpt>
      <trkpt lat="49.85427" lon="4.78242">
        <ele>308</ele>
        <time>2021-03-30T12:33:20.000Z</time>
      </trkpt>
      <trkpt lat="49.85424" lon="4.78246">
        <ele>308</ele>
        <time>2021-03-30T12:33:21.000Z</time>
      </trkpt>
      <trkpt lat="49.85421" lon="4.7825">
        <ele>308</ele>
        <time>2021-03-30T12:33:22.000Z</time>
      </trkpt>
      <trkpt lat="49.85418" lon="4.78252">
        <ele>308</ele>
        <time>2021-03-30T12:33:23.000Z</time>
      </trkpt>
      <trkpt lat="49.85416" lon="4.78255">
        <ele>308</ele>
        <time>2021-03-30T12:33:24.000Z</time>
      </trkpt>
      <trkpt lat="49.85413" lon="4.78259">
        <ele>308</ele>
        <time>2021-03-30T12:33:25.000Z</time>
      </trkpt>
      <trkpt lat="49.8541" lon="4.78262">
        <ele>309</ele>
        <time>2021-03-30T12:33:26.000Z</time>
      </trkpt>
      <trkpt lat="49.85408" lon="4.78264">
        <ele>309</ele>
        <time>2021-03-30T12:33:27.000Z</time>
      </trkpt>
      <trkpt lat="49.85405" lon="4.78267">
        <ele>309</ele>
        <time>2021-03-30T12:33:28.000Z</time>
      </trkpt>
      <trkpt lat="49.85403" lon="4.78269">
        <ele>309</ele>
        <time>2021-03-30T12:33:29.000Z</time>
      </trkpt>
      <trkpt lat="49.85402" lon="4.78271">
        <ele>309</ele>
        <time>2021-03-30T12:33:30.000Z</time>
      </trkpt>
      <trkpt lat="49.85399" lon="4.78274">
        <ele>309</ele>
        <time>2021-03-30T12:33:31.000Z</time>
      </trkpt>
      <trkpt lat="49.85397" lon="4.78277">
        <ele>310</ele>
        <time>2021-03-30T12:33:32.000Z</time>
      </trkpt>
      <trkpt lat="49.85394" lon="4.78279">
        <ele>310</ele>
        <time>2021-03-30T12:33:33.000Z</time>
      </trkpt>
      <trkpt lat="49.85391" lon="4.78283">
        <ele>310</ele>
        <time>2021-03-30T12:33:34.000Z</time>
      </trkpt>
      <trkpt lat="49.85389" lon="4.78285">
        <ele>310</ele>
        <time>2021-03-30T12:33:35.000Z</time>
      </trkpt>
      <trkpt lat="49.85387" lon="4.78287">
        <ele>311</ele>
        <time>2021-03-30T12:33:36.000Z</time>
      </trkpt>
      <trkpt lat="49.85385" lon="4.7829">
        <ele>311</ele>
        <time>2021-03-30T12:33:37.000Z</time>
      </trkpt>
      <trkpt lat="49.85383" lon="4.78294">
        <ele>311</ele>
        <time>2021-03-30T12:33:38.000Z</time>
      </trkpt>
      <trkpt lat="49.85381" lon="4.78297">
        <ele>312</ele>
        <time>2021-03-30T12:33:39.000Z</time>
      </trkpt>
      <trkpt lat="49.85379" lon="4.783">
        <ele>312</ele>
        <time>2021-03-30T12:33:40.000Z</time>
      </trkpt>
      <trkpt lat="49.85377" lon="4.78302">
        <ele>312</ele>
        <time>2021-03-30T12:33:41.000Z</time>
      </trkpt>
      <trkpt lat="49.85375" lon="4.78304">
        <ele>312</ele>
        <time>2021-03-30T12:33:42.000Z</time>
      </trkpt>
      <trkpt lat="49.85373" lon="4.78307">
        <ele>313</ele>
        <time>2021-03-30T12:33:43.000Z</time>
      </trkpt>
      <trkpt lat="49.85371" lon="4.7831">
        <ele>313</ele>
        <time>2021-03-30T12:33:44.000Z</time>
      </trkpt>
      <trkpt lat="49.85369" lon="4.78313">
        <ele>313</ele>
        <time>2021-03-30T12:33:45.000Z</time>
      </trkpt>
      <trkpt lat="49.85367" lon="4.78317">
        <ele>313</ele>
        <time>2021-03-30T12:33:46.000Z</time>
      </trkpt>
      <trkpt lat="49.85365" lon="4.7832">
        <ele>314</ele>
        <time>2021-03-30T12:33:47.000Z</time>
      </trkpt>
      <trkpt lat="49.85363" lon="4.78323">
        <ele>314</ele>
        <time>2021-03-30T12:33:48.000Z</time>
      </trkpt>
      <trkpt lat="49.85361" lon="4.78326">
        <ele>314</ele>
        <time>2021-03-30T12:33:49.000Z</time>
      </trkpt>
      <trkpt lat="49.85359" lon="4.78329">
        <ele>315</ele>
        <time>2021-03-30T12:33:50.000Z</time>
      </trkpt>
      <trkpt lat="49.85357" lon="4.78332">
        <ele>315</ele>
        <time>2021-03-30T12:33:51.000Z</time>
      </trkpt>
      <trkpt lat="49.85355" lon="4.78335">
        <ele>315</ele>
        <time>2021-03-30T12:33:52.000Z</time>
      </trkpt>
      <trkpt lat="49.85353" lon="4.78338">
        <ele>316</ele>
        <time>2021-03-30T12:33:53.000Z</time>
      </trkpt>
      <trkpt lat="49.85352" lon="4.7834">
        <ele>316</ele>
        <time>2021-03-30T12:33:54.000Z</time>
      </trkpt>
      <trkpt lat="49.85351" lon="4.78343">
        <ele>316</ele>
        <time>2021-03-30T12:33:55.000Z</time>
      </trkpt>
      <trkpt lat="49.8535" lon="4.78347">
        <ele>316</ele>
        <time>2021-03-30T12:33:56.000Z</time>
      </trkpt>
      <trkpt lat="49.85348" lon="4.78349">
        <ele>316</ele>
        <time>2021-03-30T12:33:57.000Z</time>
      </trkpt>
      <trkpt lat="49.85347" lon="4.78351">
        <ele>317</ele>
        <time>2021-03-30T12:33:58.000Z</time>
      </trkpt>
      <trkpt lat="49.85346" lon="4.78353">
        <ele>317</ele>
        <time>2021-03-30T12:33:59.000Z</time>
      </trkpt>
      <trkpt lat="49.85344" lon="4.78356">
        <ele>317</ele>
        <time>2021-03-30T12:34:00.000Z</time>
      </trkpt>
      <trkpt lat="49.85342" lon="4.78358">
        <ele>317</ele>
        <time>2021-03-30T12:34:01.000Z</time>
      </trkpt>
      <trkpt lat="49.85341" lon="4.7836">
        <ele>318</ele>
        <time>2021-03-30T12:34:02.000Z</time>
      </trkpt>
      <trkpt lat="49.85339" lon="4.78363">
        <ele>318</ele>
        <time>2021-03-30T12:34:03.000Z</time>
      </trkpt>
      <trkpt lat="49.85336" lon="4.78365">
        <ele>318</ele>
        <time>2021-03-30T12:34:04.000Z</time>
      </trkpt>
      <trkpt lat="49.85334" lon="4.78367">
        <ele>318</ele>
        <time>2021-03-30T12:34:05.000Z</time>
      </trkpt>
      <trkpt lat="49.85333" lon="4.78369">
        <ele>319</ele>
        <time>2021-03-30T12:34:06.000Z</time>
      </trkpt>
      <trkpt lat="49.85331" lon="4.78372">
        <ele>319</ele>
        <time>2021-03-30T12:34:07.000Z</time>
      </trkpt>
      <trkpt lat="49.8533" lon="4.78373">
        <ele>319</ele>
        <time>2021-03-30T12:34:08.000Z</time>
      </trkpt>
      <trkpt lat="49.85329" lon="4.78375">
        <ele>320</ele>
        <time>2021-03-30T12:34:09.000Z</time>
      </trkpt>
      <trkpt lat="49.85328" lon="4.78377">
        <ele>320</ele>
        <time>2021-03-30T12:34:10.000Z</time>
      </trkpt>
      <trkpt lat="49.85326" lon="4.78379">
        <ele>320</ele>
        <time>2021-03-30T12:34:11.000Z</time>
      </trkpt>
      <trkpt lat="49.85325" lon="4.78381">
        <ele>321</ele>
        <time>2021-03-30T12:34:12.000Z</time>
      </trkpt>
      <trkpt lat="49.85324" lon="4.78383">
        <ele>321</ele>
        <time>2021-03-30T12:34:13.000Z</time>
      </trkpt>
      <trkpt lat="49.85323" lon="4.78386">
        <ele>321</ele>
        <time>2021-03-30T12:34:14.000Z</time>
      </trkpt>
      <trkpt lat="49.85321" lon="4.78388">
        <ele>321</ele>
        <time>2021-03-30T12:34:15.000Z</time>
      </trkpt>
      <trkpt lat="49.8532" lon="4.7839">
        <ele>322</ele>
        <time>2021-03-30T12:34:16.000Z</time>
      </trkpt>
      <trkpt lat="49.85319" lon="4.78393">
        <ele>322</ele>
        <time>2021-03-30T12:34:17.000Z</time>
      </trkpt>
      <trkpt lat="49.85318" lon="4.78396">
        <ele>322</ele>
        <time>2021-03-30T12:34:18.000Z</time>
      </trkpt>
      <trkpt lat="49.85316" lon="4.78398">
        <ele>322</ele>
        <time>2021-03-30T12:34:19.000Z</time>
      </trkpt>
      <trkpt lat="49.85315" lon="4.78401">
        <ele>322</ele>
        <time>2021-03-30T12:34:20.000Z</time>
      </trkpt>
      <trkpt lat="49.85313" lon="4.78403">
        <ele>322</ele>
        <time>2021-03-30T12:34:21.000Z</time>
      </trkpt>
      <trkpt lat="49.85312" lon="4.78406">
        <ele>323</ele>
        <time>2021-03-30T12:34:22.000Z</time>
      </trkpt>
      <trkpt lat="49.85311" lon="4.78408">
        <ele>323</ele>
        <time>2021-03-30T12:34:23.000Z</time>
      </trkpt>
      <trkpt lat="49.8531" lon="4.7841">
        <ele>323</ele>
        <time>2021-03-30T12:34:24.000Z</time>
      </trkpt>
      <trkpt lat="49.85308" lon="4.78413">
        <ele>324</ele>
        <time>2021-03-30T12:34:25.000Z</time>
      </trkpt>
      <trkpt lat="49.85307" lon="4.78417">
        <ele>324</ele>
        <time>2021-03-30T12:34:26.000Z</time>
      </trkpt>
      <trkpt lat="49.85305" lon="4.7842">
        <ele>325</ele>
        <time>2021-03-30T12:34:27.000Z</time>
      </trkpt>
      <trkpt lat="49.85303" lon="4.78423">
        <ele>325</ele>
        <time>2021-03-30T12:34:28.000Z</time>
      </trkpt>
      <trkpt lat="49.85302" lon="4.78426">
        <ele>325</ele>
        <time>2021-03-30T12:34:29.000Z</time>
      </trkpt>
      <trkpt lat="49.85301" lon="4.78429">
        <ele>326</ele>
        <time>2021-03-30T12:34:30.000Z</time>
      </trkpt>
      <trkpt lat="49.85299" lon="4.78432">
        <ele>326</ele>
        <time>2021-03-30T12:34:31.000Z</time>
      </trkpt>
      <trkpt lat="49.85298" lon="4.78436">
        <ele>327</ele>
        <time>2021-03-30T12:34:32.000Z</time>
      </trkpt>
      <trkpt lat="49.85296" lon="4.78439">
        <ele>327</ele>
        <time>2021-03-30T12:34:33.000Z</time>
      </trkpt>
      <trkpt lat="49.85295" lon="4.78443">
        <ele>328</ele>
        <time>2021-03-30T12:34:34.000Z</time>
      </trkpt>
      <trkpt lat="49.85294" lon="4.78446">
        <ele>328</ele>
        <time>2021-03-30T12:34:35.000Z</time>
      </trkpt>
      <trkpt lat="49.85292" lon="4.78449">
        <ele>328</ele>
        <time>2021-03-30T12:34:36.000Z</time>
      </trkpt>
      <trkpt lat="49.8529" lon="4.78453">
        <ele>329</ele>
        <time>2021-03-30T12:34:37.000Z</time>
      </trkpt>
      <trkpt lat="49.85288" lon="4.78456">
        <ele>329</ele>
        <time>2021-03-30T12:34:38.000Z</time>
      </trkpt>
      <trkpt lat="49.85287" lon="4.78458">
        <ele>329</ele>
        <time>2021-03-30T12:34:39.000Z</time>
      </trkpt>
      <trkpt lat="49.85285" lon="4.7846">
        <ele>330</ele>
        <time>2021-03-30T12:34:40.000Z</time>
      </trkpt>
      <trkpt lat="49.85284" lon="4.78464">
        <ele>330</ele>
        <time>2021-03-30T12:34:41.000Z</time>
      </trkpt>
      <trkpt lat="49.85282" lon="4.78466">
        <ele>330</ele>
        <time>2021-03-30T12:34:42.000Z</time>
      </trkpt>
      <trkpt lat="49.85281" lon="4.78469">
        <ele>331</ele>
        <time>2021-03-30T12:34:43.000Z</time>
      </trkpt>
      <trkpt lat="49.8528" lon="4.78472">
        <ele>331</ele>
        <time>2021-03-30T12:34:44.000Z</time>
      </trkpt>
      <trkpt lat="49.85278" lon="4.78476">
        <ele>332</ele>
        <time>2021-03-30T12:34:45.000Z</time>
      </trkpt>
      <trkpt lat="49.85276" lon="4.7848">
        <ele>332</ele>
        <time>2021-03-30T12:34:46.000Z</time>
      </trkpt>
      <trkpt lat="49.85274" lon="4.78483">
        <ele>332</ele>
        <time>2021-03-30T12:34:47.000Z</time>
      </trkpt>
      <trkpt lat="49.85272" lon="4.78487">
        <ele>333</ele>
        <time>2021-03-30T12:34:48.000Z</time>
      </trkpt>
      <trkpt lat="49.85269" lon="4.78491">
        <ele>333</ele>
        <time>2021-03-30T12:34:49.000Z</time>
      </trkpt>
      <trkpt lat="49.85267" lon="4.78494">
        <ele>333</ele>
        <time>2021-03-30T12:34:50.000Z</time>
      </trkpt>
      <trkpt lat="49.85265" lon="4.78497">
        <ele>333</ele>
        <time>2021-03-30T12:34:51.000Z</time>
      </trkpt>
      <trkpt lat="49.85263" lon="4.785">
        <ele>333</ele>
        <time>2021-03-30T12:34:52.000Z</time>
      </trkpt>
      <trkpt lat="49.85261" lon="4.78503">
        <ele>333</ele>
        <time>2021-03-30T12:34:53.000Z</time>
      </trkpt>
      <trkpt lat="49.85259" lon="4.78507">
        <ele>333</ele>
        <time>2021-03-30T12:34:54.000Z</time>
      </trkpt>
      <trkpt lat="49.85256" lon="4.78511">
        <ele>333</ele>
        <time>2021-03-30T12:34:55.000Z</time>
      </trkpt>
      <trkpt lat="49.85254" lon="4.78515">
        <ele>333</ele>
        <time>2021-03-30T12:34:56.000Z</time>
      </trkpt>
      <trkpt lat="49.85251" lon="4.7852">
        <ele>333</ele>
        <time>2021-03-30T12:34:57.000Z</time>
      </trkpt>
      <trkpt lat="49.85248" lon="4.78524">
        <ele>334</ele>
        <time>2021-03-30T12:34:58.000Z</time>
      </trkpt>
      <trkpt lat="49.85245" lon="4.78528">
        <ele>334</ele>
        <time>2021-03-30T12:34:59.000Z</time>
      </trkpt>
      <trkpt lat="49.85242" lon="4.78533">
        <ele>334</ele>
        <time>2021-03-30T12:35:00.000Z</time>
      </trkpt>
      <trkpt lat="49.85238" lon="4.78538">
        <ele>334</ele>
        <time>2021-03-30T12:35:01.000Z</time>
      </trkpt>
      <trkpt lat="49.85235" lon="4.78542">
        <ele>334</ele>
        <time>2021-03-30T12:35:02.000Z</time>
      </trkpt>
      <trkpt lat="49.85231" lon="4.78548">
        <ele>334</ele>
        <time>2021-03-30T12:35:03.000Z</time>
      </trkpt>
      <trkpt lat="49.85228" lon="4.78553">
        <ele>334</ele>
        <time>2021-03-30T12:35:04.000Z</time>
      </trkpt>
      <trkpt lat="49.85224" lon="4.78558">
        <ele>334</ele>
        <time>2021-03-30T12:35:05.000Z</time>
      </trkpt>
      <trkpt lat="49.8522" lon="4.78563">
        <ele>334</ele>
        <time>2021-03-30T12:35:06.000Z</time>
      </trkpt>
      <trkpt lat="49.85217" lon="4.78567">
        <ele>334</ele>
        <time>2021-03-30T12:35:07.000Z</time>
      </trkpt>
      <trkpt lat="49.85214" lon="4.7857">
        <ele>334</ele>
        <time>2021-03-30T12:35:08.000Z</time>
      </trkpt>
      <trkpt lat="49.85211" lon="4.78575">
        <ele>334</ele>
        <time>2021-03-30T12:35:09.000Z</time>
      </trkpt>
      <trkpt lat="49.85209" lon="4.78579">
        <ele>334</ele>
        <time>2021-03-30T12:35:10.000Z</time>
      </trkpt>
      <trkpt lat="49.85205" lon="4.78584">
        <ele>334</ele>
        <time>2021-03-30T12:35:11.000Z</time>
      </trkpt>
      <trkpt lat="49.85202" lon="4.78588">
        <ele>334</ele>
        <time>2021-03-30T12:35:12.000Z</time>
      </trkpt>
      <trkpt lat="49.85198" lon="4.78592">
        <ele>334</ele>
        <time>2021-03-30T12:35:13.000Z</time>
      </trkpt>
      <trkpt lat="49.85195" lon="4.78597">
        <ele>334</ele>
        <time>2021-03-30T12:35:14.000Z</time>
      </trkpt>
      <trkpt lat="49.85192" lon="4.78602">
        <ele>335</ele>
        <time>2021-03-30T12:35:15.000Z</time>
      </trkpt>
      <trkpt lat="49.85188" lon="4.78606">
        <ele>335</ele>
        <time>2021-03-30T12:35:16.000Z</time>
      </trkpt>
      <trkpt lat="49.85185" lon="4.78611">
        <ele>335</ele>
        <time>2021-03-30T12:35:17.000Z</time>
      </trkpt>
      <trkpt lat="49.85182" lon="4.78615">
        <ele>335</ele>
        <time>2021-03-30T12:35:18.000Z</time>
      </trkpt>
      <trkpt lat="49.85178" lon="4.78619">
        <ele>335</ele>
        <time>2021-03-30T12:35:19.000Z</time>
      </trkpt>
      <trkpt lat="49.85175" lon="4.78623">
        <ele>335</ele>
        <time>2021-03-30T12:35:20.000Z</time>
      </trkpt>
      <trkpt lat="49.85172" lon="4.78627">
        <ele>335</ele>
        <time>2021-03-30T12:35:21.000Z</time>
      </trkpt>
      <trkpt lat="49.85169" lon="4.78631">
        <ele>335</ele>
        <time>2021-03-30T12:35:22.000Z</time>
      </trkpt>
      <trkpt lat="49.85166" lon="4.78635">
        <ele>335</ele>
        <time>2021-03-30T12:35:23.000Z</time>
      </trkpt>
      <trkpt lat="49.85162" lon="4.78639">
        <ele>335</ele>
        <time>2021-03-30T12:35:24.000Z</time>
      </trkpt>
      <trkpt lat="49.85159" lon="4.78642">
        <ele>335</ele>
        <time>2021-03-30T12:35:25.000Z</time>
      </trkpt>
      <trkpt lat="49.85156" lon="4.78646">
        <ele>335</ele>
        <time>2021-03-30T12:35:26.000Z</time>
      </trkpt>
      <trkpt lat="49.85153" lon="4.78649">
        <ele>335</ele>
        <time>2021-03-30T12:35:27.000Z</time>
      </trkpt>
      <trkpt lat="49.8515" lon="4.78653">
        <ele>335</ele>
        <time>2021-03-30T12:35:28.000Z</time>
      </trkpt>
      <trkpt lat="49.85147" lon="4.78657">
        <ele>335</ele>
        <time>2021-03-30T12:35:29.000Z</time>
      </trkpt>
      <trkpt lat="49.85144" lon="4.78662">
        <ele>335</ele>
        <time>2021-03-30T12:35:30.000Z</time>
      </trkpt>
      <trkpt lat="49.8514" lon="4.78667">
        <ele>336</ele>
        <time>2021-03-30T12:35:31.000Z</time>
      </trkpt>
      <trkpt lat="49.85137" lon="4.78672">
        <ele>336</ele>
        <time>2021-03-30T12:35:32.000Z</time>
      </trkpt>
      <trkpt lat="49.85134" lon="4.78677">
        <ele>336</ele>
        <time>2021-03-30T12:35:33.000Z</time>
      </trkpt>
      <trkpt lat="49.8513" lon="4.78681">
        <ele>336</ele>
        <time>2021-03-30T12:35:34.000Z</time>
      </trkpt>
      <trkpt lat="49.85127" lon="4.78687">
        <ele>336</ele>
        <time>2021-03-30T12:35:35.000Z</time>
      </trkpt>
      <trkpt lat="49.85123" lon="4.78693">
        <ele>336</ele>
        <time>2021-03-30T12:35:36.000Z</time>
      </trkpt>
      <trkpt lat="49.85119" lon="4.78698">
        <ele>336</ele>
        <time>2021-03-30T12:35:37.000Z</time>
      </trkpt>
      <trkpt lat="49.85115" lon="4.78703">
        <ele>336</ele>
        <time>2021-03-30T12:35:38.000Z</time>
      </trkpt>
      <trkpt lat="49.85111" lon="4.78708">
        <ele>336</ele>
        <time>2021-03-30T12:35:39.000Z</time>
      </trkpt>
      <trkpt lat="49.85107" lon="4.78713">
        <ele>336</ele>
        <time>2021-03-30T12:35:40.000Z</time>
      </trkpt>
      <trkpt lat="49.85103" lon="4.78718">
        <ele>336</ele>
        <time>2021-03-30T12:35:41.000Z</time>
      </trkpt>
      <trkpt lat="49.85099" lon="4.78724">
        <ele>335</ele>
        <time>2021-03-30T12:35:42.000Z</time>
      </trkpt>
      <trkpt lat="49.85095" lon="4.78729">
        <ele>335</ele>
        <time>2021-03-30T12:35:43.000Z</time>
      </trkpt>
      <trkpt lat="49.85092" lon="4.78735">
        <ele>335</ele>
        <time>2021-03-30T12:35:44.000Z</time>
      </trkpt>
      <trkpt lat="49.85089" lon="4.7874">
        <ele>335</ele>
        <time>2021-03-30T12:35:45.000Z</time>
      </trkpt>
      <trkpt lat="49.85087" lon="4.78745">
        <ele>335</ele>
        <time>2021-03-30T12:35:46.000Z</time>
      </trkpt>
      <trkpt lat="49.85084" lon="4.78749">
        <ele>335</ele>
        <time>2021-03-30T12:35:47.000Z</time>
      </trkpt>
      <trkpt lat="49.85081" lon="4.78754">
        <ele>335</ele>
        <time>2021-03-30T12:35:48.000Z</time>
      </trkpt>
      <trkpt lat="49.85078" lon="4.78759">
        <ele>335</ele>
        <time>2021-03-30T12:35:49.000Z</time>
      </trkpt>
      <trkpt lat="49.85075" lon="4.78764">
        <ele>335</ele>
        <time>2021-03-30T12:35:50.000Z</time>
      </trkpt>
      <trkpt lat="49.85072" lon="4.78769">
        <ele>336</ele>
        <time>2021-03-30T12:35:51.000Z</time>
      </trkpt>
      <trkpt lat="49.8507" lon="4.78775">
        <ele>336</ele>
        <time>2021-03-30T12:35:52.000Z</time>
      </trkpt>
      <trkpt lat="49.85067" lon="4.78781">
        <ele>336</ele>
        <time>2021-03-30T12:35:53.000Z</time>
      </trkpt>
      <trkpt lat="49.85064" lon="4.78787">
        <ele>336</ele>
        <time>2021-03-30T12:35:54.000Z</time>
      </trkpt>
      <trkpt lat="49.85062" lon="4.78793">
        <ele>336</ele>
        <time>2021-03-30T12:35:55.000Z</time>
      </trkpt>
      <trkpt lat="49.85059" lon="4.78799">
        <ele>336</ele>
        <time>2021-03-30T12:35:56.000Z</time>
      </trkpt>
      <trkpt lat="49.85055" lon="4.78805">
        <ele>336</ele>
        <time>2021-03-30T12:35:57.000Z</time>
      </trkpt>
      <trkpt lat="49.85053" lon="4.78811">
        <ele>336</ele>
        <time>2021-03-30T12:35:58.000Z</time>
      </trkpt>
      <trkpt lat="49.8505" lon="4.78816">
        <ele>336</ele>
        <time>2021-03-30T12:35:59.000Z</time>
      </trkpt>
      <trkpt lat="49.85046" lon="4.78821">
        <ele>336</ele>
        <time>2021-03-30T12:36:00.000Z</time>
      </trkpt>
      <trkpt lat="49.85042" lon="4.78825">
        <ele>336</ele>
        <time>2021-03-30T12:36:01.000Z</time>
      </trkpt>
      <trkpt lat="49.85038" lon="4.78829">
        <ele>337</ele>
        <time>2021-03-30T12:36:02.000Z</time>
      </trkpt>
      <trkpt lat="49.85034" lon="4.78833">
        <ele>337</ele>
        <time>2021-03-30T12:36:03.000Z</time>
      </trkpt>
      <trkpt lat="49.8503" lon="4.78837">
        <ele>337</ele>
        <time>2021-03-30T12:36:04.000Z</time>
      </trkpt>
      <trkpt lat="49.85026" lon="4.78841">
        <ele>337</ele>
        <time>2021-03-30T12:36:05.000Z</time>
      </trkpt>
      <trkpt lat="49.85023" lon="4.78845">
        <ele>337</ele>
        <time>2021-03-30T12:36:06.000Z</time>
      </trkpt>
      <trkpt lat="49.8502" lon="4.78849">
        <ele>337</ele>
        <time>2021-03-30T12:36:07.000Z</time>
      </trkpt>
      <trkpt lat="49.85018" lon="4.78854">
        <ele>337</ele>
        <time>2021-03-30T12:36:08.000Z</time>
      </trkpt>
      <trkpt lat="49.85015" lon="4.7886">
        <ele>337</ele>
        <time>2021-03-30T12:36:09.000Z</time>
      </trkpt>
      <trkpt lat="49.85012" lon="4.78865">
        <ele>337</ele>
        <time>2021-03-30T12:36:10.000Z</time>
      </trkpt>
      <trkpt lat="49.85009" lon="4.7887">
        <ele>337</ele>
        <time>2021-03-30T12:36:11.000Z</time>
      </trkpt>
      <trkpt lat="49.85005" lon="4.78874">
        <ele>337</ele>
        <time>2021-03-30T12:36:12.000Z</time>
      </trkpt>
      <trkpt lat="49.85001" lon="4.78877">
        <ele>338</ele>
        <time>2021-03-30T12:36:13.000Z</time>
      </trkpt>
      <trkpt lat="49.84998" lon="4.78881">
        <ele>338</ele>
        <time>2021-03-30T12:36:14.000Z</time>
      </trkpt>
      <trkpt lat="49.84995" lon="4.78885">
        <ele>338</ele>
        <time>2021-03-30T12:36:15.000Z</time>
      </trkpt>
      <trkpt lat="49.84991" lon="4.78888">
        <ele>338</ele>
        <time>2021-03-30T12:36:16.000Z</time>
      </trkpt>
      <trkpt lat="49.84988" lon="4.78892">
        <ele>338</ele>
        <time>2021-03-30T12:36:17.000Z</time>
      </trkpt>
      <trkpt lat="49.84984" lon="4.78896">
        <ele>338</ele>
        <time>2021-03-30T12:36:18.000Z</time>
      </trkpt>
      <trkpt lat="49.84981" lon="4.789">
        <ele>339</ele>
        <time>2021-03-30T12:36:19.000Z</time>
      </trkpt>
      <trkpt lat="49.84979" lon="4.78904">
        <ele>339</ele>
        <time>2021-03-30T12:36:20.000Z</time>
      </trkpt>
      <trkpt lat="49.84976" lon="4.78907">
        <ele>339</ele>
        <time>2021-03-30T12:36:21.000Z</time>
      </trkpt>
      <trkpt lat="49.84974" lon="4.7891">
        <ele>339</ele>
        <time>2021-03-30T12:36:22.000Z</time>
      </trkpt>
      <trkpt lat="49.84971" lon="4.78914">
        <ele>339</ele>
        <time>2021-03-30T12:36:23.000Z</time>
      </trkpt>
      <trkpt lat="49.84969" lon="4.78918">
        <ele>339</ele>
        <time>2021-03-30T12:36:24.000Z</time>
      </trkpt>
      <trkpt lat="49.84967" lon="4.78921">
        <ele>339</ele>
        <time>2021-03-30T12:36:25.000Z</time>
      </trkpt>
      <trkpt lat="49.84965" lon="4.78925">
        <ele>339</ele>
        <time>2021-03-30T12:36:26.000Z</time>
      </trkpt>
      <trkpt lat="49.84963" lon="4.78929">
        <ele>340</ele>
        <time>2021-03-30T12:36:27.000Z</time>
      </trkpt>
      <trkpt lat="49.84961" lon="4.78933">
        <ele>340</ele>
        <time>2021-03-30T12:36:28.000Z</time>
      </trkpt>
      <trkpt lat="49.84959" lon="4.78936">
        <ele>340</ele>
        <time>2021-03-30T12:36:29.000Z</time>
      </trkpt>
      <trkpt lat="49.84956" lon="4.78939">
        <ele>340</ele>
        <time>2021-03-30T12:36:30.000Z</time>
      </trkpt>
      <trkpt lat="49.84955" lon="4.78942">
        <ele>340</ele>
        <time>2021-03-30T12:36:31.000Z</time>
      </trkpt>
      <trkpt lat="49.84953" lon="4.78946">
        <ele>341</ele>
        <time>2021-03-30T12:36:32.000Z</time>
      </trkpt>
      <trkpt lat="49.84952" lon="4.78951">
        <ele>341</ele>
        <time>2021-03-30T12:36:33.000Z</time>
      </trkpt>
      <trkpt lat="49.84951" lon="4.78956">
        <ele>341</ele>
        <time>2021-03-30T12:36:34.000Z</time>
      </trkpt>
      <trkpt lat="49.84949" lon="4.7896">
        <ele>341</ele>
        <time>2021-03-30T12:36:35.000Z</time>
      </trkpt>
      <trkpt lat="49.84948" lon="4.78964">
        <ele>341</ele>
        <time>2021-03-30T12:36:36.000Z</time>
      </trkpt>
      <trkpt lat="49.84946" lon="4.78968">
        <ele>341</ele>
        <time>2021-03-30T12:36:37.000Z</time>
      </trkpt>
      <trkpt lat="49.84944" lon="4.78972">
        <ele>342</ele>
        <time>2021-03-30T12:36:38.000Z</time>
      </trkpt>
      <trkpt lat="49.84942" lon="4.78977">
        <ele>342</ele>
        <time>2021-03-30T12:36:39.000Z</time>
      </trkpt>
      <trkpt lat="49.84939" lon="4.7898">
        <ele>342</ele>
        <time>2021-03-30T12:36:40.000Z</time>
      </trkpt>
      <trkpt lat="49.84937" lon="4.78983">
        <ele>343</ele>
        <time>2021-03-30T12:36:41.000Z</time>
      </trkpt>
      <trkpt lat="49.84934" lon="4.78985">
        <ele>343</ele>
        <time>2021-03-30T12:36:42.000Z</time>
      </trkpt>
      <trkpt lat="49.84931" lon="4.78989">
        <ele>343</ele>
        <time>2021-03-30T12:36:43.000Z</time>
      </trkpt>
      <trkpt lat="49.84929" lon="4.78992">
        <ele>343</ele>
        <time>2021-03-30T12:36:44.000Z</time>
      </trkpt>
      <trkpt lat="49.84926" lon="4.78997">
        <ele>343</ele>
        <time>2021-03-30T12:36:45.000Z</time>
      </trkpt>
      <trkpt lat="49.84923" lon="4.79001">
        <ele>343</ele>
        <time>2021-03-30T12:36:46.000Z</time>
      </trkpt>
      <trkpt lat="49.84921" lon="4.79006">
        <ele>343</ele>
        <time>2021-03-30T12:36:47.000Z</time>
      </trkpt>
      <trkpt lat="49.84919" lon="4.7901">
        <ele>344</ele>
        <time>2021-03-30T12:36:48.000Z</time>
      </trkpt>
      <trkpt lat="49.84917" lon="4.79016">
        <ele>344</ele>
        <time>2021-03-30T12:36:49.000Z</time>
      </trkpt>
      <trkpt lat="49.84916" lon="4.79021">
        <ele>344</ele>
        <time>2021-03-30T12:36:50.000Z</time>
      </trkpt>
      <trkpt lat="49.84915" lon="4.79026">
        <ele>344</ele>
        <time>2021-03-30T12:36:51.000Z</time>
      </trkpt>
      <trkpt lat="49.84914" lon="4.79031">
        <ele>344</ele>
        <time>2021-03-30T12:36:52.000Z</time>
      </trkpt>
      <trkpt lat="49.84913" lon="4.79036">
        <ele>345</ele>
        <time>2021-03-30T12:36:53.000Z</time>
      </trkpt>
      <trkpt lat="49.84912" lon="4.7904">
        <ele>345</ele>
        <time>2021-03-30T12:36:54.000Z</time>
      </trkpt>
      <trkpt lat="49.84911" lon="4.79044">
        <ele>345</ele>
        <time>2021-03-30T12:36:55.000Z</time>
      </trkpt>
      <trkpt lat="49.8491" lon="4.79048">
        <ele>345</ele>
        <time>2021-03-30T12:36:56.000Z</time>
      </trkpt>
      <trkpt lat="49.84908" lon="4.79051">
        <ele>346</ele>
        <time>2021-03-30T12:36:57.000Z</time>
      </trkpt>
      <trkpt lat="49.84907" lon="4.79054">
        <ele>346</ele>
        <time>2021-03-30T12:36:58.000Z</time>
      </trkpt>
      <trkpt lat="49.84906" lon="4.79056">
        <ele>346</ele>
        <time>2021-03-30T12:36:59.000Z</time>
      </trkpt>
      <trkpt lat="49.84905" lon="4.79059">
        <ele>346</ele>
        <time>2021-03-30T12:37:00.000Z</time>
      </trkpt>
      <trkpt lat="49.84904" lon="4.79063">
        <ele>346</ele>
        <time>2021-03-30T12:37:01.000Z</time>
      </trkpt>
      <trkpt lat="49.84903" lon="4.79067">
        <ele>347</ele>
        <time>2021-03-30T12:37:02.000Z</time>
      </trkpt>
      <trkpt lat="49.84902" lon="4.79072">
        <ele>347</ele>
        <time>2021-03-30T12:37:03.000Z</time>
      </trkpt>
      <trkpt lat="49.84902" lon="4.79076">
        <ele>347</ele>
        <time>2021-03-30T12:37:04.000Z</time>
      </trkpt>
      <trkpt lat="49.84902" lon="4.7908">
        <ele>347</ele>
        <time>2021-03-30T12:37:05.000Z</time>
      </trkpt>
      <trkpt lat="49.84902" lon="4.79085">
        <ele>347</ele>
        <time>2021-03-30T12:37:06.000Z</time>
      </trkpt>
      <trkpt lat="49.84901" lon="4.79091">
        <ele>348</ele>
        <time>2021-03-30T12:37:07.000Z</time>
      </trkpt>
      <trkpt lat="49.849" lon="4.79096">
        <ele>348</ele>
        <time>2021-03-30T12:37:08.000Z</time>
      </trkpt>
      <trkpt lat="49.849" lon="4.79102">
        <ele>348</ele>
        <time>2021-03-30T12:37:09.000Z</time>
      </trkpt>
      <trkpt lat="49.84899" lon="4.79108">
        <ele>348</ele>
        <time>2021-03-30T12:37:10.000Z</time>
      </trkpt>
      <trkpt lat="49.84899" lon="4.79114">
        <ele>349</ele>
        <time>2021-03-30T12:37:11.000Z</time>
      </trkpt>
      <trkpt lat="49.84898" lon="4.79121">
        <ele>349</ele>
        <time>2021-03-30T12:37:12.000Z</time>
      </trkpt>
      <trkpt lat="49.84897" lon="4.79126">
        <ele>349</ele>
        <time>2021-03-30T12:37:13.000Z</time>
      </trkpt>
      <trkpt lat="49.84896" lon="4.79132">
        <ele>349</ele>
        <time>2021-03-30T12:37:14.000Z</time>
      </trkpt>
      <trkpt lat="49.84895" lon="4.79138">
        <ele>349</ele>
        <time>2021-03-30T12:37:15.000Z</time>
      </trkpt>
      <trkpt lat="49.84895" lon="4.79143">
        <ele>349</ele>
        <time>2021-03-30T12:37:16.000Z</time>
      </trkpt>
      <trkpt lat="49.84894" lon="4.79148">
        <ele>349</ele>
        <time>2021-03-30T12:37:17.000Z</time>
      </trkpt>
      <trkpt lat="49.84894" lon="4.79155">
        <ele>349</ele>
        <time>2021-03-30T12:37:18.000Z</time>
      </trkpt>
      <trkpt lat="49.84893" lon="4.79161">
        <ele>350</ele>
        <time>2021-03-30T12:37:19.000Z</time>
      </trkpt>
      <trkpt lat="49.84892" lon="4.79167">
        <ele>350</ele>
        <time>2021-03-30T12:37:20.000Z</time>
      </trkpt>
      <trkpt lat="49.8489" lon="4.79174">
        <ele>350</ele>
        <time>2021-03-30T12:37:21.000Z</time>
      </trkpt>
      <trkpt lat="49.84889" lon="4.7918">
        <ele>350</ele>
        <time>2021-03-30T12:37:22.000Z</time>
      </trkpt>
      <trkpt lat="49.84888" lon="4.79187">
        <ele>350</ele>
        <time>2021-03-30T12:37:23.000Z</time>
      </trkpt>
      <trkpt lat="49.84887" lon="4.79195">
        <ele>350</ele>
        <time>2021-03-30T12:37:24.000Z</time>
      </trkpt>
      <trkpt lat="49.84886" lon="4.79202">
        <ele>350</ele>
        <time>2021-03-30T12:37:25.000Z</time>
      </trkpt>
      <trkpt lat="49.84885" lon="4.7921">
        <ele>351</ele>
        <time>2021-03-30T12:37:26.000Z</time>
      </trkpt>
      <trkpt lat="49.84884" lon="4.79217">
        <ele>351</ele>
        <time>2021-03-30T12:37:27.000Z</time>
      </trkpt>
      <trkpt lat="49.84883" lon="4.79224">
        <ele>351</ele>
        <time>2021-03-30T12:37:28.000Z</time>
      </trkpt>
      <trkpt lat="49.84882" lon="4.79232">
        <ele>351</ele>
        <time>2021-03-30T12:37:29.000Z</time>
      </trkpt>
      <trkpt lat="49.84882" lon="4.79239">
        <ele>351</ele>
        <time>2021-03-30T12:37:30.000Z</time>
      </trkpt>
      <trkpt lat="49.84881" lon="4.79246">
        <ele>352</ele>
        <time>2021-03-30T12:37:31.000Z</time>
      </trkpt>
      <trkpt lat="49.84881" lon="4.79254">
        <ele>352</ele>
        <time>2021-03-30T12:37:32.000Z</time>
      </trkpt>
      <trkpt lat="49.84881" lon="4.79262">
        <ele>352</ele>
        <time>2021-03-30T12:37:33.000Z</time>
      </trkpt>
      <trkpt lat="49.8488" lon="4.79269">
        <ele>352</ele>
        <time>2021-03-30T12:37:34.000Z</time>
      </trkpt>
      <trkpt lat="49.84879" lon="4.79277">
        <ele>352</ele>
        <time>2021-03-30T12:37:35.000Z</time>
      </trkpt>
      <trkpt lat="49.84878" lon="4.79283">
        <ele>352</ele>
        <time>2021-03-30T12:37:36.000Z</time>
      </trkpt>
      <trkpt lat="49.84877" lon="4.7929">
        <ele>352</ele>
        <time>2021-03-30T12:37:37.000Z</time>
      </trkpt>
      <trkpt lat="49.84877" lon="4.79296">
        <ele>352</ele>
        <time>2021-03-30T12:37:38.000Z</time>
      </trkpt>
      <trkpt lat="49.84877" lon="4.79303">
        <ele>352</ele>
        <time>2021-03-30T12:37:39.000Z</time>
      </trkpt>
      <trkpt lat="49.84876" lon="4.79309">
        <ele>352</ele>
        <time>2021-03-30T12:37:40.000Z</time>
      </trkpt>
      <trkpt lat="49.84875" lon="4.79316">
        <ele>352</ele>
        <time>2021-03-30T12:37:41.000Z</time>
      </trkpt>
      <trkpt lat="49.84874" lon="4.79324">
        <ele>352</ele>
        <time>2021-03-30T12:37:42.000Z</time>
      </trkpt>
      <trkpt lat="49.84873" lon="4.79331">
        <ele>352</ele>
        <time>2021-03-30T12:37:43.000Z</time>
      </trkpt>
      <trkpt lat="49.84871" lon="4.79338">
        <ele>352</ele>
        <time>2021-03-30T12:37:44.000Z</time>
      </trkpt>
      <trkpt lat="49.84869" lon="4.79345">
        <ele>352</ele>
        <time>2021-03-30T12:37:45.000Z</time>
      </trkpt>
      <trkpt lat="49.84868" lon="4.79351">
        <ele>352</ele>
        <time>2021-03-30T12:37:46.000Z</time>
      </trkpt>
      <trkpt lat="49.84867" lon="4.79358">
        <ele>352</ele>
        <time>2021-03-30T12:37:47.000Z</time>
      </trkpt>
      <trkpt lat="49.84866" lon="4.79364">
        <ele>352</ele>
        <time>2021-03-30T12:37:48.000Z</time>
      </trkpt>
      <trkpt lat="49.84865" lon="4.79369">
        <ele>352</ele>
        <time>2021-03-30T12:37:49.000Z</time>
      </trkpt>
      <trkpt lat="49.84863" lon="4.79375">
        <ele>352</ele>
        <time>2021-03-30T12:37:50.000Z</time>
      </trkpt>
      <trkpt lat="49.84861" lon="4.79381">
        <ele>352</ele>
        <time>2021-03-30T12:37:51.000Z</time>
      </trkpt>
      <trkpt lat="49.8486" lon="4.79387">
        <ele>352</ele>
        <time>2021-03-30T12:37:52.000Z</time>
      </trkpt>
      <trkpt lat="49.84859" lon="4.79393">
        <ele>352</ele>
        <time>2021-03-30T12:37:53.000Z</time>
      </trkpt>
      <trkpt lat="49.84858" lon="4.79399">
        <ele>352</ele>
        <time>2021-03-30T12:37:54.000Z</time>
      </trkpt>
      <trkpt lat="49.84856" lon="4.79405">
        <ele>352</ele>
        <time>2021-03-30T12:37:55.000Z</time>
      </trkpt>
      <trkpt lat="49.84854" lon="4.79411">
        <ele>352</ele>
        <time>2021-03-30T12:37:56.000Z</time>
      </trkpt>
      <trkpt lat="49.84852" lon="4.79417">
        <ele>352</ele>
        <time>2021-03-30T12:37:57.000Z</time>
      </trkpt>
      <trkpt lat="49.84849" lon="4.79422">
        <ele>353</ele>
        <time>2021-03-30T12:37:58.000Z</time>
      </trkpt>
      <trkpt lat="49.84847" lon="4.79427">
        <ele>353</ele>
        <time>2021-03-30T12:37:59.000Z</time>
      </trkpt>
      <trkpt lat="49.84845" lon="4.79431">
        <ele>353</ele>
        <time>2021-03-30T12:38:00.000Z</time>
      </trkpt>
      <trkpt lat="49.84844" lon="4.79434">
        <ele>353</ele>
        <time>2021-03-30T12:38:01.000Z</time>
      </trkpt>
      <trkpt lat="49.84842" lon="4.79438">
        <ele>353</ele>
        <time>2021-03-30T12:38:02.000Z</time>
      </trkpt>
      <trkpt lat="49.8484" lon="4.79441">
        <ele>353</ele>
        <time>2021-03-30T12:38:03.000Z</time>
      </trkpt>
      <trkpt lat="49.84839" lon="4.79446">
        <ele>353</ele>
        <time>2021-03-30T12:38:04.000Z</time>
      </trkpt>
      <trkpt lat="49.84837" lon="4.7945">
        <ele>353</ele>
        <time>2021-03-30T12:38:05.000Z</time>
      </trkpt>
      <trkpt lat="49.84836" lon="4.79455">
        <ele>353</ele>
        <time>2021-03-30T12:38:06.000Z</time>
      </trkpt>
      <trkpt lat="49.84835" lon="4.79458">
        <ele>354</ele>
        <time>2021-03-30T12:38:07.000Z</time>
      </trkpt>
      <trkpt lat="49.84833" lon="4.79462">
        <ele>354</ele>
        <time>2021-03-30T12:38:08.000Z</time>
      </trkpt>
      <trkpt lat="49.84831" lon="4.79466">
        <ele>354</ele>
        <time>2021-03-30T12:38:09.000Z</time>
      </trkpt>
      <trkpt lat="49.84829" lon="4.79471">
        <ele>354</ele>
        <time>2021-03-30T12:38:10.000Z</time>
      </trkpt>
      <trkpt lat="49.84828" lon="4.79475">
        <ele>354</ele>
        <time>2021-03-30T12:38:11.000Z</time>
      </trkpt>
      <trkpt lat="49.84827" lon="4.79479">
        <ele>354</ele>
        <time>2021-03-30T12:38:12.000Z</time>
      </trkpt>
      <trkpt lat="49.84825" lon="4.79483">
        <ele>354</ele>
        <time>2021-03-30T12:38:13.000Z</time>
      </trkpt>
      <trkpt lat="49.84823" lon="4.79487">
        <ele>354</ele>
        <time>2021-03-30T12:38:14.000Z</time>
      </trkpt>
      <trkpt lat="49.84821" lon="4.79491">
        <ele>354</ele>
        <time>2021-03-30T12:38:15.000Z</time>
      </trkpt>
      <trkpt lat="49.84819" lon="4.79495">
        <ele>354</ele>
        <time>2021-03-30T12:38:16.000Z</time>
      </trkpt>
      <trkpt lat="49.84818" lon="4.79499">
        <ele>354</ele>
        <time>2021-03-30T12:38:17.000Z</time>
      </trkpt>
      <trkpt lat="49.84816" lon="4.79503">
        <ele>354</ele>
        <time>2021-03-30T12:38:18.000Z</time>
      </trkpt>
      <trkpt lat="49.84815" lon="4.79507">
        <ele>355</ele>
        <time>2021-03-30T12:38:19.000Z</time>
      </trkpt>
      <trkpt lat="49.84813" lon="4.7951">
        <ele>355</ele>
        <time>2021-03-30T12:38:20.000Z</time>
      </trkpt>
      <trkpt lat="49.84812" lon="4.79514">
        <ele>355</ele>
        <time>2021-03-30T12:38:21.000Z</time>
      </trkpt>
      <trkpt lat="49.84811" lon="4.79517">
        <ele>355</ele>
        <time>2021-03-30T12:38:22.000Z</time>
      </trkpt>
      <trkpt lat="49.8481" lon="4.79521">
        <ele>355</ele>
        <time>2021-03-30T12:38:23.000Z</time>
      </trkpt>
      <trkpt lat="49.8481" lon="4.79524">
        <ele>355</ele>
        <time>2021-03-30T12:38:24.000Z</time>
      </trkpt>
      <trkpt lat="49.84809" lon="4.79527">
        <ele>355</ele>
        <time>2021-03-30T12:38:25.000Z</time>
      </trkpt>
      <trkpt lat="49.84808" lon="4.79531">
        <ele>355</ele>
        <time>2021-03-30T12:38:26.000Z</time>
      </trkpt>
      <trkpt lat="49.84808" lon="4.79534">
        <ele>355</ele>
        <time>2021-03-30T12:38:27.000Z</time>
      </trkpt>
      <trkpt lat="49.84807" lon="4.79536">
        <ele>356</ele>
        <time>2021-03-30T12:38:28.000Z</time>
      </trkpt>
      <trkpt lat="49.84807" lon="4.79539">
        <ele>356</ele>
        <time>2021-03-30T12:38:29.000Z</time>
      </trkpt>
      <trkpt lat="49.84806" lon="4.79542">
        <ele>356</ele>
        <time>2021-03-30T12:38:30.000Z</time>
      </trkpt>
      <trkpt lat="49.84805" lon="4.79545">
        <ele>356</ele>
        <time>2021-03-30T12:38:31.000Z</time>
      </trkpt>
      <trkpt lat="49.84804" lon="4.79548">
        <ele>356</ele>
        <time>2021-03-30T12:38:32.000Z</time>
      </trkpt>
      <trkpt lat="49.84803" lon="4.79551">
        <ele>356</ele>
        <time>2021-03-30T12:38:33.000Z</time>
      </trkpt>
      <trkpt lat="49.84802" lon="4.79555">
        <ele>357</ele>
        <time>2021-03-30T12:38:34.000Z</time>
      </trkpt>
      <trkpt lat="49.84802" lon="4.79558">
        <ele>357</ele>
        <time>2021-03-30T12:38:35.000Z</time>
      </trkpt>
      <trkpt lat="49.84801" lon="4.79561">
        <ele>357</ele>
        <time>2021-03-30T12:38:36.000Z</time>
      </trkpt>
      <trkpt lat="49.84801" lon="4.79564">
        <ele>357</ele>
        <time>2021-03-30T12:38:37.000Z</time>
      </trkpt>
      <trkpt lat="49.84799" lon="4.79568">
        <ele>357</ele>
        <time>2021-03-30T12:38:38.000Z</time>
      </trkpt>
      <trkpt lat="49.84799" lon="4.79572">
        <ele>357</ele>
        <time>2021-03-30T12:38:39.000Z</time>
      </trkpt>
      <trkpt lat="49.84797" lon="4.79575">
        <ele>358</ele>
        <time>2021-03-30T12:38:40.000Z</time>
      </trkpt>
      <trkpt lat="49.84797" lon="4.7958">
        <ele>358</ele>
        <time>2021-03-30T12:38:41.000Z</time>
      </trkpt>
      <trkpt lat="49.84797" lon="4.79584">
        <ele>358</ele>
        <time>2021-03-30T12:38:42.000Z</time>
      </trkpt>
      <trkpt lat="49.84797" lon="4.79587">
        <ele>358</ele>
        <time>2021-03-30T12:38:43.000Z</time>
      </trkpt>
      <trkpt lat="49.84798" lon="4.79591">
        <ele>358</ele>
        <time>2021-03-30T12:38:44.000Z</time>
      </trkpt>
      <trkpt lat="49.84798" lon="4.79595">
        <ele>359</ele>
        <time>2021-03-30T12:38:45.000Z</time>
      </trkpt>
      <trkpt lat="49.84798" lon="4.79599">
        <ele>359</ele>
        <time>2021-03-30T12:38:46.000Z</time>
      </trkpt>
      <trkpt lat="49.84799" lon="4.79603">
        <ele>359</ele>
        <time>2021-03-30T12:38:47.000Z</time>
      </trkpt>
      <trkpt lat="49.84799" lon="4.79607">
        <ele>359</ele>
        <time>2021-03-30T12:38:48.000Z</time>
      </trkpt>
      <trkpt lat="49.84799" lon="4.79611">
        <ele>359</ele>
        <time>2021-03-30T12:38:49.000Z</time>
      </trkpt>
      <trkpt lat="49.848" lon="4.79616">
        <ele>359</ele>
        <time>2021-03-30T12:38:50.000Z</time>
      </trkpt>
      <trkpt lat="49.848" lon="4.7962">
        <ele>360</ele>
        <time>2021-03-30T12:38:51.000Z</time>
      </trkpt>
      <trkpt lat="49.848" lon="4.79625">
        <ele>360</ele>
        <time>2021-03-30T12:38:52.000Z</time>
      </trkpt>
      <trkpt lat="49.84801" lon="4.79628">
        <ele>360</ele>
        <time>2021-03-30T12:38:53.000Z</time>
      </trkpt>
      <trkpt lat="49.84803" lon="4.79631">
        <ele>360</ele>
        <time>2021-03-30T12:38:54.000Z</time>
      </trkpt>
      <trkpt lat="49.84804" lon="4.79633">
        <ele>360</ele>
        <time>2021-03-30T12:38:55.000Z</time>
      </trkpt>
      <trkpt lat="49.84806" lon="4.79636">
        <ele>360</ele>
        <time>2021-03-30T12:38:56.000Z</time>
      </trkpt>
      <trkpt lat="49.84807" lon="4.79639">
        <ele>360</ele>
        <time>2021-03-30T12:38:57.000Z</time>
      </trkpt>
      <trkpt lat="49.84808" lon="4.79644">
        <ele>360</ele>
        <time>2021-03-30T12:38:58.000Z</time>
      </trkpt>
      <trkpt lat="49.84808" lon="4.79649">
        <ele>360</ele>
        <time>2021-03-30T12:38:59.000Z</time>
      </trkpt>
      <trkpt lat="49.84808" lon="4.79653">
        <ele>360</ele>
        <time>2021-03-30T12:39:00.000Z</time>
      </trkpt>
      <trkpt lat="49.84808" lon="4.79658">
        <ele>360</ele>
        <time>2021-03-30T12:39:01.000Z</time>
      </trkpt>
      <trkpt lat="49.84807" lon="4.79663">
        <ele>361</ele>
        <time>2021-03-30T12:39:02.000Z</time>
      </trkpt>
      <trkpt lat="49.84807" lon="4.79667">
        <ele>361</ele>
        <time>2021-03-30T12:39:03.000Z</time>
      </trkpt>
      <trkpt lat="49.84807" lon="4.79672">
        <ele>361</ele>
        <time>2021-03-30T12:39:04.000Z</time>
      </trkpt>
      <trkpt lat="49.84807" lon="4.79676">
        <ele>361</ele>
        <time>2021-03-30T12:39:05.000Z</time>
      </trkpt>
      <trkpt lat="49.84807" lon="4.7968">
        <ele>361</ele>
        <time>2021-03-30T12:39:06.000Z</time>
      </trkpt>
      <trkpt lat="49.84807" lon="4.79685">
        <ele>362</ele>
        <time>2021-03-30T12:39:07.000Z</time>
      </trkpt>
      <trkpt lat="49.84807" lon="4.79689">
        <ele>362</ele>
        <time>2021-03-30T12:39:08.000Z</time>
      </trkpt>
      <trkpt lat="49.84807" lon="4.79693">
        <ele>362</ele>
        <time>2021-03-30T12:39:09.000Z</time>
      </trkpt>
      <trkpt lat="49.84807" lon="4.79697">
        <ele>362</ele>
        <time>2021-03-30T12:39:10.000Z</time>
      </trkpt>
      <trkpt lat="49.84807" lon="4.79701">
        <ele>362</ele>
        <time>2021-03-30T12:39:11.000Z</time>
      </trkpt>
      <trkpt lat="49.84806" lon="4.79705">
        <ele>362</ele>
        <time>2021-03-30T12:39:12.000Z</time>
      </trkpt>
      <trkpt lat="49.84806" lon="4.7971">
        <ele>362</ele>
        <time>2021-03-30T12:39:13.000Z</time>
      </trkpt>
      <trkpt lat="49.84806" lon="4.79714">
        <ele>363</ele>
        <time>2021-03-30T12:39:14.000Z</time>
      </trkpt>
      <trkpt lat="49.84806" lon="4.79718">
        <ele>363</ele>
        <time>2021-03-30T12:39:15.000Z</time>
      </trkpt>
      <trkpt lat="49.84806" lon="4.79722">
        <ele>363</ele>
        <time>2021-03-30T12:39:16.000Z</time>
      </trkpt>
      <trkpt lat="49.84806" lon="4.79727">
        <ele>363</ele>
        <time>2021-03-30T12:39:17.000Z</time>
      </trkpt>
      <trkpt lat="49.84807" lon="4.79731">
        <ele>363</ele>
        <time>2021-03-30T12:39:18.000Z</time>
      </trkpt>
      <trkpt lat="49.84807" lon="4.79735">
        <ele>363</ele>
        <time>2021-03-30T12:39:19.000Z</time>
      </trkpt>
      <trkpt lat="49.84808" lon="4.79739">
        <ele>363</ele>
        <time>2021-03-30T12:39:20.000Z</time>
      </trkpt>
      <trkpt lat="49.84808" lon="4.79743">
        <ele>363</ele>
        <time>2021-03-30T12:39:21.000Z</time>
      </trkpt>
      <trkpt lat="49.84809" lon="4.79748">
        <ele>364</ele>
        <time>2021-03-30T12:39:22.000Z</time>
      </trkpt>
      <trkpt lat="49.84809" lon="4.79752">
        <ele>364</ele>
        <time>2021-03-30T12:39:23.000Z</time>
      </trkpt>
      <trkpt lat="49.84809" lon="4.79756">
        <ele>364</ele>
        <time>2021-03-30T12:39:24.000Z</time>
      </trkpt>
      <trkpt lat="49.84809" lon="4.7976">
        <ele>364</ele>
        <time>2021-03-30T12:39:25.000Z</time>
      </trkpt>
      <trkpt lat="49.8481" lon="4.79764">
        <ele>364</ele>
        <time>2021-03-30T12:39:26.000Z</time>
      </trkpt>
      <trkpt lat="49.8481" lon="4.79768">
        <ele>364</ele>
        <time>2021-03-30T12:39:27.000Z</time>
      </trkpt>
      <trkpt lat="49.84811" lon="4.79771">
        <ele>364</ele>
        <time>2021-03-30T12:39:28.000Z</time>
      </trkpt>
      <trkpt lat="49.84811" lon="4.79775">
        <ele>365</ele>
        <time>2021-03-30T12:39:29.000Z</time>
      </trkpt>
      <trkpt lat="49.84811" lon="4.79779">
        <ele>365</ele>
        <time>2021-03-30T12:39:30.000Z</time>
      </trkpt>
      <trkpt lat="49.84812" lon="4.79783">
        <ele>365</ele>
        <time>2021-03-30T12:39:31.000Z</time>
      </trkpt>
      <trkpt lat="49.84812" lon="4.79786">
        <ele>365</ele>
        <time>2021-03-30T12:39:32.000Z</time>
      </trkpt>
      <trkpt lat="49.84813" lon="4.7979">
        <ele>365</ele>
        <time>2021-03-30T12:39:33.000Z</time>
      </trkpt>
      <trkpt lat="49.84813" lon="4.79793">
        <ele>366</ele>
        <time>2021-03-30T12:39:34.000Z</time>
      </trkpt>
      <trkpt lat="49.84814" lon="4.79797">
        <ele>366</ele>
        <time>2021-03-30T12:39:35.000Z</time>
      </trkpt>
      <trkpt lat="49.84814" lon="4.798">
        <ele>366</ele>
        <time>2021-03-30T12:39:36.000Z</time>
      </trkpt>
      <trkpt lat="49.84815" lon="4.79804">
        <ele>366</ele>
        <time>2021-03-30T12:39:37.000Z</time>
      </trkpt>
      <trkpt lat="49.84815" lon="4.79808">
        <ele>367</ele>
        <time>2021-03-30T12:39:38.000Z</time>
      </trkpt>
      <trkpt lat="49.84816" lon="4.79812">
        <ele>367</ele>
        <time>2021-03-30T12:39:39.000Z</time>
      </trkpt>
      <trkpt lat="49.84816" lon="4.79816">
        <ele>367</ele>
        <time>2021-03-30T12:39:40.000Z</time>
      </trkpt>
      <trkpt lat="49.84816" lon="4.79821">
        <ele>368</ele>
        <time>2021-03-30T12:39:41.000Z</time>
      </trkpt>
      <trkpt lat="49.84817" lon="4.79824">
        <ele>368</ele>
        <time>2021-03-30T12:39:42.000Z</time>
      </trkpt>
      <trkpt lat="49.84818" lon="4.79828">
        <ele>368</ele>
        <time>2021-03-30T12:39:43.000Z</time>
      </trkpt>
      <trkpt lat="49.84819" lon="4.79832">
        <ele>368</ele>
        <time>2021-03-30T12:39:44.000Z</time>
      </trkpt>
      <trkpt lat="49.8482" lon="4.79836">
        <ele>369</ele>
        <time>2021-03-30T12:39:45.000Z</time>
      </trkpt>
      <trkpt lat="49.84821" lon="4.79839">
        <ele>369</ele>
        <time>2021-03-30T12:39:46.000Z</time>
      </trkpt>
      <trkpt lat="49.84822" lon="4.79843">
        <ele>369</ele>
        <time>2021-03-30T12:39:47.000Z</time>
      </trkpt>
      <trkpt lat="49.84823" lon="4.79848">
        <ele>369</ele>
        <time>2021-03-30T12:39:48.000Z</time>
      </trkpt>
      <trkpt lat="49.84823" lon="4.79852">
        <ele>370</ele>
        <time>2021-03-30T12:39:49.000Z</time>
      </trkpt>
      <trkpt lat="49.84824" lon="4.79856">
        <ele>370</ele>
        <time>2021-03-30T12:39:50.000Z</time>
      </trkpt>
      <trkpt lat="49.84825" lon="4.7986">
        <ele>370</ele>
        <time>2021-03-30T12:39:51.000Z</time>
      </trkpt>
      <trkpt lat="49.84827" lon="4.79864">
        <ele>370</ele>
        <time>2021-03-30T12:39:52.000Z</time>
      </trkpt>
      <trkpt lat="49.84828" lon="4.79868">
        <ele>370</ele>
        <time>2021-03-30T12:39:53.000Z</time>
      </trkpt>
      <trkpt lat="49.84829" lon="4.79873">
        <ele>370</ele>
        <time>2021-03-30T12:39:54.000Z</time>
      </trkpt>
      <trkpt lat="49.84829" lon="4.79878">
        <ele>370</ele>
        <time>2021-03-30T12:39:55.000Z</time>
      </trkpt>
      <trkpt lat="49.84829" lon="4.79883">
        <ele>370</ele>
        <time>2021-03-30T12:39:56.000Z</time>
      </trkpt>
      <trkpt lat="49.84829" lon="4.79888">
        <ele>371</ele>
        <time>2021-03-30T12:39:57.000Z</time>
      </trkpt>
      <trkpt lat="49.84828" lon="4.79893">
        <ele>371</ele>
        <time>2021-03-30T12:39:58.000Z</time>
      </trkpt>
      <trkpt lat="49.84828" lon="4.79898">
        <ele>371</ele>
        <time>2021-03-30T12:39:59.000Z</time>
      </trkpt>
      <trkpt lat="49.84829" lon="4.79902">
        <ele>371</ele>
        <time>2021-03-30T12:40:00.000Z</time>
      </trkpt>
      <trkpt lat="49.84828" lon="4.79906">
        <ele>371</ele>
        <time>2021-03-30T12:40:01.000Z</time>
      </trkpt>
      <trkpt lat="49.84828" lon="4.79911">
        <ele>371</ele>
        <time>2021-03-30T12:40:02.000Z</time>
      </trkpt>
      <trkpt lat="49.84828" lon="4.79915">
        <ele>371</ele>
        <time>2021-03-30T12:40:03.000Z</time>
      </trkpt>
      <trkpt lat="49.84827" lon="4.7992">
        <ele>371</ele>
        <time>2021-03-30T12:40:04.000Z</time>
      </trkpt>
      <trkpt lat="49.84827" lon="4.79925">
        <ele>371</ele>
        <time>2021-03-30T12:40:05.000Z</time>
      </trkpt>
      <trkpt lat="49.84827" lon="4.7993">
        <ele>371</ele>
        <time>2021-03-30T12:40:06.000Z</time>
      </trkpt>
      <trkpt lat="49.84826" lon="4.79934">
        <ele>371</ele>
        <time>2021-03-30T12:40:07.000Z</time>
      </trkpt>
      <trkpt lat="49.84825" lon="4.79939">
        <ele>371</ele>
        <time>2021-03-30T12:40:08.000Z</time>
      </trkpt>
      <trkpt lat="49.84824" lon="4.79944">
        <ele>371</ele>
        <time>2021-03-30T12:40:09.000Z</time>
      </trkpt>
      <trkpt lat="49.84824" lon="4.79949">
        <ele>371</ele>
        <time>2021-03-30T12:40:10.000Z</time>
      </trkpt>
      <trkpt lat="49.84824" lon="4.79953">
        <ele>371</ele>
        <time>2021-03-30T12:40:11.000Z</time>
      </trkpt>
      <trkpt lat="49.84823" lon="4.79957">
        <ele>371</ele>
        <time>2021-03-30T12:40:12.000Z</time>
      </trkpt>
      <trkpt lat="49.84822" lon="4.79961">
        <ele>371</ele>
        <time>2021-03-30T12:40:13.000Z</time>
      </trkpt>
      <trkpt lat="49.84822" lon="4.79965">
        <ele>371</ele>
        <time>2021-03-30T12:40:14.000Z</time>
      </trkpt>
      <trkpt lat="49.84822" lon="4.7997">
        <ele>371</ele>
        <time>2021-03-30T12:40:15.000Z</time>
      </trkpt>
      <trkpt lat="49.84821" lon="4.79975">
        <ele>371</ele>
        <time>2021-03-30T12:40:16.000Z</time>
      </trkpt>
      <trkpt lat="49.84821" lon="4.79979">
        <ele>372</ele>
        <time>2021-03-30T12:40:17.000Z</time>
      </trkpt>
      <trkpt lat="49.8482" lon="4.79984">
        <ele>372</ele>
        <time>2021-03-30T12:40:18.000Z</time>
      </trkpt>
      <trkpt lat="49.8482" lon="4.79988">
        <ele>372</ele>
        <time>2021-03-30T12:40:19.000Z</time>
      </trkpt>
      <trkpt lat="49.8482" lon="4.79992">
        <ele>372</ele>
        <time>2021-03-30T12:40:20.000Z</time>
      </trkpt>
      <trkpt lat="49.84819" lon="4.79997">
        <ele>372</ele>
        <time>2021-03-30T12:40:21.000Z</time>
      </trkpt>
      <trkpt lat="49.84819" lon="4.80001">
        <ele>372</ele>
        <time>2021-03-30T12:40:22.000Z</time>
      </trkpt>
      <trkpt lat="49.84817" lon="4.80005">
        <ele>372</ele>
        <time>2021-03-30T12:40:23.000Z</time>
      </trkpt>
      <trkpt lat="49.84815" lon="4.80009">
        <ele>373</ele>
        <time>2021-03-30T12:40:24.000Z</time>
      </trkpt>
      <trkpt lat="49.84814" lon="4.80013">
        <ele>373</ele>
        <time>2021-03-30T12:40:25.000Z</time>
      </trkpt>
      <trkpt lat="49.84812" lon="4.80016">
        <ele>373</ele>
        <time>2021-03-30T12:40:26.000Z</time>
      </trkpt>
      <trkpt lat="49.84811" lon="4.8002">
        <ele>373</ele>
        <time>2021-03-30T12:40:27.000Z</time>
      </trkpt>
      <trkpt lat="49.8481" lon="4.80024">
        <ele>373</ele>
        <time>2021-03-30T12:40:28.000Z</time>
      </trkpt>
      <trkpt lat="49.84808" lon="4.80028">
        <ele>373</ele>
        <time>2021-03-30T12:40:29.000Z</time>
      </trkpt>
      <trkpt lat="49.84807" lon="4.80032">
        <ele>374</ele>
        <time>2021-03-30T12:40:30.000Z</time>
      </trkpt>
      <trkpt lat="49.84805" lon="4.80036">
        <ele>374</ele>
        <time>2021-03-30T12:40:31.000Z</time>
      </trkpt>
      <trkpt lat="49.84803" lon="4.8004">
        <ele>374</ele>
        <time>2021-03-30T12:40:32.000Z</time>
      </trkpt>
      <trkpt lat="49.84801" lon="4.80043">
        <ele>374</ele>
        <time>2021-03-30T12:40:33.000Z</time>
      </trkpt>
      <trkpt lat="49.848" lon="4.80047">
        <ele>374</ele>
        <time>2021-03-30T12:40:34.000Z</time>
      </trkpt>
      <trkpt lat="49.84798" lon="4.8005">
        <ele>374</ele>
        <time>2021-03-30T12:40:35.000Z</time>
      </trkpt>
      <trkpt lat="49.84797" lon="4.80054">
        <ele>375</ele>
        <time>2021-03-30T12:40:36.000Z</time>
      </trkpt>
      <trkpt lat="49.84796" lon="4.80058">
        <ele>375</ele>
        <time>2021-03-30T12:40:37.000Z</time>
      </trkpt>
      <trkpt lat="49.84795" lon="4.80063">
        <ele>375</ele>
        <time>2021-03-30T12:40:38.000Z</time>
      </trkpt>
      <trkpt lat="49.84794" lon="4.80068">
        <ele>375</ele>
        <time>2021-03-30T12:40:39.000Z</time>
      </trkpt>
      <trkpt lat="49.84793" lon="4.80072">
        <ele>376</ele>
        <time>2021-03-30T12:40:40.000Z</time>
      </trkpt>
      <trkpt lat="49.84792" lon="4.80077">
        <ele>376</ele>
        <time>2021-03-30T12:40:41.000Z</time>
      </trkpt>
      <trkpt lat="49.84791" lon="4.80082">
        <ele>376</ele>
        <time>2021-03-30T12:40:42.000Z</time>
      </trkpt>
      <trkpt lat="49.8479" lon="4.80087">
        <ele>377</ele>
        <time>2021-03-30T12:40:43.000Z</time>
      </trkpt>
      <trkpt lat="49.8479" lon="4.80092">
        <ele>377</ele>
        <time>2021-03-30T12:40:44.000Z</time>
      </trkpt>
      <trkpt lat="49.84789" lon="4.80097">
        <ele>377</ele>
        <time>2021-03-30T12:40:45.000Z</time>
      </trkpt>
      <trkpt lat="49.84788" lon="4.80102">
        <ele>378</ele>
        <time>2021-03-30T12:40:46.000Z</time>
      </trkpt>
      <trkpt lat="49.84787" lon="4.80107">
        <ele>378</ele>
        <time>2021-03-30T12:40:47.000Z</time>
      </trkpt>
      <trkpt lat="49.84786" lon="4.80112">
        <ele>378</ele>
        <time>2021-03-30T12:40:48.000Z</time>
      </trkpt>
      <trkpt lat="49.84786" lon="4.80116">
        <ele>379</ele>
        <time>2021-03-30T12:40:49.000Z</time>
      </trkpt>
      <trkpt lat="49.84785" lon="4.80121">
        <ele>379</ele>
        <time>2021-03-30T12:40:50.000Z</time>
      </trkpt>
      <trkpt lat="49.84784" lon="4.80124">
        <ele>379</ele>
        <time>2021-03-30T12:40:51.000Z</time>
      </trkpt>
      <trkpt lat="49.84783" lon="4.80129">
        <ele>380</ele>
        <time>2021-03-30T12:40:52.000Z</time>
      </trkpt>
      <trkpt lat="49.84781" lon="4.80133">
        <ele>380</ele>
        <time>2021-03-30T12:40:53.000Z</time>
      </trkpt>
      <trkpt lat="49.8478" lon="4.80137">
        <ele>380</ele>
        <time>2021-03-30T12:40:54.000Z</time>
      </trkpt>
      <trkpt lat="49.84779" lon="4.80142">
        <ele>381</ele>
        <time>2021-03-30T12:40:55.000Z</time>
      </trkpt>
      <trkpt lat="49.84778" lon="4.80147">
        <ele>381</ele>
        <time>2021-03-30T12:40:56.000Z</time>
      </trkpt>
      <trkpt lat="49.84777" lon="4.80151">
        <ele>381</ele>
        <time>2021-03-30T12:40:57.000Z</time>
      </trkpt>
      <trkpt lat="49.84776" lon="4.80156">
        <ele>381</ele>
        <time>2021-03-30T12:40:58.000Z</time>
      </trkpt>
      <trkpt lat="49.84775" lon="4.8016">
        <ele>382</ele>
        <time>2021-03-30T12:40:59.000Z</time>
      </trkpt>
      <trkpt lat="49.84775" lon="4.80164">
        <ele>382</ele>
        <time>2021-03-30T12:41:00.000Z</time>
      </trkpt>
      <trkpt lat="49.84774" lon="4.80169">
        <ele>382</ele>
        <time>2021-03-30T12:41:01.000Z</time>
      </trkpt>
      <trkpt lat="49.84774" lon="4.80174">
        <ele>382</ele>
        <time>2021-03-30T12:41:02.000Z</time>
      </trkpt>
      <trkpt lat="49.84773" lon="4.80178">
        <ele>382</ele>
        <time>2021-03-30T12:41:03.000Z</time>
      </trkpt>
      <trkpt lat="49.84772" lon="4.80183">
        <ele>383</ele>
        <time>2021-03-30T12:41:04.000Z</time>
      </trkpt>
      <trkpt lat="49.84771" lon="4.80187">
        <ele>383</ele>
        <time>2021-03-30T12:41:05.000Z</time>
      </trkpt>
      <trkpt lat="49.8477" lon="4.8019">
        <ele>383</ele>
        <time>2021-03-30T12:41:06.000Z</time>
      </trkpt>
      <trkpt lat="49.84769" lon="4.80194">
        <ele>383</ele>
        <time>2021-03-30T12:41:07.000Z</time>
      </trkpt>
      <trkpt lat="49.84769" lon="4.80197">
        <ele>383</ele>
        <time>2021-03-30T12:41:08.000Z</time>
      </trkpt>
      <trkpt lat="49.84768" lon="4.80201">
        <ele>383</ele>
        <time>2021-03-30T12:41:09.000Z</time>
      </trkpt>
      <trkpt lat="49.84768" lon="4.80206">
        <ele>384</ele>
        <time>2021-03-30T12:41:10.000Z</time>
      </trkpt>
      <trkpt lat="49.84768" lon="4.80211">
        <ele>384</ele>
        <time>2021-03-30T12:41:11.000Z</time>
      </trkpt>
      <trkpt lat="49.84768" lon="4.80216">
        <ele>384</ele>
        <time>2021-03-30T12:41:12.000Z</time>
      </trkpt>
      <trkpt lat="49.84767" lon="4.80221">
        <ele>384</ele>
        <time>2021-03-30T12:41:13.000Z</time>
      </trkpt>
      <trkpt lat="49.84767" lon="4.80226">
        <ele>384</ele>
        <time>2021-03-30T12:41:14.000Z</time>
      </trkpt>
      <trkpt lat="49.84766" lon="4.80231">
        <ele>385</ele>
        <time>2021-03-30T12:41:15.000Z</time>
      </trkpt>
      <trkpt lat="49.84766" lon="4.80235">
        <ele>385</ele>
        <time>2021-03-30T12:41:16.000Z</time>
      </trkpt>
      <trkpt lat="49.84765" lon="4.80239">
        <ele>385</ele>
        <time>2021-03-30T12:41:17.000Z</time>
      </trkpt>
      <trkpt lat="49.84764" lon="4.80243">
        <ele>385</ele>
        <time>2021-03-30T12:41:18.000Z</time>
      </trkpt>
      <trkpt lat="49.84763" lon="4.80247">
        <ele>386</ele>
        <time>2021-03-30T12:41:19.000Z</time>
      </trkpt>
      <trkpt lat="49.84762" lon="4.8025">
        <ele>386</ele>
        <time>2021-03-30T12:41:20.000Z</time>
      </trkpt>
      <trkpt lat="49.84761" lon="4.80255">
        <ele>386</ele>
        <time>2021-03-30T12:41:21.000Z</time>
      </trkpt>
      <trkpt lat="49.84761" lon="4.80259">
        <ele>386</ele>
        <time>2021-03-30T12:41:22.000Z</time>
      </trkpt>
      <trkpt lat="49.8476" lon="4.80263">
        <ele>386</ele>
        <time>2021-03-30T12:41:23.000Z</time>
      </trkpt>
      <trkpt lat="49.8476" lon="4.80268">
        <ele>387</ele>
        <time>2021-03-30T12:41:24.000Z</time>
      </trkpt>
      <trkpt lat="49.8476" lon="4.80272">
        <ele>387</ele>
        <time>2021-03-30T12:41:25.000Z</time>
      </trkpt>
      <trkpt lat="49.84759" lon="4.80276">
        <ele>387</ele>
        <time>2021-03-30T12:41:26.000Z</time>
      </trkpt>
      <trkpt lat="49.84759" lon="4.8028">
        <ele>387</ele>
        <time>2021-03-30T12:41:27.000Z</time>
      </trkpt>
      <trkpt lat="49.84758" lon="4.80285">
        <ele>388</ele>
        <time>2021-03-30T12:41:28.000Z</time>
      </trkpt>
      <trkpt lat="49.84758" lon="4.80289">
        <ele>388</ele>
        <time>2021-03-30T12:41:29.000Z</time>
      </trkpt>
      <trkpt lat="49.84758" lon="4.80293">
        <ele>388</ele>
        <time>2021-03-30T12:41:30.000Z</time>
      </trkpt>
      <trkpt lat="49.84758" lon="4.80298">
        <ele>388</ele>
        <time>2021-03-30T12:41:31.000Z</time>
      </trkpt>
      <trkpt lat="49.84758" lon="4.80302">
        <ele>388</ele>
        <time>2021-03-30T12:41:32.000Z</time>
      </trkpt>
      <trkpt lat="49.84758" lon="4.80307">
        <ele>388</ele>
        <time>2021-03-30T12:41:33.000Z</time>
      </trkpt>
      <trkpt lat="49.84758" lon="4.80311">
        <ele>389</ele>
        <time>2021-03-30T12:41:34.000Z</time>
      </trkpt>
      <trkpt lat="49.84758" lon="4.80317">
        <ele>389</ele>
        <time>2021-03-30T12:41:35.000Z</time>
      </trkpt>
      <trkpt lat="49.84757" lon="4.80321">
        <ele>389</ele>
        <time>2021-03-30T12:41:36.000Z</time>
      </trkpt>
      <trkpt lat="49.84756" lon="4.80325">
        <ele>389</ele>
        <time>2021-03-30T12:41:37.000Z</time>
      </trkpt>
      <trkpt lat="49.84756" lon="4.8033">
        <ele>389</ele>
        <time>2021-03-30T12:41:38.000Z</time>
      </trkpt>
      <trkpt lat="49.84756" lon="4.80335">
        <ele>389</ele>
        <time>2021-03-30T12:41:39.000Z</time>
      </trkpt>
      <trkpt lat="49.84756" lon="4.8034">
        <ele>389</ele>
        <time>2021-03-30T12:41:40.000Z</time>
      </trkpt>
      <trkpt lat="49.84757" lon="4.80346">
        <ele>389</ele>
        <time>2021-03-30T12:41:41.000Z</time>
      </trkpt>
      <trkpt lat="49.84757" lon="4.80351">
        <ele>389</ele>
        <time>2021-03-30T12:41:42.000Z</time>
      </trkpt>
      <trkpt lat="49.84757" lon="4.80357">
        <ele>390</ele>
        <time>2021-03-30T12:41:43.000Z</time>
      </trkpt>
      <trkpt lat="49.84756" lon="4.80362">
        <ele>390</ele>
        <time>2021-03-30T12:41:44.000Z</time>
      </trkpt>
      <trkpt lat="49.84754" lon="4.80368">
        <ele>390</ele>
        <time>2021-03-30T12:41:45.000Z</time>
      </trkpt>
      <trkpt lat="49.84753" lon="4.80374">
        <ele>390</ele>
        <time>2021-03-30T12:41:46.000Z</time>
      </trkpt>
      <trkpt lat="49.84752" lon="4.8038">
        <ele>390</ele>
        <time>2021-03-30T12:41:47.000Z</time>
      </trkpt>
      <trkpt lat="49.84752" lon="4.80387">
        <ele>390</ele>
        <time>2021-03-30T12:41:48.000Z</time>
      </trkpt>
      <trkpt lat="49.84752" lon="4.80394">
        <ele>390</ele>
        <time>2021-03-30T12:41:49.000Z</time>
      </trkpt>
      <trkpt lat="49.84753" lon="4.804">
        <ele>390</ele>
        <time>2021-03-30T12:41:50.000Z</time>
      </trkpt>
      <trkpt lat="49.84753" lon="4.80407">
        <ele>390</ele>
        <time>2021-03-30T12:41:51.000Z</time>
      </trkpt>
      <trkpt lat="49.84753" lon="4.80414">
        <ele>390</ele>
        <time>2021-03-30T12:41:52.000Z</time>
      </trkpt>
      <trkpt lat="49.84753" lon="4.80422">
        <ele>390</ele>
        <time>2021-03-30T12:41:53.000Z</time>
      </trkpt>
      <trkpt lat="49.84754" lon="4.80429">
        <ele>391</ele>
        <time>2021-03-30T12:41:54.000Z</time>
      </trkpt>
      <trkpt lat="49.84754" lon="4.80437">
        <ele>391</ele>
        <time>2021-03-30T12:41:55.000Z</time>
      </trkpt>
      <trkpt lat="49.84754" lon="4.80443">
        <ele>391</ele>
        <time>2021-03-30T12:41:56.000Z</time>
      </trkpt>
      <trkpt lat="49.84754" lon="4.8045">
        <ele>391</ele>
        <time>2021-03-30T12:41:57.000Z</time>
      </trkpt>
      <trkpt lat="49.84755" lon="4.80457">
        <ele>391</ele>
        <time>2021-03-30T12:41:58.000Z</time>
      </trkpt>
      <trkpt lat="49.84755" lon="4.80463">
        <ele>391</ele>
        <time>2021-03-30T12:41:59.000Z</time>
      </trkpt>
      <trkpt lat="49.84756" lon="4.8047">
        <ele>391</ele>
        <time>2021-03-30T12:42:00.000Z</time>
      </trkpt>
      <trkpt lat="49.84757" lon="4.80476">
        <ele>391</ele>
        <time>2021-03-30T12:42:01.000Z</time>
      </trkpt>
      <trkpt lat="49.84758" lon="4.80483">
        <ele>391</ele>
        <time>2021-03-30T12:42:02.000Z</time>
      </trkpt>
      <trkpt lat="49.84759" lon="4.8049">
        <ele>391</ele>
        <time>2021-03-30T12:42:03.000Z</time>
      </trkpt>
      <trkpt lat="49.84759" lon="4.80497">
        <ele>391</ele>
        <time>2021-03-30T12:42:04.000Z</time>
      </trkpt>
      <trkpt lat="49.8476" lon="4.80503">
        <ele>391</ele>
        <time>2021-03-30T12:42:05.000Z</time>
      </trkpt>
      <trkpt lat="49.8476" lon="4.8051">
        <ele>391</ele>
        <time>2021-03-30T12:42:06.000Z</time>
      </trkpt>
      <trkpt lat="49.8476" lon="4.80516">
        <ele>390</ele>
        <time>2021-03-30T12:42:07.000Z</time>
      </trkpt>
      <trkpt lat="49.84761" lon="4.80522">
        <ele>390</ele>
        <time>2021-03-30T12:42:08.000Z</time>
      </trkpt>
      <trkpt lat="49.84762" lon="4.80528">
        <ele>390</ele>
        <time>2021-03-30T12:42:09.000Z</time>
      </trkpt>
      <trkpt lat="49.84762" lon="4.80535">
        <ele>391</ele>
        <time>2021-03-30T12:42:10.000Z</time>
      </trkpt>
      <trkpt lat="49.84761" lon="4.80539">
        <ele>391</ele>
        <time>2021-03-30T12:42:11.000Z</time>
      </trkpt>
      <trkpt lat="49.84759" lon="4.80542">
        <ele>390</ele>
        <time>2021-03-30T12:42:12.000Z</time>
      </trkpt>
      <trkpt lat="49.84758" lon="4.80543">
        <ele>390</ele>
        <time>2021-03-30T12:42:13.000Z</time>
      </trkpt>
      <trkpt lat="49.84756" lon="4.80545">
        <ele>390</ele>
        <time>2021-03-30T12:42:14.000Z</time>
      </trkpt>
      <trkpt lat="49.84755" lon="4.80547">
        <ele>390</ele>
        <time>2021-03-30T12:42:15.000Z</time>
      </trkpt>
      <trkpt lat="49.84755" lon="4.8055">
        <ele>390</ele>
        <time>2021-03-30T12:42:16.000Z</time>
      </trkpt>
      <trkpt lat="49.84756" lon="4.80553">
        <ele>390</ele>
        <time>2021-03-30T12:42:17.000Z</time>
      </trkpt>
      <trkpt lat="49.84757" lon="4.80555">
        <ele>390</ele>
        <time>2021-03-30T12:42:18.000Z</time>
      </trkpt>
      <trkpt lat="49.84757" lon="4.80558">
        <ele>390</ele>
        <time>2021-03-30T12:42:19.000Z</time>
      </trkpt>
      <trkpt lat="49.84757" lon="4.80561">
        <ele>390</ele>
        <time>2021-03-30T12:42:20.000Z</time>
      </trkpt>
      <trkpt lat="49.84756" lon="4.80563">
        <ele>390</ele>
        <time>2021-03-30T12:42:21.000Z</time>
      </trkpt>
      <trkpt lat="49.84755" lon="4.80565">
        <ele>390</ele>
        <time>2021-03-30T12:42:22.000Z</time>
      </trkpt>
      <trkpt lat="49.84755" lon="4.80569">
        <ele>390</ele>
        <time>2021-03-30T12:42:23.000Z</time>
      </trkpt>
      <trkpt lat="49.84754" lon="4.80574">
        <ele>390</ele>
        <time>2021-03-30T12:42:24.000Z</time>
      </trkpt>
      <trkpt lat="49.84755" lon="4.80578">
        <ele>390</ele>
        <time>2021-03-30T12:42:25.000Z</time>
      </trkpt>
      <trkpt lat="49.84755" lon="4.80581">
        <ele>390</ele>
        <time>2021-03-30T12:42:26.000Z</time>
      </trkpt>
      <trkpt lat="49.84755" lon="4.80584">
        <ele>390</ele>
        <time>2021-03-30T12:42:27.000Z</time>
      </trkpt>
      <trkpt lat="49.84756" lon="4.80586">
        <ele>390</ele>
        <time>2021-03-30T12:42:28.000Z</time>
      </trkpt>
      <trkpt lat="49.84756" lon="4.8059">
        <ele>390</ele>
        <time>2021-03-30T12:42:29.000Z</time>
      </trkpt>
      <trkpt lat="49.84758" lon="4.80594">
        <ele>389</ele>
        <time>2021-03-30T12:42:30.000Z</time>
      </trkpt>
      <trkpt lat="49.8476" lon="4.80599">
        <ele>389</ele>
        <time>2021-03-30T12:42:31.000Z</time>
      </trkpt>
      <trkpt lat="49.84763" lon="4.80605">
        <ele>389</ele>
        <time>2021-03-30T12:42:32.000Z</time>
      </trkpt>
      <trkpt lat="49.84766" lon="4.80611">
        <ele>389</ele>
        <time>2021-03-30T12:42:33.000Z</time>
      </trkpt>
      <trkpt lat="49.84769" lon="4.80618">
        <ele>389</ele>
        <time>2021-03-30T12:42:34.000Z</time>
      </trkpt>
      <trkpt lat="49.84772" lon="4.80625">
        <ele>389</ele>
        <time>2021-03-30T12:42:35.000Z</time>
      </trkpt>
      <trkpt lat="49.84774" lon="4.80632">
        <ele>388</ele>
        <time>2021-03-30T12:42:36.000Z</time>
      </trkpt>
      <trkpt lat="49.84778" lon="4.80639">
        <ele>388</ele>
        <time>2021-03-30T12:42:37.000Z</time>
      </trkpt>
      <trkpt lat="49.84782" lon="4.80646">
        <ele>388</ele>
        <time>2021-03-30T12:42:38.000Z</time>
      </trkpt>
      <trkpt lat="49.84785" lon="4.80653">
        <ele>387</ele>
        <time>2021-03-30T12:42:39.000Z</time>
      </trkpt>
      <trkpt lat="49.84788" lon="4.80659">
        <ele>387</ele>
        <time>2021-03-30T12:42:40.000Z</time>
      </trkpt>
      <trkpt lat="49.84791" lon="4.80666">
        <ele>386</ele>
        <time>2021-03-30T12:42:41.000Z</time>
      </trkpt>
      <trkpt lat="49.84794" lon="4.80674">
        <ele>386</ele>
        <time>2021-03-30T12:42:42.000Z</time>
      </trkpt>
      <trkpt lat="49.84796" lon="4.80681">
        <ele>385</ele>
        <time>2021-03-30T12:42:43.000Z</time>
      </trkpt>
      <trkpt lat="49.84799" lon="4.80688">
        <ele>385</ele>
        <time>2021-03-30T12:42:44.000Z</time>
      </trkpt>
      <trkpt lat="49.84802" lon="4.80694">
        <ele>384</ele>
        <time>2021-03-30T12:42:45.000Z</time>
      </trkpt>
      <trkpt lat="49.84806" lon="4.80699">
        <ele>384</ele>
        <time>2021-03-30T12:42:46.000Z</time>
      </trkpt>
      <trkpt lat="49.8481" lon="4.80703">
        <ele>383</ele>
        <time>2021-03-30T12:42:47.000Z</time>
      </trkpt>
      <trkpt lat="49.84814" lon="4.80707">
        <ele>383</ele>
        <time>2021-03-30T12:42:48.000Z</time>
      </trkpt>
      <trkpt lat="49.84817" lon="4.80712">
        <ele>383</ele>
        <time>2021-03-30T12:42:49.000Z</time>
      </trkpt>
      <trkpt lat="49.8482" lon="4.80716">
        <ele>382</ele>
        <time>2021-03-30T12:42:50.000Z</time>
      </trkpt>
      <trkpt lat="49.84822" lon="4.80722">
        <ele>382</ele>
        <time>2021-03-30T12:42:51.000Z</time>
      </trkpt>
      <trkpt lat="49.84824" lon="4.80727">
        <ele>382</ele>
        <time>2021-03-30T12:42:52.000Z</time>
      </trkpt>
      <trkpt lat="49.84827" lon="4.80733">
        <ele>382</ele>
        <time>2021-03-30T12:42:53.000Z</time>
      </trkpt>
      <trkpt lat="49.8483" lon="4.80739">
        <ele>382</ele>
        <time>2021-03-30T12:42:54.000Z</time>
      </trkpt>
      <trkpt lat="49.84832" lon="4.80745">
        <ele>382</ele>
        <time>2021-03-30T12:42:55.000Z</time>
      </trkpt>
      <trkpt lat="49.84834" lon="4.80751">
        <ele>382</ele>
        <time>2021-03-30T12:42:56.000Z</time>
      </trkpt>
      <trkpt lat="49.84837" lon="4.80756">
        <ele>382</ele>
        <time>2021-03-30T12:42:57.000Z</time>
      </trkpt>
      <trkpt lat="49.84841" lon="4.80762">
        <ele>381</ele>
        <time>2021-03-30T12:42:58.000Z</time>
      </trkpt>
      <trkpt lat="49.84844" lon="4.80767">
        <ele>381</ele>
        <time>2021-03-30T12:42:59.000Z</time>
      </trkpt>
      <trkpt lat="49.84847" lon="4.80772">
        <ele>381</ele>
        <time>2021-03-30T12:43:00.000Z</time>
      </trkpt>
      <trkpt lat="49.8485" lon="4.80777">
        <ele>381</ele>
        <time>2021-03-30T12:43:01.000Z</time>
      </trkpt>
      <trkpt lat="49.84854" lon="4.80781">
        <ele>381</ele>
        <time>2021-03-30T12:43:02.000Z</time>
      </trkpt>
      <trkpt lat="49.84857" lon="4.80785">
        <ele>381</ele>
        <time>2021-03-30T12:43:03.000Z</time>
      </trkpt>
      <trkpt lat="49.84861" lon="4.80789">
        <ele>381</ele>
        <time>2021-03-30T12:43:04.000Z</time>
      </trkpt>
      <trkpt lat="49.84865" lon="4.80793">
        <ele>381</ele>
        <time>2021-03-30T12:43:05.000Z</time>
      </trkpt>
      <trkpt lat="49.84869" lon="4.80797">
        <ele>381</ele>
        <time>2021-03-30T12:43:06.000Z</time>
      </trkpt>
      <trkpt lat="49.84874" lon="4.808">
        <ele>381</ele>
        <time>2021-03-30T12:43:07.000Z</time>
      </trkpt>
      <trkpt lat="49.84879" lon="4.80803">
        <ele>381</ele>
        <time>2021-03-30T12:43:08.000Z</time>
      </trkpt>
      <trkpt lat="49.84884" lon="4.80806">
        <ele>381</ele>
        <time>2021-03-30T12:43:09.000Z</time>
      </trkpt>
      <trkpt lat="49.84889" lon="4.8081">
        <ele>381</ele>
        <time>2021-03-30T12:43:10.000Z</time>
      </trkpt>
      <trkpt lat="49.84894" lon="4.80816">
        <ele>381</ele>
        <time>2021-03-30T12:43:11.000Z</time>
      </trkpt>
      <trkpt lat="49.84898" lon="4.80823">
        <ele>381</ele>
        <time>2021-03-30T12:43:12.000Z</time>
      </trkpt>
      <trkpt lat="49.84901" lon="4.80832">
        <ele>381</ele>
        <time>2021-03-30T12:43:13.000Z</time>
      </trkpt>
      <trkpt lat="49.84904" lon="4.8084">
        <ele>381</ele>
        <time>2021-03-30T12:43:14.000Z</time>
      </trkpt>
      <trkpt lat="49.84906" lon="4.80848">
        <ele>381</ele>
        <time>2021-03-30T12:43:15.000Z</time>
      </trkpt>
      <trkpt lat="49.8491" lon="4.80856">
        <ele>381</ele>
        <time>2021-03-30T12:43:16.000Z</time>
      </trkpt>
      <trkpt lat="49.84913" lon="4.80864">
        <ele>381</ele>
        <time>2021-03-30T12:43:17.000Z</time>
      </trkpt>
      <trkpt lat="49.84917" lon="4.80872">
        <ele>381</ele>
        <time>2021-03-30T12:43:18.000Z</time>
      </trkpt>
      <trkpt lat="49.8492" lon="4.80881">
        <ele>380</ele>
        <time>2021-03-30T12:43:19.000Z</time>
      </trkpt>
      <trkpt lat="49.84923" lon="4.80888">
        <ele>380</ele>
        <time>2021-03-30T12:43:20.000Z</time>
      </trkpt>
      <trkpt lat="49.84926" lon="4.80893">
        <ele>380</ele>
        <time>2021-03-30T12:43:21.000Z</time>
      </trkpt>
      <trkpt lat="49.84928" lon="4.80896">
        <ele>380</ele>
        <time>2021-03-30T12:43:22.000Z</time>
      </trkpt>
      <trkpt lat="49.84929" lon="4.80899">
        <ele>379</ele>
        <time>2021-03-30T12:43:23.000Z</time>
      </trkpt>
      <trkpt lat="49.84929" lon="4.80903">
        <ele>379</ele>
        <time>2021-03-30T12:43:24.000Z</time>
      </trkpt>
      <trkpt lat="49.8493" lon="4.80907">
        <ele>379</ele>
        <time>2021-03-30T12:43:25.000Z</time>
      </trkpt>
      <trkpt lat="49.8493" lon="4.80912">
        <ele>379</ele>
        <time>2021-03-30T12:43:26.000Z</time>
      </trkpt>
      <trkpt lat="49.8493" lon="4.80916">
        <ele>379</ele>
        <time>2021-03-30T12:43:27.000Z</time>
      </trkpt>
      <trkpt lat="49.8493" lon="4.80922">
        <ele>380</ele>
        <time>2021-03-30T12:43:28.000Z</time>
      </trkpt>
      <trkpt lat="49.84931" lon="4.80927">
        <ele>380</ele>
        <time>2021-03-30T12:43:29.000Z</time>
      </trkpt>
      <trkpt lat="49.84931" lon="4.80933">
        <ele>380</ele>
        <time>2021-03-30T12:43:30.000Z</time>
      </trkpt>
      <trkpt lat="49.84933" lon="4.80938">
        <ele>380</ele>
        <time>2021-03-30T12:43:31.000Z</time>
      </trkpt>
      <trkpt lat="49.84935" lon="4.80944">
        <ele>380</ele>
        <time>2021-03-30T12:43:32.000Z</time>
      </trkpt>
      <trkpt lat="49.84936" lon="4.8095">
        <ele>381</ele>
        <time>2021-03-30T12:43:33.000Z</time>
      </trkpt>
      <trkpt lat="49.84938" lon="4.80956">
        <ele>381</ele>
        <time>2021-03-30T12:43:34.000Z</time>
      </trkpt>
      <trkpt lat="49.8494" lon="4.80961">
        <ele>381</ele>
        <time>2021-03-30T12:43:35.000Z</time>
      </trkpt>
      <trkpt lat="49.84943" lon="4.80966">
        <ele>381</ele>
        <time>2021-03-30T12:43:36.000Z</time>
      </trkpt>
      <trkpt lat="49.84945" lon="4.80972">
        <ele>381</ele>
        <time>2021-03-30T12:43:37.000Z</time>
      </trkpt>
      <trkpt lat="49.84946" lon="4.80977">
        <ele>381</ele>
        <time>2021-03-30T12:43:38.000Z</time>
      </trkpt>
      <trkpt lat="49.84948" lon="4.80983">
        <ele>381</ele>
        <time>2021-03-30T12:43:39.000Z</time>
      </trkpt>
      <trkpt lat="49.8495" lon="4.80989">
        <ele>381</ele>
        <time>2021-03-30T12:43:40.000Z</time>
      </trkpt>
      <trkpt lat="49.84952" lon="4.80995">
        <ele>381</ele>
        <time>2021-03-30T12:43:41.000Z</time>
      </trkpt>
      <trkpt lat="49.84954" lon="4.81001">
        <ele>382</ele>
        <time>2021-03-30T12:43:42.000Z</time>
      </trkpt>
      <trkpt lat="49.84956" lon="4.81008">
        <ele>382</ele>
        <time>2021-03-30T12:43:43.000Z</time>
      </trkpt>
      <trkpt lat="49.84958" lon="4.81014">
        <ele>382</ele>
        <time>2021-03-30T12:43:44.000Z</time>
      </trkpt>
      <trkpt lat="49.8496" lon="4.8102">
        <ele>382</ele>
        <time>2021-03-30T12:43:45.000Z</time>
      </trkpt>
      <trkpt lat="49.84962" lon="4.81026">
        <ele>382</ele>
        <time>2021-03-30T12:43:46.000Z</time>
      </trkpt>
      <trkpt lat="49.84964" lon="4.81032">
        <ele>382</ele>
        <time>2021-03-30T12:43:47.000Z</time>
      </trkpt>
      <trkpt lat="49.84966" lon="4.81038">
        <ele>383</ele>
        <time>2021-03-30T12:43:48.000Z</time>
      </trkpt>
      <trkpt lat="49.84968" lon="4.81043">
        <ele>383</ele>
        <time>2021-03-30T12:43:49.000Z</time>
      </trkpt>
      <trkpt lat="49.8497" lon="4.81048">
        <ele>383</ele>
        <time>2021-03-30T12:43:50.000Z</time>
      </trkpt>
      <trkpt lat="49.84973" lon="4.81053">
        <ele>383</ele>
        <time>2021-03-30T12:43:51.000Z</time>
      </trkpt>
      <trkpt lat="49.84975" lon="4.81059">
        <ele>383</ele>
        <time>2021-03-30T12:43:52.000Z</time>
      </trkpt>
      <trkpt lat="49.84977" lon="4.81064">
        <ele>383</ele>
        <time>2021-03-30T12:43:53.000Z</time>
      </trkpt>
      <trkpt lat="49.84979" lon="4.8107">
        <ele>383</ele>
        <time>2021-03-30T12:43:54.000Z</time>
      </trkpt>
      <trkpt lat="49.84981" lon="4.81075">
        <ele>383</ele>
        <time>2021-03-30T12:43:55.000Z</time>
      </trkpt>
      <trkpt lat="49.84983" lon="4.81081">
        <ele>383</ele>
        <time>2021-03-30T12:43:56.000Z</time>
      </trkpt>
      <trkpt lat="49.84985" lon="4.81087">
        <ele>383</ele>
        <time>2021-03-30T12:43:57.000Z</time>
      </trkpt>
      <trkpt lat="49.84987" lon="4.81093">
        <ele>383</ele>
        <time>2021-03-30T12:43:58.000Z</time>
      </trkpt>
      <trkpt lat="49.84989" lon="4.81098">
        <ele>383</ele>
        <time>2021-03-30T12:43:59.000Z</time>
      </trkpt>
      <trkpt lat="49.84992" lon="4.81103">
        <ele>383</ele>
        <time>2021-03-30T12:44:00.000Z</time>
      </trkpt>
      <trkpt lat="49.84994" lon="4.81108">
        <ele>383</ele>
        <time>2021-03-30T12:44:01.000Z</time>
      </trkpt>
      <trkpt lat="49.84997" lon="4.81113">
        <ele>383</ele>
        <time>2021-03-30T12:44:02.000Z</time>
      </trkpt>
      <trkpt lat="49.84999" lon="4.81118">
        <ele>383</ele>
        <time>2021-03-30T12:44:03.000Z</time>
      </trkpt>
      <trkpt lat="49.85001" lon="4.81124">
        <ele>382</ele>
        <time>2021-03-30T12:44:04.000Z</time>
      </trkpt>
      <trkpt lat="49.85004" lon="4.81129">
        <ele>382</ele>
        <time>2021-03-30T12:44:05.000Z</time>
      </trkpt>
      <trkpt lat="49.85006" lon="4.81134">
        <ele>382</ele>
        <time>2021-03-30T12:44:06.000Z</time>
      </trkpt>
      <trkpt lat="49.85009" lon="4.81139">
        <ele>382</ele>
        <time>2021-03-30T12:44:07.000Z</time>
      </trkpt>
      <trkpt lat="49.85011" lon="4.81144">
        <ele>382</ele>
        <time>2021-03-30T12:44:08.000Z</time>
      </trkpt>
      <trkpt lat="49.85013" lon="4.81148">
        <ele>382</ele>
        <time>2021-03-30T12:44:09.000Z</time>
      </trkpt>
      <trkpt lat="49.85015" lon="4.81152">
        <ele>382</ele>
        <time>2021-03-30T12:44:10.000Z</time>
      </trkpt>
      <trkpt lat="49.85018" lon="4.81157">
        <ele>382</ele>
        <time>2021-03-30T12:44:11.000Z</time>
      </trkpt>
      <trkpt lat="49.85021" lon="4.81162">
        <ele>382</ele>
        <time>2021-03-30T12:44:12.000Z</time>
      </trkpt>
      <trkpt lat="49.85024" lon="4.81168">
        <ele>381</ele>
        <time>2021-03-30T12:44:13.000Z</time>
      </trkpt>
      <trkpt lat="49.85027" lon="4.81173">
        <ele>381</ele>
        <time>2021-03-30T12:44:14.000Z</time>
      </trkpt>
      <trkpt lat="49.8503" lon="4.81179">
        <ele>381</ele>
        <time>2021-03-30T12:44:15.000Z</time>
      </trkpt>
      <trkpt lat="49.85033" lon="4.81184">
        <ele>381</ele>
        <time>2021-03-30T12:44:16.000Z</time>
      </trkpt>
      <trkpt lat="49.85036" lon="4.81189">
        <ele>381</ele>
        <time>2021-03-30T12:44:17.000Z</time>
      </trkpt>
      <trkpt lat="49.8504" lon="4.81195">
        <ele>381</ele>
        <time>2021-03-30T12:44:18.000Z</time>
      </trkpt>
      <trkpt lat="49.85043" lon="4.812">
        <ele>380</ele>
        <time>2021-03-30T12:44:19.000Z</time>
      </trkpt>
      <trkpt lat="49.85047" lon="4.81206">
        <ele>380</ele>
        <time>2021-03-30T12:44:20.000Z</time>
      </trkpt>
      <trkpt lat="49.85051" lon="4.81211">
        <ele>380</ele>
        <time>2021-03-30T12:44:21.000Z</time>
      </trkpt>
      <trkpt lat="49.85055" lon="4.81218">
        <ele>380</ele>
        <time>2021-03-30T12:44:22.000Z</time>
      </trkpt>
      <trkpt lat="49.85058" lon="4.81224">
        <ele>380</ele>
        <time>2021-03-30T12:44:23.000Z</time>
      </trkpt>
      <trkpt lat="49.85062" lon="4.8123">
        <ele>380</ele>
        <time>2021-03-30T12:44:24.000Z</time>
      </trkpt>
      <trkpt lat="49.85066" lon="4.81236">
        <ele>380</ele>
        <time>2021-03-30T12:44:25.000Z</time>
      </trkpt>
      <trkpt lat="49.8507" lon="4.81242">
        <ele>380</ele>
        <time>2021-03-30T12:44:26.000Z</time>
      </trkpt>
      <trkpt lat="49.85073" lon="4.81248">
        <ele>380</ele>
        <time>2021-03-30T12:44:27.000Z</time>
      </trkpt>
      <trkpt lat="49.85077" lon="4.81254">
        <ele>379</ele>
        <time>2021-03-30T12:44:28.000Z</time>
      </trkpt>
      <trkpt lat="49.85081" lon="4.8126">
        <ele>379</ele>
        <time>2021-03-30T12:44:29.000Z</time>
      </trkpt>
      <trkpt lat="49.85085" lon="4.81266">
        <ele>379</ele>
        <time>2021-03-30T12:44:30.000Z</time>
      </trkpt>
      <trkpt lat="49.85088" lon="4.8127">
        <ele>379</ele>
        <time>2021-03-30T12:44:31.000Z</time>
      </trkpt>
      <trkpt lat="49.85092" lon="4.81276">
        <ele>379</ele>
        <time>2021-03-30T12:44:32.000Z</time>
      </trkpt>
      <trkpt lat="49.85095" lon="4.81281">
        <ele>379</ele>
        <time>2021-03-30T12:44:33.000Z</time>
      </trkpt>
      <trkpt lat="49.85099" lon="4.81286">
        <ele>379</ele>
        <time>2021-03-30T12:44:34.000Z</time>
      </trkpt>
      <trkpt lat="49.85103" lon="4.81291">
        <ele>379</ele>
        <time>2021-03-30T12:44:35.000Z</time>
      </trkpt>
      <trkpt lat="49.85106" lon="4.81297">
        <ele>379</ele>
        <time>2021-03-30T12:44:36.000Z</time>
      </trkpt>
      <trkpt lat="49.85109" lon="4.81304">
        <ele>379</ele>
        <time>2021-03-30T12:44:37.000Z</time>
      </trkpt>
      <trkpt lat="49.85112" lon="4.8131">
        <ele>379</ele>
        <time>2021-03-30T12:44:38.000Z</time>
      </trkpt>
      <trkpt lat="49.85115" lon="4.81315">
        <ele>380</ele>
        <time>2021-03-30T12:44:39.000Z</time>
      </trkpt>
      <trkpt lat="49.85118" lon="4.81321">
        <ele>380</ele>
        <time>2021-03-30T12:44:40.000Z</time>
      </trkpt>
      <trkpt lat="49.85121" lon="4.81325">
        <ele>380</ele>
        <time>2021-03-30T12:44:41.000Z</time>
      </trkpt>
      <trkpt lat="49.85124" lon="4.8133">
        <ele>380</ele>
        <time>2021-03-30T12:44:42.000Z</time>
      </trkpt>
      <trkpt lat="49.85126" lon="4.81336">
        <ele>380</ele>
        <time>2021-03-30T12:44:43.000Z</time>
      </trkpt>
      <trkpt lat="49.85128" lon="4.81341">
        <ele>380</ele>
        <time>2021-03-30T12:44:44.000Z</time>
      </trkpt>
      <trkpt lat="49.85129" lon="4.81347">
        <ele>380</ele>
        <time>2021-03-30T12:44:45.000Z</time>
      </trkpt>
      <trkpt lat="49.85131" lon="4.81353">
        <ele>380</ele>
        <time>2021-03-30T12:44:46.000Z</time>
      </trkpt>
      <trkpt lat="49.85133" lon="4.81359">
        <ele>380</ele>
        <time>2021-03-30T12:44:47.000Z</time>
      </trkpt>
      <trkpt lat="49.85135" lon="4.81365">
        <ele>380</ele>
        <time>2021-03-30T12:44:48.000Z</time>
      </trkpt>
      <trkpt lat="49.85137" lon="4.81372">
        <ele>380</ele>
        <time>2021-03-30T12:44:49.000Z</time>
      </trkpt>
      <trkpt lat="49.8514" lon="4.81378">
        <ele>380</ele>
        <time>2021-03-30T12:44:50.000Z</time>
      </trkpt>
      <trkpt lat="49.85142" lon="4.81385">
        <ele>380</ele>
        <time>2021-03-30T12:44:51.000Z</time>
      </trkpt>
      <trkpt lat="49.85144" lon="4.81392">
        <ele>381</ele>
        <time>2021-03-30T12:44:52.000Z</time>
      </trkpt>
      <trkpt lat="49.85146" lon="4.81399">
        <ele>381</ele>
        <time>2021-03-30T12:44:53.000Z</time>
      </trkpt>
      <trkpt lat="49.85148" lon="4.81406">
        <ele>381</ele>
        <time>2021-03-30T12:44:54.000Z</time>
      </trkpt>
      <trkpt lat="49.85149" lon="4.81414">
        <ele>381</ele>
        <time>2021-03-30T12:44:55.000Z</time>
      </trkpt>
      <trkpt lat="49.8515" lon="4.81422">
        <ele>381</ele>
        <time>2021-03-30T12:44:56.000Z</time>
      </trkpt>
      <trkpt lat="49.85149" lon="4.81429">
        <ele>381</ele>
        <time>2021-03-30T12:44:57.000Z</time>
      </trkpt>
      <trkpt lat="49.85149" lon="4.81436">
        <ele>381</ele>
        <time>2021-03-30T12:44:58.000Z</time>
      </trkpt>
      <trkpt lat="49.85149" lon="4.81443">
        <ele>381</ele>
        <time>2021-03-30T12:44:59.000Z</time>
      </trkpt>
      <trkpt lat="49.85148" lon="4.8145">
        <ele>381</ele>
        <time>2021-03-30T12:45:00.000Z</time>
      </trkpt>
      <trkpt lat="49.85148" lon="4.81458">
        <ele>381</ele>
        <time>2021-03-30T12:45:01.000Z</time>
      </trkpt>
      <trkpt lat="49.85148" lon="4.81465">
        <ele>382</ele>
        <time>2021-03-30T12:45:02.000Z</time>
      </trkpt>
      <trkpt lat="49.85146" lon="4.81473">
        <ele>382</ele>
        <time>2021-03-30T12:45:03.000Z</time>
      </trkpt>
      <trkpt lat="49.85146" lon="4.8148">
        <ele>382</ele>
        <time>2021-03-30T12:45:04.000Z</time>
      </trkpt>
      <trkpt lat="49.85146" lon="4.81488">
        <ele>382</ele>
        <time>2021-03-30T12:45:05.000Z</time>
      </trkpt>
      <trkpt lat="49.85145" lon="4.81495">
        <ele>382</ele>
        <time>2021-03-30T12:45:06.000Z</time>
      </trkpt>
      <trkpt lat="49.85145" lon="4.81503">
        <ele>382</ele>
        <time>2021-03-30T12:45:07.000Z</time>
      </trkpt>
      <trkpt lat="49.85144" lon="4.81511">
        <ele>382</ele>
        <time>2021-03-30T12:45:08.000Z</time>
      </trkpt>
      <trkpt lat="49.85144" lon="4.81518">
        <ele>383</ele>
        <time>2021-03-30T12:45:09.000Z</time>
      </trkpt>
      <trkpt lat="49.85144" lon="4.81526">
        <ele>383</ele>
        <time>2021-03-30T12:45:10.000Z</time>
      </trkpt>
      <trkpt lat="49.85143" lon="4.81533">
        <ele>383</ele>
        <time>2021-03-30T12:45:11.000Z</time>
      </trkpt>
      <trkpt lat="49.85143" lon="4.81541">
        <ele>383</ele>
        <time>2021-03-30T12:45:12.000Z</time>
      </trkpt>
      <trkpt lat="49.85144" lon="4.81547">
        <ele>383</ele>
        <time>2021-03-30T12:45:13.000Z</time>
      </trkpt>
      <trkpt lat="49.85144" lon="4.81553">
        <ele>384</ele>
        <time>2021-03-30T12:45:14.000Z</time>
      </trkpt>
      <trkpt lat="49.85144" lon="4.8156">
        <ele>384</ele>
        <time>2021-03-30T12:45:15.000Z</time>
      </trkpt>
      <trkpt lat="49.85143" lon="4.81567">
        <ele>384</ele>
        <time>2021-03-30T12:45:16.000Z</time>
      </trkpt>
      <trkpt lat="49.85143" lon="4.81574">
        <ele>384</ele>
        <time>2021-03-30T12:45:17.000Z</time>
      </trkpt>
      <trkpt lat="49.85143" lon="4.81582">
        <ele>385</ele>
        <time>2021-03-30T12:45:18.000Z</time>
      </trkpt>
      <trkpt lat="49.85143" lon="4.81589">
        <ele>385</ele>
        <time>2021-03-30T12:45:19.000Z</time>
      </trkpt>
      <trkpt lat="49.85143" lon="4.81596">
        <ele>385</ele>
        <time>2021-03-30T12:45:20.000Z</time>
      </trkpt>
      <trkpt lat="49.85143" lon="4.81604">
        <ele>385</ele>
        <time>2021-03-30T12:45:21.000Z</time>
      </trkpt>
      <trkpt lat="49.85144" lon="4.8161">
        <ele>385</ele>
        <time>2021-03-30T12:45:22.000Z</time>
      </trkpt>
      <trkpt lat="49.85144" lon="4.81617">
        <ele>385</ele>
        <time>2021-03-30T12:45:23.000Z</time>
      </trkpt>
      <trkpt lat="49.85144" lon="4.81623">
        <ele>386</ele>
        <time>2021-03-30T12:45:24.000Z</time>
      </trkpt>
      <trkpt lat="49.85144" lon="4.8163">
        <ele>386</ele>
        <time>2021-03-30T12:45:25.000Z</time>
      </trkpt>
      <trkpt lat="49.85144" lon="4.81636">
        <ele>386</ele>
        <time>2021-03-30T12:45:26.000Z</time>
      </trkpt>
      <trkpt lat="49.85145" lon="4.81642">
        <ele>386</ele>
        <time>2021-03-30T12:45:27.000Z</time>
      </trkpt>
      <trkpt lat="49.85145" lon="4.81647">
        <ele>387</ele>
        <time>2021-03-30T12:45:28.000Z</time>
      </trkpt>
      <trkpt lat="49.85145" lon="4.81652">
        <ele>387</ele>
        <time>2021-03-30T12:45:29.000Z</time>
      </trkpt>
      <trkpt lat="49.85145" lon="4.81658">
        <ele>387</ele>
        <time>2021-03-30T12:45:30.000Z</time>
      </trkpt>
      <trkpt lat="49.85145" lon="4.81664">
        <ele>387</ele>
        <time>2021-03-30T12:45:31.000Z</time>
      </trkpt>
      <trkpt lat="49.85146" lon="4.8167">
        <ele>388</ele>
        <time>2021-03-30T12:45:32.000Z</time>
      </trkpt>
      <trkpt lat="49.85147" lon="4.81675">
        <ele>388</ele>
        <time>2021-03-30T12:45:33.000Z</time>
      </trkpt>
      <trkpt lat="49.85148" lon="4.8168">
        <ele>388</ele>
        <time>2021-03-30T12:45:34.000Z</time>
      </trkpt>
      <trkpt lat="49.85149" lon="4.81687">
        <ele>388</ele>
        <time>2021-03-30T12:45:35.000Z</time>
      </trkpt>
      <trkpt lat="49.8515" lon="4.81693">
        <ele>388</ele>
        <time>2021-03-30T12:45:36.000Z</time>
      </trkpt>
      <trkpt lat="49.85153" lon="4.81699">
        <ele>389</ele>
        <time>2021-03-30T12:45:37.000Z</time>
      </trkpt>
      <trkpt lat="49.85155" lon="4.81704">
        <ele>389</ele>
        <time>2021-03-30T12:45:38.000Z</time>
      </trkpt>
      <trkpt lat="49.85158" lon="4.8171">
        <ele>389</ele>
        <time>2021-03-30T12:45:39.000Z</time>
      </trkpt>
      <trkpt lat="49.85159" lon="4.81716">
        <ele>389</ele>
        <time>2021-03-30T12:45:40.000Z</time>
      </trkpt>
      <trkpt lat="49.85161" lon="4.81723">
        <ele>389</ele>
        <time>2021-03-30T12:45:41.000Z</time>
      </trkpt>
      <trkpt lat="49.85162" lon="4.8173">
        <ele>390</ele>
        <time>2021-03-30T12:45:42.000Z</time>
      </trkpt>
      <trkpt lat="49.85164" lon="4.81737">
        <ele>390</ele>
        <time>2021-03-30T12:45:43.000Z</time>
      </trkpt>
      <trkpt lat="49.85165" lon="4.81745">
        <ele>390</ele>
        <time>2021-03-30T12:45:44.000Z</time>
      </trkpt>
      <trkpt lat="49.85167" lon="4.81754">
        <ele>390</ele>
        <time>2021-03-30T12:45:45.000Z</time>
      </trkpt>
      <trkpt lat="49.85169" lon="4.81761">
        <ele>390</ele>
        <time>2021-03-30T12:45:46.000Z</time>
      </trkpt>
      <trkpt lat="49.85171" lon="4.81769">
        <ele>390</ele>
        <time>2021-03-30T12:45:47.000Z</time>
      </trkpt>
      <trkpt lat="49.85172" lon="4.81777">
        <ele>390</ele>
        <time>2021-03-30T12:45:48.000Z</time>
      </trkpt>
      <trkpt lat="49.85174" lon="4.81784">
        <ele>390</ele>
        <time>2021-03-30T12:45:49.000Z</time>
      </trkpt>
      <trkpt lat="49.85176" lon="4.81791">
        <ele>390</ele>
        <time>2021-03-30T12:45:50.000Z</time>
      </trkpt>
      <trkpt lat="49.85177" lon="4.818">
        <ele>390</ele>
        <time>2021-03-30T12:45:51.000Z</time>
      </trkpt>
      <trkpt lat="49.85179" lon="4.81809">
        <ele>391</ele>
        <time>2021-03-30T12:45:52.000Z</time>
      </trkpt>
      <trkpt lat="49.85181" lon="4.81819">
        <ele>390</ele>
        <time>2021-03-30T12:45:53.000Z</time>
      </trkpt>
      <trkpt lat="49.85182" lon="4.8183">
        <ele>390</ele>
        <time>2021-03-30T12:45:54.000Z</time>
      </trkpt>
      <trkpt lat="49.85184" lon="4.81841">
        <ele>390</ele>
        <time>2021-03-30T12:45:55.000Z</time>
      </trkpt>
      <trkpt lat="49.85186" lon="4.81852">
        <ele>390</ele>
        <time>2021-03-30T12:45:56.000Z</time>
      </trkpt>
      <trkpt lat="49.85188" lon="4.81865">
        <ele>390</ele>
        <time>2021-03-30T12:45:57.000Z</time>
      </trkpt>
      <trkpt lat="49.85189" lon="4.81877">
        <ele>390</ele>
        <time>2021-03-30T12:45:58.000Z</time>
      </trkpt>
      <trkpt lat="49.8519" lon="4.8189">
        <ele>390</ele>
        <time>2021-03-30T12:45:59.000Z</time>
      </trkpt>
      <trkpt lat="49.85191" lon="4.81903">
        <ele>389</ele>
        <time>2021-03-30T12:46:00.000Z</time>
      </trkpt>
      <trkpt lat="49.85192" lon="4.81915">
        <ele>389</ele>
        <time>2021-03-30T12:46:01.000Z</time>
      </trkpt>
      <trkpt lat="49.85192" lon="4.81927">
        <ele>389</ele>
        <time>2021-03-30T12:46:02.000Z</time>
      </trkpt>
      <trkpt lat="49.85191" lon="4.81939">
        <ele>388</ele>
        <time>2021-03-30T12:46:03.000Z</time>
      </trkpt>
      <trkpt lat="49.85191" lon="4.81951">
        <ele>388</ele>
        <time>2021-03-30T12:46:04.000Z</time>
      </trkpt>
      <trkpt lat="49.85191" lon="4.81964">
        <ele>387</ele>
        <time>2021-03-30T12:46:05.000Z</time>
      </trkpt>
      <trkpt lat="49.85191" lon="4.81976">
        <ele>387</ele>
        <time>2021-03-30T12:46:06.000Z</time>
      </trkpt>
      <trkpt lat="49.85192" lon="4.81987">
        <ele>386</ele>
        <time>2021-03-30T12:46:07.000Z</time>
      </trkpt>
      <trkpt lat="49.85193" lon="4.81999">
        <ele>386</ele>
        <time>2021-03-30T12:46:08.000Z</time>
      </trkpt>
      <trkpt lat="49.85193" lon="4.82012">
        <ele>385</ele>
        <time>2021-03-30T12:46:09.000Z</time>
      </trkpt>
      <trkpt lat="49.85194" lon="4.82025">
        <ele>385</ele>
        <time>2021-03-30T12:46:10.000Z</time>
      </trkpt>
      <trkpt lat="49.85195" lon="4.82038">
        <ele>384</ele>
        <time>2021-03-30T12:46:11.000Z</time>
      </trkpt>
      <trkpt lat="49.85197" lon="4.82051">
        <ele>383</ele>
        <time>2021-03-30T12:46:12.000Z</time>
      </trkpt>
      <trkpt lat="49.85199" lon="4.82064">
        <ele>383</ele>
        <time>2021-03-30T12:46:13.000Z</time>
      </trkpt>
      <trkpt lat="49.852" lon="4.82076">
        <ele>382</ele>
        <time>2021-03-30T12:46:14.000Z</time>
      </trkpt>
      <trkpt lat="49.85202" lon="4.82088">
        <ele>381</ele>
        <time>2021-03-30T12:46:15.000Z</time>
      </trkpt>
      <trkpt lat="49.85203" lon="4.82098">
        <ele>380</ele>
        <time>2021-03-30T12:46:16.000Z</time>
      </trkpt>
      <trkpt lat="49.85204" lon="4.8211">
        <ele>380</ele>
        <time>2021-03-30T12:46:17.000Z</time>
      </trkpt>
      <trkpt lat="49.85206" lon="4.82122">
        <ele>379</ele>
        <time>2021-03-30T12:46:18.000Z</time>
      </trkpt>
      <trkpt lat="49.85207" lon="4.82134">
        <ele>378</ele>
        <time>2021-03-30T12:46:19.000Z</time>
      </trkpt>
      <trkpt lat="49.85209" lon="4.82146">
        <ele>378</ele>
        <time>2021-03-30T12:46:20.000Z</time>
      </trkpt>
      <trkpt lat="49.8521" lon="4.82158">
        <ele>377</ele>
        <time>2021-03-30T12:46:21.000Z</time>
      </trkpt>
      <trkpt lat="49.85212" lon="4.82169">
        <ele>377</ele>
        <time>2021-03-30T12:46:22.000Z</time>
      </trkpt>
      <trkpt lat="49.85213" lon="4.82178">
        <ele>376</ele>
        <time>2021-03-30T12:46:23.000Z</time>
      </trkpt>
      <trkpt lat="49.85214" lon="4.82187">
        <ele>375</ele>
        <time>2021-03-30T12:46:24.000Z</time>
      </trkpt>
      <trkpt lat="49.85215" lon="4.82194">
        <ele>375</ele>
        <time>2021-03-30T12:46:25.000Z</time>
      </trkpt>
      <trkpt lat="49.85217" lon="4.82201">
        <ele>374</ele>
        <time>2021-03-30T12:46:26.000Z</time>
      </trkpt>
      <trkpt lat="49.85218" lon="4.82208">
        <ele>374</ele>
        <time>2021-03-30T12:46:27.000Z</time>
      </trkpt>
      <trkpt lat="49.8522" lon="4.82214">
        <ele>373</ele>
        <time>2021-03-30T12:46:28.000Z</time>
      </trkpt>
      <trkpt lat="49.85221" lon="4.8222">
        <ele>373</ele>
        <time>2021-03-30T12:46:29.000Z</time>
      </trkpt>
      <trkpt lat="49.85222" lon="4.82226">
        <ele>373</ele>
        <time>2021-03-30T12:46:30.000Z</time>
      </trkpt>
      <trkpt lat="49.85222" lon="4.82234">
        <ele>372</ele>
        <time>2021-03-30T12:46:31.000Z</time>
      </trkpt>
      <trkpt lat="49.85223" lon="4.82243">
        <ele>372</ele>
        <time>2021-03-30T12:46:32.000Z</time>
      </trkpt>
      <trkpt lat="49.85223" lon="4.82253">
        <ele>371</ele>
        <time>2021-03-30T12:46:33.000Z</time>
      </trkpt>
      <trkpt lat="49.85224" lon="4.82261">
        <ele>371</ele>
        <time>2021-03-30T12:46:34.000Z</time>
      </trkpt>
      <trkpt lat="49.85225" lon="4.82272">
        <ele>370</ele>
        <time>2021-03-30T12:46:35.000Z</time>
      </trkpt>
      <trkpt lat="49.85226" lon="4.82283">
        <ele>370</ele>
        <time>2021-03-30T12:46:36.000Z</time>
      </trkpt>
      <trkpt lat="49.85227" lon="4.82294">
        <ele>370</ele>
        <time>2021-03-30T12:46:37.000Z</time>
      </trkpt>
      <trkpt lat="49.85228" lon="4.82306">
        <ele>369</ele>
        <time>2021-03-30T12:46:38.000Z</time>
      </trkpt>
      <trkpt lat="49.85229" lon="4.82318">
        <ele>369</ele>
        <time>2021-03-30T12:46:39.000Z</time>
      </trkpt>
      <trkpt lat="49.8523" lon="4.8233">
        <ele>368</ele>
        <time>2021-03-30T12:46:40.000Z</time>
      </trkpt>
      <trkpt lat="49.85232" lon="4.82342">
        <ele>368</ele>
        <time>2021-03-30T12:46:41.000Z</time>
      </trkpt>
      <trkpt lat="49.85233" lon="4.82354">
        <ele>368</ele>
        <time>2021-03-30T12:46:42.000Z</time>
      </trkpt>
      <trkpt lat="49.85234" lon="4.82366">
        <ele>367</ele>
        <time>2021-03-30T12:46:43.000Z</time>
      </trkpt>
      <trkpt lat="49.85234" lon="4.82377">
        <ele>367</ele>
        <time>2021-03-30T12:46:44.000Z</time>
      </trkpt>
      <trkpt lat="49.85234" lon="4.82389">
        <ele>366</ele>
        <time>2021-03-30T12:46:45.000Z</time>
      </trkpt>
      <trkpt lat="49.85233" lon="4.82398">
        <ele>366</ele>
        <time>2021-03-30T12:46:46.000Z</time>
      </trkpt>
      <trkpt lat="49.85232" lon="4.82406">
        <ele>365</ele>
        <time>2021-03-30T12:46:47.000Z</time>
      </trkpt>
      <trkpt lat="49.85231" lon="4.82413">
        <ele>365</ele>
        <time>2021-03-30T12:46:48.000Z</time>
      </trkpt>
      <trkpt lat="49.85229" lon="4.8242">
        <ele>364</ele>
        <time>2021-03-30T12:46:49.000Z</time>
      </trkpt>
      <trkpt lat="49.85228" lon="4.82426">
        <ele>364</ele>
        <time>2021-03-30T12:46:50.000Z</time>
      </trkpt>
      <trkpt lat="49.85226" lon="4.82431">
        <ele>364</ele>
        <time>2021-03-30T12:46:51.000Z</time>
      </trkpt>
      <trkpt lat="49.85225" lon="4.82436">
        <ele>364</ele>
        <time>2021-03-30T12:46:52.000Z</time>
      </trkpt>
      <trkpt lat="49.85223" lon="4.82441">
        <ele>363</ele>
        <time>2021-03-30T12:46:53.000Z</time>
      </trkpt>
      <trkpt lat="49.85222" lon="4.82446">
        <ele>363</ele>
        <time>2021-03-30T12:46:54.000Z</time>
      </trkpt>
      <trkpt lat="49.85221" lon="4.82451">
        <ele>363</ele>
        <time>2021-03-30T12:46:55.000Z</time>
      </trkpt>
      <trkpt lat="49.8522" lon="4.82455">
        <ele>363</ele>
        <time>2021-03-30T12:46:56.000Z</time>
      </trkpt>
      <trkpt lat="49.85219" lon="4.82459">
        <ele>363</ele>
        <time>2021-03-30T12:46:57.000Z</time>
      </trkpt>
      <trkpt lat="49.85218" lon="4.82463">
        <ele>363</ele>
        <time>2021-03-30T12:46:58.000Z</time>
      </trkpt>
      <trkpt lat="49.85217" lon="4.82467">
        <ele>362</ele>
        <time>2021-03-30T12:46:59.000Z</time>
      </trkpt>
      <trkpt lat="49.85215" lon="4.8247">
        <ele>362</ele>
        <time>2021-03-30T12:47:00.000Z</time>
      </trkpt>
      <trkpt lat="49.85214" lon="4.82473">
        <ele>362</ele>
        <time>2021-03-30T12:47:01.000Z</time>
      </trkpt>
      <trkpt lat="49.85213" lon="4.82477">
        <ele>362</ele>
        <time>2021-03-30T12:47:02.000Z</time>
      </trkpt>
      <trkpt lat="49.85212" lon="4.82481">
        <ele>362</ele>
        <time>2021-03-30T12:47:03.000Z</time>
      </trkpt>
      <trkpt lat="49.85211" lon="4.82484">
        <ele>362</ele>
        <time>2021-03-30T12:47:04.000Z</time>
      </trkpt>
      <trkpt lat="49.85209" lon="4.82488">
        <ele>362</ele>
        <time>2021-03-30T12:47:05.000Z</time>
      </trkpt>
      <trkpt lat="49.85208" lon="4.82491">
        <ele>363</ele>
        <time>2021-03-30T12:47:06.000Z</time>
      </trkpt>
      <trkpt lat="49.85207" lon="4.82493">
        <ele>363</ele>
        <time>2021-03-30T12:47:07.000Z</time>
      </trkpt>
      <trkpt lat="49.85206" lon="4.82495">
        <ele>363</ele>
        <time>2021-03-30T12:47:08.000Z</time>
      </trkpt>
      <trkpt lat="49.85205" lon="4.82498">
        <ele>363</ele>
        <time>2021-03-30T12:47:09.000Z</time>
      </trkpt>
      <trkpt lat="49.85204" lon="4.825">
        <ele>363</ele>
        <time>2021-03-30T12:47:10.000Z</time>
      </trkpt>
      <trkpt lat="49.85203" lon="4.82502">
        <ele>363</ele>
        <time>2021-03-30T12:47:11.000Z</time>
      </trkpt>
      <trkpt lat="49.85202" lon="4.82505">
        <ele>363</ele>
        <time>2021-03-30T12:47:12.000Z</time>
      </trkpt>
      <trkpt lat="49.85201" lon="4.82507">
        <ele>364</ele>
        <time>2021-03-30T12:47:13.000Z</time>
      </trkpt>
      <trkpt lat="49.852" lon="4.8251">
        <ele>364</ele>
        <time>2021-03-30T12:47:14.000Z</time>
      </trkpt>
      <trkpt lat="49.85198" lon="4.82512">
        <ele>364</ele>
        <time>2021-03-30T12:47:15.000Z</time>
      </trkpt>
      <trkpt lat="49.85197" lon="4.82515">
        <ele>364</ele>
        <time>2021-03-30T12:47:16.000Z</time>
      </trkpt>
      <trkpt lat="49.85196" lon="4.82517">
        <ele>364</ele>
        <time>2021-03-30T12:47:17.000Z</time>
      </trkpt>
      <trkpt lat="49.85195" lon="4.82519">
        <ele>364</ele>
        <time>2021-03-30T12:47:18.000Z</time>
      </trkpt>
      <trkpt lat="49.85195" lon="4.82522">
        <ele>365</ele>
        <time>2021-03-30T12:47:19.000Z</time>
      </trkpt>
      <trkpt lat="49.85194" lon="4.82524">
        <ele>365</ele>
        <time>2021-03-30T12:47:20.000Z</time>
      </trkpt>
      <trkpt lat="49.85193" lon="4.82526">
        <ele>365</ele>
        <time>2021-03-30T12:47:21.000Z</time>
      </trkpt>
      <trkpt lat="49.85192" lon="4.82528">
        <ele>365</ele>
        <time>2021-03-30T12:47:22.000Z</time>
      </trkpt>
      <trkpt lat="49.85191" lon="4.8253">
        <ele>366</ele>
        <time>2021-03-30T12:47:23.000Z</time>
      </trkpt>
      <trkpt lat="49.8519" lon="4.82532">
        <ele>366</ele>
        <time>2021-03-30T12:47:24.000Z</time>
      </trkpt>
      <trkpt lat="49.85189" lon="4.82534">
        <ele>366</ele>
        <time>2021-03-30T12:47:25.000Z</time>
      </trkpt>
      <trkpt lat="49.85188" lon="4.82536">
        <ele>367</ele>
        <time>2021-03-30T12:47:26.000Z</time>
      </trkpt>
      <trkpt lat="49.85187" lon="4.82538">
        <ele>367</ele>
        <time>2021-03-30T12:47:27.000Z</time>
      </trkpt>
      <trkpt lat="49.85186" lon="4.8254">
        <ele>367</ele>
        <time>2021-03-30T12:47:28.000Z</time>
      </trkpt>
      <trkpt lat="49.85185" lon="4.82541">
        <ele>368</ele>
        <time>2021-03-30T12:47:29.000Z</time>
      </trkpt>
      <trkpt lat="49.85185" lon="4.82543">
        <ele>368</ele>
        <time>2021-03-30T12:47:30.000Z</time>
      </trkpt>
      <trkpt lat="49.85184" lon="4.82544">
        <ele>368</ele>
        <time>2021-03-30T12:47:31.000Z</time>
      </trkpt>
      <trkpt lat="49.85183" lon="4.82546">
        <ele>369</ele>
        <time>2021-03-30T12:47:32.000Z</time>
      </trkpt>
      <trkpt lat="49.85182" lon="4.82548">
        <ele>369</ele>
        <time>2021-03-30T12:47:33.000Z</time>
      </trkpt>
      <trkpt lat="49.85182" lon="4.8255">
        <ele>369</ele>
        <time>2021-03-30T12:47:34.000Z</time>
      </trkpt>
      <trkpt lat="49.85181" lon="4.82552">
        <ele>370</ele>
        <time>2021-03-30T12:47:35.000Z</time>
      </trkpt>
      <trkpt lat="49.8518" lon="4.82554">
        <ele>370</ele>
        <time>2021-03-30T12:47:36.000Z</time>
      </trkpt>
      <trkpt lat="49.85178" lon="4.82556">
        <ele>371</ele>
        <time>2021-03-30T12:47:37.000Z</time>
      </trkpt>
      <trkpt lat="49.85178" lon="4.82558">
        <ele>371</ele>
        <time>2021-03-30T12:47:38.000Z</time>
      </trkpt>
      <trkpt lat="49.85177" lon="4.82559">
        <ele>371</ele>
        <time>2021-03-30T12:47:39.000Z</time>
      </trkpt>
      <trkpt lat="49.85176" lon="4.82561">
        <ele>372</ele>
        <time>2021-03-30T12:47:40.000Z</time>
      </trkpt>
      <trkpt lat="49.85175" lon="4.82563">
        <ele>372</ele>
        <time>2021-03-30T12:47:41.000Z</time>
      </trkpt>
      <trkpt lat="49.85174" lon="4.82565">
        <ele>373</ele>
        <time>2021-03-30T12:47:42.000Z</time>
      </trkpt>
      <trkpt lat="49.85173" lon="4.82567">
        <ele>373</ele>
        <time>2021-03-30T12:47:43.000Z</time>
      </trkpt>
      <trkpt lat="49.85172" lon="4.82569">
        <ele>373</ele>
        <time>2021-03-30T12:47:44.000Z</time>
      </trkpt>
      <trkpt lat="49.8517" lon="4.8257">
        <ele>373</ele>
        <time>2021-03-30T12:47:45.000Z</time>
      </trkpt>
      <trkpt lat="49.85169" lon="4.82573">
        <ele>374</ele>
        <time>2021-03-30T12:47:46.000Z</time>
      </trkpt>
      <trkpt lat="49.85168" lon="4.82575">
        <ele>374</ele>
        <time>2021-03-30T12:47:47.000Z</time>
      </trkpt>
      <trkpt lat="49.85166" lon="4.82577">
        <ele>374</ele>
        <time>2021-03-30T12:47:48.000Z</time>
      </trkpt>
      <trkpt lat="49.85165" lon="4.8258">
        <ele>374</ele>
        <time>2021-03-30T12:47:49.000Z</time>
      </trkpt>
      <trkpt lat="49.85164" lon="4.82581">
        <ele>374</ele>
        <time>2021-03-30T12:47:50.000Z</time>
      </trkpt>
      <trkpt lat="49.85163" lon="4.82583">
        <ele>375</ele>
        <time>2021-03-30T12:47:51.000Z</time>
      </trkpt>
      <trkpt lat="49.85161" lon="4.82585">
        <ele>375</ele>
        <time>2021-03-30T12:47:52.000Z</time>
      </trkpt>
      <trkpt lat="49.8516" lon="4.82587">
        <ele>375</ele>
        <time>2021-03-30T12:47:53.000Z</time>
      </trkpt>
      <trkpt lat="49.85159" lon="4.82589">
        <ele>375</ele>
        <time>2021-03-30T12:47:54.000Z</time>
      </trkpt>
      <trkpt lat="49.85158" lon="4.82591">
        <ele>375</ele>
        <time>2021-03-30T12:47:55.000Z</time>
      </trkpt>
      <trkpt lat="49.85157" lon="4.82593">
        <ele>375</ele>
        <time>2021-03-30T12:47:56.000Z</time>
      </trkpt>
      <trkpt lat="49.85155" lon="4.82595">
        <ele>376</ele>
        <time>2021-03-30T12:47:57.000Z</time>
      </trkpt>
      <trkpt lat="49.85154" lon="4.82597">
        <ele>376</ele>
        <time>2021-03-30T12:47:58.000Z</time>
      </trkpt>
      <trkpt lat="49.85152" lon="4.82599">
        <ele>376</ele>
        <time>2021-03-30T12:47:59.000Z</time>
      </trkpt>
      <trkpt lat="49.85151" lon="4.82602">
        <ele>376</ele>
        <time>2021-03-30T12:48:00.000Z</time>
      </trkpt>
      <trkpt lat="49.85149" lon="4.82604">
        <ele>376</ele>
        <time>2021-03-30T12:48:01.000Z</time>
      </trkpt>
      <trkpt lat="49.85148" lon="4.82607">
        <ele>376</ele>
        <time>2021-03-30T12:48:02.000Z</time>
      </trkpt>
      <trkpt lat="49.85147" lon="4.82609">
        <ele>377</ele>
        <time>2021-03-30T12:48:03.000Z</time>
      </trkpt>
      <trkpt lat="49.85146" lon="4.82612">
        <ele>377</ele>
        <time>2021-03-30T12:48:04.000Z</time>
      </trkpt>
      <trkpt lat="49.85144" lon="4.82615">
        <ele>377</ele>
        <time>2021-03-30T12:48:05.000Z</time>
      </trkpt>
      <trkpt lat="49.85142" lon="4.82618">
        <ele>377</ele>
        <time>2021-03-30T12:48:06.000Z</time>
      </trkpt>
      <trkpt lat="49.85141" lon="4.82621">
        <ele>377</ele>
        <time>2021-03-30T12:48:07.000Z</time>
      </trkpt>
      <trkpt lat="49.85138" lon="4.82624">
        <ele>377</ele>
        <time>2021-03-30T12:48:08.000Z</time>
      </trkpt>
      <trkpt lat="49.85137" lon="4.82627">
        <ele>377</ele>
        <time>2021-03-30T12:48:09.000Z</time>
      </trkpt>
      <trkpt lat="49.85135" lon="4.82629">
        <ele>377</ele>
        <time>2021-03-30T12:48:10.000Z</time>
      </trkpt>
      <trkpt lat="49.85133" lon="4.82632">
        <ele>377</ele>
        <time>2021-03-30T12:48:11.000Z</time>
      </trkpt>
      <trkpt lat="49.85131" lon="4.82636">
        <ele>377</ele>
        <time>2021-03-30T12:48:12.000Z</time>
      </trkpt>
      <trkpt lat="49.8513" lon="4.82639">
        <ele>377</ele>
        <time>2021-03-30T12:48:13.000Z</time>
      </trkpt>
      <trkpt lat="49.85129" lon="4.82642">
        <ele>377</ele>
        <time>2021-03-30T12:48:14.000Z</time>
      </trkpt>
      <trkpt lat="49.85129" lon="4.82644">
        <ele>377</ele>
        <time>2021-03-30T12:48:15.000Z</time>
      </trkpt>
      <trkpt lat="49.85128" lon="4.82647">
        <ele>377</ele>
        <time>2021-03-30T12:48:16.000Z</time>
      </trkpt>
      <trkpt lat="49.85128" lon="4.8265">
        <ele>377</ele>
        <time>2021-03-30T12:48:17.000Z</time>
      </trkpt>
      <trkpt lat="49.85126" lon="4.82654">
        <ele>377</ele>
        <time>2021-03-30T12:48:18.000Z</time>
      </trkpt>
      <trkpt lat="49.85124" lon="4.82658">
        <ele>377</ele>
        <time>2021-03-30T12:48:19.000Z</time>
      </trkpt>
      <trkpt lat="49.85122" lon="4.82662">
        <ele>377</ele>
        <time>2021-03-30T12:48:20.000Z</time>
      </trkpt>
      <trkpt lat="49.8512" lon="4.82666">
        <ele>377</ele>
        <time>2021-03-30T12:48:21.000Z</time>
      </trkpt>
      <trkpt lat="49.85117" lon="4.82669">
        <ele>377</ele>
        <time>2021-03-30T12:48:22.000Z</time>
      </trkpt>
      <trkpt lat="49.85114" lon="4.82672">
        <ele>377</ele>
        <time>2021-03-30T12:48:23.000Z</time>
      </trkpt>
      <trkpt lat="49.85112" lon="4.82674">
        <ele>377</ele>
        <time>2021-03-30T12:48:24.000Z</time>
      </trkpt>
      <trkpt lat="49.85109" lon="4.82677">
        <ele>377</ele>
        <time>2021-03-30T12:48:25.000Z</time>
      </trkpt>
      <trkpt lat="49.85107" lon="4.82681">
        <ele>376</ele>
        <time>2021-03-30T12:48:26.000Z</time>
      </trkpt>
      <trkpt lat="49.85106" lon="4.82684">
        <ele>376</ele>
        <time>2021-03-30T12:48:27.000Z</time>
      </trkpt>
      <trkpt lat="49.85105" lon="4.82688">
        <ele>376</ele>
        <time>2021-03-30T12:48:28.000Z</time>
      </trkpt>
      <trkpt lat="49.85104" lon="4.82692">
        <ele>376</ele>
        <time>2021-03-30T12:48:29.000Z</time>
      </trkpt>
      <trkpt lat="49.85103" lon="4.82697">
        <ele>376</ele>
        <time>2021-03-30T12:48:30.000Z</time>
      </trkpt>
      <trkpt lat="49.85101" lon="4.82702">
        <ele>376</ele>
        <time>2021-03-30T12:48:31.000Z</time>
      </trkpt>
      <trkpt lat="49.851" lon="4.82708">
        <ele>376</ele>
        <time>2021-03-30T12:48:32.000Z</time>
      </trkpt>
      <trkpt lat="49.851" lon="4.82713">
        <ele>376</ele>
        <time>2021-03-30T12:48:33.000Z</time>
      </trkpt>
      <trkpt lat="49.851" lon="4.82719">
        <ele>376</ele>
        <time>2021-03-30T12:48:34.000Z</time>
      </trkpt>
      <trkpt lat="49.85099" lon="4.82725">
        <ele>375</ele>
        <time>2021-03-30T12:48:35.000Z</time>
      </trkpt>
      <trkpt lat="49.85097" lon="4.8273">
        <ele>375</ele>
        <time>2021-03-30T12:48:36.000Z</time>
      </trkpt>
      <trkpt lat="49.85094" lon="4.82734">
        <ele>375</ele>
        <time>2021-03-30T12:48:37.000Z</time>
      </trkpt>
      <trkpt lat="49.85091" lon="4.82737">
        <ele>375</ele>
        <time>2021-03-30T12:48:38.000Z</time>
      </trkpt>
      <trkpt lat="49.85087" lon="4.82738">
        <ele>375</ele>
        <time>2021-03-30T12:48:39.000Z</time>
      </trkpt>
      <trkpt lat="49.85084" lon="4.82739">
        <ele>375</ele>
        <time>2021-03-30T12:48:40.000Z</time>
      </trkpt>
      <trkpt lat="49.85081" lon="4.8274">
        <ele>375</ele>
        <time>2021-03-30T12:48:41.000Z</time>
      </trkpt>
      <trkpt lat="49.85077" lon="4.82743">
        <ele>375</ele>
        <time>2021-03-30T12:48:42.000Z</time>
      </trkpt>
      <trkpt lat="49.85075" lon="4.82747">
        <ele>375</ele>
        <time>2021-03-30T12:48:43.000Z</time>
      </trkpt>
      <trkpt lat="49.85073" lon="4.8275">
        <ele>375</ele>
        <time>2021-03-30T12:48:44.000Z</time>
      </trkpt>
      <trkpt lat="49.8507" lon="4.82752">
        <ele>375</ele>
        <time>2021-03-30T12:48:45.000Z</time>
      </trkpt>
      <trkpt lat="49.85068" lon="4.82756">
        <ele>375</ele>
        <time>2021-03-30T12:48:46.000Z</time>
      </trkpt>
      <trkpt lat="49.85066" lon="4.82759">
        <ele>375</ele>
        <time>2021-03-30T12:48:47.000Z</time>
      </trkpt>
      <trkpt lat="49.85064" lon="4.82763">
        <ele>375</ele>
        <time>2021-03-30T12:48:48.000Z</time>
      </trkpt>
      <trkpt lat="49.85063" lon="4.82766">
        <ele>375</ele>
        <time>2021-03-30T12:48:49.000Z</time>
      </trkpt>
      <trkpt lat="49.85062" lon="4.82768">
        <ele>375</ele>
        <time>2021-03-30T12:48:50.000Z</time>
      </trkpt>
      <trkpt lat="49.85061" lon="4.82769">
        <ele>375</ele>
        <time>2021-03-30T12:48:51.000Z</time>
      </trkpt>
      <trkpt lat="49.85061" lon="4.82769">
        <ele>375</ele>
        <time>2021-03-30T12:48:52.000Z</time>
      </trkpt>
      <trkpt lat="49.85061" lon="4.8277">
        <ele>375</ele>
        <time>2021-03-30T12:48:53.000Z</time>
      </trkpt>
      <trkpt lat="49.85061" lon="4.82771">
        <ele>375</ele>
        <time>2021-03-30T12:48:54.000Z</time>
      </trkpt>
      <trkpt lat="49.85061" lon="4.82771">
        <ele>375</ele>
        <time>2021-03-30T12:48:55.000Z</time>
      </trkpt>
      <trkpt lat="49.85061" lon="4.82772">
        <ele>375</ele>
        <time>2021-03-30T12:48:56.000Z</time>
      </trkpt>
      <trkpt lat="49.8506" lon="4.82772">
        <ele>375</ele>
        <time>2021-03-30T12:48:57.000Z</time>
      </trkpt>
      <trkpt lat="49.8506" lon="4.82773">
        <ele>375</ele>
        <time>2021-03-30T12:48:58.000Z</time>
      </trkpt>
      <trkpt lat="49.8506" lon="4.82773">
        <ele>375</ele>
        <time>2021-03-30T12:48:59.000Z</time>
      </trkpt>
      <trkpt lat="49.8506" lon="4.82774">
        <ele>375</ele>
        <time>2021-03-30T12:49:00.000Z</time>
      </trkpt>
      <trkpt lat="49.8506" lon="4.82774">
        <ele>375</ele>
        <time>2021-03-30T12:49:01.000Z</time>
      </trkpt>
      <trkpt lat="49.8506" lon="4.82775">
        <ele>375</ele>
        <time>2021-03-30T12:49:02.000Z</time>
      </trkpt>
      <trkpt lat="49.85059" lon="4.82775">
        <ele>375</ele>
        <time>2021-03-30T12:49:03.000Z</time>
      </trkpt>
      <trkpt lat="49.85059" lon="4.82775">
        <ele>375</ele>
        <time>2021-03-30T12:49:04.000Z</time>
      </trkpt>
      <trkpt lat="49.85059" lon="4.82776">
        <ele>375</ele>
        <time>2021-03-30T12:49:05.000Z</time>
      </trkpt>
      <trkpt lat="49.85059" lon="4.82776">
        <ele>375</ele>
        <time>2021-03-30T12:49:06.000Z</time>
      </trkpt>
      <trkpt lat="49.85059" lon="4.82776">
        <ele>375</ele>
        <time>2021-03-30T12:49:07.000Z</time>
      </trkpt>
      <trkpt lat="49.85059" lon="4.82777">
        <ele>375</ele>
        <time>2021-03-30T12:49:08.000Z</time>
      </trkpt>
      <trkpt lat="49.85059" lon="4.82777">
        <ele>375</ele>
        <time>2021-03-30T12:49:09.000Z</time>
      </trkpt>
      <trkpt lat="49.85059" lon="4.82777">
        <ele>375</ele>
        <time>2021-03-30T12:49:10.000Z</time>
      </trkpt>
      <trkpt lat="49.85059" lon="4.82777">
        <ele>375</ele>
        <time>2021-03-30T12:49:11.000Z</time>
      </trkpt>
      <trkpt lat="49.85059" lon="4.82777">
        <ele>375</ele>
        <time>2021-03-30T12:49:12.000Z</time>
      </trkpt>
      <trkpt lat="49.85059" lon="4.82777">
        <ele>375</ele>
        <time>2021-03-30T12:49:13.000Z</time>
      </trkpt>
      <trkpt lat="49.85058" lon="4.82778">
        <ele>375</ele>
        <time>2021-03-30T12:49:14.000Z</time>
      </trkpt>
      <trkpt lat="49.85058" lon="4.82778">
        <ele>375</ele>
        <time>2021-03-30T12:49:15.000Z</time>
      </trkpt>
      <trkpt lat="49.85058" lon="4.82778">
        <ele>375</ele>
        <time>2021-03-30T12:49:16.000Z</time>
      </trkpt>
      <trkpt lat="49.85058" lon="4.82778">
        <ele>375</ele>
        <time>2021-03-30T12:49:17.000Z</time>
      </trkpt>
      <trkpt lat="49.85058" lon="4.82778">
        <ele>375</ele>
        <time>2021-03-30T12:49:18.000Z</time>
      </trkpt>
      <trkpt lat="49.85058" lon="4.82778">
        <ele>375</ele>
        <time>2021-03-30T12:49:19.000Z</time>
      </trkpt>
      <trkpt lat="49.85058" lon="4.82778">
        <ele>375</ele>
        <time>2021-03-30T12:49:20.000Z</time>
      </trkpt>
      <trkpt lat="49.85058" lon="4.82779">
        <ele>375</ele>
        <time>2021-03-30T12:49:21.000Z</time>
      </trkpt>
      <trkpt lat="49.85058" lon="4.82779">
        <ele>375</ele>
        <time>2021-03-30T12:49:22.000Z</time>
      </trkpt>
      <trkpt lat="49.85058" lon="4.82779">
        <ele>375</ele>
        <time>2021-03-30T12:49:23.000Z</time>
      </trkpt>
      <trkpt lat="49.85057" lon="4.8278">
        <ele>375</ele>
        <time>2021-03-30T12:49:24.000Z</time>
      </trkpt>
      <trkpt lat="49.85057" lon="4.82781">
        <ele>375</ele>
        <time>2021-03-30T12:49:25.000Z</time>
      </trkpt>
      <trkpt lat="49.85056" lon="4.82782">
        <ele>375</ele>
        <time>2021-03-30T12:49:26.000Z</time>
      </trkpt>
      <trkpt lat="49.85056" lon="4.82783">
        <ele>375</ele>
        <time>2021-03-30T12:49:27.000Z</time>
      </trkpt>
      <trkpt lat="49.85055" lon="4.82785">
        <ele>375</ele>
        <time>2021-03-30T12:49:28.000Z</time>
      </trkpt>
      <trkpt lat="49.85054" lon="4.82787">
        <ele>374</ele>
        <time>2021-03-30T12:49:29.000Z</time>
      </trkpt>
      <trkpt lat="49.85053" lon="4.8279">
        <ele>374</ele>
        <time>2021-03-30T12:49:30.000Z</time>
      </trkpt>
      <trkpt lat="49.85051" lon="4.82792">
        <ele>374</ele>
        <time>2021-03-30T12:49:31.000Z</time>
      </trkpt>
      <trkpt lat="49.85049" lon="4.82796">
        <ele>374</ele>
        <time>2021-03-30T12:49:32.000Z</time>
      </trkpt>
      <trkpt lat="49.85046" lon="4.828">
        <ele>374</ele>
        <time>2021-03-30T12:49:33.000Z</time>
      </trkpt>
      <trkpt lat="49.85043" lon="4.82802">
        <ele>375</ele>
        <time>2021-03-30T12:49:34.000Z</time>
      </trkpt>
      <trkpt lat="49.85041" lon="4.82805">
        <ele>375</ele>
        <time>2021-03-30T12:49:35.000Z</time>
      </trkpt>
      <trkpt lat="49.85039" lon="4.82806">
        <ele>375</ele>
        <time>2021-03-30T12:49:36.000Z</time>
      </trkpt>
      <trkpt lat="49.85038" lon="4.82807">
        <ele>375</ele>
        <time>2021-03-30T12:49:37.000Z</time>
      </trkpt>
      <trkpt lat="49.85037" lon="4.82808">
        <ele>375</ele>
        <time>2021-03-30T12:49:38.000Z</time>
      </trkpt>
      <trkpt lat="49.85035" lon="4.82809">
        <ele>375</ele>
        <time>2021-03-30T12:49:39.000Z</time>
      </trkpt>
      <trkpt lat="49.85033" lon="4.8281">
        <ele>375</ele>
        <time>2021-03-30T12:49:40.000Z</time>
      </trkpt>
      <trkpt lat="49.85031" lon="4.82811">
        <ele>375</ele>
        <time>2021-03-30T12:49:41.000Z</time>
      </trkpt>
      <trkpt lat="49.8503" lon="4.82811">
        <ele>375</ele>
        <time>2021-03-30T12:49:42.000Z</time>
      </trkpt>
      <trkpt lat="49.85028" lon="4.82812">
        <ele>375</ele>
        <time>2021-03-30T12:49:43.000Z</time>
      </trkpt>
      <trkpt lat="49.85026" lon="4.82813">
        <ele>375</ele>
        <time>2021-03-30T12:49:44.000Z</time>
      </trkpt>
      <trkpt lat="49.85024" lon="4.82815">
        <ele>375</ele>
        <time>2021-03-30T12:49:45.000Z</time>
      </trkpt>
      <trkpt lat="49.85022" lon="4.82818">
        <ele>375</ele>
        <time>2021-03-30T12:49:46.000Z</time>
      </trkpt>
      <trkpt lat="49.8502" lon="4.82822">
        <ele>375</ele>
        <time>2021-03-30T12:49:47.000Z</time>
      </trkpt>
      <trkpt lat="49.85017" lon="4.82827">
        <ele>375</ele>
        <time>2021-03-30T12:49:48.000Z</time>
      </trkpt>
      <trkpt lat="49.85014" lon="4.82831">
        <ele>376</ele>
        <time>2021-03-30T12:49:49.000Z</time>
      </trkpt>
      <trkpt lat="49.8501" lon="4.82835">
        <ele>376</ele>
        <time>2021-03-30T12:49:50.000Z</time>
      </trkpt>
      <trkpt lat="49.85006" lon="4.82839">
        <ele>376</ele>
        <time>2021-03-30T12:49:51.000Z</time>
      </trkpt>
      <trkpt lat="49.85003" lon="4.82844">
        <ele>376</ele>
        <time>2021-03-30T12:49:52.000Z</time>
      </trkpt>
      <trkpt lat="49.85" lon="4.8285">
        <ele>376</ele>
        <time>2021-03-30T12:49:53.000Z</time>
      </trkpt>
      <trkpt lat="49.84995" lon="4.82855">
        <ele>376</ele>
        <time>2021-03-30T12:49:54.000Z</time>
      </trkpt>
      <trkpt lat="49.84989" lon="4.82861">
        <ele>376</ele>
        <time>2021-03-30T12:49:55.000Z</time>
      </trkpt>
      <trkpt lat="49.84983" lon="4.82865">
        <ele>375</ele>
        <time>2021-03-30T12:49:56.000Z</time>
      </trkpt>
      <trkpt lat="49.84978" lon="4.82869">
        <ele>375</ele>
        <time>2021-03-30T12:49:57.000Z</time>
      </trkpt>
      <trkpt lat="49.84973" lon="4.82872">
        <ele>375</ele>
        <time>2021-03-30T12:49:58.000Z</time>
      </trkpt>
      <trkpt lat="49.84969" lon="4.82875">
        <ele>375</ele>
        <time>2021-03-30T12:49:59.000Z</time>
      </trkpt>
      <trkpt lat="49.84965" lon="4.82878">
        <ele>375</ele>
        <time>2021-03-30T12:50:00.000Z</time>
      </trkpt>
      <trkpt lat="49.84962" lon="4.82882">
        <ele>374</ele>
        <time>2021-03-30T12:50:01.000Z</time>
      </trkpt>
      <trkpt lat="49.84959" lon="4.82886">
        <ele>374</ele>
        <time>2021-03-30T12:50:02.000Z</time>
      </trkpt>
      <trkpt lat="49.84957" lon="4.8289">
        <ele>374</ele>
        <time>2021-03-30T12:50:03.000Z</time>
      </trkpt>
      <trkpt lat="49.84955" lon="4.82895">
        <ele>373</ele>
        <time>2021-03-30T12:50:04.000Z</time>
      </trkpt>
      <trkpt lat="49.84955" lon="4.82899">
        <ele>373</ele>
        <time>2021-03-30T12:50:05.000Z</time>
      </trkpt>
      <trkpt lat="49.84955" lon="4.82902">
        <ele>373</ele>
        <time>2021-03-30T12:50:06.000Z</time>
      </trkpt>
      <trkpt lat="49.84956" lon="4.82905">
        <ele>372</ele>
        <time>2021-03-30T12:50:07.000Z</time>
      </trkpt>
      <trkpt lat="49.84957" lon="4.82909">
        <ele>372</ele>
        <time>2021-03-30T12:50:08.000Z</time>
      </trkpt>
      <trkpt lat="49.84958" lon="4.82913">
        <ele>372</ele>
        <time>2021-03-30T12:50:09.000Z</time>
      </trkpt>
      <trkpt lat="49.84958" lon="4.82918">
        <ele>372</ele>
        <time>2021-03-30T12:50:10.000Z</time>
      </trkpt>
      <trkpt lat="49.84958" lon="4.82924">
        <ele>371</ele>
        <time>2021-03-30T12:50:11.000Z</time>
      </trkpt>
      <trkpt lat="49.84956" lon="4.8293">
        <ele>371</ele>
        <time>2021-03-30T12:50:12.000Z</time>
      </trkpt>
      <trkpt lat="49.84954" lon="4.82936">
        <ele>371</ele>
        <time>2021-03-30T12:50:13.000Z</time>
      </trkpt>
      <trkpt lat="49.84951" lon="4.82943">
        <ele>371</ele>
        <time>2021-03-30T12:50:14.000Z</time>
      </trkpt>
      <trkpt lat="49.84949" lon="4.8295">
        <ele>371</ele>
        <time>2021-03-30T12:50:15.000Z</time>
      </trkpt>
      <trkpt lat="49.84946" lon="4.82958">
        <ele>370</ele>
        <time>2021-03-30T12:50:16.000Z</time>
      </trkpt>
      <trkpt lat="49.84944" lon="4.82966">
        <ele>370</ele>
        <time>2021-03-30T12:50:17.000Z</time>
      </trkpt>
      <trkpt lat="49.84941" lon="4.82973">
        <ele>370</ele>
        <time>2021-03-30T12:50:18.000Z</time>
      </trkpt>
      <trkpt lat="49.84939" lon="4.82978">
        <ele>370</ele>
        <time>2021-03-30T12:50:19.000Z</time>
      </trkpt>
      <trkpt lat="49.84936" lon="4.82982">
        <ele>369</ele>
        <time>2021-03-30T12:50:20.000Z</time>
      </trkpt>
      <trkpt lat="49.84934" lon="4.82987">
        <ele>369</ele>
        <time>2021-03-30T12:50:21.000Z</time>
      </trkpt>
      <trkpt lat="49.84931" lon="4.82991">
        <ele>369</ele>
        <time>2021-03-30T12:50:22.000Z</time>
      </trkpt>
      <trkpt lat="49.84928" lon="4.82996">
        <ele>369</ele>
        <time>2021-03-30T12:50:23.000Z</time>
      </trkpt>
      <trkpt lat="49.84926" lon="4.83">
        <ele>369</ele>
        <time>2021-03-30T12:50:24.000Z</time>
      </trkpt>
      <trkpt lat="49.84923" lon="4.83005">
        <ele>369</ele>
        <time>2021-03-30T12:50:25.000Z</time>
      </trkpt>
      <trkpt lat="49.84921" lon="4.8301">
        <ele>369</ele>
        <time>2021-03-30T12:50:26.000Z</time>
      </trkpt>
      <trkpt lat="49.84918" lon="4.83013">
        <ele>369</ele>
        <time>2021-03-30T12:50:27.000Z</time>
      </trkpt>
      <trkpt lat="49.84914" lon="4.83018">
        <ele>369</ele>
        <time>2021-03-30T12:50:28.000Z</time>
      </trkpt>
      <trkpt lat="49.84911" lon="4.83025">
        <ele>369</ele>
        <time>2021-03-30T12:50:29.000Z</time>
      </trkpt>
      <trkpt lat="49.84907" lon="4.8303">
        <ele>369</ele>
        <time>2021-03-30T12:50:30.000Z</time>
      </trkpt>
      <trkpt lat="49.84903" lon="4.83036">
        <ele>369</ele>
        <time>2021-03-30T12:50:31.000Z</time>
      </trkpt>
      <trkpt lat="49.849" lon="4.83042">
        <ele>369</ele>
        <time>2021-03-30T12:50:32.000Z</time>
      </trkpt>
      <trkpt lat="49.84897" lon="4.83048">
        <ele>369</ele>
        <time>2021-03-30T12:50:33.000Z</time>
      </trkpt>
      <trkpt lat="49.84893" lon="4.83053">
        <ele>369</ele>
        <time>2021-03-30T12:50:34.000Z</time>
      </trkpt>
      <trkpt lat="49.84889" lon="4.83059">
        <ele>369</ele>
        <time>2021-03-30T12:50:35.000Z</time>
      </trkpt>
      <trkpt lat="49.84885" lon="4.83065">
        <ele>369</ele>
        <time>2021-03-30T12:50:36.000Z</time>
      </trkpt>
      <trkpt lat="49.84881" lon="4.83071">
        <ele>368</ele>
        <time>2021-03-30T12:50:37.000Z</time>
      </trkpt>
      <trkpt lat="49.84876" lon="4.83076">
        <ele>368</ele>
        <time>2021-03-30T12:50:38.000Z</time>
      </trkpt>
      <trkpt lat="49.84872" lon="4.83082">
        <ele>368</ele>
        <time>2021-03-30T12:50:39.000Z</time>
      </trkpt>
      <trkpt lat="49.84868" lon="4.83087">
        <ele>368</ele>
        <time>2021-03-30T12:50:40.000Z</time>
      </trkpt>
      <trkpt lat="49.84864" lon="4.83093">
        <ele>368</ele>
        <time>2021-03-30T12:50:41.000Z</time>
      </trkpt>
      <trkpt lat="49.8486" lon="4.83098">
        <ele>367</ele>
        <time>2021-03-30T12:50:42.000Z</time>
      </trkpt>
      <trkpt lat="49.84856" lon="4.83104">
        <ele>367</ele>
        <time>2021-03-30T12:50:43.000Z</time>
      </trkpt>
      <trkpt lat="49.84853" lon="4.8311">
        <ele>367</ele>
        <time>2021-03-30T12:50:44.000Z</time>
      </trkpt>
      <trkpt lat="49.8485" lon="4.83116">
        <ele>366</ele>
        <time>2021-03-30T12:50:45.000Z</time>
      </trkpt>
      <trkpt lat="49.84846" lon="4.83122">
        <ele>366</ele>
        <time>2021-03-30T12:50:46.000Z</time>
      </trkpt>
      <trkpt lat="49.84842" lon="4.83128">
        <ele>366</ele>
        <time>2021-03-30T12:50:47.000Z</time>
      </trkpt>
      <trkpt lat="49.84838" lon="4.83133">
        <ele>366</ele>
        <time>2021-03-30T12:50:48.000Z</time>
      </trkpt>
      <trkpt lat="49.84834" lon="4.83139">
        <ele>365</ele>
        <time>2021-03-30T12:50:49.000Z</time>
      </trkpt>
      <trkpt lat="49.8483" lon="4.83143">
        <ele>365</ele>
        <time>2021-03-30T12:50:50.000Z</time>
      </trkpt>
      <trkpt lat="49.84826" lon="4.83149">
        <ele>365</ele>
        <time>2021-03-30T12:50:51.000Z</time>
      </trkpt>
      <trkpt lat="49.84823" lon="4.83153">
        <ele>365</ele>
        <time>2021-03-30T12:50:52.000Z</time>
      </trkpt>
      <trkpt lat="49.8482" lon="4.83158">
        <ele>365</ele>
        <time>2021-03-30T12:50:53.000Z</time>
      </trkpt>
      <trkpt lat="49.84817" lon="4.83163">
        <ele>365</ele>
        <time>2021-03-30T12:50:54.000Z</time>
      </trkpt>
      <trkpt lat="49.84814" lon="4.83169">
        <ele>365</ele>
        <time>2021-03-30T12:50:55.000Z</time>
      </trkpt>
      <trkpt lat="49.84811" lon="4.83174">
        <ele>365</ele>
        <time>2021-03-30T12:50:56.000Z</time>
      </trkpt>
      <trkpt lat="49.84808" lon="4.83178">
        <ele>364</ele>
        <time>2021-03-30T12:50:57.000Z</time>
      </trkpt>
      <trkpt lat="49.84805" lon="4.83183">
        <ele>364</ele>
        <time>2021-03-30T12:50:58.000Z</time>
      </trkpt>
      <trkpt lat="49.84802" lon="4.83189">
        <ele>364</ele>
        <time>2021-03-30T12:50:59.000Z</time>
      </trkpt>
      <trkpt lat="49.84799" lon="4.83194">
        <ele>364</ele>
        <time>2021-03-30T12:51:00.000Z</time>
      </trkpt>
      <trkpt lat="49.84795" lon="4.83201">
        <ele>363</ele>
        <time>2021-03-30T12:51:01.000Z</time>
      </trkpt>
      <trkpt lat="49.84792" lon="4.83207">
        <ele>363</ele>
        <time>2021-03-30T12:51:02.000Z</time>
      </trkpt>
      <trkpt lat="49.84788" lon="4.83213">
        <ele>363</ele>
        <time>2021-03-30T12:51:03.000Z</time>
      </trkpt>
      <trkpt lat="49.84787" lon="4.8322">
        <ele>363</ele>
        <time>2021-03-30T12:51:04.000Z</time>
      </trkpt>
      <trkpt lat="49.84786" lon="4.83227">
        <ele>362</ele>
        <time>2021-03-30T12:51:05.000Z</time>
      </trkpt>
      <trkpt lat="49.84786" lon="4.83233">
        <ele>362</ele>
        <time>2021-03-30T12:51:06.000Z</time>
      </trkpt>
      <trkpt lat="49.84786" lon="4.8324">
        <ele>362</ele>
        <time>2021-03-30T12:51:07.000Z</time>
      </trkpt>
      <trkpt lat="49.84786" lon="4.83247">
        <ele>362</ele>
        <time>2021-03-30T12:51:08.000Z</time>
      </trkpt>
      <trkpt lat="49.84786" lon="4.83255">
        <ele>362</ele>
        <time>2021-03-30T12:51:09.000Z</time>
      </trkpt>
      <trkpt lat="49.84786" lon="4.83262">
        <ele>362</ele>
        <time>2021-03-30T12:51:10.000Z</time>
      </trkpt>
      <trkpt lat="49.84786" lon="4.8327">
        <ele>361</ele>
        <time>2021-03-30T12:51:11.000Z</time>
      </trkpt>
      <trkpt lat="49.84787" lon="4.83279">
        <ele>361</ele>
        <time>2021-03-30T12:51:12.000Z</time>
      </trkpt>
      <trkpt lat="49.84787" lon="4.83288">
        <ele>361</ele>
        <time>2021-03-30T12:51:13.000Z</time>
      </trkpt>
      <trkpt lat="49.84788" lon="4.83299">
        <ele>361</ele>
        <time>2021-03-30T12:51:14.000Z</time>
      </trkpt>
      <trkpt lat="49.84788" lon="4.8331">
        <ele>361</ele>
        <time>2021-03-30T12:51:15.000Z</time>
      </trkpt>
      <trkpt lat="49.84789" lon="4.83322">
        <ele>360</ele>
        <time>2021-03-30T12:51:16.000Z</time>
      </trkpt>
      <trkpt lat="49.84789" lon="4.83336">
        <ele>360</ele>
        <time>2021-03-30T12:51:17.000Z</time>
      </trkpt>
      <trkpt lat="49.84789" lon="4.8335">
        <ele>359</ele>
        <time>2021-03-30T12:51:18.000Z</time>
      </trkpt>
      <trkpt lat="49.84788" lon="4.83364">
        <ele>359</ele>
        <time>2021-03-30T12:51:19.000Z</time>
      </trkpt>
      <trkpt lat="49.84788" lon="4.83379">
        <ele>358</ele>
        <time>2021-03-30T12:51:20.000Z</time>
      </trkpt>
      <trkpt lat="49.84789" lon="4.83394">
        <ele>357</ele>
        <time>2021-03-30T12:51:21.000Z</time>
      </trkpt>
      <trkpt lat="49.84789" lon="4.83407">
        <ele>356</ele>
        <time>2021-03-30T12:51:22.000Z</time>
      </trkpt>
      <trkpt lat="49.84789" lon="4.83422">
        <ele>355</ele>
        <time>2021-03-30T12:51:23.000Z</time>
      </trkpt>
      <trkpt lat="49.84788" lon="4.83438">
        <ele>355</ele>
        <time>2021-03-30T12:51:24.000Z</time>
      </trkpt>
      <trkpt lat="49.84789" lon="4.83453">
        <ele>354</ele>
        <time>2021-03-30T12:51:25.000Z</time>
      </trkpt>
      <trkpt lat="49.84788" lon="4.83467">
        <ele>354</ele>
        <time>2021-03-30T12:51:26.000Z</time>
      </trkpt>
      <trkpt lat="49.84788" lon="4.83478">
        <ele>353</ele>
        <time>2021-03-30T12:51:27.000Z</time>
      </trkpt>
      <trkpt lat="49.84788" lon="4.83488">
        <ele>353</ele>
        <time>2021-03-30T12:51:28.000Z</time>
      </trkpt>
      <trkpt lat="49.84787" lon="4.83498">
        <ele>352</ele>
        <time>2021-03-30T12:51:29.000Z</time>
      </trkpt>
      <trkpt lat="49.84787" lon="4.83507">
        <ele>352</ele>
        <time>2021-03-30T12:51:30.000Z</time>
      </trkpt>
      <trkpt lat="49.84787" lon="4.83517">
        <ele>352</ele>
        <time>2021-03-30T12:51:31.000Z</time>
      </trkpt>
      <trkpt lat="49.84786" lon="4.83527">
        <ele>351</ele>
        <time>2021-03-30T12:51:32.000Z</time>
      </trkpt>
      <trkpt lat="49.84786" lon="4.83537">
        <ele>351</ele>
        <time>2021-03-30T12:51:33.000Z</time>
      </trkpt>
      <trkpt lat="49.84785" lon="4.83546">
        <ele>351</ele>
        <time>2021-03-30T12:51:34.000Z</time>
      </trkpt>
      <trkpt lat="49.84785" lon="4.83554">
        <ele>350</ele>
        <time>2021-03-30T12:51:35.000Z</time>
      </trkpt>
      <trkpt lat="49.84785" lon="4.83562">
        <ele>350</ele>
        <time>2021-03-30T12:51:36.000Z</time>
      </trkpt>
      <trkpt lat="49.84786" lon="4.8357">
        <ele>350</ele>
        <time>2021-03-30T12:51:37.000Z</time>
      </trkpt>
      <trkpt lat="49.84786" lon="4.83579">
        <ele>350</ele>
        <time>2021-03-30T12:51:38.000Z</time>
      </trkpt>
      <trkpt lat="49.84786" lon="4.83579">
        <ele>350</ele>
        <time>2021-03-30T12:51:39.000Z</time>
      </trkpt>
      <trkpt lat="49.84786" lon="4.83595">
        <ele>349</ele>
        <time>2021-03-30T12:51:40.000Z</time>
      </trkpt>
      <trkpt lat="49.84785" lon="4.83604">
        <ele>349</ele>
        <time>2021-03-30T12:51:41.000Z</time>
      </trkpt>
      <trkpt lat="49.84785" lon="4.83612">
        <ele>349</ele>
        <time>2021-03-30T12:51:42.000Z</time>
      </trkpt>
      <trkpt lat="49.84785" lon="4.83621">
        <ele>349</ele>
        <time>2021-03-30T12:51:43.000Z</time>
      </trkpt>
      <trkpt lat="49.84785" lon="4.8363">
        <ele>348</ele>
        <time>2021-03-30T12:51:44.000Z</time>
      </trkpt>
      <trkpt lat="49.84784" lon="4.83639">
        <ele>348</ele>
        <time>2021-03-30T12:51:45.000Z</time>
      </trkpt>
      <trkpt lat="49.84784" lon="4.83648">
        <ele>348</ele>
        <time>2021-03-30T12:51:46.000Z</time>
      </trkpt>
      <trkpt lat="49.84784" lon="4.83657">
        <ele>348</ele>
        <time>2021-03-30T12:51:47.000Z</time>
      </trkpt>
      <trkpt lat="49.84785" lon="4.83666">
        <ele>348</ele>
        <time>2021-03-30T12:51:48.000Z</time>
      </trkpt>
      <trkpt lat="49.84785" lon="4.83666">
        <ele>348</ele>
        <time>2021-03-30T12:51:49.000Z</time>
      </trkpt>
      <trkpt lat="49.84786" lon="4.83685">
        <ele>347</ele>
        <time>2021-03-30T12:51:50.000Z</time>
      </trkpt>
      <trkpt lat="49.84787" lon="4.83695">
        <ele>347</ele>
        <time>2021-03-30T12:51:51.000Z</time>
      </trkpt>
      <trkpt lat="49.84787" lon="4.83695">
        <ele>347</ele>
        <time>2021-03-30T12:51:52.000Z</time>
      </trkpt>
      <trkpt lat="49.84786" lon="4.83713">
        <ele>347</ele>
        <time>2021-03-30T12:51:53.000Z</time>
      </trkpt>
      <trkpt lat="49.84785" lon="4.83722">
        <ele>347</ele>
        <time>2021-03-30T12:51:54.000Z</time>
      </trkpt>
      <trkpt lat="49.84786" lon="4.83732">
        <ele>347</ele>
        <time>2021-03-30T12:51:55.000Z</time>
      </trkpt>
      <trkpt lat="49.84786" lon="4.83741">
        <ele>347</ele>
        <time>2021-03-30T12:51:56.000Z</time>
      </trkpt>
      <trkpt lat="49.84786" lon="4.8375">
        <ele>346</ele>
        <time>2021-03-30T12:51:57.000Z</time>
      </trkpt>
      <trkpt lat="49.84786" lon="4.83759">
        <ele>346</ele>
        <time>2021-03-30T12:51:58.000Z</time>
      </trkpt>
      <trkpt lat="49.84787" lon="4.83767">
        <ele>346</ele>
        <time>2021-03-30T12:51:59.000Z</time>
      </trkpt>
      <trkpt lat="49.84788" lon="4.83775">
        <ele>346</ele>
        <time>2021-03-30T12:52:00.000Z</time>
      </trkpt>
      <trkpt lat="49.84788" lon="4.83782">
        <ele>346</ele>
        <time>2021-03-30T12:52:01.000Z</time>
      </trkpt>
      <trkpt lat="49.84788" lon="4.83789">
        <ele>346</ele>
        <time>2021-03-30T12:52:02.000Z</time>
      </trkpt>
      <trkpt lat="49.84788" lon="4.83796">
        <ele>346</ele>
        <time>2021-03-30T12:52:03.000Z</time>
      </trkpt>
      <trkpt lat="49.84789" lon="4.83803">
        <ele>346</ele>
        <time>2021-03-30T12:52:04.000Z</time>
      </trkpt>
      <trkpt lat="49.84789" lon="4.8381">
        <ele>347</ele>
        <time>2021-03-30T12:52:05.000Z</time>
      </trkpt>
      <trkpt lat="49.84789" lon="4.83817">
        <ele>347</ele>
        <time>2021-03-30T12:52:06.000Z</time>
      </trkpt>
      <trkpt lat="49.84788" lon="4.83823">
        <ele>347</ele>
        <time>2021-03-30T12:52:07.000Z</time>
      </trkpt>
      <trkpt lat="49.84786" lon="4.83829">
        <ele>347</ele>
        <time>2021-03-30T12:52:08.000Z</time>
      </trkpt>
      <trkpt lat="49.84784" lon="4.83835">
        <ele>347</ele>
        <time>2021-03-30T12:52:09.000Z</time>
      </trkpt>
      <trkpt lat="49.84783" lon="4.83842">
        <ele>347</ele>
        <time>2021-03-30T12:52:10.000Z</time>
      </trkpt>
      <trkpt lat="49.84781" lon="4.83848">
        <ele>347</ele>
        <time>2021-03-30T12:52:11.000Z</time>
      </trkpt>
      <trkpt lat="49.84779" lon="4.83854">
        <ele>347</ele>
        <time>2021-03-30T12:52:12.000Z</time>
      </trkpt>
      <trkpt lat="49.84776" lon="4.83861">
        <ele>347</ele>
        <time>2021-03-30T12:52:13.000Z</time>
      </trkpt>
      <trkpt lat="49.84774" lon="4.83867">
        <ele>347</ele>
        <time>2021-03-30T12:52:14.000Z</time>
      </trkpt>
      <trkpt lat="49.84771" lon="4.83873">
        <ele>347</ele>
        <time>2021-03-30T12:52:15.000Z</time>
      </trkpt>
      <trkpt lat="49.84771" lon="4.83873">
        <ele>347</ele>
        <time>2021-03-30T12:52:16.000Z</time>
      </trkpt>
      <trkpt lat="49.84769" lon="4.83879">
        <ele>347</ele>
        <time>2021-03-30T12:52:17.000Z</time>
      </trkpt>
      <trkpt lat="49.84766" lon="4.83885">
        <ele>347</ele>
        <time>2021-03-30T12:52:18.000Z</time>
      </trkpt>
      <trkpt lat="49.8476" lon="4.83897">
        <ele>347</ele>
        <time>2021-03-30T12:52:19.000Z</time>
      </trkpt>
      <trkpt lat="49.84757" lon="4.83903">
        <ele>347</ele>
        <time>2021-03-30T12:52:20.000Z</time>
      </trkpt>
      <trkpt lat="49.84754" lon="4.83908">
        <ele>348</ele>
        <time>2021-03-30T12:52:21.000Z</time>
      </trkpt>
      <trkpt lat="49.8475" lon="4.83914">
        <ele>348</ele>
        <time>2021-03-30T12:52:22.000Z</time>
      </trkpt>
      <trkpt lat="49.84747" lon="4.83919">
        <ele>348</ele>
        <time>2021-03-30T12:52:23.000Z</time>
      </trkpt>
      <trkpt lat="49.84744" lon="4.83924">
        <ele>348</ele>
        <time>2021-03-30T12:52:24.000Z</time>
      </trkpt>
      <trkpt lat="49.84744" lon="4.83924">
        <ele>348</ele>
        <time>2021-03-30T12:52:25.000Z</time>
      </trkpt>
      <trkpt lat="49.84738" lon="4.83934">
        <ele>349</ele>
        <time>2021-03-30T12:52:26.000Z</time>
      </trkpt>
      <trkpt lat="49.84736" lon="4.83939">
        <ele>349</ele>
        <time>2021-03-30T12:52:27.000Z</time>
      </trkpt>
      <trkpt lat="49.84736" lon="4.83939">
        <ele>349</ele>
        <time>2021-03-30T12:52:28.000Z</time>
      </trkpt>
      <trkpt lat="49.84732" lon="4.83949">
        <ele>350</ele>
        <time>2021-03-30T12:52:29.000Z</time>
      </trkpt>
      <trkpt lat="49.8473" lon="4.83953">
        <ele>350</ele>
        <time>2021-03-30T12:52:30.000Z</time>
      </trkpt>
      <trkpt lat="49.84728" lon="4.83956">
        <ele>351</ele>
        <time>2021-03-30T12:52:31.000Z</time>
      </trkpt>
      <trkpt lat="49.84726" lon="4.83959">
        <ele>351</ele>
        <time>2021-03-30T12:52:32.000Z</time>
      </trkpt>
      <trkpt lat="49.84723" lon="4.83962">
        <ele>351</ele>
        <time>2021-03-30T12:52:33.000Z</time>
      </trkpt>
      <trkpt lat="49.8472" lon="4.83964">
        <ele>351</ele>
        <time>2021-03-30T12:52:34.000Z</time>
      </trkpt>
      <trkpt lat="49.84717" lon="4.83966">
        <ele>352</ele>
        <time>2021-03-30T12:52:35.000Z</time>
      </trkpt>
      <trkpt lat="49.84714" lon="4.83968">
        <ele>352</ele>
        <time>2021-03-30T12:52:36.000Z</time>
      </trkpt>
      <trkpt lat="49.84712" lon="4.8397">
        <ele>352</ele>
        <time>2021-03-30T12:52:37.000Z</time>
      </trkpt>
      <trkpt lat="49.84708" lon="4.83972">
        <ele>353</ele>
        <time>2021-03-30T12:52:38.000Z</time>
      </trkpt>
      <trkpt lat="49.84708" lon="4.83972">
        <ele>353</ele>
        <time>2021-03-30T12:52:39.000Z</time>
      </trkpt>
      <trkpt lat="49.847" lon="4.83976">
        <ele>353</ele>
        <time>2021-03-30T12:52:40.000Z</time>
      </trkpt>
      <trkpt lat="49.84696" lon="4.83977">
        <ele>354</ele>
        <time>2021-03-30T12:52:41.000Z</time>
      </trkpt>
      <trkpt lat="49.84693" lon="4.83979">
        <ele>354</ele>
        <time>2021-03-30T12:52:42.000Z</time>
      </trkpt>
      <trkpt lat="49.84693" lon="4.83979">
        <ele>354</ele>
        <time>2021-03-30T12:52:43.000Z</time>
      </trkpt>
      <trkpt lat="49.84686" lon="4.83982">
        <ele>354</ele>
        <time>2021-03-30T12:52:44.000Z</time>
      </trkpt>
      <trkpt lat="49.84681" lon="4.83984">
        <ele>355</ele>
        <time>2021-03-30T12:52:45.000Z</time>
      </trkpt>
      <trkpt lat="49.84677" lon="4.83985">
        <ele>355</ele>
        <time>2021-03-30T12:52:46.000Z</time>
      </trkpt>
      <trkpt lat="49.84673" lon="4.83987">
        <ele>355</ele>
        <time>2021-03-30T12:52:47.000Z</time>
      </trkpt>
      <trkpt lat="49.84669" lon="4.83988">
        <ele>355</ele>
        <time>2021-03-30T12:52:48.000Z</time>
      </trkpt>
      <trkpt lat="49.84665" lon="4.83989">
        <ele>355</ele>
        <time>2021-03-30T12:52:49.000Z</time>
      </trkpt>
      <trkpt lat="49.84661" lon="4.83991">
        <ele>355</ele>
        <time>2021-03-30T12:52:50.000Z</time>
      </trkpt>
      <trkpt lat="49.84658" lon="4.83992">
        <ele>356</ele>
        <time>2021-03-30T12:52:51.000Z</time>
      </trkpt>
      <trkpt lat="49.84655" lon="4.83993">
        <ele>356</ele>
        <time>2021-03-30T12:52:52.000Z</time>
      </trkpt>
      <trkpt lat="49.84652" lon="4.83994">
        <ele>356</ele>
        <time>2021-03-30T12:52:53.000Z</time>
      </trkpt>
      <trkpt lat="49.84649" lon="4.83995">
        <ele>356</ele>
        <time>2021-03-30T12:52:54.000Z</time>
      </trkpt>
      <trkpt lat="49.84646" lon="4.83995">
        <ele>356</ele>
        <time>2021-03-30T12:52:55.000Z</time>
      </trkpt>
      <trkpt lat="49.84643" lon="4.83996">
        <ele>357</ele>
        <time>2021-03-30T12:52:56.000Z</time>
      </trkpt>
      <trkpt lat="49.84643" lon="4.83996">
        <ele>357</ele>
        <time>2021-03-30T12:52:57.000Z</time>
      </trkpt>
      <trkpt lat="49.8464" lon="4.83997">
        <ele>357</ele>
        <time>2021-03-30T12:52:58.000Z</time>
      </trkpt>
      <trkpt lat="49.84638" lon="4.83997">
        <ele>357</ele>
        <time>2021-03-30T12:52:59.000Z</time>
      </trkpt>
      <trkpt lat="49.84635" lon="4.83998">
        <ele>357</ele>
        <time>2021-03-30T12:53:00.000Z</time>
      </trkpt>
      <trkpt lat="49.84633" lon="4.83999">
        <ele>358</ele>
        <time>2021-03-30T12:53:01.000Z</time>
      </trkpt>
      <trkpt lat="49.8463" lon="4.84">
        <ele>358</ele>
        <time>2021-03-30T12:53:02.000Z</time>
      </trkpt>
      <trkpt lat="49.84627" lon="4.84002">
        <ele>358</ele>
        <time>2021-03-30T12:53:03.000Z</time>
      </trkpt>
      <trkpt lat="49.84623" lon="4.84002">
        <ele>358</ele>
        <time>2021-03-30T12:53:04.000Z</time>
      </trkpt>
      <trkpt lat="49.8462" lon="4.84003">
        <ele>358</ele>
        <time>2021-03-30T12:53:05.000Z</time>
      </trkpt>
      <trkpt lat="49.84616" lon="4.84003">
        <ele>358</ele>
        <time>2021-03-30T12:53:06.000Z</time>
      </trkpt>
      <trkpt lat="49.84613" lon="4.84004">
        <ele>358</ele>
        <time>2021-03-30T12:53:07.000Z</time>
      </trkpt>
      <trkpt lat="49.8461" lon="4.84004">
        <ele>359</ele>
        <time>2021-03-30T12:53:08.000Z</time>
      </trkpt>
      <trkpt lat="49.84607" lon="4.84007">
        <ele>359</ele>
        <time>2021-03-30T12:53:09.000Z</time>
      </trkpt>
      <trkpt lat="49.84604" lon="4.84009">
        <ele>359</ele>
        <time>2021-03-30T12:53:10.000Z</time>
      </trkpt>
      <trkpt lat="49.846" lon="4.84012">
        <ele>359</ele>
        <time>2021-03-30T12:53:11.000Z</time>
      </trkpt>
      <trkpt lat="49.84597" lon="4.84014">
        <ele>359</ele>
        <time>2021-03-30T12:53:12.000Z</time>
      </trkpt>
      <trkpt lat="49.84594" lon="4.84017">
        <ele>359</ele>
        <time>2021-03-30T12:53:13.000Z</time>
      </trkpt>
      <trkpt lat="49.84591" lon="4.84019">
        <ele>359</ele>
        <time>2021-03-30T12:53:14.000Z</time>
      </trkpt>
      <trkpt lat="49.84588" lon="4.84022">
        <ele>360</ele>
        <time>2021-03-30T12:53:15.000Z</time>
      </trkpt>
      <trkpt lat="49.84584" lon="4.84025">
        <ele>360</ele>
        <time>2021-03-30T12:53:16.000Z</time>
      </trkpt>
      <trkpt lat="49.84581" lon="4.84029">
        <ele>360</ele>
        <time>2021-03-30T12:53:17.000Z</time>
      </trkpt>
      <trkpt lat="49.84578" lon="4.84032">
        <ele>360</ele>
        <time>2021-03-30T12:53:18.000Z</time>
      </trkpt>
      <trkpt lat="49.84574" lon="4.84035">
        <ele>360</ele>
        <time>2021-03-30T12:53:19.000Z</time>
      </trkpt>
      <trkpt lat="49.84571" lon="4.84038">
        <ele>360</ele>
        <time>2021-03-30T12:53:20.000Z</time>
      </trkpt>
      <trkpt lat="49.84567" lon="4.84041">
        <ele>360</ele>
        <time>2021-03-30T12:53:21.000Z</time>
      </trkpt>
      <trkpt lat="49.84564" lon="4.84045">
        <ele>360</ele>
        <time>2021-03-30T12:53:22.000Z</time>
      </trkpt>
      <trkpt lat="49.8456" lon="4.84048">
        <ele>360</ele>
        <time>2021-03-30T12:53:23.000Z</time>
      </trkpt>
      <trkpt lat="49.84557" lon="4.84052">
        <ele>360</ele>
        <time>2021-03-30T12:53:24.000Z</time>
      </trkpt>
      <trkpt lat="49.84553" lon="4.84055">
        <ele>360</ele>
        <time>2021-03-30T12:53:25.000Z</time>
      </trkpt>
      <trkpt lat="49.84551" lon="4.84057">
        <ele>360</ele>
        <time>2021-03-30T12:53:26.000Z</time>
      </trkpt>
      <trkpt lat="49.84548" lon="4.84061">
        <ele>360</ele>
        <time>2021-03-30T12:53:27.000Z</time>
      </trkpt>
      <trkpt lat="49.84545" lon="4.84066">
        <ele>360</ele>
        <time>2021-03-30T12:53:28.000Z</time>
      </trkpt>
      <trkpt lat="49.84541" lon="4.84071">
        <ele>360</ele>
        <time>2021-03-30T12:53:29.000Z</time>
      </trkpt>
      <trkpt lat="49.84538" lon="4.84076">
        <ele>360</ele>
        <time>2021-03-30T12:53:30.000Z</time>
      </trkpt>
      <trkpt lat="49.84534" lon="4.84082">
        <ele>360</ele>
        <time>2021-03-30T12:53:31.000Z</time>
      </trkpt>
      <trkpt lat="49.8453" lon="4.84088">
        <ele>360</ele>
        <time>2021-03-30T12:53:32.000Z</time>
      </trkpt>
      <trkpt lat="49.84526" lon="4.84092">
        <ele>360</ele>
        <time>2021-03-30T12:53:33.000Z</time>
      </trkpt>
      <trkpt lat="49.84523" lon="4.84096">
        <ele>360</ele>
        <time>2021-03-30T12:53:34.000Z</time>
      </trkpt>
      <trkpt lat="49.8452" lon="4.841">
        <ele>360</ele>
        <time>2021-03-30T12:53:35.000Z</time>
      </trkpt>
      <trkpt lat="49.84511" lon="4.8411">
        <ele>360</ele>
        <time>2021-03-30T12:53:36.000Z</time>
      </trkpt>
      <trkpt lat="49.84511" lon="4.8411">
        <ele>360</ele>
        <time>2021-03-30T12:53:37.000Z</time>
      </trkpt>
      <trkpt lat="49.84503" lon="4.84121">
        <ele>360</ele>
        <time>2021-03-30T12:53:38.000Z</time>
      </trkpt>
      <trkpt lat="49.84503" lon="4.84121">
        <ele>360</ele>
        <time>2021-03-30T12:53:39.000Z</time>
      </trkpt>
      <trkpt lat="49.84499" lon="4.84127">
        <ele>360</ele>
        <time>2021-03-30T12:53:40.000Z</time>
      </trkpt>
      <trkpt lat="49.84494" lon="4.84132">
        <ele>360</ele>
        <time>2021-03-30T12:53:41.000Z</time>
      </trkpt>
      <trkpt lat="49.84491" lon="4.84137">
        <ele>359</ele>
        <time>2021-03-30T12:53:42.000Z</time>
      </trkpt>
      <trkpt lat="49.84487" lon="4.84141">
        <ele>359</ele>
        <time>2021-03-30T12:53:43.000Z</time>
      </trkpt>
      <trkpt lat="49.84482" lon="4.84146">
        <ele>359</ele>
        <time>2021-03-30T12:53:44.000Z</time>
      </trkpt>
      <trkpt lat="49.84477" lon="4.84152">
        <ele>359</ele>
        <time>2021-03-30T12:53:45.000Z</time>
      </trkpt>
      <trkpt lat="49.84473" lon="4.84158">
        <ele>359</ele>
        <time>2021-03-30T12:53:46.000Z</time>
      </trkpt>
      <trkpt lat="49.84468" lon="4.84163">
        <ele>359</ele>
        <time>2021-03-30T12:53:47.000Z</time>
      </trkpt>
      <trkpt lat="49.84464" lon="4.84169">
        <ele>359</ele>
        <time>2021-03-30T12:53:48.000Z</time>
      </trkpt>
      <trkpt lat="49.84459" lon="4.84175">
        <ele>359</ele>
        <time>2021-03-30T12:53:49.000Z</time>
      </trkpt>
      <trkpt lat="49.84455" lon="4.8418">
        <ele>359</ele>
        <time>2021-03-30T12:53:50.000Z</time>
      </trkpt>
      <trkpt lat="49.8445" lon="4.84186">
        <ele>359</ele>
        <time>2021-03-30T12:53:51.000Z</time>
      </trkpt>
      <trkpt lat="49.84446" lon="4.84192">
        <ele>359</ele>
        <time>2021-03-30T12:53:52.000Z</time>
      </trkpt>
      <trkpt lat="49.84441" lon="4.84197">
        <ele>358</ele>
        <time>2021-03-30T12:53:53.000Z</time>
      </trkpt>
      <trkpt lat="49.84436" lon="4.84202">
        <ele>358</ele>
        <time>2021-03-30T12:53:54.000Z</time>
      </trkpt>
      <trkpt lat="49.84431" lon="4.84206">
        <ele>358</ele>
        <time>2021-03-30T12:53:55.000Z</time>
      </trkpt>
      <trkpt lat="49.84426" lon="4.84209">
        <ele>358</ele>
        <time>2021-03-30T12:53:56.000Z</time>
      </trkpt>
      <trkpt lat="49.8442" lon="4.84213">
        <ele>357</ele>
        <time>2021-03-30T12:53:57.000Z</time>
      </trkpt>
      <trkpt lat="49.84414" lon="4.84215">
        <ele>357</ele>
        <time>2021-03-30T12:53:58.000Z</time>
      </trkpt>
      <trkpt lat="49.84409" lon="4.84218">
        <ele>357</ele>
        <time>2021-03-30T12:53:59.000Z</time>
      </trkpt>
      <trkpt lat="49.84404" lon="4.84221">
        <ele>357</ele>
        <time>2021-03-30T12:54:00.000Z</time>
      </trkpt>
      <trkpt lat="49.844" lon="4.84225">
        <ele>357</ele>
        <time>2021-03-30T12:54:01.000Z</time>
      </trkpt>
      <trkpt lat="49.84395" lon="4.84228">
        <ele>357</ele>
        <time>2021-03-30T12:54:02.000Z</time>
      </trkpt>
      <trkpt lat="49.84389" lon="4.8423">
        <ele>357</ele>
        <time>2021-03-30T12:54:03.000Z</time>
      </trkpt>
      <trkpt lat="49.84384" lon="4.84231">
        <ele>356</ele>
        <time>2021-03-30T12:54:04.000Z</time>
      </trkpt>
      <trkpt lat="49.84379" lon="4.84232">
        <ele>356</ele>
        <time>2021-03-30T12:54:05.000Z</time>
      </trkpt>
      <trkpt lat="49.84374" lon="4.84234">
        <ele>356</ele>
        <time>2021-03-30T12:54:06.000Z</time>
      </trkpt>
      <trkpt lat="49.84369" lon="4.84234">
        <ele>356</ele>
        <time>2021-03-30T12:54:07.000Z</time>
      </trkpt>
      <trkpt lat="49.84363" lon="4.84235">
        <ele>356</ele>
        <time>2021-03-30T12:54:08.000Z</time>
      </trkpt>
      <trkpt lat="49.84358" lon="4.84236">
        <ele>356</ele>
        <time>2021-03-30T12:54:09.000Z</time>
      </trkpt>
      <trkpt lat="49.84353" lon="4.84237">
        <ele>355</ele>
        <time>2021-03-30T12:54:10.000Z</time>
      </trkpt>
      <trkpt lat="49.84347" lon="4.84238">
        <ele>355</ele>
        <time>2021-03-30T12:54:11.000Z</time>
      </trkpt>
      <trkpt lat="49.84342" lon="4.84239">
        <ele>355</ele>
        <time>2021-03-30T12:54:12.000Z</time>
      </trkpt>
      <trkpt lat="49.84336" lon="4.8424">
        <ele>355</ele>
        <time>2021-03-30T12:54:13.000Z</time>
      </trkpt>
      <trkpt lat="49.84331" lon="4.84242">
        <ele>355</ele>
        <time>2021-03-30T12:54:14.000Z</time>
      </trkpt>
      <trkpt lat="49.84326" lon="4.84244">
        <ele>355</ele>
        <time>2021-03-30T12:54:15.000Z</time>
      </trkpt>
      <trkpt lat="49.84321" lon="4.84246">
        <ele>355</ele>
        <time>2021-03-30T12:54:16.000Z</time>
      </trkpt>
      <trkpt lat="49.84317" lon="4.84248">
        <ele>355</ele>
        <time>2021-03-30T12:54:17.000Z</time>
      </trkpt>
      <trkpt lat="49.84313" lon="4.84251">
        <ele>355</ele>
        <time>2021-03-30T12:54:18.000Z</time>
      </trkpt>
      <trkpt lat="49.84309" lon="4.84254">
        <ele>355</ele>
        <time>2021-03-30T12:54:19.000Z</time>
      </trkpt>
      <trkpt lat="49.84304" lon="4.84256">
        <ele>354</ele>
        <time>2021-03-30T12:54:20.000Z</time>
      </trkpt>
      <trkpt lat="49.84295" lon="4.84261">
        <ele>354</ele>
        <time>2021-03-30T12:54:21.000Z</time>
      </trkpt>
      <trkpt lat="49.84295" lon="4.84261">
        <ele>354</ele>
        <time>2021-03-30T12:54:22.000Z</time>
      </trkpt>
      <trkpt lat="49.84291" lon="4.84263">
        <ele>354</ele>
        <time>2021-03-30T12:54:23.000Z</time>
      </trkpt>
      <trkpt lat="49.84286" lon="4.84265">
        <ele>354</ele>
        <time>2021-03-30T12:54:24.000Z</time>
      </trkpt>
      <trkpt lat="49.84282" lon="4.84268">
        <ele>354</ele>
        <time>2021-03-30T12:54:25.000Z</time>
      </trkpt>
      <trkpt lat="49.84278" lon="4.84271">
        <ele>354</ele>
        <time>2021-03-30T12:54:26.000Z</time>
      </trkpt>
      <trkpt lat="49.84274" lon="4.84274">
        <ele>354</ele>
        <time>2021-03-30T12:54:27.000Z</time>
      </trkpt>
      <trkpt lat="49.8427" lon="4.84279">
        <ele>354</ele>
        <time>2021-03-30T12:54:28.000Z</time>
      </trkpt>
      <trkpt lat="49.84266" lon="4.84286">
        <ele>354</ele>
        <time>2021-03-30T12:54:29.000Z</time>
      </trkpt>
      <trkpt lat="49.84262" lon="4.84292">
        <ele>354</ele>
        <time>2021-03-30T12:54:30.000Z</time>
      </trkpt>
      <trkpt lat="49.84257" lon="4.84298">
        <ele>354</ele>
        <time>2021-03-30T12:54:31.000Z</time>
      </trkpt>
      <trkpt lat="49.84252" lon="4.84302">
        <ele>354</ele>
        <time>2021-03-30T12:54:32.000Z</time>
      </trkpt>
      <trkpt lat="49.84247" lon="4.84305">
        <ele>354</ele>
        <time>2021-03-30T12:54:33.000Z</time>
      </trkpt>
      <trkpt lat="49.84241" lon="4.84305">
        <ele>354</ele>
        <time>2021-03-30T12:54:34.000Z</time>
      </trkpt>
      <trkpt lat="49.84235" lon="4.84305">
        <ele>354</ele>
        <time>2021-03-30T12:54:35.000Z</time>
      </trkpt>
      <trkpt lat="49.84228" lon="4.84305">
        <ele>354</ele>
        <time>2021-03-30T12:54:36.000Z</time>
      </trkpt>
      <trkpt lat="49.84222" lon="4.84305">
        <ele>354</ele>
        <time>2021-03-30T12:54:37.000Z</time>
      </trkpt>
      <trkpt lat="49.84215" lon="4.84306">
        <ele>354</ele>
        <time>2021-03-30T12:54:38.000Z</time>
      </trkpt>
      <trkpt lat="49.84208" lon="4.84305">
        <ele>354</ele>
        <time>2021-03-30T12:54:39.000Z</time>
      </trkpt>
      <trkpt lat="49.84202" lon="4.84304">
        <ele>354</ele>
        <time>2021-03-30T12:54:40.000Z</time>
      </trkpt>
      <trkpt lat="49.84196" lon="4.84303">
        <ele>354</ele>
        <time>2021-03-30T12:54:41.000Z</time>
      </trkpt>
      <trkpt lat="49.8419" lon="4.84303">
        <ele>354</ele>
        <time>2021-03-30T12:54:42.000Z</time>
      </trkpt>
      <trkpt lat="49.84184" lon="4.84302">
        <ele>354</ele>
        <time>2021-03-30T12:54:43.000Z</time>
      </trkpt>
      <trkpt lat="49.84177" lon="4.84302">
        <ele>354</ele>
        <time>2021-03-30T12:54:44.000Z</time>
      </trkpt>
      <trkpt lat="49.8417" lon="4.84302">
        <ele>353</ele>
        <time>2021-03-30T12:54:45.000Z</time>
      </trkpt>
      <trkpt lat="49.84163" lon="4.84302">
        <ele>353</ele>
        <time>2021-03-30T12:54:46.000Z</time>
      </trkpt>
      <trkpt lat="49.84157" lon="4.84301">
        <ele>353</ele>
        <time>2021-03-30T12:54:47.000Z</time>
      </trkpt>
      <trkpt lat="49.84151" lon="4.843">
        <ele>353</ele>
        <time>2021-03-30T12:54:48.000Z</time>
      </trkpt>
      <trkpt lat="49.84145" lon="4.84299">
        <ele>353</ele>
        <time>2021-03-30T12:54:49.000Z</time>
      </trkpt>
      <trkpt lat="49.8414" lon="4.84297">
        <ele>353</ele>
        <time>2021-03-30T12:54:50.000Z</time>
      </trkpt>
      <trkpt lat="49.84134" lon="4.84297">
        <ele>353</ele>
        <time>2021-03-30T12:54:51.000Z</time>
      </trkpt>
      <trkpt lat="49.84128" lon="4.84296">
        <ele>353</ele>
        <time>2021-03-30T12:54:52.000Z</time>
      </trkpt>
      <trkpt lat="49.84122" lon="4.84294">
        <ele>353</ele>
        <time>2021-03-30T12:54:53.000Z</time>
      </trkpt>
      <trkpt lat="49.84115" lon="4.84294">
        <ele>353</ele>
        <time>2021-03-30T12:54:54.000Z</time>
      </trkpt>
      <trkpt lat="49.84109" lon="4.84293">
        <ele>353</ele>
        <time>2021-03-30T12:54:55.000Z</time>
      </trkpt>
      <trkpt lat="49.84103" lon="4.84292">
        <ele>353</ele>
        <time>2021-03-30T12:54:56.000Z</time>
      </trkpt>
      <trkpt lat="49.84096" lon="4.84291">
        <ele>352</ele>
        <time>2021-03-30T12:54:57.000Z</time>
      </trkpt>
      <trkpt lat="49.8409" lon="4.84289">
        <ele>352</ele>
        <time>2021-03-30T12:54:58.000Z</time>
      </trkpt>
      <trkpt lat="49.84083" lon="4.84288">
        <ele>352</ele>
        <time>2021-03-30T12:54:59.000Z</time>
      </trkpt>
      <trkpt lat="49.84077" lon="4.84287">
        <ele>352</ele>
        <time>2021-03-30T12:55:00.000Z</time>
      </trkpt>
      <trkpt lat="49.8407" lon="4.84285">
        <ele>352</ele>
        <time>2021-03-30T12:55:01.000Z</time>
      </trkpt>
      <trkpt lat="49.84064" lon="4.84284">
        <ele>352</ele>
        <time>2021-03-30T12:55:02.000Z</time>
      </trkpt>
      <trkpt lat="49.84056" lon="4.84283">
        <ele>352</ele>
        <time>2021-03-30T12:55:03.000Z</time>
      </trkpt>
      <trkpt lat="49.8405" lon="4.84282">
        <ele>352</ele>
        <time>2021-03-30T12:55:04.000Z</time>
      </trkpt>
      <trkpt lat="49.84043" lon="4.84281">
        <ele>352</ele>
        <time>2021-03-30T12:55:05.000Z</time>
      </trkpt>
      <trkpt lat="49.84036" lon="4.84279">
        <ele>352</ele>
        <time>2021-03-30T12:55:06.000Z</time>
      </trkpt>
      <trkpt lat="49.84029" lon="4.84278">
        <ele>352</ele>
        <time>2021-03-30T12:55:07.000Z</time>
      </trkpt>
      <trkpt lat="49.84016" lon="4.84274">
        <ele>352</ele>
        <time>2021-03-30T12:55:08.000Z</time>
      </trkpt>
      <trkpt lat="49.84016" lon="4.84274">
        <ele>352</ele>
        <time>2021-03-30T12:55:09.000Z</time>
      </trkpt>
      <trkpt lat="49.8401" lon="4.84272">
        <ele>352</ele>
        <time>2021-03-30T12:55:10.000Z</time>
      </trkpt>
      <trkpt lat="49.84004" lon="4.8427">
        <ele>352</ele>
        <time>2021-03-30T12:55:11.000Z</time>
      </trkpt>
      <trkpt lat="49.83998" lon="4.84268">
        <ele>352</ele>
        <time>2021-03-30T12:55:12.000Z</time>
      </trkpt>
      <trkpt lat="49.83992" lon="4.84266">
        <ele>352</ele>
        <time>2021-03-30T12:55:13.000Z</time>
      </trkpt>
      <trkpt lat="49.83985" lon="4.84264">
        <ele>352</ele>
        <time>2021-03-30T12:55:14.000Z</time>
      </trkpt>
      <trkpt lat="49.83978" lon="4.84263">
        <ele>353</ele>
        <time>2021-03-30T12:55:15.000Z</time>
      </trkpt>
      <trkpt lat="49.83972" lon="4.84261">
        <ele>353</ele>
        <time>2021-03-30T12:55:16.000Z</time>
      </trkpt>
      <trkpt lat="49.83965" lon="4.8426">
        <ele>352</ele>
        <time>2021-03-30T12:55:17.000Z</time>
      </trkpt>
      <trkpt lat="49.83959" lon="4.84258">
        <ele>352</ele>
        <time>2021-03-30T12:55:18.000Z</time>
      </trkpt>
      <trkpt lat="49.83952" lon="4.84257">
        <ele>352</ele>
        <time>2021-03-30T12:55:19.000Z</time>
      </trkpt>
      <trkpt lat="49.83945" lon="4.84256">
        <ele>352</ele>
        <time>2021-03-30T12:55:20.000Z</time>
      </trkpt>
      <trkpt lat="49.83938" lon="4.84255">
        <ele>352</ele>
        <time>2021-03-30T12:55:21.000Z</time>
      </trkpt>
      <trkpt lat="49.83932" lon="4.84253">
        <ele>351</ele>
        <time>2021-03-30T12:55:22.000Z</time>
      </trkpt>
      <trkpt lat="49.83925" lon="4.84251">
        <ele>351</ele>
        <time>2021-03-30T12:55:23.000Z</time>
      </trkpt>
      <trkpt lat="49.83918" lon="4.84249">
        <ele>351</ele>
        <time>2021-03-30T12:55:24.000Z</time>
      </trkpt>
      <trkpt lat="49.83911" lon="4.84247">
        <ele>350</ele>
        <time>2021-03-30T12:55:25.000Z</time>
      </trkpt>
      <trkpt lat="49.83904" lon="4.84246">
        <ele>350</ele>
        <time>2021-03-30T12:55:26.000Z</time>
      </trkpt>
      <trkpt lat="49.83897" lon="4.84245">
        <ele>349</ele>
        <time>2021-03-30T12:55:27.000Z</time>
      </trkpt>
      <trkpt lat="49.8389" lon="4.84243">
        <ele>349</ele>
        <time>2021-03-30T12:55:28.000Z</time>
      </trkpt>
      <trkpt lat="49.83883" lon="4.84242">
        <ele>349</ele>
        <time>2021-03-30T12:55:29.000Z</time>
      </trkpt>
      <trkpt lat="49.83876" lon="4.84241">
        <ele>348</ele>
        <time>2021-03-30T12:55:30.000Z</time>
      </trkpt>
      <trkpt lat="49.83869" lon="4.84239">
        <ele>348</ele>
        <time>2021-03-30T12:55:31.000Z</time>
      </trkpt>
      <trkpt lat="49.83863" lon="4.84238">
        <ele>348</ele>
        <time>2021-03-30T12:55:32.000Z</time>
      </trkpt>
      <trkpt lat="49.83857" lon="4.84236">
        <ele>347</ele>
        <time>2021-03-30T12:55:33.000Z</time>
      </trkpt>
      <trkpt lat="49.83851" lon="4.84234">
        <ele>347</ele>
        <time>2021-03-30T12:55:34.000Z</time>
      </trkpt>
      <trkpt lat="49.83845" lon="4.84233">
        <ele>347</ele>
        <time>2021-03-30T12:55:35.000Z</time>
      </trkpt>
      <trkpt lat="49.83839" lon="4.84232">
        <ele>347</ele>
        <time>2021-03-30T12:55:36.000Z</time>
      </trkpt>
      <trkpt lat="49.83834" lon="4.8423">
        <ele>347</ele>
        <time>2021-03-30T12:55:37.000Z</time>
      </trkpt>
      <trkpt lat="49.83829" lon="4.84228">
        <ele>347</ele>
        <time>2021-03-30T12:55:38.000Z</time>
      </trkpt>
      <trkpt lat="49.83824" lon="4.84226">
        <ele>347</ele>
        <time>2021-03-30T12:55:39.000Z</time>
      </trkpt>
      <trkpt lat="49.8382" lon="4.84224">
        <ele>347</ele>
        <time>2021-03-30T12:55:40.000Z</time>
      </trkpt>
      <trkpt lat="49.83815" lon="4.84223">
        <ele>347</ele>
        <time>2021-03-30T12:55:41.000Z</time>
      </trkpt>
      <trkpt lat="49.83811" lon="4.84222">
        <ele>347</ele>
        <time>2021-03-30T12:55:42.000Z</time>
      </trkpt>
      <trkpt lat="49.83806" lon="4.84221">
        <ele>347</ele>
        <time>2021-03-30T12:55:43.000Z</time>
      </trkpt>
      <trkpt lat="49.838" lon="4.84221">
        <ele>347</ele>
        <time>2021-03-30T12:55:44.000Z</time>
      </trkpt>
      <trkpt lat="49.83796" lon="4.8422">
        <ele>348</ele>
        <time>2021-03-30T12:55:45.000Z</time>
      </trkpt>
      <trkpt lat="49.83791" lon="4.8422">
        <ele>348</ele>
        <time>2021-03-30T12:55:46.000Z</time>
      </trkpt>
      <trkpt lat="49.83786" lon="4.84219">
        <ele>348</ele>
        <time>2021-03-30T12:55:47.000Z</time>
      </trkpt>
      <trkpt lat="49.83781" lon="4.84219">
        <ele>348</ele>
        <time>2021-03-30T12:55:48.000Z</time>
      </trkpt>
      <trkpt lat="49.83776" lon="4.84218">
        <ele>348</ele>
        <time>2021-03-30T12:55:49.000Z</time>
      </trkpt>
      <trkpt lat="49.83772" lon="4.84217">
        <ele>348</ele>
        <time>2021-03-30T12:55:50.000Z</time>
      </trkpt>
      <trkpt lat="49.83767" lon="4.84216">
        <ele>348</ele>
        <time>2021-03-30T12:55:51.000Z</time>
      </trkpt>
      <trkpt lat="49.83763" lon="4.84216">
        <ele>348</ele>
        <time>2021-03-30T12:55:52.000Z</time>
      </trkpt>
      <trkpt lat="49.83759" lon="4.84216">
        <ele>348</ele>
        <time>2021-03-30T12:55:53.000Z</time>
      </trkpt>
      <trkpt lat="49.83755" lon="4.84215">
        <ele>348</ele>
        <time>2021-03-30T12:55:54.000Z</time>
      </trkpt>
      <trkpt lat="49.83751" lon="4.84214">
        <ele>349</ele>
        <time>2021-03-30T12:55:55.000Z</time>
      </trkpt>
      <trkpt lat="49.83747" lon="4.84213">
        <ele>349</ele>
        <time>2021-03-30T12:55:56.000Z</time>
      </trkpt>
      <trkpt lat="49.83743" lon="4.84213">
        <ele>349</ele>
        <time>2021-03-30T12:55:57.000Z</time>
      </trkpt>
      <trkpt lat="49.83739" lon="4.84211">
        <ele>349</ele>
        <time>2021-03-30T12:55:58.000Z</time>
      </trkpt>
      <trkpt lat="49.83736" lon="4.8421">
        <ele>349</ele>
        <time>2021-03-30T12:55:59.000Z</time>
      </trkpt>
      <trkpt lat="49.83731" lon="4.84209">
        <ele>350</ele>
        <time>2021-03-30T12:56:00.000Z</time>
      </trkpt>
      <trkpt lat="49.83727" lon="4.84208">
        <ele>350</ele>
        <time>2021-03-30T12:56:01.000Z</time>
      </trkpt>
      <trkpt lat="49.83723" lon="4.84207">
        <ele>350</ele>
        <time>2021-03-30T12:56:02.000Z</time>
      </trkpt>
      <trkpt lat="49.83718" lon="4.84206">
        <ele>350</ele>
        <time>2021-03-30T12:56:03.000Z</time>
      </trkpt>
      <trkpt lat="49.83714" lon="4.84205">
        <ele>350</ele>
        <time>2021-03-30T12:56:04.000Z</time>
      </trkpt>
      <trkpt lat="49.83709" lon="4.84203">
        <ele>350</ele>
        <time>2021-03-30T12:56:05.000Z</time>
      </trkpt>
      <trkpt lat="49.83705" lon="4.84202">
        <ele>351</ele>
        <time>2021-03-30T12:56:06.000Z</time>
      </trkpt>
      <trkpt lat="49.83701" lon="4.84201">
        <ele>351</ele>
        <time>2021-03-30T12:56:07.000Z</time>
      </trkpt>
      <trkpt lat="49.83697" lon="4.842">
        <ele>351</ele>
        <time>2021-03-30T12:56:08.000Z</time>
      </trkpt>
      <trkpt lat="49.83693" lon="4.84199">
        <ele>351</ele>
        <time>2021-03-30T12:56:09.000Z</time>
      </trkpt>
      <trkpt lat="49.83689" lon="4.84198">
        <ele>352</ele>
        <time>2021-03-30T12:56:10.000Z</time>
      </trkpt>
      <trkpt lat="49.83685" lon="4.84197">
        <ele>352</ele>
        <time>2021-03-30T12:56:11.000Z</time>
      </trkpt>
      <trkpt lat="49.83682" lon="4.84196">
        <ele>352</ele>
        <time>2021-03-30T12:56:12.000Z</time>
      </trkpt>
      <trkpt lat="49.83678" lon="4.84196">
        <ele>352</ele>
        <time>2021-03-30T12:56:13.000Z</time>
      </trkpt>
      <trkpt lat="49.83675" lon="4.84195">
        <ele>352</ele>
        <time>2021-03-30T12:56:14.000Z</time>
      </trkpt>
      <trkpt lat="49.83671" lon="4.84195">
        <ele>352</ele>
        <time>2021-03-30T12:56:15.000Z</time>
      </trkpt>
      <trkpt lat="49.83667" lon="4.84196">
        <ele>352</ele>
        <time>2021-03-30T12:56:16.000Z</time>
      </trkpt>
      <trkpt lat="49.83664" lon="4.84198">
        <ele>352</ele>
        <time>2021-03-30T12:56:17.000Z</time>
      </trkpt>
      <trkpt lat="49.83661" lon="4.842">
        <ele>352</ele>
        <time>2021-03-30T12:56:18.000Z</time>
      </trkpt>
      <trkpt lat="49.83658" lon="4.84203">
        <ele>352</ele>
        <time>2021-03-30T12:56:19.000Z</time>
      </trkpt>
      <trkpt lat="49.83655" lon="4.84206">
        <ele>352</ele>
        <time>2021-03-30T12:56:20.000Z</time>
      </trkpt>
      <trkpt lat="49.8365" lon="4.84211">
        <ele>352</ele>
        <time>2021-03-30T12:56:21.000Z</time>
      </trkpt>
      <trkpt lat="49.83647" lon="4.84217">
        <ele>352</ele>
        <time>2021-03-30T12:56:22.000Z</time>
      </trkpt>
      <trkpt lat="49.83644" lon="4.84224">
        <ele>352</ele>
        <time>2021-03-30T12:56:23.000Z</time>
      </trkpt>
      <trkpt lat="49.83641" lon="4.84233">
        <ele>352</ele>
        <time>2021-03-30T12:56:24.000Z</time>
      </trkpt>
      <trkpt lat="49.83637" lon="4.84242">
        <ele>352</ele>
        <time>2021-03-30T12:56:25.000Z</time>
      </trkpt>
      <trkpt lat="49.83634" lon="4.84253">
        <ele>352</ele>
        <time>2021-03-30T12:56:26.000Z</time>
      </trkpt>
      <trkpt lat="49.8363" lon="4.84264">
        <ele>352</ele>
        <time>2021-03-30T12:56:27.000Z</time>
      </trkpt>
      <trkpt lat="49.83626" lon="4.84276">
        <ele>352</ele>
        <time>2021-03-30T12:56:28.000Z</time>
      </trkpt>
      <trkpt lat="49.83621" lon="4.84287">
        <ele>352</ele>
        <time>2021-03-30T12:56:29.000Z</time>
      </trkpt>
      <trkpt lat="49.83617" lon="4.84299">
        <ele>352</ele>
        <time>2021-03-30T12:56:30.000Z</time>
      </trkpt>
      <trkpt lat="49.83613" lon="4.84311">
        <ele>351</ele>
        <time>2021-03-30T12:56:31.000Z</time>
      </trkpt>
      <trkpt lat="49.8361" lon="4.84323">
        <ele>351</ele>
        <time>2021-03-30T12:56:32.000Z</time>
      </trkpt>
      <trkpt lat="49.83606" lon="4.84335">
        <ele>351</ele>
        <time>2021-03-30T12:56:33.000Z</time>
      </trkpt>
      <trkpt lat="49.83602" lon="4.84348">
        <ele>351</ele>
        <time>2021-03-30T12:56:34.000Z</time>
      </trkpt>
      <trkpt lat="49.83599" lon="4.8436">
        <ele>350</ele>
        <time>2021-03-30T12:56:35.000Z</time>
      </trkpt>
      <trkpt lat="49.83597" lon="4.84373">
        <ele>350</ele>
        <time>2021-03-30T12:56:36.000Z</time>
      </trkpt>
      <trkpt lat="49.83594" lon="4.84385">
        <ele>350</ele>
        <time>2021-03-30T12:56:37.000Z</time>
      </trkpt>
      <trkpt lat="49.83591" lon="4.84398">
        <ele>349</ele>
        <time>2021-03-30T12:56:38.000Z</time>
      </trkpt>
      <trkpt lat="49.83588" lon="4.8441">
        <ele>349</ele>
        <time>2021-03-30T12:56:39.000Z</time>
      </trkpt>
      <trkpt lat="49.83585" lon="4.84422">
        <ele>349</ele>
        <time>2021-03-30T12:56:40.000Z</time>
      </trkpt>
      <trkpt lat="49.83583" lon="4.84434">
        <ele>348</ele>
        <time>2021-03-30T12:56:41.000Z</time>
      </trkpt>
      <trkpt lat="49.8358" lon="4.84445">
        <ele>348</ele>
        <time>2021-03-30T12:56:42.000Z</time>
      </trkpt>
      <trkpt lat="49.83578" lon="4.84456">
        <ele>347</ele>
        <time>2021-03-30T12:56:43.000Z</time>
      </trkpt>
      <trkpt lat="49.83575" lon="4.84467">
        <ele>347</ele>
        <time>2021-03-30T12:56:44.000Z</time>
      </trkpt>
      <trkpt lat="49.83573" lon="4.84477">
        <ele>347</ele>
        <time>2021-03-30T12:56:45.000Z</time>
      </trkpt>
      <trkpt lat="49.83571" lon="4.84488">
        <ele>346</ele>
        <time>2021-03-30T12:56:46.000Z</time>
      </trkpt>
      <trkpt lat="49.8357" lon="4.84498">
        <ele>346</ele>
        <time>2021-03-30T12:56:47.000Z</time>
      </trkpt>
      <trkpt lat="49.83568" lon="4.84509">
        <ele>346</ele>
        <time>2021-03-30T12:56:48.000Z</time>
      </trkpt>
      <trkpt lat="49.83566" lon="4.84519">
        <ele>346</ele>
        <time>2021-03-30T12:56:49.000Z</time>
      </trkpt>
      <trkpt lat="49.83564" lon="4.84528">
        <ele>345</ele>
        <time>2021-03-30T12:56:50.000Z</time>
      </trkpt>
      <trkpt lat="49.83562" lon="4.84538">
        <ele>345</ele>
        <time>2021-03-30T12:56:51.000Z</time>
      </trkpt>
      <trkpt lat="49.8356" lon="4.84548">
        <ele>345</ele>
        <time>2021-03-30T12:56:52.000Z</time>
      </trkpt>
      <trkpt lat="49.83558" lon="4.84558">
        <ele>345</ele>
        <time>2021-03-30T12:56:53.000Z</time>
      </trkpt>
      <trkpt lat="49.83556" lon="4.84568">
        <ele>344</ele>
        <time>2021-03-30T12:56:54.000Z</time>
      </trkpt>
      <trkpt lat="49.83554" lon="4.84577">
        <ele>344</ele>
        <time>2021-03-30T12:56:55.000Z</time>
      </trkpt>
      <trkpt lat="49.83552" lon="4.84587">
        <ele>344</ele>
        <time>2021-03-30T12:56:56.000Z</time>
      </trkpt>
      <trkpt lat="49.8355" lon="4.84596">
        <ele>344</ele>
        <time>2021-03-30T12:56:57.000Z</time>
      </trkpt>
      <trkpt lat="49.83548" lon="4.84605">
        <ele>344</ele>
        <time>2021-03-30T12:56:58.000Z</time>
      </trkpt>
      <trkpt lat="49.83546" lon="4.84614">
        <ele>344</ele>
        <time>2021-03-30T12:56:59.000Z</time>
      </trkpt>
      <trkpt lat="49.83544" lon="4.84624">
        <ele>343</ele>
        <time>2021-03-30T12:57:00.000Z</time>
      </trkpt>
      <trkpt lat="49.83542" lon="4.84632">
        <ele>343</ele>
        <time>2021-03-30T12:57:01.000Z</time>
      </trkpt>
      <trkpt lat="49.8354" lon="4.8464">
        <ele>343</ele>
        <time>2021-03-30T12:57:02.000Z</time>
      </trkpt>
      <trkpt lat="49.83538" lon="4.84648">
        <ele>343</ele>
        <time>2021-03-30T12:57:03.000Z</time>
      </trkpt>
      <trkpt lat="49.83537" lon="4.84656">
        <ele>343</ele>
        <time>2021-03-30T12:57:04.000Z</time>
      </trkpt>
      <trkpt lat="49.83535" lon="4.84664">
        <ele>343</ele>
        <time>2021-03-30T12:57:05.000Z</time>
      </trkpt>
      <trkpt lat="49.83534" lon="4.84672">
        <ele>343</ele>
        <time>2021-03-30T12:57:06.000Z</time>
      </trkpt>
      <trkpt lat="49.83533" lon="4.84681">
        <ele>343</ele>
        <time>2021-03-30T12:57:07.000Z</time>
      </trkpt>
      <trkpt lat="49.83531" lon="4.84688">
        <ele>343</ele>
        <time>2021-03-30T12:57:08.000Z</time>
      </trkpt>
      <trkpt lat="49.8353" lon="4.84696">
        <ele>343</ele>
        <time>2021-03-30T12:57:09.000Z</time>
      </trkpt>
      <trkpt lat="49.83528" lon="4.84704">
        <ele>343</ele>
        <time>2021-03-30T12:57:10.000Z</time>
      </trkpt>
      <trkpt lat="49.83527" lon="4.84712">
        <ele>343</ele>
        <time>2021-03-30T12:57:11.000Z</time>
      </trkpt>
      <trkpt lat="49.83525" lon="4.8472">
        <ele>343</ele>
        <time>2021-03-30T12:57:12.000Z</time>
      </trkpt>
      <trkpt lat="49.83524" lon="4.84727">
        <ele>343</ele>
        <time>2021-03-30T12:57:13.000Z</time>
      </trkpt>
      <trkpt lat="49.83523" lon="4.84736">
        <ele>343</ele>
        <time>2021-03-30T12:57:14.000Z</time>
      </trkpt>
      <trkpt lat="49.83522" lon="4.84744">
        <ele>343</ele>
        <time>2021-03-30T12:57:15.000Z</time>
      </trkpt>
      <trkpt lat="49.83521" lon="4.84752">
        <ele>343</ele>
        <time>2021-03-30T12:57:16.000Z</time>
      </trkpt>
      <trkpt lat="49.83519" lon="4.8476">
        <ele>343</ele>
        <time>2021-03-30T12:57:17.000Z</time>
      </trkpt>
      <trkpt lat="49.83518" lon="4.84768">
        <ele>343</ele>
        <time>2021-03-30T12:57:18.000Z</time>
      </trkpt>
      <trkpt lat="49.83517" lon="4.84776">
        <ele>343</ele>
        <time>2021-03-30T12:57:19.000Z</time>
      </trkpt>
      <trkpt lat="49.83515" lon="4.84784">
        <ele>343</ele>
        <time>2021-03-30T12:57:20.000Z</time>
      </trkpt>
      <trkpt lat="49.83514" lon="4.84792">
        <ele>343</ele>
        <time>2021-03-30T12:57:21.000Z</time>
      </trkpt>
      <trkpt lat="49.83513" lon="4.84799">
        <ele>343</ele>
        <time>2021-03-30T12:57:22.000Z</time>
      </trkpt>
      <trkpt lat="49.83512" lon="4.84807">
        <ele>343</ele>
        <time>2021-03-30T12:57:23.000Z</time>
      </trkpt>
      <trkpt lat="49.83511" lon="4.84815">
        <ele>343</ele>
        <time>2021-03-30T12:57:24.000Z</time>
      </trkpt>
      <trkpt lat="49.8351" lon="4.84822">
        <ele>343</ele>
        <time>2021-03-30T12:57:25.000Z</time>
      </trkpt>
      <trkpt lat="49.83509" lon="4.8483">
        <ele>343</ele>
        <time>2021-03-30T12:57:26.000Z</time>
      </trkpt>
      <trkpt lat="49.83507" lon="4.84837">
        <ele>343</ele>
        <time>2021-03-30T12:57:27.000Z</time>
      </trkpt>
      <trkpt lat="49.83506" lon="4.84845">
        <ele>344</ele>
        <time>2021-03-30T12:57:28.000Z</time>
      </trkpt>
      <trkpt lat="49.83504" lon="4.84852">
        <ele>344</ele>
        <time>2021-03-30T12:57:29.000Z</time>
      </trkpt>
      <trkpt lat="49.83503" lon="4.8486">
        <ele>344</ele>
        <time>2021-03-30T12:57:30.000Z</time>
      </trkpt>
      <trkpt lat="49.83501" lon="4.84867">
        <ele>344</ele>
        <time>2021-03-30T12:57:31.000Z</time>
      </trkpt>
      <trkpt lat="49.83499" lon="4.84873">
        <ele>344</ele>
        <time>2021-03-30T12:57:32.000Z</time>
      </trkpt>
      <trkpt lat="49.83497" lon="4.8488">
        <ele>344</ele>
        <time>2021-03-30T12:57:33.000Z</time>
      </trkpt>
      <trkpt lat="49.83495" lon="4.84885">
        <ele>344</ele>
        <time>2021-03-30T12:57:34.000Z</time>
      </trkpt>
      <trkpt lat="49.83492" lon="4.8489">
        <ele>344</ele>
        <time>2021-03-30T12:57:35.000Z</time>
      </trkpt>
      <trkpt lat="49.83489" lon="4.84895">
        <ele>344</ele>
        <time>2021-03-30T12:57:36.000Z</time>
      </trkpt>
      <trkpt lat="49.83486" lon="4.84899">
        <ele>344</ele>
        <time>2021-03-30T12:57:37.000Z</time>
      </trkpt>
      <trkpt lat="49.83484" lon="4.84904">
        <ele>344</ele>
        <time>2021-03-30T12:57:38.000Z</time>
      </trkpt>
      <trkpt lat="49.83481" lon="4.84908">
        <ele>344</ele>
        <time>2021-03-30T12:57:39.000Z</time>
      </trkpt>
      <trkpt lat="49.83478" lon="4.84911">
        <ele>344</ele>
        <time>2021-03-30T12:57:40.000Z</time>
      </trkpt>
      <trkpt lat="49.83475" lon="4.84915">
        <ele>345</ele>
        <time>2021-03-30T12:57:41.000Z</time>
      </trkpt>
      <trkpt lat="49.83472" lon="4.84919">
        <ele>345</ele>
        <time>2021-03-30T12:57:42.000Z</time>
      </trkpt>
      <trkpt lat="49.83469" lon="4.84921">
        <ele>345</ele>
        <time>2021-03-30T12:57:43.000Z</time>
      </trkpt>
      <trkpt lat="49.83466" lon="4.84924">
        <ele>345</ele>
        <time>2021-03-30T12:57:44.000Z</time>
      </trkpt>
      <trkpt lat="49.83463" lon="4.84927">
        <ele>345</ele>
        <time>2021-03-30T12:57:45.000Z</time>
      </trkpt>
      <trkpt lat="49.8346" lon="4.8493">
        <ele>345</ele>
        <time>2021-03-30T12:57:46.000Z</time>
      </trkpt>
      <trkpt lat="49.83457" lon="4.84933">
        <ele>345</ele>
        <time>2021-03-30T12:57:47.000Z</time>
      </trkpt>
      <trkpt lat="49.83454" lon="4.84936">
        <ele>345</ele>
        <time>2021-03-30T12:57:48.000Z</time>
      </trkpt>
      <trkpt lat="49.83451" lon="4.84939">
        <ele>345</ele>
        <time>2021-03-30T12:57:49.000Z</time>
      </trkpt>
      <trkpt lat="49.83448" lon="4.84943">
        <ele>345</ele>
        <time>2021-03-30T12:57:50.000Z</time>
      </trkpt>
      <trkpt lat="49.83444" lon="4.84946">
        <ele>345</ele>
        <time>2021-03-30T12:57:51.000Z</time>
      </trkpt>
      <trkpt lat="49.83441" lon="4.84949">
        <ele>345</ele>
        <time>2021-03-30T12:57:52.000Z</time>
      </trkpt>
      <trkpt lat="49.83438" lon="4.84952">
        <ele>345</ele>
        <time>2021-03-30T12:57:53.000Z</time>
      </trkpt>
      <trkpt lat="49.83435" lon="4.84955">
        <ele>345</ele>
        <time>2021-03-30T12:57:54.000Z</time>
      </trkpt>
      <trkpt lat="49.83431" lon="4.84958">
        <ele>345</ele>
        <time>2021-03-30T12:57:55.000Z</time>
      </trkpt>
      <trkpt lat="49.83428" lon="4.84961">
        <ele>345</ele>
        <time>2021-03-30T12:57:56.000Z</time>
      </trkpt>
      <trkpt lat="49.83424" lon="4.84964">
        <ele>345</ele>
        <time>2021-03-30T12:57:57.000Z</time>
      </trkpt>
      <trkpt lat="49.83421" lon="4.84967">
        <ele>345</ele>
        <time>2021-03-30T12:57:58.000Z</time>
      </trkpt>
      <trkpt lat="49.83418" lon="4.8497">
        <ele>345</ele>
        <time>2021-03-30T12:57:59.000Z</time>
      </trkpt>
      <trkpt lat="49.83415" lon="4.84972">
        <ele>345</ele>
        <time>2021-03-30T12:58:00.000Z</time>
      </trkpt>
      <trkpt lat="49.83412" lon="4.84975">
        <ele>345</ele>
        <time>2021-03-30T12:58:01.000Z</time>
      </trkpt>
      <trkpt lat="49.83408" lon="4.84978">
        <ele>345</ele>
        <time>2021-03-30T12:58:02.000Z</time>
      </trkpt>
      <trkpt lat="49.83405" lon="4.84981">
        <ele>345</ele>
        <time>2021-03-30T12:58:03.000Z</time>
      </trkpt>
      <trkpt lat="49.83402" lon="4.84984">
        <ele>345</ele>
        <time>2021-03-30T12:58:04.000Z</time>
      </trkpt>
      <trkpt lat="49.83399" lon="4.84988">
        <ele>345</ele>
        <time>2021-03-30T12:58:05.000Z</time>
      </trkpt>
      <trkpt lat="49.83396" lon="4.84991">
        <ele>345</ele>
        <time>2021-03-30T12:58:06.000Z</time>
      </trkpt>
      <trkpt lat="49.83393" lon="4.84994">
        <ele>345</ele>
        <time>2021-03-30T12:58:07.000Z</time>
      </trkpt>
      <trkpt lat="49.83389" lon="4.84997">
        <ele>346</ele>
        <time>2021-03-30T12:58:08.000Z</time>
      </trkpt>
      <trkpt lat="49.83386" lon="4.85">
        <ele>346</ele>
        <time>2021-03-30T12:58:09.000Z</time>
      </trkpt>
      <trkpt lat="49.83382" lon="4.85004">
        <ele>346</ele>
        <time>2021-03-30T12:58:10.000Z</time>
      </trkpt>
      <trkpt lat="49.83379" lon="4.85007">
        <ele>346</ele>
        <time>2021-03-30T12:58:11.000Z</time>
      </trkpt>
      <trkpt lat="49.83376" lon="4.8501">
        <ele>346</ele>
        <time>2021-03-30T12:58:12.000Z</time>
      </trkpt>
      <trkpt lat="49.83372" lon="4.85013">
        <ele>347</ele>
        <time>2021-03-30T12:58:13.000Z</time>
      </trkpt>
      <trkpt lat="49.83369" lon="4.85016">
        <ele>347</ele>
        <time>2021-03-30T12:58:14.000Z</time>
      </trkpt>
      <trkpt lat="49.83365" lon="4.85018">
        <ele>347</ele>
        <time>2021-03-30T12:58:15.000Z</time>
      </trkpt>
      <trkpt lat="49.83362" lon="4.85021">
        <ele>347</ele>
        <time>2021-03-30T12:58:16.000Z</time>
      </trkpt>
      <trkpt lat="49.8336" lon="4.85024">
        <ele>347</ele>
        <time>2021-03-30T12:58:17.000Z</time>
      </trkpt>
      <trkpt lat="49.83357" lon="4.85026">
        <ele>347</ele>
        <time>2021-03-30T12:58:18.000Z</time>
      </trkpt>
      <trkpt lat="49.83355" lon="4.85027">
        <ele>347</ele>
        <time>2021-03-30T12:58:19.000Z</time>
      </trkpt>
      <trkpt lat="49.83352" lon="4.85029">
        <ele>348</ele>
        <time>2021-03-30T12:58:20.000Z</time>
      </trkpt>
      <trkpt lat="49.83349" lon="4.8503">
        <ele>348</ele>
        <time>2021-03-30T12:58:21.000Z</time>
      </trkpt>
      <trkpt lat="49.83346" lon="4.85032">
        <ele>348</ele>
        <time>2021-03-30T12:58:22.000Z</time>
      </trkpt>
      <trkpt lat="49.83343" lon="4.85034">
        <ele>348</ele>
        <time>2021-03-30T12:58:23.000Z</time>
      </trkpt>
      <trkpt lat="49.8334" lon="4.85036">
        <ele>348</ele>
        <time>2021-03-30T12:58:24.000Z</time>
      </trkpt>
      <trkpt lat="49.83337" lon="4.85037">
        <ele>349</ele>
        <time>2021-03-30T12:58:25.000Z</time>
      </trkpt>
      <trkpt lat="49.83334" lon="4.85039">
        <ele>349</ele>
        <time>2021-03-30T12:58:26.000Z</time>
      </trkpt>
      <trkpt lat="49.83331" lon="4.8504">
        <ele>349</ele>
        <time>2021-03-30T12:58:27.000Z</time>
      </trkpt>
      <trkpt lat="49.83328" lon="4.85041">
        <ele>350</ele>
        <time>2021-03-30T12:58:28.000Z</time>
      </trkpt>
      <trkpt lat="49.83326" lon="4.85042">
        <ele>350</ele>
        <time>2021-03-30T12:58:29.000Z</time>
      </trkpt>
      <trkpt lat="49.83323" lon="4.85043">
        <ele>350</ele>
        <time>2021-03-30T12:58:30.000Z</time>
      </trkpt>
      <trkpt lat="49.8332" lon="4.85043">
        <ele>351</ele>
        <time>2021-03-30T12:58:31.000Z</time>
      </trkpt>
      <trkpt lat="49.83317" lon="4.85044">
        <ele>351</ele>
        <time>2021-03-30T12:58:32.000Z</time>
      </trkpt>
      <trkpt lat="49.83313" lon="4.85045">
        <ele>351</ele>
        <time>2021-03-30T12:58:33.000Z</time>
      </trkpt>
      <trkpt lat="49.8331" lon="4.85045">
        <ele>351</ele>
        <time>2021-03-30T12:58:34.000Z</time>
      </trkpt>
      <trkpt lat="49.83307" lon="4.85046">
        <ele>352</ele>
        <time>2021-03-30T12:58:35.000Z</time>
      </trkpt>
      <trkpt lat="49.83304" lon="4.85047">
        <ele>352</ele>
        <time>2021-03-30T12:58:36.000Z</time>
      </trkpt>
      <trkpt lat="49.833" lon="4.85048">
        <ele>352</ele>
        <time>2021-03-30T12:58:37.000Z</time>
      </trkpt>
      <trkpt lat="49.83297" lon="4.85049">
        <ele>353</ele>
        <time>2021-03-30T12:58:38.000Z</time>
      </trkpt>
      <trkpt lat="49.83293" lon="4.85051">
        <ele>353</ele>
        <time>2021-03-30T12:58:39.000Z</time>
      </trkpt>
      <trkpt lat="49.8329" lon="4.85051">
        <ele>353</ele>
        <time>2021-03-30T12:58:40.000Z</time>
      </trkpt>
      <trkpt lat="49.83287" lon="4.85053">
        <ele>354</ele>
        <time>2021-03-30T12:58:41.000Z</time>
      </trkpt>
      <trkpt lat="49.83284" lon="4.85054">
        <ele>354</ele>
        <time>2021-03-30T12:58:42.000Z</time>
      </trkpt>
      <trkpt lat="49.8328" lon="4.85055">
        <ele>355</ele>
        <time>2021-03-30T12:58:43.000Z</time>
      </trkpt>
      <trkpt lat="49.83277" lon="4.85056">
        <ele>355</ele>
        <time>2021-03-30T12:58:44.000Z</time>
      </trkpt>
      <trkpt lat="49.83274" lon="4.85057">
        <ele>356</ele>
        <time>2021-03-30T12:58:45.000Z</time>
      </trkpt>
      <trkpt lat="49.83271" lon="4.85056">
        <ele>356</ele>
        <time>2021-03-30T12:58:46.000Z</time>
      </trkpt>
      <trkpt lat="49.83268" lon="4.85053">
        <ele>356</ele>
        <time>2021-03-30T12:58:47.000Z</time>
      </trkpt>
      <trkpt lat="49.83265" lon="4.85051">
        <ele>357</ele>
        <time>2021-03-30T12:58:48.000Z</time>
      </trkpt>
      <trkpt lat="49.83262" lon="4.85049">
        <ele>357</ele>
        <time>2021-03-30T12:58:49.000Z</time>
      </trkpt>
      <trkpt lat="49.83259" lon="4.85046">
        <ele>357</ele>
        <time>2021-03-30T12:58:50.000Z</time>
      </trkpt>
      <trkpt lat="49.83256" lon="4.85043">
        <ele>358</ele>
        <time>2021-03-30T12:58:51.000Z</time>
      </trkpt>
      <trkpt lat="49.83253" lon="4.8504">
        <ele>358</ele>
        <time>2021-03-30T12:58:52.000Z</time>
      </trkpt>
      <trkpt lat="49.8325" lon="4.85037">
        <ele>358</ele>
        <time>2021-03-30T12:58:53.000Z</time>
      </trkpt>
      <trkpt lat="49.83247" lon="4.85033">
        <ele>358</ele>
        <time>2021-03-30T12:58:54.000Z</time>
      </trkpt>
      <trkpt lat="49.83243" lon="4.8503">
        <ele>358</ele>
        <time>2021-03-30T12:58:55.000Z</time>
      </trkpt>
      <trkpt lat="49.83239" lon="4.85027">
        <ele>358</ele>
        <time>2021-03-30T12:58:56.000Z</time>
      </trkpt>
      <trkpt lat="49.83235" lon="4.85024">
        <ele>358</ele>
        <time>2021-03-30T12:58:57.000Z</time>
      </trkpt>
      <trkpt lat="49.83232" lon="4.85021">
        <ele>358</ele>
        <time>2021-03-30T12:58:58.000Z</time>
      </trkpt>
      <trkpt lat="49.83229" lon="4.85019">
        <ele>358</ele>
        <time>2021-03-30T12:58:59.000Z</time>
      </trkpt>
      <trkpt lat="49.83226" lon="4.85016">
        <ele>358</ele>
        <time>2021-03-30T12:59:00.000Z</time>
      </trkpt>
      <trkpt lat="49.83223" lon="4.85012">
        <ele>358</ele>
        <time>2021-03-30T12:59:01.000Z</time>
      </trkpt>
      <trkpt lat="49.83219" lon="4.85008">
        <ele>358</ele>
        <time>2021-03-30T12:59:02.000Z</time>
      </trkpt>
      <trkpt lat="49.83216" lon="4.85005">
        <ele>358</ele>
        <time>2021-03-30T12:59:03.000Z</time>
      </trkpt>
      <trkpt lat="49.83212" lon="4.85002">
        <ele>358</ele>
        <time>2021-03-30T12:59:04.000Z</time>
      </trkpt>
      <trkpt lat="49.83209" lon="4.84999">
        <ele>359</ele>
        <time>2021-03-30T12:59:05.000Z</time>
      </trkpt>
      <trkpt lat="49.83207" lon="4.84996">
        <ele>359</ele>
        <time>2021-03-30T12:59:06.000Z</time>
      </trkpt>
      <trkpt lat="49.83203" lon="4.84993">
        <ele>359</ele>
        <time>2021-03-30T12:59:07.000Z</time>
      </trkpt>
      <trkpt lat="49.832" lon="4.84989">
        <ele>359</ele>
        <time>2021-03-30T12:59:08.000Z</time>
      </trkpt>
      <trkpt lat="49.83195" lon="4.84985">
        <ele>359</ele>
        <time>2021-03-30T12:59:09.000Z</time>
      </trkpt>
      <trkpt lat="49.83191" lon="4.84981">
        <ele>359</ele>
        <time>2021-03-30T12:59:10.000Z</time>
      </trkpt>
      <trkpt lat="49.83187" lon="4.84978">
        <ele>359</ele>
        <time>2021-03-30T12:59:11.000Z</time>
      </trkpt>
      <trkpt lat="49.83183" lon="4.84974">
        <ele>360</ele>
        <time>2021-03-30T12:59:12.000Z</time>
      </trkpt>
      <trkpt lat="49.83179" lon="4.84971">
        <ele>360</ele>
        <time>2021-03-30T12:59:13.000Z</time>
      </trkpt>
      <trkpt lat="49.83175" lon="4.84968">
        <ele>360</ele>
        <time>2021-03-30T12:59:14.000Z</time>
      </trkpt>
      <trkpt lat="49.83171" lon="4.84964">
        <ele>360</ele>
        <time>2021-03-30T12:59:15.000Z</time>
      </trkpt>
      <trkpt lat="49.83167" lon="4.84961">
        <ele>360</ele>
        <time>2021-03-30T12:59:16.000Z</time>
      </trkpt>
      <trkpt lat="49.83163" lon="4.84957">
        <ele>360</ele>
        <time>2021-03-30T12:59:17.000Z</time>
      </trkpt>
      <trkpt lat="49.83159" lon="4.84953">
        <ele>360</ele>
        <time>2021-03-30T12:59:18.000Z</time>
      </trkpt>
      <trkpt lat="49.83156" lon="4.8495">
        <ele>360</ele>
        <time>2021-03-30T12:59:19.000Z</time>
      </trkpt>
      <trkpt lat="49.83152" lon="4.84946">
        <ele>360</ele>
        <time>2021-03-30T12:59:20.000Z</time>
      </trkpt>
      <trkpt lat="49.83149" lon="4.84944">
        <ele>361</ele>
        <time>2021-03-30T12:59:21.000Z</time>
      </trkpt>
      <trkpt lat="49.83146" lon="4.84941">
        <ele>361</ele>
        <time>2021-03-30T12:59:22.000Z</time>
      </trkpt>
      <trkpt lat="49.83143" lon="4.84938">
        <ele>361</ele>
        <time>2021-03-30T12:59:23.000Z</time>
      </trkpt>
      <trkpt lat="49.8314" lon="4.84935">
        <ele>361</ele>
        <time>2021-03-30T12:59:24.000Z</time>
      </trkpt>
      <trkpt lat="49.83137" lon="4.84932">
        <ele>361</ele>
        <time>2021-03-30T12:59:25.000Z</time>
      </trkpt>
      <trkpt lat="49.83134" lon="4.8493">
        <ele>361</ele>
        <time>2021-03-30T12:59:26.000Z</time>
      </trkpt>
      <trkpt lat="49.83131" lon="4.84928">
        <ele>362</ele>
        <time>2021-03-30T12:59:27.000Z</time>
      </trkpt>
      <trkpt lat="49.83129" lon="4.84925">
        <ele>362</ele>
        <time>2021-03-30T12:59:28.000Z</time>
      </trkpt>
      <trkpt lat="49.83128" lon="4.84922">
        <ele>362</ele>
        <time>2021-03-30T12:59:29.000Z</time>
      </trkpt>
      <trkpt lat="49.83127" lon="4.8492">
        <ele>362</ele>
        <time>2021-03-30T12:59:30.000Z</time>
      </trkpt>
      <trkpt lat="49.83125" lon="4.84917">
        <ele>362</ele>
        <time>2021-03-30T12:59:31.000Z</time>
      </trkpt>
      <trkpt lat="49.83124" lon="4.84916">
        <ele>362</ele>
        <time>2021-03-30T12:59:32.000Z</time>
      </trkpt>
      <trkpt lat="49.83122" lon="4.84914">
        <ele>362</ele>
        <time>2021-03-30T12:59:33.000Z</time>
      </trkpt>
      <trkpt lat="49.83119" lon="4.84912">
        <ele>362</ele>
        <time>2021-03-30T12:59:34.000Z</time>
      </trkpt>
      <trkpt lat="49.83117" lon="4.84909">
        <ele>362</ele>
        <time>2021-03-30T12:59:35.000Z</time>
      </trkpt>
      <trkpt lat="49.83114" lon="4.84906">
        <ele>362</ele>
        <time>2021-03-30T12:59:36.000Z</time>
      </trkpt>
      <trkpt lat="49.83111" lon="4.84902">
        <ele>362</ele>
        <time>2021-03-30T12:59:37.000Z</time>
      </trkpt>
      <trkpt lat="49.83107" lon="4.84899">
        <ele>362</ele>
        <time>2021-03-30T12:59:38.000Z</time>
      </trkpt>
      <trkpt lat="49.83103" lon="4.84895">
        <ele>362</ele>
        <time>2021-03-30T12:59:39.000Z</time>
      </trkpt>
      <trkpt lat="49.83098" lon="4.84891">
        <ele>362</ele>
        <time>2021-03-30T12:59:40.000Z</time>
      </trkpt>
      <trkpt lat="49.83094" lon="4.84887">
        <ele>362</ele>
        <time>2021-03-30T12:59:41.000Z</time>
      </trkpt>
      <trkpt lat="49.83089" lon="4.84882">
        <ele>362</ele>
        <time>2021-03-30T12:59:42.000Z</time>
      </trkpt>
      <trkpt lat="49.83085" lon="4.84876">
        <ele>362</ele>
        <time>2021-03-30T12:59:43.000Z</time>
      </trkpt>
      <trkpt lat="49.8308" lon="4.84871">
        <ele>361</ele>
        <time>2021-03-30T12:59:44.000Z</time>
      </trkpt>
      <trkpt lat="49.83075" lon="4.84867">
        <ele>361</ele>
        <time>2021-03-30T12:59:45.000Z</time>
      </trkpt>
      <trkpt lat="49.8307" lon="4.84862">
        <ele>360</ele>
        <time>2021-03-30T12:59:46.000Z</time>
      </trkpt>
      <trkpt lat="49.83064" lon="4.84856">
        <ele>360</ele>
        <time>2021-03-30T12:59:47.000Z</time>
      </trkpt>
      <trkpt lat="49.83058" lon="4.8485">
        <ele>360</ele>
        <time>2021-03-30T12:59:48.000Z</time>
      </trkpt>
      <trkpt lat="49.83053" lon="4.84845">
        <ele>359</ele>
        <time>2021-03-30T12:59:49.000Z</time>
      </trkpt>
      <trkpt lat="49.83048" lon="4.84841">
        <ele>359</ele>
        <time>2021-03-30T12:59:50.000Z</time>
      </trkpt>
      <trkpt lat="49.83043" lon="4.84838">
        <ele>358</ele>
        <time>2021-03-30T12:59:51.000Z</time>
      </trkpt>
      <trkpt lat="49.83039" lon="4.84838">
        <ele>358</ele>
        <time>2021-03-30T12:59:52.000Z</time>
      </trkpt>
      <trkpt lat="49.83034" lon="4.8484">
        <ele>357</ele>
        <time>2021-03-30T12:59:53.000Z</time>
      </trkpt>
      <trkpt lat="49.8303" lon="4.84842">
        <ele>357</ele>
        <time>2021-03-30T12:59:54.000Z</time>
      </trkpt>
      <trkpt lat="49.83024" lon="4.84843">
        <ele>357</ele>
        <time>2021-03-30T12:59:55.000Z</time>
      </trkpt>
      <trkpt lat="49.83019" lon="4.84843">
        <ele>356</ele>
        <time>2021-03-30T12:59:56.000Z</time>
      </trkpt>
      <trkpt lat="49.83013" lon="4.84843">
        <ele>356</ele>
        <time>2021-03-30T12:59:57.000Z</time>
      </trkpt>
      <trkpt lat="49.83006" lon="4.84842">
        <ele>355</ele>
        <time>2021-03-30T12:59:58.000Z</time>
      </trkpt>
      <trkpt lat="49.82999" lon="4.84839">
        <ele>355</ele>
        <time>2021-03-30T12:59:59.000Z</time>
      </trkpt>
      <trkpt lat="49.82991" lon="4.84837">
        <ele>354</ele>
        <time>2021-03-30T13:00:00.000Z</time>
      </trkpt>
      <trkpt lat="49.82984" lon="4.84835">
        <ele>354</ele>
        <time>2021-03-30T13:00:01.000Z</time>
      </trkpt>
      <trkpt lat="49.82978" lon="4.84834">
        <ele>354</ele>
        <time>2021-03-30T13:00:02.000Z</time>
      </trkpt>
      <trkpt lat="49.82972" lon="4.84834">
        <ele>353</ele>
        <time>2021-03-30T13:00:03.000Z</time>
      </trkpt>
      <trkpt lat="49.82968" lon="4.84836">
        <ele>353</ele>
        <time>2021-03-30T13:00:04.000Z</time>
      </trkpt>
      <trkpt lat="49.82963" lon="4.84839">
        <ele>352</ele>
        <time>2021-03-30T13:00:05.000Z</time>
      </trkpt>
      <trkpt lat="49.82959" lon="4.84845">
        <ele>352</ele>
        <time>2021-03-30T13:00:06.000Z</time>
      </trkpt>
      <trkpt lat="49.82955" lon="4.84851">
        <ele>351</ele>
        <time>2021-03-30T13:00:07.000Z</time>
      </trkpt>
      <trkpt lat="49.82951" lon="4.84857">
        <ele>350</ele>
        <time>2021-03-30T13:00:08.000Z</time>
      </trkpt>
      <trkpt lat="49.82947" lon="4.84862">
        <ele>350</ele>
        <time>2021-03-30T13:00:09.000Z</time>
      </trkpt>
      <trkpt lat="49.82943" lon="4.84866">
        <ele>349</ele>
        <time>2021-03-30T13:00:10.000Z</time>
      </trkpt>
      <trkpt lat="49.8294" lon="4.84869">
        <ele>349</ele>
        <time>2021-03-30T13:00:11.000Z</time>
      </trkpt>
      <trkpt lat="49.82935" lon="4.84873">
        <ele>348</ele>
        <time>2021-03-30T13:00:12.000Z</time>
      </trkpt>
      <trkpt lat="49.8293" lon="4.84875">
        <ele>347</ele>
        <time>2021-03-30T13:00:13.000Z</time>
      </trkpt>
      <trkpt lat="49.82925" lon="4.84876">
        <ele>347</ele>
        <time>2021-03-30T13:00:14.000Z</time>
      </trkpt>
      <trkpt lat="49.82922" lon="4.84879">
        <ele>346</ele>
        <time>2021-03-30T13:00:15.000Z</time>
      </trkpt>
      <trkpt lat="49.82917" lon="4.84881">
        <ele>345</ele>
        <time>2021-03-30T13:00:16.000Z</time>
      </trkpt>
      <trkpt lat="49.82912" lon="4.84882">
        <ele>344</ele>
        <time>2021-03-30T13:00:17.000Z</time>
      </trkpt>
      <trkpt lat="49.82907" lon="4.84883">
        <ele>343</ele>
        <time>2021-03-30T13:00:18.000Z</time>
      </trkpt>
      <trkpt lat="49.82904" lon="4.84885">
        <ele>343</ele>
        <time>2021-03-30T13:00:19.000Z</time>
      </trkpt>
      <trkpt lat="49.82902" lon="4.84889">
        <ele>342</ele>
        <time>2021-03-30T13:00:20.000Z</time>
      </trkpt>
      <trkpt lat="49.829" lon="4.84892">
        <ele>341</ele>
        <time>2021-03-30T13:00:21.000Z</time>
      </trkpt>
      <trkpt lat="49.82899" lon="4.84896">
        <ele>341</ele>
        <time>2021-03-30T13:00:22.000Z</time>
      </trkpt>
      <trkpt lat="49.82898" lon="4.84899">
        <ele>340</ele>
        <time>2021-03-30T13:00:23.000Z</time>
      </trkpt>
      <trkpt lat="49.82898" lon="4.84903">
        <ele>339</ele>
        <time>2021-03-30T13:00:24.000Z</time>
      </trkpt>
      <trkpt lat="49.82897" lon="4.84907">
        <ele>339</ele>
        <time>2021-03-30T13:00:25.000Z</time>
      </trkpt>
      <trkpt lat="49.82897" lon="4.8491">
        <ele>338</ele>
        <time>2021-03-30T13:00:26.000Z</time>
      </trkpt>
      <trkpt lat="49.82898" lon="4.84915">
        <ele>338</ele>
        <time>2021-03-30T13:00:27.000Z</time>
      </trkpt>
      <trkpt lat="49.82899" lon="4.84919">
        <ele>338</ele>
        <time>2021-03-30T13:00:28.000Z</time>
      </trkpt>
      <trkpt lat="49.82899" lon="4.84923">
        <ele>337</ele>
        <time>2021-03-30T13:00:29.000Z</time>
      </trkpt>
      <trkpt lat="49.829" lon="4.84927">
        <ele>337</ele>
        <time>2021-03-30T13:00:30.000Z</time>
      </trkpt>
      <trkpt lat="49.829" lon="4.84932">
        <ele>337</ele>
        <time>2021-03-30T13:00:31.000Z</time>
      </trkpt>
      <trkpt lat="49.82901" lon="4.84936">
        <ele>336</ele>
        <time>2021-03-30T13:00:32.000Z</time>
      </trkpt>
      <trkpt lat="49.82902" lon="4.8494">
        <ele>336</ele>
        <time>2021-03-30T13:00:33.000Z</time>
      </trkpt>
      <trkpt lat="49.82904" lon="4.84944">
        <ele>336</ele>
        <time>2021-03-30T13:00:34.000Z</time>
      </trkpt>
      <trkpt lat="49.82906" lon="4.84949">
        <ele>336</ele>
        <time>2021-03-30T13:00:35.000Z</time>
      </trkpt>
      <trkpt lat="49.82907" lon="4.84953">
        <ele>336</ele>
        <time>2021-03-30T13:00:36.000Z</time>
      </trkpt>
      <trkpt lat="49.82908" lon="4.84957">
        <ele>336</ele>
        <time>2021-03-30T13:00:37.000Z</time>
      </trkpt>
      <trkpt lat="49.82909" lon="4.84961">
        <ele>335</ele>
        <time>2021-03-30T13:00:38.000Z</time>
      </trkpt>
      <trkpt lat="49.82911" lon="4.84964">
        <ele>335</ele>
        <time>2021-03-30T13:00:39.000Z</time>
      </trkpt>
      <trkpt lat="49.82912" lon="4.84967">
        <ele>335</ele>
        <time>2021-03-30T13:00:40.000Z</time>
      </trkpt>
      <trkpt lat="49.82914" lon="4.84971">
        <ele>335</ele>
        <time>2021-03-30T13:00:41.000Z</time>
      </trkpt>
      <trkpt lat="49.82914" lon="4.84974">
        <ele>335</ele>
        <time>2021-03-30T13:00:42.000Z</time>
      </trkpt>
      <trkpt lat="49.82915" lon="4.84978">
        <ele>335</ele>
        <time>2021-03-30T13:00:43.000Z</time>
      </trkpt>
      <trkpt lat="49.82915" lon="4.84983">
        <ele>335</ele>
        <time>2021-03-30T13:00:44.000Z</time>
      </trkpt>
      <trkpt lat="49.82915" lon="4.84987">
        <ele>334</ele>
        <time>2021-03-30T13:00:45.000Z</time>
      </trkpt>
      <trkpt lat="49.82915" lon="4.84991">
        <ele>334</ele>
        <time>2021-03-30T13:00:46.000Z</time>
      </trkpt>
      <trkpt lat="49.82916" lon="4.84996">
        <ele>334</ele>
        <time>2021-03-30T13:00:47.000Z</time>
      </trkpt>
      <trkpt lat="49.82917" lon="4.85">
        <ele>334</ele>
        <time>2021-03-30T13:00:48.000Z</time>
      </trkpt>
      <trkpt lat="49.82917" lon="4.85004">
        <ele>334</ele>
        <time>2021-03-30T13:00:49.000Z</time>
      </trkpt>
      <trkpt lat="49.82917" lon="4.85008">
        <ele>334</ele>
        <time>2021-03-30T13:00:50.000Z</time>
      </trkpt>
      <trkpt lat="49.82917" lon="4.85012">
        <ele>334</ele>
        <time>2021-03-30T13:00:51.000Z</time>
      </trkpt>
      <trkpt lat="49.82917" lon="4.85016">
        <ele>335</ele>
        <time>2021-03-30T13:00:52.000Z</time>
      </trkpt>
      <trkpt lat="49.82916" lon="4.8502">
        <ele>335</ele>
        <time>2021-03-30T13:00:53.000Z</time>
      </trkpt>
      <trkpt lat="49.82916" lon="4.85024">
        <ele>335</ele>
        <time>2021-03-30T13:00:54.000Z</time>
      </trkpt>
      <trkpt lat="49.82915" lon="4.85028">
        <ele>335</ele>
        <time>2021-03-30T13:00:55.000Z</time>
      </trkpt>
      <trkpt lat="49.82915" lon="4.85033">
        <ele>335</ele>
        <time>2021-03-30T13:00:56.000Z</time>
      </trkpt>
      <trkpt lat="49.82915" lon="4.85037">
        <ele>335</ele>
        <time>2021-03-30T13:00:57.000Z</time>
      </trkpt>
      <trkpt lat="49.82914" lon="4.8504">
        <ele>336</ele>
        <time>2021-03-30T13:00:58.000Z</time>
      </trkpt>
      <trkpt lat="49.82913" lon="4.85044">
        <ele>336</ele>
        <time>2021-03-30T13:00:59.000Z</time>
      </trkpt>
      <trkpt lat="49.82912" lon="4.85047">
        <ele>336</ele>
        <time>2021-03-30T13:01:00.000Z</time>
      </trkpt>
      <trkpt lat="49.8291" lon="4.8505">
        <ele>337</ele>
        <time>2021-03-30T13:01:01.000Z</time>
      </trkpt>
      <trkpt lat="49.82909" lon="4.85054">
        <ele>337</ele>
        <time>2021-03-30T13:01:02.000Z</time>
      </trkpt>
      <trkpt lat="49.82907" lon="4.85057">
        <ele>337</ele>
        <time>2021-03-30T13:01:03.000Z</time>
      </trkpt>
      <trkpt lat="49.82906" lon="4.85059">
        <ele>337</ele>
        <time>2021-03-30T13:01:04.000Z</time>
      </trkpt>
      <trkpt lat="49.82905" lon="4.85062">
        <ele>337</ele>
        <time>2021-03-30T13:01:05.000Z</time>
      </trkpt>
      <trkpt lat="49.82904" lon="4.85065">
        <ele>337</ele>
        <time>2021-03-30T13:01:06.000Z</time>
      </trkpt>
      <trkpt lat="49.82903" lon="4.85067">
        <ele>338</ele>
        <time>2021-03-30T13:01:07.000Z</time>
      </trkpt>
      <trkpt lat="49.82901" lon="4.8507">
        <ele>338</ele>
        <time>2021-03-30T13:01:08.000Z</time>
      </trkpt>
      <trkpt lat="49.82899" lon="4.85073">
        <ele>338</ele>
        <time>2021-03-30T13:01:09.000Z</time>
      </trkpt>
      <trkpt lat="49.82897" lon="4.85076">
        <ele>338</ele>
        <time>2021-03-30T13:01:10.000Z</time>
      </trkpt>
      <trkpt lat="49.82895" lon="4.85079">
        <ele>338</ele>
        <time>2021-03-30T13:01:11.000Z</time>
      </trkpt>
      <trkpt lat="49.82893" lon="4.85082">
        <ele>338</ele>
        <time>2021-03-30T13:01:12.000Z</time>
      </trkpt>
      <trkpt lat="49.8289" lon="4.85084">
        <ele>338</ele>
        <time>2021-03-30T13:01:13.000Z</time>
      </trkpt>
      <trkpt lat="49.82888" lon="4.85087">
        <ele>338</ele>
        <time>2021-03-30T13:01:14.000Z</time>
      </trkpt>
      <trkpt lat="49.82886" lon="4.8509">
        <ele>338</ele>
        <time>2021-03-30T13:01:15.000Z</time>
      </trkpt>
      <trkpt lat="49.82883" lon="4.85093">
        <ele>339</ele>
        <time>2021-03-30T13:01:16.000Z</time>
      </trkpt>
      <trkpt lat="49.82881" lon="4.85095">
        <ele>339</ele>
        <time>2021-03-30T13:01:17.000Z</time>
      </trkpt>
      <trkpt lat="49.82879" lon="4.85097">
        <ele>339</ele>
        <time>2021-03-30T13:01:18.000Z</time>
      </trkpt>
      <trkpt lat="49.82878" lon="4.85099">
        <ele>339</ele>
        <time>2021-03-30T13:01:19.000Z</time>
      </trkpt>
      <trkpt lat="49.82875" lon="4.85101">
        <ele>339</ele>
        <time>2021-03-30T13:01:20.000Z</time>
      </trkpt>
      <trkpt lat="49.82873" lon="4.85104">
        <ele>339</ele>
        <time>2021-03-30T13:01:21.000Z</time>
      </trkpt>
      <trkpt lat="49.82871" lon="4.85106">
        <ele>340</ele>
        <time>2021-03-30T13:01:22.000Z</time>
      </trkpt>
      <trkpt lat="49.82869" lon="4.85108">
        <ele>340</ele>
        <time>2021-03-30T13:01:23.000Z</time>
      </trkpt>
      <trkpt lat="49.82866" lon="4.85111">
        <ele>340</ele>
        <time>2021-03-30T13:01:24.000Z</time>
      </trkpt>
      <trkpt lat="49.82864" lon="4.85113">
        <ele>340</ele>
        <time>2021-03-30T13:01:25.000Z</time>
      </trkpt>
      <trkpt lat="49.82862" lon="4.85116">
        <ele>341</ele>
        <time>2021-03-30T13:01:26.000Z</time>
      </trkpt>
      <trkpt lat="49.8286" lon="4.85119">
        <ele>341</ele>
        <time>2021-03-30T13:01:27.000Z</time>
      </trkpt>
      <trkpt lat="49.82858" lon="4.85121">
        <ele>341</ele>
        <time>2021-03-30T13:01:28.000Z</time>
      </trkpt>
      <trkpt lat="49.82856" lon="4.85124">
        <ele>341</ele>
        <time>2021-03-30T13:01:29.000Z</time>
      </trkpt>
      <trkpt lat="49.82854" lon="4.85127">
        <ele>342</ele>
        <time>2021-03-30T13:01:30.000Z</time>
      </trkpt>
      <trkpt lat="49.82851" lon="4.8513">
        <ele>342</ele>
        <time>2021-03-30T13:01:31.000Z</time>
      </trkpt>
      <trkpt lat="49.82849" lon="4.85132">
        <ele>342</ele>
        <time>2021-03-30T13:01:32.000Z</time>
      </trkpt>
      <trkpt lat="49.82848" lon="4.85135">
        <ele>342</ele>
        <time>2021-03-30T13:01:33.000Z</time>
      </trkpt>
      <trkpt lat="49.82846" lon="4.85137">
        <ele>342</ele>
        <time>2021-03-30T13:01:34.000Z</time>
      </trkpt>
      <trkpt lat="49.82845" lon="4.85138">
        <ele>342</ele>
        <time>2021-03-30T13:01:35.000Z</time>
      </trkpt>
      <trkpt lat="49.82844" lon="4.85141">
        <ele>342</ele>
        <time>2021-03-30T13:01:36.000Z</time>
      </trkpt>
      <trkpt lat="49.82843" lon="4.85143">
        <ele>342</ele>
        <time>2021-03-30T13:01:37.000Z</time>
      </trkpt>
      <trkpt lat="49.82841" lon="4.85147">
        <ele>343</ele>
        <time>2021-03-30T13:01:38.000Z</time>
      </trkpt>
      <trkpt lat="49.82839" lon="4.8515">
        <ele>343</ele>
        <time>2021-03-30T13:01:39.000Z</time>
      </trkpt>
      <trkpt lat="49.82837" lon="4.85154">
        <ele>343</ele>
        <time>2021-03-30T13:01:40.000Z</time>
      </trkpt>
      <trkpt lat="49.82835" lon="4.85157">
        <ele>343</ele>
        <time>2021-03-30T13:01:41.000Z</time>
      </trkpt>
      <trkpt lat="49.82833" lon="4.8516">
        <ele>344</ele>
        <time>2021-03-30T13:01:42.000Z</time>
      </trkpt>
      <trkpt lat="49.82831" lon="4.85162">
        <ele>344</ele>
        <time>2021-03-30T13:01:43.000Z</time>
      </trkpt>
      <trkpt lat="49.8283" lon="4.85165">
        <ele>344</ele>
        <time>2021-03-30T13:01:44.000Z</time>
      </trkpt>
      <trkpt lat="49.82828" lon="4.85167">
        <ele>344</ele>
        <time>2021-03-30T13:01:45.000Z</time>
      </trkpt>
      <trkpt lat="49.82827" lon="4.8517">
        <ele>345</ele>
        <time>2021-03-30T13:01:46.000Z</time>
      </trkpt>
      <trkpt lat="49.82825" lon="4.85174">
        <ele>345</ele>
        <time>2021-03-30T13:01:47.000Z</time>
      </trkpt>
      <trkpt lat="49.82824" lon="4.85177">
        <ele>345</ele>
        <time>2021-03-30T13:01:48.000Z</time>
      </trkpt>
      <trkpt lat="49.82823" lon="4.8518">
        <ele>346</ele>
        <time>2021-03-30T13:01:49.000Z</time>
      </trkpt>
      <trkpt lat="49.82821" lon="4.85183">
        <ele>346</ele>
        <time>2021-03-30T13:01:50.000Z</time>
      </trkpt>
      <trkpt lat="49.82819" lon="4.85187">
        <ele>346</ele>
        <time>2021-03-30T13:01:51.000Z</time>
      </trkpt>
      <trkpt lat="49.82817" lon="4.85191">
        <ele>346</ele>
        <time>2021-03-30T13:01:52.000Z</time>
      </trkpt>
      <trkpt lat="49.82815" lon="4.85195">
        <ele>347</ele>
        <time>2021-03-30T13:01:53.000Z</time>
      </trkpt>
      <trkpt lat="49.82813" lon="4.852">
        <ele>347</ele>
        <time>2021-03-30T13:01:54.000Z</time>
      </trkpt>
      <trkpt lat="49.82811" lon="4.85205">
        <ele>347</ele>
        <time>2021-03-30T13:01:55.000Z</time>
      </trkpt>
      <trkpt lat="49.82809" lon="4.85209">
        <ele>347</ele>
        <time>2021-03-30T13:01:56.000Z</time>
      </trkpt>
      <trkpt lat="49.82807" lon="4.85212">
        <ele>348</ele>
        <time>2021-03-30T13:01:57.000Z</time>
      </trkpt>
      <trkpt lat="49.82806" lon="4.85217">
        <ele>348</ele>
        <time>2021-03-30T13:01:58.000Z</time>
      </trkpt>
      <trkpt lat="49.82804" lon="4.85221">
        <ele>348</ele>
        <time>2021-03-30T13:01:59.000Z</time>
      </trkpt>
      <trkpt lat="49.82802" lon="4.85226">
        <ele>348</ele>
        <time>2021-03-30T13:02:00.000Z</time>
      </trkpt>
      <trkpt lat="49.828" lon="4.8523">
        <ele>348</ele>
        <time>2021-03-30T13:02:01.000Z</time>
      </trkpt>
      <trkpt lat="49.82798" lon="4.85235">
        <ele>349</ele>
        <time>2021-03-30T13:02:02.000Z</time>
      </trkpt>
      <trkpt lat="49.82796" lon="4.85239">
        <ele>349</ele>
        <time>2021-03-30T13:02:03.000Z</time>
      </trkpt>
      <trkpt lat="49.82795" lon="4.85242">
        <ele>349</ele>
        <time>2021-03-30T13:02:04.000Z</time>
      </trkpt>
      <trkpt lat="49.82793" lon="4.85246">
        <ele>349</ele>
        <time>2021-03-30T13:02:05.000Z</time>
      </trkpt>
      <trkpt lat="49.82792" lon="4.8525">
        <ele>349</ele>
        <time>2021-03-30T13:02:06.000Z</time>
      </trkpt>
      <trkpt lat="49.82791" lon="4.85253">
        <ele>349</ele>
        <time>2021-03-30T13:02:07.000Z</time>
      </trkpt>
      <trkpt lat="49.8279" lon="4.85257">
        <ele>350</ele>
        <time>2021-03-30T13:02:08.000Z</time>
      </trkpt>
      <trkpt lat="49.82789" lon="4.85261">
        <ele>350</ele>
        <time>2021-03-30T13:02:09.000Z</time>
      </trkpt>
      <trkpt lat="49.82789" lon="4.85265">
        <ele>350</ele>
        <time>2021-03-30T13:02:10.000Z</time>
      </trkpt>
      <trkpt lat="49.82789" lon="4.85269">
        <ele>351</ele>
        <time>2021-03-30T13:02:11.000Z</time>
      </trkpt>
      <trkpt lat="49.82788" lon="4.85273">
        <ele>351</ele>
        <time>2021-03-30T13:02:12.000Z</time>
      </trkpt>
      <trkpt lat="49.82788" lon="4.85277">
        <ele>351</ele>
        <time>2021-03-30T13:02:13.000Z</time>
      </trkpt>
      <trkpt lat="49.82787" lon="4.85281">
        <ele>352</ele>
        <time>2021-03-30T13:02:14.000Z</time>
      </trkpt>
      <trkpt lat="49.82787" lon="4.85285">
        <ele>352</ele>
        <time>2021-03-30T13:02:15.000Z</time>
      </trkpt>
      <trkpt lat="49.82787" lon="4.85289">
        <ele>352</ele>
        <time>2021-03-30T13:02:16.000Z</time>
      </trkpt>
      <trkpt lat="49.82786" lon="4.85292">
        <ele>352</ele>
        <time>2021-03-30T13:02:17.000Z</time>
      </trkpt>
      <trkpt lat="49.82786" lon="4.85296">
        <ele>353</ele>
        <time>2021-03-30T13:02:18.000Z</time>
      </trkpt>
      <trkpt lat="49.82786" lon="4.853">
        <ele>353</ele>
        <time>2021-03-30T13:02:19.000Z</time>
      </trkpt>
      <trkpt lat="49.82786" lon="4.85303">
        <ele>353</ele>
        <time>2021-03-30T13:02:20.000Z</time>
      </trkpt>
      <trkpt lat="49.82787" lon="4.85307">
        <ele>353</ele>
        <time>2021-03-30T13:02:21.000Z</time>
      </trkpt>
      <trkpt lat="49.82788" lon="4.85311">
        <ele>353</ele>
        <time>2021-03-30T13:02:22.000Z</time>
      </trkpt>
      <trkpt lat="49.8279" lon="4.85315">
        <ele>353</ele>
        <time>2021-03-30T13:02:23.000Z</time>
      </trkpt>
      <trkpt lat="49.82792" lon="4.85319">
        <ele>353</ele>
        <time>2021-03-30T13:02:24.000Z</time>
      </trkpt>
      <trkpt lat="49.82794" lon="4.85323">
        <ele>353</ele>
        <time>2021-03-30T13:02:25.000Z</time>
      </trkpt>
      <trkpt lat="49.82796" lon="4.85327">
        <ele>353</ele>
        <time>2021-03-30T13:02:26.000Z</time>
      </trkpt>
      <trkpt lat="49.82799" lon="4.85331">
        <ele>353</ele>
        <time>2021-03-30T13:02:27.000Z</time>
      </trkpt>
      <trkpt lat="49.82801" lon="4.85334">
        <ele>352</ele>
        <time>2021-03-30T13:02:28.000Z</time>
      </trkpt>
      <trkpt lat="49.82804" lon="4.85338">
        <ele>352</ele>
        <time>2021-03-30T13:02:29.000Z</time>
      </trkpt>
      <trkpt lat="49.82806" lon="4.85341">
        <ele>352</ele>
        <time>2021-03-30T13:02:30.000Z</time>
      </trkpt>
      <trkpt lat="49.82808" lon="4.85344">
        <ele>352</ele>
        <time>2021-03-30T13:02:31.000Z</time>
      </trkpt>
      <trkpt lat="49.82811" lon="4.85347">
        <ele>351</ele>
        <time>2021-03-30T13:02:32.000Z</time>
      </trkpt>
      <trkpt lat="49.82814" lon="4.85351">
        <ele>351</ele>
        <time>2021-03-30T13:02:33.000Z</time>
      </trkpt>
      <trkpt lat="49.82817" lon="4.85356">
        <ele>351</ele>
        <time>2021-03-30T13:02:34.000Z</time>
      </trkpt>
      <trkpt lat="49.82821" lon="4.85361">
        <ele>351</ele>
        <time>2021-03-30T13:02:35.000Z</time>
      </trkpt>
      <trkpt lat="49.82824" lon="4.85365">
        <ele>351</ele>
        <time>2021-03-30T13:02:36.000Z</time>
      </trkpt>
      <trkpt lat="49.82827" lon="4.85369">
        <ele>351</ele>
        <time>2021-03-30T13:02:37.000Z</time>
      </trkpt>
      <trkpt lat="49.82831" lon="4.85373">
        <ele>350</ele>
        <time>2021-03-30T13:02:38.000Z</time>
      </trkpt>
      <trkpt lat="49.82835" lon="4.85376">
        <ele>350</ele>
        <time>2021-03-30T13:02:39.000Z</time>
      </trkpt>
      <trkpt lat="49.82839" lon="4.8538">
        <ele>350</ele>
        <time>2021-03-30T13:02:40.000Z</time>
      </trkpt>
      <trkpt lat="49.82842" lon="4.85385">
        <ele>350</ele>
        <time>2021-03-30T13:02:41.000Z</time>
      </trkpt>
      <trkpt lat="49.82845" lon="4.85389">
        <ele>350</ele>
        <time>2021-03-30T13:02:42.000Z</time>
      </trkpt>
      <trkpt lat="49.82849" lon="4.85393">
        <ele>349</ele>
        <time>2021-03-30T13:02:43.000Z</time>
      </trkpt>
      <trkpt lat="49.82852" lon="4.85398">
        <ele>349</ele>
        <time>2021-03-30T13:02:44.000Z</time>
      </trkpt>
      <trkpt lat="49.82856" lon="4.85402">
        <ele>349</ele>
        <time>2021-03-30T13:02:45.000Z</time>
      </trkpt>
      <trkpt lat="49.82859" lon="4.85407">
        <ele>349</ele>
        <time>2021-03-30T13:02:46.000Z</time>
      </trkpt>
      <trkpt lat="49.82862" lon="4.85412">
        <ele>349</ele>
        <time>2021-03-30T13:02:47.000Z</time>
      </trkpt>
      <trkpt lat="49.82865" lon="4.85417">
        <ele>348</ele>
        <time>2021-03-30T13:02:48.000Z</time>
      </trkpt>
      <trkpt lat="49.82868" lon="4.85423">
        <ele>348</ele>
        <time>2021-03-30T13:02:49.000Z</time>
      </trkpt>
      <trkpt lat="49.82872" lon="4.85428">
        <ele>348</ele>
        <time>2021-03-30T13:02:50.000Z</time>
      </trkpt>
      <trkpt lat="49.82874" lon="4.85434">
        <ele>348</ele>
        <time>2021-03-30T13:02:51.000Z</time>
      </trkpt>
      <trkpt lat="49.82877" lon="4.85441">
        <ele>348</ele>
        <time>2021-03-30T13:02:52.000Z</time>
      </trkpt>
      <trkpt lat="49.82879" lon="4.85446">
        <ele>348</ele>
        <time>2021-03-30T13:02:53.000Z</time>
      </trkpt>
      <trkpt lat="49.82881" lon="4.85452">
        <ele>348</ele>
        <time>2021-03-30T13:02:54.000Z</time>
      </trkpt>
      <trkpt lat="49.82883" lon="4.85459">
        <ele>348</ele>
        <time>2021-03-30T13:02:55.000Z</time>
      </trkpt>
      <trkpt lat="49.82886" lon="4.85466">
        <ele>348</ele>
        <time>2021-03-30T13:02:56.000Z</time>
      </trkpt>
      <trkpt lat="49.82888" lon="4.85473">
        <ele>348</ele>
        <time>2021-03-30T13:02:57.000Z</time>
      </trkpt>
      <trkpt lat="49.82889" lon="4.85481">
        <ele>348</ele>
        <time>2021-03-30T13:02:58.000Z</time>
      </trkpt>
      <trkpt lat="49.82891" lon="4.85489">
        <ele>348</ele>
        <time>2021-03-30T13:02:59.000Z</time>
      </trkpt>
      <trkpt lat="49.82893" lon="4.85498">
        <ele>348</ele>
        <time>2021-03-30T13:03:00.000Z</time>
      </trkpt>
      <trkpt lat="49.82896" lon="4.85507">
        <ele>348</ele>
        <time>2021-03-30T13:03:01.000Z</time>
      </trkpt>
      <trkpt lat="49.82897" lon="4.85516">
        <ele>347</ele>
        <time>2021-03-30T13:03:02.000Z</time>
      </trkpt>
      <trkpt lat="49.82899" lon="4.85526">
        <ele>347</ele>
        <time>2021-03-30T13:03:03.000Z</time>
      </trkpt>
      <trkpt lat="49.82902" lon="4.85537">
        <ele>347</ele>
        <time>2021-03-30T13:03:04.000Z</time>
      </trkpt>
      <trkpt lat="49.82905" lon="4.85548">
        <ele>347</ele>
        <time>2021-03-30T13:03:05.000Z</time>
      </trkpt>
      <trkpt lat="49.82908" lon="4.85559">
        <ele>347</ele>
        <time>2021-03-30T13:03:06.000Z</time>
      </trkpt>
      <trkpt lat="49.82911" lon="4.85571">
        <ele>347</ele>
        <time>2021-03-30T13:03:07.000Z</time>
      </trkpt>
      <trkpt lat="49.82914" lon="4.85583">
        <ele>347</ele>
        <time>2021-03-30T13:03:08.000Z</time>
      </trkpt>
      <trkpt lat="49.82918" lon="4.85594">
        <ele>347</ele>
        <time>2021-03-30T13:03:09.000Z</time>
      </trkpt>
      <trkpt lat="49.82922" lon="4.85606">
        <ele>347</ele>
        <time>2021-03-30T13:03:10.000Z</time>
      </trkpt>
      <trkpt lat="49.82927" lon="4.85616">
        <ele>347</ele>
        <time>2021-03-30T13:03:11.000Z</time>
      </trkpt>
      <trkpt lat="49.82932" lon="4.85627">
        <ele>347</ele>
        <time>2021-03-30T13:03:12.000Z</time>
      </trkpt>
      <trkpt lat="49.82936" lon="4.85638">
        <ele>346</ele>
        <time>2021-03-30T13:03:13.000Z</time>
      </trkpt>
      <trkpt lat="49.82941" lon="4.85648">
        <ele>346</ele>
        <time>2021-03-30T13:03:14.000Z</time>
      </trkpt>
      <trkpt lat="49.82946" lon="4.85659">
        <ele>346</ele>
        <time>2021-03-30T13:03:15.000Z</time>
      </trkpt>
      <trkpt lat="49.82952" lon="4.85669">
        <ele>346</ele>
        <time>2021-03-30T13:03:16.000Z</time>
      </trkpt>
      <trkpt lat="49.82957" lon="4.8568">
        <ele>346</ele>
        <time>2021-03-30T13:03:17.000Z</time>
      </trkpt>
      <trkpt lat="49.82962" lon="4.85692">
        <ele>346</ele>
        <time>2021-03-30T13:03:18.000Z</time>
      </trkpt>
      <trkpt lat="49.82967" lon="4.85703">
        <ele>345</ele>
        <time>2021-03-30T13:03:19.000Z</time>
      </trkpt>
      <trkpt lat="49.82972" lon="4.85714">
        <ele>345</ele>
        <time>2021-03-30T13:03:20.000Z</time>
      </trkpt>
      <trkpt lat="49.82977" lon="4.85725">
        <ele>345</ele>
        <time>2021-03-30T13:03:21.000Z</time>
      </trkpt>
      <trkpt lat="49.8298" lon="4.85737">
        <ele>344</ele>
        <time>2021-03-30T13:03:22.000Z</time>
      </trkpt>
      <trkpt lat="49.82983" lon="4.8575">
        <ele>344</ele>
        <time>2021-03-30T13:03:23.000Z</time>
      </trkpt>
      <trkpt lat="49.82985" lon="4.85762">
        <ele>344</ele>
        <time>2021-03-30T13:03:24.000Z</time>
      </trkpt>
      <trkpt lat="49.82986" lon="4.85775">
        <ele>343</ele>
        <time>2021-03-30T13:03:25.000Z</time>
      </trkpt>
      <trkpt lat="49.82986" lon="4.85786">
        <ele>343</ele>
        <time>2021-03-30T13:03:26.000Z</time>
      </trkpt>
      <trkpt lat="49.82986" lon="4.85798">
        <ele>343</ele>
        <time>2021-03-30T13:03:27.000Z</time>
      </trkpt>
      <trkpt lat="49.82986" lon="4.85809">
        <ele>342</ele>
        <time>2021-03-30T13:03:28.000Z</time>
      </trkpt>
      <trkpt lat="49.82985" lon="4.85819">
        <ele>342</ele>
        <time>2021-03-30T13:03:29.000Z</time>
      </trkpt>
      <trkpt lat="49.82985" lon="4.85829">
        <ele>341</ele>
        <time>2021-03-30T13:03:30.000Z</time>
      </trkpt>
      <trkpt lat="49.82985" lon="4.85839">
        <ele>341</ele>
        <time>2021-03-30T13:03:31.000Z</time>
      </trkpt>
      <trkpt lat="49.82984" lon="4.85849">
        <ele>340</ele>
        <time>2021-03-30T13:03:32.000Z</time>
      </trkpt>
      <trkpt lat="49.82985" lon="4.85859">
        <ele>340</ele>
        <time>2021-03-30T13:03:33.000Z</time>
      </trkpt>
      <trkpt lat="49.82986" lon="4.85868">
        <ele>340</ele>
        <time>2021-03-30T13:03:34.000Z</time>
      </trkpt>
      <trkpt lat="49.82987" lon="4.85877">
        <ele>339</ele>
        <time>2021-03-30T13:03:35.000Z</time>
      </trkpt>
      <trkpt lat="49.82989" lon="4.85886">
        <ele>339</ele>
        <time>2021-03-30T13:03:36.000Z</time>
      </trkpt>
      <trkpt lat="49.8299" lon="4.85895">
        <ele>339</ele>
        <time>2021-03-30T13:03:37.000Z</time>
      </trkpt>
      <trkpt lat="49.82993" lon="4.85903">
        <ele>339</ele>
        <time>2021-03-30T13:03:38.000Z</time>
      </trkpt>
      <trkpt lat="49.82995" lon="4.85911">
        <ele>339</ele>
        <time>2021-03-30T13:03:39.000Z</time>
      </trkpt>
      <trkpt lat="49.82997" lon="4.85918">
        <ele>339</ele>
        <time>2021-03-30T13:03:40.000Z</time>
      </trkpt>
      <trkpt lat="49.83" lon="4.85925">
        <ele>339</ele>
        <time>2021-03-30T13:03:41.000Z</time>
      </trkpt>
      <trkpt lat="49.83002" lon="4.85932">
        <ele>338</ele>
        <time>2021-03-30T13:03:42.000Z</time>
      </trkpt>
      <trkpt lat="49.83004" lon="4.85938">
        <ele>338</ele>
        <time>2021-03-30T13:03:43.000Z</time>
      </trkpt>
      <trkpt lat="49.83006" lon="4.85944">
        <ele>338</ele>
        <time>2021-03-30T13:03:44.000Z</time>
      </trkpt>
      <trkpt lat="49.83007" lon="4.8595">
        <ele>338</ele>
        <time>2021-03-30T13:03:45.000Z</time>
      </trkpt>
      <trkpt lat="49.83008" lon="4.85955">
        <ele>338</ele>
        <time>2021-03-30T13:03:46.000Z</time>
      </trkpt>
      <trkpt lat="49.83008" lon="4.85961">
        <ele>338</ele>
        <time>2021-03-30T13:03:47.000Z</time>
      </trkpt>
      <trkpt lat="49.83009" lon="4.85967">
        <ele>338</ele>
        <time>2021-03-30T13:03:48.000Z</time>
      </trkpt>
      <trkpt lat="49.8301" lon="4.85973">
        <ele>338</ele>
        <time>2021-03-30T13:03:49.000Z</time>
      </trkpt>
      <trkpt lat="49.83011" lon="4.85979">
        <ele>338</ele>
        <time>2021-03-30T13:03:50.000Z</time>
      </trkpt>
      <trkpt lat="49.83012" lon="4.85986">
        <ele>338</ele>
        <time>2021-03-30T13:03:51.000Z</time>
      </trkpt>
      <trkpt lat="49.83012" lon="4.85992">
        <ele>338</ele>
        <time>2021-03-30T13:03:52.000Z</time>
      </trkpt>
      <trkpt lat="49.83013" lon="4.85999">
        <ele>338</ele>
        <time>2021-03-30T13:03:53.000Z</time>
      </trkpt>
      <trkpt lat="49.83014" lon="4.86006">
        <ele>338</ele>
        <time>2021-03-30T13:03:54.000Z</time>
      </trkpt>
      <trkpt lat="49.83014" lon="4.86012">
        <ele>338</ele>
        <time>2021-03-30T13:03:55.000Z</time>
      </trkpt>
      <trkpt lat="49.83015" lon="4.86019">
        <ele>338</ele>
        <time>2021-03-30T13:03:56.000Z</time>
      </trkpt>
      <trkpt lat="49.83015" lon="4.86026">
        <ele>338</ele>
        <time>2021-03-30T13:03:57.000Z</time>
      </trkpt>
      <trkpt lat="49.83016" lon="4.86034">
        <ele>338</ele>
        <time>2021-03-30T13:03:58.000Z</time>
      </trkpt>
      <trkpt lat="49.83016" lon="4.86041">
        <ele>338</ele>
        <time>2021-03-30T13:03:59.000Z</time>
      </trkpt>
      <trkpt lat="49.83016" lon="4.86048">
        <ele>338</ele>
        <time>2021-03-30T13:04:00.000Z</time>
      </trkpt>
      <trkpt lat="49.83017" lon="4.86055">
        <ele>338</ele>
        <time>2021-03-30T13:04:01.000Z</time>
      </trkpt>
      <trkpt lat="49.83018" lon="4.86062">
        <ele>339</ele>
        <time>2021-03-30T13:04:02.000Z</time>
      </trkpt>
      <trkpt lat="49.83018" lon="4.8607">
        <ele>339</ele>
        <time>2021-03-30T13:04:03.000Z</time>
      </trkpt>
      <trkpt lat="49.83019" lon="4.86077">
        <ele>339</ele>
        <time>2021-03-30T13:04:04.000Z</time>
      </trkpt>
      <trkpt lat="49.8302" lon="4.86085">
        <ele>339</ele>
        <time>2021-03-30T13:04:05.000Z</time>
      </trkpt>
      <trkpt lat="49.83021" lon="4.86092">
        <ele>339</ele>
        <time>2021-03-30T13:04:06.000Z</time>
      </trkpt>
      <trkpt lat="49.83022" lon="4.86099">
        <ele>339</ele>
        <time>2021-03-30T13:04:07.000Z</time>
      </trkpt>
      <trkpt lat="49.83023" lon="4.86106">
        <ele>339</ele>
        <time>2021-03-30T13:04:08.000Z</time>
      </trkpt>
      <trkpt lat="49.83024" lon="4.86113">
        <ele>340</ele>
        <time>2021-03-30T13:04:09.000Z</time>
      </trkpt>
      <trkpt lat="49.83024" lon="4.8612">
        <ele>340</ele>
        <time>2021-03-30T13:04:10.000Z</time>
      </trkpt>
      <trkpt lat="49.83025" lon="4.86127">
        <ele>340</ele>
        <time>2021-03-30T13:04:11.000Z</time>
      </trkpt>
      <trkpt lat="49.83025" lon="4.86134">
        <ele>340</ele>
        <time>2021-03-30T13:04:12.000Z</time>
      </trkpt>
      <trkpt lat="49.83026" lon="4.86141">
        <ele>340</ele>
        <time>2021-03-30T13:04:13.000Z</time>
      </trkpt>
      <trkpt lat="49.83026" lon="4.86148">
        <ele>340</ele>
        <time>2021-03-30T13:04:14.000Z</time>
      </trkpt>
      <trkpt lat="49.83026" lon="4.86155">
        <ele>340</ele>
        <time>2021-03-30T13:04:15.000Z</time>
      </trkpt>
      <trkpt lat="49.83026" lon="4.86161">
        <ele>340</ele>
        <time>2021-03-30T13:04:16.000Z</time>
      </trkpt>
      <trkpt lat="49.83026" lon="4.86168">
        <ele>340</ele>
        <time>2021-03-30T13:04:17.000Z</time>
      </trkpt>
      <trkpt lat="49.83025" lon="4.86175">
        <ele>340</ele>
        <time>2021-03-30T13:04:18.000Z</time>
      </trkpt>
      <trkpt lat="49.83024" lon="4.86182">
        <ele>340</ele>
        <time>2021-03-30T13:04:19.000Z</time>
      </trkpt>
      <trkpt lat="49.83023" lon="4.86189">
        <ele>340</ele>
        <time>2021-03-30T13:04:20.000Z</time>
      </trkpt>
      <trkpt lat="49.83022" lon="4.86196">
        <ele>340</ele>
        <time>2021-03-30T13:04:21.000Z</time>
      </trkpt>
      <trkpt lat="49.83021" lon="4.86203">
        <ele>340</ele>
        <time>2021-03-30T13:04:22.000Z</time>
      </trkpt>
      <trkpt lat="49.8302" lon="4.86209">
        <ele>341</ele>
        <time>2021-03-30T13:04:23.000Z</time>
      </trkpt>
      <trkpt lat="49.83019" lon="4.86216">
        <ele>341</ele>
        <time>2021-03-30T13:04:24.000Z</time>
      </trkpt>
      <trkpt lat="49.83017" lon="4.86222">
        <ele>341</ele>
        <time>2021-03-30T13:04:25.000Z</time>
      </trkpt>
      <trkpt lat="49.83016" lon="4.86229">
        <ele>341</ele>
        <time>2021-03-30T13:04:26.000Z</time>
      </trkpt>
      <trkpt lat="49.83014" lon="4.86235">
        <ele>341</ele>
        <time>2021-03-30T13:04:27.000Z</time>
      </trkpt>
      <trkpt lat="49.83013" lon="4.86241">
        <ele>341</ele>
        <time>2021-03-30T13:04:28.000Z</time>
      </trkpt>
      <trkpt lat="49.83011" lon="4.86248">
        <ele>341</ele>
        <time>2021-03-30T13:04:29.000Z</time>
      </trkpt>
      <trkpt lat="49.8301" lon="4.86254">
        <ele>341</ele>
        <time>2021-03-30T13:04:30.000Z</time>
      </trkpt>
      <trkpt lat="49.83009" lon="4.8626">
        <ele>341</ele>
        <time>2021-03-30T13:04:31.000Z</time>
      </trkpt>
      <trkpt lat="49.83007" lon="4.86267">
        <ele>341</ele>
        <time>2021-03-30T13:04:32.000Z</time>
      </trkpt>
      <trkpt lat="49.83006" lon="4.86273">
        <ele>342</ele>
        <time>2021-03-30T13:04:33.000Z</time>
      </trkpt>
      <trkpt lat="49.83005" lon="4.8628">
        <ele>342</ele>
        <time>2021-03-30T13:04:34.000Z</time>
      </trkpt>
      <trkpt lat="49.83003" lon="4.86286">
        <ele>342</ele>
        <time>2021-03-30T13:04:35.000Z</time>
      </trkpt>
      <trkpt lat="49.83001" lon="4.86293">
        <ele>342</ele>
        <time>2021-03-30T13:04:36.000Z</time>
      </trkpt>
      <trkpt lat="49.83" lon="4.863">
        <ele>342</ele>
        <time>2021-03-30T13:04:37.000Z</time>
      </trkpt>
      <trkpt lat="49.82998" lon="4.86306">
        <ele>342</ele>
        <time>2021-03-30T13:04:38.000Z</time>
      </trkpt>
      <trkpt lat="49.82996" lon="4.86313">
        <ele>342</ele>
        <time>2021-03-30T13:04:39.000Z</time>
      </trkpt>
      <trkpt lat="49.82995" lon="4.8632">
        <ele>342</ele>
        <time>2021-03-30T13:04:40.000Z</time>
      </trkpt>
      <trkpt lat="49.82993" lon="4.86326">
        <ele>343</ele>
        <time>2021-03-30T13:04:41.000Z</time>
      </trkpt>
      <trkpt lat="49.82991" lon="4.86332">
        <ele>343</ele>
        <time>2021-03-30T13:04:42.000Z</time>
      </trkpt>
      <trkpt lat="49.82988" lon="4.86339">
        <ele>343</ele>
        <time>2021-03-30T13:04:43.000Z</time>
      </trkpt>
      <trkpt lat="49.82985" lon="4.86344">
        <ele>343</ele>
        <time>2021-03-30T13:04:44.000Z</time>
      </trkpt>
      <trkpt lat="49.82983" lon="4.8635">
        <ele>343</ele>
        <time>2021-03-30T13:04:45.000Z</time>
      </trkpt>
      <trkpt lat="49.8298" lon="4.86356">
        <ele>343</ele>
        <time>2021-03-30T13:04:46.000Z</time>
      </trkpt>
      <trkpt lat="49.82977" lon="4.86361">
        <ele>343</ele>
        <time>2021-03-30T13:04:47.000Z</time>
      </trkpt>
      <trkpt lat="49.82975" lon="4.86367">
        <ele>343</ele>
        <time>2021-03-30T13:04:48.000Z</time>
      </trkpt>
      <trkpt lat="49.82972" lon="4.86373">
        <ele>343</ele>
        <time>2021-03-30T13:04:49.000Z</time>
      </trkpt>
      <trkpt lat="49.82969" lon="4.86379">
        <ele>343</ele>
        <time>2021-03-30T13:04:50.000Z</time>
      </trkpt>
      <trkpt lat="49.82965" lon="4.86385">
        <ele>343</ele>
        <time>2021-03-30T13:04:51.000Z</time>
      </trkpt>
      <trkpt lat="49.82963" lon="4.86391">
        <ele>343</ele>
        <time>2021-03-30T13:04:52.000Z</time>
      </trkpt>
      <trkpt lat="49.8296" lon="4.86397">
        <ele>344</ele>
        <time>2021-03-30T13:04:53.000Z</time>
      </trkpt>
      <trkpt lat="49.82957" lon="4.86403">
        <ele>344</ele>
        <time>2021-03-30T13:04:54.000Z</time>
      </trkpt>
      <trkpt lat="49.82954" lon="4.86409">
        <ele>344</ele>
        <time>2021-03-30T13:04:55.000Z</time>
      </trkpt>
      <trkpt lat="49.82952" lon="4.86415">
        <ele>344</ele>
        <time>2021-03-30T13:04:56.000Z</time>
      </trkpt>
      <trkpt lat="49.82949" lon="4.8642">
        <ele>344</ele>
        <time>2021-03-30T13:04:57.000Z</time>
      </trkpt>
      <trkpt lat="49.82946" lon="4.86426">
        <ele>344</ele>
        <time>2021-03-30T13:04:58.000Z</time>
      </trkpt>
      <trkpt lat="49.82944" lon="4.86432">
        <ele>344</ele>
        <time>2021-03-30T13:04:59.000Z</time>
      </trkpt>
      <trkpt lat="49.82941" lon="4.86438">
        <ele>344</ele>
        <time>2021-03-30T13:05:00.000Z</time>
      </trkpt>
      <trkpt lat="49.82938" lon="4.86444">
        <ele>344</ele>
        <time>2021-03-30T13:05:01.000Z</time>
      </trkpt>
      <trkpt lat="49.82935" lon="4.86449">
        <ele>344</ele>
        <time>2021-03-30T13:05:02.000Z</time>
      </trkpt>
      <trkpt lat="49.82932" lon="4.86455">
        <ele>344</ele>
        <time>2021-03-30T13:05:03.000Z</time>
      </trkpt>
      <trkpt lat="49.8293" lon="4.86461">
        <ele>345</ele>
        <time>2021-03-30T13:05:04.000Z</time>
      </trkpt>
      <trkpt lat="49.82927" lon="4.86466">
        <ele>345</ele>
        <time>2021-03-30T13:05:05.000Z</time>
      </trkpt>
      <trkpt lat="49.82925" lon="4.86471">
        <ele>345</ele>
        <time>2021-03-30T13:05:06.000Z</time>
      </trkpt>
      <trkpt lat="49.82923" lon="4.86476">
        <ele>345</ele>
        <time>2021-03-30T13:05:07.000Z</time>
      </trkpt>
      <trkpt lat="49.8292" lon="4.86481">
        <ele>345</ele>
        <time>2021-03-30T13:05:08.000Z</time>
      </trkpt>
      <trkpt lat="49.82917" lon="4.86485">
        <ele>345</ele>
        <time>2021-03-30T13:05:09.000Z</time>
      </trkpt>
      <trkpt lat="49.82915" lon="4.86491">
        <ele>346</ele>
        <time>2021-03-30T13:05:10.000Z</time>
      </trkpt>
      <trkpt lat="49.82913" lon="4.86496">
        <ele>346</ele>
        <time>2021-03-30T13:05:11.000Z</time>
      </trkpt>
      <trkpt lat="49.8291" lon="4.86501">
        <ele>346</ele>
        <time>2021-03-30T13:05:12.000Z</time>
      </trkpt>
      <trkpt lat="49.82908" lon="4.86505">
        <ele>346</ele>
        <time>2021-03-30T13:05:13.000Z</time>
      </trkpt>
      <trkpt lat="49.82905" lon="4.8651">
        <ele>346</ele>
        <time>2021-03-30T13:05:14.000Z</time>
      </trkpt>
      <trkpt lat="49.82903" lon="4.86515">
        <ele>346</ele>
        <time>2021-03-30T13:05:15.000Z</time>
      </trkpt>
      <trkpt lat="49.82899" lon="4.86519">
        <ele>346</ele>
        <time>2021-03-30T13:05:16.000Z</time>
      </trkpt>
      <trkpt lat="49.82896" lon="4.86523">
        <ele>346</ele>
        <time>2021-03-30T13:05:17.000Z</time>
      </trkpt>
      <trkpt lat="49.82892" lon="4.86524">
        <ele>346</ele>
        <time>2021-03-30T13:05:18.000Z</time>
      </trkpt>
      <trkpt lat="49.8289" lon="4.86522">
        <ele>346</ele>
        <time>2021-03-30T13:05:19.000Z</time>
      </trkpt>
      <trkpt lat="49.82888" lon="4.86518">
        <ele>346</ele>
        <time>2021-03-30T13:05:20.000Z</time>
      </trkpt>
      <trkpt lat="49.82886" lon="4.86513">
        <ele>346</ele>
        <time>2021-03-30T13:05:21.000Z</time>
      </trkpt>
      <trkpt lat="49.82884" lon="4.86507">
        <ele>346</ele>
        <time>2021-03-30T13:05:22.000Z</time>
      </trkpt>
      <trkpt lat="49.82882" lon="4.86499">
        <ele>346</ele>
        <time>2021-03-30T13:05:23.000Z</time>
      </trkpt>
      <trkpt lat="49.8288" lon="4.86491">
        <ele>345</ele>
        <time>2021-03-30T13:05:24.000Z</time>
      </trkpt>
      <trkpt lat="49.8288" lon="4.86481">
        <ele>345</ele>
        <time>2021-03-30T13:05:25.000Z</time>
      </trkpt>
      <trkpt lat="49.82879" lon="4.86472">
        <ele>345</ele>
        <time>2021-03-30T13:05:26.000Z</time>
      </trkpt>
      <trkpt lat="49.82878" lon="4.86462">
        <ele>345</ele>
        <time>2021-03-30T13:05:27.000Z</time>
      </trkpt>
      <trkpt lat="49.82875" lon="4.86452">
        <ele>345</ele>
        <time>2021-03-30T13:05:28.000Z</time>
      </trkpt>
      <trkpt lat="49.82872" lon="4.86443">
        <ele>345</ele>
        <time>2021-03-30T13:05:29.000Z</time>
      </trkpt>
      <trkpt lat="49.82868" lon="4.86433">
        <ele>345</ele>
        <time>2021-03-30T13:05:30.000Z</time>
      </trkpt>
      <trkpt lat="49.82863" lon="4.86424">
        <ele>344</ele>
        <time>2021-03-30T13:05:31.000Z</time>
      </trkpt>
      <trkpt lat="49.82858" lon="4.86415">
        <ele>344</ele>
        <time>2021-03-30T13:05:32.000Z</time>
      </trkpt>
      <trkpt lat="49.82852" lon="4.86408">
        <ele>344</ele>
        <time>2021-03-30T13:05:33.000Z</time>
      </trkpt>
      <trkpt lat="49.82846" lon="4.86402">
        <ele>343</ele>
        <time>2021-03-30T13:05:34.000Z</time>
      </trkpt>
      <trkpt lat="49.82841" lon="4.86395">
        <ele>343</ele>
        <time>2021-03-30T13:05:35.000Z</time>
      </trkpt>
      <trkpt lat="49.82836" lon="4.86386">
        <ele>342</ele>
        <time>2021-03-30T13:05:36.000Z</time>
      </trkpt>
      <trkpt lat="49.82831" lon="4.86376">
        <ele>342</ele>
        <time>2021-03-30T13:05:37.000Z</time>
      </trkpt>
      <trkpt lat="49.82827" lon="4.86364">
        <ele>342</ele>
        <time>2021-03-30T13:05:38.000Z</time>
      </trkpt>
      <trkpt lat="49.82824" lon="4.86352">
        <ele>341</ele>
        <time>2021-03-30T13:05:39.000Z</time>
      </trkpt>
      <trkpt lat="49.82822" lon="4.86341">
        <ele>341</ele>
        <time>2021-03-30T13:05:40.000Z</time>
      </trkpt>
      <trkpt lat="49.82819" lon="4.8633">
        <ele>340</ele>
        <time>2021-03-30T13:05:41.000Z</time>
      </trkpt>
      <trkpt lat="49.82816" lon="4.86319">
        <ele>340</ele>
        <time>2021-03-30T13:05:42.000Z</time>
      </trkpt>
      <trkpt lat="49.82813" lon="4.86309">
        <ele>339</ele>
        <time>2021-03-30T13:05:43.000Z</time>
      </trkpt>
      <trkpt lat="49.8281" lon="4.86299">
        <ele>339</ele>
        <time>2021-03-30T13:05:44.000Z</time>
      </trkpt>
      <trkpt lat="49.82806" lon="4.86289">
        <ele>338</ele>
        <time>2021-03-30T13:05:45.000Z</time>
      </trkpt>
      <trkpt lat="49.82801" lon="4.86279">
        <ele>337</ele>
        <time>2021-03-30T13:05:46.000Z</time>
      </trkpt>
      <trkpt lat="49.82796" lon="4.86269">
        <ele>336</ele>
        <time>2021-03-30T13:05:47.000Z</time>
      </trkpt>
      <trkpt lat="49.82791" lon="4.8626">
        <ele>335</ele>
        <time>2021-03-30T13:05:48.000Z</time>
      </trkpt>
      <trkpt lat="49.82785" lon="4.86251">
        <ele>334</ele>
        <time>2021-03-30T13:05:49.000Z</time>
      </trkpt>
      <trkpt lat="49.82779" lon="4.86243">
        <ele>333</ele>
        <time>2021-03-30T13:05:50.000Z</time>
      </trkpt>
      <trkpt lat="49.82773" lon="4.86235">
        <ele>331</ele>
        <time>2021-03-30T13:05:51.000Z</time>
      </trkpt>
      <trkpt lat="49.82766" lon="4.86229">
        <ele>330</ele>
        <time>2021-03-30T13:05:52.000Z</time>
      </trkpt>
      <trkpt lat="49.82759" lon="4.86223">
        <ele>329</ele>
        <time>2021-03-30T13:05:53.000Z</time>
      </trkpt>
      <trkpt lat="49.82751" lon="4.86216">
        <ele>328</ele>
        <time>2021-03-30T13:05:54.000Z</time>
      </trkpt>
      <trkpt lat="49.82743" lon="4.86209">
        <ele>327</ele>
        <time>2021-03-30T13:05:55.000Z</time>
      </trkpt>
      <trkpt lat="49.82736" lon="4.86203">
        <ele>325</ele>
        <time>2021-03-30T13:05:56.000Z</time>
      </trkpt>
      <trkpt lat="49.82729" lon="4.86198">
        <ele>324</ele>
        <time>2021-03-30T13:05:57.000Z</time>
      </trkpt>
      <trkpt lat="49.82723" lon="4.86192">
        <ele>323</ele>
        <time>2021-03-30T13:05:58.000Z</time>
      </trkpt>
      <trkpt lat="49.82718" lon="4.86187">
        <ele>322</ele>
        <time>2021-03-30T13:05:59.000Z</time>
      </trkpt>
      <trkpt lat="49.82714" lon="4.86182">
        <ele>322</ele>
        <time>2021-03-30T13:06:00.000Z</time>
      </trkpt>
      <trkpt lat="49.82709" lon="4.86178">
        <ele>321</ele>
        <time>2021-03-30T13:06:01.000Z</time>
      </trkpt>
      <trkpt lat="49.82706" lon="4.86173">
        <ele>320</ele>
        <time>2021-03-30T13:06:02.000Z</time>
      </trkpt>
      <trkpt lat="49.82704" lon="4.86167">
        <ele>320</ele>
        <time>2021-03-30T13:06:03.000Z</time>
      </trkpt>
      <trkpt lat="49.82703" lon="4.8616">
        <ele>320</ele>
        <time>2021-03-30T13:06:04.000Z</time>
      </trkpt>
      <trkpt lat="49.82703" lon="4.86154">
        <ele>319</ele>
        <time>2021-03-30T13:06:05.000Z</time>
      </trkpt>
      <trkpt lat="49.82705" lon="4.86148">
        <ele>319</ele>
        <time>2021-03-30T13:06:06.000Z</time>
      </trkpt>
      <trkpt lat="49.82707" lon="4.86143">
        <ele>319</ele>
        <time>2021-03-30T13:06:07.000Z</time>
      </trkpt>
      <trkpt lat="49.8271" lon="4.86137">
        <ele>319</ele>
        <time>2021-03-30T13:06:08.000Z</time>
      </trkpt>
      <trkpt lat="49.82713" lon="4.86132">
        <ele>319</ele>
        <time>2021-03-30T13:06:09.000Z</time>
      </trkpt>
      <trkpt lat="49.82715" lon="4.86125">
        <ele>319</ele>
        <time>2021-03-30T13:06:10.000Z</time>
      </trkpt>
      <trkpt lat="49.82717" lon="4.86118">
        <ele>319</ele>
        <time>2021-03-30T13:06:11.000Z</time>
      </trkpt>
      <trkpt lat="49.82718" lon="4.8611">
        <ele>319</ele>
        <time>2021-03-30T13:06:12.000Z</time>
      </trkpt>
      <trkpt lat="49.82717" lon="4.86102">
        <ele>318</ele>
        <time>2021-03-30T13:06:13.000Z</time>
      </trkpt>
      <trkpt lat="49.82716" lon="4.86094">
        <ele>318</ele>
        <time>2021-03-30T13:06:14.000Z</time>
      </trkpt>
      <trkpt lat="49.82715" lon="4.86086">
        <ele>318</ele>
        <time>2021-03-30T13:06:15.000Z</time>
      </trkpt>
      <trkpt lat="49.82712" lon="4.86078">
        <ele>317</ele>
        <time>2021-03-30T13:06:16.000Z</time>
      </trkpt>
      <trkpt lat="49.82708" lon="4.86069">
        <ele>317</ele>
        <time>2021-03-30T13:06:17.000Z</time>
      </trkpt>
      <trkpt lat="49.82704" lon="4.8606">
        <ele>317</ele>
        <time>2021-03-30T13:06:18.000Z</time>
      </trkpt>
      <trkpt lat="49.82699" lon="4.8605">
        <ele>316</ele>
        <time>2021-03-30T13:06:19.000Z</time>
      </trkpt>
      <trkpt lat="49.82694" lon="4.86038">
        <ele>316</ele>
        <time>2021-03-30T13:06:20.000Z</time>
      </trkpt>
      <trkpt lat="49.8269" lon="4.86025">
        <ele>315</ele>
        <time>2021-03-30T13:06:21.000Z</time>
      </trkpt>
      <trkpt lat="49.82687" lon="4.86011">
        <ele>315</ele>
        <time>2021-03-30T13:06:22.000Z</time>
      </trkpt>
      <trkpt lat="49.82684" lon="4.85996">
        <ele>314</ele>
        <time>2021-03-30T13:06:23.000Z</time>
      </trkpt>
      <trkpt lat="49.82681" lon="4.85981">
        <ele>313</ele>
        <time>2021-03-30T13:06:24.000Z</time>
      </trkpt>
      <trkpt lat="49.82678" lon="4.85966">
        <ele>313</ele>
        <time>2021-03-30T13:06:25.000Z</time>
      </trkpt>
      <trkpt lat="49.82675" lon="4.85951">
        <ele>312</ele>
        <time>2021-03-30T13:06:26.000Z</time>
      </trkpt>
      <trkpt lat="49.82673" lon="4.85936">
        <ele>311</ele>
        <time>2021-03-30T13:06:27.000Z</time>
      </trkpt>
      <trkpt lat="49.8267" lon="4.85921">
        <ele>310</ele>
        <time>2021-03-30T13:06:28.000Z</time>
      </trkpt>
      <trkpt lat="49.82667" lon="4.85907">
        <ele>309</ele>
        <time>2021-03-30T13:06:29.000Z</time>
      </trkpt>
      <trkpt lat="49.82665" lon="4.85893">
        <ele>308</ele>
        <time>2021-03-30T13:06:30.000Z</time>
      </trkpt>
      <trkpt lat="49.82665" lon="4.85881">
        <ele>307</ele>
        <time>2021-03-30T13:06:31.000Z</time>
      </trkpt>
      <trkpt lat="49.82665" lon="4.8587">
        <ele>306</ele>
        <time>2021-03-30T13:06:32.000Z</time>
      </trkpt>
      <trkpt lat="49.82667" lon="4.85859">
        <ele>305</ele>
        <time>2021-03-30T13:06:33.000Z</time>
      </trkpt>
      <trkpt lat="49.82668" lon="4.85847">
        <ele>304</ele>
        <time>2021-03-30T13:06:34.000Z</time>
      </trkpt>
      <trkpt lat="49.8267" lon="4.85835">
        <ele>303</ele>
        <time>2021-03-30T13:06:35.000Z</time>
      </trkpt>
      <trkpt lat="49.82672" lon="4.85826">
        <ele>302</ele>
        <time>2021-03-30T13:06:36.000Z</time>
      </trkpt>
      <trkpt lat="49.82675" lon="4.85818">
        <ele>301</ele>
        <time>2021-03-30T13:06:37.000Z</time>
      </trkpt>
      <trkpt lat="49.82676" lon="4.8581">
        <ele>300</ele>
        <time>2021-03-30T13:06:38.000Z</time>
      </trkpt>
      <trkpt lat="49.82677" lon="4.85804">
        <ele>300</ele>
        <time>2021-03-30T13:06:39.000Z</time>
      </trkpt>
      <trkpt lat="49.82675" lon="4.858">
        <ele>299</ele>
        <time>2021-03-30T13:06:40.000Z</time>
      </trkpt>
      <trkpt lat="49.82672" lon="4.85798">
        <ele>298</ele>
        <time>2021-03-30T13:06:41.000Z</time>
      </trkpt>
      <trkpt lat="49.82669" lon="4.85795">
        <ele>298</ele>
        <time>2021-03-30T13:06:42.000Z</time>
      </trkpt>
      <trkpt lat="49.82664" lon="4.85793">
        <ele>297</ele>
        <time>2021-03-30T13:06:43.000Z</time>
      </trkpt>
      <trkpt lat="49.82658" lon="4.85792">
        <ele>297</ele>
        <time>2021-03-30T13:06:44.000Z</time>
      </trkpt>
      <trkpt lat="49.82652" lon="4.85791">
        <ele>297</ele>
        <time>2021-03-30T13:06:45.000Z</time>
      </trkpt>
      <trkpt lat="49.82646" lon="4.85791">
        <ele>296</ele>
        <time>2021-03-30T13:06:46.000Z</time>
      </trkpt>
      <trkpt lat="49.82638" lon="4.85791">
        <ele>296</ele>
        <time>2021-03-30T13:06:47.000Z</time>
      </trkpt>
      <trkpt lat="49.82631" lon="4.85791">
        <ele>296</ele>
        <time>2021-03-30T13:06:48.000Z</time>
      </trkpt>
      <trkpt lat="49.82624" lon="4.85791">
        <ele>296</ele>
        <time>2021-03-30T13:06:49.000Z</time>
      </trkpt>
      <trkpt lat="49.82617" lon="4.85791">
        <ele>295</ele>
        <time>2021-03-30T13:06:50.000Z</time>
      </trkpt>
      <trkpt lat="49.82609" lon="4.8579">
        <ele>295</ele>
        <time>2021-03-30T13:06:51.000Z</time>
      </trkpt>
      <trkpt lat="49.82602" lon="4.85788">
        <ele>295</ele>
        <time>2021-03-30T13:06:52.000Z</time>
      </trkpt>
      <trkpt lat="49.82594" lon="4.85785">
        <ele>295</ele>
        <time>2021-03-30T13:06:53.000Z</time>
      </trkpt>
      <trkpt lat="49.82587" lon="4.85782">
        <ele>294</ele>
        <time>2021-03-30T13:06:54.000Z</time>
      </trkpt>
      <trkpt lat="49.82579" lon="4.85781">
        <ele>294</ele>
        <time>2021-03-30T13:06:55.000Z</time>
      </trkpt>
      <trkpt lat="49.82571" lon="4.8578">
        <ele>293</ele>
        <time>2021-03-30T13:06:56.000Z</time>
      </trkpt>
      <trkpt lat="49.82563" lon="4.85778">
        <ele>293</ele>
        <time>2021-03-30T13:06:57.000Z</time>
      </trkpt>
      <trkpt lat="49.82555" lon="4.85777">
        <ele>292</ele>
        <time>2021-03-30T13:06:58.000Z</time>
      </trkpt>
      <trkpt lat="49.82547" lon="4.85775">
        <ele>291</ele>
        <time>2021-03-30T13:06:59.000Z</time>
      </trkpt>
      <trkpt lat="49.8254" lon="4.85774">
        <ele>290</ele>
        <time>2021-03-30T13:07:00.000Z</time>
      </trkpt>
      <trkpt lat="49.82533" lon="4.85772">
        <ele>290</ele>
        <time>2021-03-30T13:07:01.000Z</time>
      </trkpt>
      <trkpt lat="49.82525" lon="4.85771">
        <ele>289</ele>
        <time>2021-03-30T13:07:02.000Z</time>
      </trkpt>
      <trkpt lat="49.82519" lon="4.8577">
        <ele>288</ele>
        <time>2021-03-30T13:07:03.000Z</time>
      </trkpt>
      <trkpt lat="49.82512" lon="4.85768">
        <ele>287</ele>
        <time>2021-03-30T13:07:04.000Z</time>
      </trkpt>
      <trkpt lat="49.82506" lon="4.85765">
        <ele>287</ele>
        <time>2021-03-30T13:07:05.000Z</time>
      </trkpt>
      <trkpt lat="49.82499" lon="4.85764">
        <ele>286</ele>
        <time>2021-03-30T13:07:06.000Z</time>
      </trkpt>
      <trkpt lat="49.82493" lon="4.85763">
        <ele>285</ele>
        <time>2021-03-30T13:07:07.000Z</time>
      </trkpt>
      <trkpt lat="49.82487" lon="4.85762">
        <ele>285</ele>
        <time>2021-03-30T13:07:08.000Z</time>
      </trkpt>
      <trkpt lat="49.82483" lon="4.85762">
        <ele>284</ele>
        <time>2021-03-30T13:07:09.000Z</time>
      </trkpt>
      <trkpt lat="49.82478" lon="4.85762">
        <ele>283</ele>
        <time>2021-03-30T13:07:10.000Z</time>
      </trkpt>
      <trkpt lat="49.82473" lon="4.85763">
        <ele>283</ele>
        <time>2021-03-30T13:07:11.000Z</time>
      </trkpt>
      <trkpt lat="49.82468" lon="4.85763">
        <ele>283</ele>
        <time>2021-03-30T13:07:12.000Z</time>
      </trkpt>
      <trkpt lat="49.82462" lon="4.85765">
        <ele>282</ele>
        <time>2021-03-30T13:07:13.000Z</time>
      </trkpt>
      <trkpt lat="49.82457" lon="4.85766">
        <ele>282</ele>
        <time>2021-03-30T13:07:14.000Z</time>
      </trkpt>
      <trkpt lat="49.82451" lon="4.85769">
        <ele>281</ele>
        <time>2021-03-30T13:07:15.000Z</time>
      </trkpt>
      <trkpt lat="49.82445" lon="4.85771">
        <ele>281</ele>
        <time>2021-03-30T13:07:16.000Z</time>
      </trkpt>
      <trkpt lat="49.82439" lon="4.85773">
        <ele>281</ele>
        <time>2021-03-30T13:07:17.000Z</time>
      </trkpt>
      <trkpt lat="49.82433" lon="4.85775">
        <ele>280</ele>
        <time>2021-03-30T13:07:18.000Z</time>
      </trkpt>
      <trkpt lat="49.82427" lon="4.85777">
        <ele>280</ele>
        <time>2021-03-30T13:07:19.000Z</time>
      </trkpt>
      <trkpt lat="49.82422" lon="4.85779">
        <ele>280</ele>
        <time>2021-03-30T13:07:20.000Z</time>
      </trkpt>
      <trkpt lat="49.82415" lon="4.85781">
        <ele>280</ele>
        <time>2021-03-30T13:07:21.000Z</time>
      </trkpt>
      <trkpt lat="49.8241" lon="4.85783">
        <ele>279</ele>
        <time>2021-03-30T13:07:22.000Z</time>
      </trkpt>
      <trkpt lat="49.82404" lon="4.85785">
        <ele>279</ele>
        <time>2021-03-30T13:07:23.000Z</time>
      </trkpt>
      <trkpt lat="49.82399" lon="4.85788">
        <ele>279</ele>
        <time>2021-03-30T13:07:24.000Z</time>
      </trkpt>
      <trkpt lat="49.82393" lon="4.8579">
        <ele>279</ele>
        <time>2021-03-30T13:07:25.000Z</time>
      </trkpt>
      <trkpt lat="49.82387" lon="4.85793">
        <ele>279</ele>
        <time>2021-03-30T13:07:26.000Z</time>
      </trkpt>
      <trkpt lat="49.82381" lon="4.85795">
        <ele>279</ele>
        <time>2021-03-30T13:07:27.000Z</time>
      </trkpt>
      <trkpt lat="49.82375" lon="4.85798">
        <ele>279</ele>
        <time>2021-03-30T13:07:28.000Z</time>
      </trkpt>
      <trkpt lat="49.82369" lon="4.85801">
        <ele>279</ele>
        <time>2021-03-30T13:07:29.000Z</time>
      </trkpt>
      <trkpt lat="49.82363" lon="4.85803">
        <ele>278</ele>
        <time>2021-03-30T13:07:30.000Z</time>
      </trkpt>
      <trkpt lat="49.82357" lon="4.85806">
        <ele>278</ele>
        <time>2021-03-30T13:07:31.000Z</time>
      </trkpt>
      <trkpt lat="49.8235" lon="4.8581">
        <ele>278</ele>
        <time>2021-03-30T13:07:32.000Z</time>
      </trkpt>
      <trkpt lat="49.82344" lon="4.85814">
        <ele>278</ele>
        <time>2021-03-30T13:07:33.000Z</time>
      </trkpt>
      <trkpt lat="49.82338" lon="4.85818">
        <ele>278</ele>
        <time>2021-03-30T13:07:34.000Z</time>
      </trkpt>
      <trkpt lat="49.82333" lon="4.85823">
        <ele>277</ele>
        <time>2021-03-30T13:07:35.000Z</time>
      </trkpt>
      <trkpt lat="49.82328" lon="4.8583">
        <ele>277</ele>
        <time>2021-03-30T13:07:36.000Z</time>
      </trkpt>
      <trkpt lat="49.82323" lon="4.85839">
        <ele>277</ele>
        <time>2021-03-30T13:07:37.000Z</time>
      </trkpt>
      <trkpt lat="49.82318" lon="4.85849">
        <ele>276</ele>
        <time>2021-03-30T13:07:38.000Z</time>
      </trkpt>
      <trkpt lat="49.82314" lon="4.8586">
        <ele>276</ele>
        <time>2021-03-30T13:07:39.000Z</time>
      </trkpt>
      <trkpt lat="49.8231" lon="4.8587">
        <ele>275</ele>
        <time>2021-03-30T13:07:40.000Z</time>
      </trkpt>
      <trkpt lat="49.82305" lon="4.8588">
        <ele>275</ele>
        <time>2021-03-30T13:07:41.000Z</time>
      </trkpt>
      <trkpt lat="49.82299" lon="4.85888">
        <ele>274</ele>
        <time>2021-03-30T13:07:42.000Z</time>
      </trkpt>
      <trkpt lat="49.82293" lon="4.85895">
        <ele>274</ele>
        <time>2021-03-30T13:07:43.000Z</time>
      </trkpt>
      <trkpt lat="49.82286" lon="4.859">
        <ele>273</ele>
        <time>2021-03-30T13:07:44.000Z</time>
      </trkpt>
      <trkpt lat="49.82279" lon="4.85903">
        <ele>273</ele>
        <time>2021-03-30T13:07:45.000Z</time>
      </trkpt>
      <trkpt lat="49.82271" lon="4.85905">
        <ele>272</ele>
        <time>2021-03-30T13:07:46.000Z</time>
      </trkpt>
      <trkpt lat="49.82263" lon="4.85906">
        <ele>272</ele>
        <time>2021-03-30T13:07:47.000Z</time>
      </trkpt>
      <trkpt lat="49.82255" lon="4.85907">
        <ele>272</ele>
        <time>2021-03-30T13:07:48.000Z</time>
      </trkpt>
      <trkpt lat="49.82247" lon="4.85908">
        <ele>271</ele>
        <time>2021-03-30T13:07:49.000Z</time>
      </trkpt>
      <trkpt lat="49.82238" lon="4.85909">
        <ele>271</ele>
        <time>2021-03-30T13:07:50.000Z</time>
      </trkpt>
      <trkpt lat="49.82229" lon="4.85909">
        <ele>271</ele>
        <time>2021-03-30T13:07:51.000Z</time>
      </trkpt>
      <trkpt lat="49.8222" lon="4.85907">
        <ele>270</ele>
        <time>2021-03-30T13:07:52.000Z</time>
      </trkpt>
      <trkpt lat="49.8221" lon="4.85904">
        <ele>270</ele>
        <time>2021-03-30T13:07:53.000Z</time>
      </trkpt>
      <trkpt lat="49.82202" lon="4.85901">
        <ele>269</ele>
        <time>2021-03-30T13:07:54.000Z</time>
      </trkpt>
      <trkpt lat="49.82193" lon="4.85897">
        <ele>269</ele>
        <time>2021-03-30T13:07:55.000Z</time>
      </trkpt>
      <trkpt lat="49.82185" lon="4.85893">
        <ele>268</ele>
        <time>2021-03-30T13:07:56.000Z</time>
      </trkpt>
      <trkpt lat="49.82177" lon="4.85888">
        <ele>268</ele>
        <time>2021-03-30T13:07:57.000Z</time>
      </trkpt>
      <trkpt lat="49.82168" lon="4.85883">
        <ele>267</ele>
        <time>2021-03-30T13:07:58.000Z</time>
      </trkpt>
      <trkpt lat="49.82159" lon="4.85878">
        <ele>266</ele>
        <time>2021-03-30T13:07:59.000Z</time>
      </trkpt>
      <trkpt lat="49.82151" lon="4.85874">
        <ele>265</ele>
        <time>2021-03-30T13:08:00.000Z</time>
      </trkpt>
      <trkpt lat="49.82143" lon="4.8587">
        <ele>264</ele>
        <time>2021-03-30T13:08:01.000Z</time>
      </trkpt>
      <trkpt lat="49.82135" lon="4.85864">
        <ele>264</ele>
        <time>2021-03-30T13:08:02.000Z</time>
      </trkpt>
      <trkpt lat="49.82128" lon="4.85857">
        <ele>263</ele>
        <time>2021-03-30T13:08:03.000Z</time>
      </trkpt>
      <trkpt lat="49.82121" lon="4.8585">
        <ele>262</ele>
        <time>2021-03-30T13:08:04.000Z</time>
      </trkpt>
      <trkpt lat="49.82114" lon="4.85842">
        <ele>262</ele>
        <time>2021-03-30T13:08:05.000Z</time>
      </trkpt>
      <trkpt lat="49.82107" lon="4.85835">
        <ele>261</ele>
        <time>2021-03-30T13:08:06.000Z</time>
      </trkpt>
      <trkpt lat="49.82099" lon="4.85829">
        <ele>261</ele>
        <time>2021-03-30T13:08:07.000Z</time>
      </trkpt>
      <trkpt lat="49.82092" lon="4.85823">
        <ele>260</ele>
        <time>2021-03-30T13:08:08.000Z</time>
      </trkpt>
      <trkpt lat="49.82086" lon="4.85816">
        <ele>260</ele>
        <time>2021-03-30T13:08:09.000Z</time>
      </trkpt>
      <trkpt lat="49.8208" lon="4.85808">
        <ele>259</ele>
        <time>2021-03-30T13:08:10.000Z</time>
      </trkpt>
      <trkpt lat="49.82074" lon="4.858">
        <ele>259</ele>
        <time>2021-03-30T13:08:11.000Z</time>
      </trkpt>
      <trkpt lat="49.82069" lon="4.85792">
        <ele>258</ele>
        <time>2021-03-30T13:08:12.000Z</time>
      </trkpt>
      <trkpt lat="49.82063" lon="4.85785">
        <ele>257</ele>
        <time>2021-03-30T13:08:13.000Z</time>
      </trkpt>
      <trkpt lat="49.82057" lon="4.85777">
        <ele>256</ele>
        <time>2021-03-30T13:08:14.000Z</time>
      </trkpt>
      <trkpt lat="49.82052" lon="4.85769">
        <ele>255</ele>
        <time>2021-03-30T13:08:15.000Z</time>
      </trkpt>
      <trkpt lat="49.82046" lon="4.85762">
        <ele>254</ele>
        <time>2021-03-30T13:08:16.000Z</time>
      </trkpt>
      <trkpt lat="49.82041" lon="4.85755">
        <ele>254</ele>
        <time>2021-03-30T13:08:17.000Z</time>
      </trkpt>
      <trkpt lat="49.82037" lon="4.85747">
        <ele>253</ele>
        <time>2021-03-30T13:08:18.000Z</time>
      </trkpt>
      <trkpt lat="49.82032" lon="4.8574">
        <ele>252</ele>
        <time>2021-03-30T13:08:19.000Z</time>
      </trkpt>
      <trkpt lat="49.82027" lon="4.85733">
        <ele>251</ele>
        <time>2021-03-30T13:08:20.000Z</time>
      </trkpt>
      <trkpt lat="49.82022" lon="4.85727">
        <ele>251</ele>
        <time>2021-03-30T13:08:21.000Z</time>
      </trkpt>
      <trkpt lat="49.82018" lon="4.8572">
        <ele>250</ele>
        <time>2021-03-30T13:08:22.000Z</time>
      </trkpt>
      <trkpt lat="49.82013" lon="4.85713">
        <ele>250</ele>
        <time>2021-03-30T13:08:23.000Z</time>
      </trkpt>
      <trkpt lat="49.82008" lon="4.85706">
        <ele>249</ele>
        <time>2021-03-30T13:08:24.000Z</time>
      </trkpt>
      <trkpt lat="49.82003" lon="4.85699">
        <ele>249</ele>
        <time>2021-03-30T13:08:25.000Z</time>
      </trkpt>
      <trkpt lat="49.81998" lon="4.85693">
        <ele>248</ele>
        <time>2021-03-30T13:08:26.000Z</time>
      </trkpt>
      <trkpt lat="49.81993" lon="4.85686">
        <ele>248</ele>
        <time>2021-03-30T13:08:27.000Z</time>
      </trkpt>
      <trkpt lat="49.81988" lon="4.8568">
        <ele>248</ele>
        <time>2021-03-30T13:08:28.000Z</time>
      </trkpt>
      <trkpt lat="49.81984" lon="4.85673">
        <ele>247</ele>
        <time>2021-03-30T13:08:29.000Z</time>
      </trkpt>
      <trkpt lat="49.81979" lon="4.85668">
        <ele>247</ele>
        <time>2021-03-30T13:08:30.000Z</time>
      </trkpt>
      <trkpt lat="49.81974" lon="4.85663">
        <ele>247</ele>
        <time>2021-03-30T13:08:31.000Z</time>
      </trkpt>
      <trkpt lat="49.81968" lon="4.85659">
        <ele>246</ele>
        <time>2021-03-30T13:08:32.000Z</time>
      </trkpt>
      <trkpt lat="49.81963" lon="4.85654">
        <ele>246</ele>
        <time>2021-03-30T13:08:33.000Z</time>
      </trkpt>
      <trkpt lat="49.81957" lon="4.85649">
        <ele>246</ele>
        <time>2021-03-30T13:08:34.000Z</time>
      </trkpt>
      <trkpt lat="49.81951" lon="4.85644">
        <ele>246</ele>
        <time>2021-03-30T13:08:35.000Z</time>
      </trkpt>
      <trkpt lat="49.81945" lon="4.85639">
        <ele>246</ele>
        <time>2021-03-30T13:08:36.000Z</time>
      </trkpt>
      <trkpt lat="49.81939" lon="4.85635">
        <ele>246</ele>
        <time>2021-03-30T13:08:37.000Z</time>
      </trkpt>
      <trkpt lat="49.81935" lon="4.85631">
        <ele>246</ele>
        <time>2021-03-30T13:08:38.000Z</time>
      </trkpt>
      <trkpt lat="49.8193" lon="4.85626">
        <ele>246</ele>
        <time>2021-03-30T13:08:39.000Z</time>
      </trkpt>
      <trkpt lat="49.81925" lon="4.85622">
        <ele>245</ele>
        <time>2021-03-30T13:08:40.000Z</time>
      </trkpt>
      <trkpt lat="49.81919" lon="4.85617">
        <ele>245</ele>
        <time>2021-03-30T13:08:41.000Z</time>
      </trkpt>
      <trkpt lat="49.81914" lon="4.85612">
        <ele>245</ele>
        <time>2021-03-30T13:08:42.000Z</time>
      </trkpt>
      <trkpt lat="49.81909" lon="4.85608">
        <ele>245</ele>
        <time>2021-03-30T13:08:43.000Z</time>
      </trkpt>
      <trkpt lat="49.81904" lon="4.85603">
        <ele>245</ele>
        <time>2021-03-30T13:08:44.000Z</time>
      </trkpt>
      <trkpt lat="49.81898" lon="4.85597">
        <ele>245</ele>
        <time>2021-03-30T13:08:45.000Z</time>
      </trkpt>
      <trkpt lat="49.81893" lon="4.85592">
        <ele>245</ele>
        <time>2021-03-30T13:08:46.000Z</time>
      </trkpt>
      <trkpt lat="49.81888" lon="4.85585">
        <ele>244</ele>
        <time>2021-03-30T13:08:47.000Z</time>
      </trkpt>
      <trkpt lat="49.81883" lon="4.85578">
        <ele>244</ele>
        <time>2021-03-30T13:08:48.000Z</time>
      </trkpt>
      <trkpt lat="49.81879" lon="4.85571">
        <ele>244</ele>
        <time>2021-03-30T13:08:49.000Z</time>
      </trkpt>
      <trkpt lat="49.81875" lon="4.85562">
        <ele>243</ele>
        <time>2021-03-30T13:08:50.000Z</time>
      </trkpt>
      <trkpt lat="49.8187" lon="4.85553">
        <ele>243</ele>
        <time>2021-03-30T13:08:51.000Z</time>
      </trkpt>
      <trkpt lat="49.81866" lon="4.85543">
        <ele>242</ele>
        <time>2021-03-30T13:08:52.000Z</time>
      </trkpt>
      <trkpt lat="49.81861" lon="4.85533">
        <ele>242</ele>
        <time>2021-03-30T13:08:53.000Z</time>
      </trkpt>
      <trkpt lat="49.81858" lon="4.85523">
        <ele>242</ele>
        <time>2021-03-30T13:08:54.000Z</time>
      </trkpt>
      <trkpt lat="49.81854" lon="4.85512">
        <ele>241</ele>
        <time>2021-03-30T13:08:55.000Z</time>
      </trkpt>
      <trkpt lat="49.81851" lon="4.85501">
        <ele>241</ele>
        <time>2021-03-30T13:08:56.000Z</time>
      </trkpt>
      <trkpt lat="49.81848" lon="4.8549">
        <ele>241</ele>
        <time>2021-03-30T13:08:57.000Z</time>
      </trkpt>
      <trkpt lat="49.81844" lon="4.8548">
        <ele>241</ele>
        <time>2021-03-30T13:08:58.000Z</time>
      </trkpt>
      <trkpt lat="49.81842" lon="4.85471">
        <ele>240</ele>
        <time>2021-03-30T13:08:59.000Z</time>
      </trkpt>
      <trkpt lat="49.8184" lon="4.85461">
        <ele>240</ele>
        <time>2021-03-30T13:09:00.000Z</time>
      </trkpt>
      <trkpt lat="49.81837" lon="4.85451">
        <ele>240</ele>
        <time>2021-03-30T13:09:01.000Z</time>
      </trkpt>
      <trkpt lat="49.81836" lon="4.8544">
        <ele>240</ele>
        <time>2021-03-30T13:09:02.000Z</time>
      </trkpt>
      <trkpt lat="49.81834" lon="4.85429">
        <ele>239</ele>
        <time>2021-03-30T13:09:03.000Z</time>
      </trkpt>
      <trkpt lat="49.81833" lon="4.85419">
        <ele>239</ele>
        <time>2021-03-30T13:09:04.000Z</time>
      </trkpt>
      <trkpt lat="49.81832" lon="4.85408">
        <ele>239</ele>
        <time>2021-03-30T13:09:05.000Z</time>
      </trkpt>
      <trkpt lat="49.81832" lon="4.85398">
        <ele>239</ele>
        <time>2021-03-30T13:09:06.000Z</time>
      </trkpt>
      <trkpt lat="49.81831" lon="4.85387">
        <ele>238</ele>
        <time>2021-03-30T13:09:07.000Z</time>
      </trkpt>
      <trkpt lat="49.8183" lon="4.85376">
        <ele>238</ele>
        <time>2021-03-30T13:09:08.000Z</time>
      </trkpt>
      <trkpt lat="49.8183" lon="4.85365">
        <ele>238</ele>
        <time>2021-03-30T13:09:09.000Z</time>
      </trkpt>
      <trkpt lat="49.8183" lon="4.85354">
        <ele>237</ele>
        <time>2021-03-30T13:09:10.000Z</time>
      </trkpt>
      <trkpt lat="49.81829" lon="4.85342">
        <ele>237</ele>
        <time>2021-03-30T13:09:11.000Z</time>
      </trkpt>
      <trkpt lat="49.8183" lon="4.85331">
        <ele>237</ele>
        <time>2021-03-30T13:09:12.000Z</time>
      </trkpt>
      <trkpt lat="49.81832" lon="4.8532">
        <ele>236</ele>
        <time>2021-03-30T13:09:13.000Z</time>
      </trkpt>
      <trkpt lat="49.81834" lon="4.85309">
        <ele>236</ele>
        <time>2021-03-30T13:09:14.000Z</time>
      </trkpt>
      <trkpt lat="49.81836" lon="4.85299">
        <ele>236</ele>
        <time>2021-03-30T13:09:15.000Z</time>
      </trkpt>
      <trkpt lat="49.81838" lon="4.85289">
        <ele>235</ele>
        <time>2021-03-30T13:09:16.000Z</time>
      </trkpt>
      <trkpt lat="49.81839" lon="4.85278">
        <ele>235</ele>
        <time>2021-03-30T13:09:17.000Z</time>
      </trkpt>
      <trkpt lat="49.8184" lon="4.85267">
        <ele>235</ele>
        <time>2021-03-30T13:09:18.000Z</time>
      </trkpt>
      <trkpt lat="49.8184" lon="4.85257">
        <ele>235</ele>
        <time>2021-03-30T13:09:19.000Z</time>
      </trkpt>
      <trkpt lat="49.81841" lon="4.85247">
        <ele>235</ele>
        <time>2021-03-30T13:09:20.000Z</time>
      </trkpt>
      <trkpt lat="49.81842" lon="4.85236">
        <ele>234</ele>
        <time>2021-03-30T13:09:21.000Z</time>
      </trkpt>
      <trkpt lat="49.81843" lon="4.85226">
        <ele>234</ele>
        <time>2021-03-30T13:09:22.000Z</time>
      </trkpt>
      <trkpt lat="49.81845" lon="4.85215">
        <ele>234</ele>
        <time>2021-03-30T13:09:23.000Z</time>
      </trkpt>
      <trkpt lat="49.81846" lon="4.85205">
        <ele>234</ele>
        <time>2021-03-30T13:09:24.000Z</time>
      </trkpt>
      <trkpt lat="49.81847" lon="4.85194">
        <ele>233</ele>
        <time>2021-03-30T13:09:25.000Z</time>
      </trkpt>
      <trkpt lat="49.81849" lon="4.85183">
        <ele>233</ele>
        <time>2021-03-30T13:09:26.000Z</time>
      </trkpt>
      <trkpt lat="49.8185" lon="4.85172">
        <ele>233</ele>
        <time>2021-03-30T13:09:27.000Z</time>
      </trkpt>
      <trkpt lat="49.81851" lon="4.8516">
        <ele>232</ele>
        <time>2021-03-30T13:09:28.000Z</time>
      </trkpt>
      <trkpt lat="49.81852" lon="4.85149">
        <ele>232</ele>
        <time>2021-03-30T13:09:29.000Z</time>
      </trkpt>
      <trkpt lat="49.81853" lon="4.85138">
        <ele>232</ele>
        <time>2021-03-30T13:09:30.000Z</time>
      </trkpt>
      <trkpt lat="49.81854" lon="4.85127">
        <ele>232</ele>
        <time>2021-03-30T13:09:31.000Z</time>
      </trkpt>
      <trkpt lat="49.81855" lon="4.85117">
        <ele>231</ele>
        <time>2021-03-30T13:09:32.000Z</time>
      </trkpt>
      <trkpt lat="49.81856" lon="4.85107">
        <ele>231</ele>
        <time>2021-03-30T13:09:33.000Z</time>
      </trkpt>
      <trkpt lat="49.81857" lon="4.85098">
        <ele>231</ele>
        <time>2021-03-30T13:09:34.000Z</time>
      </trkpt>
      <trkpt lat="49.81858" lon="4.85089">
        <ele>231</ele>
        <time>2021-03-30T13:09:35.000Z</time>
      </trkpt>
      <trkpt lat="49.81859" lon="4.8508">
        <ele>231</ele>
        <time>2021-03-30T13:09:36.000Z</time>
      </trkpt>
      <trkpt lat="49.81861" lon="4.85071">
        <ele>231</ele>
        <time>2021-03-30T13:09:37.000Z</time>
      </trkpt>
      <trkpt lat="49.81862" lon="4.85063">
        <ele>231</ele>
        <time>2021-03-30T13:09:38.000Z</time>
      </trkpt>
      <trkpt lat="49.81863" lon="4.85054">
        <ele>231</ele>
        <time>2021-03-30T13:09:39.000Z</time>
      </trkpt>
      <trkpt lat="49.81864" lon="4.85045">
        <ele>231</ele>
        <time>2021-03-30T13:09:40.000Z</time>
      </trkpt>
      <trkpt lat="49.81865" lon="4.85036">
        <ele>230</ele>
        <time>2021-03-30T13:09:41.000Z</time>
      </trkpt>
      <trkpt lat="49.81866" lon="4.85026">
        <ele>230</ele>
        <time>2021-03-30T13:09:42.000Z</time>
      </trkpt>
      <trkpt lat="49.81866" lon="4.85017">
        <ele>230</ele>
        <time>2021-03-30T13:09:43.000Z</time>
      </trkpt>
      <trkpt lat="49.81866" lon="4.85008">
        <ele>230</ele>
        <time>2021-03-30T13:09:44.000Z</time>
      </trkpt>
      <trkpt lat="49.81864" lon="4.84999">
        <ele>230</ele>
        <time>2021-03-30T13:09:45.000Z</time>
      </trkpt>
      <trkpt lat="49.81861" lon="4.84991">
        <ele>229</ele>
        <time>2021-03-30T13:09:46.000Z</time>
      </trkpt>
      <trkpt lat="49.81858" lon="4.84981">
        <ele>229</ele>
        <time>2021-03-30T13:09:47.000Z</time>
      </trkpt>
      <trkpt lat="49.81855" lon="4.84971">
        <ele>229</ele>
        <time>2021-03-30T13:09:48.000Z</time>
      </trkpt>
      <trkpt lat="49.81851" lon="4.84962">
        <ele>229</ele>
        <time>2021-03-30T13:09:49.000Z</time>
      </trkpt>
      <trkpt lat="49.81848" lon="4.84952">
        <ele>229</ele>
        <time>2021-03-30T13:09:50.000Z</time>
      </trkpt>
      <trkpt lat="49.81845" lon="4.84943">
        <ele>228</ele>
        <time>2021-03-30T13:09:51.000Z</time>
      </trkpt>
      <trkpt lat="49.81842" lon="4.84937">
        <ele>228</ele>
        <time>2021-03-30T13:09:52.000Z</time>
      </trkpt>
      <trkpt lat="49.81839" lon="4.84933">
        <ele>228</ele>
        <time>2021-03-30T13:09:53.000Z</time>
      </trkpt>
      <trkpt lat="49.81835" lon="4.84931">
        <ele>228</ele>
        <time>2021-03-30T13:09:54.000Z</time>
      </trkpt>
      <trkpt lat="49.81832" lon="4.84931">
        <ele>228</ele>
        <time>2021-03-30T13:09:55.000Z</time>
      </trkpt>
      <trkpt lat="49.81828" lon="4.84934">
        <ele>228</ele>
        <time>2021-03-30T13:09:56.000Z</time>
      </trkpt>
      <trkpt lat="49.81825" lon="4.84937">
        <ele>228</ele>
        <time>2021-03-30T13:09:57.000Z</time>
      </trkpt>
      <trkpt lat="49.8182" lon="4.84938">
        <ele>228</ele>
        <time>2021-03-30T13:09:58.000Z</time>
      </trkpt>
      <trkpt lat="49.81814" lon="4.84939">
        <ele>228</ele>
        <time>2021-03-30T13:09:59.000Z</time>
      </trkpt>
      <trkpt lat="49.81807" lon="4.8494">
        <ele>228</ele>
        <time>2021-03-30T13:10:00.000Z</time>
      </trkpt>
      <trkpt lat="49.818" lon="4.84941">
        <ele>228</ele>
        <time>2021-03-30T13:10:01.000Z</time>
      </trkpt>
      <trkpt lat="49.81793" lon="4.84941">
        <ele>228</ele>
        <time>2021-03-30T13:10:02.000Z</time>
      </trkpt>
      <trkpt lat="49.81786" lon="4.84942">
        <ele>227</ele>
        <time>2021-03-30T13:10:03.000Z</time>
      </trkpt>
      <trkpt lat="49.81779" lon="4.84943">
        <ele>227</ele>
        <time>2021-03-30T13:10:04.000Z</time>
      </trkpt>
      <trkpt lat="49.81771" lon="4.84943">
        <ele>226</ele>
        <time>2021-03-30T13:10:05.000Z</time>
      </trkpt>
      <trkpt lat="49.81764" lon="4.84944">
        <ele>226</ele>
        <time>2021-03-30T13:10:06.000Z</time>
      </trkpt>
      <trkpt lat="49.81756" lon="4.84945">
        <ele>226</ele>
        <time>2021-03-30T13:10:07.000Z</time>
      </trkpt>
      <trkpt lat="49.81748" lon="4.84944">
        <ele>225</ele>
        <time>2021-03-30T13:10:08.000Z</time>
      </trkpt>
      <trkpt lat="49.81739" lon="4.84944">
        <ele>224</ele>
        <time>2021-03-30T13:10:09.000Z</time>
      </trkpt>
      <trkpt lat="49.81731" lon="4.84944">
        <ele>224</ele>
        <time>2021-03-30T13:10:10.000Z</time>
      </trkpt>
      <trkpt lat="49.81722" lon="4.84944">
        <ele>223</ele>
        <time>2021-03-30T13:10:11.000Z</time>
      </trkpt>
      <trkpt lat="49.81714" lon="4.84944">
        <ele>223</ele>
        <time>2021-03-30T13:10:12.000Z</time>
      </trkpt>
      <trkpt lat="49.81705" lon="4.84944">
        <ele>222</ele>
        <time>2021-03-30T13:10:13.000Z</time>
      </trkpt>
      <trkpt lat="49.81697" lon="4.84943">
        <ele>222</ele>
        <time>2021-03-30T13:10:14.000Z</time>
      </trkpt>
      <trkpt lat="49.81688" lon="4.84944">
        <ele>221</ele>
        <time>2021-03-30T13:10:15.000Z</time>
      </trkpt>
      <trkpt lat="49.8168" lon="4.84944">
        <ele>221</ele>
        <time>2021-03-30T13:10:16.000Z</time>
      </trkpt>
      <trkpt lat="49.81672" lon="4.84943">
        <ele>220</ele>
        <time>2021-03-30T13:10:17.000Z</time>
      </trkpt>
      <trkpt lat="49.81665" lon="4.84943">
        <ele>220</ele>
        <time>2021-03-30T13:10:18.000Z</time>
      </trkpt>
      <trkpt lat="49.81658" lon="4.84941">
        <ele>219</ele>
        <time>2021-03-30T13:10:19.000Z</time>
      </trkpt>
      <trkpt lat="49.81651" lon="4.8494">
        <ele>219</ele>
        <time>2021-03-30T13:10:20.000Z</time>
      </trkpt>
      <trkpt lat="49.81644" lon="4.84939">
        <ele>218</ele>
        <time>2021-03-30T13:10:21.000Z</time>
      </trkpt>
      <trkpt lat="49.81637" lon="4.84938">
        <ele>218</ele>
        <time>2021-03-30T13:10:22.000Z</time>
      </trkpt>
      <trkpt lat="49.81631" lon="4.84937">
        <ele>218</ele>
        <time>2021-03-30T13:10:23.000Z</time>
      </trkpt>
      <trkpt lat="49.81625" lon="4.84936">
        <ele>218</ele>
        <time>2021-03-30T13:10:24.000Z</time>
      </trkpt>
      <trkpt lat="49.81619" lon="4.84936">
        <ele>218</ele>
        <time>2021-03-30T13:10:25.000Z</time>
      </trkpt>
      <trkpt lat="49.81614" lon="4.84935">
        <ele>218</ele>
        <time>2021-03-30T13:10:26.000Z</time>
      </trkpt>
      <trkpt lat="49.81609" lon="4.84935">
        <ele>218</ele>
        <time>2021-03-30T13:10:27.000Z</time>
      </trkpt>
      <trkpt lat="49.81604" lon="4.84934">
        <ele>218</ele>
        <time>2021-03-30T13:10:28.000Z</time>
      </trkpt>
      <trkpt lat="49.816" lon="4.84934">
        <ele>218</ele>
        <time>2021-03-30T13:10:29.000Z</time>
      </trkpt>
      <trkpt lat="49.81596" lon="4.84934">
        <ele>218</ele>
        <time>2021-03-30T13:10:30.000Z</time>
      </trkpt>
      <trkpt lat="49.81592" lon="4.84934">
        <ele>218</ele>
        <time>2021-03-30T13:10:31.000Z</time>
      </trkpt>
      <trkpt lat="49.81588" lon="4.84933">
        <ele>218</ele>
        <time>2021-03-30T13:10:32.000Z</time>
      </trkpt>
      <trkpt lat="49.81584" lon="4.84933">
        <ele>218</ele>
        <time>2021-03-30T13:10:33.000Z</time>
      </trkpt>
      <trkpt lat="49.8158" lon="4.84933">
        <ele>218</ele>
        <time>2021-03-30T13:10:34.000Z</time>
      </trkpt>
      <trkpt lat="49.81577" lon="4.84934">
        <ele>218</ele>
        <time>2021-03-30T13:10:35.000Z</time>
      </trkpt>
      <trkpt lat="49.81573" lon="4.84935">
        <ele>218</ele>
        <time>2021-03-30T13:10:36.000Z</time>
      </trkpt>
      <trkpt lat="49.8157" lon="4.84938">
        <ele>218</ele>
        <time>2021-03-30T13:10:37.000Z</time>
      </trkpt>
      <trkpt lat="49.81567" lon="4.84942">
        <ele>218</ele>
        <time>2021-03-30T13:10:38.000Z</time>
      </trkpt>
      <trkpt lat="49.81565" lon="4.84948">
        <ele>218</ele>
        <time>2021-03-30T13:10:39.000Z</time>
      </trkpt>
      <trkpt lat="49.81562" lon="4.84954">
        <ele>218</ele>
        <time>2021-03-30T13:10:40.000Z</time>
      </trkpt>
      <trkpt lat="49.81559" lon="4.8496">
        <ele>218</ele>
        <time>2021-03-30T13:10:41.000Z</time>
      </trkpt>
      <trkpt lat="49.81557" lon="4.84966">
        <ele>218</ele>
        <time>2021-03-30T13:10:42.000Z</time>
      </trkpt>
      <trkpt lat="49.81554" lon="4.84973">
        <ele>218</ele>
        <time>2021-03-30T13:10:43.000Z</time>
      </trkpt>
      <trkpt lat="49.8155" lon="4.84979">
        <ele>218</ele>
        <time>2021-03-30T13:10:44.000Z</time>
      </trkpt>
      <trkpt lat="49.81546" lon="4.84984">
        <ele>218</ele>
        <time>2021-03-30T13:10:45.000Z</time>
      </trkpt>
      <trkpt lat="49.81543" lon="4.84987">
        <ele>218</ele>
        <time>2021-03-30T13:10:46.000Z</time>
      </trkpt>
      <trkpt lat="49.8154" lon="4.84989">
        <ele>218</ele>
        <time>2021-03-30T13:10:47.000Z</time>
      </trkpt>
      <trkpt lat="49.81537" lon="4.8499">
        <ele>218</ele>
        <time>2021-03-30T13:10:48.000Z</time>
      </trkpt>
      <trkpt lat="49.81534" lon="4.8499">
        <ele>218</ele>
        <time>2021-03-30T13:10:49.000Z</time>
      </trkpt>
      <trkpt lat="49.81531" lon="4.84988">
        <ele>219</ele>
        <time>2021-03-30T13:10:50.000Z</time>
      </trkpt>
      <trkpt lat="49.81528" lon="4.84987">
        <ele>219</ele>
        <time>2021-03-30T13:10:51.000Z</time>
      </trkpt>
      <trkpt lat="49.81526" lon="4.84984">
        <ele>219</ele>
        <time>2021-03-30T13:10:52.000Z</time>
      </trkpt>
      <trkpt lat="49.81526" lon="4.84981">
        <ele>219</ele>
        <time>2021-03-30T13:10:53.000Z</time>
      </trkpt>
      <trkpt lat="49.81525" lon="4.84977">
        <ele>219</ele>
        <time>2021-03-30T13:10:54.000Z</time>
      </trkpt>
      <trkpt lat="49.81526" lon="4.84972">
        <ele>219</ele>
        <time>2021-03-30T13:10:55.000Z</time>
      </trkpt>
      <trkpt lat="49.81527" lon="4.84968">
        <ele>219</ele>
        <time>2021-03-30T13:10:56.000Z</time>
      </trkpt>
      <trkpt lat="49.81528" lon="4.84962">
        <ele>219</ele>
        <time>2021-03-30T13:10:57.000Z</time>
      </trkpt>
      <trkpt lat="49.8153" lon="4.84957">
        <ele>219</ele>
        <time>2021-03-30T13:10:58.000Z</time>
      </trkpt>
      <trkpt lat="49.81531" lon="4.84951">
        <ele>219</ele>
        <time>2021-03-30T13:10:59.000Z</time>
      </trkpt>
      <trkpt lat="49.81533" lon="4.84946">
        <ele>220</ele>
        <time>2021-03-30T13:11:00.000Z</time>
      </trkpt>
      <trkpt lat="49.81535" lon="4.84941">
        <ele>220</ele>
        <time>2021-03-30T13:11:01.000Z</time>
      </trkpt>
      <trkpt lat="49.81537" lon="4.84935">
        <ele>220</ele>
        <time>2021-03-30T13:11:02.000Z</time>
      </trkpt>
      <trkpt lat="49.81538" lon="4.84929">
        <ele>220</ele>
        <time>2021-03-30T13:11:03.000Z</time>
      </trkpt>
      <trkpt lat="49.81539" lon="4.84922">
        <ele>220</ele>
        <time>2021-03-30T13:11:04.000Z</time>
      </trkpt>
      <trkpt lat="49.81541" lon="4.84916">
        <ele>220</ele>
        <time>2021-03-30T13:11:05.000Z</time>
      </trkpt>
      <trkpt lat="49.81541" lon="4.8491">
        <ele>220</ele>
        <time>2021-03-30T13:11:06.000Z</time>
      </trkpt>
      <trkpt lat="49.81542" lon="4.84904">
        <ele>220</ele>
        <time>2021-03-30T13:11:07.000Z</time>
      </trkpt>
      <trkpt lat="49.81541" lon="4.84897">
        <ele>221</ele>
        <time>2021-03-30T13:11:08.000Z</time>
      </trkpt>
      <trkpt lat="49.81541" lon="4.84891">
        <ele>221</ele>
        <time>2021-03-30T13:11:09.000Z</time>
      </trkpt>
      <trkpt lat="49.8154" lon="4.84885">
        <ele>221</ele>
        <time>2021-03-30T13:11:10.000Z</time>
      </trkpt>
      <trkpt lat="49.8154" lon="4.84879">
        <ele>221</ele>
        <time>2021-03-30T13:11:11.000Z</time>
      </trkpt>
      <trkpt lat="49.81539" lon="4.84873">
        <ele>222</ele>
        <time>2021-03-30T13:11:12.000Z</time>
      </trkpt>
      <trkpt lat="49.81538" lon="4.84868">
        <ele>222</ele>
        <time>2021-03-30T13:11:13.000Z</time>
      </trkpt>
      <trkpt lat="49.81537" lon="4.84862">
        <ele>222</ele>
        <time>2021-03-30T13:11:14.000Z</time>
      </trkpt>
      <trkpt lat="49.81536" lon="4.84857">
        <ele>222</ele>
        <time>2021-03-30T13:11:15.000Z</time>
      </trkpt>
      <trkpt lat="49.81535" lon="4.84852">
        <ele>222</ele>
        <time>2021-03-30T13:11:16.000Z</time>
      </trkpt>
      <trkpt lat="49.81535" lon="4.84846">
        <ele>222</ele>
        <time>2021-03-30T13:11:17.000Z</time>
      </trkpt>
      <trkpt lat="49.81534" lon="4.8484">
        <ele>222</ele>
        <time>2021-03-30T13:11:18.000Z</time>
      </trkpt>
      <trkpt lat="49.81533" lon="4.84834">
        <ele>222</ele>
        <time>2021-03-30T13:11:19.000Z</time>
      </trkpt>
      <trkpt lat="49.81532" lon="4.84827">
        <ele>222</ele>
        <time>2021-03-30T13:11:20.000Z</time>
      </trkpt>
      <trkpt lat="49.81531" lon="4.8482">
        <ele>222</ele>
        <time>2021-03-30T13:11:21.000Z</time>
      </trkpt>
      <trkpt lat="49.81529" lon="4.84813">
        <ele>222</ele>
        <time>2021-03-30T13:11:22.000Z</time>
      </trkpt>
      <trkpt lat="49.81528" lon="4.84807">
        <ele>222</ele>
        <time>2021-03-30T13:11:23.000Z</time>
      </trkpt>
      <trkpt lat="49.81527" lon="4.848">
        <ele>222</ele>
        <time>2021-03-30T13:11:24.000Z</time>
      </trkpt>
      <trkpt lat="49.81525" lon="4.84794">
        <ele>222</ele>
        <time>2021-03-30T13:11:25.000Z</time>
      </trkpt>
      <trkpt lat="49.81523" lon="4.84787">
        <ele>222</ele>
        <time>2021-03-30T13:11:26.000Z</time>
      </trkpt>
      <trkpt lat="49.81522" lon="4.84779">
        <ele>222</ele>
        <time>2021-03-30T13:11:27.000Z</time>
      </trkpt>
      <trkpt lat="49.8152" lon="4.84772">
        <ele>222</ele>
        <time>2021-03-30T13:11:28.000Z</time>
      </trkpt>
      <trkpt lat="49.81518" lon="4.84765">
        <ele>222</ele>
        <time>2021-03-30T13:11:29.000Z</time>
      </trkpt>
      <trkpt lat="49.81516" lon="4.84757">
        <ele>222</ele>
        <time>2021-03-30T13:11:30.000Z</time>
      </trkpt>
      <trkpt lat="49.81514" lon="4.84749">
        <ele>222</ele>
        <time>2021-03-30T13:11:31.000Z</time>
      </trkpt>
      <trkpt lat="49.81512" lon="4.84742">
        <ele>222</ele>
        <time>2021-03-30T13:11:32.000Z</time>
      </trkpt>
      <trkpt lat="49.81511" lon="4.84734">
        <ele>222</ele>
        <time>2021-03-30T13:11:33.000Z</time>
      </trkpt>
      <trkpt lat="49.8151" lon="4.84726">
        <ele>222</ele>
        <time>2021-03-30T13:11:34.000Z</time>
      </trkpt>
      <trkpt lat="49.81508" lon="4.84718">
        <ele>222</ele>
        <time>2021-03-30T13:11:35.000Z</time>
      </trkpt>
      <trkpt lat="49.81506" lon="4.8471">
        <ele>222</ele>
        <time>2021-03-30T13:11:36.000Z</time>
      </trkpt>
      <trkpt lat="49.81505" lon="4.84703">
        <ele>223</ele>
        <time>2021-03-30T13:11:37.000Z</time>
      </trkpt>
      <trkpt lat="49.81503" lon="4.84696">
        <ele>223</ele>
        <time>2021-03-30T13:11:38.000Z</time>
      </trkpt>
      <trkpt lat="49.81502" lon="4.8469">
        <ele>223</ele>
        <time>2021-03-30T13:11:39.000Z</time>
      </trkpt>
      <trkpt lat="49.81501" lon="4.84683">
        <ele>223</ele>
        <time>2021-03-30T13:11:40.000Z</time>
      </trkpt>
      <trkpt lat="49.81499" lon="4.84676">
        <ele>223</ele>
        <time>2021-03-30T13:11:41.000Z</time>
      </trkpt>
      <trkpt lat="49.81498" lon="4.8467">
        <ele>223</ele>
        <time>2021-03-30T13:11:42.000Z</time>
      </trkpt>
      <trkpt lat="49.81496" lon="4.84663">
        <ele>223</ele>
        <time>2021-03-30T13:11:43.000Z</time>
      </trkpt>
      <trkpt lat="49.81493" lon="4.84658">
        <ele>223</ele>
        <time>2021-03-30T13:11:44.000Z</time>
      </trkpt>
      <trkpt lat="49.8149" lon="4.84651">
        <ele>223</ele>
        <time>2021-03-30T13:11:45.000Z</time>
      </trkpt>
      <trkpt lat="49.81486" lon="4.84646">
        <ele>223</ele>
        <time>2021-03-30T13:11:46.000Z</time>
      </trkpt>
      <trkpt lat="49.81483" lon="4.84642">
        <ele>223</ele>
        <time>2021-03-30T13:11:47.000Z</time>
      </trkpt>
      <trkpt lat="49.81478" lon="4.84638">
        <ele>223</ele>
        <time>2021-03-30T13:11:48.000Z</time>
      </trkpt>
      <trkpt lat="49.81474" lon="4.84636">
        <ele>223</ele>
        <time>2021-03-30T13:11:49.000Z</time>
      </trkpt>
      <trkpt lat="49.81471" lon="4.84634">
        <ele>223</ele>
        <time>2021-03-30T13:11:50.000Z</time>
      </trkpt>
      <trkpt lat="49.81468" lon="4.84632">
        <ele>223</ele>
        <time>2021-03-30T13:11:51.000Z</time>
      </trkpt>
      <trkpt lat="49.81465" lon="4.84628">
        <ele>223</ele>
        <time>2021-03-30T13:11:52.000Z</time>
      </trkpt>
      <trkpt lat="49.81464" lon="4.84623">
        <ele>223</ele>
        <time>2021-03-30T13:11:53.000Z</time>
      </trkpt>
      <trkpt lat="49.81464" lon="4.84617">
        <ele>223</ele>
        <time>2021-03-30T13:11:54.000Z</time>
      </trkpt>
      <trkpt lat="49.81465" lon="4.84609">
        <ele>223</ele>
        <time>2021-03-30T13:11:55.000Z</time>
      </trkpt>
      <trkpt lat="49.81465" lon="4.84601">
        <ele>223</ele>
        <time>2021-03-30T13:11:56.000Z</time>
      </trkpt>
      <trkpt lat="49.81465" lon="4.84592">
        <ele>223</ele>
        <time>2021-03-30T13:11:57.000Z</time>
      </trkpt>
      <trkpt lat="49.81465" lon="4.84583">
        <ele>223</ele>
        <time>2021-03-30T13:11:58.000Z</time>
      </trkpt>
      <trkpt lat="49.81466" lon="4.84574">
        <ele>223</ele>
        <time>2021-03-30T13:11:59.000Z</time>
      </trkpt>
      <trkpt lat="49.81465" lon="4.84565">
        <ele>223</ele>
        <time>2021-03-30T13:12:00.000Z</time>
      </trkpt>
      <trkpt lat="49.81465" lon="4.84556">
        <ele>223</ele>
        <time>2021-03-30T13:12:01.000Z</time>
      </trkpt>
      <trkpt lat="49.81464" lon="4.84546">
        <ele>223</ele>
        <time>2021-03-30T13:12:02.000Z</time>
      </trkpt>
      <trkpt lat="49.81464" lon="4.84535">
        <ele>223</ele>
        <time>2021-03-30T13:12:03.000Z</time>
      </trkpt>
      <trkpt lat="49.81464" lon="4.84523">
        <ele>222</ele>
        <time>2021-03-30T13:12:04.000Z</time>
      </trkpt>
      <trkpt lat="49.81464" lon="4.84511">
        <ele>222</ele>
        <time>2021-03-30T13:12:05.000Z</time>
      </trkpt>
      <trkpt lat="49.81463" lon="4.845">
        <ele>221</ele>
        <time>2021-03-30T13:12:06.000Z</time>
      </trkpt>
      <trkpt lat="49.81463" lon="4.84488">
        <ele>221</ele>
        <time>2021-03-30T13:12:07.000Z</time>
      </trkpt>
      <trkpt lat="49.81463" lon="4.84477">
        <ele>220</ele>
        <time>2021-03-30T13:12:08.000Z</time>
      </trkpt>
      <trkpt lat="49.81463" lon="4.84466">
        <ele>219</ele>
        <time>2021-03-30T13:12:09.000Z</time>
      </trkpt>
      <trkpt lat="49.81462" lon="4.84455">
        <ele>219</ele>
        <time>2021-03-30T13:12:10.000Z</time>
      </trkpt>
      <trkpt lat="49.81462" lon="4.84445">
        <ele>218</ele>
        <time>2021-03-30T13:12:11.000Z</time>
      </trkpt>
      <trkpt lat="49.81461" lon="4.84436">
        <ele>218</ele>
        <time>2021-03-30T13:12:12.000Z</time>
      </trkpt>
      <trkpt lat="49.81462" lon="4.84428">
        <ele>217</ele>
        <time>2021-03-30T13:12:13.000Z</time>
      </trkpt>
      <trkpt lat="49.81463" lon="4.84422">
        <ele>217</ele>
        <time>2021-03-30T13:12:14.000Z</time>
      </trkpt>
      <trkpt lat="49.81465" lon="4.84416">
        <ele>216</ele>
        <time>2021-03-30T13:12:15.000Z</time>
      </trkpt>
      <trkpt lat="49.81468" lon="4.84411">
        <ele>216</ele>
        <time>2021-03-30T13:12:16.000Z</time>
      </trkpt>
      <trkpt lat="49.8147" lon="4.84404">
        <ele>215</ele>
        <time>2021-03-30T13:12:17.000Z</time>
      </trkpt>
      <trkpt lat="49.81471" lon="4.84397">
        <ele>215</ele>
        <time>2021-03-30T13:12:18.000Z</time>
      </trkpt>
      <trkpt lat="49.81471" lon="4.84389">
        <ele>215</ele>
        <time>2021-03-30T13:12:19.000Z</time>
      </trkpt>
      <trkpt lat="49.8147" lon="4.84381">
        <ele>215</ele>
        <time>2021-03-30T13:12:20.000Z</time>
      </trkpt>
      <trkpt lat="49.81471" lon="4.84373">
        <ele>215</ele>
        <time>2021-03-30T13:12:21.000Z</time>
      </trkpt>
      <trkpt lat="49.81471" lon="4.84365">
        <ele>214</ele>
        <time>2021-03-30T13:12:22.000Z</time>
      </trkpt>
      <trkpt lat="49.81472" lon="4.84358">
        <ele>214</ele>
        <time>2021-03-30T13:12:23.000Z</time>
      </trkpt>
      <trkpt lat="49.81473" lon="4.84351">
        <ele>214</ele>
        <time>2021-03-30T13:12:24.000Z</time>
      </trkpt>
      <trkpt lat="49.81474" lon="4.84344">
        <ele>214</ele>
        <time>2021-03-30T13:12:25.000Z</time>
      </trkpt>
      <trkpt lat="49.81475" lon="4.84336">
        <ele>214</ele>
        <time>2021-03-30T13:12:26.000Z</time>
      </trkpt>
      <trkpt lat="49.81476" lon="4.84328">
        <ele>214</ele>
        <time>2021-03-30T13:12:27.000Z</time>
      </trkpt>
      <trkpt lat="49.81477" lon="4.84321">
        <ele>214</ele>
        <time>2021-03-30T13:12:28.000Z</time>
      </trkpt>
      <trkpt lat="49.81479" lon="4.84313">
        <ele>214</ele>
        <time>2021-03-30T13:12:29.000Z</time>
      </trkpt>
      <trkpt lat="49.8148" lon="4.84306">
        <ele>214</ele>
        <time>2021-03-30T13:12:30.000Z</time>
      </trkpt>
      <trkpt lat="49.81481" lon="4.84298">
        <ele>214</ele>
        <time>2021-03-30T13:12:31.000Z</time>
      </trkpt>
      <trkpt lat="49.81483" lon="4.84291">
        <ele>214</ele>
        <time>2021-03-30T13:12:32.000Z</time>
      </trkpt>
      <trkpt lat="49.81486" lon="4.84284">
        <ele>214</ele>
        <time>2021-03-30T13:12:33.000Z</time>
      </trkpt>
      <trkpt lat="49.81489" lon="4.84277">
        <ele>214</ele>
        <time>2021-03-30T13:12:34.000Z</time>
      </trkpt>
      <trkpt lat="49.81492" lon="4.84271">
        <ele>214</ele>
        <time>2021-03-30T13:12:35.000Z</time>
      </trkpt>
      <trkpt lat="49.81494" lon="4.84264">
        <ele>214</ele>
        <time>2021-03-30T13:12:36.000Z</time>
      </trkpt>
      <trkpt lat="49.81495" lon="4.84258">
        <ele>214</ele>
        <time>2021-03-30T13:12:37.000Z</time>
      </trkpt>
      <trkpt lat="49.81496" lon="4.8425">
        <ele>214</ele>
        <time>2021-03-30T13:12:38.000Z</time>
      </trkpt>
      <trkpt lat="49.81496" lon="4.84244">
        <ele>214</ele>
        <time>2021-03-30T13:12:39.000Z</time>
      </trkpt>
      <trkpt lat="49.81497" lon="4.84238">
        <ele>214</ele>
        <time>2021-03-30T13:12:40.000Z</time>
      </trkpt>
      <trkpt lat="49.81497" lon="4.84234">
        <ele>214</ele>
        <time>2021-03-30T13:12:41.000Z</time>
      </trkpt>
      <trkpt lat="49.81497" lon="4.8423">
        <ele>214</ele>
        <time>2021-03-30T13:12:42.000Z</time>
      </trkpt>
      <trkpt lat="49.81497" lon="4.84225">
        <ele>215</ele>
        <time>2021-03-30T13:12:43.000Z</time>
      </trkpt>
      <trkpt lat="49.81495" lon="4.8422">
        <ele>215</ele>
        <time>2021-03-30T13:12:44.000Z</time>
      </trkpt>
      <trkpt lat="49.81493" lon="4.84214">
        <ele>215</ele>
        <time>2021-03-30T13:12:45.000Z</time>
      </trkpt>
      <trkpt lat="49.81492" lon="4.84206">
        <ele>215</ele>
        <time>2021-03-30T13:12:46.000Z</time>
      </trkpt>
      <trkpt lat="49.81491" lon="4.842">
        <ele>215</ele>
        <time>2021-03-30T13:12:47.000Z</time>
      </trkpt>
      <trkpt lat="49.81491" lon="4.84193">
        <ele>215</ele>
        <time>2021-03-30T13:12:48.000Z</time>
      </trkpt>
      <trkpt lat="49.81492" lon="4.84186">
        <ele>216</ele>
        <time>2021-03-30T13:12:49.000Z</time>
      </trkpt>
      <trkpt lat="49.81495" lon="4.8418">
        <ele>216</ele>
        <time>2021-03-30T13:12:50.000Z</time>
      </trkpt>
      <trkpt lat="49.81497" lon="4.84173">
        <ele>216</ele>
        <time>2021-03-30T13:12:51.000Z</time>
      </trkpt>
      <trkpt lat="49.81499" lon="4.84166">
        <ele>216</ele>
        <time>2021-03-30T13:12:52.000Z</time>
      </trkpt>
      <trkpt lat="49.81501" lon="4.84159">
        <ele>216</ele>
        <time>2021-03-30T13:12:53.000Z</time>
      </trkpt>
      <trkpt lat="49.81503" lon="4.8415">
        <ele>217</ele>
        <time>2021-03-30T13:12:54.000Z</time>
      </trkpt>
      <trkpt lat="49.81504" lon="4.84142">
        <ele>217</ele>
        <time>2021-03-30T13:12:55.000Z</time>
      </trkpt>
      <trkpt lat="49.81505" lon="4.84133">
        <ele>217</ele>
        <time>2021-03-30T13:12:56.000Z</time>
      </trkpt>
      <trkpt lat="49.81506" lon="4.84125">
        <ele>217</ele>
        <time>2021-03-30T13:12:57.000Z</time>
      </trkpt>
      <trkpt lat="49.81506" lon="4.84116">
        <ele>217</ele>
        <time>2021-03-30T13:12:58.000Z</time>
      </trkpt>
      <trkpt lat="49.81506" lon="4.84108">
        <ele>217</ele>
        <time>2021-03-30T13:12:59.000Z</time>
      </trkpt>
      <trkpt lat="49.81506" lon="4.841">
        <ele>217</ele>
        <time>2021-03-30T13:13:00.000Z</time>
      </trkpt>
      <trkpt lat="49.81506" lon="4.84092">
        <ele>217</ele>
        <time>2021-03-30T13:13:01.000Z</time>
      </trkpt>
      <trkpt lat="49.81506" lon="4.84084">
        <ele>217</ele>
        <time>2021-03-30T13:13:02.000Z</time>
      </trkpt>
      <trkpt lat="49.81505" lon="4.84076">
        <ele>217</ele>
        <time>2021-03-30T13:13:03.000Z</time>
      </trkpt>
      <trkpt lat="49.81504" lon="4.84067">
        <ele>217</ele>
        <time>2021-03-30T13:13:04.000Z</time>
      </trkpt>
      <trkpt lat="49.81503" lon="4.84059">
        <ele>217</ele>
        <time>2021-03-30T13:13:05.000Z</time>
      </trkpt>
      <trkpt lat="49.81501" lon="4.8405">
        <ele>217</ele>
        <time>2021-03-30T13:13:06.000Z</time>
      </trkpt>
      <trkpt lat="49.815" lon="4.84042">
        <ele>217</ele>
        <time>2021-03-30T13:13:07.000Z</time>
      </trkpt>
      <trkpt lat="49.81498" lon="4.84034">
        <ele>217</ele>
        <time>2021-03-30T13:13:08.000Z</time>
      </trkpt>
      <trkpt lat="49.81496" lon="4.84025">
        <ele>217</ele>
        <time>2021-03-30T13:13:09.000Z</time>
      </trkpt>
      <trkpt lat="49.81495" lon="4.84017">
        <ele>217</ele>
        <time>2021-03-30T13:13:10.000Z</time>
      </trkpt>
      <trkpt lat="49.81494" lon="4.84008">
        <ele>217</ele>
        <time>2021-03-30T13:13:11.000Z</time>
      </trkpt>
      <trkpt lat="49.81493" lon="4.84001">
        <ele>217</ele>
        <time>2021-03-30T13:13:12.000Z</time>
      </trkpt>
      <trkpt lat="49.81491" lon="4.83992">
        <ele>217</ele>
        <time>2021-03-30T13:13:13.000Z</time>
      </trkpt>
      <trkpt lat="49.8149" lon="4.83984">
        <ele>217</ele>
        <time>2021-03-30T13:13:14.000Z</time>
      </trkpt>
      <trkpt lat="49.81489" lon="4.83976">
        <ele>218</ele>
        <time>2021-03-30T13:13:15.000Z</time>
      </trkpt>
      <trkpt lat="49.81488" lon="4.83968">
        <ele>218</ele>
        <time>2021-03-30T13:13:16.000Z</time>
      </trkpt>
      <trkpt lat="49.81485" lon="4.83959">
        <ele>218</ele>
        <time>2021-03-30T13:13:17.000Z</time>
      </trkpt>
      <trkpt lat="49.81483" lon="4.8395">
        <ele>218</ele>
        <time>2021-03-30T13:13:18.000Z</time>
      </trkpt>
      <trkpt lat="49.81481" lon="4.83941">
        <ele>218</ele>
        <time>2021-03-30T13:13:19.000Z</time>
      </trkpt>
      <trkpt lat="49.81479" lon="4.83932">
        <ele>218</ele>
        <time>2021-03-30T13:13:20.000Z</time>
      </trkpt>
      <trkpt lat="49.81478" lon="4.83924">
        <ele>218</ele>
        <time>2021-03-30T13:13:21.000Z</time>
      </trkpt>
      <trkpt lat="49.81476" lon="4.83914">
        <ele>217</ele>
        <time>2021-03-30T13:13:22.000Z</time>
      </trkpt>
      <trkpt lat="49.81474" lon="4.83906">
        <ele>217</ele>
        <time>2021-03-30T13:13:23.000Z</time>
      </trkpt>
      <trkpt lat="49.81473" lon="4.83897">
        <ele>217</ele>
        <time>2021-03-30T13:13:24.000Z</time>
      </trkpt>
      <trkpt lat="49.81472" lon="4.83888">
        <ele>217</ele>
        <time>2021-03-30T13:13:25.000Z</time>
      </trkpt>
      <trkpt lat="49.81471" lon="4.8388">
        <ele>217</ele>
        <time>2021-03-30T13:13:26.000Z</time>
      </trkpt>
      <trkpt lat="49.8147" lon="4.83872">
        <ele>217</ele>
        <time>2021-03-30T13:13:27.000Z</time>
      </trkpt>
      <trkpt lat="49.81469" lon="4.83864">
        <ele>216</ele>
        <time>2021-03-30T13:13:28.000Z</time>
      </trkpt>
      <trkpt lat="49.81467" lon="4.83858">
        <ele>216</ele>
        <time>2021-03-30T13:13:29.000Z</time>
      </trkpt>
      <trkpt lat="49.81466" lon="4.83854">
        <ele>216</ele>
        <time>2021-03-30T13:13:30.000Z</time>
      </trkpt>
      <trkpt lat="49.81463" lon="4.83851">
        <ele>215</ele>
        <time>2021-03-30T13:13:31.000Z</time>
      </trkpt>
      <trkpt lat="49.81461" lon="4.8385">
        <ele>215</ele>
        <time>2021-03-30T13:13:32.000Z</time>
      </trkpt>
      <trkpt lat="49.81459" lon="4.83849">
        <ele>215</ele>
        <time>2021-03-30T13:13:33.000Z</time>
      </trkpt>
      <trkpt lat="49.81457" lon="4.83848">
        <ele>215</ele>
        <time>2021-03-30T13:13:34.000Z</time>
      </trkpt>
      <trkpt lat="49.81456" lon="4.83848">
        <ele>214</ele>
        <time>2021-03-30T13:13:35.000Z</time>
      </trkpt>
      <trkpt lat="49.81454" lon="4.83849">
        <ele>214</ele>
        <time>2021-03-30T13:13:36.000Z</time>
      </trkpt>
      <trkpt lat="49.81452" lon="4.83849">
        <ele>214</ele>
        <time>2021-03-30T13:13:37.000Z</time>
      </trkpt>
      <trkpt lat="49.81449" lon="4.83849">
        <ele>214</ele>
        <time>2021-03-30T13:13:38.000Z</time>
      </trkpt>
      <trkpt lat="49.81448" lon="4.8385">
        <ele>214</ele>
        <time>2021-03-30T13:13:39.000Z</time>
      </trkpt>
      <trkpt lat="49.81447" lon="4.83851">
        <ele>215</ele>
        <time>2021-03-30T13:13:40.000Z</time>
      </trkpt>
      <trkpt lat="49.81446" lon="4.83851">
        <ele>215</ele>
        <time>2021-03-30T13:13:41.000Z</time>
      </trkpt>
      <trkpt lat="49.81445" lon="4.8385">
        <ele>215</ele>
        <time>2021-03-30T13:13:42.000Z</time>
      </trkpt>
      <trkpt lat="49.81444" lon="4.83851">
        <ele>215</ele>
        <time>2021-03-30T13:13:43.000Z</time>
      </trkpt>
      <trkpt lat="49.81443" lon="4.83852">
        <ele>215</ele>
        <time>2021-03-30T13:13:44.000Z</time>
      </trkpt>
      <trkpt lat="49.81441" lon="4.83852">
        <ele>215</ele>
        <time>2021-03-30T13:13:45.000Z</time>
      </trkpt>
      <trkpt lat="49.8144" lon="4.83853">
        <ele>215</ele>
        <time>2021-03-30T13:13:46.000Z</time>
      </trkpt>
      <trkpt lat="49.81439" lon="4.83852">
        <ele>215</ele>
        <time>2021-03-30T13:13:47.000Z</time>
      </trkpt>
      <trkpt lat="49.81437" lon="4.83852">
        <ele>216</ele>
        <time>2021-03-30T13:13:48.000Z</time>
      </trkpt>
      <trkpt lat="49.81436" lon="4.83851">
        <ele>216</ele>
        <time>2021-03-30T13:13:49.000Z</time>
      </trkpt>
      <trkpt lat="49.81435" lon="4.8385">
        <ele>216</ele>
        <time>2021-03-30T13:13:50.000Z</time>
      </trkpt>
      <trkpt lat="49.81434" lon="4.83849">
        <ele>217</ele>
        <time>2021-03-30T13:13:51.000Z</time>
      </trkpt>
      <trkpt lat="49.81432" lon="4.83847">
        <ele>217</ele>
        <time>2021-03-30T13:13:52.000Z</time>
      </trkpt>
      <trkpt lat="49.81431" lon="4.83846">
        <ele>217</ele>
        <time>2021-03-30T13:13:53.000Z</time>
      </trkpt>
      <trkpt lat="49.81429" lon="4.83845">
        <ele>217</ele>
        <time>2021-03-30T13:13:54.000Z</time>
      </trkpt>
      <trkpt lat="49.81427" lon="4.83844">
        <ele>218</ele>
        <time>2021-03-30T13:13:55.000Z</time>
      </trkpt>
      <trkpt lat="49.81425" lon="4.83844">
        <ele>218</ele>
        <time>2021-03-30T13:13:56.000Z</time>
      </trkpt>
      <trkpt lat="49.81423" lon="4.83844">
        <ele>218</ele>
        <time>2021-03-30T13:13:57.000Z</time>
      </trkpt>
      <trkpt lat="49.8142" lon="4.83845">
        <ele>218</ele>
        <time>2021-03-30T13:13:58.000Z</time>
      </trkpt>
      <trkpt lat="49.81418" lon="4.83845">
        <ele>219</ele>
        <time>2021-03-30T13:13:59.000Z</time>
      </trkpt>
      <trkpt lat="49.81416" lon="4.83846">
        <ele>219</ele>
        <time>2021-03-30T13:14:00.000Z</time>
      </trkpt>
      <trkpt lat="49.81413" lon="4.83847">
        <ele>219</ele>
        <time>2021-03-30T13:14:01.000Z</time>
      </trkpt>
      <trkpt lat="49.81411" lon="4.83847">
        <ele>220</ele>
        <time>2021-03-30T13:14:02.000Z</time>
      </trkpt>
      <trkpt lat="49.81409" lon="4.83846">
        <ele>220</ele>
        <time>2021-03-30T13:14:03.000Z</time>
      </trkpt>
      <trkpt lat="49.81406" lon="4.83847">
        <ele>220</ele>
        <time>2021-03-30T13:14:04.000Z</time>
      </trkpt>
      <trkpt lat="49.81405" lon="4.83847">
        <ele>221</ele>
        <time>2021-03-30T13:14:05.000Z</time>
      </trkpt>
      <trkpt lat="49.81403" lon="4.83847">
        <ele>221</ele>
        <time>2021-03-30T13:14:06.000Z</time>
      </trkpt>
      <trkpt lat="49.81401" lon="4.83848">
        <ele>221</ele>
        <time>2021-03-30T13:14:07.000Z</time>
      </trkpt>
      <trkpt lat="49.81399" lon="4.83849">
        <ele>222</ele>
        <time>2021-03-30T13:14:08.000Z</time>
      </trkpt>
      <trkpt lat="49.81397" lon="4.8385">
        <ele>222</ele>
        <time>2021-03-30T13:14:09.000Z</time>
      </trkpt>
      <trkpt lat="49.81395" lon="4.8385">
        <ele>222</ele>
        <time>2021-03-30T13:14:10.000Z</time>
      </trkpt>
      <trkpt lat="49.81393" lon="4.8385">
        <ele>223</ele>
        <time>2021-03-30T13:14:11.000Z</time>
      </trkpt>
      <trkpt lat="49.81391" lon="4.8385">
        <ele>223</ele>
        <time>2021-03-30T13:14:12.000Z</time>
      </trkpt>
      <trkpt lat="49.81388" lon="4.83851">
        <ele>223</ele>
        <time>2021-03-30T13:14:13.000Z</time>
      </trkpt>
      <trkpt lat="49.81386" lon="4.8385">
        <ele>224</ele>
        <time>2021-03-30T13:14:14.000Z</time>
      </trkpt>
      <trkpt lat="49.81384" lon="4.8385">
        <ele>224</ele>
        <time>2021-03-30T13:14:15.000Z</time>
      </trkpt>
      <trkpt lat="49.81382" lon="4.8385">
        <ele>224</ele>
        <time>2021-03-30T13:14:16.000Z</time>
      </trkpt>
      <trkpt lat="49.8138" lon="4.83849">
        <ele>225</ele>
        <time>2021-03-30T13:14:17.000Z</time>
      </trkpt>
      <trkpt lat="49.81378" lon="4.83849">
        <ele>225</ele>
        <time>2021-03-30T13:14:18.000Z</time>
      </trkpt>
      <trkpt lat="49.81374" lon="4.83847">
        <ele>225</ele>
        <time>2021-03-30T13:14:19.000Z</time>
      </trkpt>
      <trkpt lat="49.81371" lon="4.83847">
        <ele>226</ele>
        <time>2021-03-30T13:14:20.000Z</time>
      </trkpt>
      <trkpt lat="49.81368" lon="4.83846">
        <ele>226</ele>
        <time>2021-03-30T13:14:21.000Z</time>
      </trkpt>
      <trkpt lat="49.81365" lon="4.83845">
        <ele>226</ele>
        <time>2021-03-30T13:14:22.000Z</time>
      </trkpt>
      <trkpt lat="49.81363" lon="4.83844">
        <ele>226</ele>
        <time>2021-03-30T13:14:23.000Z</time>
      </trkpt>
      <trkpt lat="49.81359" lon="4.83844">
        <ele>226</ele>
        <time>2021-03-30T13:14:24.000Z</time>
      </trkpt>
      <trkpt lat="49.81355" lon="4.83843">
        <ele>226</ele>
        <time>2021-03-30T13:14:25.000Z</time>
      </trkpt>
      <trkpt lat="49.81351" lon="4.83841">
        <ele>226</ele>
        <time>2021-03-30T13:14:26.000Z</time>
      </trkpt>
      <trkpt lat="49.81348" lon="4.8384">
        <ele>226</ele>
        <time>2021-03-30T13:14:27.000Z</time>
      </trkpt>
      <trkpt lat="49.81343" lon="4.83839">
        <ele>225</ele>
        <time>2021-03-30T13:14:28.000Z</time>
      </trkpt>
      <trkpt lat="49.81338" lon="4.83837">
        <ele>225</ele>
        <time>2021-03-30T13:14:29.000Z</time>
      </trkpt>
      <trkpt lat="49.81333" lon="4.83837">
        <ele>225</ele>
        <time>2021-03-30T13:14:30.000Z</time>
      </trkpt>
      <trkpt lat="49.81328" lon="4.83838">
        <ele>225</ele>
        <time>2021-03-30T13:14:31.000Z</time>
      </trkpt>
      <trkpt lat="49.81323" lon="4.8384">
        <ele>225</ele>
        <time>2021-03-30T13:14:32.000Z</time>
      </trkpt>
      <trkpt lat="49.81319" lon="4.83843">
        <ele>225</ele>
        <time>2021-03-30T13:14:33.000Z</time>
      </trkpt>
      <trkpt lat="49.81316" lon="4.83846">
        <ele>225</ele>
        <time>2021-03-30T13:14:34.000Z</time>
      </trkpt>
      <trkpt lat="49.81313" lon="4.83849">
        <ele>225</ele>
        <time>2021-03-30T13:14:35.000Z</time>
      </trkpt>
      <trkpt lat="49.8131" lon="4.83852">
        <ele>225</ele>
        <time>2021-03-30T13:14:36.000Z</time>
      </trkpt>
      <trkpt lat="49.81307" lon="4.83855">
        <ele>225</ele>
        <time>2021-03-30T13:14:37.000Z</time>
      </trkpt>
      <trkpt lat="49.81304" lon="4.83857">
        <ele>226</ele>
        <time>2021-03-30T13:14:38.000Z</time>
      </trkpt>
      <trkpt lat="49.81302" lon="4.83858">
        <ele>226</ele>
        <time>2021-03-30T13:14:39.000Z</time>
      </trkpt>
      <trkpt lat="49.813" lon="4.83859">
        <ele>226</ele>
        <time>2021-03-30T13:14:40.000Z</time>
      </trkpt>
      <trkpt lat="49.81298" lon="4.83861">
        <ele>226</ele>
        <time>2021-03-30T13:14:41.000Z</time>
      </trkpt>
      <trkpt lat="49.81296" lon="4.83862">
        <ele>226</ele>
        <time>2021-03-30T13:14:42.000Z</time>
      </trkpt>
      <trkpt lat="49.81295" lon="4.83863">
        <ele>226</ele>
        <time>2021-03-30T13:14:43.000Z</time>
      </trkpt>
      <trkpt lat="49.81293" lon="4.83865">
        <ele>226</ele>
        <time>2021-03-30T13:14:44.000Z</time>
      </trkpt>
      <trkpt lat="49.81291" lon="4.83866">
        <ele>226</ele>
        <time>2021-03-30T13:14:45.000Z</time>
      </trkpt>
      <trkpt lat="49.81289" lon="4.83867">
        <ele>226</ele>
        <time>2021-03-30T13:14:46.000Z</time>
      </trkpt>
      <trkpt lat="49.81287" lon="4.83868">
        <ele>227</ele>
        <time>2021-03-30T13:14:47.000Z</time>
      </trkpt>
      <trkpt lat="49.81285" lon="4.8387">
        <ele>227</ele>
        <time>2021-03-30T13:14:48.000Z</time>
      </trkpt>
      <trkpt lat="49.81282" lon="4.83871">
        <ele>227</ele>
        <time>2021-03-30T13:14:49.000Z</time>
      </trkpt>
      <trkpt lat="49.8128" lon="4.83873">
        <ele>226</ele>
        <time>2021-03-30T13:14:50.000Z</time>
      </trkpt>
      <trkpt lat="49.81277" lon="4.83874">
        <ele>226</ele>
        <time>2021-03-30T13:14:51.000Z</time>
      </trkpt>
      <trkpt lat="49.81274" lon="4.83875">
        <ele>226</ele>
        <time>2021-03-30T13:14:52.000Z</time>
      </trkpt>
      <trkpt lat="49.81271" lon="4.83876">
        <ele>226</ele>
        <time>2021-03-30T13:14:53.000Z</time>
      </trkpt>
      <trkpt lat="49.81267" lon="4.83877">
        <ele>226</ele>
        <time>2021-03-30T13:14:54.000Z</time>
      </trkpt>
      <trkpt lat="49.81264" lon="4.83878">
        <ele>226</ele>
        <time>2021-03-30T13:14:55.000Z</time>
      </trkpt>
      <trkpt lat="49.81259" lon="4.83879">
        <ele>226</ele>
        <time>2021-03-30T13:14:56.000Z</time>
      </trkpt>
      <trkpt lat="49.81255" lon="4.83879">
        <ele>226</ele>
        <time>2021-03-30T13:14:57.000Z</time>
      </trkpt>
      <trkpt lat="49.8125" lon="4.8388">
        <ele>226</ele>
        <time>2021-03-30T13:14:58.000Z</time>
      </trkpt>
      <trkpt lat="49.81245" lon="4.83881">
        <ele>226</ele>
        <time>2021-03-30T13:14:59.000Z</time>
      </trkpt>
      <trkpt lat="49.81241" lon="4.83882">
        <ele>226</ele>
        <time>2021-03-30T13:15:00.000Z</time>
      </trkpt>
      <trkpt lat="49.81237" lon="4.83882">
        <ele>226</ele>
        <time>2021-03-30T13:15:01.000Z</time>
      </trkpt>
      <trkpt lat="49.81233" lon="4.83883">
        <ele>226</ele>
        <time>2021-03-30T13:15:02.000Z</time>
      </trkpt>
      <trkpt lat="49.81229" lon="4.83884">
        <ele>226</ele>
        <time>2021-03-30T13:15:03.000Z</time>
      </trkpt>
      <trkpt lat="49.81225" lon="4.83884">
        <ele>226</ele>
        <time>2021-03-30T13:15:04.000Z</time>
      </trkpt>
      <trkpt lat="49.8122" lon="4.83885">
        <ele>226</ele>
        <time>2021-03-30T13:15:05.000Z</time>
      </trkpt>
      <trkpt lat="49.81216" lon="4.83886">
        <ele>226</ele>
        <time>2021-03-30T13:15:06.000Z</time>
      </trkpt>
      <trkpt lat="49.81211" lon="4.83886">
        <ele>226</ele>
        <time>2021-03-30T13:15:07.000Z</time>
      </trkpt>
      <trkpt lat="49.81207" lon="4.83887">
        <ele>225</ele>
        <time>2021-03-30T13:15:08.000Z</time>
      </trkpt>
      <trkpt lat="49.81203" lon="4.83888">
        <ele>225</ele>
        <time>2021-03-30T13:15:09.000Z</time>
      </trkpt>
      <trkpt lat="49.81199" lon="4.83889">
        <ele>225</ele>
        <time>2021-03-30T13:15:10.000Z</time>
      </trkpt>
      <trkpt lat="49.81195" lon="4.8389">
        <ele>226</ele>
        <time>2021-03-30T13:15:11.000Z</time>
      </trkpt>
      <trkpt lat="49.81192" lon="4.83891">
        <ele>226</ele>
        <time>2021-03-30T13:15:12.000Z</time>
      </trkpt>
      <trkpt lat="49.81189" lon="4.83892">
        <ele>226</ele>
        <time>2021-03-30T13:15:13.000Z</time>
      </trkpt>
      <trkpt lat="49.81186" lon="4.83892">
        <ele>226</ele>
        <time>2021-03-30T13:15:14.000Z</time>
      </trkpt>
      <trkpt lat="49.81183" lon="4.83893">
        <ele>226</ele>
        <time>2021-03-30T13:15:15.000Z</time>
      </trkpt>
      <trkpt lat="49.81179" lon="4.83893">
        <ele>226</ele>
        <time>2021-03-30T13:15:16.000Z</time>
      </trkpt>
      <trkpt lat="49.81175" lon="4.83894">
        <ele>226</ele>
        <time>2021-03-30T13:15:17.000Z</time>
      </trkpt>
      <trkpt lat="49.81172" lon="4.83893">
        <ele>226</ele>
        <time>2021-03-30T13:15:18.000Z</time>
      </trkpt>
      <trkpt lat="49.81168" lon="4.83894">
        <ele>226</ele>
        <time>2021-03-30T13:15:19.000Z</time>
      </trkpt>
      <trkpt lat="49.81164" lon="4.83895">
        <ele>226</ele>
        <time>2021-03-30T13:15:20.000Z</time>
      </trkpt>
      <trkpt lat="49.81158" lon="4.83895">
        <ele>226</ele>
        <time>2021-03-30T13:15:21.000Z</time>
      </trkpt>
      <trkpt lat="49.81153" lon="4.83896">
        <ele>226</ele>
        <time>2021-03-30T13:15:22.000Z</time>
      </trkpt>
      <trkpt lat="49.81148" lon="4.83896">
        <ele>226</ele>
        <time>2021-03-30T13:15:23.000Z</time>
      </trkpt>
      <trkpt lat="49.81143" lon="4.83895">
        <ele>226</ele>
        <time>2021-03-30T13:15:24.000Z</time>
      </trkpt>
      <trkpt lat="49.81138" lon="4.83895">
        <ele>226</ele>
        <time>2021-03-30T13:15:25.000Z</time>
      </trkpt>
      <trkpt lat="49.81134" lon="4.83895">
        <ele>227</ele>
        <time>2021-03-30T13:15:26.000Z</time>
      </trkpt>
      <trkpt lat="49.81131" lon="4.83895">
        <ele>227</ele>
        <time>2021-03-30T13:15:27.000Z</time>
      </trkpt>
      <trkpt lat="49.81127" lon="4.83895">
        <ele>227</ele>
        <time>2021-03-30T13:15:28.000Z</time>
      </trkpt>
      <trkpt lat="49.81123" lon="4.83895">
        <ele>227</ele>
        <time>2021-03-30T13:15:29.000Z</time>
      </trkpt>
      <trkpt lat="49.81119" lon="4.83894">
        <ele>227</ele>
        <time>2021-03-30T13:15:30.000Z</time>
      </trkpt>
      <trkpt lat="49.81115" lon="4.83893">
        <ele>228</ele>
        <time>2021-03-30T13:15:31.000Z</time>
      </trkpt>
      <trkpt lat="49.81111" lon="4.83892">
        <ele>228</ele>
        <time>2021-03-30T13:15:32.000Z</time>
      </trkpt>
      <trkpt lat="49.81106" lon="4.83891">
        <ele>228</ele>
        <time>2021-03-30T13:15:33.000Z</time>
      </trkpt>
      <trkpt lat="49.81101" lon="4.8389">
        <ele>228</ele>
        <time>2021-03-30T13:15:34.000Z</time>
      </trkpt>
      <trkpt lat="49.81096" lon="4.83888">
        <ele>228</ele>
        <time>2021-03-30T13:15:35.000Z</time>
      </trkpt>
      <trkpt lat="49.8109" lon="4.83888">
        <ele>229</ele>
        <time>2021-03-30T13:15:36.000Z</time>
      </trkpt>
      <trkpt lat="49.81085" lon="4.83888">
        <ele>229</ele>
        <time>2021-03-30T13:15:37.000Z</time>
      </trkpt>
      <trkpt lat="49.8108" lon="4.83887">
        <ele>229</ele>
        <time>2021-03-30T13:15:38.000Z</time>
      </trkpt>
      <trkpt lat="49.81075" lon="4.83886">
        <ele>229</ele>
        <time>2021-03-30T13:15:39.000Z</time>
      </trkpt>
      <trkpt lat="49.8107" lon="4.83885">
        <ele>229</ele>
        <time>2021-03-30T13:15:40.000Z</time>
      </trkpt>
      <trkpt lat="49.81065" lon="4.83886">
        <ele>230</ele>
        <time>2021-03-30T13:15:41.000Z</time>
      </trkpt>
      <trkpt lat="49.8106" lon="4.83886">
        <ele>230</ele>
        <time>2021-03-30T13:15:42.000Z</time>
      </trkpt>
      <trkpt lat="49.81055" lon="4.83887">
        <ele>230</ele>
        <time>2021-03-30T13:15:43.000Z</time>
      </trkpt>
      <trkpt lat="49.8105" lon="4.83888">
        <ele>230</ele>
        <time>2021-03-30T13:15:44.000Z</time>
      </trkpt>
      <trkpt lat="49.81045" lon="4.83888">
        <ele>229</ele>
        <time>2021-03-30T13:15:45.000Z</time>
      </trkpt>
      <trkpt lat="49.81039" lon="4.83888">
        <ele>229</ele>
        <time>2021-03-30T13:15:46.000Z</time>
      </trkpt>
      <trkpt lat="49.81034" lon="4.83888">
        <ele>229</ele>
        <time>2021-03-30T13:15:47.000Z</time>
      </trkpt>
      <trkpt lat="49.81029" lon="4.83888">
        <ele>229</ele>
        <time>2021-03-30T13:15:48.000Z</time>
      </trkpt>
      <trkpt lat="49.81024" lon="4.83888">
        <ele>229</ele>
        <time>2021-03-30T13:15:49.000Z</time>
      </trkpt>
      <trkpt lat="49.81019" lon="4.83888">
        <ele>229</ele>
        <time>2021-03-30T13:15:50.000Z</time>
      </trkpt>
      <trkpt lat="49.81014" lon="4.83888">
        <ele>228</ele>
        <time>2021-03-30T13:15:51.000Z</time>
      </trkpt>
      <trkpt lat="49.81009" lon="4.83888">
        <ele>228</ele>
        <time>2021-03-30T13:15:52.000Z</time>
      </trkpt>
      <trkpt lat="49.81005" lon="4.83888">
        <ele>228</ele>
        <time>2021-03-30T13:15:53.000Z</time>
      </trkpt>
      <trkpt lat="49.81001" lon="4.83888">
        <ele>228</ele>
        <time>2021-03-30T13:15:54.000Z</time>
      </trkpt>
      <trkpt lat="49.80997" lon="4.83888">
        <ele>228</ele>
        <time>2021-03-30T13:15:55.000Z</time>
      </trkpt>
      <trkpt lat="49.80992" lon="4.83888">
        <ele>228</ele>
        <time>2021-03-30T13:15:56.000Z</time>
      </trkpt>
      <trkpt lat="49.80988" lon="4.83888">
        <ele>228</ele>
        <time>2021-03-30T13:15:57.000Z</time>
      </trkpt>
      <trkpt lat="49.80984" lon="4.83887">
        <ele>228</ele>
        <time>2021-03-30T13:15:58.000Z</time>
      </trkpt>
      <trkpt lat="49.80979" lon="4.83887">
        <ele>228</ele>
        <time>2021-03-30T13:15:59.000Z</time>
      </trkpt>
      <trkpt lat="49.80975" lon="4.83887">
        <ele>228</ele>
        <time>2021-03-30T13:16:00.000Z</time>
      </trkpt>
      <trkpt lat="49.8097" lon="4.83887">
        <ele>228</ele>
        <time>2021-03-30T13:16:01.000Z</time>
      </trkpt>
      <trkpt lat="49.80966" lon="4.83887">
        <ele>228</ele>
        <time>2021-03-30T13:16:02.000Z</time>
      </trkpt>
      <trkpt lat="49.80961" lon="4.83887">
        <ele>228</ele>
        <time>2021-03-30T13:16:03.000Z</time>
      </trkpt>
      <trkpt lat="49.80956" lon="4.83887">
        <ele>228</ele>
        <time>2021-03-30T13:16:04.000Z</time>
      </trkpt>
      <trkpt lat="49.80951" lon="4.83888">
        <ele>228</ele>
        <time>2021-03-30T13:16:05.000Z</time>
      </trkpt>
      <trkpt lat="49.80946" lon="4.83888">
        <ele>228</ele>
        <time>2021-03-30T13:16:06.000Z</time>
      </trkpt>
      <trkpt lat="49.8094" lon="4.83889">
        <ele>228</ele>
        <time>2021-03-30T13:16:07.000Z</time>
      </trkpt>
      <trkpt lat="49.80934" lon="4.83889">
        <ele>229</ele>
        <time>2021-03-30T13:16:08.000Z</time>
      </trkpt>
      <trkpt lat="49.80929" lon="4.8389">
        <ele>229</ele>
        <time>2021-03-30T13:16:09.000Z</time>
      </trkpt>
      <trkpt lat="49.80925" lon="4.8389">
        <ele>229</ele>
        <time>2021-03-30T13:16:10.000Z</time>
      </trkpt>
      <trkpt lat="49.8092" lon="4.8389">
        <ele>229</ele>
        <time>2021-03-30T13:16:11.000Z</time>
      </trkpt>
      <trkpt lat="49.80915" lon="4.83891">
        <ele>229</ele>
        <time>2021-03-30T13:16:12.000Z</time>
      </trkpt>
      <trkpt lat="49.80911" lon="4.83891">
        <ele>229</ele>
        <time>2021-03-30T13:16:13.000Z</time>
      </trkpt>
      <trkpt lat="49.80905" lon="4.83891">
        <ele>229</ele>
        <time>2021-03-30T13:16:14.000Z</time>
      </trkpt>
      <trkpt lat="49.809" lon="4.83892">
        <ele>229</ele>
        <time>2021-03-30T13:16:15.000Z</time>
      </trkpt>
      <trkpt lat="49.80895" lon="4.83893">
        <ele>229</ele>
        <time>2021-03-30T13:16:16.000Z</time>
      </trkpt>
      <trkpt lat="49.8089" lon="4.83893">
        <ele>229</ele>
        <time>2021-03-30T13:16:17.000Z</time>
      </trkpt>
      <trkpt lat="49.80885" lon="4.83893">
        <ele>229</ele>
        <time>2021-03-30T13:16:18.000Z</time>
      </trkpt>
      <trkpt lat="49.8088" lon="4.83893">
        <ele>229</ele>
        <time>2021-03-30T13:16:19.000Z</time>
      </trkpt>
      <trkpt lat="49.80875" lon="4.83894">
        <ele>229</ele>
        <time>2021-03-30T13:16:20.000Z</time>
      </trkpt>
      <trkpt lat="49.8087" lon="4.83894">
        <ele>229</ele>
        <time>2021-03-30T13:16:21.000Z</time>
      </trkpt>
      <trkpt lat="49.80864" lon="4.83895">
        <ele>229</ele>
        <time>2021-03-30T13:16:22.000Z</time>
      </trkpt>
      <trkpt lat="49.80859" lon="4.83895">
        <ele>229</ele>
        <time>2021-03-30T13:16:23.000Z</time>
      </trkpt>
      <trkpt lat="49.80854" lon="4.83895">
        <ele>229</ele>
        <time>2021-03-30T13:16:24.000Z</time>
      </trkpt>
      <trkpt lat="49.80848" lon="4.83895">
        <ele>229</ele>
        <time>2021-03-30T13:16:25.000Z</time>
      </trkpt>
      <trkpt lat="49.80843" lon="4.83895">
        <ele>229</ele>
        <time>2021-03-30T13:16:26.000Z</time>
      </trkpt>
      <trkpt lat="49.80838" lon="4.83894">
        <ele>229</ele>
        <time>2021-03-30T13:16:27.000Z</time>
      </trkpt>
      <trkpt lat="49.80832" lon="4.83894">
        <ele>229</ele>
        <time>2021-03-30T13:16:28.000Z</time>
      </trkpt>
      <trkpt lat="49.80827" lon="4.83893">
        <ele>228</ele>
        <time>2021-03-30T13:16:29.000Z</time>
      </trkpt>
      <trkpt lat="49.80822" lon="4.83892">
        <ele>228</ele>
        <time>2021-03-30T13:16:30.000Z</time>
      </trkpt>
      <trkpt lat="49.80817" lon="4.83894">
        <ele>228</ele>
        <time>2021-03-30T13:16:31.000Z</time>
      </trkpt>
      <trkpt lat="49.80813" lon="4.83895">
        <ele>229</ele>
        <time>2021-03-30T13:16:32.000Z</time>
      </trkpt>
      <trkpt lat="49.80808" lon="4.83895">
        <ele>228</ele>
        <time>2021-03-30T13:16:33.000Z</time>
      </trkpt>
      <trkpt lat="49.80803" lon="4.83896">
        <ele>228</ele>
        <time>2021-03-30T13:16:34.000Z</time>
      </trkpt>
      <trkpt lat="49.80798" lon="4.83897">
        <ele>228</ele>
        <time>2021-03-30T13:16:35.000Z</time>
      </trkpt>
      <trkpt lat="49.80793" lon="4.83897">
        <ele>228</ele>
        <time>2021-03-30T13:16:36.000Z</time>
      </trkpt>
      <trkpt lat="49.80789" lon="4.83898">
        <ele>228</ele>
        <time>2021-03-30T13:16:37.000Z</time>
      </trkpt>
      <trkpt lat="49.80784" lon="4.839">
        <ele>228</ele>
        <time>2021-03-30T13:16:38.000Z</time>
      </trkpt>
      <trkpt lat="49.80779" lon="4.83902">
        <ele>228</ele>
        <time>2021-03-30T13:16:39.000Z</time>
      </trkpt>
      <trkpt lat="49.80774" lon="4.83904">
        <ele>228</ele>
        <time>2021-03-30T13:16:40.000Z</time>
      </trkpt>
      <trkpt lat="49.80769" lon="4.83907">
        <ele>228</ele>
        <time>2021-03-30T13:16:41.000Z</time>
      </trkpt>
      <trkpt lat="49.80764" lon="4.83908">
        <ele>228</ele>
        <time>2021-03-30T13:16:42.000Z</time>
      </trkpt>
      <trkpt lat="49.8076" lon="4.83909">
        <ele>228</ele>
        <time>2021-03-30T13:16:43.000Z</time>
      </trkpt>
      <trkpt lat="49.80755" lon="4.83909">
        <ele>228</ele>
        <time>2021-03-30T13:16:44.000Z</time>
      </trkpt>
      <trkpt lat="49.80751" lon="4.8391">
        <ele>228</ele>
        <time>2021-03-30T13:16:45.000Z</time>
      </trkpt>
      <trkpt lat="49.80747" lon="4.83911">
        <ele>228</ele>
        <time>2021-03-30T13:16:46.000Z</time>
      </trkpt>
      <trkpt lat="49.80743" lon="4.83912">
        <ele>228</ele>
        <time>2021-03-30T13:16:47.000Z</time>
      </trkpt>
      <trkpt lat="49.8074" lon="4.83913">
        <ele>228</ele>
        <time>2021-03-30T13:16:48.000Z</time>
      </trkpt>
      <trkpt lat="49.80735" lon="4.83913">
        <ele>228</ele>
        <time>2021-03-30T13:16:49.000Z</time>
      </trkpt>
      <trkpt lat="49.80731" lon="4.83915">
        <ele>227</ele>
        <time>2021-03-30T13:16:50.000Z</time>
      </trkpt>
      <trkpt lat="49.80727" lon="4.83916">
        <ele>227</ele>
        <time>2021-03-30T13:16:51.000Z</time>
      </trkpt>
      <trkpt lat="49.80724" lon="4.83917">
        <ele>227</ele>
        <time>2021-03-30T13:16:52.000Z</time>
      </trkpt>
      <trkpt lat="49.80721" lon="4.83918">
        <ele>227</ele>
        <time>2021-03-30T13:16:53.000Z</time>
      </trkpt>
      <trkpt lat="49.80718" lon="4.8392">
        <ele>227</ele>
        <time>2021-03-30T13:16:54.000Z</time>
      </trkpt>
      <trkpt lat="49.80714" lon="4.83922">
        <ele>228</ele>
        <time>2021-03-30T13:16:55.000Z</time>
      </trkpt>
      <trkpt lat="49.8071" lon="4.83922">
        <ele>228</ele>
        <time>2021-03-30T13:16:56.000Z</time>
      </trkpt>
      <trkpt lat="49.80708" lon="4.83923">
        <ele>228</ele>
        <time>2021-03-30T13:16:57.000Z</time>
      </trkpt>
      <trkpt lat="49.80705" lon="4.83924">
        <ele>228</ele>
        <time>2021-03-30T13:16:58.000Z</time>
      </trkpt>
      <trkpt lat="49.80702" lon="4.83925">
        <ele>228</ele>
        <time>2021-03-30T13:16:59.000Z</time>
      </trkpt>
      <trkpt lat="49.807" lon="4.83926">
        <ele>229</ele>
        <time>2021-03-30T13:17:00.000Z</time>
      </trkpt>
      <trkpt lat="49.80698" lon="4.83927">
        <ele>229</ele>
        <time>2021-03-30T13:17:01.000Z</time>
      </trkpt>
      <trkpt lat="49.80695" lon="4.83928">
        <ele>229</ele>
        <time>2021-03-30T13:17:02.000Z</time>
      </trkpt>
      <trkpt lat="49.80693" lon="4.83929">
        <ele>229</ele>
        <time>2021-03-30T13:17:03.000Z</time>
      </trkpt>
      <trkpt lat="49.8069" lon="4.8393">
        <ele>229</ele>
        <time>2021-03-30T13:17:04.000Z</time>
      </trkpt>
      <trkpt lat="49.80687" lon="4.8393">
        <ele>229</ele>
        <time>2021-03-30T13:17:05.000Z</time>
      </trkpt>
      <trkpt lat="49.80683" lon="4.83931">
        <ele>230</ele>
        <time>2021-03-30T13:17:06.000Z</time>
      </trkpt>
      <trkpt lat="49.80679" lon="4.83932">
        <ele>230</ele>
        <time>2021-03-30T13:17:07.000Z</time>
      </trkpt>
      <trkpt lat="49.80675" lon="4.83934">
        <ele>230</ele>
        <time>2021-03-30T13:17:08.000Z</time>
      </trkpt>
      <trkpt lat="49.80671" lon="4.83934">
        <ele>230</ele>
        <time>2021-03-30T13:17:09.000Z</time>
      </trkpt>
      <trkpt lat="49.80667" lon="4.83936">
        <ele>230</ele>
        <time>2021-03-30T13:17:10.000Z</time>
      </trkpt>
      <trkpt lat="49.80664" lon="4.83938">
        <ele>230</ele>
        <time>2021-03-30T13:17:11.000Z</time>
      </trkpt>
      <trkpt lat="49.8066" lon="4.83939">
        <ele>230</ele>
        <time>2021-03-30T13:17:12.000Z</time>
      </trkpt>
      <trkpt lat="49.80656" lon="4.8394">
        <ele>230</ele>
        <time>2021-03-30T13:17:13.000Z</time>
      </trkpt>
      <trkpt lat="49.8065" lon="4.83941">
        <ele>229</ele>
        <time>2021-03-30T13:17:14.000Z</time>
      </trkpt>
      <trkpt lat="49.80645" lon="4.83942">
        <ele>229</ele>
        <time>2021-03-30T13:17:15.000Z</time>
      </trkpt>
      <trkpt lat="49.80639" lon="4.83943">
        <ele>229</ele>
        <time>2021-03-30T13:17:16.000Z</time>
      </trkpt>
      <trkpt lat="49.80633" lon="4.83944">
        <ele>228</ele>
        <time>2021-03-30T13:17:17.000Z</time>
      </trkpt>
      <trkpt lat="49.80628" lon="4.83945">
        <ele>228</ele>
        <time>2021-03-30T13:17:18.000Z</time>
      </trkpt>
      <trkpt lat="49.80622" lon="4.83945">
        <ele>228</ele>
        <time>2021-03-30T13:17:19.000Z</time>
      </trkpt>
      <trkpt lat="49.80616" lon="4.83946">
        <ele>227</ele>
        <time>2021-03-30T13:17:20.000Z</time>
      </trkpt>
      <trkpt lat="49.80611" lon="4.83946">
        <ele>227</ele>
        <time>2021-03-30T13:17:21.000Z</time>
      </trkpt>
      <trkpt lat="49.80605" lon="4.83947">
        <ele>226</ele>
        <time>2021-03-30T13:17:22.000Z</time>
      </trkpt>
      <trkpt lat="49.806" lon="4.83947">
        <ele>226</ele>
        <time>2021-03-30T13:17:23.000Z</time>
      </trkpt>
      <trkpt lat="49.80595" lon="4.83948">
        <ele>225</ele>
        <time>2021-03-30T13:17:24.000Z</time>
      </trkpt>
      <trkpt lat="49.80591" lon="4.83948">
        <ele>225</ele>
        <time>2021-03-30T13:17:25.000Z</time>
      </trkpt>
      <trkpt lat="49.80587" lon="4.83948">
        <ele>224</ele>
        <time>2021-03-30T13:17:26.000Z</time>
      </trkpt>
      <trkpt lat="49.80583" lon="4.83949">
        <ele>224</ele>
        <time>2021-03-30T13:17:27.000Z</time>
      </trkpt>
      <trkpt lat="49.80578" lon="4.83949">
        <ele>224</ele>
        <time>2021-03-30T13:17:28.000Z</time>
      </trkpt>
      <trkpt lat="49.80574" lon="4.8395">
        <ele>223</ele>
        <time>2021-03-30T13:17:29.000Z</time>
      </trkpt>
      <trkpt lat="49.8057" lon="4.8395">
        <ele>223</ele>
        <time>2021-03-30T13:17:30.000Z</time>
      </trkpt>
      <trkpt lat="49.80565" lon="4.8395">
        <ele>223</ele>
        <time>2021-03-30T13:17:31.000Z</time>
      </trkpt>
      <trkpt lat="49.8056" lon="4.83951">
        <ele>222</ele>
        <time>2021-03-30T13:17:32.000Z</time>
      </trkpt>
      <trkpt lat="49.80556" lon="4.83951">
        <ele>222</ele>
        <time>2021-03-30T13:17:33.000Z</time>
      </trkpt>
      <trkpt lat="49.80551" lon="4.83952">
        <ele>221</ele>
        <time>2021-03-30T13:17:34.000Z</time>
      </trkpt>
      <trkpt lat="49.80546" lon="4.83953">
        <ele>221</ele>
        <time>2021-03-30T13:17:35.000Z</time>
      </trkpt>
      <trkpt lat="49.80542" lon="4.83954">
        <ele>221</ele>
        <time>2021-03-30T13:17:36.000Z</time>
      </trkpt>
      <trkpt lat="49.80538" lon="4.83954">
        <ele>221</ele>
        <time>2021-03-30T13:17:37.000Z</time>
      </trkpt>
      <trkpt lat="49.80534" lon="4.83954">
        <ele>220</ele>
        <time>2021-03-30T13:17:38.000Z</time>
      </trkpt>
      <trkpt lat="49.80531" lon="4.83954">
        <ele>220</ele>
        <time>2021-03-30T13:17:39.000Z</time>
      </trkpt>
      <trkpt lat="49.80528" lon="4.83956">
        <ele>220</ele>
        <time>2021-03-30T13:17:40.000Z</time>
      </trkpt>
      <trkpt lat="49.80525" lon="4.83958">
        <ele>219</ele>
        <time>2021-03-30T13:17:41.000Z</time>
      </trkpt>
      <trkpt lat="49.80523" lon="4.83959">
        <ele>219</ele>
        <time>2021-03-30T13:17:42.000Z</time>
      </trkpt>
      <trkpt lat="49.8052" lon="4.83959">
        <ele>219</ele>
        <time>2021-03-30T13:17:43.000Z</time>
      </trkpt>
      <trkpt lat="49.80518" lon="4.83959">
        <ele>219</ele>
        <time>2021-03-30T13:17:44.000Z</time>
      </trkpt>
      <trkpt lat="49.80515" lon="4.83959">
        <ele>219</ele>
        <time>2021-03-30T13:17:45.000Z</time>
      </trkpt>
      <trkpt lat="49.80513" lon="4.83958">
        <ele>219</ele>
        <time>2021-03-30T13:17:46.000Z</time>
      </trkpt>
      <trkpt lat="49.8051" lon="4.83958">
        <ele>219</ele>
        <time>2021-03-30T13:17:47.000Z</time>
      </trkpt>
      <trkpt lat="49.80508" lon="4.83958">
        <ele>219</ele>
        <time>2021-03-30T13:17:48.000Z</time>
      </trkpt>
      <trkpt lat="49.80506" lon="4.83956">
        <ele>219</ele>
        <time>2021-03-30T13:17:49.000Z</time>
      </trkpt>
      <trkpt lat="49.80503" lon="4.83952">
        <ele>219</ele>
        <time>2021-03-30T13:17:50.000Z</time>
      </trkpt>
      <trkpt lat="49.805" lon="4.83948">
        <ele>219</ele>
        <time>2021-03-30T13:17:51.000Z</time>
      </trkpt>
      <trkpt lat="49.80497" lon="4.83944">
        <ele>219</ele>
        <time>2021-03-30T13:17:52.000Z</time>
      </trkpt>
      <trkpt lat="49.80493" lon="4.83939">
        <ele>218</ele>
        <time>2021-03-30T13:17:53.000Z</time>
      </trkpt>
      <trkpt lat="49.80489" lon="4.83935">
        <ele>218</ele>
        <time>2021-03-30T13:17:54.000Z</time>
      </trkpt>
      <trkpt lat="49.80485" lon="4.83931">
        <ele>218</ele>
        <time>2021-03-30T13:17:55.000Z</time>
      </trkpt>
      <trkpt lat="49.80481" lon="4.83927">
        <ele>218</ele>
        <time>2021-03-30T13:17:56.000Z</time>
      </trkpt>
      <trkpt lat="49.80476" lon="4.83923">
        <ele>218</ele>
        <time>2021-03-30T13:17:57.000Z</time>
      </trkpt>
      <trkpt lat="49.80472" lon="4.83919">
        <ele>218</ele>
        <time>2021-03-30T13:17:58.000Z</time>
      </trkpt>
      <trkpt lat="49.80467" lon="4.83917">
        <ele>218</ele>
        <time>2021-03-30T13:17:59.000Z</time>
      </trkpt>
      <trkpt lat="49.80462" lon="4.83915">
        <ele>218</ele>
        <time>2021-03-30T13:18:00.000Z</time>
      </trkpt>
      <trkpt lat="49.80458" lon="4.83912">
        <ele>218</ele>
        <time>2021-03-30T13:18:01.000Z</time>
      </trkpt>
      <trkpt lat="49.80454" lon="4.8391">
        <ele>218</ele>
        <time>2021-03-30T13:18:02.000Z</time>
      </trkpt>
      <trkpt lat="49.8045" lon="4.83908">
        <ele>218</ele>
        <time>2021-03-30T13:18:03.000Z</time>
      </trkpt>
      <trkpt lat="49.80445" lon="4.83906">
        <ele>218</ele>
        <time>2021-03-30T13:18:04.000Z</time>
      </trkpt>
      <trkpt lat="49.80441" lon="4.83903">
        <ele>218</ele>
        <time>2021-03-30T13:18:05.000Z</time>
      </trkpt>
      <trkpt lat="49.80437" lon="4.839">
        <ele>218</ele>
        <time>2021-03-30T13:18:06.000Z</time>
      </trkpt>
      <trkpt lat="49.80433" lon="4.83897">
        <ele>218</ele>
        <time>2021-03-30T13:18:07.000Z</time>
      </trkpt>
      <trkpt lat="49.80428" lon="4.83894">
        <ele>217</ele>
        <time>2021-03-30T13:18:08.000Z</time>
      </trkpt>
      <trkpt lat="49.80423" lon="4.8389">
        <ele>217</ele>
        <time>2021-03-30T13:18:09.000Z</time>
      </trkpt>
      <trkpt lat="49.80418" lon="4.83886">
        <ele>217</ele>
        <time>2021-03-30T13:18:10.000Z</time>
      </trkpt>
      <trkpt lat="49.80414" lon="4.83882">
        <ele>217</ele>
        <time>2021-03-30T13:18:11.000Z</time>
      </trkpt>
      <trkpt lat="49.80409" lon="4.83876">
        <ele>217</ele>
        <time>2021-03-30T13:18:12.000Z</time>
      </trkpt>
      <trkpt lat="49.80406" lon="4.8387">
        <ele>217</ele>
        <time>2021-03-30T13:18:13.000Z</time>
      </trkpt>
      <trkpt lat="49.80401" lon="4.83866">
        <ele>217</ele>
        <time>2021-03-30T13:18:14.000Z</time>
      </trkpt>
      <trkpt lat="49.80397" lon="4.83862">
        <ele>217</ele>
        <time>2021-03-30T13:18:15.000Z</time>
      </trkpt>
      <trkpt lat="49.80392" lon="4.83861">
        <ele>217</ele>
        <time>2021-03-30T13:18:16.000Z</time>
      </trkpt>
      <trkpt lat="49.80388" lon="4.8386">
        <ele>217</ele>
        <time>2021-03-30T13:18:17.000Z</time>
      </trkpt>
      <trkpt lat="49.80384" lon="4.83859">
        <ele>217</ele>
        <time>2021-03-30T13:18:18.000Z</time>
      </trkpt>
      <trkpt lat="49.80379" lon="4.83859">
        <ele>217</ele>
        <time>2021-03-30T13:18:19.000Z</time>
      </trkpt>
      <trkpt lat="49.80375" lon="4.83858">
        <ele>217</ele>
        <time>2021-03-30T13:18:20.000Z</time>
      </trkpt>
      <trkpt lat="49.80371" lon="4.83858">
        <ele>217</ele>
        <time>2021-03-30T13:18:21.000Z</time>
      </trkpt>
      <trkpt lat="49.80366" lon="4.83857">
        <ele>217</ele>
        <time>2021-03-30T13:18:22.000Z</time>
      </trkpt>
      <trkpt lat="49.80361" lon="4.83856">
        <ele>217</ele>
        <time>2021-03-30T13:18:23.000Z</time>
      </trkpt>
      <trkpt lat="49.80356" lon="4.83856">
        <ele>218</ele>
        <time>2021-03-30T13:18:24.000Z</time>
      </trkpt>
      <trkpt lat="49.8035" lon="4.83855">
        <ele>218</ele>
        <time>2021-03-30T13:18:25.000Z</time>
      </trkpt>
      <trkpt lat="49.80345" lon="4.83854">
        <ele>218</ele>
        <time>2021-03-30T13:18:26.000Z</time>
      </trkpt>
      <trkpt lat="49.8034" lon="4.83852">
        <ele>218</ele>
        <time>2021-03-30T13:18:27.000Z</time>
      </trkpt>
      <trkpt lat="49.80335" lon="4.83851">
        <ele>218</ele>
        <time>2021-03-30T13:18:28.000Z</time>
      </trkpt>
      <trkpt lat="49.80331" lon="4.83851">
        <ele>219</ele>
        <time>2021-03-30T13:18:29.000Z</time>
      </trkpt>
      <trkpt lat="49.80326" lon="4.83851">
        <ele>219</ele>
        <time>2021-03-30T13:18:30.000Z</time>
      </trkpt>
      <trkpt lat="49.80323" lon="4.83851">
        <ele>219</ele>
        <time>2021-03-30T13:18:31.000Z</time>
      </trkpt>
      <trkpt lat="49.8032" lon="4.83851">
        <ele>219</ele>
        <time>2021-03-30T13:18:32.000Z</time>
      </trkpt>
      <trkpt lat="49.80317" lon="4.83851">
        <ele>220</ele>
        <time>2021-03-30T13:18:33.000Z</time>
      </trkpt>
      <trkpt lat="49.80314" lon="4.83851">
        <ele>220</ele>
        <time>2021-03-30T13:18:34.000Z</time>
      </trkpt>
      <trkpt lat="49.80311" lon="4.83851">
        <ele>220</ele>
        <time>2021-03-30T13:18:35.000Z</time>
      </trkpt>
      <trkpt lat="49.80308" lon="4.8385">
        <ele>220</ele>
        <time>2021-03-30T13:18:36.000Z</time>
      </trkpt>
      <trkpt lat="49.80304" lon="4.83849">
        <ele>221</ele>
        <time>2021-03-30T13:18:37.000Z</time>
      </trkpt>
      <trkpt lat="49.803" lon="4.83848">
        <ele>221</ele>
        <time>2021-03-30T13:18:38.000Z</time>
      </trkpt>
      <trkpt lat="49.80296" lon="4.83847">
        <ele>221</ele>
        <time>2021-03-30T13:18:39.000Z</time>
      </trkpt>
      <trkpt lat="49.80292" lon="4.83846">
        <ele>221</ele>
        <time>2021-03-30T13:18:40.000Z</time>
      </trkpt>
      <trkpt lat="49.80288" lon="4.83845">
        <ele>221</ele>
        <time>2021-03-30T13:18:41.000Z</time>
      </trkpt>
      <trkpt lat="49.80283" lon="4.83844">
        <ele>222</ele>
        <time>2021-03-30T13:18:42.000Z</time>
      </trkpt>
      <trkpt lat="49.80279" lon="4.83843">
        <ele>222</ele>
        <time>2021-03-30T13:18:43.000Z</time>
      </trkpt>
      <trkpt lat="49.80274" lon="4.83842">
        <ele>222</ele>
        <time>2021-03-30T13:18:44.000Z</time>
      </trkpt>
      <trkpt lat="49.8027" lon="4.83842">
        <ele>222</ele>
        <time>2021-03-30T13:18:45.000Z</time>
      </trkpt>
      <trkpt lat="49.80266" lon="4.83842">
        <ele>222</ele>
        <time>2021-03-30T13:18:46.000Z</time>
      </trkpt>
      <trkpt lat="49.80262" lon="4.83842">
        <ele>222</ele>
        <time>2021-03-30T13:18:47.000Z</time>
      </trkpt>
      <trkpt lat="49.80258" lon="4.83842">
        <ele>222</ele>
        <time>2021-03-30T13:18:48.000Z</time>
      </trkpt>
      <trkpt lat="49.80253" lon="4.83843">
        <ele>223</ele>
        <time>2021-03-30T13:18:49.000Z</time>
      </trkpt>
      <trkpt lat="49.80249" lon="4.83842">
        <ele>223</ele>
        <time>2021-03-30T13:18:50.000Z</time>
      </trkpt>
      <trkpt lat="49.80245" lon="4.83842">
        <ele>223</ele>
        <time>2021-03-30T13:18:51.000Z</time>
      </trkpt>
      <trkpt lat="49.80241" lon="4.83842">
        <ele>223</ele>
        <time>2021-03-30T13:18:52.000Z</time>
      </trkpt>
      <trkpt lat="49.80237" lon="4.83842">
        <ele>223</ele>
        <time>2021-03-30T13:18:53.000Z</time>
      </trkpt>
      <trkpt lat="49.80232" lon="4.83842">
        <ele>223</ele>
        <time>2021-03-30T13:18:54.000Z</time>
      </trkpt>
      <trkpt lat="49.80228" lon="4.83841">
        <ele>223</ele>
        <time>2021-03-30T13:18:55.000Z</time>
      </trkpt>
      <trkpt lat="49.80223" lon="4.83841">
        <ele>223</ele>
        <time>2021-03-30T13:18:56.000Z</time>
      </trkpt>
      <trkpt lat="49.80218" lon="4.83841">
        <ele>223</ele>
        <time>2021-03-30T13:18:57.000Z</time>
      </trkpt>
      <trkpt lat="49.80213" lon="4.8384">
        <ele>223</ele>
        <time>2021-03-30T13:18:58.000Z</time>
      </trkpt>
      <trkpt lat="49.80208" lon="4.8384">
        <ele>223</ele>
        <time>2021-03-30T13:18:59.000Z</time>
      </trkpt>
      <trkpt lat="49.80202" lon="4.8384">
        <ele>223</ele>
        <time>2021-03-30T13:19:00.000Z</time>
      </trkpt>
      <trkpt lat="49.80197" lon="4.83839">
        <ele>223</ele>
        <time>2021-03-30T13:19:01.000Z</time>
      </trkpt>
      <trkpt lat="49.80191" lon="4.83838">
        <ele>223</ele>
        <time>2021-03-30T13:19:02.000Z</time>
      </trkpt>
      <trkpt lat="49.80186" lon="4.83837">
        <ele>223</ele>
        <time>2021-03-30T13:19:03.000Z</time>
      </trkpt>
      <trkpt lat="49.80182" lon="4.83836">
        <ele>223</ele>
        <time>2021-03-30T13:19:04.000Z</time>
      </trkpt>
      <trkpt lat="49.80177" lon="4.83834">
        <ele>223</ele>
        <time>2021-03-30T13:19:05.000Z</time>
      </trkpt>
      <trkpt lat="49.80172" lon="4.83833">
        <ele>223</ele>
        <time>2021-03-30T13:19:06.000Z</time>
      </trkpt>
      <trkpt lat="49.80168" lon="4.83832">
        <ele>223</ele>
        <time>2021-03-30T13:19:07.000Z</time>
      </trkpt>
      <trkpt lat="49.80163" lon="4.83831">
        <ele>223</ele>
        <time>2021-03-30T13:19:08.000Z</time>
      </trkpt>
      <trkpt lat="49.80158" lon="4.83829">
        <ele>223</ele>
        <time>2021-03-30T13:19:09.000Z</time>
      </trkpt>
      <trkpt lat="49.80153" lon="4.83828">
        <ele>223</ele>
        <time>2021-03-30T13:19:10.000Z</time>
      </trkpt>
      <trkpt lat="49.80149" lon="4.83827">
        <ele>223</ele>
        <time>2021-03-30T13:19:11.000Z</time>
      </trkpt>
      <trkpt lat="49.80144" lon="4.83826">
        <ele>223</ele>
        <time>2021-03-30T13:19:12.000Z</time>
      </trkpt>
      <trkpt lat="49.8014" lon="4.83824">
        <ele>224</ele>
        <time>2021-03-30T13:19:13.000Z</time>
      </trkpt>
      <trkpt lat="49.80135" lon="4.83823">
        <ele>224</ele>
        <time>2021-03-30T13:19:14.000Z</time>
      </trkpt>
      <trkpt lat="49.80131" lon="4.83822">
        <ele>224</ele>
        <time>2021-03-30T13:19:15.000Z</time>
      </trkpt>
      <trkpt lat="49.80128" lon="4.8382">
        <ele>224</ele>
        <time>2021-03-30T13:19:16.000Z</time>
      </trkpt>
      <trkpt lat="49.80124" lon="4.83819">
        <ele>224</ele>
        <time>2021-03-30T13:19:17.000Z</time>
      </trkpt>
      <trkpt lat="49.8012" lon="4.83817">
        <ele>224</ele>
        <time>2021-03-30T13:19:18.000Z</time>
      </trkpt>
      <trkpt lat="49.80115" lon="4.83816">
        <ele>224</ele>
        <time>2021-03-30T13:19:19.000Z</time>
      </trkpt>
      <trkpt lat="49.80111" lon="4.83814">
        <ele>224</ele>
        <time>2021-03-30T13:19:20.000Z</time>
      </trkpt>
      <trkpt lat="49.80106" lon="4.83812">
        <ele>225</ele>
        <time>2021-03-30T13:19:21.000Z</time>
      </trkpt>
      <trkpt lat="49.80102" lon="4.83811">
        <ele>225</ele>
        <time>2021-03-30T13:19:22.000Z</time>
      </trkpt>
      <trkpt lat="49.80098" lon="4.83809">
        <ele>225</ele>
        <time>2021-03-30T13:19:23.000Z</time>
      </trkpt>
      <trkpt lat="49.80094" lon="4.83809">
        <ele>225</ele>
        <time>2021-03-30T13:19:24.000Z</time>
      </trkpt>
      <trkpt lat="49.8009" lon="4.83807">
        <ele>225</ele>
        <time>2021-03-30T13:19:25.000Z</time>
      </trkpt>
      <trkpt lat="49.80085" lon="4.83805">
        <ele>225</ele>
        <time>2021-03-30T13:19:26.000Z</time>
      </trkpt>
      <trkpt lat="49.80081" lon="4.83803">
        <ele>226</ele>
        <time>2021-03-30T13:19:27.000Z</time>
      </trkpt>
      <trkpt lat="49.80077" lon="4.83802">
        <ele>226</ele>
        <time>2021-03-30T13:19:28.000Z</time>
      </trkpt>
      <trkpt lat="49.80072" lon="4.838">
        <ele>226</ele>
        <time>2021-03-30T13:19:29.000Z</time>
      </trkpt>
      <trkpt lat="49.80067" lon="4.83799">
        <ele>226</ele>
        <time>2021-03-30T13:19:30.000Z</time>
      </trkpt>
      <trkpt lat="49.80062" lon="4.83797">
        <ele>226</ele>
        <time>2021-03-30T13:19:31.000Z</time>
      </trkpt>
      <trkpt lat="49.80057" lon="4.83796">
        <ele>226</ele>
        <time>2021-03-30T13:19:32.000Z</time>
      </trkpt>
      <trkpt lat="49.80053" lon="4.83794">
        <ele>227</ele>
        <time>2021-03-30T13:19:33.000Z</time>
      </trkpt>
      <trkpt lat="49.80048" lon="4.83793">
        <ele>227</ele>
        <time>2021-03-30T13:19:34.000Z</time>
      </trkpt>
      <trkpt lat="49.80043" lon="4.83791">
        <ele>227</ele>
        <time>2021-03-30T13:19:35.000Z</time>
      </trkpt>
      <trkpt lat="49.80038" lon="4.83789">
        <ele>227</ele>
        <time>2021-03-30T13:19:36.000Z</time>
      </trkpt>
      <trkpt lat="49.80033" lon="4.83787">
        <ele>228</ele>
        <time>2021-03-30T13:19:37.000Z</time>
      </trkpt>
      <trkpt lat="49.80028" lon="4.83785">
        <ele>228</ele>
        <time>2021-03-30T13:19:38.000Z</time>
      </trkpt>
      <trkpt lat="49.80024" lon="4.83784">
        <ele>228</ele>
        <time>2021-03-30T13:19:39.000Z</time>
      </trkpt>
      <trkpt lat="49.8002" lon="4.83783">
        <ele>229</ele>
        <time>2021-03-30T13:19:40.000Z</time>
      </trkpt>
      <trkpt lat="49.80016" lon="4.83782">
        <ele>229</ele>
        <time>2021-03-30T13:19:41.000Z</time>
      </trkpt>
      <trkpt lat="49.80012" lon="4.83781">
        <ele>229</ele>
        <time>2021-03-30T13:19:42.000Z</time>
      </trkpt>
      <trkpt lat="49.80007" lon="4.83779">
        <ele>230</ele>
        <time>2021-03-30T13:19:43.000Z</time>
      </trkpt>
      <trkpt lat="49.80002" lon="4.83778">
        <ele>230</ele>
        <time>2021-03-30T13:19:44.000Z</time>
      </trkpt>
      <trkpt lat="49.79996" lon="4.83776">
        <ele>230</ele>
        <time>2021-03-30T13:19:45.000Z</time>
      </trkpt>
      <trkpt lat="49.79991" lon="4.83774">
        <ele>230</ele>
        <time>2021-03-30T13:19:46.000Z</time>
      </trkpt>
      <trkpt lat="49.79986" lon="4.83772">
        <ele>231</ele>
        <time>2021-03-30T13:19:47.000Z</time>
      </trkpt>
      <trkpt lat="49.7998" lon="4.83771">
        <ele>231</ele>
        <time>2021-03-30T13:19:48.000Z</time>
      </trkpt>
      <trkpt lat="49.79975" lon="4.8377">
        <ele>231</ele>
        <time>2021-03-30T13:19:49.000Z</time>
      </trkpt>
      <trkpt lat="49.79969" lon="4.83768">
        <ele>232</ele>
        <time>2021-03-30T13:19:50.000Z</time>
      </trkpt>
      <trkpt lat="49.79962" lon="4.83767">
        <ele>232</ele>
        <time>2021-03-30T13:19:51.000Z</time>
      </trkpt>
      <trkpt lat="49.79956" lon="4.83766">
        <ele>232</ele>
        <time>2021-03-30T13:19:52.000Z</time>
      </trkpt>
      <trkpt lat="49.79951" lon="4.83764">
        <ele>233</ele>
        <time>2021-03-30T13:19:53.000Z</time>
      </trkpt>
      <trkpt lat="49.79945" lon="4.83762">
        <ele>233</ele>
        <time>2021-03-30T13:19:54.000Z</time>
      </trkpt>
      <trkpt lat="49.79939" lon="4.83762">
        <ele>233</ele>
        <time>2021-03-30T13:19:55.000Z</time>
      </trkpt>
      <trkpt lat="49.79934" lon="4.8376">
        <ele>233</ele>
        <time>2021-03-30T13:19:56.000Z</time>
      </trkpt>
      <trkpt lat="49.79929" lon="4.83758">
        <ele>233</ele>
        <time>2021-03-30T13:19:57.000Z</time>
      </trkpt>
      <trkpt lat="49.79924" lon="4.83755">
        <ele>234</ele>
        <time>2021-03-30T13:19:58.000Z</time>
      </trkpt>
      <trkpt lat="49.79918" lon="4.83754">
        <ele>234</ele>
        <time>2021-03-30T13:19:59.000Z</time>
      </trkpt>
      <trkpt lat="49.79913" lon="4.83753">
        <ele>234</ele>
        <time>2021-03-30T13:20:00.000Z</time>
      </trkpt>
      <trkpt lat="49.79906" lon="4.83751">
        <ele>234</ele>
        <time>2021-03-30T13:20:01.000Z</time>
      </trkpt>
      <trkpt lat="49.799" lon="4.83749">
        <ele>234</ele>
        <time>2021-03-30T13:20:02.000Z</time>
      </trkpt>
      <trkpt lat="49.79894" lon="4.83747">
        <ele>234</ele>
        <time>2021-03-30T13:20:03.000Z</time>
      </trkpt>
      <trkpt lat="49.79888" lon="4.83746">
        <ele>235</ele>
        <time>2021-03-30T13:20:04.000Z</time>
      </trkpt>
      <trkpt lat="49.79882" lon="4.83745">
        <ele>235</ele>
        <time>2021-03-30T13:20:05.000Z</time>
      </trkpt>
      <trkpt lat="49.79877" lon="4.83745">
        <ele>235</ele>
        <time>2021-03-30T13:20:06.000Z</time>
      </trkpt>
      <trkpt lat="49.79871" lon="4.83744">
        <ele>235</ele>
        <time>2021-03-30T13:20:07.000Z</time>
      </trkpt>
      <trkpt lat="49.79865" lon="4.83744">
        <ele>236</ele>
        <time>2021-03-30T13:20:08.000Z</time>
      </trkpt>
      <trkpt lat="49.7986" lon="4.83743">
        <ele>236</ele>
        <time>2021-03-30T13:20:09.000Z</time>
      </trkpt>
      <trkpt lat="49.79856" lon="4.83742">
        <ele>236</ele>
        <time>2021-03-30T13:20:10.000Z</time>
      </trkpt>
      <trkpt lat="49.79852" lon="4.83743">
        <ele>236</ele>
        <time>2021-03-30T13:20:11.000Z</time>
      </trkpt>
      <trkpt lat="49.79848" lon="4.83742">
        <ele>236</ele>
        <time>2021-03-30T13:20:12.000Z</time>
      </trkpt>
      <trkpt lat="49.79844" lon="4.83741">
        <ele>236</ele>
        <time>2021-03-30T13:20:13.000Z</time>
      </trkpt>
      <trkpt lat="49.79839" lon="4.83742">
        <ele>237</ele>
        <time>2021-03-30T13:20:14.000Z</time>
      </trkpt>
      <trkpt lat="49.79834" lon="4.83741">
        <ele>237</ele>
        <time>2021-03-30T13:20:15.000Z</time>
      </trkpt>
      <trkpt lat="49.79828" lon="4.83741">
        <ele>237</ele>
        <time>2021-03-30T13:20:16.000Z</time>
      </trkpt>
      <trkpt lat="49.79822" lon="4.8374">
        <ele>237</ele>
        <time>2021-03-30T13:20:17.000Z</time>
      </trkpt>
      <trkpt lat="49.79816" lon="4.83739">
        <ele>238</ele>
        <time>2021-03-30T13:20:18.000Z</time>
      </trkpt>
      <trkpt lat="49.7981" lon="4.83739">
        <ele>238</ele>
        <time>2021-03-30T13:20:19.000Z</time>
      </trkpt>
      <trkpt lat="49.79805" lon="4.83739">
        <ele>238</ele>
        <time>2021-03-30T13:20:20.000Z</time>
      </trkpt>
      <trkpt lat="49.79799" lon="4.83739">
        <ele>238</ele>
        <time>2021-03-30T13:20:21.000Z</time>
      </trkpt>
      <trkpt lat="49.79793" lon="4.83739">
        <ele>239</ele>
        <time>2021-03-30T13:20:22.000Z</time>
      </trkpt>
      <trkpt lat="49.79787" lon="4.83739">
        <ele>239</ele>
        <time>2021-03-30T13:20:23.000Z</time>
      </trkpt>
      <trkpt lat="49.7978" lon="4.8374">
        <ele>239</ele>
        <time>2021-03-30T13:20:24.000Z</time>
      </trkpt>
      <trkpt lat="49.79773" lon="4.8374">
        <ele>239</ele>
        <time>2021-03-30T13:20:25.000Z</time>
      </trkpt>
      <trkpt lat="49.79767" lon="4.83739">
        <ele>240</ele>
        <time>2021-03-30T13:20:26.000Z</time>
      </trkpt>
      <trkpt lat="49.7976" lon="4.83739">
        <ele>240</ele>
        <time>2021-03-30T13:20:27.000Z</time>
      </trkpt>
      <trkpt lat="49.79752" lon="4.83738">
        <ele>240</ele>
        <time>2021-03-30T13:20:28.000Z</time>
      </trkpt>
      <trkpt lat="49.79744" lon="4.83738">
        <ele>240</ele>
        <time>2021-03-30T13:20:29.000Z</time>
      </trkpt>
      <trkpt lat="49.79737" lon="4.83737">
        <ele>240</ele>
        <time>2021-03-30T13:20:30.000Z</time>
      </trkpt>
      <trkpt lat="49.79729" lon="4.83738">
        <ele>240</ele>
        <time>2021-03-30T13:20:31.000Z</time>
      </trkpt>
      <trkpt lat="49.79722" lon="4.83739">
        <ele>240</ele>
        <time>2021-03-30T13:20:32.000Z</time>
      </trkpt>
      <trkpt lat="49.79716" lon="4.83738">
        <ele>240</ele>
        <time>2021-03-30T13:20:33.000Z</time>
      </trkpt>
      <trkpt lat="49.79709" lon="4.83737">
        <ele>239</ele>
        <time>2021-03-30T13:20:34.000Z</time>
      </trkpt>
      <trkpt lat="49.79703" lon="4.83737">
        <ele>239</ele>
        <time>2021-03-30T13:20:35.000Z</time>
      </trkpt>
      <trkpt lat="49.79696" lon="4.83738">
        <ele>239</ele>
        <time>2021-03-30T13:20:36.000Z</time>
      </trkpt>
      <trkpt lat="49.79689" lon="4.83738">
        <ele>239</ele>
        <time>2021-03-30T13:20:37.000Z</time>
      </trkpt>
      <trkpt lat="49.79682" lon="4.83737">
        <ele>239</ele>
        <time>2021-03-30T13:20:38.000Z</time>
      </trkpt>
      <trkpt lat="49.79676" lon="4.83737">
        <ele>239</ele>
        <time>2021-03-30T13:20:39.000Z</time>
      </trkpt>
      <trkpt lat="49.79669" lon="4.83737">
        <ele>238</ele>
        <time>2021-03-30T13:20:40.000Z</time>
      </trkpt>
      <trkpt lat="49.79663" lon="4.83737">
        <ele>238</ele>
        <time>2021-03-30T13:20:41.000Z</time>
      </trkpt>
      <trkpt lat="49.79656" lon="4.83737">
        <ele>237</ele>
        <time>2021-03-30T13:20:42.000Z</time>
      </trkpt>
      <trkpt lat="49.79649" lon="4.83737">
        <ele>237</ele>
        <time>2021-03-30T13:20:43.000Z</time>
      </trkpt>
      <trkpt lat="49.79641" lon="4.83736">
        <ele>237</ele>
        <time>2021-03-30T13:20:44.000Z</time>
      </trkpt>
      <trkpt lat="49.79633" lon="4.83736">
        <ele>236</ele>
        <time>2021-03-30T13:20:45.000Z</time>
      </trkpt>
      <trkpt lat="49.79626" lon="4.83735">
        <ele>236</ele>
        <time>2021-03-30T13:20:46.000Z</time>
      </trkpt>
      <trkpt lat="49.79618" lon="4.83735">
        <ele>235</ele>
        <time>2021-03-30T13:20:47.000Z</time>
      </trkpt>
      <trkpt lat="49.7961" lon="4.83734">
        <ele>235</ele>
        <time>2021-03-30T13:20:48.000Z</time>
      </trkpt>
      <trkpt lat="49.79602" lon="4.83733">
        <ele>235</ele>
        <time>2021-03-30T13:20:49.000Z</time>
      </trkpt>
      <trkpt lat="49.79594" lon="4.83732">
        <ele>234</ele>
        <time>2021-03-30T13:20:50.000Z</time>
      </trkpt>
      <trkpt lat="49.79586" lon="4.83731">
        <ele>234</ele>
        <time>2021-03-30T13:20:51.000Z</time>
      </trkpt>
      <trkpt lat="49.79579" lon="4.83729">
        <ele>233</ele>
        <time>2021-03-30T13:20:52.000Z</time>
      </trkpt>
      <trkpt lat="49.79571" lon="4.83727">
        <ele>233</ele>
        <time>2021-03-30T13:20:53.000Z</time>
      </trkpt>
      <trkpt lat="49.79564" lon="4.83725">
        <ele>232</ele>
        <time>2021-03-30T13:20:54.000Z</time>
      </trkpt>
      <trkpt lat="49.79557" lon="4.83724">
        <ele>232</ele>
        <time>2021-03-30T13:20:55.000Z</time>
      </trkpt>
      <trkpt lat="49.7955" lon="4.83721">
        <ele>231</ele>
        <time>2021-03-30T13:20:56.000Z</time>
      </trkpt>
      <trkpt lat="49.79543" lon="4.83718">
        <ele>231</ele>
        <time>2021-03-30T13:20:57.000Z</time>
      </trkpt>
      <trkpt lat="49.79537" lon="4.83716">
        <ele>230</ele>
        <time>2021-03-30T13:20:58.000Z</time>
      </trkpt>
      <trkpt lat="49.7953" lon="4.83716">
        <ele>230</ele>
        <time>2021-03-30T13:20:59.000Z</time>
      </trkpt>
      <trkpt lat="49.79524" lon="4.83715">
        <ele>229</ele>
        <time>2021-03-30T13:21:00.000Z</time>
      </trkpt>
      <trkpt lat="49.79517" lon="4.83714">
        <ele>229</ele>
        <time>2021-03-30T13:21:01.000Z</time>
      </trkpt>
      <trkpt lat="49.79511" lon="4.83713">
        <ele>228</ele>
        <time>2021-03-30T13:21:02.000Z</time>
      </trkpt>
      <trkpt lat="49.79504" lon="4.83712">
        <ele>228</ele>
        <time>2021-03-30T13:21:03.000Z</time>
      </trkpt>
      <trkpt lat="49.79499" lon="4.83712">
        <ele>228</ele>
        <time>2021-03-30T13:21:04.000Z</time>
      </trkpt>
      <trkpt lat="49.79493" lon="4.8371">
        <ele>227</ele>
        <time>2021-03-30T13:21:05.000Z</time>
      </trkpt>
      <trkpt lat="49.79488" lon="4.8371">
        <ele>227</ele>
        <time>2021-03-30T13:21:06.000Z</time>
      </trkpt>
      <trkpt lat="49.79482" lon="4.83709">
        <ele>227</ele>
        <time>2021-03-30T13:21:07.000Z</time>
      </trkpt>
      <trkpt lat="49.79477" lon="4.83708">
        <ele>227</ele>
        <time>2021-03-30T13:21:08.000Z</time>
      </trkpt>
      <trkpt lat="49.79471" lon="4.83708">
        <ele>226</ele>
        <time>2021-03-30T13:21:09.000Z</time>
      </trkpt>
      <trkpt lat="49.79466" lon="4.83708">
        <ele>226</ele>
        <time>2021-03-30T13:21:10.000Z</time>
      </trkpt>
      <trkpt lat="49.7946" lon="4.83707">
        <ele>226</ele>
        <time>2021-03-30T13:21:11.000Z</time>
      </trkpt>
      <trkpt lat="49.79455" lon="4.83706">
        <ele>226</ele>
        <time>2021-03-30T13:21:12.000Z</time>
      </trkpt>
      <trkpt lat="49.7945" lon="4.83706">
        <ele>226</ele>
        <time>2021-03-30T13:21:13.000Z</time>
      </trkpt>
      <trkpt lat="49.79444" lon="4.83706">
        <ele>226</ele>
        <time>2021-03-30T13:21:14.000Z</time>
      </trkpt>
      <trkpt lat="49.79438" lon="4.83705">
        <ele>226</ele>
        <time>2021-03-30T13:21:15.000Z</time>
      </trkpt>
      <trkpt lat="49.79433" lon="4.83703">
        <ele>226</ele>
        <time>2021-03-30T13:21:16.000Z</time>
      </trkpt>
      <trkpt lat="49.79427" lon="4.83703">
        <ele>226</ele>
        <time>2021-03-30T13:21:17.000Z</time>
      </trkpt>
      <trkpt lat="49.79421" lon="4.83702">
        <ele>226</ele>
        <time>2021-03-30T13:21:18.000Z</time>
      </trkpt>
      <trkpt lat="49.79414" lon="4.83702">
        <ele>225</ele>
        <time>2021-03-30T13:21:19.000Z</time>
      </trkpt>
      <trkpt lat="49.79408" lon="4.83703">
        <ele>225</ele>
        <time>2021-03-30T13:21:20.000Z</time>
      </trkpt>
      <trkpt lat="49.79402" lon="4.83704">
        <ele>225</ele>
        <time>2021-03-30T13:21:21.000Z</time>
      </trkpt>
      <trkpt lat="49.79397" lon="4.83705">
        <ele>225</ele>
        <time>2021-03-30T13:21:22.000Z</time>
      </trkpt>
      <trkpt lat="49.79392" lon="4.83708">
        <ele>225</ele>
        <time>2021-03-30T13:21:23.000Z</time>
      </trkpt>
      <trkpt lat="49.79386" lon="4.83711">
        <ele>225</ele>
        <time>2021-03-30T13:21:24.000Z</time>
      </trkpt>
      <trkpt lat="49.79381" lon="4.83717">
        <ele>225</ele>
        <time>2021-03-30T13:21:25.000Z</time>
      </trkpt>
      <trkpt lat="49.79377" lon="4.83723">
        <ele>225</ele>
        <time>2021-03-30T13:21:26.000Z</time>
      </trkpt>
      <trkpt lat="49.79371" lon="4.83729">
        <ele>225</ele>
        <time>2021-03-30T13:21:27.000Z</time>
      </trkpt>
      <trkpt lat="49.79366" lon="4.83734">
        <ele>225</ele>
        <time>2021-03-30T13:21:28.000Z</time>
      </trkpt>
      <trkpt lat="49.79361" lon="4.8374">
        <ele>225</ele>
        <time>2021-03-30T13:21:29.000Z</time>
      </trkpt>
      <trkpt lat="49.79356" lon="4.83746">
        <ele>225</ele>
        <time>2021-03-30T13:21:30.000Z</time>
      </trkpt>
      <trkpt lat="49.79351" lon="4.83753">
        <ele>226</ele>
        <time>2021-03-30T13:21:31.000Z</time>
      </trkpt>
      <trkpt lat="49.79345" lon="4.83759">
        <ele>226</ele>
        <time>2021-03-30T13:21:32.000Z</time>
      </trkpt>
      <trkpt lat="49.7934" lon="4.83766">
        <ele>226</ele>
        <time>2021-03-30T13:21:33.000Z</time>
      </trkpt>
      <trkpt lat="49.79335" lon="4.83773">
        <ele>226</ele>
        <time>2021-03-30T13:21:34.000Z</time>
      </trkpt>
      <trkpt lat="49.7933" lon="4.8378">
        <ele>225</ele>
        <time>2021-03-30T13:21:35.000Z</time>
      </trkpt>
      <trkpt lat="49.79325" lon="4.83787">
        <ele>225</ele>
        <time>2021-03-30T13:21:36.000Z</time>
      </trkpt>
      <trkpt lat="49.7932" lon="4.83794">
        <ele>225</ele>
        <time>2021-03-30T13:21:37.000Z</time>
      </trkpt>
      <trkpt lat="49.79315" lon="4.83802">
        <ele>225</ele>
        <time>2021-03-30T13:21:38.000Z</time>
      </trkpt>
      <trkpt lat="49.7931" lon="4.83809">
        <ele>225</ele>
        <time>2021-03-30T13:21:39.000Z</time>
      </trkpt>
      <trkpt lat="49.79306" lon="4.83817">
        <ele>225</ele>
        <time>2021-03-30T13:21:40.000Z</time>
      </trkpt>
      <trkpt lat="49.79302" lon="4.83825">
        <ele>226</ele>
        <time>2021-03-30T13:21:41.000Z</time>
      </trkpt>
      <trkpt lat="49.79297" lon="4.83833">
        <ele>226</ele>
        <time>2021-03-30T13:21:42.000Z</time>
      </trkpt>
      <trkpt lat="49.79293" lon="4.83842">
        <ele>226</ele>
        <time>2021-03-30T13:21:43.000Z</time>
      </trkpt>
      <trkpt lat="49.79289" lon="4.8385">
        <ele>226</ele>
        <time>2021-03-30T13:21:44.000Z</time>
      </trkpt>
      <trkpt lat="49.79286" lon="4.83859">
        <ele>226</ele>
        <time>2021-03-30T13:21:45.000Z</time>
      </trkpt>
      <trkpt lat="49.79282" lon="4.83867">
        <ele>225</ele>
        <time>2021-03-30T13:21:46.000Z</time>
      </trkpt>
      <trkpt lat="49.79277" lon="4.83875">
        <ele>225</ele>
        <time>2021-03-30T13:21:47.000Z</time>
      </trkpt>
      <trkpt lat="49.79272" lon="4.83883">
        <ele>225</ele>
        <time>2021-03-30T13:21:48.000Z</time>
      </trkpt>
      <trkpt lat="49.79267" lon="4.83891">
        <ele>225</ele>
        <time>2021-03-30T13:21:49.000Z</time>
      </trkpt>
      <trkpt lat="49.79262" lon="4.83899">
        <ele>224</ele>
        <time>2021-03-30T13:21:50.000Z</time>
      </trkpt>
      <trkpt lat="49.79258" lon="4.83906">
        <ele>224</ele>
        <time>2021-03-30T13:21:51.000Z</time>
      </trkpt>
      <trkpt lat="49.79255" lon="4.83914">
        <ele>224</ele>
        <time>2021-03-30T13:21:52.000Z</time>
      </trkpt>
      <trkpt lat="49.79251" lon="4.83922">
        <ele>224</ele>
        <time>2021-03-30T13:21:53.000Z</time>
      </trkpt>
      <trkpt lat="49.79248" lon="4.8393">
        <ele>224</ele>
        <time>2021-03-30T13:21:54.000Z</time>
      </trkpt>
      <trkpt lat="49.79244" lon="4.83938">
        <ele>224</ele>
        <time>2021-03-30T13:21:55.000Z</time>
      </trkpt>
      <trkpt lat="49.7924" lon="4.83945">
        <ele>224</ele>
        <time>2021-03-30T13:21:56.000Z</time>
      </trkpt>
      <trkpt lat="49.79236" lon="4.83953">
        <ele>224</ele>
        <time>2021-03-30T13:21:57.000Z</time>
      </trkpt>
      <trkpt lat="49.79233" lon="4.8396">
        <ele>224</ele>
        <time>2021-03-30T13:21:58.000Z</time>
      </trkpt>
      <trkpt lat="49.79229" lon="4.83967">
        <ele>224</ele>
        <time>2021-03-30T13:21:59.000Z</time>
      </trkpt>
      <trkpt lat="49.79225" lon="4.83975">
        <ele>224</ele>
        <time>2021-03-30T13:22:00.000Z</time>
      </trkpt>
      <trkpt lat="49.79221" lon="4.83983">
        <ele>224</ele>
        <time>2021-03-30T13:22:01.000Z</time>
      </trkpt>
      <trkpt lat="49.79218" lon="4.8399">
        <ele>224</ele>
        <time>2021-03-30T13:22:02.000Z</time>
      </trkpt>
      <trkpt lat="49.79214" lon="4.83998">
        <ele>224</ele>
        <time>2021-03-30T13:22:03.000Z</time>
      </trkpt>
      <trkpt lat="49.7921" lon="4.84005">
        <ele>224</ele>
        <time>2021-03-30T13:22:04.000Z</time>
      </trkpt>
      <trkpt lat="49.79207" lon="4.84013">
        <ele>224</ele>
        <time>2021-03-30T13:22:05.000Z</time>
      </trkpt>
      <trkpt lat="49.79202" lon="4.84021">
        <ele>223</ele>
        <time>2021-03-30T13:22:06.000Z</time>
      </trkpt>
      <trkpt lat="49.79199" lon="4.84029">
        <ele>223</ele>
        <time>2021-03-30T13:22:07.000Z</time>
      </trkpt>
      <trkpt lat="49.79195" lon="4.84038">
        <ele>223</ele>
        <time>2021-03-30T13:22:08.000Z</time>
      </trkpt>
      <trkpt lat="49.79192" lon="4.84046">
        <ele>223</ele>
        <time>2021-03-30T13:22:09.000Z</time>
      </trkpt>
      <trkpt lat="49.79189" lon="4.84053">
        <ele>223</ele>
        <time>2021-03-30T13:22:10.000Z</time>
      </trkpt>
      <trkpt lat="49.79185" lon="4.8406">
        <ele>223</ele>
        <time>2021-03-30T13:22:11.000Z</time>
      </trkpt>
      <trkpt lat="49.7918" lon="4.84067">
        <ele>223</ele>
        <time>2021-03-30T13:22:12.000Z</time>
      </trkpt>
      <trkpt lat="49.79175" lon="4.84074">
        <ele>223</ele>
        <time>2021-03-30T13:22:13.000Z</time>
      </trkpt>
      <trkpt lat="49.79171" lon="4.84081">
        <ele>224</ele>
        <time>2021-03-30T13:22:14.000Z</time>
      </trkpt>
      <trkpt lat="49.79167" lon="4.84088">
        <ele>224</ele>
        <time>2021-03-30T13:22:15.000Z</time>
      </trkpt>
      <trkpt lat="49.79163" lon="4.84094">
        <ele>224</ele>
        <time>2021-03-30T13:22:16.000Z</time>
      </trkpt>
      <trkpt lat="49.79158" lon="4.84101">
        <ele>224</ele>
        <time>2021-03-30T13:22:17.000Z</time>
      </trkpt>
      <trkpt lat="49.79154" lon="4.84107">
        <ele>224</ele>
        <time>2021-03-30T13:22:18.000Z</time>
      </trkpt>
      <trkpt lat="49.79149" lon="4.84113">
        <ele>224</ele>
        <time>2021-03-30T13:22:19.000Z</time>
      </trkpt>
      <trkpt lat="49.79144" lon="4.8412">
        <ele>225</ele>
        <time>2021-03-30T13:22:20.000Z</time>
      </trkpt>
      <trkpt lat="49.7914" lon="4.84126">
        <ele>225</ele>
        <time>2021-03-30T13:22:21.000Z</time>
      </trkpt>
      <trkpt lat="49.79137" lon="4.84132">
        <ele>225</ele>
        <time>2021-03-30T13:22:22.000Z</time>
      </trkpt>
      <trkpt lat="49.79133" lon="4.84138">
        <ele>225</ele>
        <time>2021-03-30T13:22:23.000Z</time>
      </trkpt>
      <trkpt lat="49.7913" lon="4.84145">
        <ele>225</ele>
        <time>2021-03-30T13:22:24.000Z</time>
      </trkpt>
      <trkpt lat="49.79127" lon="4.8415">
        <ele>225</ele>
        <time>2021-03-30T13:22:25.000Z</time>
      </trkpt>
      <trkpt lat="49.79124" lon="4.84156">
        <ele>226</ele>
        <time>2021-03-30T13:22:26.000Z</time>
      </trkpt>
      <trkpt lat="49.7912" lon="4.84162">
        <ele>226</ele>
        <time>2021-03-30T13:22:27.000Z</time>
      </trkpt>
      <trkpt lat="49.79117" lon="4.84167">
        <ele>226</ele>
        <time>2021-03-30T13:22:28.000Z</time>
      </trkpt>
      <trkpt lat="49.79113" lon="4.84173">
        <ele>226</ele>
        <time>2021-03-30T13:22:29.000Z</time>
      </trkpt>
      <trkpt lat="49.79108" lon="4.84179">
        <ele>226</ele>
        <time>2021-03-30T13:22:30.000Z</time>
      </trkpt>
      <trkpt lat="49.79103" lon="4.84185">
        <ele>226</ele>
        <time>2021-03-30T13:22:31.000Z</time>
      </trkpt>
      <trkpt lat="49.79098" lon="4.84191">
        <ele>226</ele>
        <time>2021-03-30T13:22:32.000Z</time>
      </trkpt>
      <trkpt lat="49.79093" lon="4.84198">
        <ele>226</ele>
        <time>2021-03-30T13:22:33.000Z</time>
      </trkpt>
      <trkpt lat="49.79089" lon="4.84204">
        <ele>226</ele>
        <time>2021-03-30T13:22:34.000Z</time>
      </trkpt>
      <trkpt lat="49.79084" lon="4.84211">
        <ele>226</ele>
        <time>2021-03-30T13:22:35.000Z</time>
      </trkpt>
      <trkpt lat="49.7908" lon="4.84217">
        <ele>227</ele>
        <time>2021-03-30T13:22:36.000Z</time>
      </trkpt>
      <trkpt lat="49.79076" lon="4.84224">
        <ele>227</ele>
        <time>2021-03-30T13:22:37.000Z</time>
      </trkpt>
      <trkpt lat="49.79072" lon="4.8423">
        <ele>227</ele>
        <time>2021-03-30T13:22:38.000Z</time>
      </trkpt>
      <trkpt lat="49.79067" lon="4.84236">
        <ele>227</ele>
        <time>2021-03-30T13:22:39.000Z</time>
      </trkpt>
      <trkpt lat="49.79063" lon="4.84241">
        <ele>227</ele>
        <time>2021-03-30T13:22:40.000Z</time>
      </trkpt>
      <trkpt lat="49.79058" lon="4.84246">
        <ele>227</ele>
        <time>2021-03-30T13:22:41.000Z</time>
      </trkpt>
      <trkpt lat="49.79052" lon="4.84251">
        <ele>227</ele>
        <time>2021-03-30T13:22:42.000Z</time>
      </trkpt>
      <trkpt lat="49.79047" lon="4.84256">
        <ele>227</ele>
        <time>2021-03-30T13:22:43.000Z</time>
      </trkpt>
      <trkpt lat="49.79043" lon="4.8426">
        <ele>227</ele>
        <time>2021-03-30T13:22:44.000Z</time>
      </trkpt>
      <trkpt lat="49.79037" lon="4.84264">
        <ele>227</ele>
        <time>2021-03-30T13:22:45.000Z</time>
      </trkpt>
      <trkpt lat="49.79029" lon="4.84268">
        <ele>227</ele>
        <time>2021-03-30T13:22:46.000Z</time>
      </trkpt>
      <trkpt lat="49.79022" lon="4.84271">
        <ele>227</ele>
        <time>2021-03-30T13:22:47.000Z</time>
      </trkpt>
      <trkpt lat="49.79014" lon="4.84274">
        <ele>227</ele>
        <time>2021-03-30T13:22:48.000Z</time>
      </trkpt>
      <trkpt lat="49.79007" lon="4.84278">
        <ele>227</ele>
        <time>2021-03-30T13:22:49.000Z</time>
      </trkpt>
      <trkpt lat="49.79" lon="4.84281">
        <ele>227</ele>
        <time>2021-03-30T13:22:50.000Z</time>
      </trkpt>
      <trkpt lat="49.78994" lon="4.84285">
        <ele>227</ele>
        <time>2021-03-30T13:22:51.000Z</time>
      </trkpt>
      <trkpt lat="49.78989" lon="4.84289">
        <ele>227</ele>
        <time>2021-03-30T13:22:52.000Z</time>
      </trkpt>
      <trkpt lat="49.78984" lon="4.84293">
        <ele>227</ele>
        <time>2021-03-30T13:22:53.000Z</time>
      </trkpt>
      <trkpt lat="49.78979" lon="4.84296">
        <ele>228</ele>
        <time>2021-03-30T13:22:54.000Z</time>
      </trkpt>
      <trkpt lat="49.78972" lon="4.84301">
        <ele>228</ele>
        <time>2021-03-30T13:22:55.000Z</time>
      </trkpt>
      <trkpt lat="49.78965" lon="4.84306">
        <ele>228</ele>
        <time>2021-03-30T13:22:56.000Z</time>
      </trkpt>
      <trkpt lat="49.7896" lon="4.8431">
        <ele>228</ele>
        <time>2021-03-30T13:22:57.000Z</time>
      </trkpt>
      <trkpt lat="49.78954" lon="4.84313">
        <ele>228</ele>
        <time>2021-03-30T13:22:58.000Z</time>
      </trkpt>
      <trkpt lat="49.78948" lon="4.84315">
        <ele>228</ele>
        <time>2021-03-30T13:22:59.000Z</time>
      </trkpt>
      <trkpt lat="49.78941" lon="4.84318">
        <ele>227</ele>
        <time>2021-03-30T13:23:00.000Z</time>
      </trkpt>
      <trkpt lat="49.78935" lon="4.8432">
        <ele>227</ele>
        <time>2021-03-30T13:23:01.000Z</time>
      </trkpt>
      <trkpt lat="49.78928" lon="4.84324">
        <ele>227</ele>
        <time>2021-03-30T13:23:02.000Z</time>
      </trkpt>
      <trkpt lat="49.78921" lon="4.84326">
        <ele>226</ele>
        <time>2021-03-30T13:23:03.000Z</time>
      </trkpt>
      <trkpt lat="49.78913" lon="4.84329">
        <ele>226</ele>
        <time>2021-03-30T13:23:04.000Z</time>
      </trkpt>
      <trkpt lat="49.78905" lon="4.8433">
        <ele>226</ele>
        <time>2021-03-30T13:23:05.000Z</time>
      </trkpt>
      <trkpt lat="49.78897" lon="4.8433">
        <ele>225</ele>
        <time>2021-03-30T13:23:06.000Z</time>
      </trkpt>
      <trkpt lat="49.78889" lon="4.8433">
        <ele>224</ele>
        <time>2021-03-30T13:23:07.000Z</time>
      </trkpt>
      <trkpt lat="49.78881" lon="4.84329">
        <ele>224</ele>
        <time>2021-03-30T13:23:08.000Z</time>
      </trkpt>
      <trkpt lat="49.78873" lon="4.84328">
        <ele>223</ele>
        <time>2021-03-30T13:23:09.000Z</time>
      </trkpt>
      <trkpt lat="49.78865" lon="4.84327">
        <ele>223</ele>
        <time>2021-03-30T13:23:10.000Z</time>
      </trkpt>
      <trkpt lat="49.78857" lon="4.84327">
        <ele>222</ele>
        <time>2021-03-30T13:23:11.000Z</time>
      </trkpt>
      <trkpt lat="49.78848" lon="4.84326">
        <ele>221</ele>
        <time>2021-03-30T13:23:12.000Z</time>
      </trkpt>
      <trkpt lat="49.7884" lon="4.84327">
        <ele>221</ele>
        <time>2021-03-30T13:23:13.000Z</time>
      </trkpt>
      <trkpt lat="49.78832" lon="4.84326">
        <ele>220</ele>
        <time>2021-03-30T13:23:14.000Z</time>
      </trkpt>
      <trkpt lat="49.78823" lon="4.84326">
        <ele>219</ele>
        <time>2021-03-30T13:23:15.000Z</time>
      </trkpt>
      <trkpt lat="49.78815" lon="4.84325">
        <ele>218</ele>
        <time>2021-03-30T13:23:16.000Z</time>
      </trkpt>
      <trkpt lat="49.78807" lon="4.84325">
        <ele>217</ele>
        <time>2021-03-30T13:23:17.000Z</time>
      </trkpt>
      <trkpt lat="49.788" lon="4.84325">
        <ele>216</ele>
        <time>2021-03-30T13:23:18.000Z</time>
      </trkpt>
      <trkpt lat="49.78792" lon="4.84325">
        <ele>215</ele>
        <time>2021-03-30T13:23:19.000Z</time>
      </trkpt>
      <trkpt lat="49.78784" lon="4.84326">
        <ele>214</ele>
        <time>2021-03-30T13:23:20.000Z</time>
      </trkpt>
      <trkpt lat="49.78776" lon="4.84326">
        <ele>213</ele>
        <time>2021-03-30T13:23:21.000Z</time>
      </trkpt>
      <trkpt lat="49.78769" lon="4.84325">
        <ele>212</ele>
        <time>2021-03-30T13:23:22.000Z</time>
      </trkpt>
      <trkpt lat="49.78761" lon="4.84324">
        <ele>211</ele>
        <time>2021-03-30T13:23:23.000Z</time>
      </trkpt>
      <trkpt lat="49.78753" lon="4.84324">
        <ele>210</ele>
        <time>2021-03-30T13:23:24.000Z</time>
      </trkpt>
      <trkpt lat="49.78745" lon="4.84323">
        <ele>209</ele>
        <time>2021-03-30T13:23:25.000Z</time>
      </trkpt>
      <trkpt lat="49.78737" lon="4.84322">
        <ele>208</ele>
        <time>2021-03-30T13:23:26.000Z</time>
      </trkpt>
      <trkpt lat="49.7873" lon="4.84322">
        <ele>208</ele>
        <time>2021-03-30T13:23:27.000Z</time>
      </trkpt>
      <trkpt lat="49.78721" lon="4.84322">
        <ele>207</ele>
        <time>2021-03-30T13:23:28.000Z</time>
      </trkpt>
      <trkpt lat="49.78713" lon="4.84321">
        <ele>206</ele>
        <time>2021-03-30T13:23:29.000Z</time>
      </trkpt>
      <trkpt lat="49.78705" lon="4.84321">
        <ele>205</ele>
        <time>2021-03-30T13:23:30.000Z</time>
      </trkpt>
      <trkpt lat="49.78697" lon="4.84321">
        <ele>205</ele>
        <time>2021-03-30T13:23:31.000Z</time>
      </trkpt>
      <trkpt lat="49.78689" lon="4.84322">
        <ele>204</ele>
        <time>2021-03-30T13:23:32.000Z</time>
      </trkpt>
      <trkpt lat="49.78682" lon="4.84323">
        <ele>203</ele>
        <time>2021-03-30T13:23:33.000Z</time>
      </trkpt>
      <trkpt lat="49.78675" lon="4.84323">
        <ele>203</ele>
        <time>2021-03-30T13:23:34.000Z</time>
      </trkpt>
      <trkpt lat="49.78668" lon="4.84324">
        <ele>202</ele>
        <time>2021-03-30T13:23:35.000Z</time>
      </trkpt>
      <trkpt lat="49.78661" lon="4.84323">
        <ele>201</ele>
        <time>2021-03-30T13:23:36.000Z</time>
      </trkpt>
      <trkpt lat="49.78654" lon="4.84323">
        <ele>201</ele>
        <time>2021-03-30T13:23:37.000Z</time>
      </trkpt>
      <trkpt lat="49.78647" lon="4.84322">
        <ele>200</ele>
        <time>2021-03-30T13:23:38.000Z</time>
      </trkpt>
      <trkpt lat="49.7864" lon="4.84321">
        <ele>199</ele>
        <time>2021-03-30T13:23:39.000Z</time>
      </trkpt>
      <trkpt lat="49.78633" lon="4.8432">
        <ele>199</ele>
        <time>2021-03-30T13:23:40.000Z</time>
      </trkpt>
      <trkpt lat="49.78626" lon="4.84319">
        <ele>198</ele>
        <time>2021-03-30T13:23:41.000Z</time>
      </trkpt>
      <trkpt lat="49.78619" lon="4.84318">
        <ele>198</ele>
        <time>2021-03-30T13:23:42.000Z</time>
      </trkpt>
      <trkpt lat="49.78612" lon="4.84317">
        <ele>197</ele>
        <time>2021-03-30T13:23:43.000Z</time>
      </trkpt>
      <trkpt lat="49.78605" lon="4.84316">
        <ele>197</ele>
        <time>2021-03-30T13:23:44.000Z</time>
      </trkpt>
      <trkpt lat="49.78598" lon="4.84315">
        <ele>196</ele>
        <time>2021-03-30T13:23:45.000Z</time>
      </trkpt>
      <trkpt lat="49.78591" lon="4.84315">
        <ele>196</ele>
        <time>2021-03-30T13:23:46.000Z</time>
      </trkpt>
      <trkpt lat="49.78585" lon="4.84314">
        <ele>196</ele>
        <time>2021-03-30T13:23:47.000Z</time>
      </trkpt>
      <trkpt lat="49.78578" lon="4.84314">
        <ele>195</ele>
        <time>2021-03-30T13:23:48.000Z</time>
      </trkpt>
      <trkpt lat="49.78572" lon="4.84314">
        <ele>195</ele>
        <time>2021-03-30T13:23:49.000Z</time>
      </trkpt>
      <trkpt lat="49.78566" lon="4.84314">
        <ele>195</ele>
        <time>2021-03-30T13:23:50.000Z</time>
      </trkpt>
      <trkpt lat="49.78559" lon="4.84314">
        <ele>194</ele>
        <time>2021-03-30T13:23:51.000Z</time>
      </trkpt>
      <trkpt lat="49.78553" lon="4.84313">
        <ele>194</ele>
        <time>2021-03-30T13:23:52.000Z</time>
      </trkpt>
      <trkpt lat="49.78546" lon="4.84312">
        <ele>193</ele>
        <time>2021-03-30T13:23:53.000Z</time>
      </trkpt>
      <trkpt lat="49.78539" lon="4.84311">
        <ele>193</ele>
        <time>2021-03-30T13:23:54.000Z</time>
      </trkpt>
      <trkpt lat="49.78533" lon="4.84311">
        <ele>193</ele>
        <time>2021-03-30T13:23:55.000Z</time>
      </trkpt>
      <trkpt lat="49.78526" lon="4.84311">
        <ele>192</ele>
        <time>2021-03-30T13:23:56.000Z</time>
      </trkpt>
      <trkpt lat="49.78519" lon="4.84311">
        <ele>192</ele>
        <time>2021-03-30T13:23:57.000Z</time>
      </trkpt>
      <trkpt lat="49.78513" lon="4.8431">
        <ele>192</ele>
        <time>2021-03-30T13:23:58.000Z</time>
      </trkpt>
      <trkpt lat="49.78506" lon="4.84309">
        <ele>192</ele>
        <time>2021-03-30T13:23:59.000Z</time>
      </trkpt>
      <trkpt lat="49.785" lon="4.84309">
        <ele>192</ele>
        <time>2021-03-30T13:24:00.000Z</time>
      </trkpt>
      <trkpt lat="49.78493" lon="4.84308">
        <ele>192</ele>
        <time>2021-03-30T13:24:01.000Z</time>
      </trkpt>
      <trkpt lat="49.78486" lon="4.84308">
        <ele>191</ele>
        <time>2021-03-30T13:24:02.000Z</time>
      </trkpt>
      <trkpt lat="49.7848" lon="4.84308">
        <ele>191</ele>
        <time>2021-03-30T13:24:03.000Z</time>
      </trkpt>
      <trkpt lat="49.78473" lon="4.84307">
        <ele>191</ele>
        <time>2021-03-30T13:24:04.000Z</time>
      </trkpt>
      <trkpt lat="49.78467" lon="4.84306">
        <ele>191</ele>
        <time>2021-03-30T13:24:05.000Z</time>
      </trkpt>
      <trkpt lat="49.7846" lon="4.84306">
        <ele>191</ele>
        <time>2021-03-30T13:24:06.000Z</time>
      </trkpt>
      <trkpt lat="49.78454" lon="4.84307">
        <ele>191</ele>
        <time>2021-03-30T13:24:07.000Z</time>
      </trkpt>
      <trkpt lat="49.78448" lon="4.84308">
        <ele>191</ele>
        <time>2021-03-30T13:24:08.000Z</time>
      </trkpt>
      <trkpt lat="49.78442" lon="4.8431">
        <ele>191</ele>
        <time>2021-03-30T13:24:09.000Z</time>
      </trkpt>
      <trkpt lat="49.78436" lon="4.84312">
        <ele>191</ele>
        <time>2021-03-30T13:24:10.000Z</time>
      </trkpt>
      <trkpt lat="49.7843" lon="4.84315">
        <ele>191</ele>
        <time>2021-03-30T13:24:11.000Z</time>
      </trkpt>
      <trkpt lat="49.78425" lon="4.8432">
        <ele>191</ele>
        <time>2021-03-30T13:24:12.000Z</time>
      </trkpt>
      <trkpt lat="49.78421" lon="4.84325">
        <ele>192</ele>
        <time>2021-03-30T13:24:13.000Z</time>
      </trkpt>
      <trkpt lat="49.78417" lon="4.8433">
        <ele>192</ele>
        <time>2021-03-30T13:24:14.000Z</time>
      </trkpt>
      <trkpt lat="49.78413" lon="4.84335">
        <ele>192</ele>
        <time>2021-03-30T13:24:15.000Z</time>
      </trkpt>
      <trkpt lat="49.78409" lon="4.8434">
        <ele>193</ele>
        <time>2021-03-30T13:24:16.000Z</time>
      </trkpt>
      <trkpt lat="49.78406" lon="4.84344">
        <ele>193</ele>
        <time>2021-03-30T13:24:17.000Z</time>
      </trkpt>
      <trkpt lat="49.78402" lon="4.84347">
        <ele>193</ele>
        <time>2021-03-30T13:24:18.000Z</time>
      </trkpt>
      <trkpt lat="49.78397" lon="4.84349">
        <ele>193</ele>
        <time>2021-03-30T13:24:19.000Z</time>
      </trkpt>
      <trkpt lat="49.78392" lon="4.8435">
        <ele>194</ele>
        <time>2021-03-30T13:24:20.000Z</time>
      </trkpt>
      <trkpt lat="49.78388" lon="4.8435">
        <ele>194</ele>
        <time>2021-03-30T13:24:21.000Z</time>
      </trkpt>
      <trkpt lat="49.78383" lon="4.84348">
        <ele>194</ele>
        <time>2021-03-30T13:24:22.000Z</time>
      </trkpt>
      <trkpt lat="49.78378" lon="4.84345">
        <ele>195</ele>
        <time>2021-03-30T13:24:23.000Z</time>
      </trkpt>
      <trkpt lat="49.78373" lon="4.84341">
        <ele>195</ele>
        <time>2021-03-30T13:24:24.000Z</time>
      </trkpt>
      <trkpt lat="49.78368" lon="4.84338">
        <ele>195</ele>
        <time>2021-03-30T13:24:25.000Z</time>
      </trkpt>
      <trkpt lat="49.78362" lon="4.84334">
        <ele>195</ele>
        <time>2021-03-30T13:24:26.000Z</time>
      </trkpt>
      <trkpt lat="49.78356" lon="4.8433">
        <ele>196</ele>
        <time>2021-03-30T13:24:27.000Z</time>
      </trkpt>
      <trkpt lat="49.78351" lon="4.84326">
        <ele>196</ele>
        <time>2021-03-30T13:24:28.000Z</time>
      </trkpt>
      <trkpt lat="49.78345" lon="4.84322">
        <ele>196</ele>
        <time>2021-03-30T13:24:29.000Z</time>
      </trkpt>
      <trkpt lat="49.7834" lon="4.84319">
        <ele>196</ele>
        <time>2021-03-30T13:24:30.000Z</time>
      </trkpt>
      <trkpt lat="49.78335" lon="4.84316">
        <ele>196</ele>
        <time>2021-03-30T13:24:31.000Z</time>
      </trkpt>
      <trkpt lat="49.78331" lon="4.84314">
        <ele>197</ele>
        <time>2021-03-30T13:24:32.000Z</time>
      </trkpt>
      <trkpt lat="49.78327" lon="4.8431">
        <ele>197</ele>
        <time>2021-03-30T13:24:33.000Z</time>
      </trkpt>
      <trkpt lat="49.78323" lon="4.84307">
        <ele>197</ele>
        <time>2021-03-30T13:24:34.000Z</time>
      </trkpt>
      <trkpt lat="49.78318" lon="4.84303">
        <ele>197</ele>
        <time>2021-03-30T13:24:35.000Z</time>
      </trkpt>
      <trkpt lat="49.78314" lon="4.843">
        <ele>197</ele>
        <time>2021-03-30T13:24:36.000Z</time>
      </trkpt>
      <trkpt lat="49.78309" lon="4.84297">
        <ele>198</ele>
        <time>2021-03-30T13:24:37.000Z</time>
      </trkpt>
      <trkpt lat="49.78304" lon="4.84294">
        <ele>198</ele>
        <time>2021-03-30T13:24:38.000Z</time>
      </trkpt>
      <trkpt lat="49.78297" lon="4.8429">
        <ele>198</ele>
        <time>2021-03-30T13:24:39.000Z</time>
      </trkpt>
      <trkpt lat="49.78291" lon="4.84284">
        <ele>198</ele>
        <time>2021-03-30T13:24:40.000Z</time>
      </trkpt>
      <trkpt lat="49.78284" lon="4.84278">
        <ele>198</ele>
        <time>2021-03-30T13:24:41.000Z</time>
      </trkpt>
      <trkpt lat="49.78279" lon="4.84271">
        <ele>198</ele>
        <time>2021-03-30T13:24:42.000Z</time>
      </trkpt>
      <trkpt lat="49.78273" lon="4.84264">
        <ele>198</ele>
        <time>2021-03-30T13:24:43.000Z</time>
      </trkpt>
      <trkpt lat="49.78268" lon="4.84256">
        <ele>198</ele>
        <time>2021-03-30T13:24:44.000Z</time>
      </trkpt>
      <trkpt lat="49.78264" lon="4.84247">
        <ele>197</ele>
        <time>2021-03-30T13:24:45.000Z</time>
      </trkpt>
      <trkpt lat="49.7826" lon="4.84237">
        <ele>197</ele>
        <time>2021-03-30T13:24:46.000Z</time>
      </trkpt>
      <trkpt lat="49.78256" lon="4.84229">
        <ele>197</ele>
        <time>2021-03-30T13:24:47.000Z</time>
      </trkpt>
      <trkpt lat="49.78252" lon="4.84221">
        <ele>196</ele>
        <time>2021-03-30T13:24:48.000Z</time>
      </trkpt>
      <trkpt lat="49.78249" lon="4.84213">
        <ele>196</ele>
        <time>2021-03-30T13:24:49.000Z</time>
      </trkpt>
      <trkpt lat="49.78246" lon="4.84205">
        <ele>196</ele>
        <time>2021-03-30T13:24:50.000Z</time>
      </trkpt>
      <trkpt lat="49.78243" lon="4.84198">
        <ele>195</ele>
        <time>2021-03-30T13:24:51.000Z</time>
      </trkpt>
      <trkpt lat="49.78241" lon="4.84191">
        <ele>195</ele>
        <time>2021-03-30T13:24:52.000Z</time>
      </trkpt>
      <trkpt lat="49.78238" lon="4.84184">
        <ele>195</ele>
        <time>2021-03-30T13:24:53.000Z</time>
      </trkpt>
      <trkpt lat="49.78236" lon="4.84177">
        <ele>194</ele>
        <time>2021-03-30T13:24:54.000Z</time>
      </trkpt>
      <trkpt lat="49.78234" lon="4.84171">
        <ele>194</ele>
        <time>2021-03-30T13:24:55.000Z</time>
      </trkpt>
      <trkpt lat="49.78231" lon="4.84164">
        <ele>194</ele>
        <time>2021-03-30T13:24:56.000Z</time>
      </trkpt>
      <trkpt lat="49.78228" lon="4.84157">
        <ele>194</ele>
        <time>2021-03-30T13:24:57.000Z</time>
      </trkpt>
      <trkpt lat="49.78225" lon="4.84151">
        <ele>193</ele>
        <time>2021-03-30T13:24:58.000Z</time>
      </trkpt>
      <trkpt lat="49.78222" lon="4.84145">
        <ele>193</ele>
        <time>2021-03-30T13:24:59.000Z</time>
      </trkpt>
      <trkpt lat="49.78218" lon="4.84141">
        <ele>193</ele>
        <time>2021-03-30T13:25:00.000Z</time>
      </trkpt>
      <trkpt lat="49.78215" lon="4.84136">
        <ele>192</ele>
        <time>2021-03-30T13:25:01.000Z</time>
      </trkpt>
      <trkpt lat="49.78211" lon="4.84132">
        <ele>192</ele>
        <time>2021-03-30T13:25:02.000Z</time>
      </trkpt>
      <trkpt lat="49.78207" lon="4.84128">
        <ele>192</ele>
        <time>2021-03-30T13:25:03.000Z</time>
      </trkpt>
      <trkpt lat="49.78203" lon="4.84125">
        <ele>192</ele>
        <time>2021-03-30T13:25:04.000Z</time>
      </trkpt>
      <trkpt lat="49.78199" lon="4.84123">
        <ele>191</ele>
        <time>2021-03-30T13:25:05.000Z</time>
      </trkpt>
      <trkpt lat="49.78195" lon="4.8412">
        <ele>191</ele>
        <time>2021-03-30T13:25:06.000Z</time>
      </trkpt>
      <trkpt lat="49.7819" lon="4.84118">
        <ele>191</ele>
        <time>2021-03-30T13:25:07.000Z</time>
      </trkpt>
      <trkpt lat="49.78187" lon="4.84116">
        <ele>191</ele>
        <time>2021-03-30T13:25:08.000Z</time>
      </trkpt>
      <trkpt lat="49.78184" lon="4.84115">
        <ele>191</ele>
        <time>2021-03-30T13:25:09.000Z</time>
      </trkpt>
      <trkpt lat="49.78182" lon="4.84114">
        <ele>191</ele>
        <time>2021-03-30T13:25:10.000Z</time>
      </trkpt>
      <trkpt lat="49.78179" lon="4.84112">
        <ele>191</ele>
        <time>2021-03-30T13:25:11.000Z</time>
      </trkpt>
      <trkpt lat="49.78176" lon="4.8411">
        <ele>191</ele>
        <time>2021-03-30T13:25:12.000Z</time>
      </trkpt>
      <trkpt lat="49.78173" lon="4.84108">
        <ele>191</ele>
        <time>2021-03-30T13:25:13.000Z</time>
      </trkpt>
      <trkpt lat="49.7817" lon="4.84107">
        <ele>191</ele>
        <time>2021-03-30T13:25:14.000Z</time>
      </trkpt>
      <trkpt lat="49.78168" lon="4.84105">
        <ele>191</ele>
        <time>2021-03-30T13:25:15.000Z</time>
      </trkpt>
      <trkpt lat="49.78165" lon="4.84104">
        <ele>191</ele>
        <time>2021-03-30T13:25:16.000Z</time>
      </trkpt>
      <trkpt lat="49.78162" lon="4.84102">
        <ele>191</ele>
        <time>2021-03-30T13:25:17.000Z</time>
      </trkpt>
      <trkpt lat="49.78159" lon="4.841">
        <ele>191</ele>
        <time>2021-03-30T13:25:18.000Z</time>
      </trkpt>
      <trkpt lat="49.78156" lon="4.84097">
        <ele>191</ele>
        <time>2021-03-30T13:25:19.000Z</time>
      </trkpt>
      <trkpt lat="49.78152" lon="4.84095">
        <ele>191</ele>
        <time>2021-03-30T13:25:20.000Z</time>
      </trkpt>
      <trkpt lat="49.78148" lon="4.84093">
        <ele>191</ele>
        <time>2021-03-30T13:25:21.000Z</time>
      </trkpt>
      <trkpt lat="49.78145" lon="4.84091">
        <ele>191</ele>
        <time>2021-03-30T13:25:22.000Z</time>
      </trkpt>
      <trkpt lat="49.78141" lon="4.84089">
        <ele>191</ele>
        <time>2021-03-30T13:25:23.000Z</time>
      </trkpt>
      <trkpt lat="49.78137" lon="4.84086">
        <ele>192</ele>
        <time>2021-03-30T13:25:24.000Z</time>
      </trkpt>
      <trkpt lat="49.78134" lon="4.84085">
        <ele>192</ele>
        <time>2021-03-30T13:25:25.000Z</time>
      </trkpt>
      <trkpt lat="49.78131" lon="4.84083">
        <ele>192</ele>
        <time>2021-03-30T13:25:26.000Z</time>
      </trkpt>
      <trkpt lat="49.78128" lon="4.84081">
        <ele>192</ele>
        <time>2021-03-30T13:25:27.000Z</time>
      </trkpt>
      <trkpt lat="49.78125" lon="4.84079">
        <ele>192</ele>
        <time>2021-03-30T13:25:28.000Z</time>
      </trkpt>
      <trkpt lat="49.78121" lon="4.84078">
        <ele>192</ele>
        <time>2021-03-30T13:25:29.000Z</time>
      </trkpt>
      <trkpt lat="49.78117" lon="4.84077">
        <ele>192</ele>
        <time>2021-03-30T13:25:30.000Z</time>
      </trkpt>
      <trkpt lat="49.78114" lon="4.84075">
        <ele>192</ele>
        <time>2021-03-30T13:25:31.000Z</time>
      </trkpt>
      <trkpt lat="49.78111" lon="4.84073">
        <ele>192</ele>
        <time>2021-03-30T13:25:32.000Z</time>
      </trkpt>
      <trkpt lat="49.78108" lon="4.84071">
        <ele>192</ele>
        <time>2021-03-30T13:25:33.000Z</time>
      </trkpt>
      <trkpt lat="49.78106" lon="4.84069">
        <ele>192</ele>
        <time>2021-03-30T13:25:34.000Z</time>
      </trkpt>
      <trkpt lat="49.78104" lon="4.84067">
        <ele>192</ele>
        <time>2021-03-30T13:25:35.000Z</time>
      </trkpt>
      <trkpt lat="49.78101" lon="4.84065">
        <ele>192</ele>
        <time>2021-03-30T13:25:36.000Z</time>
      </trkpt>
      <trkpt lat="49.78099" lon="4.84064">
        <ele>192</ele>
        <time>2021-03-30T13:25:37.000Z</time>
      </trkpt>
      <trkpt lat="49.78097" lon="4.84062">
        <ele>192</ele>
        <time>2021-03-30T13:25:38.000Z</time>
      </trkpt>
      <trkpt lat="49.78094" lon="4.84061">
        <ele>192</ele>
        <time>2021-03-30T13:25:39.000Z</time>
      </trkpt>
      <trkpt lat="49.78092" lon="4.84059">
        <ele>193</ele>
        <time>2021-03-30T13:25:40.000Z</time>
      </trkpt>
      <trkpt lat="49.78091" lon="4.84058">
        <ele>193</ele>
        <time>2021-03-30T13:25:41.000Z</time>
      </trkpt>
      <trkpt lat="49.78089" lon="4.84056">
        <ele>193</ele>
        <time>2021-03-30T13:25:42.000Z</time>
      </trkpt>
      <trkpt lat="49.78086" lon="4.84055">
        <ele>193</ele>
        <time>2021-03-30T13:25:43.000Z</time>
      </trkpt>
      <trkpt lat="49.78083" lon="4.84053">
        <ele>193</ele>
        <time>2021-03-30T13:25:44.000Z</time>
      </trkpt>
      <trkpt lat="49.78081" lon="4.84053">
        <ele>194</ele>
        <time>2021-03-30T13:25:45.000Z</time>
      </trkpt>
      <trkpt lat="49.78079" lon="4.84052">
        <ele>194</ele>
        <time>2021-03-30T13:25:46.000Z</time>
      </trkpt>
      <trkpt lat="49.78077" lon="4.8405">
        <ele>194</ele>
        <time>2021-03-30T13:25:47.000Z</time>
      </trkpt>
      <trkpt lat="49.78075" lon="4.84048">
        <ele>195</ele>
        <time>2021-03-30T13:25:48.000Z</time>
      </trkpt>
      <trkpt lat="49.78072" lon="4.84046">
        <ele>195</ele>
        <time>2021-03-30T13:25:49.000Z</time>
      </trkpt>
      <trkpt lat="49.78069" lon="4.84044">
        <ele>195</ele>
        <time>2021-03-30T13:25:50.000Z</time>
      </trkpt>
      <trkpt lat="49.78066" lon="4.84041">
        <ele>196</ele>
        <time>2021-03-30T13:25:51.000Z</time>
      </trkpt>
      <trkpt lat="49.78063" lon="4.84039">
        <ele>196</ele>
        <time>2021-03-30T13:25:52.000Z</time>
      </trkpt>
      <trkpt lat="49.78059" lon="4.84037">
        <ele>196</ele>
        <time>2021-03-30T13:25:53.000Z</time>
      </trkpt>
      <trkpt lat="49.78056" lon="4.84035">
        <ele>196</ele>
        <time>2021-03-30T13:25:54.000Z</time>
      </trkpt>
      <trkpt lat="49.78053" lon="4.84034">
        <ele>197</ele>
        <time>2021-03-30T13:25:55.000Z</time>
      </trkpt>
      <trkpt lat="49.78049" lon="4.84032">
        <ele>197</ele>
        <time>2021-03-30T13:25:56.000Z</time>
      </trkpt>
      <trkpt lat="49.78046" lon="4.8403">
        <ele>197</ele>
        <time>2021-03-30T13:25:57.000Z</time>
      </trkpt>
      <trkpt lat="49.78043" lon="4.84028">
        <ele>197</ele>
        <time>2021-03-30T13:25:58.000Z</time>
      </trkpt>
      <trkpt lat="49.7804" lon="4.84027">
        <ele>198</ele>
        <time>2021-03-30T13:25:59.000Z</time>
      </trkpt>
      <trkpt lat="49.78038" lon="4.84025">
        <ele>198</ele>
        <time>2021-03-30T13:26:00.000Z</time>
      </trkpt>
      <trkpt lat="49.78036" lon="4.84023">
        <ele>198</ele>
        <time>2021-03-30T13:26:01.000Z</time>
      </trkpt>
      <trkpt lat="49.78035" lon="4.84021">
        <ele>199</ele>
        <time>2021-03-30T13:26:02.000Z</time>
      </trkpt>
      <trkpt lat="49.78032" lon="4.84019">
        <ele>199</ele>
        <time>2021-03-30T13:26:03.000Z</time>
      </trkpt>
      <trkpt lat="49.7803" lon="4.84017">
        <ele>199</ele>
        <time>2021-03-30T13:26:04.000Z</time>
      </trkpt>
      <trkpt lat="49.78027" lon="4.84015">
        <ele>200</ele>
        <time>2021-03-30T13:26:05.000Z</time>
      </trkpt>
      <trkpt lat="49.78025" lon="4.84012">
        <ele>200</ele>
        <time>2021-03-30T13:26:06.000Z</time>
      </trkpt>
      <trkpt lat="49.78023" lon="4.84009">
        <ele>200</ele>
        <time>2021-03-30T13:26:07.000Z</time>
      </trkpt>
      <trkpt lat="49.78019" lon="4.84006">
        <ele>200</ele>
        <time>2021-03-30T13:26:08.000Z</time>
      </trkpt>
      <trkpt lat="49.78016" lon="4.84002">
        <ele>201</ele>
        <time>2021-03-30T13:26:09.000Z</time>
      </trkpt>
      <trkpt lat="49.78013" lon="4.83998">
        <ele>201</ele>
        <time>2021-03-30T13:26:10.000Z</time>
      </trkpt>
      <trkpt lat="49.7801" lon="4.83994">
        <ele>201</ele>
        <time>2021-03-30T13:26:11.000Z</time>
      </trkpt>
      <trkpt lat="49.78007" lon="4.83991">
        <ele>202</ele>
        <time>2021-03-30T13:26:12.000Z</time>
      </trkpt>
      <trkpt lat="49.78004" lon="4.83987">
        <ele>202</ele>
        <time>2021-03-30T13:26:13.000Z</time>
      </trkpt>
      <trkpt lat="49.78001" lon="4.83982">
        <ele>202</ele>
        <time>2021-03-30T13:26:14.000Z</time>
      </trkpt>
      <trkpt lat="49.77998" lon="4.83977">
        <ele>203</ele>
        <time>2021-03-30T13:26:15.000Z</time>
      </trkpt>
      <trkpt lat="49.77994" lon="4.83971">
        <ele>203</ele>
        <time>2021-03-30T13:26:16.000Z</time>
      </trkpt>
      <trkpt lat="49.77989" lon="4.83966">
        <ele>203</ele>
        <time>2021-03-30T13:26:17.000Z</time>
      </trkpt>
      <trkpt lat="49.77985" lon="4.83961">
        <ele>203</ele>
        <time>2021-03-30T13:26:18.000Z</time>
      </trkpt>
      <trkpt lat="49.77981" lon="4.83955">
        <ele>203</ele>
        <time>2021-03-30T13:26:19.000Z</time>
      </trkpt>
      <trkpt lat="49.77977" lon="4.8395">
        <ele>203</ele>
        <time>2021-03-30T13:26:20.000Z</time>
      </trkpt>
      <trkpt lat="49.77973" lon="4.83945">
        <ele>203</ele>
        <time>2021-03-30T13:26:21.000Z</time>
      </trkpt>
      <trkpt lat="49.77968" lon="4.8394">
        <ele>204</ele>
        <time>2021-03-30T13:26:22.000Z</time>
      </trkpt>
      <trkpt lat="49.77964" lon="4.83934">
        <ele>204</ele>
        <time>2021-03-30T13:26:23.000Z</time>
      </trkpt>
      <trkpt lat="49.7796" lon="4.83929">
        <ele>204</ele>
        <time>2021-03-30T13:26:24.000Z</time>
      </trkpt>
      <trkpt lat="49.77955" lon="4.83924">
        <ele>204</ele>
        <time>2021-03-30T13:26:25.000Z</time>
      </trkpt>
      <trkpt lat="49.77951" lon="4.83918">
        <ele>204</ele>
        <time>2021-03-30T13:26:26.000Z</time>
      </trkpt>
      <trkpt lat="49.77947" lon="4.83914">
        <ele>204</ele>
        <time>2021-03-30T13:26:27.000Z</time>
      </trkpt>
      <trkpt lat="49.77944" lon="4.83909">
        <ele>204</ele>
        <time>2021-03-30T13:26:28.000Z</time>
      </trkpt>
      <trkpt lat="49.7794" lon="4.83905">
        <ele>204</ele>
        <time>2021-03-30T13:26:29.000Z</time>
      </trkpt>
      <trkpt lat="49.77937" lon="4.839">
        <ele>204</ele>
        <time>2021-03-30T13:26:30.000Z</time>
      </trkpt>
      <trkpt lat="49.77933" lon="4.83896">
        <ele>204</ele>
        <time>2021-03-30T13:26:31.000Z</time>
      </trkpt>
      <trkpt lat="49.7793" lon="4.83891">
        <ele>204</ele>
        <time>2021-03-30T13:26:32.000Z</time>
      </trkpt>
      <trkpt lat="49.77927" lon="4.83887">
        <ele>204</ele>
        <time>2021-03-30T13:26:33.000Z</time>
      </trkpt>
      <trkpt lat="49.77923" lon="4.83882">
        <ele>205</ele>
        <time>2021-03-30T13:26:34.000Z</time>
      </trkpt>
      <trkpt lat="49.7792" lon="4.83878">
        <ele>205</ele>
        <time>2021-03-30T13:26:35.000Z</time>
      </trkpt>
      <trkpt lat="49.77916" lon="4.83873">
        <ele>205</ele>
        <time>2021-03-30T13:26:36.000Z</time>
      </trkpt>
      <trkpt lat="49.77912" lon="4.83868">
        <ele>205</ele>
        <time>2021-03-30T13:26:37.000Z</time>
      </trkpt>
      <trkpt lat="49.77908" lon="4.83862">
        <ele>205</ele>
        <time>2021-03-30T13:26:38.000Z</time>
      </trkpt>
      <trkpt lat="49.77904" lon="4.83857">
        <ele>205</ele>
        <time>2021-03-30T13:26:39.000Z</time>
      </trkpt>
      <trkpt lat="49.77899" lon="4.83851">
        <ele>205</ele>
        <time>2021-03-30T13:26:40.000Z</time>
      </trkpt>
      <trkpt lat="49.77895" lon="4.83846">
        <ele>205</ele>
        <time>2021-03-30T13:26:41.000Z</time>
      </trkpt>
      <trkpt lat="49.77891" lon="4.8384">
        <ele>205</ele>
        <time>2021-03-30T13:26:42.000Z</time>
      </trkpt>
      <trkpt lat="49.77887" lon="4.83835">
        <ele>205</ele>
        <time>2021-03-30T13:26:43.000Z</time>
      </trkpt>
      <trkpt lat="49.77883" lon="4.83831">
        <ele>205</ele>
        <time>2021-03-30T13:26:44.000Z</time>
      </trkpt>
      <trkpt lat="49.77879" lon="4.83826">
        <ele>205</ele>
        <time>2021-03-30T13:26:45.000Z</time>
      </trkpt>
      <trkpt lat="49.77874" lon="4.83824">
        <ele>205</ele>
        <time>2021-03-30T13:26:46.000Z</time>
      </trkpt>
      <trkpt lat="49.7787" lon="4.83823">
        <ele>205</ele>
        <time>2021-03-30T13:26:47.000Z</time>
      </trkpt>
      <trkpt lat="49.77866" lon="4.83824">
        <ele>205</ele>
        <time>2021-03-30T13:26:48.000Z</time>
      </trkpt>
      <trkpt lat="49.77862" lon="4.83823">
        <ele>205</ele>
        <time>2021-03-30T13:26:49.000Z</time>
      </trkpt>
      <trkpt lat="49.77858" lon="4.83823">
        <ele>205</ele>
        <time>2021-03-30T13:26:50.000Z</time>
      </trkpt>
      <trkpt lat="49.77854" lon="4.83822">
        <ele>205</ele>
        <time>2021-03-30T13:26:51.000Z</time>
      </trkpt>
      <trkpt lat="49.77851" lon="4.83821">
        <ele>205</ele>
        <time>2021-03-30T13:26:52.000Z</time>
      </trkpt>
      <trkpt lat="49.77849" lon="4.83821">
        <ele>205</ele>
        <time>2021-03-30T13:26:53.000Z</time>
      </trkpt>
      <trkpt lat="49.77847" lon="4.8382">
        <ele>205</ele>
        <time>2021-03-30T13:26:54.000Z</time>
      </trkpt>
      <trkpt lat="49.77845" lon="4.8382">
        <ele>205</ele>
        <time>2021-03-30T13:26:55.000Z</time>
      </trkpt>
      <trkpt lat="49.77844" lon="4.8382">
        <ele>205</ele>
        <time>2021-03-30T13:26:56.000Z</time>
      </trkpt>
      <trkpt lat="49.77843" lon="4.8382">
        <ele>206</ele>
        <time>2021-03-30T13:26:57.000Z</time>
      </trkpt>
      <trkpt lat="49.77842" lon="4.8382">
        <ele>206</ele>
        <time>2021-03-30T13:26:58.000Z</time>
      </trkpt>
      <trkpt lat="49.7784" lon="4.8382">
        <ele>206</ele>
        <time>2021-03-30T13:26:59.000Z</time>
      </trkpt>
      <trkpt lat="49.77839" lon="4.83819">
        <ele>206</ele>
        <time>2021-03-30T13:27:00.000Z</time>
      </trkpt>
      <trkpt lat="49.77838" lon="4.83819">
        <ele>206</ele>
        <time>2021-03-30T13:27:01.000Z</time>
      </trkpt>
      <trkpt lat="49.77836" lon="4.83818">
        <ele>207</ele>
        <time>2021-03-30T13:27:02.000Z</time>
      </trkpt>
      <trkpt lat="49.77834" lon="4.83818">
        <ele>207</ele>
        <time>2021-03-30T13:27:03.000Z</time>
      </trkpt>
      <trkpt lat="49.77833" lon="4.83818">
        <ele>207</ele>
        <time>2021-03-30T13:27:04.000Z</time>
      </trkpt>
      <trkpt lat="49.77831" lon="4.83818">
        <ele>208</ele>
        <time>2021-03-30T13:27:05.000Z</time>
      </trkpt>
      <trkpt lat="49.77829" lon="4.83817">
        <ele>208</ele>
        <time>2021-03-30T13:27:06.000Z</time>
      </trkpt>
      <trkpt lat="49.77827" lon="4.83817">
        <ele>208</ele>
        <time>2021-03-30T13:27:07.000Z</time>
      </trkpt>
      <trkpt lat="49.77825" lon="4.83816">
        <ele>208</ele>
        <time>2021-03-30T13:27:08.000Z</time>
      </trkpt>
      <trkpt lat="49.77824" lon="4.83816">
        <ele>209</ele>
        <time>2021-03-30T13:27:09.000Z</time>
      </trkpt>
      <trkpt lat="49.77823" lon="4.83816">
        <ele>209</ele>
        <time>2021-03-30T13:27:10.000Z</time>
      </trkpt>
      <trkpt lat="49.77822" lon="4.83816">
        <ele>209</ele>
        <time>2021-03-30T13:27:11.000Z</time>
      </trkpt>
      <trkpt lat="49.7782" lon="4.83816">
        <ele>209</ele>
        <time>2021-03-30T13:27:12.000Z</time>
      </trkpt>
      <trkpt lat="49.77819" lon="4.83816">
        <ele>209</ele>
        <time>2021-03-30T13:27:13.000Z</time>
      </trkpt>
      <trkpt lat="49.77818" lon="4.83815">
        <ele>210</ele>
        <time>2021-03-30T13:27:14.000Z</time>
      </trkpt>
      <trkpt lat="49.77817" lon="4.83815">
        <ele>210</ele>
        <time>2021-03-30T13:27:15.000Z</time>
      </trkpt>
      <trkpt lat="49.77816" lon="4.83815">
        <ele>210</ele>
        <time>2021-03-30T13:27:16.000Z</time>
      </trkpt>
      <trkpt lat="49.77815" lon="4.83815">
        <ele>210</ele>
        <time>2021-03-30T13:27:17.000Z</time>
      </trkpt>
      <trkpt lat="49.77815" lon="4.83815">
        <ele>211</ele>
        <time>2021-03-30T13:27:18.000Z</time>
      </trkpt>
      <trkpt lat="49.77813" lon="4.83815">
        <ele>211</ele>
        <time>2021-03-30T13:27:19.000Z</time>
      </trkpt>
      <trkpt lat="49.77812" lon="4.83814">
        <ele>211</ele>
        <time>2021-03-30T13:27:20.000Z</time>
      </trkpt>
      <trkpt lat="49.77809" lon="4.83814">
        <ele>211</ele>
        <time>2021-03-30T13:27:21.000Z</time>
      </trkpt>
      <trkpt lat="49.77808" lon="4.83813">
        <ele>212</ele>
        <time>2021-03-30T13:27:22.000Z</time>
      </trkpt>
      <trkpt lat="49.77805" lon="4.83812">
        <ele>212</ele>
        <time>2021-03-30T13:27:23.000Z</time>
      </trkpt>
      <trkpt lat="49.77804" lon="4.83811">
        <ele>212</ele>
        <time>2021-03-30T13:27:24.000Z</time>
      </trkpt>
      <trkpt lat="49.77802" lon="4.83811">
        <ele>213</ele>
        <time>2021-03-30T13:27:25.000Z</time>
      </trkpt>
      <trkpt lat="49.778" lon="4.8381">
        <ele>213</ele>
        <time>2021-03-30T13:27:26.000Z</time>
      </trkpt>
      <trkpt lat="49.77797" lon="4.83809">
        <ele>214</ele>
        <time>2021-03-30T13:27:27.000Z</time>
      </trkpt>
      <trkpt lat="49.77795" lon="4.83809">
        <ele>214</ele>
        <time>2021-03-30T13:27:28.000Z</time>
      </trkpt>
      <trkpt lat="49.77793" lon="4.83809">
        <ele>214</ele>
        <time>2021-03-30T13:27:29.000Z</time>
      </trkpt>
      <trkpt lat="49.77791" lon="4.83809">
        <ele>215</ele>
        <time>2021-03-30T13:27:30.000Z</time>
      </trkpt>
      <trkpt lat="49.77789" lon="4.83808">
        <ele>215</ele>
        <time>2021-03-30T13:27:31.000Z</time>
      </trkpt>
      <trkpt lat="49.77787" lon="4.83807">
        <ele>216</ele>
        <time>2021-03-30T13:27:32.000Z</time>
      </trkpt>
      <trkpt lat="49.77786" lon="4.83807">
        <ele>216</ele>
        <time>2021-03-30T13:27:33.000Z</time>
      </trkpt>
      <trkpt lat="49.77785" lon="4.83806">
        <ele>217</ele>
        <time>2021-03-30T13:27:34.000Z</time>
      </trkpt>
      <trkpt lat="49.77784" lon="4.83805">
        <ele>217</ele>
        <time>2021-03-30T13:27:35.000Z</time>
      </trkpt>
      <trkpt lat="49.77782" lon="4.83804">
        <ele>217</ele>
        <time>2021-03-30T13:27:36.000Z</time>
      </trkpt>
      <trkpt lat="49.7778" lon="4.83803">
        <ele>218</ele>
        <time>2021-03-30T13:27:37.000Z</time>
      </trkpt>
      <trkpt lat="49.77778" lon="4.83803">
        <ele>218</ele>
        <time>2021-03-30T13:27:38.000Z</time>
      </trkpt>
      <trkpt lat="49.77777" lon="4.83802">
        <ele>219</ele>
        <time>2021-03-30T13:27:39.000Z</time>
      </trkpt>
      <trkpt lat="49.77776" lon="4.83801">
        <ele>219</ele>
        <time>2021-03-30T13:27:40.000Z</time>
      </trkpt>
      <trkpt lat="49.77774" lon="4.838">
        <ele>220</ele>
        <time>2021-03-30T13:27:41.000Z</time>
      </trkpt>
      <trkpt lat="49.77772" lon="4.838">
        <ele>220</ele>
        <time>2021-03-30T13:27:42.000Z</time>
      </trkpt>
      <trkpt lat="49.7777" lon="4.83799">
        <ele>221</ele>
        <time>2021-03-30T13:27:43.000Z</time>
      </trkpt>
      <trkpt lat="49.77767" lon="4.83798">
        <ele>221</ele>
        <time>2021-03-30T13:27:44.000Z</time>
      </trkpt>
      <trkpt lat="49.77765" lon="4.83798">
        <ele>222</ele>
        <time>2021-03-30T13:27:45.000Z</time>
      </trkpt>
      <trkpt lat="49.77763" lon="4.83797">
        <ele>222</ele>
        <time>2021-03-30T13:27:46.000Z</time>
      </trkpt>
      <trkpt lat="49.77761" lon="4.83796">
        <ele>223</ele>
        <time>2021-03-30T13:27:47.000Z</time>
      </trkpt>
      <trkpt lat="49.77758" lon="4.83796">
        <ele>223</ele>
        <time>2021-03-30T13:27:48.000Z</time>
      </trkpt>
      <trkpt lat="49.77755" lon="4.83795">
        <ele>223</ele>
        <time>2021-03-30T13:27:49.000Z</time>
      </trkpt>
      <trkpt lat="49.77752" lon="4.83795">
        <ele>224</ele>
        <time>2021-03-30T13:27:50.000Z</time>
      </trkpt>
      <trkpt lat="49.7775" lon="4.83795">
        <ele>224</ele>
        <time>2021-03-30T13:27:51.000Z</time>
      </trkpt>
      <trkpt lat="49.77748" lon="4.83795">
        <ele>224</ele>
        <time>2021-03-30T13:27:52.000Z</time>
      </trkpt>
      <trkpt lat="49.77746" lon="4.83795">
        <ele>225</ele>
        <time>2021-03-30T13:27:53.000Z</time>
      </trkpt>
      <trkpt lat="49.77743" lon="4.83794">
        <ele>225</ele>
        <time>2021-03-30T13:27:54.000Z</time>
      </trkpt>
      <trkpt lat="49.77741" lon="4.83794">
        <ele>226</ele>
        <time>2021-03-30T13:27:55.000Z</time>
      </trkpt>
      <trkpt lat="49.77739" lon="4.83793">
        <ele>226</ele>
        <time>2021-03-30T13:27:56.000Z</time>
      </trkpt>
      <trkpt lat="49.77737" lon="4.83793">
        <ele>226</ele>
        <time>2021-03-30T13:27:57.000Z</time>
      </trkpt>
      <trkpt lat="49.77734" lon="4.83792">
        <ele>227</ele>
        <time>2021-03-30T13:27:58.000Z</time>
      </trkpt>
      <trkpt lat="49.77732" lon="4.83792">
        <ele>227</ele>
        <time>2021-03-30T13:27:59.000Z</time>
      </trkpt>
      <trkpt lat="49.7773" lon="4.83791">
        <ele>227</ele>
        <time>2021-03-30T13:28:00.000Z</time>
      </trkpt>
      <trkpt lat="49.77728" lon="4.83791">
        <ele>228</ele>
        <time>2021-03-30T13:28:01.000Z</time>
      </trkpt>
      <trkpt lat="49.77726" lon="4.83789">
        <ele>228</ele>
        <time>2021-03-30T13:28:02.000Z</time>
      </trkpt>
      <trkpt lat="49.77724" lon="4.83787">
        <ele>228</ele>
        <time>2021-03-30T13:28:03.000Z</time>
      </trkpt>
      <trkpt lat="49.77723" lon="4.83783">
        <ele>228</ele>
        <time>2021-03-30T13:28:04.000Z</time>
      </trkpt>
      <trkpt lat="49.77722" lon="4.8378">
        <ele>228</ele>
        <time>2021-03-30T13:28:05.000Z</time>
      </trkpt>
      <trkpt lat="49.77721" lon="4.83776">
        <ele>228</ele>
        <time>2021-03-30T13:28:06.000Z</time>
      </trkpt>
      <trkpt lat="49.7772" lon="4.83772">
        <ele>228</ele>
        <time>2021-03-30T13:28:07.000Z</time>
      </trkpt>
      <trkpt lat="49.77719" lon="4.83768">
        <ele>228</ele>
        <time>2021-03-30T13:28:08.000Z</time>
      </trkpt>
      <trkpt lat="49.77718" lon="4.83764">
        <ele>228</ele>
        <time>2021-03-30T13:28:09.000Z</time>
      </trkpt>
      <trkpt lat="49.77716" lon="4.83759">
        <ele>228</ele>
        <time>2021-03-30T13:28:10.000Z</time>
      </trkpt>
      <trkpt lat="49.77714" lon="4.83755">
        <ele>228</ele>
        <time>2021-03-30T13:28:11.000Z</time>
      </trkpt>
      <trkpt lat="49.77713" lon="4.83751">
        <ele>228</ele>
        <time>2021-03-30T13:28:12.000Z</time>
      </trkpt>
      <trkpt lat="49.77711" lon="4.83747">
        <ele>228</ele>
        <time>2021-03-30T13:28:13.000Z</time>
      </trkpt>
      <trkpt lat="49.7771" lon="4.83743">
        <ele>228</ele>
        <time>2021-03-30T13:28:14.000Z</time>
      </trkpt>
      <trkpt lat="49.77709" lon="4.83739">
        <ele>228</ele>
        <time>2021-03-30T13:28:15.000Z</time>
      </trkpt>
      <trkpt lat="49.77708" lon="4.83734">
        <ele>228</ele>
        <time>2021-03-30T13:28:16.000Z</time>
      </trkpt>
      <trkpt lat="49.77706" lon="4.83729">
        <ele>229</ele>
        <time>2021-03-30T13:28:17.000Z</time>
      </trkpt>
      <trkpt lat="49.77704" lon="4.83723">
        <ele>229</ele>
        <time>2021-03-30T13:28:18.000Z</time>
      </trkpt>
      <trkpt lat="49.77702" lon="4.83717">
        <ele>229</ele>
        <time>2021-03-30T13:28:19.000Z</time>
      </trkpt>
      <trkpt lat="49.77699" lon="4.83711">
        <ele>229</ele>
        <time>2021-03-30T13:28:20.000Z</time>
      </trkpt>
      <trkpt lat="49.77697" lon="4.83704">
        <ele>229</ele>
        <time>2021-03-30T13:28:21.000Z</time>
      </trkpt>
      <trkpt lat="49.77695" lon="4.83697">
        <ele>229</ele>
        <time>2021-03-30T13:28:22.000Z</time>
      </trkpt>
      <trkpt lat="49.77693" lon="4.83691">
        <ele>229</ele>
        <time>2021-03-30T13:28:23.000Z</time>
      </trkpt>
      <trkpt lat="49.77692" lon="4.83685">
        <ele>229</ele>
        <time>2021-03-30T13:28:24.000Z</time>
      </trkpt>
      <trkpt lat="49.7769" lon="4.83679">
        <ele>229</ele>
        <time>2021-03-30T13:28:25.000Z</time>
      </trkpt>
      <trkpt lat="49.77689" lon="4.83673">
        <ele>229</ele>
        <time>2021-03-30T13:28:26.000Z</time>
      </trkpt>
      <trkpt lat="49.77688" lon="4.83668">
        <ele>229</ele>
        <time>2021-03-30T13:28:27.000Z</time>
      </trkpt>
      <trkpt lat="49.77687" lon="4.83664">
        <ele>229</ele>
        <time>2021-03-30T13:28:28.000Z</time>
      </trkpt>
      <trkpt lat="49.77686" lon="4.83659">
        <ele>229</ele>
        <time>2021-03-30T13:28:29.000Z</time>
      </trkpt>
      <trkpt lat="49.77685" lon="4.83655">
        <ele>229</ele>
        <time>2021-03-30T13:28:30.000Z</time>
      </trkpt>
      <trkpt lat="49.77683" lon="4.83651">
        <ele>229</ele>
        <time>2021-03-30T13:28:31.000Z</time>
      </trkpt>
      <trkpt lat="49.77682" lon="4.83646">
        <ele>229</ele>
        <time>2021-03-30T13:28:32.000Z</time>
      </trkpt>
      <trkpt lat="49.7768" lon="4.83641">
        <ele>229</ele>
        <time>2021-03-30T13:28:33.000Z</time>
      </trkpt>
      <trkpt lat="49.77678" lon="4.83636">
        <ele>229</ele>
        <time>2021-03-30T13:28:34.000Z</time>
      </trkpt>
      <trkpt lat="49.77676" lon="4.83632">
        <ele>229</ele>
        <time>2021-03-30T13:28:35.000Z</time>
      </trkpt>
      <trkpt lat="49.77675" lon="4.83628">
        <ele>229</ele>
        <time>2021-03-30T13:28:36.000Z</time>
      </trkpt>
      <trkpt lat="49.77673" lon="4.83626">
        <ele>229</ele>
        <time>2021-03-30T13:28:37.000Z</time>
      </trkpt>
      <trkpt lat="49.77672" lon="4.83623">
        <ele>229</ele>
        <time>2021-03-30T13:28:38.000Z</time>
      </trkpt>
      <trkpt lat="49.77671" lon="4.83619">
        <ele>229</ele>
        <time>2021-03-30T13:28:39.000Z</time>
      </trkpt>
      <trkpt lat="49.7767" lon="4.83616">
        <ele>229</ele>
        <time>2021-03-30T13:28:40.000Z</time>
      </trkpt>
      <trkpt lat="49.77669" lon="4.83612">
        <ele>229</ele>
        <time>2021-03-30T13:28:41.000Z</time>
      </trkpt>
      <trkpt lat="49.77669" lon="4.83608">
        <ele>229</ele>
        <time>2021-03-30T13:28:42.000Z</time>
      </trkpt>
      <trkpt lat="49.77668" lon="4.83604">
        <ele>229</ele>
        <time>2021-03-30T13:28:43.000Z</time>
      </trkpt>
      <trkpt lat="49.77667" lon="4.83599">
        <ele>229</ele>
        <time>2021-03-30T13:28:44.000Z</time>
      </trkpt>
      <trkpt lat="49.77666" lon="4.83595">
        <ele>229</ele>
        <time>2021-03-30T13:28:45.000Z</time>
      </trkpt>
      <trkpt lat="49.77665" lon="4.83591">
        <ele>229</ele>
        <time>2021-03-30T13:28:46.000Z</time>
      </trkpt>
      <trkpt lat="49.77664" lon="4.83589">
        <ele>229</ele>
        <time>2021-03-30T13:28:47.000Z</time>
      </trkpt>
      <trkpt lat="49.77662" lon="4.83586">
        <ele>229</ele>
        <time>2021-03-30T13:28:48.000Z</time>
      </trkpt>
      <trkpt lat="49.7766" lon="4.83584">
        <ele>229</ele>
        <time>2021-03-30T13:28:49.000Z</time>
      </trkpt>
      <trkpt lat="49.77658" lon="4.83581">
        <ele>229</ele>
        <time>2021-03-30T13:28:50.000Z</time>
      </trkpt>
      <trkpt lat="49.77656" lon="4.83578">
        <ele>228</ele>
        <time>2021-03-30T13:28:51.000Z</time>
      </trkpt>
      <trkpt lat="49.77654" lon="4.83576">
        <ele>228</ele>
        <time>2021-03-30T13:28:52.000Z</time>
      </trkpt>
      <trkpt lat="49.77652" lon="4.83572">
        <ele>228</ele>
        <time>2021-03-30T13:28:53.000Z</time>
      </trkpt>
      <trkpt lat="49.77651" lon="4.83569">
        <ele>228</ele>
        <time>2021-03-30T13:28:54.000Z</time>
      </trkpt>
      <trkpt lat="49.77649" lon="4.83566">
        <ele>228</ele>
        <time>2021-03-30T13:28:55.000Z</time>
      </trkpt>
      <trkpt lat="49.77647" lon="4.83563">
        <ele>228</ele>
        <time>2021-03-30T13:28:56.000Z</time>
      </trkpt>
      <trkpt lat="49.77645" lon="4.83559">
        <ele>228</ele>
        <time>2021-03-30T13:28:57.000Z</time>
      </trkpt>
      <trkpt lat="49.77643" lon="4.83556">
        <ele>228</ele>
        <time>2021-03-30T13:28:58.000Z</time>
      </trkpt>
      <trkpt lat="49.77641" lon="4.83553">
        <ele>228</ele>
        <time>2021-03-30T13:28:59.000Z</time>
      </trkpt>
      <trkpt lat="49.7764" lon="4.8355">
        <ele>228</ele>
        <time>2021-03-30T13:29:00.000Z</time>
      </trkpt>
      <trkpt lat="49.77639" lon="4.83548">
        <ele>227</ele>
        <time>2021-03-30T13:29:01.000Z</time>
      </trkpt>
      <trkpt lat="49.77637" lon="4.83545">
        <ele>227</ele>
        <time>2021-03-30T13:29:02.000Z</time>
      </trkpt>
      <trkpt lat="49.77636" lon="4.83541">
        <ele>227</ele>
        <time>2021-03-30T13:29:03.000Z</time>
      </trkpt>
      <trkpt lat="49.77634" lon="4.83538">
        <ele>227</ele>
        <time>2021-03-30T13:29:04.000Z</time>
      </trkpt>
      <trkpt lat="49.77633" lon="4.83535">
        <ele>227</ele>
        <time>2021-03-30T13:29:05.000Z</time>
      </trkpt>
      <trkpt lat="49.77632" lon="4.83531">
        <ele>227</ele>
        <time>2021-03-30T13:29:06.000Z</time>
      </trkpt>
      <trkpt lat="49.7763" lon="4.83528">
        <ele>227</ele>
        <time>2021-03-30T13:29:07.000Z</time>
      </trkpt>
      <trkpt lat="49.77628" lon="4.83525">
        <ele>227</ele>
        <time>2021-03-30T13:29:08.000Z</time>
      </trkpt>
      <trkpt lat="49.77626" lon="4.83522">
        <ele>227</ele>
        <time>2021-03-30T13:29:09.000Z</time>
      </trkpt>
      <trkpt lat="49.77624" lon="4.83518">
        <ele>227</ele>
        <time>2021-03-30T13:29:10.000Z</time>
      </trkpt>
      <trkpt lat="49.77622" lon="4.83515">
        <ele>227</ele>
        <time>2021-03-30T13:29:11.000Z</time>
      </trkpt>
      <trkpt lat="49.7762" lon="4.83513">
        <ele>227</ele>
        <time>2021-03-30T13:29:12.000Z</time>
      </trkpt>
      <trkpt lat="49.77618" lon="4.8351">
        <ele>227</ele>
        <time>2021-03-30T13:29:13.000Z</time>
      </trkpt>
      <trkpt lat="49.77616" lon="4.83507">
        <ele>227</ele>
        <time>2021-03-30T13:29:14.000Z</time>
      </trkpt>
      <trkpt lat="49.77613" lon="4.83505">
        <ele>227</ele>
        <time>2021-03-30T13:29:15.000Z</time>
      </trkpt>
      <trkpt lat="49.77611" lon="4.83502">
        <ele>227</ele>
        <time>2021-03-30T13:29:16.000Z</time>
      </trkpt>
      <trkpt lat="49.77609" lon="4.83499">
        <ele>227</ele>
        <time>2021-03-30T13:29:17.000Z</time>
      </trkpt>
      <trkpt lat="49.77607" lon="4.83497">
        <ele>227</ele>
        <time>2021-03-30T13:29:18.000Z</time>
      </trkpt>
      <trkpt lat="49.77606" lon="4.83494">
        <ele>227</ele>
        <time>2021-03-30T13:29:19.000Z</time>
      </trkpt>
      <trkpt lat="49.77604" lon="4.83492">
        <ele>227</ele>
        <time>2021-03-30T13:29:20.000Z</time>
      </trkpt>
      <trkpt lat="49.77601" lon="4.8349">
        <ele>227</ele>
        <time>2021-03-30T13:29:21.000Z</time>
      </trkpt>
      <trkpt lat="49.77598" lon="4.83487">
        <ele>228</ele>
        <time>2021-03-30T13:29:22.000Z</time>
      </trkpt>
      <trkpt lat="49.77594" lon="4.83485">
        <ele>228</ele>
        <time>2021-03-30T13:29:23.000Z</time>
      </trkpt>
      <trkpt lat="49.7759" lon="4.83482">
        <ele>228</ele>
        <time>2021-03-30T13:29:24.000Z</time>
      </trkpt>
      <trkpt lat="49.77588" lon="4.8348">
        <ele>228</ele>
        <time>2021-03-30T13:29:25.000Z</time>
      </trkpt>
      <trkpt lat="49.77586" lon="4.83478">
        <ele>228</ele>
        <time>2021-03-30T13:29:26.000Z</time>
      </trkpt>
      <trkpt lat="49.77584" lon="4.83477">
        <ele>228</ele>
        <time>2021-03-30T13:29:27.000Z</time>
      </trkpt>
      <trkpt lat="49.77582" lon="4.83475">
        <ele>228</ele>
        <time>2021-03-30T13:29:28.000Z</time>
      </trkpt>
      <trkpt lat="49.7758" lon="4.83473">
        <ele>228</ele>
        <time>2021-03-30T13:29:29.000Z</time>
      </trkpt>
      <trkpt lat="49.77578" lon="4.83471">
        <ele>229</ele>
        <time>2021-03-30T13:29:30.000Z</time>
      </trkpt>
      <trkpt lat="49.77575" lon="4.8347">
        <ele>229</ele>
        <time>2021-03-30T13:29:31.000Z</time>
      </trkpt>
      <trkpt lat="49.77573" lon="4.83468">
        <ele>229</ele>
        <time>2021-03-30T13:29:32.000Z</time>
      </trkpt>
      <trkpt lat="49.77571" lon="4.83466">
        <ele>229</ele>
        <time>2021-03-30T13:29:33.000Z</time>
      </trkpt>
      <trkpt lat="49.77569" lon="4.83465">
        <ele>230</ele>
        <time>2021-03-30T13:29:34.000Z</time>
      </trkpt>
      <trkpt lat="49.77566" lon="4.83464">
        <ele>230</ele>
        <time>2021-03-30T13:29:35.000Z</time>
      </trkpt>
      <trkpt lat="49.77564" lon="4.83463">
        <ele>230</ele>
        <time>2021-03-30T13:29:36.000Z</time>
      </trkpt>
      <trkpt lat="49.77563" lon="4.83462">
        <ele>230</ele>
        <time>2021-03-30T13:29:37.000Z</time>
      </trkpt>
      <trkpt lat="49.77561" lon="4.83461">
        <ele>230</ele>
        <time>2021-03-30T13:29:38.000Z</time>
      </trkpt>
      <trkpt lat="49.77559" lon="4.8346">
        <ele>230</ele>
        <time>2021-03-30T13:29:39.000Z</time>
      </trkpt>
      <trkpt lat="49.77557" lon="4.83459">
        <ele>230</ele>
        <time>2021-03-30T13:29:40.000Z</time>
      </trkpt>
      <trkpt lat="49.77554" lon="4.83459">
        <ele>230</ele>
        <time>2021-03-30T13:29:41.000Z</time>
      </trkpt>
      <trkpt lat="49.77552" lon="4.83459">
        <ele>231</ele>
        <time>2021-03-30T13:29:42.000Z</time>
      </trkpt>
      <trkpt lat="49.7755" lon="4.83459">
        <ele>231</ele>
        <time>2021-03-30T13:29:43.000Z</time>
      </trkpt>
      <trkpt lat="49.77548" lon="4.83458">
        <ele>231</ele>
        <time>2021-03-30T13:29:44.000Z</time>
      </trkpt>
      <trkpt lat="49.77545" lon="4.83458">
        <ele>231</ele>
        <time>2021-03-30T13:29:45.000Z</time>
      </trkpt>
      <trkpt lat="49.77542" lon="4.83458">
        <ele>231</ele>
        <time>2021-03-30T13:29:46.000Z</time>
      </trkpt>
      <trkpt lat="49.77538" lon="4.83458">
        <ele>231</ele>
        <time>2021-03-30T13:29:47.000Z</time>
      </trkpt>
      <trkpt lat="49.77534" lon="4.83458">
        <ele>231</ele>
        <time>2021-03-30T13:29:48.000Z</time>
      </trkpt>
      <trkpt lat="49.7753" lon="4.83458">
        <ele>231</ele>
        <time>2021-03-30T13:29:49.000Z</time>
      </trkpt>
      <trkpt lat="49.77527" lon="4.83458">
        <ele>231</ele>
        <time>2021-03-30T13:29:50.000Z</time>
      </trkpt>
      <trkpt lat="49.77524" lon="4.83458">
        <ele>231</ele>
        <time>2021-03-30T13:29:51.000Z</time>
      </trkpt>
      <trkpt lat="49.77522" lon="4.83458">
        <ele>231</ele>
        <time>2021-03-30T13:29:52.000Z</time>
      </trkpt>
      <trkpt lat="49.77518" lon="4.83458">
        <ele>231</ele>
        <time>2021-03-30T13:29:53.000Z</time>
      </trkpt>
      <trkpt lat="49.77515" lon="4.83457">
        <ele>231</ele>
        <time>2021-03-30T13:29:54.000Z</time>
      </trkpt>
      <trkpt lat="49.77512" lon="4.83457">
        <ele>231</ele>
        <time>2021-03-30T13:29:55.000Z</time>
      </trkpt>
      <trkpt lat="49.77508" lon="4.83457">
        <ele>231</ele>
        <time>2021-03-30T13:29:56.000Z</time>
      </trkpt>
      <trkpt lat="49.77505" lon="4.83457">
        <ele>231</ele>
        <time>2021-03-30T13:29:57.000Z</time>
      </trkpt>
      <trkpt lat="49.77502" lon="4.83458">
        <ele>231</ele>
        <time>2021-03-30T13:29:58.000Z</time>
      </trkpt>
      <trkpt lat="49.77498" lon="4.83457">
        <ele>231</ele>
        <time>2021-03-30T13:29:59.000Z</time>
      </trkpt>
      <trkpt lat="49.77494" lon="4.83457">
        <ele>232</ele>
        <time>2021-03-30T13:30:00.000Z</time>
      </trkpt>
      <trkpt lat="49.77491" lon="4.83458">
        <ele>232</ele>
        <time>2021-03-30T13:30:01.000Z</time>
      </trkpt>
      <trkpt lat="49.77488" lon="4.83458">
        <ele>232</ele>
        <time>2021-03-30T13:30:02.000Z</time>
      </trkpt>
      <trkpt lat="49.77484" lon="4.83458">
        <ele>232</ele>
        <time>2021-03-30T13:30:03.000Z</time>
      </trkpt>
      <trkpt lat="49.7748" lon="4.83458">
        <ele>232</ele>
        <time>2021-03-30T13:30:04.000Z</time>
      </trkpt>
      <trkpt lat="49.77477" lon="4.83458">
        <ele>233</ele>
        <time>2021-03-30T13:30:05.000Z</time>
      </trkpt>
      <trkpt lat="49.77473" lon="4.83457">
        <ele>233</ele>
        <time>2021-03-30T13:30:06.000Z</time>
      </trkpt>
      <trkpt lat="49.7747" lon="4.83457">
        <ele>233</ele>
        <time>2021-03-30T13:30:07.000Z</time>
      </trkpt>
      <trkpt lat="49.77466" lon="4.83457">
        <ele>233</ele>
        <time>2021-03-30T13:30:08.000Z</time>
      </trkpt>
      <trkpt lat="49.77463" lon="4.83457">
        <ele>234</ele>
        <time>2021-03-30T13:30:09.000Z</time>
      </trkpt>
      <trkpt lat="49.77459" lon="4.83457">
        <ele>234</ele>
        <time>2021-03-30T13:30:10.000Z</time>
      </trkpt>
      <trkpt lat="49.77456" lon="4.83456">
        <ele>234</ele>
        <time>2021-03-30T13:30:11.000Z</time>
      </trkpt>
      <trkpt lat="49.77453" lon="4.83456">
        <ele>235</ele>
        <time>2021-03-30T13:30:12.000Z</time>
      </trkpt>
      <trkpt lat="49.77449" lon="4.83456">
        <ele>235</ele>
        <time>2021-03-30T13:30:13.000Z</time>
      </trkpt>
      <trkpt lat="49.77447" lon="4.83456">
        <ele>236</ele>
        <time>2021-03-30T13:30:14.000Z</time>
      </trkpt>
      <trkpt lat="49.77444" lon="4.83456">
        <ele>236</ele>
        <time>2021-03-30T13:30:15.000Z</time>
      </trkpt>
      <trkpt lat="49.77442" lon="4.83456">
        <ele>236</ele>
        <time>2021-03-30T13:30:16.000Z</time>
      </trkpt>
      <trkpt lat="49.77439" lon="4.83456">
        <ele>236</ele>
        <time>2021-03-30T13:30:17.000Z</time>
      </trkpt>
      <trkpt lat="49.77437" lon="4.83455">
        <ele>237</ele>
        <time>2021-03-30T13:30:18.000Z</time>
      </trkpt>
      <trkpt lat="49.77436" lon="4.83455">
        <ele>237</ele>
        <time>2021-03-30T13:30:19.000Z</time>
      </trkpt>
      <trkpt lat="49.77433" lon="4.83455">
        <ele>237</ele>
        <time>2021-03-30T13:30:20.000Z</time>
      </trkpt>
      <trkpt lat="49.7743" lon="4.83455">
        <ele>238</ele>
        <time>2021-03-30T13:30:21.000Z</time>
      </trkpt>
      <trkpt lat="49.77428" lon="4.83456">
        <ele>238</ele>
        <time>2021-03-30T13:30:22.000Z</time>
      </trkpt>
      <trkpt lat="49.77425" lon="4.83457">
        <ele>238</ele>
        <time>2021-03-30T13:30:23.000Z</time>
      </trkpt>
      <trkpt lat="49.77422" lon="4.83459">
        <ele>239</ele>
        <time>2021-03-30T13:30:24.000Z</time>
      </trkpt>
      <trkpt lat="49.7742" lon="4.83461">
        <ele>239</ele>
        <time>2021-03-30T13:30:25.000Z</time>
      </trkpt>
      <trkpt lat="49.77419" lon="4.83462">
        <ele>239</ele>
        <time>2021-03-30T13:30:26.000Z</time>
      </trkpt>
      <trkpt lat="49.77418" lon="4.83463">
        <ele>240</ele>
        <time>2021-03-30T13:30:27.000Z</time>
      </trkpt>
      <trkpt lat="49.77416" lon="4.83465">
        <ele>240</ele>
        <time>2021-03-30T13:30:28.000Z</time>
      </trkpt>
      <trkpt lat="49.77414" lon="4.83466">
        <ele>240</ele>
        <time>2021-03-30T13:30:29.000Z</time>
      </trkpt>
      <trkpt lat="49.77413" lon="4.83467">
        <ele>241</ele>
        <time>2021-03-30T13:30:30.000Z</time>
      </trkpt>
      <trkpt lat="49.77411" lon="4.83469">
        <ele>241</ele>
        <time>2021-03-30T13:30:31.000Z</time>
      </trkpt>
      <trkpt lat="49.7741" lon="4.8347">
        <ele>241</ele>
        <time>2021-03-30T13:30:32.000Z</time>
      </trkpt>
      <trkpt lat="49.77409" lon="4.83471">
        <ele>241</ele>
        <time>2021-03-30T13:30:33.000Z</time>
      </trkpt>
      <trkpt lat="49.77408" lon="4.83472">
        <ele>242</ele>
        <time>2021-03-30T13:30:34.000Z</time>
      </trkpt>
      <trkpt lat="49.77407" lon="4.83473">
        <ele>242</ele>
        <time>2021-03-30T13:30:35.000Z</time>
      </trkpt>
      <trkpt lat="49.77405" lon="4.83474">
        <ele>243</ele>
        <time>2021-03-30T13:30:36.000Z</time>
      </trkpt>
      <trkpt lat="49.77403" lon="4.83475">
        <ele>243</ele>
        <time>2021-03-30T13:30:37.000Z</time>
      </trkpt>
      <trkpt lat="49.77402" lon="4.83475">
        <ele>243</ele>
        <time>2021-03-30T13:30:38.000Z</time>
      </trkpt>
      <trkpt lat="49.77401" lon="4.83476">
        <ele>244</ele>
        <time>2021-03-30T13:30:39.000Z</time>
      </trkpt>
      <trkpt lat="49.77399" lon="4.83477">
        <ele>244</ele>
        <time>2021-03-30T13:30:40.000Z</time>
      </trkpt>
      <trkpt lat="49.77398" lon="4.83478">
        <ele>245</ele>
        <time>2021-03-30T13:30:41.000Z</time>
      </trkpt>
      <trkpt lat="49.77396" lon="4.83479">
        <ele>245</ele>
        <time>2021-03-30T13:30:42.000Z</time>
      </trkpt>
      <trkpt lat="49.77394" lon="4.8348">
        <ele>246</ele>
        <time>2021-03-30T13:30:43.000Z</time>
      </trkpt>
      <trkpt lat="49.77393" lon="4.8348">
        <ele>246</ele>
        <time>2021-03-30T13:30:44.000Z</time>
      </trkpt>
      <trkpt lat="49.77391" lon="4.83481">
        <ele>247</ele>
        <time>2021-03-30T13:30:45.000Z</time>
      </trkpt>
      <trkpt lat="49.77389" lon="4.83481">
        <ele>247</ele>
        <time>2021-03-30T13:30:46.000Z</time>
      </trkpt>
      <trkpt lat="49.77388" lon="4.83481">
        <ele>247</ele>
        <time>2021-03-30T13:30:47.000Z</time>
      </trkpt>
      <trkpt lat="49.77386" lon="4.83482">
        <ele>248</ele>
        <time>2021-03-30T13:30:48.000Z</time>
      </trkpt>
      <trkpt lat="49.77385" lon="4.83482">
        <ele>248</ele>
        <time>2021-03-30T13:30:49.000Z</time>
      </trkpt>
      <trkpt lat="49.77384" lon="4.83481">
        <ele>249</ele>
        <time>2021-03-30T13:30:50.000Z</time>
      </trkpt>
      <trkpt lat="49.77382" lon="4.83481">
        <ele>249</ele>
        <time>2021-03-30T13:30:51.000Z</time>
      </trkpt>
      <trkpt lat="49.77381" lon="4.83481">
        <ele>249</ele>
        <time>2021-03-30T13:30:52.000Z</time>
      </trkpt>
      <trkpt lat="49.77378" lon="4.8348">
        <ele>250</ele>
        <time>2021-03-30T13:30:53.000Z</time>
      </trkpt>
      <trkpt lat="49.77377" lon="4.83479">
        <ele>250</ele>
        <time>2021-03-30T13:30:54.000Z</time>
      </trkpt>
      <trkpt lat="49.77374" lon="4.83478">
        <ele>251</ele>
        <time>2021-03-30T13:30:55.000Z</time>
      </trkpt>
      <trkpt lat="49.77373" lon="4.83476">
        <ele>251</ele>
        <time>2021-03-30T13:30:56.000Z</time>
      </trkpt>
      <trkpt lat="49.77371" lon="4.83475">
        <ele>251</ele>
        <time>2021-03-30T13:30:57.000Z</time>
      </trkpt>
      <trkpt lat="49.77368" lon="4.83473">
        <ele>252</ele>
        <time>2021-03-30T13:30:58.000Z</time>
      </trkpt>
      <trkpt lat="49.77365" lon="4.83471">
        <ele>252</ele>
        <time>2021-03-30T13:30:59.000Z</time>
      </trkpt>
      <trkpt lat="49.77362" lon="4.83469">
        <ele>253</ele>
        <time>2021-03-30T13:31:00.000Z</time>
      </trkpt>
      <trkpt lat="49.77358" lon="4.83467">
        <ele>253</ele>
        <time>2021-03-30T13:31:01.000Z</time>
      </trkpt>
      <trkpt lat="49.77353" lon="4.83464">
        <ele>253</ele>
        <time>2021-03-30T13:31:02.000Z</time>
      </trkpt>
      <trkpt lat="49.77348" lon="4.83461">
        <ele>253</ele>
        <time>2021-03-30T13:31:03.000Z</time>
      </trkpt>
      <trkpt lat="49.77341" lon="4.83458">
        <ele>254</ele>
        <time>2021-03-30T13:31:04.000Z</time>
      </trkpt>
      <trkpt lat="49.77334" lon="4.83454">
        <ele>254</ele>
        <time>2021-03-30T13:31:05.000Z</time>
      </trkpt>
      <trkpt lat="49.77327" lon="4.8345">
        <ele>254</ele>
        <time>2021-03-30T13:31:06.000Z</time>
      </trkpt>
      <trkpt lat="49.7732" lon="4.83446">
        <ele>254</ele>
        <time>2021-03-30T13:31:07.000Z</time>
      </trkpt>
      <trkpt lat="49.77316" lon="4.83443">
        <ele>254</ele>
        <time>2021-03-30T13:31:08.000Z</time>
      </trkpt>
      <trkpt lat="49.77312" lon="4.8344">
        <ele>254</ele>
        <time>2021-03-30T13:31:09.000Z</time>
      </trkpt>
      <trkpt lat="49.7731" lon="4.83438">
        <ele>254</ele>
        <time>2021-03-30T13:31:10.000Z</time>
      </trkpt>
      <trkpt lat="49.77308" lon="4.83436">
        <ele>254</ele>
        <time>2021-03-30T13:31:11.000Z</time>
      </trkpt>
      <trkpt lat="49.77306" lon="4.83433">
        <ele>255</ele>
        <time>2021-03-30T13:31:12.000Z</time>
      </trkpt>
      <trkpt lat="49.77304" lon="4.83431">
        <ele>255</ele>
        <time>2021-03-30T13:31:13.000Z</time>
      </trkpt>
      <trkpt lat="49.77303" lon="4.83429">
        <ele>255</ele>
        <time>2021-03-30T13:31:14.000Z</time>
      </trkpt>
      <trkpt lat="49.77301" lon="4.83426">
        <ele>255</ele>
        <time>2021-03-30T13:31:15.000Z</time>
      </trkpt>
      <trkpt lat="49.77299" lon="4.83424">
        <ele>255</ele>
        <time>2021-03-30T13:31:16.000Z</time>
      </trkpt>
      <trkpt lat="49.77297" lon="4.83422">
        <ele>255</ele>
        <time>2021-03-30T13:31:17.000Z</time>
      </trkpt>
      <trkpt lat="49.77295" lon="4.83419">
        <ele>255</ele>
        <time>2021-03-30T13:31:18.000Z</time>
      </trkpt>
      <trkpt lat="49.77294" lon="4.83417">
        <ele>255</ele>
        <time>2021-03-30T13:31:19.000Z</time>
      </trkpt>
      <trkpt lat="49.77292" lon="4.83415">
        <ele>255</ele>
        <time>2021-03-30T13:31:20.000Z</time>
      </trkpt>
      <trkpt lat="49.77291" lon="4.83413">
        <ele>255</ele>
        <time>2021-03-30T13:31:21.000Z</time>
      </trkpt>
      <trkpt lat="49.7729" lon="4.8341">
        <ele>255</ele>
        <time>2021-03-30T13:31:22.000Z</time>
      </trkpt>
      <trkpt lat="49.77289" lon="4.83408">
        <ele>256</ele>
        <time>2021-03-30T13:31:23.000Z</time>
      </trkpt>
      <trkpt lat="49.77287" lon="4.83406">
        <ele>256</ele>
        <time>2021-03-30T13:31:24.000Z</time>
      </trkpt>
      <trkpt lat="49.77286" lon="4.83404">
        <ele>256</ele>
        <time>2021-03-30T13:31:25.000Z</time>
      </trkpt>
      <trkpt lat="49.77284" lon="4.83402">
        <ele>256</ele>
        <time>2021-03-30T13:31:26.000Z</time>
      </trkpt>
      <trkpt lat="49.77282" lon="4.834">
        <ele>256</ele>
        <time>2021-03-30T13:31:27.000Z</time>
      </trkpt>
      <trkpt lat="49.77281" lon="4.83399">
        <ele>257</ele>
        <time>2021-03-30T13:31:28.000Z</time>
      </trkpt>
      <trkpt lat="49.7728" lon="4.83397">
        <ele>257</ele>
        <time>2021-03-30T13:31:29.000Z</time>
      </trkpt>
      <trkpt lat="49.77278" lon="4.83394">
        <ele>257</ele>
        <time>2021-03-30T13:31:30.000Z</time>
      </trkpt>
      <trkpt lat="49.77276" lon="4.83392">
        <ele>257</ele>
        <time>2021-03-30T13:31:31.000Z</time>
      </trkpt>
      <trkpt lat="49.77274" lon="4.8339">
        <ele>257</ele>
        <time>2021-03-30T13:31:32.000Z</time>
      </trkpt>
      <trkpt lat="49.77271" lon="4.83388">
        <ele>257</ele>
        <time>2021-03-30T13:31:33.000Z</time>
      </trkpt>
      <trkpt lat="49.77268" lon="4.83386">
        <ele>257</ele>
        <time>2021-03-30T13:31:34.000Z</time>
      </trkpt>
      <trkpt lat="49.77265" lon="4.83384">
        <ele>258</ele>
        <time>2021-03-30T13:31:35.000Z</time>
      </trkpt>
      <trkpt lat="49.77264" lon="4.83383">
        <ele>258</ele>
        <time>2021-03-30T13:31:36.000Z</time>
      </trkpt>
      <trkpt lat="49.77262" lon="4.83381">
        <ele>258</ele>
        <time>2021-03-30T13:31:37.000Z</time>
      </trkpt>
      <trkpt lat="49.7726" lon="4.8338">
        <ele>258</ele>
        <time>2021-03-30T13:31:38.000Z</time>
      </trkpt>
      <trkpt lat="49.77258" lon="4.83379">
        <ele>258</ele>
        <time>2021-03-30T13:31:39.000Z</time>
      </trkpt>
      <trkpt lat="49.77256" lon="4.83378">
        <ele>258</ele>
        <time>2021-03-30T13:31:40.000Z</time>
      </trkpt>
      <trkpt lat="49.77255" lon="4.83377">
        <ele>259</ele>
        <time>2021-03-30T13:31:41.000Z</time>
      </trkpt>
      <trkpt lat="49.77253" lon="4.83376">
        <ele>259</ele>
        <time>2021-03-30T13:31:42.000Z</time>
      </trkpt>
      <trkpt lat="49.77252" lon="4.83375">
        <ele>259</ele>
        <time>2021-03-30T13:31:43.000Z</time>
      </trkpt>
      <trkpt lat="49.77249" lon="4.83373">
        <ele>259</ele>
        <time>2021-03-30T13:31:44.000Z</time>
      </trkpt>
      <trkpt lat="49.77247" lon="4.83373">
        <ele>259</ele>
        <time>2021-03-30T13:31:45.000Z</time>
      </trkpt>
      <trkpt lat="49.77245" lon="4.83372">
        <ele>259</ele>
        <time>2021-03-30T13:31:46.000Z</time>
      </trkpt>
      <trkpt lat="49.77244" lon="4.83372">
        <ele>259</ele>
        <time>2021-03-30T13:31:47.000Z</time>
      </trkpt>
      <trkpt lat="49.77241" lon="4.83372">
        <ele>259</ele>
        <time>2021-03-30T13:31:48.000Z</time>
      </trkpt>
      <trkpt lat="49.77239" lon="4.83371">
        <ele>259</ele>
        <time>2021-03-30T13:31:49.000Z</time>
      </trkpt>
      <trkpt lat="49.77237" lon="4.8337">
        <ele>259</ele>
        <time>2021-03-30T13:31:50.000Z</time>
      </trkpt>
      <trkpt lat="49.77235" lon="4.8337">
        <ele>258</ele>
        <time>2021-03-30T13:31:51.000Z</time>
      </trkpt>
      <trkpt lat="49.77232" lon="4.83369">
        <ele>258</ele>
        <time>2021-03-30T13:31:52.000Z</time>
      </trkpt>
      <trkpt lat="49.77229" lon="4.83368">
        <ele>258</ele>
        <time>2021-03-30T13:31:53.000Z</time>
      </trkpt>
      <trkpt lat="49.77226" lon="4.83368">
        <ele>258</ele>
        <time>2021-03-30T13:31:54.000Z</time>
      </trkpt>
      <trkpt lat="49.77224" lon="4.83368">
        <ele>258</ele>
        <time>2021-03-30T13:31:55.000Z</time>
      </trkpt>
      <trkpt lat="49.7722" lon="4.83368">
        <ele>258</ele>
        <time>2021-03-30T13:31:56.000Z</time>
      </trkpt>
      <trkpt lat="49.77217" lon="4.83368">
        <ele>258</ele>
        <time>2021-03-30T13:31:57.000Z</time>
      </trkpt>
      <trkpt lat="49.77214" lon="4.83368">
        <ele>258</ele>
        <time>2021-03-30T13:31:58.000Z</time>
      </trkpt>
      <trkpt lat="49.77211" lon="4.83368">
        <ele>258</ele>
        <time>2021-03-30T13:31:59.000Z</time>
      </trkpt>
      <trkpt lat="49.77208" lon="4.83368">
        <ele>258</ele>
        <time>2021-03-30T13:32:00.000Z</time>
      </trkpt>
      <trkpt lat="49.77206" lon="4.83369">
        <ele>258</ele>
        <time>2021-03-30T13:32:01.000Z</time>
      </trkpt>
      <trkpt lat="49.77203" lon="4.83369">
        <ele>258</ele>
        <time>2021-03-30T13:32:02.000Z</time>
      </trkpt>
      <trkpt lat="49.77201" lon="4.83369">
        <ele>258</ele>
        <time>2021-03-30T13:32:03.000Z</time>
      </trkpt>
      <trkpt lat="49.77198" lon="4.8337">
        <ele>258</ele>
        <time>2021-03-30T13:32:04.000Z</time>
      </trkpt>
      <trkpt lat="49.77196" lon="4.8337">
        <ele>258</ele>
        <time>2021-03-30T13:32:05.000Z</time>
      </trkpt>
      <trkpt lat="49.77193" lon="4.8337">
        <ele>258</ele>
        <time>2021-03-30T13:32:06.000Z</time>
      </trkpt>
      <trkpt lat="49.77191" lon="4.8337">
        <ele>258</ele>
        <time>2021-03-30T13:32:07.000Z</time>
      </trkpt>
      <trkpt lat="49.77189" lon="4.83371">
        <ele>258</ele>
        <time>2021-03-30T13:32:08.000Z</time>
      </trkpt>
      <trkpt lat="49.77187" lon="4.83371">
        <ele>258</ele>
        <time>2021-03-30T13:32:09.000Z</time>
      </trkpt>
      <trkpt lat="49.77185" lon="4.83372">
        <ele>258</ele>
        <time>2021-03-30T13:32:10.000Z</time>
      </trkpt>
      <trkpt lat="49.77183" lon="4.83372">
        <ele>258</ele>
        <time>2021-03-30T13:32:11.000Z</time>
      </trkpt>
      <trkpt lat="49.77182" lon="4.83373">
        <ele>258</ele>
        <time>2021-03-30T13:32:12.000Z</time>
      </trkpt>
      <trkpt lat="49.77179" lon="4.83373">
        <ele>258</ele>
        <time>2021-03-30T13:32:13.000Z</time>
      </trkpt>
      <trkpt lat="49.77178" lon="4.83374">
        <ele>258</ele>
        <time>2021-03-30T13:32:14.000Z</time>
      </trkpt>
      <trkpt lat="49.77176" lon="4.83375">
        <ele>258</ele>
        <time>2021-03-30T13:32:15.000Z</time>
      </trkpt>
      <trkpt lat="49.77175" lon="4.83376">
        <ele>259</ele>
        <time>2021-03-30T13:32:16.000Z</time>
      </trkpt>
      <trkpt lat="49.77174" lon="4.83377">
        <ele>259</ele>
        <time>2021-03-30T13:32:17.000Z</time>
      </trkpt>
      <trkpt lat="49.77173" lon="4.83378">
        <ele>259</ele>
        <time>2021-03-30T13:32:18.000Z</time>
      </trkpt>
      <trkpt lat="49.77172" lon="4.8338">
        <ele>259</ele>
        <time>2021-03-30T13:32:19.000Z</time>
      </trkpt>
      <trkpt lat="49.7717" lon="4.83381">
        <ele>260</ele>
        <time>2021-03-30T13:32:20.000Z</time>
      </trkpt>
      <trkpt lat="49.77168" lon="4.83382">
        <ele>260</ele>
        <time>2021-03-30T13:32:21.000Z</time>
      </trkpt>
      <trkpt lat="49.77166" lon="4.83383">
        <ele>261</ele>
        <time>2021-03-30T13:32:22.000Z</time>
      </trkpt>
      <trkpt lat="49.77165" lon="4.83383">
        <ele>261</ele>
        <time>2021-03-30T13:32:23.000Z</time>
      </trkpt>
      <trkpt lat="49.77163" lon="4.83384">
        <ele>262</ele>
        <time>2021-03-30T13:32:24.000Z</time>
      </trkpt>
      <trkpt lat="49.77161" lon="4.83385">
        <ele>262</ele>
        <time>2021-03-30T13:32:25.000Z</time>
      </trkpt>
      <trkpt lat="49.77159" lon="4.83385">
        <ele>262</ele>
        <time>2021-03-30T13:32:26.000Z</time>
      </trkpt>
      <trkpt lat="49.77157" lon="4.83386">
        <ele>263</ele>
        <time>2021-03-30T13:32:27.000Z</time>
      </trkpt>
      <trkpt lat="49.77155" lon="4.83388">
        <ele>263</ele>
        <time>2021-03-30T13:32:28.000Z</time>
      </trkpt>
      <trkpt lat="49.77152" lon="4.83389">
        <ele>263</ele>
        <time>2021-03-30T13:32:29.000Z</time>
      </trkpt>
      <trkpt lat="49.7715" lon="4.83389">
        <ele>263</ele>
        <time>2021-03-30T13:32:30.000Z</time>
      </trkpt>
      <trkpt lat="49.77147" lon="4.83391">
        <ele>263</ele>
        <time>2021-03-30T13:32:31.000Z</time>
      </trkpt>
      <trkpt lat="49.77144" lon="4.83391">
        <ele>263</ele>
        <time>2021-03-30T13:32:32.000Z</time>
      </trkpt>
      <trkpt lat="49.77141" lon="4.83392">
        <ele>264</ele>
        <time>2021-03-30T13:32:33.000Z</time>
      </trkpt>
      <trkpt lat="49.77138" lon="4.83392">
        <ele>264</ele>
        <time>2021-03-30T13:32:34.000Z</time>
      </trkpt>
      <trkpt lat="49.77135" lon="4.83392">
        <ele>264</ele>
        <time>2021-03-30T13:32:35.000Z</time>
      </trkpt>
      <trkpt lat="49.77132" lon="4.83393">
        <ele>264</ele>
        <time>2021-03-30T13:32:36.000Z</time>
      </trkpt>
      <trkpt lat="49.77129" lon="4.83395">
        <ele>264</ele>
        <time>2021-03-30T13:32:37.000Z</time>
      </trkpt>
      <trkpt lat="49.77126" lon="4.83396">
        <ele>264</ele>
        <time>2021-03-30T13:32:38.000Z</time>
      </trkpt>
      <trkpt lat="49.77122" lon="4.83397">
        <ele>264</ele>
        <time>2021-03-30T13:32:39.000Z</time>
      </trkpt>
      <trkpt lat="49.77119" lon="4.83399">
        <ele>264</ele>
        <time>2021-03-30T13:32:40.000Z</time>
      </trkpt>
      <trkpt lat="49.77115" lon="4.834">
        <ele>264</ele>
        <time>2021-03-30T13:32:41.000Z</time>
      </trkpt>
      <trkpt lat="49.77112" lon="4.83401">
        <ele>264</ele>
        <time>2021-03-30T13:32:42.000Z</time>
      </trkpt>
      <trkpt lat="49.77109" lon="4.834">
        <ele>264</ele>
        <time>2021-03-30T13:32:43.000Z</time>
      </trkpt>
      <trkpt lat="49.77106" lon="4.834">
        <ele>264</ele>
        <time>2021-03-30T13:32:44.000Z</time>
      </trkpt>
      <trkpt lat="49.77103" lon="4.83399">
        <ele>264</ele>
        <time>2021-03-30T13:32:45.000Z</time>
      </trkpt>
      <trkpt lat="49.77099" lon="4.83398">
        <ele>264</ele>
        <time>2021-03-30T13:32:46.000Z</time>
      </trkpt>
      <trkpt lat="49.77096" lon="4.83397">
        <ele>264</ele>
        <time>2021-03-30T13:32:47.000Z</time>
      </trkpt>
      <trkpt lat="49.77093" lon="4.83396">
        <ele>264</ele>
        <time>2021-03-30T13:32:48.000Z</time>
      </trkpt>
      <trkpt lat="49.7709" lon="4.83395">
        <ele>264</ele>
        <time>2021-03-30T13:32:49.000Z</time>
      </trkpt>
      <trkpt lat="49.77087" lon="4.83395">
        <ele>264</ele>
        <time>2021-03-30T13:32:50.000Z</time>
      </trkpt>
      <trkpt lat="49.77085" lon="4.83394">
        <ele>264</ele>
        <time>2021-03-30T13:32:51.000Z</time>
      </trkpt>
      <trkpt lat="49.77082" lon="4.83393">
        <ele>264</ele>
        <time>2021-03-30T13:32:52.000Z</time>
      </trkpt>
      <trkpt lat="49.7708" lon="4.83393">
        <ele>263</ele>
        <time>2021-03-30T13:32:53.000Z</time>
      </trkpt>
      <trkpt lat="49.77078" lon="4.83392">
        <ele>263</ele>
        <time>2021-03-30T13:32:54.000Z</time>
      </trkpt>
      <trkpt lat="49.77076" lon="4.83392">
        <ele>263</ele>
        <time>2021-03-30T13:32:55.000Z</time>
      </trkpt>
      <trkpt lat="49.77074" lon="4.83392">
        <ele>263</ele>
        <time>2021-03-30T13:32:56.000Z</time>
      </trkpt>
      <trkpt lat="49.77073" lon="4.83391">
        <ele>263</ele>
        <time>2021-03-30T13:32:57.000Z</time>
      </trkpt>
      <trkpt lat="49.7707" lon="4.8339">
        <ele>263</ele>
        <time>2021-03-30T13:32:58.000Z</time>
      </trkpt>
      <trkpt lat="49.77067" lon="4.83389">
        <ele>263</ele>
        <time>2021-03-30T13:32:59.000Z</time>
      </trkpt>
      <trkpt lat="49.77065" lon="4.83388">
        <ele>263</ele>
        <time>2021-03-30T13:33:00.000Z</time>
      </trkpt>
      <trkpt lat="49.77062" lon="4.83386">
        <ele>263</ele>
        <time>2021-03-30T13:33:01.000Z</time>
      </trkpt>
      <trkpt lat="49.77059" lon="4.83385">
        <ele>263</ele>
        <time>2021-03-30T13:33:02.000Z</time>
      </trkpt>
      <trkpt lat="49.77057" lon="4.83384">
        <ele>263</ele>
        <time>2021-03-30T13:33:03.000Z</time>
      </trkpt>
      <trkpt lat="49.77053" lon="4.83382">
        <ele>263</ele>
        <time>2021-03-30T13:33:04.000Z</time>
      </trkpt>
      <trkpt lat="49.7705" lon="4.83381">
        <ele>263</ele>
        <time>2021-03-30T13:33:05.000Z</time>
      </trkpt>
      <trkpt lat="49.77047" lon="4.8338">
        <ele>263</ele>
        <time>2021-03-30T13:33:06.000Z</time>
      </trkpt>
      <trkpt lat="49.77044" lon="4.83378">
        <ele>263</ele>
        <time>2021-03-30T13:33:07.000Z</time>
      </trkpt>
      <trkpt lat="49.77041" lon="4.83376">
        <ele>263</ele>
        <time>2021-03-30T13:33:08.000Z</time>
      </trkpt>
      <trkpt lat="49.77037" lon="4.83375">
        <ele>263</ele>
        <time>2021-03-30T13:33:09.000Z</time>
      </trkpt>
      <trkpt lat="49.77034" lon="4.83373">
        <ele>263</ele>
        <time>2021-03-30T13:33:10.000Z</time>
      </trkpt>
      <trkpt lat="49.7703" lon="4.83372">
        <ele>263</ele>
        <time>2021-03-30T13:33:11.000Z</time>
      </trkpt>
      <trkpt lat="49.77027" lon="4.8337">
        <ele>263</ele>
        <time>2021-03-30T13:33:12.000Z</time>
      </trkpt>
      <trkpt lat="49.77024" lon="4.83368">
        <ele>262</ele>
        <time>2021-03-30T13:33:13.000Z</time>
      </trkpt>
      <trkpt lat="49.7702" lon="4.83367">
        <ele>262</ele>
        <time>2021-03-30T13:33:14.000Z</time>
      </trkpt>
      <trkpt lat="49.77017" lon="4.83365">
        <ele>262</ele>
        <time>2021-03-30T13:33:15.000Z</time>
      </trkpt>
      <trkpt lat="49.77014" lon="4.83362">
        <ele>262</ele>
        <time>2021-03-30T13:33:16.000Z</time>
      </trkpt>
      <trkpt lat="49.77011" lon="4.8336">
        <ele>262</ele>
        <time>2021-03-30T13:33:17.000Z</time>
      </trkpt>
      <trkpt lat="49.77007" lon="4.83358">
        <ele>262</ele>
        <time>2021-03-30T13:33:18.000Z</time>
      </trkpt>
      <trkpt lat="49.77004" lon="4.83355">
        <ele>261</ele>
        <time>2021-03-30T13:33:19.000Z</time>
      </trkpt>
      <trkpt lat="49.77001" lon="4.83351">
        <ele>261</ele>
        <time>2021-03-30T13:33:20.000Z</time>
      </trkpt>
      <trkpt lat="49.76998" lon="4.83348">
        <ele>261</ele>
        <time>2021-03-30T13:33:21.000Z</time>
      </trkpt>
      <trkpt lat="49.76995" lon="4.83346">
        <ele>261</ele>
        <time>2021-03-30T13:33:22.000Z</time>
      </trkpt>
      <trkpt lat="49.76992" lon="4.83343">
        <ele>261</ele>
        <time>2021-03-30T13:33:23.000Z</time>
      </trkpt>
      <trkpt lat="49.76989" lon="4.8334">
        <ele>261</ele>
        <time>2021-03-30T13:33:24.000Z</time>
      </trkpt>
      <trkpt lat="49.76987" lon="4.83337">
        <ele>261</ele>
        <time>2021-03-30T13:33:25.000Z</time>
      </trkpt>
      <trkpt lat="49.76985" lon="4.83333">
        <ele>261</ele>
        <time>2021-03-30T13:33:26.000Z</time>
      </trkpt>
      <trkpt lat="49.76983" lon="4.83329">
        <ele>261</ele>
        <time>2021-03-30T13:33:27.000Z</time>
      </trkpt>
      <trkpt lat="49.76981" lon="4.83324">
        <ele>261</ele>
        <time>2021-03-30T13:33:28.000Z</time>
      </trkpt>
      <trkpt lat="49.76979" lon="4.8332">
        <ele>261</ele>
        <time>2021-03-30T13:33:29.000Z</time>
      </trkpt>
      <trkpt lat="49.76977" lon="4.83316">
        <ele>261</ele>
        <time>2021-03-30T13:33:30.000Z</time>
      </trkpt>
      <trkpt lat="49.76976" lon="4.83312">
        <ele>261</ele>
        <time>2021-03-30T13:33:31.000Z</time>
      </trkpt>
      <trkpt lat="49.76973" lon="4.83308">
        <ele>261</ele>
        <time>2021-03-30T13:33:32.000Z</time>
      </trkpt>
      <trkpt lat="49.76972" lon="4.83303">
        <ele>261</ele>
        <time>2021-03-30T13:33:33.000Z</time>
      </trkpt>
      <trkpt lat="49.7697" lon="4.83298">
        <ele>261</ele>
        <time>2021-03-30T13:33:34.000Z</time>
      </trkpt>
      <trkpt lat="49.76968" lon="4.83294">
        <ele>261</ele>
        <time>2021-03-30T13:33:35.000Z</time>
      </trkpt>
      <trkpt lat="49.76966" lon="4.83289">
        <ele>261</ele>
        <time>2021-03-30T13:33:36.000Z</time>
      </trkpt>
      <trkpt lat="49.76965" lon="4.83284">
        <ele>261</ele>
        <time>2021-03-30T13:33:37.000Z</time>
      </trkpt>
      <trkpt lat="49.76963" lon="4.83279">
        <ele>261</ele>
        <time>2021-03-30T13:33:38.000Z</time>
      </trkpt>
      <trkpt lat="49.76961" lon="4.83275">
        <ele>261</ele>
        <time>2021-03-30T13:33:39.000Z</time>
      </trkpt>
      <trkpt lat="49.7696" lon="4.83271">
        <ele>261</ele>
        <time>2021-03-30T13:33:40.000Z</time>
      </trkpt>
      <trkpt lat="49.76958" lon="4.83266">
        <ele>261</ele>
        <time>2021-03-30T13:33:41.000Z</time>
      </trkpt>
      <trkpt lat="49.76956" lon="4.83262">
        <ele>262</ele>
        <time>2021-03-30T13:33:42.000Z</time>
      </trkpt>
      <trkpt lat="49.76954" lon="4.83258">
        <ele>262</ele>
        <time>2021-03-30T13:33:43.000Z</time>
      </trkpt>
      <trkpt lat="49.76952" lon="4.83254">
        <ele>262</ele>
        <time>2021-03-30T13:33:44.000Z</time>
      </trkpt>
      <trkpt lat="49.7695" lon="4.8325">
        <ele>262</ele>
        <time>2021-03-30T13:33:45.000Z</time>
      </trkpt>
      <trkpt lat="49.76949" lon="4.83246">
        <ele>262</ele>
        <time>2021-03-30T13:33:46.000Z</time>
      </trkpt>
      <trkpt lat="49.76947" lon="4.83241">
        <ele>262</ele>
        <time>2021-03-30T13:33:47.000Z</time>
      </trkpt>
      <trkpt lat="49.76946" lon="4.83237">
        <ele>262</ele>
        <time>2021-03-30T13:33:48.000Z</time>
      </trkpt>
      <trkpt lat="49.76944" lon="4.83232">
        <ele>262</ele>
        <time>2021-03-30T13:33:49.000Z</time>
      </trkpt>
      <trkpt lat="49.76941" lon="4.83227">
        <ele>262</ele>
        <time>2021-03-30T13:33:50.000Z</time>
      </trkpt>
      <trkpt lat="49.76938" lon="4.83223">
        <ele>262</ele>
        <time>2021-03-30T13:33:51.000Z</time>
      </trkpt>
      <trkpt lat="49.76936" lon="4.83217">
        <ele>262</ele>
        <time>2021-03-30T13:33:52.000Z</time>
      </trkpt>
      <trkpt lat="49.76933" lon="4.83212">
        <ele>262</ele>
        <time>2021-03-30T13:33:53.000Z</time>
      </trkpt>
      <trkpt lat="49.76932" lon="4.83206">
        <ele>262</ele>
        <time>2021-03-30T13:33:54.000Z</time>
      </trkpt>
      <trkpt lat="49.76931" lon="4.832">
        <ele>262</ele>
        <time>2021-03-30T13:33:55.000Z</time>
      </trkpt>
      <trkpt lat="49.76931" lon="4.83195">
        <ele>262</ele>
        <time>2021-03-30T13:33:56.000Z</time>
      </trkpt>
      <trkpt lat="49.76932" lon="4.8319">
        <ele>263</ele>
        <time>2021-03-30T13:33:57.000Z</time>
      </trkpt>
      <trkpt lat="49.76934" lon="4.83187">
        <ele>263</ele>
        <time>2021-03-30T13:33:58.000Z</time>
      </trkpt>
      <trkpt lat="49.76935" lon="4.83183">
        <ele>263</ele>
        <time>2021-03-30T13:33:59.000Z</time>
      </trkpt>
      <trkpt lat="49.76936" lon="4.83179">
        <ele>263</ele>
        <time>2021-03-30T13:34:00.000Z</time>
      </trkpt>
      <trkpt lat="49.76938" lon="4.83175">
        <ele>263</ele>
        <time>2021-03-30T13:34:01.000Z</time>
      </trkpt>
      <trkpt lat="49.7694" lon="4.8317">
        <ele>263</ele>
        <time>2021-03-30T13:34:02.000Z</time>
      </trkpt>
      <trkpt lat="49.76941" lon="4.83166">
        <ele>264</ele>
        <time>2021-03-30T13:34:03.000Z</time>
      </trkpt>
      <trkpt lat="49.76942" lon="4.8316">
        <ele>264</ele>
        <time>2021-03-30T13:34:04.000Z</time>
      </trkpt>
      <trkpt lat="49.76942" lon="4.83155">
        <ele>264</ele>
        <time>2021-03-30T13:34:05.000Z</time>
      </trkpt>
      <trkpt lat="49.76941" lon="4.8315">
        <ele>264</ele>
        <time>2021-03-30T13:34:06.000Z</time>
      </trkpt>
      <trkpt lat="49.7694" lon="4.83145">
        <ele>264</ele>
        <time>2021-03-30T13:34:07.000Z</time>
      </trkpt>
      <trkpt lat="49.76938" lon="4.8314">
        <ele>265</ele>
        <time>2021-03-30T13:34:08.000Z</time>
      </trkpt>
      <trkpt lat="49.76937" lon="4.83136">
        <ele>265</ele>
        <time>2021-03-30T13:34:09.000Z</time>
      </trkpt>
      <trkpt lat="49.76934" lon="4.83131">
        <ele>265</ele>
        <time>2021-03-30T13:34:10.000Z</time>
      </trkpt>
      <trkpt lat="49.76932" lon="4.83125">
        <ele>265</ele>
        <time>2021-03-30T13:34:11.000Z</time>
      </trkpt>
      <trkpt lat="49.7693" lon="4.8312">
        <ele>265</ele>
        <time>2021-03-30T13:34:12.000Z</time>
      </trkpt>
      <trkpt lat="49.76927" lon="4.83114">
        <ele>265</ele>
        <time>2021-03-30T13:34:13.000Z</time>
      </trkpt>
      <trkpt lat="49.76924" lon="4.83108">
        <ele>265</ele>
        <time>2021-03-30T13:34:14.000Z</time>
      </trkpt>
      <trkpt lat="49.76922" lon="4.83102">
        <ele>265</ele>
        <time>2021-03-30T13:34:15.000Z</time>
      </trkpt>
      <trkpt lat="49.76919" lon="4.83096">
        <ele>265</ele>
        <time>2021-03-30T13:34:16.000Z</time>
      </trkpt>
      <trkpt lat="49.76916" lon="4.8309">
        <ele>265</ele>
        <time>2021-03-30T13:34:17.000Z</time>
      </trkpt>
      <trkpt lat="49.76913" lon="4.83084">
        <ele>265</ele>
        <time>2021-03-30T13:34:18.000Z</time>
      </trkpt>
      <trkpt lat="49.76911" lon="4.83078">
        <ele>265</ele>
        <time>2021-03-30T13:34:19.000Z</time>
      </trkpt>
      <trkpt lat="49.76908" lon="4.83071">
        <ele>265</ele>
        <time>2021-03-30T13:34:20.000Z</time>
      </trkpt>
      <trkpt lat="49.76906" lon="4.83065">
        <ele>265</ele>
        <time>2021-03-30T13:34:21.000Z</time>
      </trkpt>
      <trkpt lat="49.76903" lon="4.83059">
        <ele>264</ele>
        <time>2021-03-30T13:34:22.000Z</time>
      </trkpt>
      <trkpt lat="49.769" lon="4.83053">
        <ele>264</ele>
        <time>2021-03-30T13:34:23.000Z</time>
      </trkpt>
      <trkpt lat="49.76898" lon="4.83047">
        <ele>264</ele>
        <time>2021-03-30T13:34:24.000Z</time>
      </trkpt>
      <trkpt lat="49.76895" lon="4.83041">
        <ele>264</ele>
        <time>2021-03-30T13:34:25.000Z</time>
      </trkpt>
      <trkpt lat="49.76892" lon="4.83035">
        <ele>264</ele>
        <time>2021-03-30T13:34:26.000Z</time>
      </trkpt>
      <trkpt lat="49.76889" lon="4.83029">
        <ele>264</ele>
        <time>2021-03-30T13:34:27.000Z</time>
      </trkpt>
      <trkpt lat="49.76886" lon="4.83022">
        <ele>264</ele>
        <time>2021-03-30T13:34:28.000Z</time>
      </trkpt>
      <trkpt lat="49.76883" lon="4.83015">
        <ele>264</ele>
        <time>2021-03-30T13:34:29.000Z</time>
      </trkpt>
      <trkpt lat="49.7688" lon="4.83008">
        <ele>263</ele>
        <time>2021-03-30T13:34:30.000Z</time>
      </trkpt>
      <trkpt lat="49.76877" lon="4.83002">
        <ele>263</ele>
        <time>2021-03-30T13:34:31.000Z</time>
      </trkpt>
      <trkpt lat="49.76874" lon="4.82994">
        <ele>263</ele>
        <time>2021-03-30T13:34:32.000Z</time>
      </trkpt>
      <trkpt lat="49.76871" lon="4.82987">
        <ele>263</ele>
        <time>2021-03-30T13:34:33.000Z</time>
      </trkpt>
      <trkpt lat="49.76868" lon="4.8298">
        <ele>263</ele>
        <time>2021-03-30T13:34:34.000Z</time>
      </trkpt>
      <trkpt lat="49.76865" lon="4.82973">
        <ele>262</ele>
        <time>2021-03-30T13:34:35.000Z</time>
      </trkpt>
      <trkpt lat="49.76862" lon="4.82966">
        <ele>262</ele>
        <time>2021-03-30T13:34:36.000Z</time>
      </trkpt>
      <trkpt lat="49.7686" lon="4.82959">
        <ele>262</ele>
        <time>2021-03-30T13:34:37.000Z</time>
      </trkpt>
      <trkpt lat="49.76857" lon="4.82952">
        <ele>262</ele>
        <time>2021-03-30T13:34:38.000Z</time>
      </trkpt>
      <trkpt lat="49.76854" lon="4.82945">
        <ele>262</ele>
        <time>2021-03-30T13:34:39.000Z</time>
      </trkpt>
      <trkpt lat="49.76851" lon="4.82937">
        <ele>262</ele>
        <time>2021-03-30T13:34:40.000Z</time>
      </trkpt>
      <trkpt lat="49.76848" lon="4.8293">
        <ele>262</ele>
        <time>2021-03-30T13:34:41.000Z</time>
      </trkpt>
      <trkpt lat="49.76845" lon="4.82922">
        <ele>261</ele>
        <time>2021-03-30T13:34:42.000Z</time>
      </trkpt>
      <trkpt lat="49.76841" lon="4.82915">
        <ele>261</ele>
        <time>2021-03-30T13:34:43.000Z</time>
      </trkpt>
      <trkpt lat="49.76838" lon="4.82907">
        <ele>261</ele>
        <time>2021-03-30T13:34:44.000Z</time>
      </trkpt>
      <trkpt lat="49.76834" lon="4.82899">
        <ele>261</ele>
        <time>2021-03-30T13:34:45.000Z</time>
      </trkpt>
      <trkpt lat="49.76831" lon="4.82892">
        <ele>261</ele>
        <time>2021-03-30T13:34:46.000Z</time>
      </trkpt>
      <trkpt lat="49.76827" lon="4.82884">
        <ele>261</ele>
        <time>2021-03-30T13:34:47.000Z</time>
      </trkpt>
      <trkpt lat="49.76824" lon="4.82876">
        <ele>260</ele>
        <time>2021-03-30T13:34:48.000Z</time>
      </trkpt>
      <trkpt lat="49.7682" lon="4.82868">
        <ele>260</ele>
        <time>2021-03-30T13:34:49.000Z</time>
      </trkpt>
      <trkpt lat="49.76816" lon="4.8286">
        <ele>260</ele>
        <time>2021-03-30T13:34:50.000Z</time>
      </trkpt>
      <trkpt lat="49.76812" lon="4.82853">
        <ele>260</ele>
        <time>2021-03-30T13:34:51.000Z</time>
      </trkpt>
      <trkpt lat="49.76808" lon="4.82845">
        <ele>260</ele>
        <time>2021-03-30T13:34:52.000Z</time>
      </trkpt>
      <trkpt lat="49.76804" lon="4.82837">
        <ele>259</ele>
        <time>2021-03-30T13:34:53.000Z</time>
      </trkpt>
      <trkpt lat="49.768" lon="4.82828">
        <ele>259</ele>
        <time>2021-03-30T13:34:54.000Z</time>
      </trkpt>
      <trkpt lat="49.76796" lon="4.8282">
        <ele>259</ele>
        <time>2021-03-30T13:34:55.000Z</time>
      </trkpt>
      <trkpt lat="49.76791" lon="4.82811">
        <ele>259</ele>
        <time>2021-03-30T13:34:56.000Z</time>
      </trkpt>
      <trkpt lat="49.76787" lon="4.82802">
        <ele>258</ele>
        <time>2021-03-30T13:34:57.000Z</time>
      </trkpt>
      <trkpt lat="49.76782" lon="4.82793">
        <ele>258</ele>
        <time>2021-03-30T13:34:58.000Z</time>
      </trkpt>
      <trkpt lat="49.76778" lon="4.82784">
        <ele>258</ele>
        <time>2021-03-30T13:34:59.000Z</time>
      </trkpt>
      <trkpt lat="49.76774" lon="4.82775">
        <ele>257</ele>
        <time>2021-03-30T13:35:00.000Z</time>
      </trkpt>
      <trkpt lat="49.7677" lon="4.82766">
        <ele>257</ele>
        <time>2021-03-30T13:35:01.000Z</time>
      </trkpt>
      <trkpt lat="49.76766" lon="4.82756">
        <ele>257</ele>
        <time>2021-03-30T13:35:02.000Z</time>
      </trkpt>
      <trkpt lat="49.76761" lon="4.82746">
        <ele>256</ele>
        <time>2021-03-30T13:35:03.000Z</time>
      </trkpt>
      <trkpt lat="49.76757" lon="4.82736">
        <ele>256</ele>
        <time>2021-03-30T13:35:04.000Z</time>
      </trkpt>
      <trkpt lat="49.76752" lon="4.82726">
        <ele>255</ele>
        <time>2021-03-30T13:35:05.000Z</time>
      </trkpt>
      <trkpt lat="49.76748" lon="4.82716">
        <ele>255</ele>
        <time>2021-03-30T13:35:06.000Z</time>
      </trkpt>
      <trkpt lat="49.76743" lon="4.82705">
        <ele>255</ele>
        <time>2021-03-30T13:35:07.000Z</time>
      </trkpt>
      <trkpt lat="49.76739" lon="4.82695">
        <ele>254</ele>
        <time>2021-03-30T13:35:08.000Z</time>
      </trkpt>
      <trkpt lat="49.76734" lon="4.82684">
        <ele>254</ele>
        <time>2021-03-30T13:35:09.000Z</time>
      </trkpt>
      <trkpt lat="49.76731" lon="4.82673">
        <ele>254</ele>
        <time>2021-03-30T13:35:10.000Z</time>
      </trkpt>
      <trkpt lat="49.76727" lon="4.82661">
        <ele>254</ele>
        <time>2021-03-30T13:35:11.000Z</time>
      </trkpt>
      <trkpt lat="49.76724" lon="4.8265">
        <ele>254</ele>
        <time>2021-03-30T13:35:12.000Z</time>
      </trkpt>
      <trkpt lat="49.76721" lon="4.82639">
        <ele>253</ele>
        <time>2021-03-30T13:35:13.000Z</time>
      </trkpt>
      <trkpt lat="49.76718" lon="4.82628">
        <ele>253</ele>
        <time>2021-03-30T13:35:14.000Z</time>
      </trkpt>
      <trkpt lat="49.76715" lon="4.82617">
        <ele>253</ele>
        <time>2021-03-30T13:35:15.000Z</time>
      </trkpt>
      <trkpt lat="49.76712" lon="4.82606">
        <ele>253</ele>
        <time>2021-03-30T13:35:16.000Z</time>
      </trkpt>
      <trkpt lat="49.7671" lon="4.82595">
        <ele>253</ele>
        <time>2021-03-30T13:35:17.000Z</time>
      </trkpt>
      <trkpt lat="49.76707" lon="4.82585">
        <ele>253</ele>
        <time>2021-03-30T13:35:18.000Z</time>
      </trkpt>
      <trkpt lat="49.76704" lon="4.82575">
        <ele>252</ele>
        <time>2021-03-30T13:35:19.000Z</time>
      </trkpt>
      <trkpt lat="49.76702" lon="4.82564">
        <ele>252</ele>
        <time>2021-03-30T13:35:20.000Z</time>
      </trkpt>
      <trkpt lat="49.767" lon="4.82554">
        <ele>252</ele>
        <time>2021-03-30T13:35:21.000Z</time>
      </trkpt>
      <trkpt lat="49.76698" lon="4.82544">
        <ele>252</ele>
        <time>2021-03-30T13:35:22.000Z</time>
      </trkpt>
      <trkpt lat="49.76696" lon="4.82534">
        <ele>252</ele>
        <time>2021-03-30T13:35:23.000Z</time>
      </trkpt>
      <trkpt lat="49.76693" lon="4.82525">
        <ele>252</ele>
        <time>2021-03-30T13:35:24.000Z</time>
      </trkpt>
      <trkpt lat="49.76691" lon="4.82515">
        <ele>252</ele>
        <time>2021-03-30T13:35:25.000Z</time>
      </trkpt>
      <trkpt lat="49.76688" lon="4.82505">
        <ele>252</ele>
        <time>2021-03-30T13:35:26.000Z</time>
      </trkpt>
      <trkpt lat="49.76685" lon="4.82495">
        <ele>252</ele>
        <time>2021-03-30T13:35:27.000Z</time>
      </trkpt>
      <trkpt lat="49.76682" lon="4.82485">
        <ele>252</ele>
        <time>2021-03-30T13:35:28.000Z</time>
      </trkpt>
      <trkpt lat="49.76679" lon="4.82476">
        <ele>252</ele>
        <time>2021-03-30T13:35:29.000Z</time>
      </trkpt>
      <trkpt lat="49.76676" lon="4.82466">
        <ele>251</ele>
        <time>2021-03-30T13:35:30.000Z</time>
      </trkpt>
      <trkpt lat="49.76674" lon="4.82456">
        <ele>251</ele>
        <time>2021-03-30T13:35:31.000Z</time>
      </trkpt>
      <trkpt lat="49.76671" lon="4.82446">
        <ele>251</ele>
        <time>2021-03-30T13:35:32.000Z</time>
      </trkpt>
      <trkpt lat="49.76668" lon="4.82436">
        <ele>251</ele>
        <time>2021-03-30T13:35:33.000Z</time>
      </trkpt>
      <trkpt lat="49.76665" lon="4.82425">
        <ele>251</ele>
        <time>2021-03-30T13:35:34.000Z</time>
      </trkpt>
      <trkpt lat="49.76662" lon="4.82415">
        <ele>251</ele>
        <time>2021-03-30T13:35:35.000Z</time>
      </trkpt>
      <trkpt lat="49.7666" lon="4.82404">
        <ele>251</ele>
        <time>2021-03-30T13:35:36.000Z</time>
      </trkpt>
      <trkpt lat="49.76658" lon="4.82393">
        <ele>250</ele>
        <time>2021-03-30T13:35:37.000Z</time>
      </trkpt>
      <trkpt lat="49.76657" lon="4.82382">
        <ele>250</ele>
        <time>2021-03-30T13:35:38.000Z</time>
      </trkpt>
      <trkpt lat="49.76655" lon="4.8237">
        <ele>250</ele>
        <time>2021-03-30T13:35:39.000Z</time>
      </trkpt>
      <trkpt lat="49.76654" lon="4.82359">
        <ele>250</ele>
        <time>2021-03-30T13:35:40.000Z</time>
      </trkpt>
      <trkpt lat="49.76653" lon="4.82347">
        <ele>250</ele>
        <time>2021-03-30T13:35:41.000Z</time>
      </trkpt>
      <trkpt lat="49.76653" lon="4.82335">
        <ele>250</ele>
        <time>2021-03-30T13:35:42.000Z</time>
      </trkpt>
      <trkpt lat="49.76652" lon="4.82323">
        <ele>249</ele>
        <time>2021-03-30T13:35:43.000Z</time>
      </trkpt>
      <trkpt lat="49.76652" lon="4.82311">
        <ele>249</ele>
        <time>2021-03-30T13:35:44.000Z</time>
      </trkpt>
      <trkpt lat="49.76652" lon="4.823">
        <ele>249</ele>
        <time>2021-03-30T13:35:45.000Z</time>
      </trkpt>
      <trkpt lat="49.76652" lon="4.82288">
        <ele>249</ele>
        <time>2021-03-30T13:35:46.000Z</time>
      </trkpt>
      <trkpt lat="49.76651" lon="4.82276">
        <ele>249</ele>
        <time>2021-03-30T13:35:47.000Z</time>
      </trkpt>
      <trkpt lat="49.7665" lon="4.82264">
        <ele>249</ele>
        <time>2021-03-30T13:35:48.000Z</time>
      </trkpt>
      <trkpt lat="49.76648" lon="4.82252">
        <ele>249</ele>
        <time>2021-03-30T13:35:49.000Z</time>
      </trkpt>
      <trkpt lat="49.76645" lon="4.82241">
        <ele>249</ele>
        <time>2021-03-30T13:35:50.000Z</time>
      </trkpt>
      <trkpt lat="49.76643" lon="4.8223">
        <ele>249</ele>
        <time>2021-03-30T13:35:51.000Z</time>
      </trkpt>
      <trkpt lat="49.7664" lon="4.82219">
        <ele>249</ele>
        <time>2021-03-30T13:35:52.000Z</time>
      </trkpt>
      <trkpt lat="49.76638" lon="4.82208">
        <ele>249</ele>
        <time>2021-03-30T13:35:53.000Z</time>
      </trkpt>
      <trkpt lat="49.76635" lon="4.82197">
        <ele>249</ele>
        <time>2021-03-30T13:35:54.000Z</time>
      </trkpt>
      <trkpt lat="49.76633" lon="4.82186">
        <ele>249</ele>
        <time>2021-03-30T13:35:55.000Z</time>
      </trkpt>
      <trkpt lat="49.76631" lon="4.82176">
        <ele>249</ele>
        <time>2021-03-30T13:35:56.000Z</time>
      </trkpt>
      <trkpt lat="49.76629" lon="4.82165">
        <ele>249</ele>
        <time>2021-03-30T13:35:57.000Z</time>
      </trkpt>
      <trkpt lat="49.76627" lon="4.82155">
        <ele>249</ele>
        <time>2021-03-30T13:35:58.000Z</time>
      </trkpt>
      <trkpt lat="49.76624" lon="4.82145">
        <ele>249</ele>
        <time>2021-03-30T13:35:59.000Z</time>
      </trkpt>
      <trkpt lat="49.76621" lon="4.82135">
        <ele>249</ele>
        <time>2021-03-30T13:36:00.000Z</time>
      </trkpt>
      <trkpt lat="49.76618" lon="4.82125">
        <ele>249</ele>
        <time>2021-03-30T13:36:01.000Z</time>
      </trkpt>
      <trkpt lat="49.76616" lon="4.82116">
        <ele>250</ele>
        <time>2021-03-30T13:36:02.000Z</time>
      </trkpt>
      <trkpt lat="49.76613" lon="4.82107">
        <ele>250</ele>
        <time>2021-03-30T13:36:03.000Z</time>
      </trkpt>
      <trkpt lat="49.7661" lon="4.82098">
        <ele>250</ele>
        <time>2021-03-30T13:36:04.000Z</time>
      </trkpt>
      <trkpt lat="49.76608" lon="4.82089">
        <ele>250</ele>
        <time>2021-03-30T13:36:05.000Z</time>
      </trkpt>
      <trkpt lat="49.76606" lon="4.82081">
        <ele>250</ele>
        <time>2021-03-30T13:36:06.000Z</time>
      </trkpt>
      <trkpt lat="49.76604" lon="4.82073">
        <ele>250</ele>
        <time>2021-03-30T13:36:07.000Z</time>
      </trkpt>
      <trkpt lat="49.76601" lon="4.82064">
        <ele>250</ele>
        <time>2021-03-30T13:36:08.000Z</time>
      </trkpt>
      <trkpt lat="49.76599" lon="4.82056">
        <ele>250</ele>
        <time>2021-03-30T13:36:09.000Z</time>
      </trkpt>
      <trkpt lat="49.76598" lon="4.82048">
        <ele>250</ele>
        <time>2021-03-30T13:36:10.000Z</time>
      </trkpt>
      <trkpt lat="49.76597" lon="4.8204">
        <ele>250</ele>
        <time>2021-03-30T13:36:11.000Z</time>
      </trkpt>
      <trkpt lat="49.76595" lon="4.82031">
        <ele>249</ele>
        <time>2021-03-30T13:36:12.000Z</time>
      </trkpt>
      <trkpt lat="49.76594" lon="4.82022">
        <ele>249</ele>
        <time>2021-03-30T13:36:13.000Z</time>
      </trkpt>
      <trkpt lat="49.76593" lon="4.82014">
        <ele>249</ele>
        <time>2021-03-30T13:36:14.000Z</time>
      </trkpt>
      <trkpt lat="49.76592" lon="4.82008">
        <ele>249</ele>
        <time>2021-03-30T13:36:15.000Z</time>
      </trkpt>
      <trkpt lat="49.76591" lon="4.82005">
        <ele>249</ele>
        <time>2021-03-30T13:36:16.000Z</time>
      </trkpt>
      <trkpt lat="49.76591" lon="4.82003">
        <ele>249</ele>
        <time>2021-03-30T13:36:17.000Z</time>
      </trkpt>
      <trkpt lat="49.76591" lon="4.82001">
        <ele>249</ele>
        <time>2021-03-30T13:36:18.000Z</time>
      </trkpt>
      <trkpt lat="49.7659" lon="4.81998">
        <ele>249</ele>
        <time>2021-03-30T13:36:19.000Z</time>
      </trkpt>
      <trkpt lat="49.76589" lon="4.81996">
        <ele>249</ele>
        <time>2021-03-30T13:36:20.000Z</time>
      </trkpt>
      <trkpt lat="49.76587" lon="4.81995">
        <ele>249</ele>
        <time>2021-03-30T13:36:21.000Z</time>
      </trkpt>
      <trkpt lat="49.76585" lon="4.81996">
        <ele>249</ele>
        <time>2021-03-30T13:36:22.000Z</time>
      </trkpt>
      <trkpt lat="49.76582" lon="4.81998">
        <ele>249</ele>
        <time>2021-03-30T13:36:23.000Z</time>
      </trkpt>
      <trkpt lat="49.76579" lon="4.82001">
        <ele>249</ele>
        <time>2021-03-30T13:36:24.000Z</time>
      </trkpt>
      <trkpt lat="49.76576" lon="4.82003">
        <ele>249</ele>
        <time>2021-03-30T13:36:25.000Z</time>
      </trkpt>
      <trkpt lat="49.76572" lon="4.82006">
        <ele>249</ele>
        <time>2021-03-30T13:36:26.000Z</time>
      </trkpt>
      <trkpt lat="49.76569" lon="4.82009">
        <ele>249</ele>
        <time>2021-03-30T13:36:27.000Z</time>
      </trkpt>
      <trkpt lat="49.76566" lon="4.82013">
        <ele>249</ele>
        <time>2021-03-30T13:36:28.000Z</time>
      </trkpt>
      <trkpt lat="49.76562" lon="4.82016">
        <ele>249</ele>
        <time>2021-03-30T13:36:29.000Z</time>
      </trkpt>
      <trkpt lat="49.76559" lon="4.8202">
        <ele>249</ele>
        <time>2021-03-30T13:36:30.000Z</time>
      </trkpt>
      <trkpt lat="49.76555" lon="4.82024">
        <ele>249</ele>
        <time>2021-03-30T13:36:31.000Z</time>
      </trkpt>
      <trkpt lat="49.76551" lon="4.82027">
        <ele>249</ele>
        <time>2021-03-30T13:36:32.000Z</time>
      </trkpt>
      <trkpt lat="49.76547" lon="4.82027">
        <ele>249</ele>
        <time>2021-03-30T13:36:33.000Z</time>
      </trkpt>
      <trkpt lat="49.76543" lon="4.82025">
        <ele>249</ele>
        <time>2021-03-30T13:36:34.000Z</time>
      </trkpt>
      <trkpt lat="49.7654" lon="4.82021">
        <ele>249</ele>
        <time>2021-03-30T13:36:35.000Z</time>
      </trkpt>
      <trkpt lat="49.76537" lon="4.82016">
        <ele>249</ele>
        <time>2021-03-30T13:36:36.000Z</time>
      </trkpt>
      <trkpt lat="49.76534" lon="4.8201">
        <ele>249</ele>
        <time>2021-03-30T13:36:37.000Z</time>
      </trkpt>
      <trkpt lat="49.76532" lon="4.82003">
        <ele>249</ele>
        <time>2021-03-30T13:36:38.000Z</time>
      </trkpt>
      <trkpt lat="49.76529" lon="4.81997">
        <ele>249</ele>
        <time>2021-03-30T13:36:39.000Z</time>
      </trkpt>
      <trkpt lat="49.76527" lon="4.8199">
        <ele>249</ele>
        <time>2021-03-30T13:36:40.000Z</time>
      </trkpt>
      <trkpt lat="49.76525" lon="4.81984">
        <ele>249</ele>
        <time>2021-03-30T13:36:41.000Z</time>
      </trkpt>
      <trkpt lat="49.76523" lon="4.81977">
        <ele>249</ele>
        <time>2021-03-30T13:36:42.000Z</time>
      </trkpt>
      <trkpt lat="49.76521" lon="4.81971">
        <ele>249</ele>
        <time>2021-03-30T13:36:43.000Z</time>
      </trkpt>
      <trkpt lat="49.76519" lon="4.81964">
        <ele>249</ele>
        <time>2021-03-30T13:36:44.000Z</time>
      </trkpt>
      <trkpt lat="49.76517" lon="4.81958">
        <ele>249</ele>
        <time>2021-03-30T13:36:45.000Z</time>
      </trkpt>
      <trkpt lat="49.76515" lon="4.8195">
        <ele>249</ele>
        <time>2021-03-30T13:36:46.000Z</time>
      </trkpt>
      <trkpt lat="49.76513" lon="4.81944">
        <ele>249</ele>
        <time>2021-03-30T13:36:47.000Z</time>
      </trkpt>
      <trkpt lat="49.76511" lon="4.81938">
        <ele>249</ele>
        <time>2021-03-30T13:36:48.000Z</time>
      </trkpt>
      <trkpt lat="49.76509" lon="4.81931">
        <ele>249</ele>
        <time>2021-03-30T13:36:49.000Z</time>
      </trkpt>
      <trkpt lat="49.76508" lon="4.81924">
        <ele>249</ele>
        <time>2021-03-30T13:36:50.000Z</time>
      </trkpt>
      <trkpt lat="49.76506" lon="4.81917">
        <ele>249</ele>
        <time>2021-03-30T13:36:51.000Z</time>
      </trkpt>
      <trkpt lat="49.76504" lon="4.81911">
        <ele>249</ele>
        <time>2021-03-30T13:36:52.000Z</time>
      </trkpt>
      <trkpt lat="49.76502" lon="4.81904">
        <ele>249</ele>
        <time>2021-03-30T13:36:53.000Z</time>
      </trkpt>
      <trkpt lat="49.765" lon="4.81897">
        <ele>250</ele>
        <time>2021-03-30T13:36:54.000Z</time>
      </trkpt>
      <trkpt lat="49.76499" lon="4.81891">
        <ele>250</ele>
        <time>2021-03-30T13:36:55.000Z</time>
      </trkpt>
      <trkpt lat="49.76497" lon="4.81884">
        <ele>250</ele>
        <time>2021-03-30T13:36:56.000Z</time>
      </trkpt>
      <trkpt lat="49.76496" lon="4.81877">
        <ele>250</ele>
        <time>2021-03-30T13:36:57.000Z</time>
      </trkpt>
      <trkpt lat="49.76494" lon="4.81871">
        <ele>250</ele>
        <time>2021-03-30T13:36:58.000Z</time>
      </trkpt>
      <trkpt lat="49.76493" lon="4.81864">
        <ele>250</ele>
        <time>2021-03-30T13:36:59.000Z</time>
      </trkpt>
      <trkpt lat="49.76491" lon="4.81857">
        <ele>251</ele>
        <time>2021-03-30T13:37:00.000Z</time>
      </trkpt>
      <trkpt lat="49.76489" lon="4.8185">
        <ele>251</ele>
        <time>2021-03-30T13:37:01.000Z</time>
      </trkpt>
      <trkpt lat="49.76488" lon="4.81844">
        <ele>251</ele>
        <time>2021-03-30T13:37:02.000Z</time>
      </trkpt>
      <trkpt lat="49.76487" lon="4.81837">
        <ele>251</ele>
        <time>2021-03-30T13:37:03.000Z</time>
      </trkpt>
      <trkpt lat="49.76485" lon="4.81831">
        <ele>251</ele>
        <time>2021-03-30T13:37:04.000Z</time>
      </trkpt>
      <trkpt lat="49.76484" lon="4.81824">
        <ele>251</ele>
        <time>2021-03-30T13:37:05.000Z</time>
      </trkpt>
      <trkpt lat="49.76483" lon="4.81817">
        <ele>251</ele>
        <time>2021-03-30T13:37:06.000Z</time>
      </trkpt>
      <trkpt lat="49.76481" lon="4.81811">
        <ele>252</ele>
        <time>2021-03-30T13:37:07.000Z</time>
      </trkpt>
      <trkpt lat="49.76479" lon="4.81804">
        <ele>252</ele>
        <time>2021-03-30T13:37:08.000Z</time>
      </trkpt>
      <trkpt lat="49.76477" lon="4.81798">
        <ele>252</ele>
        <time>2021-03-30T13:37:09.000Z</time>
      </trkpt>
      <trkpt lat="49.76476" lon="4.81791">
        <ele>252</ele>
        <time>2021-03-30T13:37:10.000Z</time>
      </trkpt>
      <trkpt lat="49.76474" lon="4.81785">
        <ele>252</ele>
        <time>2021-03-30T13:37:11.000Z</time>
      </trkpt>
      <trkpt lat="49.76473" lon="4.81779">
        <ele>253</ele>
        <time>2021-03-30T13:37:12.000Z</time>
      </trkpt>
      <trkpt lat="49.76472" lon="4.81773">
        <ele>253</ele>
        <time>2021-03-30T13:37:13.000Z</time>
      </trkpt>
      <trkpt lat="49.7647" lon="4.81768">
        <ele>253</ele>
        <time>2021-03-30T13:37:14.000Z</time>
      </trkpt>
      <trkpt lat="49.76469" lon="4.81763">
        <ele>253</ele>
        <time>2021-03-30T13:37:15.000Z</time>
      </trkpt>
      <trkpt lat="49.76467" lon="4.81757">
        <ele>253</ele>
        <time>2021-03-30T13:37:16.000Z</time>
      </trkpt>
      <trkpt lat="49.76466" lon="4.81752">
        <ele>254</ele>
        <time>2021-03-30T13:37:17.000Z</time>
      </trkpt>
      <trkpt lat="49.76465" lon="4.81747">
        <ele>254</ele>
        <time>2021-03-30T13:37:18.000Z</time>
      </trkpt>
      <trkpt lat="49.76463" lon="4.81742">
        <ele>254</ele>
        <time>2021-03-30T13:37:19.000Z</time>
      </trkpt>
      <trkpt lat="49.76462" lon="4.81737">
        <ele>254</ele>
        <time>2021-03-30T13:37:20.000Z</time>
      </trkpt>
      <trkpt lat="49.76461" lon="4.81732">
        <ele>254</ele>
        <time>2021-03-30T13:37:21.000Z</time>
      </trkpt>
      <trkpt lat="49.76459" lon="4.81727">
        <ele>254</ele>
        <time>2021-03-30T13:37:22.000Z</time>
      </trkpt>
      <trkpt lat="49.76457" lon="4.81722">
        <ele>254</ele>
        <time>2021-03-30T13:37:23.000Z</time>
      </trkpt>
      <trkpt lat="49.76456" lon="4.81717">
        <ele>254</ele>
        <time>2021-03-30T13:37:24.000Z</time>
      </trkpt>
      <trkpt lat="49.76455" lon="4.81712">
        <ele>255</ele>
        <time>2021-03-30T13:37:25.000Z</time>
      </trkpt>
      <trkpt lat="49.76454" lon="4.81707">
        <ele>255</ele>
        <time>2021-03-30T13:37:26.000Z</time>
      </trkpt>
      <trkpt lat="49.76452" lon="4.81703">
        <ele>255</ele>
        <time>2021-03-30T13:37:27.000Z</time>
      </trkpt>
      <trkpt lat="49.7645" lon="4.81698">
        <ele>255</ele>
        <time>2021-03-30T13:37:28.000Z</time>
      </trkpt>
      <trkpt lat="49.76449" lon="4.81694">
        <ele>255</ele>
        <time>2021-03-30T13:37:29.000Z</time>
      </trkpt>
      <trkpt lat="49.76447" lon="4.81689">
        <ele>255</ele>
        <time>2021-03-30T13:37:30.000Z</time>
      </trkpt>
      <trkpt lat="49.76446" lon="4.81684">
        <ele>255</ele>
        <time>2021-03-30T13:37:31.000Z</time>
      </trkpt>
      <trkpt lat="49.76445" lon="4.81679">
        <ele>255</ele>
        <time>2021-03-30T13:37:32.000Z</time>
      </trkpt>
      <trkpt lat="49.76444" lon="4.81675">
        <ele>255</ele>
        <time>2021-03-30T13:37:33.000Z</time>
      </trkpt>
      <trkpt lat="49.76443" lon="4.8167">
        <ele>256</ele>
        <time>2021-03-30T13:37:34.000Z</time>
      </trkpt>
      <trkpt lat="49.76441" lon="4.81665">
        <ele>256</ele>
        <time>2021-03-30T13:37:35.000Z</time>
      </trkpt>
      <trkpt lat="49.7644" lon="4.81661">
        <ele>256</ele>
        <time>2021-03-30T13:37:36.000Z</time>
      </trkpt>
      <trkpt lat="49.76439" lon="4.81657">
        <ele>256</ele>
        <time>2021-03-30T13:37:37.000Z</time>
      </trkpt>
      <trkpt lat="49.76438" lon="4.81653">
        <ele>256</ele>
        <time>2021-03-30T13:37:38.000Z</time>
      </trkpt>
      <trkpt lat="49.76437" lon="4.81649">
        <ele>256</ele>
        <time>2021-03-30T13:37:39.000Z</time>
      </trkpt>
      <trkpt lat="49.76436" lon="4.81645">
        <ele>257</ele>
        <time>2021-03-30T13:37:40.000Z</time>
      </trkpt>
      <trkpt lat="49.76435" lon="4.81641">
        <ele>257</ele>
        <time>2021-03-30T13:37:41.000Z</time>
      </trkpt>
      <trkpt lat="49.76434" lon="4.81637">
        <ele>257</ele>
        <time>2021-03-30T13:37:42.000Z</time>
      </trkpt>
      <trkpt lat="49.76433" lon="4.81633">
        <ele>257</ele>
        <time>2021-03-30T13:37:43.000Z</time>
      </trkpt>
      <trkpt lat="49.76432" lon="4.81629">
        <ele>258</ele>
        <time>2021-03-30T13:37:44.000Z</time>
      </trkpt>
      <trkpt lat="49.76432" lon="4.81625">
        <ele>258</ele>
        <time>2021-03-30T13:37:45.000Z</time>
      </trkpt>
      <trkpt lat="49.76431" lon="4.81621">
        <ele>258</ele>
        <time>2021-03-30T13:37:46.000Z</time>
      </trkpt>
      <trkpt lat="49.7643" lon="4.81617">
        <ele>259</ele>
        <time>2021-03-30T13:37:47.000Z</time>
      </trkpt>
      <trkpt lat="49.7643" lon="4.81614">
        <ele>259</ele>
        <time>2021-03-30T13:37:48.000Z</time>
      </trkpt>
      <trkpt lat="49.76429" lon="4.8161">
        <ele>259</ele>
        <time>2021-03-30T13:37:49.000Z</time>
      </trkpt>
      <trkpt lat="49.76428" lon="4.81608">
        <ele>259</ele>
        <time>2021-03-30T13:37:50.000Z</time>
      </trkpt>
      <trkpt lat="49.76428" lon="4.81605">
        <ele>259</ele>
        <time>2021-03-30T13:37:51.000Z</time>
      </trkpt>
      <trkpt lat="49.76427" lon="4.81603">
        <ele>260</ele>
        <time>2021-03-30T13:37:52.000Z</time>
      </trkpt>
      <trkpt lat="49.76426" lon="4.816">
        <ele>260</ele>
        <time>2021-03-30T13:37:53.000Z</time>
      </trkpt>
      <trkpt lat="49.76426" lon="4.81598">
        <ele>260</ele>
        <time>2021-03-30T13:37:54.000Z</time>
      </trkpt>
      <trkpt lat="49.76425" lon="4.81595">
        <ele>260</ele>
        <time>2021-03-30T13:37:55.000Z</time>
      </trkpt>
      <trkpt lat="49.76425" lon="4.81592">
        <ele>260</ele>
        <time>2021-03-30T13:37:56.000Z</time>
      </trkpt>
      <trkpt lat="49.76425" lon="4.81588">
        <ele>260</ele>
        <time>2021-03-30T13:37:57.000Z</time>
      </trkpt>
      <trkpt lat="49.76425" lon="4.81585">
        <ele>260</ele>
        <time>2021-03-30T13:37:58.000Z</time>
      </trkpt>
      <trkpt lat="49.76425" lon="4.81583">
        <ele>260</ele>
        <time>2021-03-30T13:37:59.000Z</time>
      </trkpt>
      <trkpt lat="49.76424" lon="4.8158">
        <ele>261</ele>
        <time>2021-03-30T13:38:00.000Z</time>
      </trkpt>
      <trkpt lat="49.76423" lon="4.81576">
        <ele>261</ele>
        <time>2021-03-30T13:38:01.000Z</time>
      </trkpt>
      <trkpt lat="49.76422" lon="4.81573">
        <ele>261</ele>
        <time>2021-03-30T13:38:02.000Z</time>
      </trkpt>
      <trkpt lat="49.76421" lon="4.8157">
        <ele>262</ele>
        <time>2021-03-30T13:38:03.000Z</time>
      </trkpt>
      <trkpt lat="49.7642" lon="4.81567">
        <ele>262</ele>
        <time>2021-03-30T13:38:04.000Z</time>
      </trkpt>
      <trkpt lat="49.76419" lon="4.81564">
        <ele>262</ele>
        <time>2021-03-30T13:38:05.000Z</time>
      </trkpt>
      <trkpt lat="49.76418" lon="4.81561">
        <ele>263</ele>
        <time>2021-03-30T13:38:06.000Z</time>
      </trkpt>
      <trkpt lat="49.76416" lon="4.81558">
        <ele>263</ele>
        <time>2021-03-30T13:38:07.000Z</time>
      </trkpt>
      <trkpt lat="49.76414" lon="4.81556">
        <ele>263</ele>
        <time>2021-03-30T13:38:08.000Z</time>
      </trkpt>
      <trkpt lat="49.76413" lon="4.81553">
        <ele>264</ele>
        <time>2021-03-30T13:38:09.000Z</time>
      </trkpt>
      <trkpt lat="49.76411" lon="4.8155">
        <ele>264</ele>
        <time>2021-03-30T13:38:10.000Z</time>
      </trkpt>
      <trkpt lat="49.7641" lon="4.81548">
        <ele>265</ele>
        <time>2021-03-30T13:38:11.000Z</time>
      </trkpt>
      <trkpt lat="49.76408" lon="4.81546">
        <ele>265</ele>
        <time>2021-03-30T13:38:12.000Z</time>
      </trkpt>
      <trkpt lat="49.76407" lon="4.81544">
        <ele>265</ele>
        <time>2021-03-30T13:38:13.000Z</time>
      </trkpt>
      <trkpt lat="49.76406" lon="4.81541">
        <ele>265</ele>
        <time>2021-03-30T13:38:14.000Z</time>
      </trkpt>
      <trkpt lat="49.76405" lon="4.81538">
        <ele>266</ele>
        <time>2021-03-30T13:38:15.000Z</time>
      </trkpt>
      <trkpt lat="49.76404" lon="4.81535">
        <ele>266</ele>
        <time>2021-03-30T13:38:16.000Z</time>
      </trkpt>
      <trkpt lat="49.76402" lon="4.81531">
        <ele>266</ele>
        <time>2021-03-30T13:38:17.000Z</time>
      </trkpt>
      <trkpt lat="49.76401" lon="4.81528">
        <ele>267</ele>
        <time>2021-03-30T13:38:18.000Z</time>
      </trkpt>
      <trkpt lat="49.764" lon="4.81525">
        <ele>267</ele>
        <time>2021-03-30T13:38:19.000Z</time>
      </trkpt>
      <trkpt lat="49.76399" lon="4.81522">
        <ele>267</ele>
        <time>2021-03-30T13:38:20.000Z</time>
      </trkpt>
      <trkpt lat="49.76397" lon="4.81519">
        <ele>267</ele>
        <time>2021-03-30T13:38:21.000Z</time>
      </trkpt>
      <trkpt lat="49.76396" lon="4.81516">
        <ele>268</ele>
        <time>2021-03-30T13:38:22.000Z</time>
      </trkpt>
      <trkpt lat="49.76395" lon="4.81513">
        <ele>268</ele>
        <time>2021-03-30T13:38:23.000Z</time>
      </trkpt>
      <trkpt lat="49.76393" lon="4.8151">
        <ele>268</ele>
        <time>2021-03-30T13:38:24.000Z</time>
      </trkpt>
      <trkpt lat="49.76392" lon="4.81506">
        <ele>269</ele>
        <time>2021-03-30T13:38:25.000Z</time>
      </trkpt>
      <trkpt lat="49.7639" lon="4.81503">
        <ele>269</ele>
        <time>2021-03-30T13:38:26.000Z</time>
      </trkpt>
      <trkpt lat="49.76389" lon="4.81499">
        <ele>270</ele>
        <time>2021-03-30T13:38:27.000Z</time>
      </trkpt>
      <trkpt lat="49.76387" lon="4.81496">
        <ele>270</ele>
        <time>2021-03-30T13:38:28.000Z</time>
      </trkpt>
      <trkpt lat="49.76385" lon="4.81492">
        <ele>270</ele>
        <time>2021-03-30T13:38:29.000Z</time>
      </trkpt>
      <trkpt lat="49.76383" lon="4.81489">
        <ele>271</ele>
        <time>2021-03-30T13:38:30.000Z</time>
      </trkpt>
      <trkpt lat="49.76381" lon="4.81486">
        <ele>271</ele>
        <time>2021-03-30T13:38:31.000Z</time>
      </trkpt>
      <trkpt lat="49.76379" lon="4.81483">
        <ele>271</ele>
        <time>2021-03-30T13:38:32.000Z</time>
      </trkpt>
      <trkpt lat="49.76376" lon="4.81479">
        <ele>271</ele>
        <time>2021-03-30T13:38:33.000Z</time>
      </trkpt>
      <trkpt lat="49.76374" lon="4.81477">
        <ele>272</ele>
        <time>2021-03-30T13:38:34.000Z</time>
      </trkpt>
      <trkpt lat="49.76371" lon="4.81475">
        <ele>272</ele>
        <time>2021-03-30T13:38:35.000Z</time>
      </trkpt>
      <trkpt lat="49.76368" lon="4.81474">
        <ele>272</ele>
        <time>2021-03-30T13:38:36.000Z</time>
      </trkpt>
      <trkpt lat="49.76366" lon="4.81472">
        <ele>272</ele>
        <time>2021-03-30T13:38:37.000Z</time>
      </trkpt>
      <trkpt lat="49.76363" lon="4.8147">
        <ele>272</ele>
        <time>2021-03-30T13:38:38.000Z</time>
      </trkpt>
      <trkpt lat="49.7636" lon="4.81468">
        <ele>273</ele>
        <time>2021-03-30T13:38:39.000Z</time>
      </trkpt>
      <trkpt lat="49.76357" lon="4.81467">
        <ele>273</ele>
        <time>2021-03-30T13:38:40.000Z</time>
      </trkpt>
      <trkpt lat="49.76354" lon="4.81465">
        <ele>273</ele>
        <time>2021-03-30T13:38:41.000Z</time>
      </trkpt>
      <trkpt lat="49.76352" lon="4.81465">
        <ele>273</ele>
        <time>2021-03-30T13:38:42.000Z</time>
      </trkpt>
      <trkpt lat="49.76349" lon="4.81464">
        <ele>273</ele>
        <time>2021-03-30T13:38:43.000Z</time>
      </trkpt>
      <trkpt lat="49.76348" lon="4.81464">
        <ele>273</ele>
        <time>2021-03-30T13:38:44.000Z</time>
      </trkpt>
      <trkpt lat="49.76347" lon="4.81463">
        <ele>273</ele>
        <time>2021-03-30T13:38:45.000Z</time>
      </trkpt>
      <trkpt lat="49.76345" lon="4.81463">
        <ele>273</ele>
        <time>2021-03-30T13:38:46.000Z</time>
      </trkpt>
      <trkpt lat="49.76342" lon="4.81461">
        <ele>273</ele>
        <time>2021-03-30T13:38:47.000Z</time>
      </trkpt>
      <trkpt lat="49.76338" lon="4.81461">
        <ele>273</ele>
        <time>2021-03-30T13:38:48.000Z</time>
      </trkpt>
      <trkpt lat="49.76335" lon="4.8146">
        <ele>273</ele>
        <time>2021-03-30T13:38:49.000Z</time>
      </trkpt>
      <trkpt lat="49.7633" lon="4.81459">
        <ele>273</ele>
        <time>2021-03-30T13:38:50.000Z</time>
      </trkpt>
      <trkpt lat="49.76326" lon="4.81458">
        <ele>273</ele>
        <time>2021-03-30T13:38:51.000Z</time>
      </trkpt>
      <trkpt lat="49.76321" lon="4.81458">
        <ele>273</ele>
        <time>2021-03-30T13:38:52.000Z</time>
      </trkpt>
      <trkpt lat="49.76316" lon="4.81458">
        <ele>273</ele>
        <time>2021-03-30T13:38:53.000Z</time>
      </trkpt>
      <trkpt lat="49.76311" lon="4.81457">
        <ele>273</ele>
        <time>2021-03-30T13:38:54.000Z</time>
      </trkpt>
      <trkpt lat="49.76305" lon="4.81457">
        <ele>273</ele>
        <time>2021-03-30T13:38:55.000Z</time>
      </trkpt>
      <trkpt lat="49.76299" lon="4.81457">
        <ele>273</ele>
        <time>2021-03-30T13:38:56.000Z</time>
      </trkpt>
      <trkpt lat="49.76293" lon="4.81456">
        <ele>273</ele>
        <time>2021-03-30T13:38:57.000Z</time>
      </trkpt>
      <trkpt lat="49.76286" lon="4.81455">
        <ele>273</ele>
        <time>2021-03-30T13:38:58.000Z</time>
      </trkpt>
      <trkpt lat="49.7628" lon="4.81453">
        <ele>272</ele>
        <time>2021-03-30T13:38:59.000Z</time>
      </trkpt>
      <trkpt lat="49.76273" lon="4.81451">
        <ele>272</ele>
        <time>2021-03-30T13:39:00.000Z</time>
      </trkpt>
      <trkpt lat="49.76265" lon="4.8145">
        <ele>272</ele>
        <time>2021-03-30T13:39:01.000Z</time>
      </trkpt>
      <trkpt lat="49.76257" lon="4.81449">
        <ele>272</ele>
        <time>2021-03-30T13:39:02.000Z</time>
      </trkpt>
      <trkpt lat="49.76249" lon="4.81448">
        <ele>272</ele>
        <time>2021-03-30T13:39:03.000Z</time>
      </trkpt>
      <trkpt lat="49.76241" lon="4.81447">
        <ele>272</ele>
        <time>2021-03-30T13:39:04.000Z</time>
      </trkpt>
      <trkpt lat="49.76233" lon="4.81446">
        <ele>272</ele>
        <time>2021-03-30T13:39:05.000Z</time>
      </trkpt>
      <trkpt lat="49.76225" lon="4.81446">
        <ele>271</ele>
        <time>2021-03-30T13:39:06.000Z</time>
      </trkpt>
      <trkpt lat="49.76216" lon="4.81447">
        <ele>271</ele>
        <time>2021-03-30T13:39:07.000Z</time>
      </trkpt>
      <trkpt lat="49.76208" lon="4.81447">
        <ele>271</ele>
        <time>2021-03-30T13:39:08.000Z</time>
      </trkpt>
      <trkpt lat="49.762" lon="4.81447">
        <ele>270</ele>
        <time>2021-03-30T13:39:09.000Z</time>
      </trkpt>
      <trkpt lat="49.76191" lon="4.81446">
        <ele>270</ele>
        <time>2021-03-30T13:39:10.000Z</time>
      </trkpt>
      <trkpt lat="49.76183" lon="4.81446">
        <ele>269</ele>
        <time>2021-03-30T13:39:11.000Z</time>
      </trkpt>
      <trkpt lat="49.76174" lon="4.81446">
        <ele>269</ele>
        <time>2021-03-30T13:39:12.000Z</time>
      </trkpt>
      <trkpt lat="49.76166" lon="4.81443">
        <ele>269</ele>
        <time>2021-03-30T13:39:13.000Z</time>
      </trkpt>
      <trkpt lat="49.76158" lon="4.81441">
        <ele>268</ele>
        <time>2021-03-30T13:39:14.000Z</time>
      </trkpt>
      <trkpt lat="49.7615" lon="4.81439">
        <ele>268</ele>
        <time>2021-03-30T13:39:15.000Z</time>
      </trkpt>
      <trkpt lat="49.76142" lon="4.81438">
        <ele>268</ele>
        <time>2021-03-30T13:39:16.000Z</time>
      </trkpt>
      <trkpt lat="49.76134" lon="4.81437">
        <ele>267</ele>
        <time>2021-03-30T13:39:17.000Z</time>
      </trkpt>
      <trkpt lat="49.76126" lon="4.81435">
        <ele>267</ele>
        <time>2021-03-30T13:39:18.000Z</time>
      </trkpt>
      <trkpt lat="49.76119" lon="4.81434">
        <ele>266</ele>
        <time>2021-03-30T13:39:19.000Z</time>
      </trkpt>
      <trkpt lat="49.76111" lon="4.81432">
        <ele>266</ele>
        <time>2021-03-30T13:39:20.000Z</time>
      </trkpt>
      <trkpt lat="49.76104" lon="4.81429">
        <ele>266</ele>
        <time>2021-03-30T13:39:21.000Z</time>
      </trkpt>
      <trkpt lat="49.76096" lon="4.81424">
        <ele>266</ele>
        <time>2021-03-30T13:39:22.000Z</time>
      </trkpt>
      <trkpt lat="49.76089" lon="4.8142">
        <ele>265</ele>
        <time>2021-03-30T13:39:23.000Z</time>
      </trkpt>
      <trkpt lat="49.76082" lon="4.81415">
        <ele>265</ele>
        <time>2021-03-30T13:39:24.000Z</time>
      </trkpt>
      <trkpt lat="49.76075" lon="4.8141">
        <ele>265</ele>
        <time>2021-03-30T13:39:25.000Z</time>
      </trkpt>
      <trkpt lat="49.76068" lon="4.81405">
        <ele>265</ele>
        <time>2021-03-30T13:39:26.000Z</time>
      </trkpt>
      <trkpt lat="49.76061" lon="4.814">
        <ele>264</ele>
        <time>2021-03-30T13:39:27.000Z</time>
      </trkpt>
      <trkpt lat="49.76054" lon="4.81394">
        <ele>264</ele>
        <time>2021-03-30T13:39:28.000Z</time>
      </trkpt>
      <trkpt lat="49.76047" lon="4.81389">
        <ele>264</ele>
        <time>2021-03-30T13:39:29.000Z</time>
      </trkpt>
      <trkpt lat="49.7604" lon="4.81384">
        <ele>263</ele>
        <time>2021-03-30T13:39:30.000Z</time>
      </trkpt>
      <trkpt lat="49.76032" lon="4.81379">
        <ele>263</ele>
        <time>2021-03-30T13:39:31.000Z</time>
      </trkpt>
      <trkpt lat="49.76024" lon="4.81373">
        <ele>263</ele>
        <time>2021-03-30T13:39:32.000Z</time>
      </trkpt>
      <trkpt lat="49.76017" lon="4.81368">
        <ele>262</ele>
        <time>2021-03-30T13:39:33.000Z</time>
      </trkpt>
      <trkpt lat="49.76009" lon="4.81363">
        <ele>262</ele>
        <time>2021-03-30T13:39:34.000Z</time>
      </trkpt>
      <trkpt lat="49.76002" lon="4.81359">
        <ele>262</ele>
        <time>2021-03-30T13:39:35.000Z</time>
      </trkpt>
      <trkpt lat="49.75994" lon="4.81354">
        <ele>262</ele>
        <time>2021-03-30T13:39:36.000Z</time>
      </trkpt>
      <trkpt lat="49.75986" lon="4.8135">
        <ele>261</ele>
        <time>2021-03-30T13:39:37.000Z</time>
      </trkpt>
      <trkpt lat="49.75979" lon="4.81346">
        <ele>261</ele>
        <time>2021-03-30T13:39:38.000Z</time>
      </trkpt>
      <trkpt lat="49.75972" lon="4.81342">
        <ele>261</ele>
        <time>2021-03-30T13:39:39.000Z</time>
      </trkpt>
      <trkpt lat="49.75965" lon="4.81339">
        <ele>261</ele>
        <time>2021-03-30T13:39:40.000Z</time>
      </trkpt>
      <trkpt lat="49.75958" lon="4.81335">
        <ele>260</ele>
        <time>2021-03-30T13:39:41.000Z</time>
      </trkpt>
      <trkpt lat="49.7595" lon="4.81332">
        <ele>260</ele>
        <time>2021-03-30T13:39:42.000Z</time>
      </trkpt>
      <trkpt lat="49.75943" lon="4.8133">
        <ele>260</ele>
        <time>2021-03-30T13:39:43.000Z</time>
      </trkpt>
      <trkpt lat="49.75936" lon="4.81327">
        <ele>259</ele>
        <time>2021-03-30T13:39:44.000Z</time>
      </trkpt>
      <trkpt lat="49.75929" lon="4.81325">
        <ele>259</ele>
        <time>2021-03-30T13:39:45.000Z</time>
      </trkpt>
      <trkpt lat="49.75922" lon="4.81324">
        <ele>259</ele>
        <time>2021-03-30T13:39:46.000Z</time>
      </trkpt>
      <trkpt lat="49.75915" lon="4.81325">
        <ele>259</ele>
        <time>2021-03-30T13:39:47.000Z</time>
      </trkpt>
      <trkpt lat="49.75907" lon="4.81327">
        <ele>259</ele>
        <time>2021-03-30T13:39:48.000Z</time>
      </trkpt>
      <trkpt lat="49.759" lon="4.8133">
        <ele>258</ele>
        <time>2021-03-30T13:39:49.000Z</time>
      </trkpt>
      <trkpt lat="49.75892" lon="4.81333">
        <ele>258</ele>
        <time>2021-03-30T13:39:50.000Z</time>
      </trkpt>
      <trkpt lat="49.75884" lon="4.81337">
        <ele>258</ele>
        <time>2021-03-30T13:39:51.000Z</time>
      </trkpt>
      <trkpt lat="49.75876" lon="4.81341">
        <ele>258</ele>
        <time>2021-03-30T13:39:52.000Z</time>
      </trkpt>
      <trkpt lat="49.75868" lon="4.81345">
        <ele>258</ele>
        <time>2021-03-30T13:39:53.000Z</time>
      </trkpt>
      <trkpt lat="49.7586" lon="4.8135">
        <ele>257</ele>
        <time>2021-03-30T13:39:54.000Z</time>
      </trkpt>
      <trkpt lat="49.75853" lon="4.81356">
        <ele>257</ele>
        <time>2021-03-30T13:39:55.000Z</time>
      </trkpt>
      <trkpt lat="49.75846" lon="4.81362">
        <ele>257</ele>
        <time>2021-03-30T13:39:56.000Z</time>
      </trkpt>
      <trkpt lat="49.75839" lon="4.81369">
        <ele>257</ele>
        <time>2021-03-30T13:39:57.000Z</time>
      </trkpt>
      <trkpt lat="49.75832" lon="4.81377">
        <ele>257</ele>
        <time>2021-03-30T13:39:58.000Z</time>
      </trkpt>
      <trkpt lat="49.75826" lon="4.81385">
        <ele>257</ele>
        <time>2021-03-30T13:39:59.000Z</time>
      </trkpt>
      <trkpt lat="49.7582" lon="4.81393">
        <ele>256</ele>
        <time>2021-03-30T13:40:00.000Z</time>
      </trkpt>
      <trkpt lat="49.75814" lon="4.81401">
        <ele>256</ele>
        <time>2021-03-30T13:40:01.000Z</time>
      </trkpt>
      <trkpt lat="49.75808" lon="4.81408">
        <ele>256</ele>
        <time>2021-03-30T13:40:02.000Z</time>
      </trkpt>
      <trkpt lat="49.75801" lon="4.81415">
        <ele>255</ele>
        <time>2021-03-30T13:40:03.000Z</time>
      </trkpt>
      <trkpt lat="49.75793" lon="4.81421">
        <ele>255</ele>
        <time>2021-03-30T13:40:04.000Z</time>
      </trkpt>
      <trkpt lat="49.75786" lon="4.81427">
        <ele>255</ele>
        <time>2021-03-30T13:40:05.000Z</time>
      </trkpt>
      <trkpt lat="49.75778" lon="4.81432">
        <ele>254</ele>
        <time>2021-03-30T13:40:06.000Z</time>
      </trkpt>
      <trkpt lat="49.75771" lon="4.81438">
        <ele>254</ele>
        <time>2021-03-30T13:40:07.000Z</time>
      </trkpt>
      <trkpt lat="49.75763" lon="4.81443">
        <ele>254</ele>
        <time>2021-03-30T13:40:08.000Z</time>
      </trkpt>
      <trkpt lat="49.75755" lon="4.81448">
        <ele>254</ele>
        <time>2021-03-30T13:40:09.000Z</time>
      </trkpt>
      <trkpt lat="49.75747" lon="4.81453">
        <ele>253</ele>
        <time>2021-03-30T13:40:10.000Z</time>
      </trkpt>
      <trkpt lat="49.75739" lon="4.81458">
        <ele>253</ele>
        <time>2021-03-30T13:40:11.000Z</time>
      </trkpt>
      <trkpt lat="49.75731" lon="4.81461">
        <ele>252</ele>
        <time>2021-03-30T13:40:12.000Z</time>
      </trkpt>
      <trkpt lat="49.75722" lon="4.81465">
        <ele>252</ele>
        <time>2021-03-30T13:40:13.000Z</time>
      </trkpt>
      <trkpt lat="49.75714" lon="4.81468">
        <ele>251</ele>
        <time>2021-03-30T13:40:14.000Z</time>
      </trkpt>
      <trkpt lat="49.75706" lon="4.81471">
        <ele>251</ele>
        <time>2021-03-30T13:40:15.000Z</time>
      </trkpt>
      <trkpt lat="49.75698" lon="4.81475">
        <ele>250</ele>
        <time>2021-03-30T13:40:16.000Z</time>
      </trkpt>
      <trkpt lat="49.75689" lon="4.81478">
        <ele>250</ele>
        <time>2021-03-30T13:40:17.000Z</time>
      </trkpt>
      <trkpt lat="49.7568" lon="4.81481">
        <ele>249</ele>
        <time>2021-03-30T13:40:18.000Z</time>
      </trkpt>
      <trkpt lat="49.75671" lon="4.81484">
        <ele>249</ele>
        <time>2021-03-30T13:40:19.000Z</time>
      </trkpt>
      <trkpt lat="49.75662" lon="4.81487">
        <ele>248</ele>
        <time>2021-03-30T13:40:20.000Z</time>
      </trkpt>
      <trkpt lat="49.75654" lon="4.8149">
        <ele>248</ele>
        <time>2021-03-30T13:40:21.000Z</time>
      </trkpt>
      <trkpt lat="49.75645" lon="4.81493">
        <ele>247</ele>
        <time>2021-03-30T13:40:22.000Z</time>
      </trkpt>
      <trkpt lat="49.75637" lon="4.81497">
        <ele>247</ele>
        <time>2021-03-30T13:40:23.000Z</time>
      </trkpt>
      <trkpt lat="49.75629" lon="4.81501">
        <ele>246</ele>
        <time>2021-03-30T13:40:24.000Z</time>
      </trkpt>
      <trkpt lat="49.7562" lon="4.81506">
        <ele>246</ele>
        <time>2021-03-30T13:40:25.000Z</time>
      </trkpt>
      <trkpt lat="49.75613" lon="4.81512">
        <ele>246</ele>
        <time>2021-03-30T13:40:26.000Z</time>
      </trkpt>
      <trkpt lat="49.75605" lon="4.81518">
        <ele>245</ele>
        <time>2021-03-30T13:40:27.000Z</time>
      </trkpt>
      <trkpt lat="49.75597" lon="4.81525">
        <ele>245</ele>
        <time>2021-03-30T13:40:28.000Z</time>
      </trkpt>
      <trkpt lat="49.75589" lon="4.81531">
        <ele>244</ele>
        <time>2021-03-30T13:40:29.000Z</time>
      </trkpt>
      <trkpt lat="49.75582" lon="4.81537">
        <ele>244</ele>
        <time>2021-03-30T13:40:30.000Z</time>
      </trkpt>
      <trkpt lat="49.75575" lon="4.81545">
        <ele>243</ele>
        <time>2021-03-30T13:40:31.000Z</time>
      </trkpt>
      <trkpt lat="49.75568" lon="4.81553">
        <ele>243</ele>
        <time>2021-03-30T13:40:32.000Z</time>
      </trkpt>
      <trkpt lat="49.75562" lon="4.81562">
        <ele>242</ele>
        <time>2021-03-30T13:40:33.000Z</time>
      </trkpt>
      <trkpt lat="49.75555" lon="4.81572">
        <ele>242</ele>
        <time>2021-03-30T13:40:34.000Z</time>
      </trkpt>
      <trkpt lat="49.75549" lon="4.81581">
        <ele>241</ele>
        <time>2021-03-30T13:40:35.000Z</time>
      </trkpt>
      <trkpt lat="49.75544" lon="4.81591">
        <ele>241</ele>
        <time>2021-03-30T13:40:36.000Z</time>
      </trkpt>
      <trkpt lat="49.75537" lon="4.81601">
        <ele>240</ele>
        <time>2021-03-30T13:40:37.000Z</time>
      </trkpt>
      <trkpt lat="49.7553" lon="4.8161">
        <ele>240</ele>
        <time>2021-03-30T13:40:38.000Z</time>
      </trkpt>
      <trkpt lat="49.75523" lon="4.81619">
        <ele>239</ele>
        <time>2021-03-30T13:40:39.000Z</time>
      </trkpt>
      <trkpt lat="49.75515" lon="4.81626">
        <ele>239</ele>
        <time>2021-03-30T13:40:40.000Z</time>
      </trkpt>
      <trkpt lat="49.75508" lon="4.81634">
        <ele>238</ele>
        <time>2021-03-30T13:40:41.000Z</time>
      </trkpt>
      <trkpt lat="49.755" lon="4.81641">
        <ele>238</ele>
        <time>2021-03-30T13:40:42.000Z</time>
      </trkpt>
      <trkpt lat="49.75492" lon="4.81648">
        <ele>237</ele>
        <time>2021-03-30T13:40:43.000Z</time>
      </trkpt>
      <trkpt lat="49.75484" lon="4.81654">
        <ele>236</ele>
        <time>2021-03-30T13:40:44.000Z</time>
      </trkpt>
      <trkpt lat="49.75475" lon="4.81659">
        <ele>236</ele>
        <time>2021-03-30T13:40:45.000Z</time>
      </trkpt>
      <trkpt lat="49.75465" lon="4.81664">
        <ele>235</ele>
        <time>2021-03-30T13:40:46.000Z</time>
      </trkpt>
      <trkpt lat="49.75456" lon="4.81668">
        <ele>234</ele>
        <time>2021-03-30T13:40:47.000Z</time>
      </trkpt>
      <trkpt lat="49.75447" lon="4.81673">
        <ele>233</ele>
        <time>2021-03-30T13:40:48.000Z</time>
      </trkpt>
      <trkpt lat="49.75438" lon="4.8168">
        <ele>233</ele>
        <time>2021-03-30T13:40:49.000Z</time>
      </trkpt>
      <trkpt lat="49.75429" lon="4.81685">
        <ele>232</ele>
        <time>2021-03-30T13:40:50.000Z</time>
      </trkpt>
      <trkpt lat="49.7542" lon="4.81691">
        <ele>231</ele>
        <time>2021-03-30T13:40:51.000Z</time>
      </trkpt>
      <trkpt lat="49.75411" lon="4.81696">
        <ele>230</ele>
        <time>2021-03-30T13:40:52.000Z</time>
      </trkpt>
      <trkpt lat="49.75402" lon="4.81701">
        <ele>229</ele>
        <time>2021-03-30T13:40:53.000Z</time>
      </trkpt>
      <trkpt lat="49.75393" lon="4.81707">
        <ele>228</ele>
        <time>2021-03-30T13:40:54.000Z</time>
      </trkpt>
      <trkpt lat="49.75384" lon="4.81714">
        <ele>227</ele>
        <time>2021-03-30T13:40:55.000Z</time>
      </trkpt>
      <trkpt lat="49.75376" lon="4.81723">
        <ele>226</ele>
        <time>2021-03-30T13:40:56.000Z</time>
      </trkpt>
      <trkpt lat="49.75368" lon="4.81731">
        <ele>225</ele>
        <time>2021-03-30T13:40:57.000Z</time>
      </trkpt>
      <trkpt lat="49.7536" lon="4.81739">
        <ele>224</ele>
        <time>2021-03-30T13:40:58.000Z</time>
      </trkpt>
      <trkpt lat="49.75351" lon="4.81746">
        <ele>223</ele>
        <time>2021-03-30T13:40:59.000Z</time>
      </trkpt>
      <trkpt lat="49.75343" lon="4.81749">
        <ele>222</ele>
        <time>2021-03-30T13:41:00.000Z</time>
      </trkpt>
      <trkpt lat="49.75334" lon="4.81752">
        <ele>221</ele>
        <time>2021-03-30T13:41:01.000Z</time>
      </trkpt>
      <trkpt lat="49.75326" lon="4.81754">
        <ele>220</ele>
        <time>2021-03-30T13:41:02.000Z</time>
      </trkpt>
      <trkpt lat="49.75318" lon="4.81755">
        <ele>219</ele>
        <time>2021-03-30T13:41:03.000Z</time>
      </trkpt>
      <trkpt lat="49.7531" lon="4.81756">
        <ele>218</ele>
        <time>2021-03-30T13:41:04.000Z</time>
      </trkpt>
      <trkpt lat="49.75301" lon="4.81757">
        <ele>217</ele>
        <time>2021-03-30T13:41:05.000Z</time>
      </trkpt>
      <trkpt lat="49.75293" lon="4.81758">
        <ele>217</ele>
        <time>2021-03-30T13:41:06.000Z</time>
      </trkpt>
      <trkpt lat="49.75285" lon="4.81757">
        <ele>216</ele>
        <time>2021-03-30T13:41:07.000Z</time>
      </trkpt>
      <trkpt lat="49.75276" lon="4.81756">
        <ele>215</ele>
        <time>2021-03-30T13:41:08.000Z</time>
      </trkpt>
      <trkpt lat="49.75268" lon="4.81753">
        <ele>214</ele>
        <time>2021-03-30T13:41:09.000Z</time>
      </trkpt>
      <trkpt lat="49.7526" lon="4.81748">
        <ele>214</ele>
        <time>2021-03-30T13:41:10.000Z</time>
      </trkpt>
      <trkpt lat="49.75252" lon="4.81743">
        <ele>213</ele>
        <time>2021-03-30T13:41:11.000Z</time>
      </trkpt>
      <trkpt lat="49.75244" lon="4.81737">
        <ele>212</ele>
        <time>2021-03-30T13:41:12.000Z</time>
      </trkpt>
      <trkpt lat="49.75237" lon="4.81731">
        <ele>212</ele>
        <time>2021-03-30T13:41:13.000Z</time>
      </trkpt>
      <trkpt lat="49.7523" lon="4.81724">
        <ele>211</ele>
        <time>2021-03-30T13:41:14.000Z</time>
      </trkpt>
      <trkpt lat="49.75222" lon="4.81718">
        <ele>210</ele>
        <time>2021-03-30T13:41:15.000Z</time>
      </trkpt>
      <trkpt lat="49.75215" lon="4.81711">
        <ele>210</ele>
        <time>2021-03-30T13:41:16.000Z</time>
      </trkpt>
      <trkpt lat="49.75208" lon="4.81705">
        <ele>209</ele>
        <time>2021-03-30T13:41:17.000Z</time>
      </trkpt>
      <trkpt lat="49.75201" lon="4.81701">
        <ele>208</ele>
        <time>2021-03-30T13:41:18.000Z</time>
      </trkpt>
      <trkpt lat="49.75193" lon="4.817">
        <ele>208</ele>
        <time>2021-03-30T13:41:19.000Z</time>
      </trkpt>
      <trkpt lat="49.75186" lon="4.817">
        <ele>207</ele>
        <time>2021-03-30T13:41:20.000Z</time>
      </trkpt>
      <trkpt lat="49.75178" lon="4.81703">
        <ele>207</ele>
        <time>2021-03-30T13:41:21.000Z</time>
      </trkpt>
      <trkpt lat="49.7517" lon="4.81708">
        <ele>206</ele>
        <time>2021-03-30T13:41:22.000Z</time>
      </trkpt>
      <trkpt lat="49.75162" lon="4.81716">
        <ele>205</ele>
        <time>2021-03-30T13:41:23.000Z</time>
      </trkpt>
      <trkpt lat="49.75155" lon="4.81723">
        <ele>205</ele>
        <time>2021-03-30T13:41:24.000Z</time>
      </trkpt>
      <trkpt lat="49.75149" lon="4.8173">
        <ele>204</ele>
        <time>2021-03-30T13:41:25.000Z</time>
      </trkpt>
      <trkpt lat="49.75144" lon="4.81736">
        <ele>203</ele>
        <time>2021-03-30T13:41:26.000Z</time>
      </trkpt>
      <trkpt lat="49.75141" lon="4.8174">
        <ele>203</ele>
        <time>2021-03-30T13:41:27.000Z</time>
      </trkpt>
      <trkpt lat="49.75138" lon="4.81744">
        <ele>202</ele>
        <time>2021-03-30T13:41:28.000Z</time>
      </trkpt>
      <trkpt lat="49.75137" lon="4.81749">
        <ele>201</ele>
        <time>2021-03-30T13:41:29.000Z</time>
      </trkpt>
      <trkpt lat="49.75138" lon="4.81756">
        <ele>201</ele>
        <time>2021-03-30T13:41:30.000Z</time>
      </trkpt>
      <trkpt lat="49.7514" lon="4.81761">
        <ele>201</ele>
        <time>2021-03-30T13:41:31.000Z</time>
      </trkpt>
      <trkpt lat="49.75143" lon="4.81766">
        <ele>200</ele>
        <time>2021-03-30T13:41:32.000Z</time>
      </trkpt>
      <trkpt lat="49.75145" lon="4.8177">
        <ele>200</ele>
        <time>2021-03-30T13:41:33.000Z</time>
      </trkpt>
      <trkpt lat="49.75148" lon="4.81775">
        <ele>200</ele>
        <time>2021-03-30T13:41:34.000Z</time>
      </trkpt>
      <trkpt lat="49.7515" lon="4.8178">
        <ele>200</ele>
        <time>2021-03-30T13:41:35.000Z</time>
      </trkpt>
      <trkpt lat="49.75153" lon="4.81784">
        <ele>200</ele>
        <time>2021-03-30T13:41:36.000Z</time>
      </trkpt>
      <trkpt lat="49.75155" lon="4.81789">
        <ele>199</ele>
        <time>2021-03-30T13:41:37.000Z</time>
      </trkpt>
      <trkpt lat="49.75158" lon="4.81793">
        <ele>199</ele>
        <time>2021-03-30T13:41:38.000Z</time>
      </trkpt>
      <trkpt lat="49.7516" lon="4.81798">
        <ele>199</ele>
        <time>2021-03-30T13:41:39.000Z</time>
      </trkpt>
      <trkpt lat="49.75163" lon="4.81802">
        <ele>199</ele>
        <time>2021-03-30T13:41:40.000Z</time>
      </trkpt>
      <trkpt lat="49.75166" lon="4.81807">
        <ele>199</ele>
        <time>2021-03-30T13:41:41.000Z</time>
      </trkpt>
      <trkpt lat="49.75169" lon="4.81812">
        <ele>199</ele>
        <time>2021-03-30T13:41:42.000Z</time>
      </trkpt>
      <trkpt lat="49.75172" lon="4.81817">
        <ele>199</ele>
        <time>2021-03-30T13:41:43.000Z</time>
      </trkpt>
      <trkpt lat="49.75175" lon="4.81823">
        <ele>199</ele>
        <time>2021-03-30T13:41:44.000Z</time>
      </trkpt>
      <trkpt lat="49.75179" lon="4.81828">
        <ele>199</ele>
        <time>2021-03-30T13:41:45.000Z</time>
      </trkpt>
      <trkpt lat="49.75182" lon="4.81834">
        <ele>198</ele>
        <time>2021-03-30T13:41:46.000Z</time>
      </trkpt>
      <trkpt lat="49.75185" lon="4.81839">
        <ele>198</ele>
        <time>2021-03-30T13:41:47.000Z</time>
      </trkpt>
      <trkpt lat="49.75188" lon="4.81845">
        <ele>198</ele>
        <time>2021-03-30T13:41:48.000Z</time>
      </trkpt>
      <trkpt lat="49.75192" lon="4.8185">
        <ele>198</ele>
        <time>2021-03-30T13:41:49.000Z</time>
      </trkpt>
      <trkpt lat="49.75195" lon="4.81856">
        <ele>198</ele>
        <time>2021-03-30T13:41:50.000Z</time>
      </trkpt>
      <trkpt lat="49.75199" lon="4.81861">
        <ele>198</ele>
        <time>2021-03-30T13:41:51.000Z</time>
      </trkpt>
      <trkpt lat="49.75203" lon="4.81867">
        <ele>197</ele>
        <time>2021-03-30T13:41:52.000Z</time>
      </trkpt>
      <trkpt lat="49.75206" lon="4.81872">
        <ele>197</ele>
        <time>2021-03-30T13:41:53.000Z</time>
      </trkpt>
      <trkpt lat="49.7521" lon="4.81877">
        <ele>197</ele>
        <time>2021-03-30T13:41:54.000Z</time>
      </trkpt>
      <trkpt lat="49.75214" lon="4.81882">
        <ele>197</ele>
        <time>2021-03-30T13:41:55.000Z</time>
      </trkpt>
      <trkpt lat="49.75218" lon="4.81887">
        <ele>197</ele>
        <time>2021-03-30T13:41:56.000Z</time>
      </trkpt>
      <trkpt lat="49.75221" lon="4.81892">
        <ele>197</ele>
        <time>2021-03-30T13:41:57.000Z</time>
      </trkpt>
      <trkpt lat="49.75225" lon="4.81896">
        <ele>196</ele>
        <time>2021-03-30T13:41:58.000Z</time>
      </trkpt>
      <trkpt lat="49.75229" lon="4.81901">
        <ele>196</ele>
        <time>2021-03-30T13:41:59.000Z</time>
      </trkpt>
      <trkpt lat="49.75232" lon="4.81905">
        <ele>196</ele>
        <time>2021-03-30T13:42:00.000Z</time>
      </trkpt>
      <trkpt lat="49.75236" lon="4.8191">
        <ele>196</ele>
        <time>2021-03-30T13:42:01.000Z</time>
      </trkpt>
      <trkpt lat="49.75241" lon="4.81914">
        <ele>196</ele>
        <time>2021-03-30T13:42:02.000Z</time>
      </trkpt>
      <trkpt lat="49.75245" lon="4.81918">
        <ele>195</ele>
        <time>2021-03-30T13:42:03.000Z</time>
      </trkpt>
      <trkpt lat="49.75249" lon="4.81923">
        <ele>195</ele>
        <time>2021-03-30T13:42:04.000Z</time>
      </trkpt>
      <trkpt lat="49.75252" lon="4.81929">
        <ele>195</ele>
        <time>2021-03-30T13:42:05.000Z</time>
      </trkpt>
      <trkpt lat="49.75256" lon="4.81934">
        <ele>195</ele>
        <time>2021-03-30T13:42:06.000Z</time>
      </trkpt>
      <trkpt lat="49.7526" lon="4.81939">
        <ele>195</ele>
        <time>2021-03-30T13:42:07.000Z</time>
      </trkpt>
      <trkpt lat="49.75264" lon="4.81945">
        <ele>194</ele>
        <time>2021-03-30T13:42:08.000Z</time>
      </trkpt>
      <trkpt lat="49.75268" lon="4.8195">
        <ele>194</ele>
        <time>2021-03-30T13:42:09.000Z</time>
      </trkpt>
      <trkpt lat="49.75273" lon="4.81955">
        <ele>194</ele>
        <time>2021-03-30T13:42:10.000Z</time>
      </trkpt>
      <trkpt lat="49.75277" lon="4.81959">
        <ele>194</ele>
        <time>2021-03-30T13:42:11.000Z</time>
      </trkpt>
      <trkpt lat="49.75282" lon="4.81963">
        <ele>194</ele>
        <time>2021-03-30T13:42:12.000Z</time>
      </trkpt>
      <trkpt lat="49.75288" lon="4.81967">
        <ele>193</ele>
        <time>2021-03-30T13:42:13.000Z</time>
      </trkpt>
      <trkpt lat="49.75293" lon="4.81971">
        <ele>193</ele>
        <time>2021-03-30T13:42:14.000Z</time>
      </trkpt>
      <trkpt lat="49.75297" lon="4.81974">
        <ele>193</ele>
        <time>2021-03-30T13:42:15.000Z</time>
      </trkpt>
      <trkpt lat="49.75302" lon="4.81978">
        <ele>193</ele>
        <time>2021-03-30T13:42:16.000Z</time>
      </trkpt>
      <trkpt lat="49.75306" lon="4.81981">
        <ele>192</ele>
        <time>2021-03-30T13:42:17.000Z</time>
      </trkpt>
      <trkpt lat="49.75311" lon="4.81983">
        <ele>192</ele>
        <time>2021-03-30T13:42:18.000Z</time>
      </trkpt>
      <trkpt lat="49.75315" lon="4.81986">
        <ele>192</ele>
        <time>2021-03-30T13:42:19.000Z</time>
      </trkpt>
      <trkpt lat="49.75319" lon="4.81988">
        <ele>191</ele>
        <time>2021-03-30T13:42:20.000Z</time>
      </trkpt>
      <trkpt lat="49.75322" lon="4.8199">
        <ele>191</ele>
        <time>2021-03-30T13:42:21.000Z</time>
      </trkpt>
      <trkpt lat="49.75326" lon="4.81992">
        <ele>191</ele>
        <time>2021-03-30T13:42:22.000Z</time>
      </trkpt>
      <trkpt lat="49.75329" lon="4.81995">
        <ele>191</ele>
        <time>2021-03-30T13:42:23.000Z</time>
      </trkpt>
      <trkpt lat="49.75332" lon="4.81997">
        <ele>191</ele>
        <time>2021-03-30T13:42:24.000Z</time>
      </trkpt>
      <trkpt lat="49.75336" lon="4.82">
        <ele>191</ele>
        <time>2021-03-30T13:42:25.000Z</time>
      </trkpt>
      <trkpt lat="49.75339" lon="4.82001">
        <ele>190</ele>
        <time>2021-03-30T13:42:26.000Z</time>
      </trkpt>
      <trkpt lat="49.75342" lon="4.82003">
        <ele>190</ele>
        <time>2021-03-30T13:42:27.000Z</time>
      </trkpt>
      <trkpt lat="49.75345" lon="4.82004">
        <ele>190</ele>
        <time>2021-03-30T13:42:28.000Z</time>
      </trkpt>
      <trkpt lat="49.75348" lon="4.82005">
        <ele>190</ele>
        <time>2021-03-30T13:42:29.000Z</time>
      </trkpt>
      <trkpt lat="49.75351" lon="4.82008">
        <ele>190</ele>
        <time>2021-03-30T13:42:30.000Z</time>
      </trkpt>
      <trkpt lat="49.75354" lon="4.8201">
        <ele>190</ele>
        <time>2021-03-30T13:42:31.000Z</time>
      </trkpt>
      <trkpt lat="49.75357" lon="4.82012">
        <ele>190</ele>
        <time>2021-03-30T13:42:32.000Z</time>
      </trkpt>
      <trkpt lat="49.75361" lon="4.82015">
        <ele>190</ele>
        <time>2021-03-30T13:42:33.000Z</time>
      </trkpt>
      <trkpt lat="49.75364" lon="4.82017">
        <ele>190</ele>
        <time>2021-03-30T13:42:34.000Z</time>
      </trkpt>
      <trkpt lat="49.75367" lon="4.82019">
        <ele>190</ele>
        <time>2021-03-30T13:42:35.000Z</time>
      </trkpt>
      <trkpt lat="49.75371" lon="4.82021">
        <ele>190</ele>
        <time>2021-03-30T13:42:36.000Z</time>
      </trkpt>
      <trkpt lat="49.75374" lon="4.82023">
        <ele>190</ele>
        <time>2021-03-30T13:42:37.000Z</time>
      </trkpt>
      <trkpt lat="49.75378" lon="4.82025">
        <ele>190</ele>
        <time>2021-03-30T13:42:38.000Z</time>
      </trkpt>
      <trkpt lat="49.75381" lon="4.82026">
        <ele>190</ele>
        <time>2021-03-30T13:42:39.000Z</time>
      </trkpt>
      <trkpt lat="49.75385" lon="4.82028">
        <ele>190</ele>
        <time>2021-03-30T13:42:40.000Z</time>
      </trkpt>
      <trkpt lat="49.75388" lon="4.82031">
        <ele>190</ele>
        <time>2021-03-30T13:42:41.000Z</time>
      </trkpt>
      <trkpt lat="49.75392" lon="4.82034">
        <ele>190</ele>
        <time>2021-03-30T13:42:42.000Z</time>
      </trkpt>
      <trkpt lat="49.75396" lon="4.82037">
        <ele>190</ele>
        <time>2021-03-30T13:42:43.000Z</time>
      </trkpt>
      <trkpt lat="49.754" lon="4.8204">
        <ele>190</ele>
        <time>2021-03-30T13:42:44.000Z</time>
      </trkpt>
      <trkpt lat="49.75403" lon="4.82043">
        <ele>190</ele>
        <time>2021-03-30T13:42:45.000Z</time>
      </trkpt>
      <trkpt lat="49.75406" lon="4.82046">
        <ele>190</ele>
        <time>2021-03-30T13:42:46.000Z</time>
      </trkpt>
      <trkpt lat="49.75407" lon="4.82046">
        <ele>190</ele>
        <time>2021-03-30T13:42:47.000Z</time>
      </trkpt>
      <trkpt lat="49.75407" lon="4.82046">
        <ele>190</ele>
        <time>2021-03-30T13:42:48.000Z</time>
      </trkpt>
      <trkpt lat="49.75406" lon="4.82045">
        <ele>190</ele>
        <time>2021-03-30T13:42:49.000Z</time>
      </trkpt>
      <trkpt lat="49.75404" lon="4.82044">
        <ele>190</ele>
        <time>2021-03-30T13:42:50.000Z</time>
      </trkpt>
      <trkpt lat="49.75401" lon="4.82042">
        <ele>190</ele>
        <time>2021-03-30T13:42:51.000Z</time>
      </trkpt>
      <trkpt lat="49.75398" lon="4.8204">
        <ele>190</ele>
        <time>2021-03-30T13:42:52.000Z</time>
      </trkpt>
      <trkpt lat="49.75395" lon="4.82037">
        <ele>190</ele>
        <time>2021-03-30T13:42:53.000Z</time>
      </trkpt>
      <trkpt lat="49.75392" lon="4.82035">
        <ele>190</ele>
        <time>2021-03-30T13:42:54.000Z</time>
      </trkpt>
      <trkpt lat="49.75389" lon="4.82033">
        <ele>190</ele>
        <time>2021-03-30T13:42:55.000Z</time>
      </trkpt>
      <trkpt lat="49.75386" lon="4.82031">
        <ele>190</ele>
        <time>2021-03-30T13:42:56.000Z</time>
      </trkpt>
      <trkpt lat="49.75383" lon="4.82028">
        <ele>190</ele>
        <time>2021-03-30T13:42:57.000Z</time>
      </trkpt>
      <trkpt lat="49.75381" lon="4.82026">
        <ele>190</ele>
        <time>2021-03-30T13:42:58.000Z</time>
      </trkpt>
      <trkpt lat="49.7538" lon="4.82024">
        <ele>190</ele>
        <time>2021-03-30T13:42:59.000Z</time>
      </trkpt>
      <trkpt lat="49.75379" lon="4.82023">
        <ele>190</ele>
        <time>2021-03-30T13:43:00.000Z</time>
      </trkpt>
      <trkpt lat="49.75378" lon="4.82022">
        <ele>190</ele>
        <time>2021-03-30T13:43:01.000Z</time>
      </trkpt>
      <trkpt lat="49.75377" lon="4.82021">
        <ele>190</ele>
        <time>2021-03-30T13:43:02.000Z</time>
      </trkpt>
      <trkpt lat="49.75376" lon="4.82021">
        <ele>190</ele>
        <time>2021-03-30T13:43:03.000Z</time>
      </trkpt>
      <trkpt lat="49.75375" lon="4.82022">
        <ele>190</ele>
        <time>2021-03-30T13:43:04.000Z</time>
      </trkpt>
      <trkpt lat="49.75376" lon="4.82023">
        <ele>190</ele>
        <time>2021-03-30T13:43:05.000Z</time>
      </trkpt>
      <trkpt lat="49.75378" lon="4.82024">
        <ele>190</ele>
        <time>2021-03-30T13:43:06.000Z</time>
      </trkpt>
      <trkpt lat="49.75379" lon="4.82026">
        <ele>190</ele>
        <time>2021-03-30T13:43:07.000Z</time>
      </trkpt>
      <trkpt lat="49.75381" lon="4.82026">
        <ele>190</ele>
        <time>2021-03-30T13:43:08.000Z</time>
      </trkpt>
      <trkpt lat="49.75384" lon="4.82028">
        <ele>190</ele>
        <time>2021-03-30T13:43:09.000Z</time>
      </trkpt>
      <trkpt lat="49.75386" lon="4.8203">
        <ele>190</ele>
        <time>2021-03-30T13:43:10.000Z</time>
      </trkpt>
      <trkpt lat="49.75389" lon="4.82032">
        <ele>190</ele>
        <time>2021-03-30T13:43:11.000Z</time>
      </trkpt>
      <trkpt lat="49.75391" lon="4.82035">
        <ele>190</ele>
        <time>2021-03-30T13:43:12.000Z</time>
      </trkpt>
      <trkpt lat="49.75394" lon="4.82037">
        <ele>190</ele>
        <time>2021-03-30T13:43:13.000Z</time>
      </trkpt>
      <trkpt lat="49.75396" lon="4.82038">
        <ele>190</ele>
        <time>2021-03-30T13:43:14.000Z</time>
      </trkpt>
      <trkpt lat="49.75399" lon="4.8204">
        <ele>190</ele>
        <time>2021-03-30T13:43:15.000Z</time>
      </trkpt>
      <trkpt lat="49.75401" lon="4.82042">
        <ele>190</ele>
        <time>2021-03-30T13:43:16.000Z</time>
      </trkpt>
      <trkpt lat="49.75404" lon="4.82044">
        <ele>190</ele>
        <time>2021-03-30T13:43:17.000Z</time>
      </trkpt>
      <trkpt lat="49.75406" lon="4.82047">
        <ele>190</ele>
        <time>2021-03-30T13:43:18.000Z</time>
      </trkpt>
      <trkpt lat="49.75409" lon="4.8205">
        <ele>190</ele>
        <time>2021-03-30T13:43:19.000Z</time>
      </trkpt>
      <trkpt lat="49.75412" lon="4.82053">
        <ele>190</ele>
        <time>2021-03-30T13:43:20.000Z</time>
      </trkpt>
      <trkpt lat="49.75416" lon="4.82056">
        <ele>190</ele>
        <time>2021-03-30T13:43:21.000Z</time>
      </trkpt>
      <trkpt lat="49.7542" lon="4.8206">
        <ele>190</ele>
        <time>2021-03-30T13:43:22.000Z</time>
      </trkpt>
      <trkpt lat="49.75424" lon="4.82064">
        <ele>190</ele>
        <time>2021-03-30T13:43:23.000Z</time>
      </trkpt>
      <trkpt lat="49.75428" lon="4.82068">
        <ele>190</ele>
        <time>2021-03-30T13:43:24.000Z</time>
      </trkpt>
      <trkpt lat="49.75432" lon="4.82072">
        <ele>190</ele>
        <time>2021-03-30T13:43:25.000Z</time>
      </trkpt>
      <trkpt lat="49.75436" lon="4.82076">
        <ele>190</ele>
        <time>2021-03-30T13:43:26.000Z</time>
      </trkpt>
      <trkpt lat="49.7544" lon="4.8208">
        <ele>190</ele>
        <time>2021-03-30T13:43:27.000Z</time>
      </trkpt>
      <trkpt lat="49.75443" lon="4.82084">
        <ele>189</ele>
        <time>2021-03-30T13:43:28.000Z</time>
      </trkpt>
      <trkpt lat="49.75447" lon="4.82087">
        <ele>189</ele>
        <time>2021-03-30T13:43:29.000Z</time>
      </trkpt>
      <trkpt lat="49.75451" lon="4.82091">
        <ele>189</ele>
        <time>2021-03-30T13:43:30.000Z</time>
      </trkpt>
      <trkpt lat="49.75454" lon="4.82095">
        <ele>189</ele>
        <time>2021-03-30T13:43:31.000Z</time>
      </trkpt>
      <trkpt lat="49.75459" lon="4.821">
        <ele>189</ele>
        <time>2021-03-30T13:43:32.000Z</time>
      </trkpt>
      <trkpt lat="49.75462" lon="4.82104">
        <ele>189</ele>
        <time>2021-03-30T13:43:33.000Z</time>
      </trkpt>
      <trkpt lat="49.75466" lon="4.8211">
        <ele>189</ele>
        <time>2021-03-30T13:43:34.000Z</time>
      </trkpt>
      <trkpt lat="49.75469" lon="4.82115">
        <ele>188</ele>
        <time>2021-03-30T13:43:35.000Z</time>
      </trkpt>
      <trkpt lat="49.75473" lon="4.82121">
        <ele>188</ele>
        <time>2021-03-30T13:43:36.000Z</time>
      </trkpt>
      <trkpt lat="49.75477" lon="4.82126">
        <ele>188</ele>
        <time>2021-03-30T13:43:37.000Z</time>
      </trkpt>
      <trkpt lat="49.75481" lon="4.82132">
        <ele>188</ele>
        <time>2021-03-30T13:43:38.000Z</time>
      </trkpt>
      <trkpt lat="49.75485" lon="4.82137">
        <ele>188</ele>
        <time>2021-03-30T13:43:39.000Z</time>
      </trkpt>
      <trkpt lat="49.75488" lon="4.82143">
        <ele>188</ele>
        <time>2021-03-30T13:43:40.000Z</time>
      </trkpt>
      <trkpt lat="49.75492" lon="4.82149">
        <ele>188</ele>
        <time>2021-03-30T13:43:41.000Z</time>
      </trkpt>
      <trkpt lat="49.75495" lon="4.82155">
        <ele>188</ele>
        <time>2021-03-30T13:43:42.000Z</time>
      </trkpt>
      <trkpt lat="49.75498" lon="4.82161">
        <ele>188</ele>
        <time>2021-03-30T13:43:43.000Z</time>
      </trkpt>
      <trkpt lat="49.75502" lon="4.82167">
        <ele>188</ele>
        <time>2021-03-30T13:43:44.000Z</time>
      </trkpt>
      <trkpt lat="49.75505" lon="4.82173">
        <ele>188</ele>
        <time>2021-03-30T13:43:45.000Z</time>
      </trkpt>
      <trkpt lat="49.75508" lon="4.8218">
        <ele>189</ele>
        <time>2021-03-30T13:43:46.000Z</time>
      </trkpt>
      <trkpt lat="49.75512" lon="4.82187">
        <ele>189</ele>
        <time>2021-03-30T13:43:47.000Z</time>
      </trkpt>
      <trkpt lat="49.75514" lon="4.82193">
        <ele>189</ele>
        <time>2021-03-30T13:43:48.000Z</time>
      </trkpt>
      <trkpt lat="49.75518" lon="4.822">
        <ele>189</ele>
        <time>2021-03-30T13:43:49.000Z</time>
      </trkpt>
      <trkpt lat="49.75521" lon="4.82206">
        <ele>188</ele>
        <time>2021-03-30T13:43:50.000Z</time>
      </trkpt>
      <trkpt lat="49.75524" lon="4.82212">
        <ele>188</ele>
        <time>2021-03-30T13:43:51.000Z</time>
      </trkpt>
      <trkpt lat="49.75528" lon="4.82219">
        <ele>188</ele>
        <time>2021-03-30T13:43:52.000Z</time>
      </trkpt>
      <trkpt lat="49.75531" lon="4.82225">
        <ele>188</ele>
        <time>2021-03-30T13:43:53.000Z</time>
      </trkpt>
      <trkpt lat="49.75535" lon="4.82232">
        <ele>188</ele>
        <time>2021-03-30T13:43:54.000Z</time>
      </trkpt>
      <trkpt lat="49.75538" lon="4.82238">
        <ele>188</ele>
        <time>2021-03-30T13:43:55.000Z</time>
      </trkpt>
      <trkpt lat="49.75542" lon="4.82245">
        <ele>188</ele>
        <time>2021-03-30T13:43:56.000Z</time>
      </trkpt>
      <trkpt lat="49.75545" lon="4.82252">
        <ele>188</ele>
        <time>2021-03-30T13:43:57.000Z</time>
      </trkpt>
      <trkpt lat="49.75547" lon="4.82259">
        <ele>188</ele>
        <time>2021-03-30T13:43:58.000Z</time>
      </trkpt>
      <trkpt lat="49.75547" lon="4.82266">
        <ele>188</ele>
        <time>2021-03-30T13:43:59.000Z</time>
      </trkpt>
      <trkpt lat="49.75545" lon="4.82273">
        <ele>188</ele>
        <time>2021-03-30T13:44:00.000Z</time>
      </trkpt>
      <trkpt lat="49.75542" lon="4.82278">
        <ele>187</ele>
        <time>2021-03-30T13:44:01.000Z</time>
      </trkpt>
      <trkpt lat="49.75537" lon="4.82279">
        <ele>187</ele>
        <time>2021-03-30T13:44:02.000Z</time>
      </trkpt>
      <trkpt lat="49.75533" lon="4.82277">
        <ele>187</ele>
        <time>2021-03-30T13:44:03.000Z</time>
      </trkpt>
      <trkpt lat="49.75528" lon="4.82275">
        <ele>186</ele>
        <time>2021-03-30T13:44:04.000Z</time>
      </trkpt>
      <trkpt lat="49.75523" lon="4.82272">
        <ele>186</ele>
        <time>2021-03-30T13:44:05.000Z</time>
      </trkpt>
      <trkpt lat="49.75518" lon="4.8227">
        <ele>186</ele>
        <time>2021-03-30T13:44:06.000Z</time>
      </trkpt>
      <trkpt lat="49.75513" lon="4.82267">
        <ele>186</ele>
        <time>2021-03-30T13:44:07.000Z</time>
      </trkpt>
      <trkpt lat="49.75508" lon="4.82265">
        <ele>186</ele>
        <time>2021-03-30T13:44:08.000Z</time>
      </trkpt>
      <trkpt lat="49.75503" lon="4.82263">
        <ele>186</ele>
        <time>2021-03-30T13:44:09.000Z</time>
      </trkpt>
      <trkpt lat="49.75498" lon="4.8226">
        <ele>185</ele>
        <time>2021-03-30T13:44:10.000Z</time>
      </trkpt>
      <trkpt lat="49.75493" lon="4.82257">
        <ele>185</ele>
        <time>2021-03-30T13:44:11.000Z</time>
      </trkpt>
      <trkpt lat="49.75488" lon="4.82253">
        <ele>185</ele>
        <time>2021-03-30T13:44:12.000Z</time>
      </trkpt>
      <trkpt lat="49.75483" lon="4.82249">
        <ele>185</ele>
        <time>2021-03-30T13:44:13.000Z</time>
      </trkpt>
      <trkpt lat="49.75479" lon="4.82244">
        <ele>185</ele>
        <time>2021-03-30T13:44:14.000Z</time>
      </trkpt>
      <trkpt lat="49.75476" lon="4.8224">
        <ele>185</ele>
        <time>2021-03-30T13:44:15.000Z</time>
      </trkpt>
      <trkpt lat="49.75472" lon="4.82235">
        <ele>185</ele>
        <time>2021-03-30T13:44:16.000Z</time>
      </trkpt>
      <trkpt lat="49.75468" lon="4.82231">
        <ele>185</ele>
        <time>2021-03-30T13:44:17.000Z</time>
      </trkpt>
      <trkpt lat="49.75464" lon="4.82226">
        <ele>185</ele>
        <time>2021-03-30T13:44:18.000Z</time>
      </trkpt>
      <trkpt lat="49.7546" lon="4.82223">
        <ele>185</ele>
        <time>2021-03-30T13:44:19.000Z</time>
      </trkpt>
      <trkpt lat="49.75455" lon="4.8222">
        <ele>185</ele>
        <time>2021-03-30T13:44:20.000Z</time>
      </trkpt>
      <trkpt lat="49.75451" lon="4.82218">
        <ele>185</ele>
        <time>2021-03-30T13:44:21.000Z</time>
      </trkpt>
      <trkpt lat="49.75446" lon="4.82216">
        <ele>185</ele>
        <time>2021-03-30T13:44:22.000Z</time>
      </trkpt>
      <trkpt lat="49.75442" lon="4.82213">
        <ele>185</ele>
        <time>2021-03-30T13:44:23.000Z</time>
      </trkpt>
      <trkpt lat="49.75437" lon="4.82211">
        <ele>185</ele>
        <time>2021-03-30T13:44:24.000Z</time>
      </trkpt>
      <trkpt lat="49.75432" lon="4.82208">
        <ele>185</ele>
        <time>2021-03-30T13:44:25.000Z</time>
      </trkpt>
      <trkpt lat="49.75428" lon="4.82206">
        <ele>185</ele>
        <time>2021-03-30T13:44:26.000Z</time>
      </trkpt>
      <trkpt lat="49.75423" lon="4.82203">
        <ele>186</ele>
        <time>2021-03-30T13:44:27.000Z</time>
      </trkpt>
      <trkpt lat="49.75418" lon="4.82201">
        <ele>186</ele>
        <time>2021-03-30T13:44:28.000Z</time>
      </trkpt>
      <trkpt lat="49.75414" lon="4.82199">
        <ele>186</ele>
        <time>2021-03-30T13:44:29.000Z</time>
      </trkpt>
      <trkpt lat="49.75409" lon="4.82198">
        <ele>186</ele>
        <time>2021-03-30T13:44:30.000Z</time>
      </trkpt>
      <trkpt lat="49.75405" lon="4.82196">
        <ele>186</ele>
        <time>2021-03-30T13:44:31.000Z</time>
      </trkpt>
      <trkpt lat="49.754" lon="4.82195">
        <ele>186</ele>
        <time>2021-03-30T13:44:32.000Z</time>
      </trkpt>
      <trkpt lat="49.75396" lon="4.82194">
        <ele>186</ele>
        <time>2021-03-30T13:44:33.000Z</time>
      </trkpt>
      <trkpt lat="49.75392" lon="4.82193">
        <ele>186</ele>
        <time>2021-03-30T13:44:34.000Z</time>
      </trkpt>
      <trkpt lat="49.75388" lon="4.82194">
        <ele>186</ele>
        <time>2021-03-30T13:44:35.000Z</time>
      </trkpt>
      <trkpt lat="49.75385" lon="4.82196">
        <ele>186</ele>
        <time>2021-03-30T13:44:36.000Z</time>
      </trkpt>
      <trkpt lat="49.75383" lon="4.82199">
        <ele>186</ele>
        <time>2021-03-30T13:44:37.000Z</time>
      </trkpt>
      <trkpt lat="49.75381" lon="4.82201">
        <ele>186</ele>
        <time>2021-03-30T13:44:38.000Z</time>
      </trkpt>
      <trkpt lat="49.75379" lon="4.82202">
        <ele>186</ele>
        <time>2021-03-30T13:44:39.000Z</time>
      </trkpt>
      <trkpt lat="49.75379" lon="4.82203">
        <ele>186</ele>
        <time>2021-03-30T13:44:40.000Z</time>
      </trkpt>
      <trkpt lat="49.75379" lon="4.82203">
        <ele>186</ele>
        <time>2021-03-30T13:44:41.000Z</time>
      </trkpt>
      <trkpt lat="49.75379" lon="4.82203">
        <ele>186</ele>
        <time>2021-03-30T13:44:42.000Z</time>
      </trkpt>
      <trkpt lat="49.75379" lon="4.82203">
        <ele>186</ele>
        <time>2021-03-30T13:44:43.000Z</time>
      </trkpt>
    </trkseg>
  </trk>
</gpx>